<?xml version="1.0" encoding="UTF-8" standalone="no" ?>
<gpx xmlns="http://www.topografix.com/GPX/1/1" xmlns:xsi="http://www.w3.org/2001/XMLSchema-instance" xsi:schemaLocation="http://www.topografix.com/GPX/1/1 http://www.topografix.com/GPX/1/1/gpx.xsd" version="1.1" creator="VisuGPX - https://www.visugpx.com">
  <metadata>
    <name>Tour des Pyrénées Catalanes étape N°1</name>
  </metadata>
  <trk>
    <name><![CDATA[Tour des Pyrénées Catalanes étape N°1_1]]></name>
    <trkseg>
      <trkpt lat="42.76701" lon="2.86799">
        <ele>27.9</ele>
        <time>2021-03-28T05:53:46Z</time>
      </trkpt>
      <trkpt lat="42.76701" lon="2.86799">
        <ele>27.9</ele>
        <time>2021-03-28T05:53:46Z</time>
      </trkpt>
      <trkpt lat="42.76701" lon="2.86799">
        <ele>27.9</ele>
        <time>2021-03-28T05:53:47Z</time>
      </trkpt>
      <trkpt lat="42.76701" lon="2.86799">
        <ele>27.9</ele>
        <time>2021-03-28T05:53:47Z</time>
      </trkpt>
      <trkpt lat="42.76701" lon="2.86798">
        <ele>27.9</ele>
        <time>2021-03-28T05:53:48Z</time>
      </trkpt>
      <trkpt lat="42.76701" lon="2.86798">
        <ele>27.9</ele>
        <time>2021-03-28T05:53:48Z</time>
      </trkpt>
      <trkpt lat="42.76701" lon="2.86798">
        <ele>27.9</ele>
        <time>2021-03-28T05:53:50Z</time>
      </trkpt>
      <trkpt lat="42.76701" lon="2.86798">
        <ele>27.9</ele>
        <time>2021-03-28T05:53:50Z</time>
      </trkpt>
      <trkpt lat="42.76701" lon="2.86797">
        <ele>28</ele>
        <time>2021-03-28T05:53:51Z</time>
      </trkpt>
      <trkpt lat="42.76701" lon="2.86797">
        <ele>28</ele>
        <time>2021-03-28T05:53:51Z</time>
      </trkpt>
      <trkpt lat="42.76698" lon="2.86793">
        <ele>28.3</ele>
        <time>2021-03-28T05:54:10Z</time>
      </trkpt>
      <trkpt lat="42.76698" lon="2.86793">
        <ele>25</ele>
        <time>2021-03-28T05:54:10Z</time>
      </trkpt>
      <trkpt lat="42.76697" lon="2.86793">
        <ele>28.3</ele>
        <time>2021-03-28T05:54:12Z</time>
      </trkpt>
      <trkpt lat="42.76697" lon="2.86793">
        <ele>25</ele>
        <time>2021-03-28T05:54:12Z</time>
      </trkpt>
      <trkpt lat="42.76697" lon="2.86793">
        <ele>28.4</ele>
        <time>2021-03-28T05:54:14Z</time>
      </trkpt>
      <trkpt lat="42.76697" lon="2.86793">
        <ele>25</ele>
        <time>2021-03-28T05:54:14Z</time>
      </trkpt>
      <trkpt lat="42.76695" lon="2.86793">
        <ele>28.4</ele>
        <time>2021-03-28T05:54:16Z</time>
      </trkpt>
      <trkpt lat="42.76695" lon="2.86793">
        <ele>25</ele>
        <time>2021-03-28T05:54:16Z</time>
      </trkpt>
      <trkpt lat="42.76695" lon="2.86792">
        <ele>28.5</ele>
        <time>2021-03-28T05:54:18Z</time>
      </trkpt>
      <trkpt lat="42.76695" lon="2.86792">
        <ele>25</ele>
        <time>2021-03-28T05:54:18Z</time>
      </trkpt>
      <trkpt lat="42.76694" lon="2.86792">
        <ele>28.5</ele>
        <time>2021-03-28T05:54:19Z</time>
      </trkpt>
      <trkpt lat="42.76694" lon="2.86792">
        <ele>25</ele>
        <time>2021-03-28T05:54:19Z</time>
      </trkpt>
      <trkpt lat="42.76692" lon="2.86791">
        <ele>28.5</ele>
        <time>2021-03-28T05:54:22Z</time>
      </trkpt>
      <trkpt lat="42.76692" lon="2.86791">
        <ele>25</ele>
        <time>2021-03-28T05:54:22Z</time>
      </trkpt>
      <trkpt lat="42.76692" lon="2.86791">
        <ele>28.5</ele>
        <time>2021-03-28T05:54:24Z</time>
      </trkpt>
      <trkpt lat="42.76692" lon="2.86791">
        <ele>25</ele>
        <time>2021-03-28T05:54:24Z</time>
      </trkpt>
      <trkpt lat="42.76692" lon="2.86792">
        <ele>28.5</ele>
        <time>2021-03-28T05:54:25Z</time>
      </trkpt>
      <trkpt lat="42.76692" lon="2.86792">
        <ele>25</ele>
        <time>2021-03-28T05:54:25Z</time>
      </trkpt>
      <trkpt lat="42.76692" lon="2.86793">
        <ele>28.5</ele>
        <time>2021-03-28T05:54:26Z</time>
      </trkpt>
      <trkpt lat="42.76692" lon="2.86793">
        <ele>25</ele>
        <time>2021-03-28T05:54:26Z</time>
      </trkpt>
      <trkpt lat="42.76692" lon="2.86793">
        <ele>28.4</ele>
        <time>2021-03-28T05:54:28Z</time>
      </trkpt>
      <trkpt lat="42.76692" lon="2.86793">
        <ele>25</ele>
        <time>2021-03-28T05:54:28Z</time>
      </trkpt>
      <trkpt lat="42.76707" lon="2.86786">
        <ele>28.4</ele>
        <time>2021-03-28T06:00:10Z</time>
      </trkpt>
      <trkpt lat="42.76707" lon="2.86786">
        <ele>25</ele>
        <time>2021-03-28T06:00:10Z</time>
      </trkpt>
      <trkpt lat="42.76706" lon="2.86787">
        <ele>28.4</ele>
        <time>2021-03-28T06:00:12Z</time>
      </trkpt>
      <trkpt lat="42.76706" lon="2.86787">
        <ele>25</ele>
        <time>2021-03-28T06:00:12Z</time>
      </trkpt>
      <trkpt lat="42.76706" lon="2.86788">
        <ele>28.4</ele>
        <time>2021-03-28T06:00:14Z</time>
      </trkpt>
      <trkpt lat="42.76706" lon="2.86788">
        <ele>25</ele>
        <time>2021-03-28T06:00:14Z</time>
      </trkpt>
      <trkpt lat="42.76706" lon="2.86789">
        <ele>28.3</ele>
        <time>2021-03-28T06:00:17Z</time>
      </trkpt>
      <trkpt lat="42.76706" lon="2.86789">
        <ele>25</ele>
        <time>2021-03-28T06:00:17Z</time>
      </trkpt>
      <trkpt lat="42.76682" lon="2.86817">
        <ele>26.7</ele>
        <time>2021-03-28T06:08:10Z</time>
      </trkpt>
      <trkpt lat="42.76682" lon="2.86817">
        <ele>25</ele>
        <time>2021-03-28T06:08:10Z</time>
      </trkpt>
      <trkpt lat="42.76682" lon="2.86818">
        <ele>26.7</ele>
        <time>2021-03-28T06:08:11Z</time>
      </trkpt>
      <trkpt lat="42.76682" lon="2.86818">
        <ele>25</ele>
        <time>2021-03-28T06:08:11Z</time>
      </trkpt>
      <trkpt lat="42.76681" lon="2.86818">
        <ele>26.6</ele>
        <time>2021-03-28T06:08:13Z</time>
      </trkpt>
      <trkpt lat="42.76681" lon="2.86818">
        <ele>25</ele>
        <time>2021-03-28T06:08:13Z</time>
      </trkpt>
      <trkpt lat="42.7668" lon="2.8682">
        <ele>26.5</ele>
        <time>2021-03-28T06:08:15Z</time>
      </trkpt>
      <trkpt lat="42.7668" lon="2.8682">
        <ele>25</ele>
        <time>2021-03-28T06:08:15Z</time>
      </trkpt>
      <trkpt lat="42.76678" lon="2.86821">
        <ele>26.3</ele>
        <time>2021-03-28T06:08:17Z</time>
      </trkpt>
      <trkpt lat="42.76678" lon="2.86821">
        <ele>25</ele>
        <time>2021-03-28T06:08:17Z</time>
      </trkpt>
      <trkpt lat="42.76677" lon="2.86823">
        <ele>26.2</ele>
        <time>2021-03-28T06:08:18Z</time>
      </trkpt>
      <trkpt lat="42.76677" lon="2.86823">
        <ele>25</ele>
        <time>2021-03-28T06:08:18Z</time>
      </trkpt>
      <trkpt lat="42.76674" lon="2.86824">
        <ele>26</ele>
        <time>2021-03-28T06:08:20Z</time>
      </trkpt>
      <trkpt lat="42.76674" lon="2.86824">
        <ele>25</ele>
        <time>2021-03-28T06:08:20Z</time>
      </trkpt>
      <trkpt lat="42.76672" lon="2.86825">
        <ele>25.9</ele>
        <time>2021-03-28T06:08:21Z</time>
      </trkpt>
      <trkpt lat="42.76672" lon="2.86825">
        <ele>25</ele>
        <time>2021-03-28T06:08:21Z</time>
      </trkpt>
      <trkpt lat="42.76669" lon="2.86828">
        <ele>25.6</ele>
        <time>2021-03-28T06:08:23Z</time>
      </trkpt>
      <trkpt lat="42.76669" lon="2.86828">
        <ele>25</ele>
        <time>2021-03-28T06:08:23Z</time>
      </trkpt>
      <trkpt lat="42.76665" lon="2.8683">
        <ele>25.5</ele>
        <time>2021-03-28T06:08:24Z</time>
      </trkpt>
      <trkpt lat="42.76665" lon="2.8683">
        <ele>25</ele>
        <time>2021-03-28T06:08:24Z</time>
      </trkpt>
      <trkpt lat="42.76661" lon="2.86834">
        <ele>25.6</ele>
        <time>2021-03-28T06:08:26Z</time>
      </trkpt>
      <trkpt lat="42.76661" lon="2.86834">
        <ele>25</ele>
        <time>2021-03-28T06:08:26Z</time>
      </trkpt>
      <trkpt lat="42.76658" lon="2.86837">
        <ele>25.9</ele>
        <time>2021-03-28T06:08:27Z</time>
      </trkpt>
      <trkpt lat="42.76658" lon="2.86837">
        <ele>25</ele>
        <time>2021-03-28T06:08:27Z</time>
      </trkpt>
      <trkpt lat="42.76654" lon="2.86839">
        <ele>26.2</ele>
        <time>2021-03-28T06:08:29Z</time>
      </trkpt>
      <trkpt lat="42.76654" lon="2.86839">
        <ele>25</ele>
        <time>2021-03-28T06:08:29Z</time>
      </trkpt>
      <trkpt lat="42.76651" lon="2.86841">
        <ele>26.4</ele>
        <time>2021-03-28T06:08:31Z</time>
      </trkpt>
      <trkpt lat="42.76651" lon="2.86841">
        <ele>25</ele>
        <time>2021-03-28T06:08:31Z</time>
      </trkpt>
      <trkpt lat="42.76648" lon="2.86843">
        <ele>26.5</ele>
        <time>2021-03-28T06:08:32Z</time>
      </trkpt>
      <trkpt lat="42.76648" lon="2.86843">
        <ele>25</ele>
        <time>2021-03-28T06:08:32Z</time>
      </trkpt>
      <trkpt lat="42.76646" lon="2.86845">
        <ele>26.6</ele>
        <time>2021-03-28T06:08:33Z</time>
      </trkpt>
      <trkpt lat="42.76646" lon="2.86845">
        <ele>25</ele>
        <time>2021-03-28T06:08:33Z</time>
      </trkpt>
      <trkpt lat="42.76644" lon="2.86846">
        <ele>26.7</ele>
        <time>2021-03-28T06:08:35Z</time>
      </trkpt>
      <trkpt lat="42.76644" lon="2.86846">
        <ele>25</ele>
        <time>2021-03-28T06:08:35Z</time>
      </trkpt>
      <trkpt lat="42.76643" lon="2.86847">
        <ele>26.7</ele>
        <time>2021-03-28T06:08:36Z</time>
      </trkpt>
      <trkpt lat="42.76643" lon="2.86847">
        <ele>25</ele>
        <time>2021-03-28T06:08:36Z</time>
      </trkpt>
      <trkpt lat="42.76642" lon="2.86849">
        <ele>26.7</ele>
        <time>2021-03-28T06:08:37Z</time>
      </trkpt>
      <trkpt lat="42.76642" lon="2.86849">
        <ele>25</ele>
        <time>2021-03-28T06:08:37Z</time>
      </trkpt>
      <trkpt lat="42.76642" lon="2.8685">
        <ele>26.6</ele>
        <time>2021-03-28T06:08:38Z</time>
      </trkpt>
      <trkpt lat="42.76642" lon="2.8685">
        <ele>25</ele>
        <time>2021-03-28T06:08:38Z</time>
      </trkpt>
      <trkpt lat="42.76643" lon="2.86852">
        <ele>26.4</ele>
        <time>2021-03-28T06:08:40Z</time>
      </trkpt>
      <trkpt lat="42.76643" lon="2.86852">
        <ele>25</ele>
        <time>2021-03-28T06:08:40Z</time>
      </trkpt>
      <trkpt lat="42.76644" lon="2.86857">
        <ele>26</ele>
        <time>2021-03-28T06:08:42Z</time>
      </trkpt>
      <trkpt lat="42.76644" lon="2.86857">
        <ele>25</ele>
        <time>2021-03-28T06:08:42Z</time>
      </trkpt>
      <trkpt lat="42.76645" lon="2.86866">
        <ele>25.6</ele>
        <time>2021-03-28T06:08:44Z</time>
      </trkpt>
      <trkpt lat="42.76645" lon="2.86866">
        <ele>25</ele>
        <time>2021-03-28T06:08:44Z</time>
      </trkpt>
      <trkpt lat="42.76647" lon="2.86874">
        <ele>25.4</ele>
        <time>2021-03-28T06:08:45Z</time>
      </trkpt>
      <trkpt lat="42.76647" lon="2.86874">
        <ele>25</ele>
        <time>2021-03-28T06:08:45Z</time>
      </trkpt>
      <trkpt lat="42.7665" lon="2.86884">
        <ele>25.1</ele>
        <time>2021-03-28T06:08:47Z</time>
      </trkpt>
      <trkpt lat="42.7665" lon="2.86884">
        <ele>25</ele>
        <time>2021-03-28T06:08:47Z</time>
      </trkpt>
      <trkpt lat="42.76654" lon="2.86897">
        <ele>24.9</ele>
        <time>2021-03-28T06:08:49Z</time>
      </trkpt>
      <trkpt lat="42.76654" lon="2.86897">
        <ele>25</ele>
        <time>2021-03-28T06:08:49Z</time>
      </trkpt>
      <trkpt lat="42.76656" lon="2.86909">
        <ele>24.7</ele>
        <time>2021-03-28T06:08:50Z</time>
      </trkpt>
      <trkpt lat="42.76656" lon="2.86909">
        <ele>25</ele>
        <time>2021-03-28T06:08:50Z</time>
      </trkpt>
      <trkpt lat="42.76658" lon="2.86919">
        <ele>24.7</ele>
        <time>2021-03-28T06:08:51Z</time>
      </trkpt>
      <trkpt lat="42.76658" lon="2.86919">
        <ele>25</ele>
        <time>2021-03-28T06:08:51Z</time>
      </trkpt>
      <trkpt lat="42.76662" lon="2.86931">
        <ele>24.8</ele>
        <time>2021-03-28T06:08:53Z</time>
      </trkpt>
      <trkpt lat="42.76662" lon="2.86931">
        <ele>25</ele>
        <time>2021-03-28T06:08:53Z</time>
      </trkpt>
      <trkpt lat="42.76667" lon="2.86941">
        <ele>25</ele>
        <time>2021-03-28T06:08:55Z</time>
      </trkpt>
      <trkpt lat="42.76667" lon="2.86941">
        <ele>25</ele>
        <time>2021-03-28T06:08:55Z</time>
      </trkpt>
      <trkpt lat="42.76674" lon="2.86951">
        <ele>24.6</ele>
        <time>2021-03-28T06:08:57Z</time>
      </trkpt>
      <trkpt lat="42.76674" lon="2.86951">
        <ele>25</ele>
        <time>2021-03-28T06:08:57Z</time>
      </trkpt>
      <trkpt lat="42.76679" lon="2.8696">
        <ele>24.2</ele>
        <time>2021-03-28T06:08:58Z</time>
      </trkpt>
      <trkpt lat="42.76679" lon="2.8696">
        <ele>25</ele>
        <time>2021-03-28T06:08:58Z</time>
      </trkpt>
      <trkpt lat="42.76686" lon="2.86969">
        <ele>24</ele>
        <time>2021-03-28T06:09:00Z</time>
      </trkpt>
      <trkpt lat="42.76686" lon="2.86969">
        <ele>25</ele>
        <time>2021-03-28T06:09:00Z</time>
      </trkpt>
      <trkpt lat="42.76694" lon="2.86979">
        <ele>24</ele>
        <time>2021-03-28T06:09:02Z</time>
      </trkpt>
      <trkpt lat="42.76694" lon="2.86979">
        <ele>25</ele>
        <time>2021-03-28T06:09:02Z</time>
      </trkpt>
      <trkpt lat="42.76701" lon="2.86989">
        <ele>23.8</ele>
        <time>2021-03-28T06:09:04Z</time>
      </trkpt>
      <trkpt lat="42.76701" lon="2.86989">
        <ele>25</ele>
        <time>2021-03-28T06:09:04Z</time>
      </trkpt>
      <trkpt lat="42.76708" lon="2.86998">
        <ele>23.5</ele>
        <time>2021-03-28T06:09:05Z</time>
      </trkpt>
      <trkpt lat="42.76708" lon="2.86998">
        <ele>25</ele>
        <time>2021-03-28T06:09:05Z</time>
      </trkpt>
      <trkpt lat="42.76714" lon="2.87005">
        <ele>23.3</ele>
        <time>2021-03-28T06:09:06Z</time>
      </trkpt>
      <trkpt lat="42.76714" lon="2.87005">
        <ele>25</ele>
        <time>2021-03-28T06:09:06Z</time>
      </trkpt>
      <trkpt lat="42.7672" lon="2.87013">
        <ele>23.1</ele>
        <time>2021-03-28T06:09:08Z</time>
      </trkpt>
      <trkpt lat="42.7672" lon="2.87013">
        <ele>25</ele>
        <time>2021-03-28T06:09:08Z</time>
      </trkpt>
      <trkpt lat="42.76726" lon="2.8702">
        <ele>23</ele>
        <time>2021-03-28T06:09:09Z</time>
      </trkpt>
      <trkpt lat="42.76726" lon="2.8702">
        <ele>25</ele>
        <time>2021-03-28T06:09:09Z</time>
      </trkpt>
      <trkpt lat="42.76732" lon="2.87027">
        <ele>23</ele>
        <time>2021-03-28T06:09:11Z</time>
      </trkpt>
      <trkpt lat="42.76732" lon="2.87027">
        <ele>25</ele>
        <time>2021-03-28T06:09:11Z</time>
      </trkpt>
      <trkpt lat="42.76738" lon="2.87034">
        <ele>23</ele>
        <time>2021-03-28T06:09:12Z</time>
      </trkpt>
      <trkpt lat="42.76738" lon="2.87034">
        <ele>25</ele>
        <time>2021-03-28T06:09:12Z</time>
      </trkpt>
      <trkpt lat="42.76743" lon="2.8704">
        <ele>23</ele>
        <time>2021-03-28T06:09:13Z</time>
      </trkpt>
      <trkpt lat="42.76743" lon="2.8704">
        <ele>25</ele>
        <time>2021-03-28T06:09:13Z</time>
      </trkpt>
      <trkpt lat="42.76748" lon="2.87049">
        <ele>23</ele>
        <time>2021-03-28T06:09:15Z</time>
      </trkpt>
      <trkpt lat="42.76748" lon="2.87049">
        <ele>25</ele>
        <time>2021-03-28T06:09:15Z</time>
      </trkpt>
      <trkpt lat="42.76753" lon="2.87056">
        <ele>23</ele>
        <time>2021-03-28T06:09:16Z</time>
      </trkpt>
      <trkpt lat="42.76753" lon="2.87056">
        <ele>25</ele>
        <time>2021-03-28T06:09:16Z</time>
      </trkpt>
      <trkpt lat="42.76759" lon="2.87063">
        <ele>23</ele>
        <time>2021-03-28T06:09:18Z</time>
      </trkpt>
      <trkpt lat="42.76759" lon="2.87063">
        <ele>25</ele>
        <time>2021-03-28T06:09:18Z</time>
      </trkpt>
      <trkpt lat="42.76765" lon="2.8707">
        <ele>23</ele>
        <time>2021-03-28T06:09:20Z</time>
      </trkpt>
      <trkpt lat="42.76765" lon="2.8707">
        <ele>25</ele>
        <time>2021-03-28T06:09:20Z</time>
      </trkpt>
      <trkpt lat="42.76771" lon="2.87076">
        <ele>23</ele>
        <time>2021-03-28T06:09:22Z</time>
      </trkpt>
      <trkpt lat="42.76771" lon="2.87076">
        <ele>25</ele>
        <time>2021-03-28T06:09:22Z</time>
      </trkpt>
      <trkpt lat="42.76776" lon="2.87081">
        <ele>23</ele>
        <time>2021-03-28T06:09:23Z</time>
      </trkpt>
      <trkpt lat="42.76776" lon="2.87081">
        <ele>25</ele>
        <time>2021-03-28T06:09:23Z</time>
      </trkpt>
      <trkpt lat="42.76781" lon="2.87087">
        <ele>23</ele>
        <time>2021-03-28T06:09:24Z</time>
      </trkpt>
      <trkpt lat="42.76781" lon="2.87087">
        <ele>25</ele>
        <time>2021-03-28T06:09:24Z</time>
      </trkpt>
      <trkpt lat="42.76786" lon="2.87091">
        <ele>23</ele>
        <time>2021-03-28T06:09:25Z</time>
      </trkpt>
      <trkpt lat="42.76786" lon="2.87091">
        <ele>25</ele>
        <time>2021-03-28T06:09:25Z</time>
      </trkpt>
      <trkpt lat="42.76791" lon="2.87097">
        <ele>23</ele>
        <time>2021-03-28T06:09:27Z</time>
      </trkpt>
      <trkpt lat="42.76791" lon="2.87097">
        <ele>25</ele>
        <time>2021-03-28T06:09:27Z</time>
      </trkpt>
      <trkpt lat="42.76796" lon="2.87103">
        <ele>23</ele>
        <time>2021-03-28T06:09:28Z</time>
      </trkpt>
      <trkpt lat="42.76796" lon="2.87103">
        <ele>25</ele>
        <time>2021-03-28T06:09:28Z</time>
      </trkpt>
      <trkpt lat="42.76801" lon="2.87108">
        <ele>23</ele>
        <time>2021-03-28T06:09:29Z</time>
      </trkpt>
      <trkpt lat="42.76801" lon="2.87108">
        <ele>25</ele>
        <time>2021-03-28T06:09:29Z</time>
      </trkpt>
      <trkpt lat="42.76805" lon="2.87113">
        <ele>23</ele>
        <time>2021-03-28T06:09:30Z</time>
      </trkpt>
      <trkpt lat="42.76805" lon="2.87113">
        <ele>23</ele>
        <time>2021-03-28T06:09:30Z</time>
      </trkpt>
      <trkpt lat="42.7681" lon="2.87118">
        <ele>23</ele>
        <time>2021-03-28T06:09:32Z</time>
      </trkpt>
      <trkpt lat="42.7681" lon="2.87118">
        <ele>23</ele>
        <time>2021-03-28T06:09:32Z</time>
      </trkpt>
      <trkpt lat="42.76816" lon="2.87125">
        <ele>23</ele>
        <time>2021-03-28T06:09:34Z</time>
      </trkpt>
      <trkpt lat="42.76816" lon="2.87125">
        <ele>23</ele>
        <time>2021-03-28T06:09:34Z</time>
      </trkpt>
      <trkpt lat="42.76821" lon="2.87131">
        <ele>23</ele>
        <time>2021-03-28T06:09:35Z</time>
      </trkpt>
      <trkpt lat="42.76821" lon="2.87131">
        <ele>23</ele>
        <time>2021-03-28T06:09:35Z</time>
      </trkpt>
      <trkpt lat="42.76827" lon="2.87137">
        <ele>23</ele>
        <time>2021-03-28T06:09:37Z</time>
      </trkpt>
      <trkpt lat="42.76827" lon="2.87137">
        <ele>23</ele>
        <time>2021-03-28T06:09:37Z</time>
      </trkpt>
      <trkpt lat="42.76831" lon="2.87142">
        <ele>23</ele>
        <time>2021-03-28T06:09:38Z</time>
      </trkpt>
      <trkpt lat="42.76831" lon="2.87142">
        <ele>23</ele>
        <time>2021-03-28T06:09:38Z</time>
      </trkpt>
      <trkpt lat="42.76835" lon="2.87148">
        <ele>23</ele>
        <time>2021-03-28T06:09:40Z</time>
      </trkpt>
      <trkpt lat="42.76835" lon="2.87148">
        <ele>23</ele>
        <time>2021-03-28T06:09:40Z</time>
      </trkpt>
      <trkpt lat="42.76838" lon="2.87154">
        <ele>23</ele>
        <time>2021-03-28T06:09:41Z</time>
      </trkpt>
      <trkpt lat="42.76838" lon="2.87154">
        <ele>23</ele>
        <time>2021-03-28T06:09:41Z</time>
      </trkpt>
      <trkpt lat="42.76842" lon="2.87159">
        <ele>23</ele>
        <time>2021-03-28T06:09:43Z</time>
      </trkpt>
      <trkpt lat="42.76842" lon="2.87159">
        <ele>23</ele>
        <time>2021-03-28T06:09:43Z</time>
      </trkpt>
      <trkpt lat="42.76846" lon="2.87162">
        <ele>23</ele>
        <time>2021-03-28T06:09:44Z</time>
      </trkpt>
      <trkpt lat="42.76846" lon="2.87162">
        <ele>23</ele>
        <time>2021-03-28T06:09:44Z</time>
      </trkpt>
      <trkpt lat="42.7685" lon="2.87162">
        <ele>23</ele>
        <time>2021-03-28T06:09:45Z</time>
      </trkpt>
      <trkpt lat="42.7685" lon="2.87162">
        <ele>23</ele>
        <time>2021-03-28T06:09:45Z</time>
      </trkpt>
      <trkpt lat="42.76854" lon="2.8716">
        <ele>23</ele>
        <time>2021-03-28T06:09:46Z</time>
      </trkpt>
      <trkpt lat="42.76854" lon="2.8716">
        <ele>23</ele>
        <time>2021-03-28T06:09:46Z</time>
      </trkpt>
      <trkpt lat="42.76858" lon="2.87157">
        <ele>23</ele>
        <time>2021-03-28T06:09:47Z</time>
      </trkpt>
      <trkpt lat="42.76858" lon="2.87157">
        <ele>23</ele>
        <time>2021-03-28T06:09:47Z</time>
      </trkpt>
      <trkpt lat="42.76863" lon="2.87152">
        <ele>23</ele>
        <time>2021-03-28T06:09:49Z</time>
      </trkpt>
      <trkpt lat="42.76863" lon="2.87152">
        <ele>23</ele>
        <time>2021-03-28T06:09:49Z</time>
      </trkpt>
      <trkpt lat="42.76868" lon="2.87145">
        <ele>23</ele>
        <time>2021-03-28T06:09:51Z</time>
      </trkpt>
      <trkpt lat="42.76868" lon="2.87145">
        <ele>23</ele>
        <time>2021-03-28T06:09:51Z</time>
      </trkpt>
      <trkpt lat="42.76872" lon="2.87139">
        <ele>23</ele>
        <time>2021-03-28T06:09:52Z</time>
      </trkpt>
      <trkpt lat="42.76872" lon="2.87139">
        <ele>23</ele>
        <time>2021-03-28T06:09:52Z</time>
      </trkpt>
      <trkpt lat="42.76877" lon="2.87135">
        <ele>23</ele>
        <time>2021-03-28T06:09:54Z</time>
      </trkpt>
      <trkpt lat="42.76877" lon="2.87135">
        <ele>23</ele>
        <time>2021-03-28T06:09:54Z</time>
      </trkpt>
      <trkpt lat="42.76883" lon="2.87132">
        <ele>23</ele>
        <time>2021-03-28T06:09:56Z</time>
      </trkpt>
      <trkpt lat="42.76883" lon="2.87132">
        <ele>23</ele>
        <time>2021-03-28T06:09:56Z</time>
      </trkpt>
      <trkpt lat="42.76889" lon="2.8713">
        <ele>23</ele>
        <time>2021-03-28T06:09:58Z</time>
      </trkpt>
      <trkpt lat="42.76889" lon="2.8713">
        <ele>23</ele>
        <time>2021-03-28T06:09:58Z</time>
      </trkpt>
      <trkpt lat="42.76896" lon="2.87128">
        <ele>23</ele>
        <time>2021-03-28T06:10:00Z</time>
      </trkpt>
      <trkpt lat="42.76896" lon="2.87128">
        <ele>23</ele>
        <time>2021-03-28T06:10:00Z</time>
      </trkpt>
      <trkpt lat="42.76903" lon="2.87127">
        <ele>23</ele>
        <time>2021-03-28T06:10:01Z</time>
      </trkpt>
      <trkpt lat="42.76903" lon="2.87127">
        <ele>23</ele>
        <time>2021-03-28T06:10:01Z</time>
      </trkpt>
      <trkpt lat="42.76908" lon="2.87126">
        <ele>23</ele>
        <time>2021-03-28T06:10:02Z</time>
      </trkpt>
      <trkpt lat="42.76908" lon="2.87126">
        <ele>23</ele>
        <time>2021-03-28T06:10:02Z</time>
      </trkpt>
      <trkpt lat="42.76914" lon="2.87125">
        <ele>23</ele>
        <time>2021-03-28T06:10:03Z</time>
      </trkpt>
      <trkpt lat="42.76914" lon="2.87125">
        <ele>23</ele>
        <time>2021-03-28T06:10:03Z</time>
      </trkpt>
      <trkpt lat="42.76919" lon="2.87123">
        <ele>23</ele>
        <time>2021-03-28T06:10:05Z</time>
      </trkpt>
      <trkpt lat="42.76919" lon="2.87123">
        <ele>23</ele>
        <time>2021-03-28T06:10:05Z</time>
      </trkpt>
      <trkpt lat="42.76924" lon="2.87123">
        <ele>23</ele>
        <time>2021-03-28T06:10:07Z</time>
      </trkpt>
      <trkpt lat="42.76924" lon="2.87123">
        <ele>23</ele>
        <time>2021-03-28T06:10:07Z</time>
      </trkpt>
      <trkpt lat="42.7693" lon="2.87123">
        <ele>23</ele>
        <time>2021-03-28T06:10:08Z</time>
      </trkpt>
      <trkpt lat="42.7693" lon="2.87123">
        <ele>23</ele>
        <time>2021-03-28T06:10:08Z</time>
      </trkpt>
      <trkpt lat="42.76936" lon="2.87122">
        <ele>23</ele>
        <time>2021-03-28T06:10:10Z</time>
      </trkpt>
      <trkpt lat="42.76936" lon="2.87122">
        <ele>23</ele>
        <time>2021-03-28T06:10:10Z</time>
      </trkpt>
      <trkpt lat="42.76941" lon="2.87122">
        <ele>23</ele>
        <time>2021-03-28T06:10:11Z</time>
      </trkpt>
      <trkpt lat="42.76941" lon="2.87122">
        <ele>23</ele>
        <time>2021-03-28T06:10:11Z</time>
      </trkpt>
      <trkpt lat="42.76946" lon="2.87122">
        <ele>23</ele>
        <time>2021-03-28T06:10:12Z</time>
      </trkpt>
      <trkpt lat="42.76946" lon="2.87122">
        <ele>23</ele>
        <time>2021-03-28T06:10:12Z</time>
      </trkpt>
      <trkpt lat="42.76951" lon="2.87121">
        <ele>23</ele>
        <time>2021-03-28T06:10:13Z</time>
      </trkpt>
      <trkpt lat="42.76951" lon="2.87121">
        <ele>23</ele>
        <time>2021-03-28T06:10:13Z</time>
      </trkpt>
      <trkpt lat="42.76956" lon="2.87122">
        <ele>23</ele>
        <time>2021-03-28T06:10:15Z</time>
      </trkpt>
      <trkpt lat="42.76956" lon="2.87122">
        <ele>23</ele>
        <time>2021-03-28T06:10:15Z</time>
      </trkpt>
      <trkpt lat="42.76962" lon="2.87122">
        <ele>23</ele>
        <time>2021-03-28T06:10:17Z</time>
      </trkpt>
      <trkpt lat="42.76962" lon="2.87122">
        <ele>23</ele>
        <time>2021-03-28T06:10:17Z</time>
      </trkpt>
      <trkpt lat="42.76968" lon="2.87122">
        <ele>23</ele>
        <time>2021-03-28T06:10:19Z</time>
      </trkpt>
      <trkpt lat="42.76968" lon="2.87122">
        <ele>23</ele>
        <time>2021-03-28T06:10:19Z</time>
      </trkpt>
      <trkpt lat="42.76974" lon="2.87122">
        <ele>23.1</ele>
        <time>2021-03-28T06:10:21Z</time>
      </trkpt>
      <trkpt lat="42.76974" lon="2.87122">
        <ele>23.1</ele>
        <time>2021-03-28T06:10:21Z</time>
      </trkpt>
      <trkpt lat="42.7698" lon="2.87123">
        <ele>23.3</ele>
        <time>2021-03-28T06:10:22Z</time>
      </trkpt>
      <trkpt lat="42.7698" lon="2.87123">
        <ele>23.3</ele>
        <time>2021-03-28T06:10:22Z</time>
      </trkpt>
      <trkpt lat="42.76986" lon="2.87123">
        <ele>23.5</ele>
        <time>2021-03-28T06:10:23Z</time>
      </trkpt>
      <trkpt lat="42.76986" lon="2.87123">
        <ele>23.5</ele>
        <time>2021-03-28T06:10:23Z</time>
      </trkpt>
      <trkpt lat="42.76992" lon="2.87124">
        <ele>23.7</ele>
        <time>2021-03-28T06:10:25Z</time>
      </trkpt>
      <trkpt lat="42.76992" lon="2.87124">
        <ele>23.7</ele>
        <time>2021-03-28T06:10:25Z</time>
      </trkpt>
      <trkpt lat="42.76998" lon="2.87124">
        <ele>23.9</ele>
        <time>2021-03-28T06:10:26Z</time>
      </trkpt>
      <trkpt lat="42.76998" lon="2.87124">
        <ele>23.9</ele>
        <time>2021-03-28T06:10:26Z</time>
      </trkpt>
      <trkpt lat="42.77005" lon="2.87124">
        <ele>24</ele>
        <time>2021-03-28T06:10:28Z</time>
      </trkpt>
      <trkpt lat="42.77005" lon="2.87124">
        <ele>24</ele>
        <time>2021-03-28T06:10:28Z</time>
      </trkpt>
      <trkpt lat="42.77011" lon="2.87123">
        <ele>24</ele>
        <time>2021-03-28T06:10:29Z</time>
      </trkpt>
      <trkpt lat="42.77011" lon="2.87123">
        <ele>24</ele>
        <time>2021-03-28T06:10:29Z</time>
      </trkpt>
      <trkpt lat="42.77016" lon="2.87123">
        <ele>24</ele>
        <time>2021-03-28T06:10:30Z</time>
      </trkpt>
      <trkpt lat="42.77016" lon="2.87123">
        <ele>24</ele>
        <time>2021-03-28T06:10:30Z</time>
      </trkpt>
      <trkpt lat="42.77022" lon="2.87123">
        <ele>24</ele>
        <time>2021-03-28T06:10:32Z</time>
      </trkpt>
      <trkpt lat="42.77022" lon="2.87123">
        <ele>24</ele>
        <time>2021-03-28T06:10:32Z</time>
      </trkpt>
      <trkpt lat="42.77028" lon="2.87122">
        <ele>24</ele>
        <time>2021-03-28T06:10:33Z</time>
      </trkpt>
      <trkpt lat="42.77028" lon="2.87122">
        <ele>24</ele>
        <time>2021-03-28T06:10:33Z</time>
      </trkpt>
      <trkpt lat="42.77033" lon="2.87122">
        <ele>24</ele>
        <time>2021-03-28T06:10:34Z</time>
      </trkpt>
      <trkpt lat="42.77033" lon="2.87122">
        <ele>24</ele>
        <time>2021-03-28T06:10:34Z</time>
      </trkpt>
      <trkpt lat="42.77038" lon="2.87122">
        <ele>24</ele>
        <time>2021-03-28T06:10:35Z</time>
      </trkpt>
      <trkpt lat="42.77038" lon="2.87122">
        <ele>24</ele>
        <time>2021-03-28T06:10:35Z</time>
      </trkpt>
      <trkpt lat="42.77045" lon="2.87122">
        <ele>24</ele>
        <time>2021-03-28T06:10:37Z</time>
      </trkpt>
      <trkpt lat="42.77045" lon="2.87122">
        <ele>24</ele>
        <time>2021-03-28T06:10:37Z</time>
      </trkpt>
      <trkpt lat="42.77051" lon="2.87123">
        <ele>24</ele>
        <time>2021-03-28T06:10:38Z</time>
      </trkpt>
      <trkpt lat="42.77051" lon="2.87123">
        <ele>24</ele>
        <time>2021-03-28T06:10:38Z</time>
      </trkpt>
      <trkpt lat="42.77058" lon="2.87124">
        <ele>24</ele>
        <time>2021-03-28T06:10:40Z</time>
      </trkpt>
      <trkpt lat="42.77058" lon="2.87124">
        <ele>24</ele>
        <time>2021-03-28T06:10:40Z</time>
      </trkpt>
      <trkpt lat="42.77064" lon="2.87124">
        <ele>23.8</ele>
        <time>2021-03-28T06:10:41Z</time>
      </trkpt>
      <trkpt lat="42.77064" lon="2.87124">
        <ele>23.8</ele>
        <time>2021-03-28T06:10:41Z</time>
      </trkpt>
      <trkpt lat="42.77072" lon="2.87124">
        <ele>23.7</ele>
        <time>2021-03-28T06:10:43Z</time>
      </trkpt>
      <trkpt lat="42.77072" lon="2.87124">
        <ele>23.7</ele>
        <time>2021-03-28T06:10:43Z</time>
      </trkpt>
      <trkpt lat="42.77078" lon="2.87124">
        <ele>23.6</ele>
        <time>2021-03-28T06:10:44Z</time>
      </trkpt>
      <trkpt lat="42.77078" lon="2.87124">
        <ele>23.6</ele>
        <time>2021-03-28T06:10:44Z</time>
      </trkpt>
      <trkpt lat="42.77084" lon="2.87125">
        <ele>23.4</ele>
        <time>2021-03-28T06:10:45Z</time>
      </trkpt>
      <trkpt lat="42.77084" lon="2.87125">
        <ele>23.4</ele>
        <time>2021-03-28T06:10:45Z</time>
      </trkpt>
      <trkpt lat="42.7709" lon="2.87126">
        <ele>22.8</ele>
        <time>2021-03-28T06:10:47Z</time>
      </trkpt>
      <trkpt lat="42.7709" lon="2.87126">
        <ele>22.8</ele>
        <time>2021-03-28T06:10:47Z</time>
      </trkpt>
      <trkpt lat="42.77097" lon="2.87128">
        <ele>22</ele>
        <time>2021-03-28T06:10:49Z</time>
      </trkpt>
      <trkpt lat="42.77097" lon="2.87128">
        <ele>22</ele>
        <time>2021-03-28T06:10:49Z</time>
      </trkpt>
      <trkpt lat="42.77105" lon="2.87131">
        <ele>21.1</ele>
        <time>2021-03-28T06:10:51Z</time>
      </trkpt>
      <trkpt lat="42.77105" lon="2.87131">
        <ele>21.1</ele>
        <time>2021-03-28T06:10:51Z</time>
      </trkpt>
      <trkpt lat="42.77112" lon="2.87133">
        <ele>20.2</ele>
        <time>2021-03-28T06:10:52Z</time>
      </trkpt>
      <trkpt lat="42.77112" lon="2.87133">
        <ele>20.2</ele>
        <time>2021-03-28T06:10:52Z</time>
      </trkpt>
      <trkpt lat="42.77119" lon="2.87135">
        <ele>20.2</ele>
        <time>2021-03-28T06:10:54Z</time>
      </trkpt>
      <trkpt lat="42.77119" lon="2.87135">
        <ele>20.2</ele>
        <time>2021-03-28T06:10:54Z</time>
      </trkpt>
      <trkpt lat="42.77126" lon="2.87136">
        <ele>20.1</ele>
        <time>2021-03-28T06:10:55Z</time>
      </trkpt>
      <trkpt lat="42.77126" lon="2.87136">
        <ele>20.1</ele>
        <time>2021-03-28T06:10:55Z</time>
      </trkpt>
      <trkpt lat="42.77131" lon="2.87138">
        <ele>20</ele>
        <time>2021-03-28T06:10:56Z</time>
      </trkpt>
      <trkpt lat="42.77131" lon="2.87138">
        <ele>20</ele>
        <time>2021-03-28T06:10:56Z</time>
      </trkpt>
      <trkpt lat="42.77138" lon="2.87139">
        <ele>20</ele>
        <time>2021-03-28T06:10:58Z</time>
      </trkpt>
      <trkpt lat="42.77138" lon="2.87139">
        <ele>20</ele>
        <time>2021-03-28T06:10:58Z</time>
      </trkpt>
      <trkpt lat="42.77143" lon="2.87141">
        <ele>19.4</ele>
        <time>2021-03-28T06:10:59Z</time>
      </trkpt>
      <trkpt lat="42.77143" lon="2.87141">
        <ele>19.4</ele>
        <time>2021-03-28T06:10:59Z</time>
      </trkpt>
      <trkpt lat="42.7715" lon="2.87142">
        <ele>18.4</ele>
        <time>2021-03-28T06:11:01Z</time>
      </trkpt>
      <trkpt lat="42.7715" lon="2.87142">
        <ele>18.4</ele>
        <time>2021-03-28T06:11:01Z</time>
      </trkpt>
      <trkpt lat="42.77156" lon="2.87143">
        <ele>17.5</ele>
        <time>2021-03-28T06:11:02Z</time>
      </trkpt>
      <trkpt lat="42.77156" lon="2.87143">
        <ele>17.5</ele>
        <time>2021-03-28T06:11:02Z</time>
      </trkpt>
      <trkpt lat="42.77163" lon="2.87144">
        <ele>16.6</ele>
        <time>2021-03-28T06:11:04Z</time>
      </trkpt>
      <trkpt lat="42.77163" lon="2.87144">
        <ele>16.6</ele>
        <time>2021-03-28T06:11:04Z</time>
      </trkpt>
      <trkpt lat="42.77169" lon="2.87145">
        <ele>16</ele>
        <time>2021-03-28T06:11:05Z</time>
      </trkpt>
      <trkpt lat="42.77169" lon="2.87145">
        <ele>16</ele>
        <time>2021-03-28T06:11:05Z</time>
      </trkpt>
      <trkpt lat="42.77176" lon="2.87147">
        <ele>16</ele>
        <time>2021-03-28T06:11:07Z</time>
      </trkpt>
      <trkpt lat="42.77176" lon="2.87147">
        <ele>16</ele>
        <time>2021-03-28T06:11:07Z</time>
      </trkpt>
      <trkpt lat="42.77182" lon="2.87148">
        <ele>16</ele>
        <time>2021-03-28T06:11:08Z</time>
      </trkpt>
      <trkpt lat="42.77182" lon="2.87148">
        <ele>16</ele>
        <time>2021-03-28T06:11:08Z</time>
      </trkpt>
      <trkpt lat="42.77189" lon="2.87149">
        <ele>16</ele>
        <time>2021-03-28T06:11:10Z</time>
      </trkpt>
      <trkpt lat="42.77189" lon="2.87149">
        <ele>16</ele>
        <time>2021-03-28T06:11:10Z</time>
      </trkpt>
      <trkpt lat="42.77197" lon="2.87151">
        <ele>16.1</ele>
        <time>2021-03-28T06:11:12Z</time>
      </trkpt>
      <trkpt lat="42.77197" lon="2.87151">
        <ele>16.1</ele>
        <time>2021-03-28T06:11:12Z</time>
      </trkpt>
      <trkpt lat="42.77204" lon="2.87153">
        <ele>16.3</ele>
        <time>2021-03-28T06:11:13Z</time>
      </trkpt>
      <trkpt lat="42.77204" lon="2.87153">
        <ele>16.3</ele>
        <time>2021-03-28T06:11:13Z</time>
      </trkpt>
      <trkpt lat="42.77211" lon="2.87154">
        <ele>16.6</ele>
        <time>2021-03-28T06:11:15Z</time>
      </trkpt>
      <trkpt lat="42.77211" lon="2.87154">
        <ele>16.6</ele>
        <time>2021-03-28T06:11:15Z</time>
      </trkpt>
      <trkpt lat="42.77218" lon="2.87155">
        <ele>16.8</ele>
        <time>2021-03-28T06:11:16Z</time>
      </trkpt>
      <trkpt lat="42.77218" lon="2.87155">
        <ele>16.8</ele>
        <time>2021-03-28T06:11:16Z</time>
      </trkpt>
      <trkpt lat="42.77226" lon="2.87156">
        <ele>17.6</ele>
        <time>2021-03-28T06:11:18Z</time>
      </trkpt>
      <trkpt lat="42.77226" lon="2.87156">
        <ele>17.6</ele>
        <time>2021-03-28T06:11:18Z</time>
      </trkpt>
      <trkpt lat="42.77233" lon="2.87158">
        <ele>18.7</ele>
        <time>2021-03-28T06:11:19Z</time>
      </trkpt>
      <trkpt lat="42.77233" lon="2.87158">
        <ele>18.7</ele>
        <time>2021-03-28T06:11:19Z</time>
      </trkpt>
      <trkpt lat="42.77239" lon="2.87159">
        <ele>19.8</ele>
        <time>2021-03-28T06:11:20Z</time>
      </trkpt>
      <trkpt lat="42.77239" lon="2.87159">
        <ele>19.8</ele>
        <time>2021-03-28T06:11:20Z</time>
      </trkpt>
      <trkpt lat="42.77246" lon="2.87161">
        <ele>21.1</ele>
        <time>2021-03-28T06:11:22Z</time>
      </trkpt>
      <trkpt lat="42.77246" lon="2.87161">
        <ele>21.1</ele>
        <time>2021-03-28T06:11:22Z</time>
      </trkpt>
      <trkpt lat="42.77253" lon="2.87162">
        <ele>22</ele>
        <time>2021-03-28T06:11:23Z</time>
      </trkpt>
      <trkpt lat="42.77253" lon="2.87162">
        <ele>22</ele>
        <time>2021-03-28T06:11:23Z</time>
      </trkpt>
      <trkpt lat="42.7726" lon="2.87164">
        <ele>22.6</ele>
        <time>2021-03-28T06:11:25Z</time>
      </trkpt>
      <trkpt lat="42.7726" lon="2.87164">
        <ele>22.6</ele>
        <time>2021-03-28T06:11:25Z</time>
      </trkpt>
      <trkpt lat="42.77269" lon="2.87165">
        <ele>23.3</ele>
        <time>2021-03-28T06:11:27Z</time>
      </trkpt>
      <trkpt lat="42.77269" lon="2.87165">
        <ele>23.3</ele>
        <time>2021-03-28T06:11:27Z</time>
      </trkpt>
      <trkpt lat="42.77278" lon="2.87167">
        <ele>24</ele>
        <time>2021-03-28T06:11:29Z</time>
      </trkpt>
      <trkpt lat="42.77278" lon="2.87167">
        <ele>24</ele>
        <time>2021-03-28T06:11:29Z</time>
      </trkpt>
      <trkpt lat="42.77286" lon="2.87169">
        <ele>23.6</ele>
        <time>2021-03-28T06:11:30Z</time>
      </trkpt>
      <trkpt lat="42.77286" lon="2.87169">
        <ele>23.6</ele>
        <time>2021-03-28T06:11:30Z</time>
      </trkpt>
      <trkpt lat="42.77293" lon="2.8717">
        <ele>23.3</ele>
        <time>2021-03-28T06:11:31Z</time>
      </trkpt>
      <trkpt lat="42.77293" lon="2.8717">
        <ele>23.3</ele>
        <time>2021-03-28T06:11:31Z</time>
      </trkpt>
      <trkpt lat="42.77302" lon="2.87171">
        <ele>23</ele>
        <time>2021-03-28T06:11:33Z</time>
      </trkpt>
      <trkpt lat="42.77302" lon="2.87171">
        <ele>23</ele>
        <time>2021-03-28T06:11:33Z</time>
      </trkpt>
      <trkpt lat="42.77313" lon="2.87172">
        <ele>22.6</ele>
        <time>2021-03-28T06:11:35Z</time>
      </trkpt>
      <trkpt lat="42.77313" lon="2.87172">
        <ele>22.6</ele>
        <time>2021-03-28T06:11:35Z</time>
      </trkpt>
      <trkpt lat="42.77324" lon="2.87172">
        <ele>22.3</ele>
        <time>2021-03-28T06:11:37Z</time>
      </trkpt>
      <trkpt lat="42.77324" lon="2.87172">
        <ele>22.3</ele>
        <time>2021-03-28T06:11:37Z</time>
      </trkpt>
      <trkpt lat="42.77334" lon="2.87172">
        <ele>22</ele>
        <time>2021-03-28T06:11:38Z</time>
      </trkpt>
      <trkpt lat="42.77334" lon="2.87172">
        <ele>22</ele>
        <time>2021-03-28T06:11:38Z</time>
      </trkpt>
      <trkpt lat="42.77346" lon="2.87172">
        <ele>21.6</ele>
        <time>2021-03-28T06:11:40Z</time>
      </trkpt>
      <trkpt lat="42.77346" lon="2.87172">
        <ele>21.6</ele>
        <time>2021-03-28T06:11:40Z</time>
      </trkpt>
      <trkpt lat="42.77357" lon="2.87172">
        <ele>21.2</ele>
        <time>2021-03-28T06:11:42Z</time>
      </trkpt>
      <trkpt lat="42.77357" lon="2.87172">
        <ele>21.2</ele>
        <time>2021-03-28T06:11:42Z</time>
      </trkpt>
      <trkpt lat="42.77366" lon="2.87171">
        <ele>21</ele>
        <time>2021-03-28T06:11:43Z</time>
      </trkpt>
      <trkpt lat="42.77366" lon="2.87171">
        <ele>21</ele>
        <time>2021-03-28T06:11:43Z</time>
      </trkpt>
      <trkpt lat="42.77376" lon="2.8717">
        <ele>21</ele>
        <time>2021-03-28T06:11:45Z</time>
      </trkpt>
      <trkpt lat="42.77376" lon="2.8717">
        <ele>21</ele>
        <time>2021-03-28T06:11:45Z</time>
      </trkpt>
      <trkpt lat="42.77384" lon="2.8717">
        <ele>21</ele>
        <time>2021-03-28T06:11:46Z</time>
      </trkpt>
      <trkpt lat="42.77384" lon="2.8717">
        <ele>21</ele>
        <time>2021-03-28T06:11:46Z</time>
      </trkpt>
      <trkpt lat="42.77394" lon="2.87169">
        <ele>21</ele>
        <time>2021-03-28T06:11:48Z</time>
      </trkpt>
      <trkpt lat="42.77394" lon="2.87169">
        <ele>21</ele>
        <time>2021-03-28T06:11:48Z</time>
      </trkpt>
      <trkpt lat="42.77402" lon="2.87169">
        <ele>21</ele>
        <time>2021-03-28T06:11:49Z</time>
      </trkpt>
      <trkpt lat="42.77402" lon="2.87169">
        <ele>21</ele>
        <time>2021-03-28T06:11:49Z</time>
      </trkpt>
      <trkpt lat="42.77409" lon="2.87169">
        <ele>21</ele>
        <time>2021-03-28T06:11:50Z</time>
      </trkpt>
      <trkpt lat="42.77409" lon="2.87169">
        <ele>21</ele>
        <time>2021-03-28T06:11:50Z</time>
      </trkpt>
      <trkpt lat="42.77417" lon="2.87168">
        <ele>21</ele>
        <time>2021-03-28T06:11:52Z</time>
      </trkpt>
      <trkpt lat="42.77417" lon="2.87168">
        <ele>21</ele>
        <time>2021-03-28T06:11:52Z</time>
      </trkpt>
      <trkpt lat="42.77426" lon="2.87168">
        <ele>21</ele>
        <time>2021-03-28T06:11:54Z</time>
      </trkpt>
      <trkpt lat="42.77426" lon="2.87168">
        <ele>21</ele>
        <time>2021-03-28T06:11:54Z</time>
      </trkpt>
      <trkpt lat="42.77434" lon="2.87169">
        <ele>21</ele>
        <time>2021-03-28T06:11:55Z</time>
      </trkpt>
      <trkpt lat="42.77434" lon="2.87169">
        <ele>21</ele>
        <time>2021-03-28T06:11:55Z</time>
      </trkpt>
      <trkpt lat="42.7744" lon="2.87169">
        <ele>21</ele>
        <time>2021-03-28T06:11:56Z</time>
      </trkpt>
      <trkpt lat="42.7744" lon="2.87169">
        <ele>21</ele>
        <time>2021-03-28T06:11:56Z</time>
      </trkpt>
      <trkpt lat="42.77447" lon="2.87169">
        <ele>21</ele>
        <time>2021-03-28T06:11:58Z</time>
      </trkpt>
      <trkpt lat="42.77447" lon="2.87169">
        <ele>21</ele>
        <time>2021-03-28T06:11:58Z</time>
      </trkpt>
      <trkpt lat="42.77452" lon="2.87167">
        <ele>21</ele>
        <time>2021-03-28T06:11:59Z</time>
      </trkpt>
      <trkpt lat="42.77452" lon="2.87167">
        <ele>21</ele>
        <time>2021-03-28T06:11:59Z</time>
      </trkpt>
      <trkpt lat="42.77457" lon="2.87164">
        <ele>21</ele>
        <time>2021-03-28T06:12:00Z</time>
      </trkpt>
      <trkpt lat="42.77457" lon="2.87164">
        <ele>21</ele>
        <time>2021-03-28T06:12:00Z</time>
      </trkpt>
      <trkpt lat="42.77462" lon="2.87161">
        <ele>21</ele>
        <time>2021-03-28T06:12:02Z</time>
      </trkpt>
      <trkpt lat="42.77462" lon="2.87161">
        <ele>21</ele>
        <time>2021-03-28T06:12:02Z</time>
      </trkpt>
      <trkpt lat="42.77468" lon="2.87156">
        <ele>21</ele>
        <time>2021-03-28T06:12:04Z</time>
      </trkpt>
      <trkpt lat="42.77468" lon="2.87156">
        <ele>21</ele>
        <time>2021-03-28T06:12:04Z</time>
      </trkpt>
      <trkpt lat="42.77474" lon="2.87151">
        <ele>21</ele>
        <time>2021-03-28T06:12:06Z</time>
      </trkpt>
      <trkpt lat="42.77474" lon="2.87151">
        <ele>21</ele>
        <time>2021-03-28T06:12:06Z</time>
      </trkpt>
      <trkpt lat="42.77479" lon="2.87146">
        <ele>21</ele>
        <time>2021-03-28T06:12:08Z</time>
      </trkpt>
      <trkpt lat="42.77479" lon="2.87146">
        <ele>21</ele>
        <time>2021-03-28T06:12:08Z</time>
      </trkpt>
      <trkpt lat="42.77485" lon="2.87141">
        <ele>21</ele>
        <time>2021-03-28T06:12:10Z</time>
      </trkpt>
      <trkpt lat="42.77485" lon="2.87141">
        <ele>21</ele>
        <time>2021-03-28T06:12:10Z</time>
      </trkpt>
      <trkpt lat="42.7749" lon="2.87137">
        <ele>21</ele>
        <time>2021-03-28T06:12:11Z</time>
      </trkpt>
      <trkpt lat="42.7749" lon="2.87137">
        <ele>21</ele>
        <time>2021-03-28T06:12:11Z</time>
      </trkpt>
      <trkpt lat="42.77495" lon="2.87134">
        <ele>21.1</ele>
        <time>2021-03-28T06:12:12Z</time>
      </trkpt>
      <trkpt lat="42.77495" lon="2.87134">
        <ele>21.1</ele>
        <time>2021-03-28T06:12:12Z</time>
      </trkpt>
      <trkpt lat="42.775" lon="2.87131">
        <ele>21.3</ele>
        <time>2021-03-28T06:12:14Z</time>
      </trkpt>
      <trkpt lat="42.775" lon="2.87131">
        <ele>21.3</ele>
        <time>2021-03-28T06:12:14Z</time>
      </trkpt>
      <trkpt lat="42.77506" lon="2.87127">
        <ele>21.3</ele>
        <time>2021-03-28T06:12:16Z</time>
      </trkpt>
      <trkpt lat="42.77506" lon="2.87127">
        <ele>21.3</ele>
        <time>2021-03-28T06:12:16Z</time>
      </trkpt>
      <trkpt lat="42.77512" lon="2.87123">
        <ele>21.3</ele>
        <time>2021-03-28T06:12:18Z</time>
      </trkpt>
      <trkpt lat="42.77512" lon="2.87123">
        <ele>21.3</ele>
        <time>2021-03-28T06:12:18Z</time>
      </trkpt>
      <trkpt lat="42.77519" lon="2.87117">
        <ele>21.3</ele>
        <time>2021-03-28T06:12:20Z</time>
      </trkpt>
      <trkpt lat="42.77519" lon="2.87117">
        <ele>21.3</ele>
        <time>2021-03-28T06:12:20Z</time>
      </trkpt>
      <trkpt lat="42.77525" lon="2.87113">
        <ele>21.1</ele>
        <time>2021-03-28T06:12:21Z</time>
      </trkpt>
      <trkpt lat="42.77525" lon="2.87113">
        <ele>21.1</ele>
        <time>2021-03-28T06:12:21Z</time>
      </trkpt>
      <trkpt lat="42.77531" lon="2.87108">
        <ele>21.1</ele>
        <time>2021-03-28T06:12:23Z</time>
      </trkpt>
      <trkpt lat="42.77531" lon="2.87108">
        <ele>21.1</ele>
        <time>2021-03-28T06:12:23Z</time>
      </trkpt>
      <trkpt lat="42.77538" lon="2.87103">
        <ele>21.3</ele>
        <time>2021-03-28T06:12:25Z</time>
      </trkpt>
      <trkpt lat="42.77538" lon="2.87103">
        <ele>21.3</ele>
        <time>2021-03-28T06:12:25Z</time>
      </trkpt>
      <trkpt lat="42.77544" lon="2.87099">
        <ele>21.4</ele>
        <time>2021-03-28T06:12:26Z</time>
      </trkpt>
      <trkpt lat="42.77544" lon="2.87099">
        <ele>21.4</ele>
        <time>2021-03-28T06:12:26Z</time>
      </trkpt>
      <trkpt lat="42.77549" lon="2.87096">
        <ele>21.6</ele>
        <time>2021-03-28T06:12:27Z</time>
      </trkpt>
      <trkpt lat="42.77549" lon="2.87096">
        <ele>21.6</ele>
        <time>2021-03-28T06:12:27Z</time>
      </trkpt>
      <trkpt lat="42.77554" lon="2.87092">
        <ele>21.7</ele>
        <time>2021-03-28T06:12:29Z</time>
      </trkpt>
      <trkpt lat="42.77554" lon="2.87092">
        <ele>21.7</ele>
        <time>2021-03-28T06:12:29Z</time>
      </trkpt>
      <trkpt lat="42.7756" lon="2.87087">
        <ele>21.7</ele>
        <time>2021-03-28T06:12:31Z</time>
      </trkpt>
      <trkpt lat="42.7756" lon="2.87087">
        <ele>21.7</ele>
        <time>2021-03-28T06:12:31Z</time>
      </trkpt>
      <trkpt lat="42.77565" lon="2.87084">
        <ele>21.6</ele>
        <time>2021-03-28T06:12:32Z</time>
      </trkpt>
      <trkpt lat="42.77565" lon="2.87084">
        <ele>21.6</ele>
        <time>2021-03-28T06:12:32Z</time>
      </trkpt>
      <trkpt lat="42.77572" lon="2.8708">
        <ele>21.5</ele>
        <time>2021-03-28T06:12:34Z</time>
      </trkpt>
      <trkpt lat="42.77572" lon="2.8708">
        <ele>21.5</ele>
        <time>2021-03-28T06:12:34Z</time>
      </trkpt>
      <trkpt lat="42.77578" lon="2.87078">
        <ele>21.4</ele>
        <time>2021-03-28T06:12:35Z</time>
      </trkpt>
      <trkpt lat="42.77578" lon="2.87078">
        <ele>21.4</ele>
        <time>2021-03-28T06:12:35Z</time>
      </trkpt>
      <trkpt lat="42.77585" lon="2.87077">
        <ele>21.3</ele>
        <time>2021-03-28T06:12:37Z</time>
      </trkpt>
      <trkpt lat="42.77585" lon="2.87077">
        <ele>21.3</ele>
        <time>2021-03-28T06:12:37Z</time>
      </trkpt>
      <trkpt lat="42.7759" lon="2.87077">
        <ele>21.4</ele>
        <time>2021-03-28T06:12:38Z</time>
      </trkpt>
      <trkpt lat="42.7759" lon="2.87077">
        <ele>21.4</ele>
        <time>2021-03-28T06:12:38Z</time>
      </trkpt>
      <trkpt lat="42.77596" lon="2.87078">
        <ele>21.5</ele>
        <time>2021-03-28T06:12:39Z</time>
      </trkpt>
      <trkpt lat="42.77596" lon="2.87078">
        <ele>21.5</ele>
        <time>2021-03-28T06:12:39Z</time>
      </trkpt>
      <trkpt lat="42.77601" lon="2.87079">
        <ele>21.7</ele>
        <time>2021-03-28T06:12:41Z</time>
      </trkpt>
      <trkpt lat="42.77601" lon="2.87079">
        <ele>21.7</ele>
        <time>2021-03-28T06:12:41Z</time>
      </trkpt>
      <trkpt lat="42.77607" lon="2.87077">
        <ele>21.9</ele>
        <time>2021-03-28T06:12:43Z</time>
      </trkpt>
      <trkpt lat="42.77607" lon="2.87077">
        <ele>21.9</ele>
        <time>2021-03-28T06:12:43Z</time>
      </trkpt>
      <trkpt lat="42.77611" lon="2.87072">
        <ele>22</ele>
        <time>2021-03-28T06:12:45Z</time>
      </trkpt>
      <trkpt lat="42.77611" lon="2.87072">
        <ele>22</ele>
        <time>2021-03-28T06:12:45Z</time>
      </trkpt>
      <trkpt lat="42.77614" lon="2.87068">
        <ele>22</ele>
        <time>2021-03-28T06:12:46Z</time>
      </trkpt>
      <trkpt lat="42.77614" lon="2.87068">
        <ele>22</ele>
        <time>2021-03-28T06:12:46Z</time>
      </trkpt>
      <trkpt lat="42.77614" lon="2.87062">
        <ele>22</ele>
        <time>2021-03-28T06:12:48Z</time>
      </trkpt>
      <trkpt lat="42.77614" lon="2.87062">
        <ele>22</ele>
        <time>2021-03-28T06:12:48Z</time>
      </trkpt>
      <trkpt lat="42.77613" lon="2.87057">
        <ele>22</ele>
        <time>2021-03-28T06:12:49Z</time>
      </trkpt>
      <trkpt lat="42.77613" lon="2.87057">
        <ele>22</ele>
        <time>2021-03-28T06:12:49Z</time>
      </trkpt>
      <trkpt lat="42.77612" lon="2.8705">
        <ele>22</ele>
        <time>2021-03-28T06:12:51Z</time>
      </trkpt>
      <trkpt lat="42.77612" lon="2.8705">
        <ele>22</ele>
        <time>2021-03-28T06:12:51Z</time>
      </trkpt>
      <trkpt lat="42.77612" lon="2.87043">
        <ele>22</ele>
        <time>2021-03-28T06:12:52Z</time>
      </trkpt>
      <trkpt lat="42.77612" lon="2.87043">
        <ele>22</ele>
        <time>2021-03-28T06:12:52Z</time>
      </trkpt>
      <trkpt lat="42.77613" lon="2.87037">
        <ele>22</ele>
        <time>2021-03-28T06:12:53Z</time>
      </trkpt>
      <trkpt lat="42.77613" lon="2.87037">
        <ele>22</ele>
        <time>2021-03-28T06:12:53Z</time>
      </trkpt>
      <trkpt lat="42.77615" lon="2.8703">
        <ele>22</ele>
        <time>2021-03-28T06:12:55Z</time>
      </trkpt>
      <trkpt lat="42.77615" lon="2.8703">
        <ele>22</ele>
        <time>2021-03-28T06:12:55Z</time>
      </trkpt>
      <trkpt lat="42.77618" lon="2.87023">
        <ele>22</ele>
        <time>2021-03-28T06:12:56Z</time>
      </trkpt>
      <trkpt lat="42.77618" lon="2.87023">
        <ele>22</ele>
        <time>2021-03-28T06:12:56Z</time>
      </trkpt>
      <trkpt lat="42.77621" lon="2.87016">
        <ele>22</ele>
        <time>2021-03-28T06:12:58Z</time>
      </trkpt>
      <trkpt lat="42.77621" lon="2.87016">
        <ele>22</ele>
        <time>2021-03-28T06:12:58Z</time>
      </trkpt>
      <trkpt lat="42.77625" lon="2.87007">
        <ele>22</ele>
        <time>2021-03-28T06:13:00Z</time>
      </trkpt>
      <trkpt lat="42.77625" lon="2.87007">
        <ele>22</ele>
        <time>2021-03-28T06:13:00Z</time>
      </trkpt>
      <trkpt lat="42.77628" lon="2.87001">
        <ele>22</ele>
        <time>2021-03-28T06:13:01Z</time>
      </trkpt>
      <trkpt lat="42.77628" lon="2.87001">
        <ele>22</ele>
        <time>2021-03-28T06:13:01Z</time>
      </trkpt>
      <trkpt lat="42.77631" lon="2.86995">
        <ele>22</ele>
        <time>2021-03-28T06:13:02Z</time>
      </trkpt>
      <trkpt lat="42.77631" lon="2.86995">
        <ele>22</ele>
        <time>2021-03-28T06:13:02Z</time>
      </trkpt>
      <trkpt lat="42.77634" lon="2.86987">
        <ele>22</ele>
        <time>2021-03-28T06:13:04Z</time>
      </trkpt>
      <trkpt lat="42.77634" lon="2.86987">
        <ele>22</ele>
        <time>2021-03-28T06:13:04Z</time>
      </trkpt>
      <trkpt lat="42.77639" lon="2.86979">
        <ele>22</ele>
        <time>2021-03-28T06:13:06Z</time>
      </trkpt>
      <trkpt lat="42.77639" lon="2.86979">
        <ele>22</ele>
        <time>2021-03-28T06:13:06Z</time>
      </trkpt>
      <trkpt lat="42.77644" lon="2.8697">
        <ele>22</ele>
        <time>2021-03-28T06:13:08Z</time>
      </trkpt>
      <trkpt lat="42.77644" lon="2.8697">
        <ele>22</ele>
        <time>2021-03-28T06:13:08Z</time>
      </trkpt>
      <trkpt lat="42.77649" lon="2.86961">
        <ele>22.1</ele>
        <time>2021-03-28T06:13:10Z</time>
      </trkpt>
      <trkpt lat="42.77649" lon="2.86961">
        <ele>22.1</ele>
        <time>2021-03-28T06:13:10Z</time>
      </trkpt>
      <trkpt lat="42.77653" lon="2.86954">
        <ele>22.3</ele>
        <time>2021-03-28T06:13:11Z</time>
      </trkpt>
      <trkpt lat="42.77653" lon="2.86954">
        <ele>22.3</ele>
        <time>2021-03-28T06:13:11Z</time>
      </trkpt>
      <trkpt lat="42.77657" lon="2.86946">
        <ele>22.6</ele>
        <time>2021-03-28T06:13:13Z</time>
      </trkpt>
      <trkpt lat="42.77657" lon="2.86946">
        <ele>22.6</ele>
        <time>2021-03-28T06:13:13Z</time>
      </trkpt>
      <trkpt lat="42.7766" lon="2.86939">
        <ele>22.8</ele>
        <time>2021-03-28T06:13:14Z</time>
      </trkpt>
      <trkpt lat="42.7766" lon="2.86939">
        <ele>22.8</ele>
        <time>2021-03-28T06:13:14Z</time>
      </trkpt>
      <trkpt lat="42.77664" lon="2.86932">
        <ele>22.9</ele>
        <time>2021-03-28T06:13:15Z</time>
      </trkpt>
      <trkpt lat="42.77664" lon="2.86932">
        <ele>22.9</ele>
        <time>2021-03-28T06:13:15Z</time>
      </trkpt>
      <trkpt lat="42.77668" lon="2.86925">
        <ele>23</ele>
        <time>2021-03-28T06:13:17Z</time>
      </trkpt>
      <trkpt lat="42.77668" lon="2.86925">
        <ele>23</ele>
        <time>2021-03-28T06:13:17Z</time>
      </trkpt>
      <trkpt lat="42.77671" lon="2.86918">
        <ele>22.8</ele>
        <time>2021-03-28T06:13:18Z</time>
      </trkpt>
      <trkpt lat="42.77671" lon="2.86918">
        <ele>22.8</ele>
        <time>2021-03-28T06:13:18Z</time>
      </trkpt>
      <trkpt lat="42.77675" lon="2.86911">
        <ele>22.8</ele>
        <time>2021-03-28T06:13:20Z</time>
      </trkpt>
      <trkpt lat="42.77675" lon="2.86911">
        <ele>22.8</ele>
        <time>2021-03-28T06:13:20Z</time>
      </trkpt>
      <trkpt lat="42.77679" lon="2.86904">
        <ele>22.8</ele>
        <time>2021-03-28T06:13:21Z</time>
      </trkpt>
      <trkpt lat="42.77679" lon="2.86904">
        <ele>22.8</ele>
        <time>2021-03-28T06:13:21Z</time>
      </trkpt>
      <trkpt lat="42.77683" lon="2.86898">
        <ele>22.8</ele>
        <time>2021-03-28T06:13:22Z</time>
      </trkpt>
      <trkpt lat="42.77683" lon="2.86898">
        <ele>22.8</ele>
        <time>2021-03-28T06:13:22Z</time>
      </trkpt>
      <trkpt lat="42.77688" lon="2.86891">
        <ele>22.9</ele>
        <time>2021-03-28T06:13:24Z</time>
      </trkpt>
      <trkpt lat="42.77688" lon="2.86891">
        <ele>22.9</ele>
        <time>2021-03-28T06:13:24Z</time>
      </trkpt>
      <trkpt lat="42.77691" lon="2.86885">
        <ele>23</ele>
        <time>2021-03-28T06:13:25Z</time>
      </trkpt>
      <trkpt lat="42.77691" lon="2.86885">
        <ele>23</ele>
        <time>2021-03-28T06:13:25Z</time>
      </trkpt>
      <trkpt lat="42.77696" lon="2.86877">
        <ele>23</ele>
        <time>2021-03-28T06:13:27Z</time>
      </trkpt>
      <trkpt lat="42.77696" lon="2.86877">
        <ele>23</ele>
        <time>2021-03-28T06:13:27Z</time>
      </trkpt>
      <trkpt lat="42.777" lon="2.86871">
        <ele>23</ele>
        <time>2021-03-28T06:13:28Z</time>
      </trkpt>
      <trkpt lat="42.777" lon="2.86871">
        <ele>23</ele>
        <time>2021-03-28T06:13:28Z</time>
      </trkpt>
      <trkpt lat="42.77705" lon="2.86864">
        <ele>23</ele>
        <time>2021-03-28T06:13:30Z</time>
      </trkpt>
      <trkpt lat="42.77705" lon="2.86864">
        <ele>23</ele>
        <time>2021-03-28T06:13:30Z</time>
      </trkpt>
      <trkpt lat="42.7771" lon="2.86856">
        <ele>23</ele>
        <time>2021-03-28T06:13:32Z</time>
      </trkpt>
      <trkpt lat="42.7771" lon="2.86856">
        <ele>23</ele>
        <time>2021-03-28T06:13:32Z</time>
      </trkpt>
      <trkpt lat="42.77714" lon="2.86849">
        <ele>23</ele>
        <time>2021-03-28T06:13:33Z</time>
      </trkpt>
      <trkpt lat="42.77714" lon="2.86849">
        <ele>23</ele>
        <time>2021-03-28T06:13:33Z</time>
      </trkpt>
      <trkpt lat="42.77719" lon="2.86841">
        <ele>23</ele>
        <time>2021-03-28T06:13:35Z</time>
      </trkpt>
      <trkpt lat="42.77719" lon="2.86841">
        <ele>23</ele>
        <time>2021-03-28T06:13:35Z</time>
      </trkpt>
      <trkpt lat="42.77722" lon="2.86835">
        <ele>23</ele>
        <time>2021-03-28T06:13:36Z</time>
      </trkpt>
      <trkpt lat="42.77722" lon="2.86835">
        <ele>23</ele>
        <time>2021-03-28T06:13:36Z</time>
      </trkpt>
      <trkpt lat="42.77726" lon="2.86827">
        <ele>23.2</ele>
        <time>2021-03-28T06:13:38Z</time>
      </trkpt>
      <trkpt lat="42.77726" lon="2.86827">
        <ele>23.2</ele>
        <time>2021-03-28T06:13:38Z</time>
      </trkpt>
      <trkpt lat="42.77729" lon="2.86819">
        <ele>23.4</ele>
        <time>2021-03-28T06:13:39Z</time>
      </trkpt>
      <trkpt lat="42.77729" lon="2.86819">
        <ele>23.4</ele>
        <time>2021-03-28T06:13:39Z</time>
      </trkpt>
      <trkpt lat="42.77731" lon="2.86807">
        <ele>23.7</ele>
        <time>2021-03-28T06:13:41Z</time>
      </trkpt>
      <trkpt lat="42.77731" lon="2.86807">
        <ele>23.7</ele>
        <time>2021-03-28T06:13:41Z</time>
      </trkpt>
      <trkpt lat="42.77733" lon="2.86792">
        <ele>22.4</ele>
        <time>2021-03-28T06:13:43Z</time>
      </trkpt>
      <trkpt lat="42.77733" lon="2.86792">
        <ele>22.4</ele>
        <time>2021-03-28T06:13:43Z</time>
      </trkpt>
      <trkpt lat="42.77735" lon="2.86777">
        <ele>21.5</ele>
        <time>2021-03-28T06:13:45Z</time>
      </trkpt>
      <trkpt lat="42.77735" lon="2.86777">
        <ele>21.5</ele>
        <time>2021-03-28T06:13:45Z</time>
      </trkpt>
      <trkpt lat="42.77737" lon="2.86762">
        <ele>23.3</ele>
        <time>2021-03-28T06:13:47Z</time>
      </trkpt>
      <trkpt lat="42.77737" lon="2.86762">
        <ele>23.3</ele>
        <time>2021-03-28T06:13:47Z</time>
      </trkpt>
      <trkpt lat="42.77739" lon="2.8675">
        <ele>24.8</ele>
        <time>2021-03-28T06:13:48Z</time>
      </trkpt>
      <trkpt lat="42.77739" lon="2.8675">
        <ele>24.8</ele>
        <time>2021-03-28T06:13:48Z</time>
      </trkpt>
      <trkpt lat="42.77745" lon="2.8674">
        <ele>24.2</ele>
        <time>2021-03-28T06:13:50Z</time>
      </trkpt>
      <trkpt lat="42.77745" lon="2.8674">
        <ele>24.2</ele>
        <time>2021-03-28T06:13:50Z</time>
      </trkpt>
      <trkpt lat="42.77752" lon="2.86735">
        <ele>23.3</ele>
        <time>2021-03-28T06:13:52Z</time>
      </trkpt>
      <trkpt lat="42.77752" lon="2.86735">
        <ele>23.3</ele>
        <time>2021-03-28T06:13:52Z</time>
      </trkpt>
      <trkpt lat="42.77759" lon="2.86733">
        <ele>22.9</ele>
        <time>2021-03-28T06:13:53Z</time>
      </trkpt>
      <trkpt lat="42.77759" lon="2.86733">
        <ele>22.9</ele>
        <time>2021-03-28T06:13:53Z</time>
      </trkpt>
      <trkpt lat="42.77766" lon="2.86734">
        <ele>23.2</ele>
        <time>2021-03-28T06:13:55Z</time>
      </trkpt>
      <trkpt lat="42.77766" lon="2.86734">
        <ele>23.2</ele>
        <time>2021-03-28T06:13:55Z</time>
      </trkpt>
      <trkpt lat="42.77773" lon="2.86738">
        <ele>23.7</ele>
        <time>2021-03-28T06:13:57Z</time>
      </trkpt>
      <trkpt lat="42.77773" lon="2.86738">
        <ele>23.7</ele>
        <time>2021-03-28T06:13:57Z</time>
      </trkpt>
      <trkpt lat="42.77779" lon="2.86741">
        <ele>24</ele>
        <time>2021-03-28T06:13:58Z</time>
      </trkpt>
      <trkpt lat="42.77779" lon="2.86741">
        <ele>24</ele>
        <time>2021-03-28T06:13:58Z</time>
      </trkpt>
      <trkpt lat="42.77786" lon="2.86746">
        <ele>24.1</ele>
        <time>2021-03-28T06:14:00Z</time>
      </trkpt>
      <trkpt lat="42.77786" lon="2.86746">
        <ele>24.1</ele>
        <time>2021-03-28T06:14:00Z</time>
      </trkpt>
      <trkpt lat="42.77791" lon="2.8675">
        <ele>24</ele>
        <time>2021-03-28T06:14:01Z</time>
      </trkpt>
      <trkpt lat="42.77791" lon="2.8675">
        <ele>24</ele>
        <time>2021-03-28T06:14:01Z</time>
      </trkpt>
      <trkpt lat="42.77796" lon="2.86754">
        <ele>23.9</ele>
        <time>2021-03-28T06:14:02Z</time>
      </trkpt>
      <trkpt lat="42.77796" lon="2.86754">
        <ele>23.9</ele>
        <time>2021-03-28T06:14:02Z</time>
      </trkpt>
      <trkpt lat="42.77802" lon="2.86759">
        <ele>24.1</ele>
        <time>2021-03-28T06:14:04Z</time>
      </trkpt>
      <trkpt lat="42.77802" lon="2.86759">
        <ele>24.1</ele>
        <time>2021-03-28T06:14:04Z</time>
      </trkpt>
      <trkpt lat="42.77809" lon="2.86765">
        <ele>24.6</ele>
        <time>2021-03-28T06:14:06Z</time>
      </trkpt>
      <trkpt lat="42.77809" lon="2.86765">
        <ele>24.6</ele>
        <time>2021-03-28T06:14:06Z</time>
      </trkpt>
      <trkpt lat="42.77814" lon="2.8677">
        <ele>24.8</ele>
        <time>2021-03-28T06:14:07Z</time>
      </trkpt>
      <trkpt lat="42.77814" lon="2.8677">
        <ele>24.8</ele>
        <time>2021-03-28T06:14:07Z</time>
      </trkpt>
      <trkpt lat="42.7782" lon="2.86776">
        <ele>24.8</ele>
        <time>2021-03-28T06:14:09Z</time>
      </trkpt>
      <trkpt lat="42.7782" lon="2.86776">
        <ele>24.8</ele>
        <time>2021-03-28T06:14:09Z</time>
      </trkpt>
      <trkpt lat="42.77826" lon="2.86781">
        <ele>24.7</ele>
        <time>2021-03-28T06:14:11Z</time>
      </trkpt>
      <trkpt lat="42.77826" lon="2.86781">
        <ele>24.7</ele>
        <time>2021-03-28T06:14:11Z</time>
      </trkpt>
      <trkpt lat="42.77832" lon="2.86787">
        <ele>25</ele>
        <time>2021-03-28T06:14:13Z</time>
      </trkpt>
      <trkpt lat="42.77832" lon="2.86787">
        <ele>25</ele>
        <time>2021-03-28T06:14:13Z</time>
      </trkpt>
      <trkpt lat="42.77838" lon="2.86791">
        <ele>25.2</ele>
        <time>2021-03-28T06:14:14Z</time>
      </trkpt>
      <trkpt lat="42.77838" lon="2.86791">
        <ele>25.2</ele>
        <time>2021-03-28T06:14:14Z</time>
      </trkpt>
      <trkpt lat="42.77843" lon="2.86796">
        <ele>25.2</ele>
        <time>2021-03-28T06:14:16Z</time>
      </trkpt>
      <trkpt lat="42.77843" lon="2.86796">
        <ele>25.2</ele>
        <time>2021-03-28T06:14:16Z</time>
      </trkpt>
      <trkpt lat="42.77849" lon="2.868">
        <ele>25</ele>
        <time>2021-03-28T06:14:18Z</time>
      </trkpt>
      <trkpt lat="42.77849" lon="2.868">
        <ele>25</ele>
        <time>2021-03-28T06:14:18Z</time>
      </trkpt>
      <trkpt lat="42.77855" lon="2.86805">
        <ele>24.7</ele>
        <time>2021-03-28T06:14:19Z</time>
      </trkpt>
      <trkpt lat="42.77855" lon="2.86805">
        <ele>24.7</ele>
        <time>2021-03-28T06:14:19Z</time>
      </trkpt>
      <trkpt lat="42.7786" lon="2.8681">
        <ele>24.4</ele>
        <time>2021-03-28T06:14:20Z</time>
      </trkpt>
      <trkpt lat="42.7786" lon="2.8681">
        <ele>24.4</ele>
        <time>2021-03-28T06:14:20Z</time>
      </trkpt>
      <trkpt lat="42.77866" lon="2.86815">
        <ele>24.6</ele>
        <time>2021-03-28T06:14:22Z</time>
      </trkpt>
      <trkpt lat="42.77866" lon="2.86815">
        <ele>24.6</ele>
        <time>2021-03-28T06:14:22Z</time>
      </trkpt>
      <trkpt lat="42.77872" lon="2.8682">
        <ele>24.8</ele>
        <time>2021-03-28T06:14:23Z</time>
      </trkpt>
      <trkpt lat="42.77872" lon="2.8682">
        <ele>24.8</ele>
        <time>2021-03-28T06:14:23Z</time>
      </trkpt>
      <trkpt lat="42.77878" lon="2.86825">
        <ele>25</ele>
        <time>2021-03-28T06:14:25Z</time>
      </trkpt>
      <trkpt lat="42.77878" lon="2.86825">
        <ele>25</ele>
        <time>2021-03-28T06:14:25Z</time>
      </trkpt>
      <trkpt lat="42.77884" lon="2.8683">
        <ele>25</ele>
        <time>2021-03-28T06:14:26Z</time>
      </trkpt>
      <trkpt lat="42.77884" lon="2.8683">
        <ele>25</ele>
        <time>2021-03-28T06:14:26Z</time>
      </trkpt>
      <trkpt lat="42.77888" lon="2.86834">
        <ele>25</ele>
        <time>2021-03-28T06:14:27Z</time>
      </trkpt>
      <trkpt lat="42.77888" lon="2.86834">
        <ele>25</ele>
        <time>2021-03-28T06:14:27Z</time>
      </trkpt>
      <trkpt lat="42.77892" lon="2.86838">
        <ele>25.1</ele>
        <time>2021-03-28T06:14:28Z</time>
      </trkpt>
      <trkpt lat="42.77892" lon="2.86838">
        <ele>25.1</ele>
        <time>2021-03-28T06:14:28Z</time>
      </trkpt>
      <trkpt lat="42.77898" lon="2.86844">
        <ele>25.2</ele>
        <time>2021-03-28T06:14:30Z</time>
      </trkpt>
      <trkpt lat="42.77898" lon="2.86844">
        <ele>25.2</ele>
        <time>2021-03-28T06:14:30Z</time>
      </trkpt>
      <trkpt lat="42.77902" lon="2.86848">
        <ele>25.3</ele>
        <time>2021-03-28T06:14:31Z</time>
      </trkpt>
      <trkpt lat="42.77902" lon="2.86848">
        <ele>25.3</ele>
        <time>2021-03-28T06:14:31Z</time>
      </trkpt>
      <trkpt lat="42.77907" lon="2.86853">
        <ele>25.5</ele>
        <time>2021-03-28T06:14:32Z</time>
      </trkpt>
      <trkpt lat="42.77907" lon="2.86853">
        <ele>25.5</ele>
        <time>2021-03-28T06:14:32Z</time>
      </trkpt>
      <trkpt lat="42.77911" lon="2.86857">
        <ele>25.7</ele>
        <time>2021-03-28T06:14:33Z</time>
      </trkpt>
      <trkpt lat="42.77911" lon="2.86857">
        <ele>25.7</ele>
        <time>2021-03-28T06:14:33Z</time>
      </trkpt>
      <trkpt lat="42.77917" lon="2.86862">
        <ele>26</ele>
        <time>2021-03-28T06:14:35Z</time>
      </trkpt>
      <trkpt lat="42.77917" lon="2.86862">
        <ele>26</ele>
        <time>2021-03-28T06:14:35Z</time>
      </trkpt>
      <trkpt lat="42.77921" lon="2.86866">
        <ele>25.9</ele>
        <time>2021-03-28T06:14:36Z</time>
      </trkpt>
      <trkpt lat="42.77921" lon="2.86866">
        <ele>25.9</ele>
        <time>2021-03-28T06:14:36Z</time>
      </trkpt>
      <trkpt lat="42.77927" lon="2.86872">
        <ele>25.8</ele>
        <time>2021-03-28T06:14:38Z</time>
      </trkpt>
      <trkpt lat="42.77927" lon="2.86872">
        <ele>25.8</ele>
        <time>2021-03-28T06:14:38Z</time>
      </trkpt>
      <trkpt lat="42.77932" lon="2.86876">
        <ele>25.8</ele>
        <time>2021-03-28T06:14:39Z</time>
      </trkpt>
      <trkpt lat="42.77932" lon="2.86876">
        <ele>25.8</ele>
        <time>2021-03-28T06:14:39Z</time>
      </trkpt>
      <trkpt lat="42.77938" lon="2.86883">
        <ele>25.9</ele>
        <time>2021-03-28T06:14:41Z</time>
      </trkpt>
      <trkpt lat="42.77938" lon="2.86883">
        <ele>25.9</ele>
        <time>2021-03-28T06:14:41Z</time>
      </trkpt>
      <trkpt lat="42.77943" lon="2.86889">
        <ele>26.1</ele>
        <time>2021-03-28T06:14:42Z</time>
      </trkpt>
      <trkpt lat="42.77943" lon="2.86889">
        <ele>26.1</ele>
        <time>2021-03-28T06:14:42Z</time>
      </trkpt>
      <trkpt lat="42.77948" lon="2.86896">
        <ele>25.7</ele>
        <time>2021-03-28T06:14:44Z</time>
      </trkpt>
      <trkpt lat="42.77948" lon="2.86896">
        <ele>25.7</ele>
        <time>2021-03-28T06:14:44Z</time>
      </trkpt>
      <trkpt lat="42.77955" lon="2.86904">
        <ele>25.3</ele>
        <time>2021-03-28T06:14:46Z</time>
      </trkpt>
      <trkpt lat="42.77955" lon="2.86904">
        <ele>25.3</ele>
        <time>2021-03-28T06:14:46Z</time>
      </trkpt>
      <trkpt lat="42.77962" lon="2.86913">
        <ele>25.2</ele>
        <time>2021-03-28T06:14:48Z</time>
      </trkpt>
      <trkpt lat="42.77962" lon="2.86913">
        <ele>25.2</ele>
        <time>2021-03-28T06:14:48Z</time>
      </trkpt>
      <trkpt lat="42.77969" lon="2.86922">
        <ele>25.2</ele>
        <time>2021-03-28T06:14:50Z</time>
      </trkpt>
      <trkpt lat="42.77969" lon="2.86922">
        <ele>25.2</ele>
        <time>2021-03-28T06:14:50Z</time>
      </trkpt>
      <trkpt lat="42.77975" lon="2.8693">
        <ele>25.2</ele>
        <time>2021-03-28T06:14:51Z</time>
      </trkpt>
      <trkpt lat="42.77975" lon="2.8693">
        <ele>25.2</ele>
        <time>2021-03-28T06:14:51Z</time>
      </trkpt>
      <trkpt lat="42.77982" lon="2.86938">
        <ele>25.1</ele>
        <time>2021-03-28T06:14:53Z</time>
      </trkpt>
      <trkpt lat="42.77982" lon="2.86938">
        <ele>25.1</ele>
        <time>2021-03-28T06:14:53Z</time>
      </trkpt>
      <trkpt lat="42.77987" lon="2.86944">
        <ele>24.9</ele>
        <time>2021-03-28T06:14:54Z</time>
      </trkpt>
      <trkpt lat="42.77987" lon="2.86944">
        <ele>24.9</ele>
        <time>2021-03-28T06:14:54Z</time>
      </trkpt>
      <trkpt lat="42.77991" lon="2.8695">
        <ele>24.6</ele>
        <time>2021-03-28T06:14:55Z</time>
      </trkpt>
      <trkpt lat="42.77991" lon="2.8695">
        <ele>24.6</ele>
        <time>2021-03-28T06:14:55Z</time>
      </trkpt>
      <trkpt lat="42.77996" lon="2.86956">
        <ele>24.8</ele>
        <time>2021-03-28T06:14:57Z</time>
      </trkpt>
      <trkpt lat="42.77996" lon="2.86956">
        <ele>24.8</ele>
        <time>2021-03-28T06:14:57Z</time>
      </trkpt>
      <trkpt lat="42.78001" lon="2.86963">
        <ele>25.3</ele>
        <time>2021-03-28T06:14:59Z</time>
      </trkpt>
      <trkpt lat="42.78001" lon="2.86963">
        <ele>25.3</ele>
        <time>2021-03-28T06:14:59Z</time>
      </trkpt>
      <trkpt lat="42.78006" lon="2.86969">
        <ele>25.4</ele>
        <time>2021-03-28T06:15:00Z</time>
      </trkpt>
      <trkpt lat="42.78006" lon="2.86969">
        <ele>25.4</ele>
        <time>2021-03-28T06:15:00Z</time>
      </trkpt>
      <trkpt lat="42.78011" lon="2.86975">
        <ele>25.1</ele>
        <time>2021-03-28T06:15:02Z</time>
      </trkpt>
      <trkpt lat="42.78011" lon="2.86975">
        <ele>25.1</ele>
        <time>2021-03-28T06:15:02Z</time>
      </trkpt>
      <trkpt lat="42.78015" lon="2.86981">
        <ele>24.7</ele>
        <time>2021-03-28T06:15:03Z</time>
      </trkpt>
      <trkpt lat="42.78015" lon="2.86981">
        <ele>24.7</ele>
        <time>2021-03-28T06:15:03Z</time>
      </trkpt>
      <trkpt lat="42.7802" lon="2.86989">
        <ele>24.5</ele>
        <time>2021-03-28T06:15:05Z</time>
      </trkpt>
      <trkpt lat="42.7802" lon="2.86989">
        <ele>24.5</ele>
        <time>2021-03-28T06:15:05Z</time>
      </trkpt>
      <trkpt lat="42.78025" lon="2.86996">
        <ele>24.7</ele>
        <time>2021-03-28T06:15:06Z</time>
      </trkpt>
      <trkpt lat="42.78025" lon="2.86996">
        <ele>24.7</ele>
        <time>2021-03-28T06:15:06Z</time>
      </trkpt>
      <trkpt lat="42.78031" lon="2.87005">
        <ele>24.9</ele>
        <time>2021-03-28T06:15:08Z</time>
      </trkpt>
      <trkpt lat="42.78031" lon="2.87005">
        <ele>24.9</ele>
        <time>2021-03-28T06:15:08Z</time>
      </trkpt>
      <trkpt lat="42.78037" lon="2.87014">
        <ele>24.7</ele>
        <time>2021-03-28T06:15:10Z</time>
      </trkpt>
      <trkpt lat="42.78037" lon="2.87014">
        <ele>24.7</ele>
        <time>2021-03-28T06:15:10Z</time>
      </trkpt>
      <trkpt lat="42.78043" lon="2.87023">
        <ele>24.5</ele>
        <time>2021-03-28T06:15:11Z</time>
      </trkpt>
      <trkpt lat="42.78043" lon="2.87023">
        <ele>24.5</ele>
        <time>2021-03-28T06:15:11Z</time>
      </trkpt>
      <trkpt lat="42.78049" lon="2.8703">
        <ele>24.3</ele>
        <time>2021-03-28T06:15:13Z</time>
      </trkpt>
      <trkpt lat="42.78049" lon="2.8703">
        <ele>24.3</ele>
        <time>2021-03-28T06:15:13Z</time>
      </trkpt>
      <trkpt lat="42.78054" lon="2.87038">
        <ele>24.7</ele>
        <time>2021-03-28T06:15:15Z</time>
      </trkpt>
      <trkpt lat="42.78054" lon="2.87038">
        <ele>24.7</ele>
        <time>2021-03-28T06:15:15Z</time>
      </trkpt>
      <trkpt lat="42.7806" lon="2.87047">
        <ele>25.2</ele>
        <time>2021-03-28T06:15:17Z</time>
      </trkpt>
      <trkpt lat="42.7806" lon="2.87047">
        <ele>25.2</ele>
        <time>2021-03-28T06:15:17Z</time>
      </trkpt>
      <trkpt lat="42.78064" lon="2.87054">
        <ele>25.3</ele>
        <time>2021-03-28T06:15:18Z</time>
      </trkpt>
      <trkpt lat="42.78064" lon="2.87054">
        <ele>25.3</ele>
        <time>2021-03-28T06:15:18Z</time>
      </trkpt>
      <trkpt lat="42.78068" lon="2.8706">
        <ele>24.9</ele>
        <time>2021-03-28T06:15:19Z</time>
      </trkpt>
      <trkpt lat="42.78068" lon="2.8706">
        <ele>24.9</ele>
        <time>2021-03-28T06:15:19Z</time>
      </trkpt>
      <trkpt lat="42.78071" lon="2.87067">
        <ele>24.6</ele>
        <time>2021-03-28T06:15:21Z</time>
      </trkpt>
      <trkpt lat="42.78071" lon="2.87067">
        <ele>24.6</ele>
        <time>2021-03-28T06:15:21Z</time>
      </trkpt>
      <trkpt lat="42.78075" lon="2.87075">
        <ele>24.5</ele>
        <time>2021-03-28T06:15:23Z</time>
      </trkpt>
      <trkpt lat="42.78075" lon="2.87075">
        <ele>24.5</ele>
        <time>2021-03-28T06:15:23Z</time>
      </trkpt>
      <trkpt lat="42.7808" lon="2.87083">
        <ele>24.7</ele>
        <time>2021-03-28T06:15:25Z</time>
      </trkpt>
      <trkpt lat="42.7808" lon="2.87083">
        <ele>24.7</ele>
        <time>2021-03-28T06:15:25Z</time>
      </trkpt>
      <trkpt lat="42.78085" lon="2.87093">
        <ele>25.4</ele>
        <time>2021-03-28T06:15:27Z</time>
      </trkpt>
      <trkpt lat="42.78085" lon="2.87093">
        <ele>25.4</ele>
        <time>2021-03-28T06:15:27Z</time>
      </trkpt>
      <trkpt lat="42.7809" lon="2.871">
        <ele>25.7</ele>
        <time>2021-03-28T06:15:28Z</time>
      </trkpt>
      <trkpt lat="42.7809" lon="2.871">
        <ele>25.7</ele>
        <time>2021-03-28T06:15:28Z</time>
      </trkpt>
      <trkpt lat="42.78095" lon="2.87109">
        <ele>26</ele>
        <time>2021-03-28T06:15:30Z</time>
      </trkpt>
      <trkpt lat="42.78095" lon="2.87109">
        <ele>26</ele>
        <time>2021-03-28T06:15:30Z</time>
      </trkpt>
      <trkpt lat="42.781" lon="2.87116">
        <ele>25.6</ele>
        <time>2021-03-28T06:15:31Z</time>
      </trkpt>
      <trkpt lat="42.781" lon="2.87116">
        <ele>25.6</ele>
        <time>2021-03-28T06:15:31Z</time>
      </trkpt>
      <trkpt lat="42.78104" lon="2.87122">
        <ele>25.3</ele>
        <time>2021-03-28T06:15:32Z</time>
      </trkpt>
      <trkpt lat="42.78104" lon="2.87122">
        <ele>25.3</ele>
        <time>2021-03-28T06:15:32Z</time>
      </trkpt>
      <trkpt lat="42.78109" lon="2.8713">
        <ele>25.2</ele>
        <time>2021-03-28T06:15:34Z</time>
      </trkpt>
      <trkpt lat="42.78109" lon="2.8713">
        <ele>25.2</ele>
        <time>2021-03-28T06:15:34Z</time>
      </trkpt>
      <trkpt lat="42.78113" lon="2.87137">
        <ele>25.2</ele>
        <time>2021-03-28T06:15:35Z</time>
      </trkpt>
      <trkpt lat="42.78113" lon="2.87137">
        <ele>25.2</ele>
        <time>2021-03-28T06:15:35Z</time>
      </trkpt>
      <trkpt lat="42.78117" lon="2.87144">
        <ele>25.3</ele>
        <time>2021-03-28T06:15:36Z</time>
      </trkpt>
      <trkpt lat="42.78117" lon="2.87144">
        <ele>25.3</ele>
        <time>2021-03-28T06:15:36Z</time>
      </trkpt>
      <trkpt lat="42.78122" lon="2.87154">
        <ele>25.3</ele>
        <time>2021-03-28T06:15:38Z</time>
      </trkpt>
      <trkpt lat="42.78122" lon="2.87154">
        <ele>25.3</ele>
        <time>2021-03-28T06:15:38Z</time>
      </trkpt>
      <trkpt lat="42.78126" lon="2.87162">
        <ele>25.2</ele>
        <time>2021-03-28T06:15:39Z</time>
      </trkpt>
      <trkpt lat="42.78126" lon="2.87162">
        <ele>25.2</ele>
        <time>2021-03-28T06:15:39Z</time>
      </trkpt>
      <trkpt lat="42.7813" lon="2.8717">
        <ele>24.8</ele>
        <time>2021-03-28T06:15:40Z</time>
      </trkpt>
      <trkpt lat="42.7813" lon="2.8717">
        <ele>24.8</ele>
        <time>2021-03-28T06:15:40Z</time>
      </trkpt>
      <trkpt lat="42.78133" lon="2.87177">
        <ele>24.7</ele>
        <time>2021-03-28T06:15:41Z</time>
      </trkpt>
      <trkpt lat="42.78133" lon="2.87177">
        <ele>24.7</ele>
        <time>2021-03-28T06:15:41Z</time>
      </trkpt>
      <trkpt lat="42.78136" lon="2.87186">
        <ele>24.7</ele>
        <time>2021-03-28T06:15:43Z</time>
      </trkpt>
      <trkpt lat="42.78136" lon="2.87186">
        <ele>24.7</ele>
        <time>2021-03-28T06:15:43Z</time>
      </trkpt>
      <trkpt lat="42.78139" lon="2.87194">
        <ele>25</ele>
        <time>2021-03-28T06:15:44Z</time>
      </trkpt>
      <trkpt lat="42.78139" lon="2.87194">
        <ele>25</ele>
        <time>2021-03-28T06:15:44Z</time>
      </trkpt>
      <trkpt lat="42.78143" lon="2.87203">
        <ele>24.8</ele>
        <time>2021-03-28T06:15:46Z</time>
      </trkpt>
      <trkpt lat="42.78143" lon="2.87203">
        <ele>24.8</ele>
        <time>2021-03-28T06:15:46Z</time>
      </trkpt>
      <trkpt lat="42.78148" lon="2.87212">
        <ele>24.7</ele>
        <time>2021-03-28T06:15:48Z</time>
      </trkpt>
      <trkpt lat="42.78148" lon="2.87212">
        <ele>24.7</ele>
        <time>2021-03-28T06:15:48Z</time>
      </trkpt>
      <trkpt lat="42.78153" lon="2.87221">
        <ele>24.5</ele>
        <time>2021-03-28T06:15:49Z</time>
      </trkpt>
      <trkpt lat="42.78153" lon="2.87221">
        <ele>24.5</ele>
        <time>2021-03-28T06:15:49Z</time>
      </trkpt>
      <trkpt lat="42.78157" lon="2.87228">
        <ele>24.1</ele>
        <time>2021-03-28T06:15:50Z</time>
      </trkpt>
      <trkpt lat="42.78157" lon="2.87228">
        <ele>24.1</ele>
        <time>2021-03-28T06:15:50Z</time>
      </trkpt>
      <trkpt lat="42.78161" lon="2.87237">
        <ele>23.9</ele>
        <time>2021-03-28T06:15:52Z</time>
      </trkpt>
      <trkpt lat="42.78161" lon="2.87237">
        <ele>23.9</ele>
        <time>2021-03-28T06:15:52Z</time>
      </trkpt>
      <trkpt lat="42.78165" lon="2.87244">
        <ele>23.9</ele>
        <time>2021-03-28T06:15:53Z</time>
      </trkpt>
      <trkpt lat="42.78165" lon="2.87244">
        <ele>23.9</ele>
        <time>2021-03-28T06:15:53Z</time>
      </trkpt>
      <trkpt lat="42.7817" lon="2.87255">
        <ele>24.1</ele>
        <time>2021-03-28T06:15:55Z</time>
      </trkpt>
      <trkpt lat="42.7817" lon="2.87255">
        <ele>24.1</ele>
        <time>2021-03-28T06:15:55Z</time>
      </trkpt>
      <trkpt lat="42.78175" lon="2.87265">
        <ele>24.4</ele>
        <time>2021-03-28T06:15:57Z</time>
      </trkpt>
      <trkpt lat="42.78175" lon="2.87265">
        <ele>24.4</ele>
        <time>2021-03-28T06:15:57Z</time>
      </trkpt>
      <trkpt lat="42.78179" lon="2.87273">
        <ele>24.5</ele>
        <time>2021-03-28T06:15:58Z</time>
      </trkpt>
      <trkpt lat="42.78179" lon="2.87273">
        <ele>24.5</ele>
        <time>2021-03-28T06:15:58Z</time>
      </trkpt>
      <trkpt lat="42.78183" lon="2.87281">
        <ele>24.3</ele>
        <time>2021-03-28T06:15:59Z</time>
      </trkpt>
      <trkpt lat="42.78183" lon="2.87281">
        <ele>24.3</ele>
        <time>2021-03-28T06:15:59Z</time>
      </trkpt>
      <trkpt lat="42.78188" lon="2.8729">
        <ele>24</ele>
        <time>2021-03-28T06:16:01Z</time>
      </trkpt>
      <trkpt lat="42.78188" lon="2.8729">
        <ele>24</ele>
        <time>2021-03-28T06:16:01Z</time>
      </trkpt>
      <trkpt lat="42.78192" lon="2.87298">
        <ele>24</ele>
        <time>2021-03-28T06:16:02Z</time>
      </trkpt>
      <trkpt lat="42.78192" lon="2.87298">
        <ele>24</ele>
        <time>2021-03-28T06:16:02Z</time>
      </trkpt>
      <trkpt lat="42.78195" lon="2.87307">
        <ele>24</ele>
        <time>2021-03-28T06:16:03Z</time>
      </trkpt>
      <trkpt lat="42.78195" lon="2.87307">
        <ele>24</ele>
        <time>2021-03-28T06:16:03Z</time>
      </trkpt>
      <trkpt lat="42.78199" lon="2.87316">
        <ele>24.3</ele>
        <time>2021-03-28T06:16:05Z</time>
      </trkpt>
      <trkpt lat="42.78199" lon="2.87316">
        <ele>24.3</ele>
        <time>2021-03-28T06:16:05Z</time>
      </trkpt>
      <trkpt lat="42.78203" lon="2.87325">
        <ele>24.5</ele>
        <time>2021-03-28T06:16:06Z</time>
      </trkpt>
      <trkpt lat="42.78203" lon="2.87325">
        <ele>24.5</ele>
        <time>2021-03-28T06:16:06Z</time>
      </trkpt>
      <trkpt lat="42.78207" lon="2.87335">
        <ele>24.5</ele>
        <time>2021-03-28T06:16:08Z</time>
      </trkpt>
      <trkpt lat="42.78207" lon="2.87335">
        <ele>24.5</ele>
        <time>2021-03-28T06:16:08Z</time>
      </trkpt>
      <trkpt lat="42.78211" lon="2.87346">
        <ele>24</ele>
        <time>2021-03-28T06:16:10Z</time>
      </trkpt>
      <trkpt lat="42.78211" lon="2.87346">
        <ele>24</ele>
        <time>2021-03-28T06:16:10Z</time>
      </trkpt>
      <trkpt lat="42.78216" lon="2.87357">
        <ele>23.8</ele>
        <time>2021-03-28T06:16:12Z</time>
      </trkpt>
      <trkpt lat="42.78216" lon="2.87357">
        <ele>23.8</ele>
        <time>2021-03-28T06:16:12Z</time>
      </trkpt>
      <trkpt lat="42.78221" lon="2.87368">
        <ele>23.7</ele>
        <time>2021-03-28T06:16:14Z</time>
      </trkpt>
      <trkpt lat="42.78221" lon="2.87368">
        <ele>23.7</ele>
        <time>2021-03-28T06:16:14Z</time>
      </trkpt>
      <trkpt lat="42.78226" lon="2.87377">
        <ele>23.8</ele>
        <time>2021-03-28T06:16:15Z</time>
      </trkpt>
      <trkpt lat="42.78226" lon="2.87377">
        <ele>23.8</ele>
        <time>2021-03-28T06:16:15Z</time>
      </trkpt>
      <trkpt lat="42.78231" lon="2.87388">
        <ele>23.9</ele>
        <time>2021-03-28T06:16:17Z</time>
      </trkpt>
      <trkpt lat="42.78231" lon="2.87388">
        <ele>23.9</ele>
        <time>2021-03-28T06:16:17Z</time>
      </trkpt>
      <trkpt lat="42.78236" lon="2.87398">
        <ele>24.5</ele>
        <time>2021-03-28T06:16:19Z</time>
      </trkpt>
      <trkpt lat="42.78236" lon="2.87398">
        <ele>24.5</ele>
        <time>2021-03-28T06:16:19Z</time>
      </trkpt>
      <trkpt lat="42.7824" lon="2.87409">
        <ele>24.7</ele>
        <time>2021-03-28T06:16:21Z</time>
      </trkpt>
      <trkpt lat="42.7824" lon="2.87409">
        <ele>24.7</ele>
        <time>2021-03-28T06:16:21Z</time>
      </trkpt>
      <trkpt lat="42.78244" lon="2.87419">
        <ele>24.8</ele>
        <time>2021-03-28T06:16:22Z</time>
      </trkpt>
      <trkpt lat="42.78244" lon="2.87419">
        <ele>24.8</ele>
        <time>2021-03-28T06:16:22Z</time>
      </trkpt>
      <trkpt lat="42.78249" lon="2.87429">
        <ele>24.9</ele>
        <time>2021-03-28T06:16:24Z</time>
      </trkpt>
      <trkpt lat="42.78249" lon="2.87429">
        <ele>24.9</ele>
        <time>2021-03-28T06:16:24Z</time>
      </trkpt>
      <trkpt lat="42.78253" lon="2.87439">
        <ele>25.1</ele>
        <time>2021-03-28T06:16:25Z</time>
      </trkpt>
      <trkpt lat="42.78253" lon="2.87439">
        <ele>25.1</ele>
        <time>2021-03-28T06:16:25Z</time>
      </trkpt>
      <trkpt lat="42.78258" lon="2.87449">
        <ele>25.1</ele>
        <time>2021-03-28T06:16:27Z</time>
      </trkpt>
      <trkpt lat="42.78258" lon="2.87449">
        <ele>25.1</ele>
        <time>2021-03-28T06:16:27Z</time>
      </trkpt>
      <trkpt lat="42.78262" lon="2.87458">
        <ele>25</ele>
        <time>2021-03-28T06:16:28Z</time>
      </trkpt>
      <trkpt lat="42.78262" lon="2.87458">
        <ele>25</ele>
        <time>2021-03-28T06:16:28Z</time>
      </trkpt>
      <trkpt lat="42.78268" lon="2.87467">
        <ele>24.8</ele>
        <time>2021-03-28T06:16:30Z</time>
      </trkpt>
      <trkpt lat="42.78268" lon="2.87467">
        <ele>24.8</ele>
        <time>2021-03-28T06:16:30Z</time>
      </trkpt>
      <trkpt lat="42.78273" lon="2.87474">
        <ele>24.9</ele>
        <time>2021-03-28T06:16:31Z</time>
      </trkpt>
      <trkpt lat="42.78273" lon="2.87474">
        <ele>24.9</ele>
        <time>2021-03-28T06:16:31Z</time>
      </trkpt>
      <trkpt lat="42.78277" lon="2.8748">
        <ele>25.2</ele>
        <time>2021-03-28T06:16:32Z</time>
      </trkpt>
      <trkpt lat="42.78277" lon="2.8748">
        <ele>25.2</ele>
        <time>2021-03-28T06:16:32Z</time>
      </trkpt>
      <trkpt lat="42.78282" lon="2.87484">
        <ele>25.5</ele>
        <time>2021-03-28T06:16:33Z</time>
      </trkpt>
      <trkpt lat="42.78282" lon="2.87484">
        <ele>25.5</ele>
        <time>2021-03-28T06:16:33Z</time>
      </trkpt>
      <trkpt lat="42.78288" lon="2.87488">
        <ele>25.7</ele>
        <time>2021-03-28T06:16:35Z</time>
      </trkpt>
      <trkpt lat="42.78288" lon="2.87488">
        <ele>25.7</ele>
        <time>2021-03-28T06:16:35Z</time>
      </trkpt>
      <trkpt lat="42.78295" lon="2.87491">
        <ele>25.9</ele>
        <time>2021-03-28T06:16:37Z</time>
      </trkpt>
      <trkpt lat="42.78295" lon="2.87491">
        <ele>25.9</ele>
        <time>2021-03-28T06:16:37Z</time>
      </trkpt>
      <trkpt lat="42.78302" lon="2.87493">
        <ele>26</ele>
        <time>2021-03-28T06:16:38Z</time>
      </trkpt>
      <trkpt lat="42.78302" lon="2.87493">
        <ele>26</ele>
        <time>2021-03-28T06:16:38Z</time>
      </trkpt>
      <trkpt lat="42.7831" lon="2.87496">
        <ele>25.9</ele>
        <time>2021-03-28T06:16:40Z</time>
      </trkpt>
      <trkpt lat="42.7831" lon="2.87496">
        <ele>25.9</ele>
        <time>2021-03-28T06:16:40Z</time>
      </trkpt>
      <trkpt lat="42.78319" lon="2.87499">
        <ele>25.6</ele>
        <time>2021-03-28T06:16:42Z</time>
      </trkpt>
      <trkpt lat="42.78319" lon="2.87499">
        <ele>25.6</ele>
        <time>2021-03-28T06:16:42Z</time>
      </trkpt>
      <trkpt lat="42.78327" lon="2.87502">
        <ele>25.3</ele>
        <time>2021-03-28T06:16:43Z</time>
      </trkpt>
      <trkpt lat="42.78327" lon="2.87502">
        <ele>25.3</ele>
        <time>2021-03-28T06:16:43Z</time>
      </trkpt>
      <trkpt lat="42.78335" lon="2.87505">
        <ele>25.2</ele>
        <time>2021-03-28T06:16:45Z</time>
      </trkpt>
      <trkpt lat="42.78335" lon="2.87505">
        <ele>25.2</ele>
        <time>2021-03-28T06:16:45Z</time>
      </trkpt>
      <trkpt lat="42.78344" lon="2.87509">
        <ele>25.6</ele>
        <time>2021-03-28T06:16:47Z</time>
      </trkpt>
      <trkpt lat="42.78344" lon="2.87509">
        <ele>25.6</ele>
        <time>2021-03-28T06:16:47Z</time>
      </trkpt>
      <trkpt lat="42.78351" lon="2.87513">
        <ele>25.8</ele>
        <time>2021-03-28T06:16:48Z</time>
      </trkpt>
      <trkpt lat="42.78351" lon="2.87513">
        <ele>25.8</ele>
        <time>2021-03-28T06:16:48Z</time>
      </trkpt>
      <trkpt lat="42.78358" lon="2.87516">
        <ele>25.9</ele>
        <time>2021-03-28T06:16:49Z</time>
      </trkpt>
      <trkpt lat="42.78358" lon="2.87516">
        <ele>25.9</ele>
        <time>2021-03-28T06:16:49Z</time>
      </trkpt>
      <trkpt lat="42.78365" lon="2.87518">
        <ele>26</ele>
        <time>2021-03-28T06:16:51Z</time>
      </trkpt>
      <trkpt lat="42.78365" lon="2.87518">
        <ele>26</ele>
        <time>2021-03-28T06:16:51Z</time>
      </trkpt>
      <trkpt lat="42.78371" lon="2.8752">
        <ele>26.1</ele>
        <time>2021-03-28T06:16:52Z</time>
      </trkpt>
      <trkpt lat="42.78371" lon="2.8752">
        <ele>26.1</ele>
        <time>2021-03-28T06:16:52Z</time>
      </trkpt>
      <trkpt lat="42.78377" lon="2.87521">
        <ele>26.1</ele>
        <time>2021-03-28T06:16:53Z</time>
      </trkpt>
      <trkpt lat="42.78377" lon="2.87521">
        <ele>26.1</ele>
        <time>2021-03-28T06:16:53Z</time>
      </trkpt>
      <trkpt lat="42.78382" lon="2.87522">
        <ele>26.2</ele>
        <time>2021-03-28T06:16:54Z</time>
      </trkpt>
      <trkpt lat="42.78382" lon="2.87522">
        <ele>26.2</ele>
        <time>2021-03-28T06:16:54Z</time>
      </trkpt>
      <trkpt lat="42.78388" lon="2.87523">
        <ele>26.2</ele>
        <time>2021-03-28T06:16:56Z</time>
      </trkpt>
      <trkpt lat="42.78388" lon="2.87523">
        <ele>26.2</ele>
        <time>2021-03-28T06:16:56Z</time>
      </trkpt>
      <trkpt lat="42.78394" lon="2.87523">
        <ele>26.2</ele>
        <time>2021-03-28T06:16:57Z</time>
      </trkpt>
      <trkpt lat="42.78394" lon="2.87523">
        <ele>26.2</ele>
        <time>2021-03-28T06:16:57Z</time>
      </trkpt>
      <trkpt lat="42.78401" lon="2.87524">
        <ele>26.2</ele>
        <time>2021-03-28T06:16:59Z</time>
      </trkpt>
      <trkpt lat="42.78401" lon="2.87524">
        <ele>26.2</ele>
        <time>2021-03-28T06:16:59Z</time>
      </trkpt>
      <trkpt lat="42.78408" lon="2.87524">
        <ele>26.1</ele>
        <time>2021-03-28T06:17:01Z</time>
      </trkpt>
      <trkpt lat="42.78408" lon="2.87524">
        <ele>26.1</ele>
        <time>2021-03-28T06:17:01Z</time>
      </trkpt>
      <trkpt lat="42.78414" lon="2.87524">
        <ele>26.2</ele>
        <time>2021-03-28T06:17:02Z</time>
      </trkpt>
      <trkpt lat="42.78414" lon="2.87524">
        <ele>26.2</ele>
        <time>2021-03-28T06:17:02Z</time>
      </trkpt>
      <trkpt lat="42.7842" lon="2.87523">
        <ele>26.2</ele>
        <time>2021-03-28T06:17:03Z</time>
      </trkpt>
      <trkpt lat="42.7842" lon="2.87523">
        <ele>26.2</ele>
        <time>2021-03-28T06:17:03Z</time>
      </trkpt>
      <trkpt lat="42.78428" lon="2.87523">
        <ele>26.2</ele>
        <time>2021-03-28T06:17:05Z</time>
      </trkpt>
      <trkpt lat="42.78428" lon="2.87523">
        <ele>26.2</ele>
        <time>2021-03-28T06:17:05Z</time>
      </trkpt>
      <trkpt lat="42.78434" lon="2.87522">
        <ele>26.2</ele>
        <time>2021-03-28T06:17:06Z</time>
      </trkpt>
      <trkpt lat="42.78434" lon="2.87522">
        <ele>26.2</ele>
        <time>2021-03-28T06:17:06Z</time>
      </trkpt>
      <trkpt lat="42.78441" lon="2.87522">
        <ele>26.2</ele>
        <time>2021-03-28T06:17:08Z</time>
      </trkpt>
      <trkpt lat="42.78441" lon="2.87522">
        <ele>26.2</ele>
        <time>2021-03-28T06:17:08Z</time>
      </trkpt>
      <trkpt lat="42.78449" lon="2.87521">
        <ele>26.2</ele>
        <time>2021-03-28T06:17:10Z</time>
      </trkpt>
      <trkpt lat="42.78449" lon="2.87521">
        <ele>26.2</ele>
        <time>2021-03-28T06:17:10Z</time>
      </trkpt>
      <trkpt lat="42.78458" lon="2.87521">
        <ele>26.1</ele>
        <time>2021-03-28T06:17:12Z</time>
      </trkpt>
      <trkpt lat="42.78458" lon="2.87521">
        <ele>26.1</ele>
        <time>2021-03-28T06:17:12Z</time>
      </trkpt>
      <trkpt lat="42.78468" lon="2.87521">
        <ele>26</ele>
        <time>2021-03-28T06:17:14Z</time>
      </trkpt>
      <trkpt lat="42.78468" lon="2.87521">
        <ele>26</ele>
        <time>2021-03-28T06:17:14Z</time>
      </trkpt>
      <trkpt lat="42.78478" lon="2.87521">
        <ele>26.1</ele>
        <time>2021-03-28T06:17:16Z</time>
      </trkpt>
      <trkpt lat="42.78478" lon="2.87521">
        <ele>26.1</ele>
        <time>2021-03-28T06:17:16Z</time>
      </trkpt>
      <trkpt lat="42.78486" lon="2.87521">
        <ele>26.4</ele>
        <time>2021-03-28T06:17:17Z</time>
      </trkpt>
      <trkpt lat="42.78486" lon="2.87521">
        <ele>26.4</ele>
        <time>2021-03-28T06:17:17Z</time>
      </trkpt>
      <trkpt lat="42.78494" lon="2.87521">
        <ele>26.6</ele>
        <time>2021-03-28T06:17:19Z</time>
      </trkpt>
      <trkpt lat="42.78494" lon="2.87521">
        <ele>26.6</ele>
        <time>2021-03-28T06:17:19Z</time>
      </trkpt>
      <trkpt lat="42.78502" lon="2.87522">
        <ele>26.7</ele>
        <time>2021-03-28T06:17:20Z</time>
      </trkpt>
      <trkpt lat="42.78502" lon="2.87522">
        <ele>26.7</ele>
        <time>2021-03-28T06:17:20Z</time>
      </trkpt>
      <trkpt lat="42.7851" lon="2.87523">
        <ele>26.5</ele>
        <time>2021-03-28T06:17:22Z</time>
      </trkpt>
      <trkpt lat="42.7851" lon="2.87523">
        <ele>26.5</ele>
        <time>2021-03-28T06:17:22Z</time>
      </trkpt>
      <trkpt lat="42.78519" lon="2.87524">
        <ele>26.3</ele>
        <time>2021-03-28T06:17:24Z</time>
      </trkpt>
      <trkpt lat="42.78519" lon="2.87524">
        <ele>26.3</ele>
        <time>2021-03-28T06:17:24Z</time>
      </trkpt>
      <trkpt lat="42.78526" lon="2.87525">
        <ele>26.1</ele>
        <time>2021-03-28T06:17:25Z</time>
      </trkpt>
      <trkpt lat="42.78526" lon="2.87525">
        <ele>26.1</ele>
        <time>2021-03-28T06:17:25Z</time>
      </trkpt>
      <trkpt lat="42.78534" lon="2.87527">
        <ele>26</ele>
        <time>2021-03-28T06:17:27Z</time>
      </trkpt>
      <trkpt lat="42.78534" lon="2.87527">
        <ele>26</ele>
        <time>2021-03-28T06:17:27Z</time>
      </trkpt>
      <trkpt lat="42.78543" lon="2.87529">
        <ele>26</ele>
        <time>2021-03-28T06:17:29Z</time>
      </trkpt>
      <trkpt lat="42.78543" lon="2.87529">
        <ele>26</ele>
        <time>2021-03-28T06:17:29Z</time>
      </trkpt>
      <trkpt lat="42.7855" lon="2.87531">
        <ele>26.1</ele>
        <time>2021-03-28T06:17:30Z</time>
      </trkpt>
      <trkpt lat="42.7855" lon="2.87531">
        <ele>26.1</ele>
        <time>2021-03-28T06:17:30Z</time>
      </trkpt>
      <trkpt lat="42.78559" lon="2.87532">
        <ele>26.2</ele>
        <time>2021-03-28T06:17:32Z</time>
      </trkpt>
      <trkpt lat="42.78559" lon="2.87532">
        <ele>26.2</ele>
        <time>2021-03-28T06:17:32Z</time>
      </trkpt>
      <trkpt lat="42.78568" lon="2.87533">
        <ele>26.6</ele>
        <time>2021-03-28T06:17:34Z</time>
      </trkpt>
      <trkpt lat="42.78568" lon="2.87533">
        <ele>26.6</ele>
        <time>2021-03-28T06:17:34Z</time>
      </trkpt>
      <trkpt lat="42.78576" lon="2.87534">
        <ele>26.8</ele>
        <time>2021-03-28T06:17:35Z</time>
      </trkpt>
      <trkpt lat="42.78576" lon="2.87534">
        <ele>26.8</ele>
        <time>2021-03-28T06:17:35Z</time>
      </trkpt>
      <trkpt lat="42.78586" lon="2.87534">
        <ele>27</ele>
        <time>2021-03-28T06:17:37Z</time>
      </trkpt>
      <trkpt lat="42.78586" lon="2.87534">
        <ele>27</ele>
        <time>2021-03-28T06:17:37Z</time>
      </trkpt>
      <trkpt lat="42.78594" lon="2.87534">
        <ele>27</ele>
        <time>2021-03-28T06:17:38Z</time>
      </trkpt>
      <trkpt lat="42.78594" lon="2.87534">
        <ele>27</ele>
        <time>2021-03-28T06:17:38Z</time>
      </trkpt>
      <trkpt lat="42.78603" lon="2.87535">
        <ele>27</ele>
        <time>2021-03-28T06:17:40Z</time>
      </trkpt>
      <trkpt lat="42.78603" lon="2.87535">
        <ele>27</ele>
        <time>2021-03-28T06:17:40Z</time>
      </trkpt>
      <trkpt lat="42.78613" lon="2.87535">
        <ele>27</ele>
        <time>2021-03-28T06:17:42Z</time>
      </trkpt>
      <trkpt lat="42.78613" lon="2.87535">
        <ele>27</ele>
        <time>2021-03-28T06:17:42Z</time>
      </trkpt>
      <trkpt lat="42.78623" lon="2.87535">
        <ele>27</ele>
        <time>2021-03-28T06:17:44Z</time>
      </trkpt>
      <trkpt lat="42.78623" lon="2.87535">
        <ele>27</ele>
        <time>2021-03-28T06:17:44Z</time>
      </trkpt>
      <trkpt lat="42.78631" lon="2.87536">
        <ele>27</ele>
        <time>2021-03-28T06:17:45Z</time>
      </trkpt>
      <trkpt lat="42.78631" lon="2.87536">
        <ele>27</ele>
        <time>2021-03-28T06:17:45Z</time>
      </trkpt>
      <trkpt lat="42.78638" lon="2.87536">
        <ele>27</ele>
        <time>2021-03-28T06:17:46Z</time>
      </trkpt>
      <trkpt lat="42.78638" lon="2.87536">
        <ele>27</ele>
        <time>2021-03-28T06:17:46Z</time>
      </trkpt>
      <trkpt lat="42.78645" lon="2.87537">
        <ele>27</ele>
        <time>2021-03-28T06:17:47Z</time>
      </trkpt>
      <trkpt lat="42.78645" lon="2.87537">
        <ele>27</ele>
        <time>2021-03-28T06:17:47Z</time>
      </trkpt>
      <trkpt lat="42.7865" lon="2.87538">
        <ele>27</ele>
        <time>2021-03-28T06:17:48Z</time>
      </trkpt>
      <trkpt lat="42.7865" lon="2.87538">
        <ele>27</ele>
        <time>2021-03-28T06:17:48Z</time>
      </trkpt>
      <trkpt lat="42.78658" lon="2.87538">
        <ele>27</ele>
        <time>2021-03-28T06:17:50Z</time>
      </trkpt>
      <trkpt lat="42.78658" lon="2.87538">
        <ele>27</ele>
        <time>2021-03-28T06:17:50Z</time>
      </trkpt>
      <trkpt lat="42.78665" lon="2.87539">
        <ele>27</ele>
        <time>2021-03-28T06:17:51Z</time>
      </trkpt>
      <trkpt lat="42.78665" lon="2.87539">
        <ele>27</ele>
        <time>2021-03-28T06:17:51Z</time>
      </trkpt>
      <trkpt lat="42.78673" lon="2.8754">
        <ele>27</ele>
        <time>2021-03-28T06:17:53Z</time>
      </trkpt>
      <trkpt lat="42.78673" lon="2.8754">
        <ele>27</ele>
        <time>2021-03-28T06:17:53Z</time>
      </trkpt>
      <trkpt lat="42.78682" lon="2.8754">
        <ele>27</ele>
        <time>2021-03-28T06:17:55Z</time>
      </trkpt>
      <trkpt lat="42.78682" lon="2.8754">
        <ele>27</ele>
        <time>2021-03-28T06:17:55Z</time>
      </trkpt>
      <trkpt lat="42.78691" lon="2.87541">
        <ele>27</ele>
        <time>2021-03-28T06:17:57Z</time>
      </trkpt>
      <trkpt lat="42.78691" lon="2.87541">
        <ele>27</ele>
        <time>2021-03-28T06:17:57Z</time>
      </trkpt>
      <trkpt lat="42.78701" lon="2.87541">
        <ele>27</ele>
        <time>2021-03-28T06:17:59Z</time>
      </trkpt>
      <trkpt lat="42.78701" lon="2.87541">
        <ele>27</ele>
        <time>2021-03-28T06:17:59Z</time>
      </trkpt>
      <trkpt lat="42.7871" lon="2.87542">
        <ele>27</ele>
        <time>2021-03-28T06:18:01Z</time>
      </trkpt>
      <trkpt lat="42.7871" lon="2.87542">
        <ele>27</ele>
        <time>2021-03-28T06:18:01Z</time>
      </trkpt>
      <trkpt lat="42.78718" lon="2.87542">
        <ele>27</ele>
        <time>2021-03-28T06:18:02Z</time>
      </trkpt>
      <trkpt lat="42.78718" lon="2.87542">
        <ele>27</ele>
        <time>2021-03-28T06:18:02Z</time>
      </trkpt>
      <trkpt lat="42.78727" lon="2.87543">
        <ele>27</ele>
        <time>2021-03-28T06:18:04Z</time>
      </trkpt>
      <trkpt lat="42.78727" lon="2.87543">
        <ele>27</ele>
        <time>2021-03-28T06:18:04Z</time>
      </trkpt>
      <trkpt lat="42.78734" lon="2.87543">
        <ele>27</ele>
        <time>2021-03-28T06:18:05Z</time>
      </trkpt>
      <trkpt lat="42.78734" lon="2.87543">
        <ele>27</ele>
        <time>2021-03-28T06:18:05Z</time>
      </trkpt>
      <trkpt lat="42.78743" lon="2.87543">
        <ele>27</ele>
        <time>2021-03-28T06:18:07Z</time>
      </trkpt>
      <trkpt lat="42.78743" lon="2.87543">
        <ele>27</ele>
        <time>2021-03-28T06:18:07Z</time>
      </trkpt>
      <trkpt lat="42.7875" lon="2.87544">
        <ele>27</ele>
        <time>2021-03-28T06:18:08Z</time>
      </trkpt>
      <trkpt lat="42.7875" lon="2.87544">
        <ele>27</ele>
        <time>2021-03-28T06:18:08Z</time>
      </trkpt>
      <trkpt lat="42.78757" lon="2.87544">
        <ele>27</ele>
        <time>2021-03-28T06:18:09Z</time>
      </trkpt>
      <trkpt lat="42.78757" lon="2.87544">
        <ele>27</ele>
        <time>2021-03-28T06:18:09Z</time>
      </trkpt>
      <trkpt lat="42.78764" lon="2.87543">
        <ele>27</ele>
        <time>2021-03-28T06:18:11Z</time>
      </trkpt>
      <trkpt lat="42.78764" lon="2.87543">
        <ele>27</ele>
        <time>2021-03-28T06:18:11Z</time>
      </trkpt>
      <trkpt lat="42.78773" lon="2.87543">
        <ele>27</ele>
        <time>2021-03-28T06:18:13Z</time>
      </trkpt>
      <trkpt lat="42.78773" lon="2.87543">
        <ele>27</ele>
        <time>2021-03-28T06:18:13Z</time>
      </trkpt>
      <trkpt lat="42.7878" lon="2.87544">
        <ele>27</ele>
        <time>2021-03-28T06:18:14Z</time>
      </trkpt>
      <trkpt lat="42.7878" lon="2.87544">
        <ele>27</ele>
        <time>2021-03-28T06:18:14Z</time>
      </trkpt>
      <trkpt lat="42.78789" lon="2.87544">
        <ele>27</ele>
        <time>2021-03-28T06:18:16Z</time>
      </trkpt>
      <trkpt lat="42.78789" lon="2.87544">
        <ele>27</ele>
        <time>2021-03-28T06:18:16Z</time>
      </trkpt>
      <trkpt lat="42.78799" lon="2.87544">
        <ele>27</ele>
        <time>2021-03-28T06:18:18Z</time>
      </trkpt>
      <trkpt lat="42.78799" lon="2.87544">
        <ele>27</ele>
        <time>2021-03-28T06:18:18Z</time>
      </trkpt>
      <trkpt lat="42.78807" lon="2.87545">
        <ele>27</ele>
        <time>2021-03-28T06:18:19Z</time>
      </trkpt>
      <trkpt lat="42.78807" lon="2.87545">
        <ele>27</ele>
        <time>2021-03-28T06:18:19Z</time>
      </trkpt>
      <trkpt lat="42.78814" lon="2.87545">
        <ele>27</ele>
        <time>2021-03-28T06:18:20Z</time>
      </trkpt>
      <trkpt lat="42.78814" lon="2.87545">
        <ele>27</ele>
        <time>2021-03-28T06:18:20Z</time>
      </trkpt>
      <trkpt lat="42.78821" lon="2.87545">
        <ele>27</ele>
        <time>2021-03-28T06:18:22Z</time>
      </trkpt>
      <trkpt lat="42.78821" lon="2.87545">
        <ele>27</ele>
        <time>2021-03-28T06:18:22Z</time>
      </trkpt>
      <trkpt lat="42.78829" lon="2.87545">
        <ele>27</ele>
        <time>2021-03-28T06:18:24Z</time>
      </trkpt>
      <trkpt lat="42.78829" lon="2.87545">
        <ele>27</ele>
        <time>2021-03-28T06:18:24Z</time>
      </trkpt>
      <trkpt lat="42.78838" lon="2.87546">
        <ele>27</ele>
        <time>2021-03-28T06:18:26Z</time>
      </trkpt>
      <trkpt lat="42.78838" lon="2.87546">
        <ele>27</ele>
        <time>2021-03-28T06:18:26Z</time>
      </trkpt>
      <trkpt lat="42.78845" lon="2.87546">
        <ele>27</ele>
        <time>2021-03-28T06:18:27Z</time>
      </trkpt>
      <trkpt lat="42.78845" lon="2.87546">
        <ele>27</ele>
        <time>2021-03-28T06:18:27Z</time>
      </trkpt>
      <trkpt lat="42.78853" lon="2.87546">
        <ele>27</ele>
        <time>2021-03-28T06:18:29Z</time>
      </trkpt>
      <trkpt lat="42.78853" lon="2.87546">
        <ele>27</ele>
        <time>2021-03-28T06:18:29Z</time>
      </trkpt>
      <trkpt lat="42.7886" lon="2.87547">
        <ele>27</ele>
        <time>2021-03-28T06:18:30Z</time>
      </trkpt>
      <trkpt lat="42.7886" lon="2.87547">
        <ele>27</ele>
        <time>2021-03-28T06:18:30Z</time>
      </trkpt>
      <trkpt lat="42.78868" lon="2.87547">
        <ele>27.2</ele>
        <time>2021-03-28T06:18:32Z</time>
      </trkpt>
      <trkpt lat="42.78868" lon="2.87547">
        <ele>27.2</ele>
        <time>2021-03-28T06:18:32Z</time>
      </trkpt>
      <trkpt lat="42.78875" lon="2.87547">
        <ele>27.5</ele>
        <time>2021-03-28T06:18:33Z</time>
      </trkpt>
      <trkpt lat="42.78875" lon="2.87547">
        <ele>27.5</ele>
        <time>2021-03-28T06:18:33Z</time>
      </trkpt>
      <trkpt lat="42.78883" lon="2.87546">
        <ele>27.8</ele>
        <time>2021-03-28T06:18:35Z</time>
      </trkpt>
      <trkpt lat="42.78883" lon="2.87546">
        <ele>27.8</ele>
        <time>2021-03-28T06:18:35Z</time>
      </trkpt>
      <trkpt lat="42.78892" lon="2.87545">
        <ele>28</ele>
        <time>2021-03-28T06:18:37Z</time>
      </trkpt>
      <trkpt lat="42.78892" lon="2.87545">
        <ele>28</ele>
        <time>2021-03-28T06:18:37Z</time>
      </trkpt>
      <trkpt lat="42.789" lon="2.87544">
        <ele>28</ele>
        <time>2021-03-28T06:18:38Z</time>
      </trkpt>
      <trkpt lat="42.789" lon="2.87544">
        <ele>28</ele>
        <time>2021-03-28T06:18:38Z</time>
      </trkpt>
      <trkpt lat="42.78908" lon="2.87542">
        <ele>28</ele>
        <time>2021-03-28T06:18:40Z</time>
      </trkpt>
      <trkpt lat="42.78908" lon="2.87542">
        <ele>28</ele>
        <time>2021-03-28T06:18:40Z</time>
      </trkpt>
      <trkpt lat="42.78917" lon="2.8754">
        <ele>28</ele>
        <time>2021-03-28T06:18:42Z</time>
      </trkpt>
      <trkpt lat="42.78917" lon="2.8754">
        <ele>28</ele>
        <time>2021-03-28T06:18:42Z</time>
      </trkpt>
      <trkpt lat="42.78927" lon="2.87538">
        <ele>28</ele>
        <time>2021-03-28T06:18:44Z</time>
      </trkpt>
      <trkpt lat="42.78927" lon="2.87538">
        <ele>28</ele>
        <time>2021-03-28T06:18:44Z</time>
      </trkpt>
      <trkpt lat="42.78936" lon="2.87536">
        <ele>28</ele>
        <time>2021-03-28T06:18:46Z</time>
      </trkpt>
      <trkpt lat="42.78936" lon="2.87536">
        <ele>28</ele>
        <time>2021-03-28T06:18:46Z</time>
      </trkpt>
      <trkpt lat="42.78945" lon="2.87535">
        <ele>28</ele>
        <time>2021-03-28T06:18:47Z</time>
      </trkpt>
      <trkpt lat="42.78945" lon="2.87535">
        <ele>28</ele>
        <time>2021-03-28T06:18:47Z</time>
      </trkpt>
      <trkpt lat="42.78951" lon="2.87533">
        <ele>28</ele>
        <time>2021-03-28T06:18:48Z</time>
      </trkpt>
      <trkpt lat="42.78951" lon="2.87533">
        <ele>28</ele>
        <time>2021-03-28T06:18:48Z</time>
      </trkpt>
      <trkpt lat="42.78959" lon="2.87532">
        <ele>28</ele>
        <time>2021-03-28T06:18:50Z</time>
      </trkpt>
      <trkpt lat="42.78959" lon="2.87532">
        <ele>28</ele>
        <time>2021-03-28T06:18:50Z</time>
      </trkpt>
      <trkpt lat="42.78968" lon="2.87531">
        <ele>28</ele>
        <time>2021-03-28T06:18:52Z</time>
      </trkpt>
      <trkpt lat="42.78968" lon="2.87531">
        <ele>28</ele>
        <time>2021-03-28T06:18:52Z</time>
      </trkpt>
      <trkpt lat="42.78977" lon="2.8753">
        <ele>28</ele>
        <time>2021-03-28T06:18:54Z</time>
      </trkpt>
      <trkpt lat="42.78977" lon="2.8753">
        <ele>28</ele>
        <time>2021-03-28T06:18:54Z</time>
      </trkpt>
      <trkpt lat="42.78985" lon="2.87529">
        <ele>28</ele>
        <time>2021-03-28T06:18:55Z</time>
      </trkpt>
      <trkpt lat="42.78985" lon="2.87529">
        <ele>28</ele>
        <time>2021-03-28T06:18:55Z</time>
      </trkpt>
      <trkpt lat="42.78991" lon="2.87528">
        <ele>28</ele>
        <time>2021-03-28T06:18:56Z</time>
      </trkpt>
      <trkpt lat="42.78991" lon="2.87528">
        <ele>28</ele>
        <time>2021-03-28T06:18:56Z</time>
      </trkpt>
      <trkpt lat="42.78997" lon="2.87527">
        <ele>28</ele>
        <time>2021-03-28T06:18:57Z</time>
      </trkpt>
      <trkpt lat="42.78997" lon="2.87527">
        <ele>28</ele>
        <time>2021-03-28T06:18:57Z</time>
      </trkpt>
      <trkpt lat="42.79004" lon="2.87526">
        <ele>28</ele>
        <time>2021-03-28T06:18:59Z</time>
      </trkpt>
      <trkpt lat="42.79004" lon="2.87526">
        <ele>28</ele>
        <time>2021-03-28T06:18:59Z</time>
      </trkpt>
      <trkpt lat="42.79012" lon="2.87525">
        <ele>28</ele>
        <time>2021-03-28T06:19:01Z</time>
      </trkpt>
      <trkpt lat="42.79012" lon="2.87525">
        <ele>28</ele>
        <time>2021-03-28T06:19:01Z</time>
      </trkpt>
      <trkpt lat="42.79019" lon="2.87524">
        <ele>28</ele>
        <time>2021-03-28T06:19:02Z</time>
      </trkpt>
      <trkpt lat="42.79019" lon="2.87524">
        <ele>28</ele>
        <time>2021-03-28T06:19:02Z</time>
      </trkpt>
      <trkpt lat="42.79027" lon="2.87522">
        <ele>28</ele>
        <time>2021-03-28T06:19:04Z</time>
      </trkpt>
      <trkpt lat="42.79027" lon="2.87522">
        <ele>28</ele>
        <time>2021-03-28T06:19:04Z</time>
      </trkpt>
      <trkpt lat="42.79034" lon="2.87521">
        <ele>28.2</ele>
        <time>2021-03-28T06:19:05Z</time>
      </trkpt>
      <trkpt lat="42.79034" lon="2.87521">
        <ele>28.2</ele>
        <time>2021-03-28T06:19:05Z</time>
      </trkpt>
      <trkpt lat="42.79043" lon="2.8752">
        <ele>28.5</ele>
        <time>2021-03-28T06:19:07Z</time>
      </trkpt>
      <trkpt lat="42.79043" lon="2.8752">
        <ele>28.5</ele>
        <time>2021-03-28T06:19:07Z</time>
      </trkpt>
      <trkpt lat="42.7905" lon="2.87519">
        <ele>28.8</ele>
        <time>2021-03-28T06:19:08Z</time>
      </trkpt>
      <trkpt lat="42.7905" lon="2.87519">
        <ele>28.8</ele>
        <time>2021-03-28T06:19:08Z</time>
      </trkpt>
      <trkpt lat="42.79058" lon="2.87517">
        <ele>29</ele>
        <time>2021-03-28T06:19:10Z</time>
      </trkpt>
      <trkpt lat="42.79058" lon="2.87517">
        <ele>29</ele>
        <time>2021-03-28T06:19:10Z</time>
      </trkpt>
      <trkpt lat="42.79065" lon="2.87516">
        <ele>29</ele>
        <time>2021-03-28T06:19:11Z</time>
      </trkpt>
      <trkpt lat="42.79065" lon="2.87516">
        <ele>29</ele>
        <time>2021-03-28T06:19:11Z</time>
      </trkpt>
      <trkpt lat="42.79073" lon="2.87515">
        <ele>29</ele>
        <time>2021-03-28T06:19:13Z</time>
      </trkpt>
      <trkpt lat="42.79073" lon="2.87515">
        <ele>29</ele>
        <time>2021-03-28T06:19:13Z</time>
      </trkpt>
      <trkpt lat="42.79081" lon="2.87513">
        <ele>29</ele>
        <time>2021-03-28T06:19:15Z</time>
      </trkpt>
      <trkpt lat="42.79081" lon="2.87513">
        <ele>29</ele>
        <time>2021-03-28T06:19:15Z</time>
      </trkpt>
      <trkpt lat="42.7909" lon="2.87511">
        <ele>29</ele>
        <time>2021-03-28T06:19:17Z</time>
      </trkpt>
      <trkpt lat="42.7909" lon="2.87511">
        <ele>29</ele>
        <time>2021-03-28T06:19:17Z</time>
      </trkpt>
      <trkpt lat="42.79099" lon="2.8751">
        <ele>29</ele>
        <time>2021-03-28T06:19:19Z</time>
      </trkpt>
      <trkpt lat="42.79099" lon="2.8751">
        <ele>29</ele>
        <time>2021-03-28T06:19:19Z</time>
      </trkpt>
      <trkpt lat="42.79107" lon="2.87508">
        <ele>29</ele>
        <time>2021-03-28T06:19:20Z</time>
      </trkpt>
      <trkpt lat="42.79107" lon="2.87508">
        <ele>29</ele>
        <time>2021-03-28T06:19:20Z</time>
      </trkpt>
      <trkpt lat="42.79114" lon="2.87508">
        <ele>29.1</ele>
        <time>2021-03-28T06:19:21Z</time>
      </trkpt>
      <trkpt lat="42.79114" lon="2.87508">
        <ele>29.1</ele>
        <time>2021-03-28T06:19:21Z</time>
      </trkpt>
      <trkpt lat="42.79122" lon="2.87507">
        <ele>29.4</ele>
        <time>2021-03-28T06:19:23Z</time>
      </trkpt>
      <trkpt lat="42.79122" lon="2.87507">
        <ele>29.4</ele>
        <time>2021-03-28T06:19:23Z</time>
      </trkpt>
      <trkpt lat="42.79128" lon="2.87506">
        <ele>29.6</ele>
        <time>2021-03-28T06:19:24Z</time>
      </trkpt>
      <trkpt lat="42.79128" lon="2.87506">
        <ele>29.6</ele>
        <time>2021-03-28T06:19:24Z</time>
      </trkpt>
      <trkpt lat="42.79136" lon="2.87505">
        <ele>29.9</ele>
        <time>2021-03-28T06:19:26Z</time>
      </trkpt>
      <trkpt lat="42.79136" lon="2.87505">
        <ele>29.9</ele>
        <time>2021-03-28T06:19:26Z</time>
      </trkpt>
      <trkpt lat="42.79143" lon="2.87505">
        <ele>30</ele>
        <time>2021-03-28T06:19:27Z</time>
      </trkpt>
      <trkpt lat="42.79143" lon="2.87505">
        <ele>30</ele>
        <time>2021-03-28T06:19:27Z</time>
      </trkpt>
      <trkpt lat="42.79151" lon="2.87505">
        <ele>29.9</ele>
        <time>2021-03-28T06:19:29Z</time>
      </trkpt>
      <trkpt lat="42.79151" lon="2.87505">
        <ele>29.9</ele>
        <time>2021-03-28T06:19:29Z</time>
      </trkpt>
      <trkpt lat="42.79159" lon="2.87506">
        <ele>29.8</ele>
        <time>2021-03-28T06:19:31Z</time>
      </trkpt>
      <trkpt lat="42.79159" lon="2.87506">
        <ele>29.8</ele>
        <time>2021-03-28T06:19:31Z</time>
      </trkpt>
      <trkpt lat="42.79166" lon="2.87507">
        <ele>29.8</ele>
        <time>2021-03-28T06:19:32Z</time>
      </trkpt>
      <trkpt lat="42.79166" lon="2.87507">
        <ele>29.8</ele>
        <time>2021-03-28T06:19:32Z</time>
      </trkpt>
      <trkpt lat="42.79174" lon="2.87508">
        <ele>29.8</ele>
        <time>2021-03-28T06:19:34Z</time>
      </trkpt>
      <trkpt lat="42.79174" lon="2.87508">
        <ele>29.8</ele>
        <time>2021-03-28T06:19:34Z</time>
      </trkpt>
      <trkpt lat="42.79181" lon="2.87508">
        <ele>29.9</ele>
        <time>2021-03-28T06:19:35Z</time>
      </trkpt>
      <trkpt lat="42.79181" lon="2.87508">
        <ele>29.9</ele>
        <time>2021-03-28T06:19:35Z</time>
      </trkpt>
      <trkpt lat="42.79189" lon="2.8751">
        <ele>29.9</ele>
        <time>2021-03-28T06:19:37Z</time>
      </trkpt>
      <trkpt lat="42.79189" lon="2.8751">
        <ele>29.9</ele>
        <time>2021-03-28T06:19:37Z</time>
      </trkpt>
      <trkpt lat="42.79198" lon="2.87511">
        <ele>30</ele>
        <time>2021-03-28T06:19:39Z</time>
      </trkpt>
      <trkpt lat="42.79198" lon="2.87511">
        <ele>30</ele>
        <time>2021-03-28T06:19:39Z</time>
      </trkpt>
      <trkpt lat="42.79206" lon="2.87513">
        <ele>30</ele>
        <time>2021-03-28T06:19:41Z</time>
      </trkpt>
      <trkpt lat="42.79206" lon="2.87513">
        <ele>30</ele>
        <time>2021-03-28T06:19:41Z</time>
      </trkpt>
      <trkpt lat="42.79215" lon="2.87516">
        <ele>30</ele>
        <time>2021-03-28T06:19:43Z</time>
      </trkpt>
      <trkpt lat="42.79215" lon="2.87516">
        <ele>30</ele>
        <time>2021-03-28T06:19:43Z</time>
      </trkpt>
      <trkpt lat="42.79222" lon="2.87517">
        <ele>30</ele>
        <time>2021-03-28T06:19:44Z</time>
      </trkpt>
      <trkpt lat="42.79222" lon="2.87517">
        <ele>30</ele>
        <time>2021-03-28T06:19:44Z</time>
      </trkpt>
      <trkpt lat="42.7923" lon="2.87519">
        <ele>30</ele>
        <time>2021-03-28T06:19:46Z</time>
      </trkpt>
      <trkpt lat="42.7923" lon="2.87519">
        <ele>30</ele>
        <time>2021-03-28T06:19:46Z</time>
      </trkpt>
      <trkpt lat="42.79238" lon="2.87521">
        <ele>30</ele>
        <time>2021-03-28T06:19:47Z</time>
      </trkpt>
      <trkpt lat="42.79238" lon="2.87521">
        <ele>30</ele>
        <time>2021-03-28T06:19:47Z</time>
      </trkpt>
      <trkpt lat="42.79246" lon="2.87522">
        <ele>30</ele>
        <time>2021-03-28T06:19:49Z</time>
      </trkpt>
      <trkpt lat="42.79246" lon="2.87522">
        <ele>30</ele>
        <time>2021-03-28T06:19:49Z</time>
      </trkpt>
      <trkpt lat="42.79252" lon="2.87524">
        <ele>30</ele>
        <time>2021-03-28T06:19:50Z</time>
      </trkpt>
      <trkpt lat="42.79252" lon="2.87524">
        <ele>30</ele>
        <time>2021-03-28T06:19:50Z</time>
      </trkpt>
      <trkpt lat="42.7926" lon="2.87525">
        <ele>30</ele>
        <time>2021-03-28T06:19:52Z</time>
      </trkpt>
      <trkpt lat="42.7926" lon="2.87525">
        <ele>30</ele>
        <time>2021-03-28T06:19:52Z</time>
      </trkpt>
      <trkpt lat="42.79269" lon="2.87527">
        <ele>30</ele>
        <time>2021-03-28T06:19:54Z</time>
      </trkpt>
      <trkpt lat="42.79269" lon="2.87527">
        <ele>30</ele>
        <time>2021-03-28T06:19:54Z</time>
      </trkpt>
      <trkpt lat="42.79276" lon="2.87528">
        <ele>30</ele>
        <time>2021-03-28T06:19:55Z</time>
      </trkpt>
      <trkpt lat="42.79276" lon="2.87528">
        <ele>30</ele>
        <time>2021-03-28T06:19:55Z</time>
      </trkpt>
      <trkpt lat="42.79282" lon="2.87529">
        <ele>30.2</ele>
        <time>2021-03-28T06:19:56Z</time>
      </trkpt>
      <trkpt lat="42.79282" lon="2.87529">
        <ele>30.2</ele>
        <time>2021-03-28T06:19:56Z</time>
      </trkpt>
      <trkpt lat="42.7929" lon="2.8753">
        <ele>30.5</ele>
        <time>2021-03-28T06:19:58Z</time>
      </trkpt>
      <trkpt lat="42.7929" lon="2.8753">
        <ele>30.5</ele>
        <time>2021-03-28T06:19:58Z</time>
      </trkpt>
      <trkpt lat="42.79296" lon="2.87532">
        <ele>30.7</ele>
        <time>2021-03-28T06:19:59Z</time>
      </trkpt>
      <trkpt lat="42.79296" lon="2.87532">
        <ele>30.7</ele>
        <time>2021-03-28T06:19:59Z</time>
      </trkpt>
      <trkpt lat="42.79303" lon="2.87533">
        <ele>30.9</ele>
        <time>2021-03-28T06:20:01Z</time>
      </trkpt>
      <trkpt lat="42.79303" lon="2.87533">
        <ele>30.9</ele>
        <time>2021-03-28T06:20:01Z</time>
      </trkpt>
      <trkpt lat="42.7931" lon="2.87534">
        <ele>31</ele>
        <time>2021-03-28T06:20:02Z</time>
      </trkpt>
      <trkpt lat="42.7931" lon="2.87534">
        <ele>31</ele>
        <time>2021-03-28T06:20:02Z</time>
      </trkpt>
      <trkpt lat="42.79317" lon="2.87536">
        <ele>31</ele>
        <time>2021-03-28T06:20:04Z</time>
      </trkpt>
      <trkpt lat="42.79317" lon="2.87536">
        <ele>31</ele>
        <time>2021-03-28T06:20:04Z</time>
      </trkpt>
      <trkpt lat="42.79326" lon="2.87538">
        <ele>31</ele>
        <time>2021-03-28T06:20:06Z</time>
      </trkpt>
      <trkpt lat="42.79326" lon="2.87538">
        <ele>31</ele>
        <time>2021-03-28T06:20:06Z</time>
      </trkpt>
      <trkpt lat="42.79334" lon="2.87539">
        <ele>31</ele>
        <time>2021-03-28T06:20:07Z</time>
      </trkpt>
      <trkpt lat="42.79334" lon="2.87539">
        <ele>31</ele>
        <time>2021-03-28T06:20:07Z</time>
      </trkpt>
      <trkpt lat="42.79341" lon="2.8754">
        <ele>31</ele>
        <time>2021-03-28T06:20:08Z</time>
      </trkpt>
      <trkpt lat="42.79341" lon="2.8754">
        <ele>31</ele>
        <time>2021-03-28T06:20:08Z</time>
      </trkpt>
      <trkpt lat="42.79349" lon="2.87541">
        <ele>31</ele>
        <time>2021-03-28T06:20:10Z</time>
      </trkpt>
      <trkpt lat="42.79349" lon="2.87541">
        <ele>31</ele>
        <time>2021-03-28T06:20:10Z</time>
      </trkpt>
      <trkpt lat="42.79357" lon="2.87542">
        <ele>31</ele>
        <time>2021-03-28T06:20:12Z</time>
      </trkpt>
      <trkpt lat="42.79357" lon="2.87542">
        <ele>31</ele>
        <time>2021-03-28T06:20:12Z</time>
      </trkpt>
      <trkpt lat="42.79366" lon="2.87544">
        <ele>31.1</ele>
        <time>2021-03-28T06:20:14Z</time>
      </trkpt>
      <trkpt lat="42.79366" lon="2.87544">
        <ele>31.1</ele>
        <time>2021-03-28T06:20:14Z</time>
      </trkpt>
      <trkpt lat="42.79374" lon="2.87546">
        <ele>31.3</ele>
        <time>2021-03-28T06:20:16Z</time>
      </trkpt>
      <trkpt lat="42.79374" lon="2.87546">
        <ele>31.3</ele>
        <time>2021-03-28T06:20:16Z</time>
      </trkpt>
      <trkpt lat="42.79382" lon="2.87548">
        <ele>31.6</ele>
        <time>2021-03-28T06:20:18Z</time>
      </trkpt>
      <trkpt lat="42.79382" lon="2.87548">
        <ele>31.6</ele>
        <time>2021-03-28T06:20:18Z</time>
      </trkpt>
      <trkpt lat="42.79391" lon="2.8755">
        <ele>31.8</ele>
        <time>2021-03-28T06:20:20Z</time>
      </trkpt>
      <trkpt lat="42.79391" lon="2.8755">
        <ele>31.8</ele>
        <time>2021-03-28T06:20:20Z</time>
      </trkpt>
      <trkpt lat="42.79399" lon="2.87553">
        <ele>31.9</ele>
        <time>2021-03-28T06:20:22Z</time>
      </trkpt>
      <trkpt lat="42.79399" lon="2.87553">
        <ele>31.9</ele>
        <time>2021-03-28T06:20:22Z</time>
      </trkpt>
      <trkpt lat="42.79406" lon="2.87557">
        <ele>32</ele>
        <time>2021-03-28T06:20:23Z</time>
      </trkpt>
      <trkpt lat="42.79406" lon="2.87557">
        <ele>32</ele>
        <time>2021-03-28T06:20:23Z</time>
      </trkpt>
      <trkpt lat="42.79412" lon="2.87562">
        <ele>32</ele>
        <time>2021-03-28T06:20:25Z</time>
      </trkpt>
      <trkpt lat="42.79412" lon="2.87562">
        <ele>32</ele>
        <time>2021-03-28T06:20:25Z</time>
      </trkpt>
      <trkpt lat="42.79418" lon="2.87569">
        <ele>32</ele>
        <time>2021-03-28T06:20:27Z</time>
      </trkpt>
      <trkpt lat="42.79418" lon="2.87569">
        <ele>32</ele>
        <time>2021-03-28T06:20:27Z</time>
      </trkpt>
      <trkpt lat="42.79424" lon="2.87576">
        <ele>32.1</ele>
        <time>2021-03-28T06:20:29Z</time>
      </trkpt>
      <trkpt lat="42.79424" lon="2.87576">
        <ele>32.1</ele>
        <time>2021-03-28T06:20:29Z</time>
      </trkpt>
      <trkpt lat="42.79431" lon="2.87581">
        <ele>32</ele>
        <time>2021-03-28T06:20:31Z</time>
      </trkpt>
      <trkpt lat="42.79431" lon="2.87581">
        <ele>32</ele>
        <time>2021-03-28T06:20:31Z</time>
      </trkpt>
      <trkpt lat="42.79438" lon="2.87584">
        <ele>32</ele>
        <time>2021-03-28T06:20:32Z</time>
      </trkpt>
      <trkpt lat="42.79438" lon="2.87584">
        <ele>32</ele>
        <time>2021-03-28T06:20:32Z</time>
      </trkpt>
      <trkpt lat="42.79445" lon="2.87584">
        <ele>32</ele>
        <time>2021-03-28T06:20:34Z</time>
      </trkpt>
      <trkpt lat="42.79445" lon="2.87584">
        <ele>32</ele>
        <time>2021-03-28T06:20:34Z</time>
      </trkpt>
      <trkpt lat="42.79451" lon="2.87583">
        <ele>32</ele>
        <time>2021-03-28T06:20:35Z</time>
      </trkpt>
      <trkpt lat="42.79451" lon="2.87583">
        <ele>32</ele>
        <time>2021-03-28T06:20:35Z</time>
      </trkpt>
      <trkpt lat="42.79457" lon="2.87579">
        <ele>32.1</ele>
        <time>2021-03-28T06:20:37Z</time>
      </trkpt>
      <trkpt lat="42.79457" lon="2.87579">
        <ele>32.1</ele>
        <time>2021-03-28T06:20:37Z</time>
      </trkpt>
      <trkpt lat="42.79463" lon="2.87576">
        <ele>32.1</ele>
        <time>2021-03-28T06:20:38Z</time>
      </trkpt>
      <trkpt lat="42.79463" lon="2.87576">
        <ele>32.1</ele>
        <time>2021-03-28T06:20:38Z</time>
      </trkpt>
      <trkpt lat="42.7947" lon="2.87574">
        <ele>32</ele>
        <time>2021-03-28T06:20:40Z</time>
      </trkpt>
      <trkpt lat="42.7947" lon="2.87574">
        <ele>32</ele>
        <time>2021-03-28T06:20:40Z</time>
      </trkpt>
      <trkpt lat="42.79478" lon="2.87574">
        <ele>32</ele>
        <time>2021-03-28T06:20:42Z</time>
      </trkpt>
      <trkpt lat="42.79478" lon="2.87574">
        <ele>32</ele>
        <time>2021-03-28T06:20:42Z</time>
      </trkpt>
      <trkpt lat="42.79484" lon="2.87574">
        <ele>32</ele>
        <time>2021-03-28T06:20:43Z</time>
      </trkpt>
      <trkpt lat="42.79484" lon="2.87574">
        <ele>32</ele>
        <time>2021-03-28T06:20:43Z</time>
      </trkpt>
      <trkpt lat="42.79492" lon="2.87576">
        <ele>32</ele>
        <time>2021-03-28T06:20:45Z</time>
      </trkpt>
      <trkpt lat="42.79492" lon="2.87576">
        <ele>32</ele>
        <time>2021-03-28T06:20:45Z</time>
      </trkpt>
      <trkpt lat="42.795" lon="2.87578">
        <ele>32</ele>
        <time>2021-03-28T06:20:47Z</time>
      </trkpt>
      <trkpt lat="42.795" lon="2.87578">
        <ele>32</ele>
        <time>2021-03-28T06:20:47Z</time>
      </trkpt>
      <trkpt lat="42.79508" lon="2.87582">
        <ele>32</ele>
        <time>2021-03-28T06:20:49Z</time>
      </trkpt>
      <trkpt lat="42.79508" lon="2.87582">
        <ele>32</ele>
        <time>2021-03-28T06:20:49Z</time>
      </trkpt>
      <trkpt lat="42.79517" lon="2.87585">
        <ele>32</ele>
        <time>2021-03-28T06:20:51Z</time>
      </trkpt>
      <trkpt lat="42.79517" lon="2.87585">
        <ele>32</ele>
        <time>2021-03-28T06:20:51Z</time>
      </trkpt>
      <trkpt lat="42.79524" lon="2.87588">
        <ele>32.1</ele>
        <time>2021-03-28T06:20:52Z</time>
      </trkpt>
      <trkpt lat="42.79524" lon="2.87588">
        <ele>32.1</ele>
        <time>2021-03-28T06:20:52Z</time>
      </trkpt>
      <trkpt lat="42.7953" lon="2.87591">
        <ele>32.3</ele>
        <time>2021-03-28T06:20:53Z</time>
      </trkpt>
      <trkpt lat="42.7953" lon="2.87591">
        <ele>32.3</ele>
        <time>2021-03-28T06:20:53Z</time>
      </trkpt>
      <trkpt lat="42.79537" lon="2.87595">
        <ele>32.6</ele>
        <time>2021-03-28T06:20:55Z</time>
      </trkpt>
      <trkpt lat="42.79537" lon="2.87595">
        <ele>32.6</ele>
        <time>2021-03-28T06:20:55Z</time>
      </trkpt>
      <trkpt lat="42.79545" lon="2.87598">
        <ele>32.8</ele>
        <time>2021-03-28T06:20:57Z</time>
      </trkpt>
      <trkpt lat="42.79545" lon="2.87598">
        <ele>32.8</ele>
        <time>2021-03-28T06:20:57Z</time>
      </trkpt>
      <trkpt lat="42.79552" lon="2.876">
        <ele>32.9</ele>
        <time>2021-03-28T06:20:58Z</time>
      </trkpt>
      <trkpt lat="42.79552" lon="2.876">
        <ele>32.9</ele>
        <time>2021-03-28T06:20:58Z</time>
      </trkpt>
      <trkpt lat="42.7956" lon="2.87603">
        <ele>33</ele>
        <time>2021-03-28T06:21:00Z</time>
      </trkpt>
      <trkpt lat="42.7956" lon="2.87603">
        <ele>33</ele>
        <time>2021-03-28T06:21:00Z</time>
      </trkpt>
      <trkpt lat="42.79568" lon="2.87605">
        <ele>33.1</ele>
        <time>2021-03-28T06:21:02Z</time>
      </trkpt>
      <trkpt lat="42.79568" lon="2.87605">
        <ele>33.1</ele>
        <time>2021-03-28T06:21:02Z</time>
      </trkpt>
      <trkpt lat="42.79576" lon="2.87608">
        <ele>33.1</ele>
        <time>2021-03-28T06:21:03Z</time>
      </trkpt>
      <trkpt lat="42.79576" lon="2.87608">
        <ele>33.1</ele>
        <time>2021-03-28T06:21:03Z</time>
      </trkpt>
      <trkpt lat="42.79584" lon="2.8761">
        <ele>33</ele>
        <time>2021-03-28T06:21:05Z</time>
      </trkpt>
      <trkpt lat="42.79584" lon="2.8761">
        <ele>33</ele>
        <time>2021-03-28T06:21:05Z</time>
      </trkpt>
      <trkpt lat="42.79591" lon="2.87612">
        <ele>33</ele>
        <time>2021-03-28T06:21:06Z</time>
      </trkpt>
      <trkpt lat="42.79591" lon="2.87612">
        <ele>33</ele>
        <time>2021-03-28T06:21:06Z</time>
      </trkpt>
      <trkpt lat="42.79598" lon="2.87614">
        <ele>33</ele>
        <time>2021-03-28T06:21:07Z</time>
      </trkpt>
      <trkpt lat="42.79598" lon="2.87614">
        <ele>33</ele>
        <time>2021-03-28T06:21:07Z</time>
      </trkpt>
      <trkpt lat="42.79603" lon="2.87615">
        <ele>33</ele>
        <time>2021-03-28T06:21:08Z</time>
      </trkpt>
      <trkpt lat="42.79603" lon="2.87615">
        <ele>33</ele>
        <time>2021-03-28T06:21:08Z</time>
      </trkpt>
      <trkpt lat="42.7961" lon="2.87617">
        <ele>33</ele>
        <time>2021-03-28T06:21:10Z</time>
      </trkpt>
      <trkpt lat="42.7961" lon="2.87617">
        <ele>33</ele>
        <time>2021-03-28T06:21:10Z</time>
      </trkpt>
      <trkpt lat="42.79618" lon="2.8762">
        <ele>33</ele>
        <time>2021-03-28T06:21:12Z</time>
      </trkpt>
      <trkpt lat="42.79618" lon="2.8762">
        <ele>33</ele>
        <time>2021-03-28T06:21:12Z</time>
      </trkpt>
      <trkpt lat="42.79626" lon="2.87624">
        <ele>33</ele>
        <time>2021-03-28T06:21:14Z</time>
      </trkpt>
      <trkpt lat="42.79626" lon="2.87624">
        <ele>33</ele>
        <time>2021-03-28T06:21:14Z</time>
      </trkpt>
      <trkpt lat="42.79634" lon="2.87626">
        <ele>33</ele>
        <time>2021-03-28T06:21:15Z</time>
      </trkpt>
      <trkpt lat="42.79634" lon="2.87626">
        <ele>33</ele>
        <time>2021-03-28T06:21:15Z</time>
      </trkpt>
      <trkpt lat="42.79641" lon="2.87629">
        <ele>33</ele>
        <time>2021-03-28T06:21:16Z</time>
      </trkpt>
      <trkpt lat="42.79641" lon="2.87629">
        <ele>33</ele>
        <time>2021-03-28T06:21:16Z</time>
      </trkpt>
      <trkpt lat="42.79649" lon="2.87631">
        <ele>33.1</ele>
        <time>2021-03-28T06:21:18Z</time>
      </trkpt>
      <trkpt lat="42.79649" lon="2.87631">
        <ele>33.1</ele>
        <time>2021-03-28T06:21:18Z</time>
      </trkpt>
      <trkpt lat="42.79655" lon="2.87634">
        <ele>33.1</ele>
        <time>2021-03-28T06:21:19Z</time>
      </trkpt>
      <trkpt lat="42.79655" lon="2.87634">
        <ele>33.1</ele>
        <time>2021-03-28T06:21:19Z</time>
      </trkpt>
      <trkpt lat="42.79663" lon="2.87637">
        <ele>33.1</ele>
        <time>2021-03-28T06:21:21Z</time>
      </trkpt>
      <trkpt lat="42.79663" lon="2.87637">
        <ele>33.1</ele>
        <time>2021-03-28T06:21:21Z</time>
      </trkpt>
      <trkpt lat="42.79671" lon="2.87639">
        <ele>33</ele>
        <time>2021-03-28T06:21:23Z</time>
      </trkpt>
      <trkpt lat="42.79671" lon="2.87639">
        <ele>33</ele>
        <time>2021-03-28T06:21:23Z</time>
      </trkpt>
      <trkpt lat="42.79677" lon="2.87641">
        <ele>33.1</ele>
        <time>2021-03-28T06:21:24Z</time>
      </trkpt>
      <trkpt lat="42.79677" lon="2.87641">
        <ele>33.1</ele>
        <time>2021-03-28T06:21:24Z</time>
      </trkpt>
      <trkpt lat="42.79684" lon="2.87644">
        <ele>33.2</ele>
        <time>2021-03-28T06:21:26Z</time>
      </trkpt>
      <trkpt lat="42.79684" lon="2.87644">
        <ele>33.2</ele>
        <time>2021-03-28T06:21:26Z</time>
      </trkpt>
      <trkpt lat="42.7969" lon="2.87646">
        <ele>33.3</ele>
        <time>2021-03-28T06:21:27Z</time>
      </trkpt>
      <trkpt lat="42.7969" lon="2.87646">
        <ele>33.3</ele>
        <time>2021-03-28T06:21:27Z</time>
      </trkpt>
      <trkpt lat="42.79697" lon="2.87649">
        <ele>33.4</ele>
        <time>2021-03-28T06:21:29Z</time>
      </trkpt>
      <trkpt lat="42.79697" lon="2.87649">
        <ele>33.4</ele>
        <time>2021-03-28T06:21:29Z</time>
      </trkpt>
      <trkpt lat="42.79703" lon="2.87652">
        <ele>33.6</ele>
        <time>2021-03-28T06:21:31Z</time>
      </trkpt>
      <trkpt lat="42.79703" lon="2.87652">
        <ele>33.6</ele>
        <time>2021-03-28T06:21:31Z</time>
      </trkpt>
      <trkpt lat="42.79709" lon="2.87655">
        <ele>33.8</ele>
        <time>2021-03-28T06:21:32Z</time>
      </trkpt>
      <trkpt lat="42.79709" lon="2.87655">
        <ele>33.8</ele>
        <time>2021-03-28T06:21:32Z</time>
      </trkpt>
      <trkpt lat="42.79716" lon="2.87658">
        <ele>33.9</ele>
        <time>2021-03-28T06:21:34Z</time>
      </trkpt>
      <trkpt lat="42.79716" lon="2.87658">
        <ele>33.9</ele>
        <time>2021-03-28T06:21:34Z</time>
      </trkpt>
      <trkpt lat="42.79721" lon="2.87661">
        <ele>34</ele>
        <time>2021-03-28T06:21:35Z</time>
      </trkpt>
      <trkpt lat="42.79721" lon="2.87661">
        <ele>34</ele>
        <time>2021-03-28T06:21:35Z</time>
      </trkpt>
      <trkpt lat="42.79728" lon="2.87665">
        <ele>34</ele>
        <time>2021-03-28T06:21:37Z</time>
      </trkpt>
      <trkpt lat="42.79728" lon="2.87665">
        <ele>34</ele>
        <time>2021-03-28T06:21:37Z</time>
      </trkpt>
      <trkpt lat="42.79735" lon="2.87668">
        <ele>34</ele>
        <time>2021-03-28T06:21:39Z</time>
      </trkpt>
      <trkpt lat="42.79735" lon="2.87668">
        <ele>34</ele>
        <time>2021-03-28T06:21:39Z</time>
      </trkpt>
      <trkpt lat="42.79744" lon="2.87672">
        <ele>34</ele>
        <time>2021-03-28T06:21:41Z</time>
      </trkpt>
      <trkpt lat="42.79744" lon="2.87672">
        <ele>34</ele>
        <time>2021-03-28T06:21:41Z</time>
      </trkpt>
      <trkpt lat="42.79752" lon="2.87675">
        <ele>34</ele>
        <time>2021-03-28T06:21:43Z</time>
      </trkpt>
      <trkpt lat="42.79752" lon="2.87675">
        <ele>34</ele>
        <time>2021-03-28T06:21:43Z</time>
      </trkpt>
      <trkpt lat="42.79761" lon="2.87679">
        <ele>34</ele>
        <time>2021-03-28T06:21:45Z</time>
      </trkpt>
      <trkpt lat="42.79761" lon="2.87679">
        <ele>34</ele>
        <time>2021-03-28T06:21:45Z</time>
      </trkpt>
      <trkpt lat="42.79769" lon="2.87683">
        <ele>34</ele>
        <time>2021-03-28T06:21:47Z</time>
      </trkpt>
      <trkpt lat="42.79769" lon="2.87683">
        <ele>34</ele>
        <time>2021-03-28T06:21:47Z</time>
      </trkpt>
      <trkpt lat="42.79778" lon="2.87687">
        <ele>34</ele>
        <time>2021-03-28T06:21:49Z</time>
      </trkpt>
      <trkpt lat="42.79778" lon="2.87687">
        <ele>34</ele>
        <time>2021-03-28T06:21:49Z</time>
      </trkpt>
      <trkpt lat="42.79787" lon="2.8769">
        <ele>34.3</ele>
        <time>2021-03-28T06:21:51Z</time>
      </trkpt>
      <trkpt lat="42.79787" lon="2.8769">
        <ele>34.3</ele>
        <time>2021-03-28T06:21:51Z</time>
      </trkpt>
      <trkpt lat="42.79795" lon="2.87694">
        <ele>34.6</ele>
        <time>2021-03-28T06:21:53Z</time>
      </trkpt>
      <trkpt lat="42.79795" lon="2.87694">
        <ele>34.6</ele>
        <time>2021-03-28T06:21:53Z</time>
      </trkpt>
      <trkpt lat="42.79802" lon="2.87697">
        <ele>34.9</ele>
        <time>2021-03-28T06:21:54Z</time>
      </trkpt>
      <trkpt lat="42.79802" lon="2.87697">
        <ele>34.9</ele>
        <time>2021-03-28T06:21:54Z</time>
      </trkpt>
      <trkpt lat="42.7981" lon="2.877">
        <ele>35</ele>
        <time>2021-03-28T06:21:56Z</time>
      </trkpt>
      <trkpt lat="42.7981" lon="2.877">
        <ele>35</ele>
        <time>2021-03-28T06:21:56Z</time>
      </trkpt>
      <trkpt lat="42.79818" lon="2.87703">
        <ele>35</ele>
        <time>2021-03-28T06:21:58Z</time>
      </trkpt>
      <trkpt lat="42.79818" lon="2.87703">
        <ele>35</ele>
        <time>2021-03-28T06:21:58Z</time>
      </trkpt>
      <trkpt lat="42.79827" lon="2.87705">
        <ele>35</ele>
        <time>2021-03-28T06:22:00Z</time>
      </trkpt>
      <trkpt lat="42.79827" lon="2.87705">
        <ele>35</ele>
        <time>2021-03-28T06:22:00Z</time>
      </trkpt>
      <trkpt lat="42.79836" lon="2.87708">
        <ele>35</ele>
        <time>2021-03-28T06:22:02Z</time>
      </trkpt>
      <trkpt lat="42.79836" lon="2.87708">
        <ele>35</ele>
        <time>2021-03-28T06:22:02Z</time>
      </trkpt>
      <trkpt lat="42.79844" lon="2.87711">
        <ele>35</ele>
        <time>2021-03-28T06:22:03Z</time>
      </trkpt>
      <trkpt lat="42.79844" lon="2.87711">
        <ele>35</ele>
        <time>2021-03-28T06:22:03Z</time>
      </trkpt>
      <trkpt lat="42.79852" lon="2.87714">
        <ele>35</ele>
        <time>2021-03-28T06:22:05Z</time>
      </trkpt>
      <trkpt lat="42.79852" lon="2.87714">
        <ele>35</ele>
        <time>2021-03-28T06:22:05Z</time>
      </trkpt>
      <trkpt lat="42.79861" lon="2.87717">
        <ele>35</ele>
        <time>2021-03-28T06:22:07Z</time>
      </trkpt>
      <trkpt lat="42.79861" lon="2.87717">
        <ele>35</ele>
        <time>2021-03-28T06:22:07Z</time>
      </trkpt>
      <trkpt lat="42.79869" lon="2.8772">
        <ele>35</ele>
        <time>2021-03-28T06:22:08Z</time>
      </trkpt>
      <trkpt lat="42.79869" lon="2.8772">
        <ele>35</ele>
        <time>2021-03-28T06:22:08Z</time>
      </trkpt>
      <trkpt lat="42.79878" lon="2.87722">
        <ele>35</ele>
        <time>2021-03-28T06:22:10Z</time>
      </trkpt>
      <trkpt lat="42.79878" lon="2.87722">
        <ele>35</ele>
        <time>2021-03-28T06:22:10Z</time>
      </trkpt>
      <trkpt lat="42.79885" lon="2.87725">
        <ele>35</ele>
        <time>2021-03-28T06:22:11Z</time>
      </trkpt>
      <trkpt lat="42.79885" lon="2.87725">
        <ele>35</ele>
        <time>2021-03-28T06:22:11Z</time>
      </trkpt>
      <trkpt lat="42.79893" lon="2.87727">
        <ele>35</ele>
        <time>2021-03-28T06:22:13Z</time>
      </trkpt>
      <trkpt lat="42.79893" lon="2.87727">
        <ele>35</ele>
        <time>2021-03-28T06:22:13Z</time>
      </trkpt>
      <trkpt lat="42.79902" lon="2.87729">
        <ele>35.1</ele>
        <time>2021-03-28T06:22:15Z</time>
      </trkpt>
      <trkpt lat="42.79902" lon="2.87729">
        <ele>35.1</ele>
        <time>2021-03-28T06:22:15Z</time>
      </trkpt>
      <trkpt lat="42.7991" lon="2.8773">
        <ele>35.2</ele>
        <time>2021-03-28T06:22:16Z</time>
      </trkpt>
      <trkpt lat="42.7991" lon="2.8773">
        <ele>35.2</ele>
        <time>2021-03-28T06:22:16Z</time>
      </trkpt>
      <trkpt lat="42.79916" lon="2.87732">
        <ele>35.3</ele>
        <time>2021-03-28T06:22:17Z</time>
      </trkpt>
      <trkpt lat="42.79916" lon="2.87732">
        <ele>35.3</ele>
        <time>2021-03-28T06:22:17Z</time>
      </trkpt>
      <trkpt lat="42.79924" lon="2.87733">
        <ele>35.6</ele>
        <time>2021-03-28T06:22:19Z</time>
      </trkpt>
      <trkpt lat="42.79924" lon="2.87733">
        <ele>35.6</ele>
        <time>2021-03-28T06:22:19Z</time>
      </trkpt>
      <trkpt lat="42.79933" lon="2.87735">
        <ele>35.8</ele>
        <time>2021-03-28T06:22:21Z</time>
      </trkpt>
      <trkpt lat="42.79933" lon="2.87735">
        <ele>35.8</ele>
        <time>2021-03-28T06:22:21Z</time>
      </trkpt>
      <trkpt lat="42.79942" lon="2.87736">
        <ele>36</ele>
        <time>2021-03-28T06:22:23Z</time>
      </trkpt>
      <trkpt lat="42.79942" lon="2.87736">
        <ele>36</ele>
        <time>2021-03-28T06:22:23Z</time>
      </trkpt>
      <trkpt lat="42.79952" lon="2.87737">
        <ele>36</ele>
        <time>2021-03-28T06:22:25Z</time>
      </trkpt>
      <trkpt lat="42.79952" lon="2.87737">
        <ele>36</ele>
        <time>2021-03-28T06:22:25Z</time>
      </trkpt>
      <trkpt lat="42.79962" lon="2.87738">
        <ele>36</ele>
        <time>2021-03-28T06:22:27Z</time>
      </trkpt>
      <trkpt lat="42.79962" lon="2.87738">
        <ele>36</ele>
        <time>2021-03-28T06:22:27Z</time>
      </trkpt>
      <trkpt lat="42.79971" lon="2.87738">
        <ele>36</ele>
        <time>2021-03-28T06:22:28Z</time>
      </trkpt>
      <trkpt lat="42.79971" lon="2.87738">
        <ele>36</ele>
        <time>2021-03-28T06:22:28Z</time>
      </trkpt>
      <trkpt lat="42.79978" lon="2.87739">
        <ele>36</ele>
        <time>2021-03-28T06:22:29Z</time>
      </trkpt>
      <trkpt lat="42.79978" lon="2.87739">
        <ele>36</ele>
        <time>2021-03-28T06:22:29Z</time>
      </trkpt>
      <trkpt lat="42.79986" lon="2.8774">
        <ele>36</ele>
        <time>2021-03-28T06:22:31Z</time>
      </trkpt>
      <trkpt lat="42.79986" lon="2.8774">
        <ele>36</ele>
        <time>2021-03-28T06:22:31Z</time>
      </trkpt>
      <trkpt lat="42.79993" lon="2.87741">
        <ele>36</ele>
        <time>2021-03-28T06:22:32Z</time>
      </trkpt>
      <trkpt lat="42.79993" lon="2.87741">
        <ele>36</ele>
        <time>2021-03-28T06:22:32Z</time>
      </trkpt>
      <trkpt lat="42.8" lon="2.87741">
        <ele>36</ele>
        <time>2021-03-28T06:22:34Z</time>
      </trkpt>
      <trkpt lat="42.8" lon="2.87741">
        <ele>36</ele>
        <time>2021-03-28T06:22:34Z</time>
      </trkpt>
      <trkpt lat="42.80007" lon="2.87742">
        <ele>36.1</ele>
        <time>2021-03-28T06:22:35Z</time>
      </trkpt>
      <trkpt lat="42.80007" lon="2.87742">
        <ele>36.1</ele>
        <time>2021-03-28T06:22:35Z</time>
      </trkpt>
      <trkpt lat="42.80013" lon="2.87742">
        <ele>36.1</ele>
        <time>2021-03-28T06:22:36Z</time>
      </trkpt>
      <trkpt lat="42.80013" lon="2.87742">
        <ele>36.1</ele>
        <time>2021-03-28T06:22:36Z</time>
      </trkpt>
      <trkpt lat="42.80021" lon="2.87743">
        <ele>36.2</ele>
        <time>2021-03-28T06:22:38Z</time>
      </trkpt>
      <trkpt lat="42.80021" lon="2.87743">
        <ele>36.2</ele>
        <time>2021-03-28T06:22:38Z</time>
      </trkpt>
      <trkpt lat="42.80028" lon="2.87744">
        <ele>36.2</ele>
        <time>2021-03-28T06:22:39Z</time>
      </trkpt>
      <trkpt lat="42.80028" lon="2.87744">
        <ele>36.2</ele>
        <time>2021-03-28T06:22:39Z</time>
      </trkpt>
      <trkpt lat="42.80036" lon="2.87745">
        <ele>36.4</ele>
        <time>2021-03-28T06:22:41Z</time>
      </trkpt>
      <trkpt lat="42.80036" lon="2.87745">
        <ele>36.4</ele>
        <time>2021-03-28T06:22:41Z</time>
      </trkpt>
      <trkpt lat="42.80045" lon="2.87746">
        <ele>36.7</ele>
        <time>2021-03-28T06:22:43Z</time>
      </trkpt>
      <trkpt lat="42.80045" lon="2.87746">
        <ele>36.7</ele>
        <time>2021-03-28T06:22:43Z</time>
      </trkpt>
      <trkpt lat="42.80054" lon="2.87746">
        <ele>37</ele>
        <time>2021-03-28T06:22:45Z</time>
      </trkpt>
      <trkpt lat="42.80054" lon="2.87746">
        <ele>37</ele>
        <time>2021-03-28T06:22:45Z</time>
      </trkpt>
      <trkpt lat="42.80063" lon="2.87747">
        <ele>37</ele>
        <time>2021-03-28T06:22:46Z</time>
      </trkpt>
      <trkpt lat="42.80063" lon="2.87747">
        <ele>37</ele>
        <time>2021-03-28T06:22:46Z</time>
      </trkpt>
      <trkpt lat="42.80069" lon="2.87748">
        <ele>37</ele>
        <time>2021-03-28T06:22:47Z</time>
      </trkpt>
      <trkpt lat="42.80069" lon="2.87748">
        <ele>37</ele>
        <time>2021-03-28T06:22:47Z</time>
      </trkpt>
      <trkpt lat="42.80077" lon="2.8775">
        <ele>37</ele>
        <time>2021-03-28T06:22:49Z</time>
      </trkpt>
      <trkpt lat="42.80077" lon="2.8775">
        <ele>37</ele>
        <time>2021-03-28T06:22:49Z</time>
      </trkpt>
      <trkpt lat="42.80086" lon="2.87752">
        <ele>37</ele>
        <time>2021-03-28T06:22:51Z</time>
      </trkpt>
      <trkpt lat="42.80086" lon="2.87752">
        <ele>37</ele>
        <time>2021-03-28T06:22:51Z</time>
      </trkpt>
      <trkpt lat="42.80096" lon="2.87753">
        <ele>37</ele>
        <time>2021-03-28T06:22:53Z</time>
      </trkpt>
      <trkpt lat="42.80096" lon="2.87753">
        <ele>37</ele>
        <time>2021-03-28T06:22:53Z</time>
      </trkpt>
      <trkpt lat="42.80105" lon="2.87754">
        <ele>37</ele>
        <time>2021-03-28T06:22:55Z</time>
      </trkpt>
      <trkpt lat="42.80105" lon="2.87754">
        <ele>37</ele>
        <time>2021-03-28T06:22:55Z</time>
      </trkpt>
      <trkpt lat="42.80114" lon="2.87755">
        <ele>37.1</ele>
        <time>2021-03-28T06:22:56Z</time>
      </trkpt>
      <trkpt lat="42.80114" lon="2.87755">
        <ele>37.1</ele>
        <time>2021-03-28T06:22:56Z</time>
      </trkpt>
      <trkpt lat="42.80123" lon="2.87757">
        <ele>37.3</ele>
        <time>2021-03-28T06:22:58Z</time>
      </trkpt>
      <trkpt lat="42.80123" lon="2.87757">
        <ele>37.3</ele>
        <time>2021-03-28T06:22:58Z</time>
      </trkpt>
      <trkpt lat="42.8013" lon="2.87758">
        <ele>37.5</ele>
        <time>2021-03-28T06:22:59Z</time>
      </trkpt>
      <trkpt lat="42.8013" lon="2.87758">
        <ele>37.5</ele>
        <time>2021-03-28T06:22:59Z</time>
      </trkpt>
      <trkpt lat="42.80138" lon="2.8776">
        <ele>37.6</ele>
        <time>2021-03-28T06:23:01Z</time>
      </trkpt>
      <trkpt lat="42.80138" lon="2.8776">
        <ele>37.6</ele>
        <time>2021-03-28T06:23:01Z</time>
      </trkpt>
      <trkpt lat="42.80147" lon="2.87762">
        <ele>37.7</ele>
        <time>2021-03-28T06:23:03Z</time>
      </trkpt>
      <trkpt lat="42.80147" lon="2.87762">
        <ele>37.7</ele>
        <time>2021-03-28T06:23:03Z</time>
      </trkpt>
      <trkpt lat="42.80155" lon="2.87763">
        <ele>37.8</ele>
        <time>2021-03-28T06:23:04Z</time>
      </trkpt>
      <trkpt lat="42.80155" lon="2.87763">
        <ele>37.8</ele>
        <time>2021-03-28T06:23:04Z</time>
      </trkpt>
      <trkpt lat="42.80163" lon="2.87766">
        <ele>37.9</ele>
        <time>2021-03-28T06:23:06Z</time>
      </trkpt>
      <trkpt lat="42.80163" lon="2.87766">
        <ele>37.9</ele>
        <time>2021-03-28T06:23:06Z</time>
      </trkpt>
      <trkpt lat="42.80171" lon="2.87767">
        <ele>38</ele>
        <time>2021-03-28T06:23:07Z</time>
      </trkpt>
      <trkpt lat="42.80171" lon="2.87767">
        <ele>38</ele>
        <time>2021-03-28T06:23:07Z</time>
      </trkpt>
      <trkpt lat="42.80177" lon="2.87769">
        <ele>38</ele>
        <time>2021-03-28T06:23:08Z</time>
      </trkpt>
      <trkpt lat="42.80177" lon="2.87769">
        <ele>38</ele>
        <time>2021-03-28T06:23:08Z</time>
      </trkpt>
      <trkpt lat="42.80185" lon="2.87772">
        <ele>38</ele>
        <time>2021-03-28T06:23:10Z</time>
      </trkpt>
      <trkpt lat="42.80185" lon="2.87772">
        <ele>38</ele>
        <time>2021-03-28T06:23:10Z</time>
      </trkpt>
      <trkpt lat="42.80192" lon="2.87775">
        <ele>38</ele>
        <time>2021-03-28T06:23:11Z</time>
      </trkpt>
      <trkpt lat="42.80192" lon="2.87775">
        <ele>38</ele>
        <time>2021-03-28T06:23:11Z</time>
      </trkpt>
      <trkpt lat="42.80198" lon="2.87777">
        <ele>38</ele>
        <time>2021-03-28T06:23:12Z</time>
      </trkpt>
      <trkpt lat="42.80198" lon="2.87777">
        <ele>38</ele>
        <time>2021-03-28T06:23:12Z</time>
      </trkpt>
      <trkpt lat="42.80205" lon="2.87781">
        <ele>38</ele>
        <time>2021-03-28T06:23:14Z</time>
      </trkpt>
      <trkpt lat="42.80205" lon="2.87781">
        <ele>38</ele>
        <time>2021-03-28T06:23:14Z</time>
      </trkpt>
      <trkpt lat="42.80213" lon="2.87785">
        <ele>38</ele>
        <time>2021-03-28T06:23:16Z</time>
      </trkpt>
      <trkpt lat="42.80213" lon="2.87785">
        <ele>38</ele>
        <time>2021-03-28T06:23:16Z</time>
      </trkpt>
      <trkpt lat="42.8022" lon="2.8779">
        <ele>38</ele>
        <time>2021-03-28T06:23:17Z</time>
      </trkpt>
      <trkpt lat="42.8022" lon="2.8779">
        <ele>38</ele>
        <time>2021-03-28T06:23:17Z</time>
      </trkpt>
      <trkpt lat="42.80226" lon="2.87793">
        <ele>38</ele>
        <time>2021-03-28T06:23:18Z</time>
      </trkpt>
      <trkpt lat="42.80226" lon="2.87793">
        <ele>38</ele>
        <time>2021-03-28T06:23:18Z</time>
      </trkpt>
      <trkpt lat="42.80232" lon="2.87796">
        <ele>38</ele>
        <time>2021-03-28T06:23:19Z</time>
      </trkpt>
      <trkpt lat="42.80232" lon="2.87796">
        <ele>38</ele>
        <time>2021-03-28T06:23:19Z</time>
      </trkpt>
      <trkpt lat="42.80239" lon="2.87801">
        <ele>38</ele>
        <time>2021-03-28T06:23:21Z</time>
      </trkpt>
      <trkpt lat="42.80239" lon="2.87801">
        <ele>38</ele>
        <time>2021-03-28T06:23:21Z</time>
      </trkpt>
      <trkpt lat="42.80248" lon="2.87806">
        <ele>38</ele>
        <time>2021-03-28T06:23:23Z</time>
      </trkpt>
      <trkpt lat="42.80248" lon="2.87806">
        <ele>38</ele>
        <time>2021-03-28T06:23:23Z</time>
      </trkpt>
      <trkpt lat="42.80255" lon="2.8781">
        <ele>38</ele>
        <time>2021-03-28T06:23:24Z</time>
      </trkpt>
      <trkpt lat="42.80255" lon="2.8781">
        <ele>38</ele>
        <time>2021-03-28T06:23:24Z</time>
      </trkpt>
      <trkpt lat="42.80263" lon="2.87814">
        <ele>38</ele>
        <time>2021-03-28T06:23:26Z</time>
      </trkpt>
      <trkpt lat="42.80263" lon="2.87814">
        <ele>38</ele>
        <time>2021-03-28T06:23:26Z</time>
      </trkpt>
      <trkpt lat="42.8027" lon="2.87817">
        <ele>38</ele>
        <time>2021-03-28T06:23:27Z</time>
      </trkpt>
      <trkpt lat="42.8027" lon="2.87817">
        <ele>38</ele>
        <time>2021-03-28T06:23:27Z</time>
      </trkpt>
      <trkpt lat="42.80278" lon="2.87821">
        <ele>38</ele>
        <time>2021-03-28T06:23:29Z</time>
      </trkpt>
      <trkpt lat="42.80278" lon="2.87821">
        <ele>38</ele>
        <time>2021-03-28T06:23:29Z</time>
      </trkpt>
      <trkpt lat="42.80285" lon="2.87824">
        <ele>38</ele>
        <time>2021-03-28T06:23:30Z</time>
      </trkpt>
      <trkpt lat="42.80285" lon="2.87824">
        <ele>38</ele>
        <time>2021-03-28T06:23:30Z</time>
      </trkpt>
      <trkpt lat="42.80291" lon="2.87826">
        <ele>38</ele>
        <time>2021-03-28T06:23:31Z</time>
      </trkpt>
      <trkpt lat="42.80291" lon="2.87826">
        <ele>38</ele>
        <time>2021-03-28T06:23:31Z</time>
      </trkpt>
      <trkpt lat="42.80298" lon="2.8783">
        <ele>38</ele>
        <time>2021-03-28T06:23:33Z</time>
      </trkpt>
      <trkpt lat="42.80298" lon="2.8783">
        <ele>38</ele>
        <time>2021-03-28T06:23:33Z</time>
      </trkpt>
      <trkpt lat="42.80307" lon="2.87834">
        <ele>38</ele>
        <time>2021-03-28T06:23:35Z</time>
      </trkpt>
      <trkpt lat="42.80307" lon="2.87834">
        <ele>38</ele>
        <time>2021-03-28T06:23:35Z</time>
      </trkpt>
      <trkpt lat="42.80316" lon="2.87838">
        <ele>38</ele>
        <time>2021-03-28T06:23:37Z</time>
      </trkpt>
      <trkpt lat="42.80316" lon="2.87838">
        <ele>38</ele>
        <time>2021-03-28T06:23:37Z</time>
      </trkpt>
      <trkpt lat="42.80326" lon="2.87842">
        <ele>38</ele>
        <time>2021-03-28T06:23:39Z</time>
      </trkpt>
      <trkpt lat="42.80326" lon="2.87842">
        <ele>38</ele>
        <time>2021-03-28T06:23:39Z</time>
      </trkpt>
      <trkpt lat="42.80334" lon="2.87846">
        <ele>38</ele>
        <time>2021-03-28T06:23:40Z</time>
      </trkpt>
      <trkpt lat="42.80334" lon="2.87846">
        <ele>38</ele>
        <time>2021-03-28T06:23:40Z</time>
      </trkpt>
      <trkpt lat="42.80343" lon="2.87849">
        <ele>38</ele>
        <time>2021-03-28T06:23:42Z</time>
      </trkpt>
      <trkpt lat="42.80343" lon="2.87849">
        <ele>38</ele>
        <time>2021-03-28T06:23:42Z</time>
      </trkpt>
      <trkpt lat="42.80352" lon="2.87852">
        <ele>38</ele>
        <time>2021-03-28T06:23:43Z</time>
      </trkpt>
      <trkpt lat="42.80352" lon="2.87852">
        <ele>38</ele>
        <time>2021-03-28T06:23:43Z</time>
      </trkpt>
      <trkpt lat="42.80361" lon="2.87854">
        <ele>38</ele>
        <time>2021-03-28T06:23:45Z</time>
      </trkpt>
      <trkpt lat="42.80361" lon="2.87854">
        <ele>38</ele>
        <time>2021-03-28T06:23:45Z</time>
      </trkpt>
      <trkpt lat="42.8037" lon="2.87855">
        <ele>38.3</ele>
        <time>2021-03-28T06:23:47Z</time>
      </trkpt>
      <trkpt lat="42.8037" lon="2.87855">
        <ele>38.3</ele>
        <time>2021-03-28T06:23:47Z</time>
      </trkpt>
      <trkpt lat="42.8038" lon="2.87857">
        <ele>38.7</ele>
        <time>2021-03-28T06:23:49Z</time>
      </trkpt>
      <trkpt lat="42.8038" lon="2.87857">
        <ele>38.7</ele>
        <time>2021-03-28T06:23:49Z</time>
      </trkpt>
      <trkpt lat="42.8039" lon="2.87859">
        <ele>39</ele>
        <time>2021-03-28T06:23:51Z</time>
      </trkpt>
      <trkpt lat="42.8039" lon="2.87859">
        <ele>39</ele>
        <time>2021-03-28T06:23:51Z</time>
      </trkpt>
      <trkpt lat="42.80399" lon="2.87861">
        <ele>39</ele>
        <time>2021-03-28T06:23:52Z</time>
      </trkpt>
      <trkpt lat="42.80399" lon="2.87861">
        <ele>39</ele>
        <time>2021-03-28T06:23:52Z</time>
      </trkpt>
      <trkpt lat="42.80408" lon="2.87862">
        <ele>39</ele>
        <time>2021-03-28T06:23:54Z</time>
      </trkpt>
      <trkpt lat="42.80408" lon="2.87862">
        <ele>39</ele>
        <time>2021-03-28T06:23:54Z</time>
      </trkpt>
      <trkpt lat="42.80416" lon="2.87862">
        <ele>39</ele>
        <time>2021-03-28T06:23:55Z</time>
      </trkpt>
      <trkpt lat="42.80416" lon="2.87862">
        <ele>39</ele>
        <time>2021-03-28T06:23:55Z</time>
      </trkpt>
      <trkpt lat="42.80425" lon="2.87864">
        <ele>39</ele>
        <time>2021-03-28T06:23:57Z</time>
      </trkpt>
      <trkpt lat="42.80425" lon="2.87864">
        <ele>39</ele>
        <time>2021-03-28T06:23:57Z</time>
      </trkpt>
      <trkpt lat="42.80435" lon="2.87865">
        <ele>39</ele>
        <time>2021-03-28T06:23:59Z</time>
      </trkpt>
      <trkpt lat="42.80435" lon="2.87865">
        <ele>39</ele>
        <time>2021-03-28T06:23:59Z</time>
      </trkpt>
      <trkpt lat="42.80443" lon="2.87867">
        <ele>39</ele>
        <time>2021-03-28T06:24:00Z</time>
      </trkpt>
      <trkpt lat="42.80443" lon="2.87867">
        <ele>39</ele>
        <time>2021-03-28T06:24:00Z</time>
      </trkpt>
      <trkpt lat="42.80452" lon="2.87869">
        <ele>39</ele>
        <time>2021-03-28T06:24:02Z</time>
      </trkpt>
      <trkpt lat="42.80452" lon="2.87869">
        <ele>39</ele>
        <time>2021-03-28T06:24:02Z</time>
      </trkpt>
      <trkpt lat="42.80461" lon="2.87872">
        <ele>39</ele>
        <time>2021-03-28T06:24:04Z</time>
      </trkpt>
      <trkpt lat="42.80461" lon="2.87872">
        <ele>39</ele>
        <time>2021-03-28T06:24:04Z</time>
      </trkpt>
      <trkpt lat="42.8047" lon="2.87874">
        <ele>39</ele>
        <time>2021-03-28T06:24:05Z</time>
      </trkpt>
      <trkpt lat="42.8047" lon="2.87874">
        <ele>39</ele>
        <time>2021-03-28T06:24:05Z</time>
      </trkpt>
      <trkpt lat="42.80479" lon="2.87876">
        <ele>39</ele>
        <time>2021-03-28T06:24:07Z</time>
      </trkpt>
      <trkpt lat="42.80479" lon="2.87876">
        <ele>39</ele>
        <time>2021-03-28T06:24:07Z</time>
      </trkpt>
      <trkpt lat="42.80488" lon="2.87877">
        <ele>39</ele>
        <time>2021-03-28T06:24:09Z</time>
      </trkpt>
      <trkpt lat="42.80488" lon="2.87877">
        <ele>39</ele>
        <time>2021-03-28T06:24:09Z</time>
      </trkpt>
      <trkpt lat="42.80497" lon="2.87879">
        <ele>39</ele>
        <time>2021-03-28T06:24:10Z</time>
      </trkpt>
      <trkpt lat="42.80497" lon="2.87879">
        <ele>39</ele>
        <time>2021-03-28T06:24:10Z</time>
      </trkpt>
      <trkpt lat="42.80506" lon="2.8788">
        <ele>39.1</ele>
        <time>2021-03-28T06:24:12Z</time>
      </trkpt>
      <trkpt lat="42.80506" lon="2.8788">
        <ele>39.1</ele>
        <time>2021-03-28T06:24:12Z</time>
      </trkpt>
      <trkpt lat="42.80514" lon="2.8788">
        <ele>39.2</ele>
        <time>2021-03-28T06:24:13Z</time>
      </trkpt>
      <trkpt lat="42.80514" lon="2.8788">
        <ele>39.2</ele>
        <time>2021-03-28T06:24:13Z</time>
      </trkpt>
      <trkpt lat="42.80521" lon="2.87881">
        <ele>39.2</ele>
        <time>2021-03-28T06:24:14Z</time>
      </trkpt>
      <trkpt lat="42.80521" lon="2.87881">
        <ele>39.2</ele>
        <time>2021-03-28T06:24:14Z</time>
      </trkpt>
      <trkpt lat="42.8053" lon="2.87881">
        <ele>39.3</ele>
        <time>2021-03-28T06:24:16Z</time>
      </trkpt>
      <trkpt lat="42.8053" lon="2.87881">
        <ele>39.3</ele>
        <time>2021-03-28T06:24:16Z</time>
      </trkpt>
      <trkpt lat="42.80538" lon="2.87882">
        <ele>39.3</ele>
        <time>2021-03-28T06:24:17Z</time>
      </trkpt>
      <trkpt lat="42.80538" lon="2.87882">
        <ele>39.3</ele>
        <time>2021-03-28T06:24:17Z</time>
      </trkpt>
      <trkpt lat="42.80545" lon="2.87882">
        <ele>39.3</ele>
        <time>2021-03-28T06:24:18Z</time>
      </trkpt>
      <trkpt lat="42.80545" lon="2.87882">
        <ele>39.3</ele>
        <time>2021-03-28T06:24:18Z</time>
      </trkpt>
      <trkpt lat="42.80553" lon="2.87881">
        <ele>39.3</ele>
        <time>2021-03-28T06:24:20Z</time>
      </trkpt>
      <trkpt lat="42.80553" lon="2.87881">
        <ele>39.3</ele>
        <time>2021-03-28T06:24:20Z</time>
      </trkpt>
      <trkpt lat="42.8056" lon="2.8788">
        <ele>39.4</ele>
        <time>2021-03-28T06:24:21Z</time>
      </trkpt>
      <trkpt lat="42.8056" lon="2.8788">
        <ele>39.4</ele>
        <time>2021-03-28T06:24:21Z</time>
      </trkpt>
      <trkpt lat="42.80569" lon="2.87878">
        <ele>39.7</ele>
        <time>2021-03-28T06:24:23Z</time>
      </trkpt>
      <trkpt lat="42.80569" lon="2.87878">
        <ele>39.7</ele>
        <time>2021-03-28T06:24:23Z</time>
      </trkpt>
      <trkpt lat="42.80578" lon="2.87876">
        <ele>39.9</ele>
        <time>2021-03-28T06:24:25Z</time>
      </trkpt>
      <trkpt lat="42.80578" lon="2.87876">
        <ele>39.9</ele>
        <time>2021-03-28T06:24:25Z</time>
      </trkpt>
      <trkpt lat="42.80589" lon="2.87872">
        <ele>40</ele>
        <time>2021-03-28T06:24:27Z</time>
      </trkpt>
      <trkpt lat="42.80589" lon="2.87872">
        <ele>40</ele>
        <time>2021-03-28T06:24:27Z</time>
      </trkpt>
      <trkpt lat="42.80597" lon="2.8787">
        <ele>40</ele>
        <time>2021-03-28T06:24:28Z</time>
      </trkpt>
      <trkpt lat="42.80597" lon="2.8787">
        <ele>40</ele>
        <time>2021-03-28T06:24:28Z</time>
      </trkpt>
      <trkpt lat="42.80607" lon="2.87867">
        <ele>40</ele>
        <time>2021-03-28T06:24:30Z</time>
      </trkpt>
      <trkpt lat="42.80607" lon="2.87867">
        <ele>40</ele>
        <time>2021-03-28T06:24:30Z</time>
      </trkpt>
      <trkpt lat="42.80615" lon="2.87864">
        <ele>40</ele>
        <time>2021-03-28T06:24:31Z</time>
      </trkpt>
      <trkpt lat="42.80615" lon="2.87864">
        <ele>40</ele>
        <time>2021-03-28T06:24:31Z</time>
      </trkpt>
      <trkpt lat="42.80622" lon="2.87862">
        <ele>40</ele>
        <time>2021-03-28T06:24:32Z</time>
      </trkpt>
      <trkpt lat="42.80622" lon="2.87862">
        <ele>40</ele>
        <time>2021-03-28T06:24:32Z</time>
      </trkpt>
      <trkpt lat="42.8063" lon="2.87859">
        <ele>40</ele>
        <time>2021-03-28T06:24:34Z</time>
      </trkpt>
      <trkpt lat="42.8063" lon="2.87859">
        <ele>40</ele>
        <time>2021-03-28T06:24:34Z</time>
      </trkpt>
      <trkpt lat="42.80639" lon="2.87855">
        <ele>40</ele>
        <time>2021-03-28T06:24:36Z</time>
      </trkpt>
      <trkpt lat="42.80639" lon="2.87855">
        <ele>40</ele>
        <time>2021-03-28T06:24:36Z</time>
      </trkpt>
      <trkpt lat="42.80646" lon="2.87852">
        <ele>40</ele>
        <time>2021-03-28T06:24:37Z</time>
      </trkpt>
      <trkpt lat="42.80646" lon="2.87852">
        <ele>40</ele>
        <time>2021-03-28T06:24:37Z</time>
      </trkpt>
      <trkpt lat="42.80654" lon="2.87848">
        <ele>40</ele>
        <time>2021-03-28T06:24:39Z</time>
      </trkpt>
      <trkpt lat="42.80654" lon="2.87848">
        <ele>40</ele>
        <time>2021-03-28T06:24:39Z</time>
      </trkpt>
      <trkpt lat="42.80663" lon="2.87843">
        <ele>40</ele>
        <time>2021-03-28T06:24:41Z</time>
      </trkpt>
      <trkpt lat="42.80663" lon="2.87843">
        <ele>40</ele>
        <time>2021-03-28T06:24:41Z</time>
      </trkpt>
      <trkpt lat="42.80671" lon="2.87839">
        <ele>40.1</ele>
        <time>2021-03-28T06:24:42Z</time>
      </trkpt>
      <trkpt lat="42.80671" lon="2.87839">
        <ele>40.1</ele>
        <time>2021-03-28T06:24:42Z</time>
      </trkpt>
      <trkpt lat="42.80678" lon="2.87836">
        <ele>40.4</ele>
        <time>2021-03-28T06:24:43Z</time>
      </trkpt>
      <trkpt lat="42.80678" lon="2.87836">
        <ele>40.4</ele>
        <time>2021-03-28T06:24:43Z</time>
      </trkpt>
      <trkpt lat="42.80686" lon="2.87831">
        <ele>40.7</ele>
        <time>2021-03-28T06:24:45Z</time>
      </trkpt>
      <trkpt lat="42.80686" lon="2.87831">
        <ele>40.7</ele>
        <time>2021-03-28T06:24:45Z</time>
      </trkpt>
      <trkpt lat="42.80694" lon="2.87826">
        <ele>41</ele>
        <time>2021-03-28T06:24:47Z</time>
      </trkpt>
      <trkpt lat="42.80694" lon="2.87826">
        <ele>41</ele>
        <time>2021-03-28T06:24:47Z</time>
      </trkpt>
      <trkpt lat="42.80703" lon="2.87821">
        <ele>41</ele>
        <time>2021-03-28T06:24:49Z</time>
      </trkpt>
      <trkpt lat="42.80703" lon="2.87821">
        <ele>41</ele>
        <time>2021-03-28T06:24:49Z</time>
      </trkpt>
      <trkpt lat="42.80712" lon="2.87817">
        <ele>41</ele>
        <time>2021-03-28T06:24:51Z</time>
      </trkpt>
      <trkpt lat="42.80712" lon="2.87817">
        <ele>41</ele>
        <time>2021-03-28T06:24:51Z</time>
      </trkpt>
      <trkpt lat="42.80721" lon="2.87812">
        <ele>41</ele>
        <time>2021-03-28T06:24:53Z</time>
      </trkpt>
      <trkpt lat="42.80721" lon="2.87812">
        <ele>41</ele>
        <time>2021-03-28T06:24:53Z</time>
      </trkpt>
      <trkpt lat="42.80731" lon="2.87808">
        <ele>41</ele>
        <time>2021-03-28T06:24:55Z</time>
      </trkpt>
      <trkpt lat="42.80731" lon="2.87808">
        <ele>41</ele>
        <time>2021-03-28T06:24:55Z</time>
      </trkpt>
      <trkpt lat="42.80741" lon="2.87803">
        <ele>41</ele>
        <time>2021-03-28T06:24:57Z</time>
      </trkpt>
      <trkpt lat="42.80741" lon="2.87803">
        <ele>41</ele>
        <time>2021-03-28T06:24:57Z</time>
      </trkpt>
      <trkpt lat="42.8075" lon="2.878">
        <ele>41</ele>
        <time>2021-03-28T06:24:58Z</time>
      </trkpt>
      <trkpt lat="42.8075" lon="2.878">
        <ele>41</ele>
        <time>2021-03-28T06:24:58Z</time>
      </trkpt>
      <trkpt lat="42.80758" lon="2.87796">
        <ele>41.1</ele>
        <time>2021-03-28T06:25:00Z</time>
      </trkpt>
      <trkpt lat="42.80758" lon="2.87796">
        <ele>41.1</ele>
        <time>2021-03-28T06:25:00Z</time>
      </trkpt>
      <trkpt lat="42.80768" lon="2.87793">
        <ele>41.3</ele>
        <time>2021-03-28T06:25:02Z</time>
      </trkpt>
      <trkpt lat="42.80768" lon="2.87793">
        <ele>41.3</ele>
        <time>2021-03-28T06:25:02Z</time>
      </trkpt>
      <trkpt lat="42.80778" lon="2.87788">
        <ele>41.6</ele>
        <time>2021-03-28T06:25:04Z</time>
      </trkpt>
      <trkpt lat="42.80778" lon="2.87788">
        <ele>41.6</ele>
        <time>2021-03-28T06:25:04Z</time>
      </trkpt>
      <trkpt lat="42.80788" lon="2.87784">
        <ele>41.9</ele>
        <time>2021-03-28T06:25:06Z</time>
      </trkpt>
      <trkpt lat="42.80788" lon="2.87784">
        <ele>41.9</ele>
        <time>2021-03-28T06:25:06Z</time>
      </trkpt>
      <trkpt lat="42.80798" lon="2.8778">
        <ele>42</ele>
        <time>2021-03-28T06:25:08Z</time>
      </trkpt>
      <trkpt lat="42.80798" lon="2.8778">
        <ele>42</ele>
        <time>2021-03-28T06:25:08Z</time>
      </trkpt>
      <trkpt lat="42.80808" lon="2.87775">
        <ele>42</ele>
        <time>2021-03-28T06:25:10Z</time>
      </trkpt>
      <trkpt lat="42.80808" lon="2.87775">
        <ele>42</ele>
        <time>2021-03-28T06:25:10Z</time>
      </trkpt>
      <trkpt lat="42.80817" lon="2.87771">
        <ele>42</ele>
        <time>2021-03-28T06:25:11Z</time>
      </trkpt>
      <trkpt lat="42.80817" lon="2.87771">
        <ele>42</ele>
        <time>2021-03-28T06:25:11Z</time>
      </trkpt>
      <trkpt lat="42.80824" lon="2.87768">
        <ele>42</ele>
        <time>2021-03-28T06:25:12Z</time>
      </trkpt>
      <trkpt lat="42.80824" lon="2.87768">
        <ele>42</ele>
        <time>2021-03-28T06:25:12Z</time>
      </trkpt>
      <trkpt lat="42.80833" lon="2.87765">
        <ele>42</ele>
        <time>2021-03-28T06:25:14Z</time>
      </trkpt>
      <trkpt lat="42.80833" lon="2.87765">
        <ele>42</ele>
        <time>2021-03-28T06:25:14Z</time>
      </trkpt>
      <trkpt lat="42.80842" lon="2.87761">
        <ele>42</ele>
        <time>2021-03-28T06:25:16Z</time>
      </trkpt>
      <trkpt lat="42.80842" lon="2.87761">
        <ele>42</ele>
        <time>2021-03-28T06:25:16Z</time>
      </trkpt>
      <trkpt lat="42.8085" lon="2.87758">
        <ele>42</ele>
        <time>2021-03-28T06:25:17Z</time>
      </trkpt>
      <trkpt lat="42.8085" lon="2.87758">
        <ele>42</ele>
        <time>2021-03-28T06:25:17Z</time>
      </trkpt>
      <trkpt lat="42.80858" lon="2.87754">
        <ele>42</ele>
        <time>2021-03-28T06:25:19Z</time>
      </trkpt>
      <trkpt lat="42.80858" lon="2.87754">
        <ele>42</ele>
        <time>2021-03-28T06:25:19Z</time>
      </trkpt>
      <trkpt lat="42.80866" lon="2.87751">
        <ele>42.2</ele>
        <time>2021-03-28T06:25:20Z</time>
      </trkpt>
      <trkpt lat="42.80866" lon="2.87751">
        <ele>42.2</ele>
        <time>2021-03-28T06:25:20Z</time>
      </trkpt>
      <trkpt lat="42.80874" lon="2.87747">
        <ele>42.5</ele>
        <time>2021-03-28T06:25:22Z</time>
      </trkpt>
      <trkpt lat="42.80874" lon="2.87747">
        <ele>42.5</ele>
        <time>2021-03-28T06:25:22Z</time>
      </trkpt>
      <trkpt lat="42.80881" lon="2.87743">
        <ele>42.8</ele>
        <time>2021-03-28T06:25:23Z</time>
      </trkpt>
      <trkpt lat="42.80881" lon="2.87743">
        <ele>42.8</ele>
        <time>2021-03-28T06:25:23Z</time>
      </trkpt>
      <trkpt lat="42.8089" lon="2.8774">
        <ele>43</ele>
        <time>2021-03-28T06:25:25Z</time>
      </trkpt>
      <trkpt lat="42.8089" lon="2.8774">
        <ele>43</ele>
        <time>2021-03-28T06:25:25Z</time>
      </trkpt>
      <trkpt lat="42.80898" lon="2.87736">
        <ele>43</ele>
        <time>2021-03-28T06:25:27Z</time>
      </trkpt>
      <trkpt lat="42.80898" lon="2.87736">
        <ele>43</ele>
        <time>2021-03-28T06:25:27Z</time>
      </trkpt>
      <trkpt lat="42.80908" lon="2.87732">
        <ele>43</ele>
        <time>2021-03-28T06:25:29Z</time>
      </trkpt>
      <trkpt lat="42.80908" lon="2.87732">
        <ele>43</ele>
        <time>2021-03-28T06:25:29Z</time>
      </trkpt>
      <trkpt lat="42.80916" lon="2.87728">
        <ele>43</ele>
        <time>2021-03-28T06:25:30Z</time>
      </trkpt>
      <trkpt lat="42.80916" lon="2.87728">
        <ele>43</ele>
        <time>2021-03-28T06:25:30Z</time>
      </trkpt>
      <trkpt lat="42.80923" lon="2.87725">
        <ele>43</ele>
        <time>2021-03-28T06:25:31Z</time>
      </trkpt>
      <trkpt lat="42.80923" lon="2.87725">
        <ele>43</ele>
        <time>2021-03-28T06:25:31Z</time>
      </trkpt>
      <trkpt lat="42.8093" lon="2.8772">
        <ele>43</ele>
        <time>2021-03-28T06:25:33Z</time>
      </trkpt>
      <trkpt lat="42.8093" lon="2.8772">
        <ele>43</ele>
        <time>2021-03-28T06:25:33Z</time>
      </trkpt>
      <trkpt lat="42.80939" lon="2.87716">
        <ele>43</ele>
        <time>2021-03-28T06:25:35Z</time>
      </trkpt>
      <trkpt lat="42.80939" lon="2.87716">
        <ele>43</ele>
        <time>2021-03-28T06:25:35Z</time>
      </trkpt>
      <trkpt lat="42.80948" lon="2.8771">
        <ele>43.1</ele>
        <time>2021-03-28T06:25:37Z</time>
      </trkpt>
      <trkpt lat="42.80948" lon="2.8771">
        <ele>43.1</ele>
        <time>2021-03-28T06:25:37Z</time>
      </trkpt>
      <trkpt lat="42.80958" lon="2.87705">
        <ele>43.3</ele>
        <time>2021-03-28T06:25:39Z</time>
      </trkpt>
      <trkpt lat="42.80958" lon="2.87705">
        <ele>43.3</ele>
        <time>2021-03-28T06:25:39Z</time>
      </trkpt>
      <trkpt lat="42.80965" lon="2.87701">
        <ele>43.6</ele>
        <time>2021-03-28T06:25:40Z</time>
      </trkpt>
      <trkpt lat="42.80965" lon="2.87701">
        <ele>43.6</ele>
        <time>2021-03-28T06:25:40Z</time>
      </trkpt>
      <trkpt lat="42.80972" lon="2.87696">
        <ele>43.9</ele>
        <time>2021-03-28T06:25:41Z</time>
      </trkpt>
      <trkpt lat="42.80972" lon="2.87696">
        <ele>43.9</ele>
        <time>2021-03-28T06:25:41Z</time>
      </trkpt>
      <trkpt lat="42.80978" lon="2.87692">
        <ele>44</ele>
        <time>2021-03-28T06:25:42Z</time>
      </trkpt>
      <trkpt lat="42.80978" lon="2.87692">
        <ele>44</ele>
        <time>2021-03-28T06:25:42Z</time>
      </trkpt>
      <trkpt lat="42.80984" lon="2.87689">
        <ele>44</ele>
        <time>2021-03-28T06:25:43Z</time>
      </trkpt>
      <trkpt lat="42.80984" lon="2.87689">
        <ele>44</ele>
        <time>2021-03-28T06:25:43Z</time>
      </trkpt>
      <trkpt lat="42.80991" lon="2.87685">
        <ele>44</ele>
        <time>2021-03-28T06:25:45Z</time>
      </trkpt>
      <trkpt lat="42.80991" lon="2.87685">
        <ele>44</ele>
        <time>2021-03-28T06:25:45Z</time>
      </trkpt>
      <trkpt lat="42.80998" lon="2.87681">
        <ele>44</ele>
        <time>2021-03-28T06:25:46Z</time>
      </trkpt>
      <trkpt lat="42.80998" lon="2.87681">
        <ele>44</ele>
        <time>2021-03-28T06:25:46Z</time>
      </trkpt>
      <trkpt lat="42.81005" lon="2.87677">
        <ele>44</ele>
        <time>2021-03-28T06:25:48Z</time>
      </trkpt>
      <trkpt lat="42.81005" lon="2.87677">
        <ele>44</ele>
        <time>2021-03-28T06:25:48Z</time>
      </trkpt>
      <trkpt lat="42.81012" lon="2.87672">
        <ele>44</ele>
        <time>2021-03-28T06:25:49Z</time>
      </trkpt>
      <trkpt lat="42.81012" lon="2.87672">
        <ele>44</ele>
        <time>2021-03-28T06:25:49Z</time>
      </trkpt>
      <trkpt lat="42.81019" lon="2.87667">
        <ele>44</ele>
        <time>2021-03-28T06:25:51Z</time>
      </trkpt>
      <trkpt lat="42.81019" lon="2.87667">
        <ele>44</ele>
        <time>2021-03-28T06:25:51Z</time>
      </trkpt>
      <trkpt lat="42.81027" lon="2.87662">
        <ele>44</ele>
        <time>2021-03-28T06:25:53Z</time>
      </trkpt>
      <trkpt lat="42.81027" lon="2.87662">
        <ele>44</ele>
        <time>2021-03-28T06:25:53Z</time>
      </trkpt>
      <trkpt lat="42.81036" lon="2.87656">
        <ele>44.1</ele>
        <time>2021-03-28T06:25:55Z</time>
      </trkpt>
      <trkpt lat="42.81036" lon="2.87656">
        <ele>44.1</ele>
        <time>2021-03-28T06:25:55Z</time>
      </trkpt>
      <trkpt lat="42.81046" lon="2.8765">
        <ele>44.4</ele>
        <time>2021-03-28T06:25:57Z</time>
      </trkpt>
      <trkpt lat="42.81046" lon="2.8765">
        <ele>44.4</ele>
        <time>2021-03-28T06:25:57Z</time>
      </trkpt>
      <trkpt lat="42.81054" lon="2.87645">
        <ele>44.7</ele>
        <time>2021-03-28T06:25:58Z</time>
      </trkpt>
      <trkpt lat="42.81054" lon="2.87645">
        <ele>44.7</ele>
        <time>2021-03-28T06:25:58Z</time>
      </trkpt>
      <trkpt lat="42.81063" lon="2.8764">
        <ele>45</ele>
        <time>2021-03-28T06:26:00Z</time>
      </trkpt>
      <trkpt lat="42.81063" lon="2.8764">
        <ele>45</ele>
        <time>2021-03-28T06:26:00Z</time>
      </trkpt>
      <trkpt lat="42.81071" lon="2.87637">
        <ele>45</ele>
        <time>2021-03-28T06:26:01Z</time>
      </trkpt>
      <trkpt lat="42.81071" lon="2.87637">
        <ele>45</ele>
        <time>2021-03-28T06:26:01Z</time>
      </trkpt>
      <trkpt lat="42.81079" lon="2.87633">
        <ele>45</ele>
        <time>2021-03-28T06:26:03Z</time>
      </trkpt>
      <trkpt lat="42.81079" lon="2.87633">
        <ele>45</ele>
        <time>2021-03-28T06:26:03Z</time>
      </trkpt>
      <trkpt lat="42.81088" lon="2.87629">
        <ele>45</ele>
        <time>2021-03-28T06:26:05Z</time>
      </trkpt>
      <trkpt lat="42.81088" lon="2.87629">
        <ele>45</ele>
        <time>2021-03-28T06:26:05Z</time>
      </trkpt>
      <trkpt lat="42.81096" lon="2.87626">
        <ele>45</ele>
        <time>2021-03-28T06:26:06Z</time>
      </trkpt>
      <trkpt lat="42.81096" lon="2.87626">
        <ele>45</ele>
        <time>2021-03-28T06:26:06Z</time>
      </trkpt>
      <trkpt lat="42.81105" lon="2.87622">
        <ele>45</ele>
        <time>2021-03-28T06:26:08Z</time>
      </trkpt>
      <trkpt lat="42.81105" lon="2.87622">
        <ele>45</ele>
        <time>2021-03-28T06:26:08Z</time>
      </trkpt>
      <trkpt lat="42.81115" lon="2.8762">
        <ele>45</ele>
        <time>2021-03-28T06:26:10Z</time>
      </trkpt>
      <trkpt lat="42.81115" lon="2.8762">
        <ele>45</ele>
        <time>2021-03-28T06:26:10Z</time>
      </trkpt>
      <trkpt lat="42.81123" lon="2.87618">
        <ele>45</ele>
        <time>2021-03-28T06:26:11Z</time>
      </trkpt>
      <trkpt lat="42.81123" lon="2.87618">
        <ele>45</ele>
        <time>2021-03-28T06:26:11Z</time>
      </trkpt>
      <trkpt lat="42.81133" lon="2.87617">
        <ele>45</ele>
        <time>2021-03-28T06:26:13Z</time>
      </trkpt>
      <trkpt lat="42.81133" lon="2.87617">
        <ele>45</ele>
        <time>2021-03-28T06:26:13Z</time>
      </trkpt>
      <trkpt lat="42.81143" lon="2.87617">
        <ele>45</ele>
        <time>2021-03-28T06:26:15Z</time>
      </trkpt>
      <trkpt lat="42.81143" lon="2.87617">
        <ele>45</ele>
        <time>2021-03-28T06:26:15Z</time>
      </trkpt>
      <trkpt lat="42.81154" lon="2.87617">
        <ele>45</ele>
        <time>2021-03-28T06:26:17Z</time>
      </trkpt>
      <trkpt lat="42.81154" lon="2.87617">
        <ele>45</ele>
        <time>2021-03-28T06:26:17Z</time>
      </trkpt>
      <trkpt lat="42.81165" lon="2.87617">
        <ele>45</ele>
        <time>2021-03-28T06:26:19Z</time>
      </trkpt>
      <trkpt lat="42.81165" lon="2.87617">
        <ele>45</ele>
        <time>2021-03-28T06:26:19Z</time>
      </trkpt>
      <trkpt lat="42.81174" lon="2.87618">
        <ele>45</ele>
        <time>2021-03-28T06:26:20Z</time>
      </trkpt>
      <trkpt lat="42.81174" lon="2.87618">
        <ele>45</ele>
        <time>2021-03-28T06:26:20Z</time>
      </trkpt>
      <trkpt lat="42.81184" lon="2.87619">
        <ele>45</ele>
        <time>2021-03-28T06:26:22Z</time>
      </trkpt>
      <trkpt lat="42.81184" lon="2.87619">
        <ele>45</ele>
        <time>2021-03-28T06:26:22Z</time>
      </trkpt>
      <trkpt lat="42.81194" lon="2.87621">
        <ele>45</ele>
        <time>2021-03-28T06:26:24Z</time>
      </trkpt>
      <trkpt lat="42.81194" lon="2.87621">
        <ele>45</ele>
        <time>2021-03-28T06:26:24Z</time>
      </trkpt>
      <trkpt lat="42.81204" lon="2.87622">
        <ele>45</ele>
        <time>2021-03-28T06:26:26Z</time>
      </trkpt>
      <trkpt lat="42.81204" lon="2.87622">
        <ele>45</ele>
        <time>2021-03-28T06:26:26Z</time>
      </trkpt>
      <trkpt lat="42.81214" lon="2.87625">
        <ele>45</ele>
        <time>2021-03-28T06:26:28Z</time>
      </trkpt>
      <trkpt lat="42.81214" lon="2.87625">
        <ele>45</ele>
        <time>2021-03-28T06:26:28Z</time>
      </trkpt>
      <trkpt lat="42.81223" lon="2.87626">
        <ele>45</ele>
        <time>2021-03-28T06:26:29Z</time>
      </trkpt>
      <trkpt lat="42.81223" lon="2.87626">
        <ele>45</ele>
        <time>2021-03-28T06:26:29Z</time>
      </trkpt>
      <trkpt lat="42.81231" lon="2.87628">
        <ele>45.3</ele>
        <time>2021-03-28T06:26:30Z</time>
      </trkpt>
      <trkpt lat="42.81231" lon="2.87628">
        <ele>45.3</ele>
        <time>2021-03-28T06:26:30Z</time>
      </trkpt>
      <trkpt lat="42.81241" lon="2.87629">
        <ele>45.7</ele>
        <time>2021-03-28T06:26:32Z</time>
      </trkpt>
      <trkpt lat="42.81241" lon="2.87629">
        <ele>45.7</ele>
        <time>2021-03-28T06:26:32Z</time>
      </trkpt>
      <trkpt lat="42.81249" lon="2.87631">
        <ele>45.9</ele>
        <time>2021-03-28T06:26:33Z</time>
      </trkpt>
      <trkpt lat="42.81249" lon="2.87631">
        <ele>45.9</ele>
        <time>2021-03-28T06:26:33Z</time>
      </trkpt>
      <trkpt lat="42.81258" lon="2.87632">
        <ele>45.8</ele>
        <time>2021-03-28T06:26:35Z</time>
      </trkpt>
      <trkpt lat="42.81258" lon="2.87632">
        <ele>45.8</ele>
        <time>2021-03-28T06:26:35Z</time>
      </trkpt>
      <trkpt lat="42.81266" lon="2.87634">
        <ele>45.5</ele>
        <time>2021-03-28T06:26:36Z</time>
      </trkpt>
      <trkpt lat="42.81266" lon="2.87634">
        <ele>45.5</ele>
        <time>2021-03-28T06:26:36Z</time>
      </trkpt>
      <trkpt lat="42.81274" lon="2.87635">
        <ele>45.3</ele>
        <time>2021-03-28T06:26:37Z</time>
      </trkpt>
      <trkpt lat="42.81274" lon="2.87635">
        <ele>45.3</ele>
        <time>2021-03-28T06:26:37Z</time>
      </trkpt>
      <trkpt lat="42.81283" lon="2.87636">
        <ele>45.1</ele>
        <time>2021-03-28T06:26:39Z</time>
      </trkpt>
      <trkpt lat="42.81283" lon="2.87636">
        <ele>45.1</ele>
        <time>2021-03-28T06:26:39Z</time>
      </trkpt>
      <trkpt lat="42.81293" lon="2.87638">
        <ele>45</ele>
        <time>2021-03-28T06:26:41Z</time>
      </trkpt>
      <trkpt lat="42.81293" lon="2.87638">
        <ele>45</ele>
        <time>2021-03-28T06:26:41Z</time>
      </trkpt>
      <trkpt lat="42.81301" lon="2.8764">
        <ele>45</ele>
        <time>2021-03-28T06:26:42Z</time>
      </trkpt>
      <trkpt lat="42.81301" lon="2.8764">
        <ele>45</ele>
        <time>2021-03-28T06:26:42Z</time>
      </trkpt>
      <trkpt lat="42.81311" lon="2.87643">
        <ele>45.2</ele>
        <time>2021-03-28T06:26:44Z</time>
      </trkpt>
      <trkpt lat="42.81311" lon="2.87643">
        <ele>45.2</ele>
        <time>2021-03-28T06:26:44Z</time>
      </trkpt>
      <trkpt lat="42.8132" lon="2.87647">
        <ele>45.4</ele>
        <time>2021-03-28T06:26:46Z</time>
      </trkpt>
      <trkpt lat="42.8132" lon="2.87647">
        <ele>45.4</ele>
        <time>2021-03-28T06:26:46Z</time>
      </trkpt>
      <trkpt lat="42.81329" lon="2.8765">
        <ele>45.5</ele>
        <time>2021-03-28T06:26:47Z</time>
      </trkpt>
      <trkpt lat="42.81329" lon="2.8765">
        <ele>45.5</ele>
        <time>2021-03-28T06:26:47Z</time>
      </trkpt>
      <trkpt lat="42.81338" lon="2.87654">
        <ele>45.5</ele>
        <time>2021-03-28T06:26:49Z</time>
      </trkpt>
      <trkpt lat="42.81338" lon="2.87654">
        <ele>45.5</ele>
        <time>2021-03-28T06:26:49Z</time>
      </trkpt>
      <trkpt lat="42.81348" lon="2.87657">
        <ele>45.3</ele>
        <time>2021-03-28T06:26:51Z</time>
      </trkpt>
      <trkpt lat="42.81348" lon="2.87657">
        <ele>45.3</ele>
        <time>2021-03-28T06:26:51Z</time>
      </trkpt>
      <trkpt lat="42.81356" lon="2.87661">
        <ele>45.2</ele>
        <time>2021-03-28T06:26:52Z</time>
      </trkpt>
      <trkpt lat="42.81356" lon="2.87661">
        <ele>45.2</ele>
        <time>2021-03-28T06:26:52Z</time>
      </trkpt>
      <trkpt lat="42.81365" lon="2.87664">
        <ele>45.1</ele>
        <time>2021-03-28T06:26:54Z</time>
      </trkpt>
      <trkpt lat="42.81365" lon="2.87664">
        <ele>45.1</ele>
        <time>2021-03-28T06:26:54Z</time>
      </trkpt>
      <trkpt lat="42.81373" lon="2.87667">
        <ele>45</ele>
        <time>2021-03-28T06:26:55Z</time>
      </trkpt>
      <trkpt lat="42.81373" lon="2.87667">
        <ele>45</ele>
        <time>2021-03-28T06:26:55Z</time>
      </trkpt>
      <trkpt lat="42.8138" lon="2.8767">
        <ele>45</ele>
        <time>2021-03-28T06:26:56Z</time>
      </trkpt>
      <trkpt lat="42.8138" lon="2.8767">
        <ele>45</ele>
        <time>2021-03-28T06:26:56Z</time>
      </trkpt>
      <trkpt lat="42.81388" lon="2.87673">
        <ele>45</ele>
        <time>2021-03-28T06:26:58Z</time>
      </trkpt>
      <trkpt lat="42.81388" lon="2.87673">
        <ele>45</ele>
        <time>2021-03-28T06:26:58Z</time>
      </trkpt>
      <trkpt lat="42.81396" lon="2.87676">
        <ele>45</ele>
        <time>2021-03-28T06:26:59Z</time>
      </trkpt>
      <trkpt lat="42.81396" lon="2.87676">
        <ele>45</ele>
        <time>2021-03-28T06:26:59Z</time>
      </trkpt>
      <trkpt lat="42.81405" lon="2.87678">
        <ele>45</ele>
        <time>2021-03-28T06:27:01Z</time>
      </trkpt>
      <trkpt lat="42.81405" lon="2.87678">
        <ele>45</ele>
        <time>2021-03-28T06:27:01Z</time>
      </trkpt>
      <trkpt lat="42.81415" lon="2.87681">
        <ele>45</ele>
        <time>2021-03-28T06:27:03Z</time>
      </trkpt>
      <trkpt lat="42.81415" lon="2.87681">
        <ele>45</ele>
        <time>2021-03-28T06:27:03Z</time>
      </trkpt>
      <trkpt lat="42.81423" lon="2.87684">
        <ele>45</ele>
        <time>2021-03-28T06:27:04Z</time>
      </trkpt>
      <trkpt lat="42.81423" lon="2.87684">
        <ele>45</ele>
        <time>2021-03-28T06:27:04Z</time>
      </trkpt>
      <trkpt lat="42.81432" lon="2.87687">
        <ele>45</ele>
        <time>2021-03-28T06:27:06Z</time>
      </trkpt>
      <trkpt lat="42.81432" lon="2.87687">
        <ele>45</ele>
        <time>2021-03-28T06:27:06Z</time>
      </trkpt>
      <trkpt lat="42.81442" lon="2.87691">
        <ele>45</ele>
        <time>2021-03-28T06:27:08Z</time>
      </trkpt>
      <trkpt lat="42.81442" lon="2.87691">
        <ele>45</ele>
        <time>2021-03-28T06:27:08Z</time>
      </trkpt>
      <trkpt lat="42.81452" lon="2.87694">
        <ele>45</ele>
        <time>2021-03-28T06:27:10Z</time>
      </trkpt>
      <trkpt lat="42.81452" lon="2.87694">
        <ele>45</ele>
        <time>2021-03-28T06:27:10Z</time>
      </trkpt>
      <trkpt lat="42.81461" lon="2.87697">
        <ele>45</ele>
        <time>2021-03-28T06:27:11Z</time>
      </trkpt>
      <trkpt lat="42.81461" lon="2.87697">
        <ele>45</ele>
        <time>2021-03-28T06:27:11Z</time>
      </trkpt>
      <trkpt lat="42.8147" lon="2.877">
        <ele>45</ele>
        <time>2021-03-28T06:27:13Z</time>
      </trkpt>
      <trkpt lat="42.8147" lon="2.877">
        <ele>45</ele>
        <time>2021-03-28T06:27:13Z</time>
      </trkpt>
      <trkpt lat="42.8148" lon="2.87704">
        <ele>45</ele>
        <time>2021-03-28T06:27:15Z</time>
      </trkpt>
      <trkpt lat="42.8148" lon="2.87704">
        <ele>45</ele>
        <time>2021-03-28T06:27:15Z</time>
      </trkpt>
      <trkpt lat="42.81489" lon="2.87707">
        <ele>45</ele>
        <time>2021-03-28T06:27:16Z</time>
      </trkpt>
      <trkpt lat="42.81489" lon="2.87707">
        <ele>45</ele>
        <time>2021-03-28T06:27:16Z</time>
      </trkpt>
      <trkpt lat="42.81496" lon="2.8771">
        <ele>45</ele>
        <time>2021-03-28T06:27:17Z</time>
      </trkpt>
      <trkpt lat="42.81496" lon="2.8771">
        <ele>45</ele>
        <time>2021-03-28T06:27:17Z</time>
      </trkpt>
      <trkpt lat="42.81503" lon="2.87713">
        <ele>45</ele>
        <time>2021-03-28T06:27:18Z</time>
      </trkpt>
      <trkpt lat="42.81503" lon="2.87713">
        <ele>45</ele>
        <time>2021-03-28T06:27:18Z</time>
      </trkpt>
      <trkpt lat="42.81511" lon="2.87716">
        <ele>45</ele>
        <time>2021-03-28T06:27:20Z</time>
      </trkpt>
      <trkpt lat="42.81511" lon="2.87716">
        <ele>45</ele>
        <time>2021-03-28T06:27:20Z</time>
      </trkpt>
      <trkpt lat="42.81518" lon="2.87718">
        <ele>45</ele>
        <time>2021-03-28T06:27:21Z</time>
      </trkpt>
      <trkpt lat="42.81518" lon="2.87718">
        <ele>45</ele>
        <time>2021-03-28T06:27:21Z</time>
      </trkpt>
      <trkpt lat="42.81526" lon="2.87722">
        <ele>45</ele>
        <time>2021-03-28T06:27:23Z</time>
      </trkpt>
      <trkpt lat="42.81526" lon="2.87722">
        <ele>45</ele>
        <time>2021-03-28T06:27:23Z</time>
      </trkpt>
      <trkpt lat="42.81534" lon="2.87724">
        <ele>45</ele>
        <time>2021-03-28T06:27:24Z</time>
      </trkpt>
      <trkpt lat="42.81534" lon="2.87724">
        <ele>45</ele>
        <time>2021-03-28T06:27:24Z</time>
      </trkpt>
      <trkpt lat="42.81543" lon="2.87727">
        <ele>45</ele>
        <time>2021-03-28T06:27:26Z</time>
      </trkpt>
      <trkpt lat="42.81543" lon="2.87727">
        <ele>45</ele>
        <time>2021-03-28T06:27:26Z</time>
      </trkpt>
      <trkpt lat="42.81552" lon="2.8773">
        <ele>45</ele>
        <time>2021-03-28T06:27:28Z</time>
      </trkpt>
      <trkpt lat="42.81552" lon="2.8773">
        <ele>45</ele>
        <time>2021-03-28T06:27:28Z</time>
      </trkpt>
      <trkpt lat="42.81561" lon="2.87733">
        <ele>45</ele>
        <time>2021-03-28T06:27:29Z</time>
      </trkpt>
      <trkpt lat="42.81561" lon="2.87733">
        <ele>45</ele>
        <time>2021-03-28T06:27:29Z</time>
      </trkpt>
      <trkpt lat="42.81568" lon="2.87736">
        <ele>45</ele>
        <time>2021-03-28T06:27:30Z</time>
      </trkpt>
      <trkpt lat="42.81568" lon="2.87736">
        <ele>45</ele>
        <time>2021-03-28T06:27:30Z</time>
      </trkpt>
      <trkpt lat="42.81575" lon="2.87738">
        <ele>45</ele>
        <time>2021-03-28T06:27:31Z</time>
      </trkpt>
      <trkpt lat="42.81575" lon="2.87738">
        <ele>45</ele>
        <time>2021-03-28T06:27:31Z</time>
      </trkpt>
      <trkpt lat="42.81583" lon="2.87741">
        <ele>45</ele>
        <time>2021-03-28T06:27:33Z</time>
      </trkpt>
      <trkpt lat="42.81583" lon="2.87741">
        <ele>45</ele>
        <time>2021-03-28T06:27:33Z</time>
      </trkpt>
      <trkpt lat="42.81592" lon="2.87745">
        <ele>45</ele>
        <time>2021-03-28T06:27:35Z</time>
      </trkpt>
      <trkpt lat="42.81592" lon="2.87745">
        <ele>45</ele>
        <time>2021-03-28T06:27:35Z</time>
      </trkpt>
      <trkpt lat="42.81602" lon="2.87748">
        <ele>45</ele>
        <time>2021-03-28T06:27:37Z</time>
      </trkpt>
      <trkpt lat="42.81602" lon="2.87748">
        <ele>45</ele>
        <time>2021-03-28T06:27:37Z</time>
      </trkpt>
      <trkpt lat="42.81612" lon="2.87751">
        <ele>45</ele>
        <time>2021-03-28T06:27:39Z</time>
      </trkpt>
      <trkpt lat="42.81612" lon="2.87751">
        <ele>45</ele>
        <time>2021-03-28T06:27:39Z</time>
      </trkpt>
      <trkpt lat="42.81622" lon="2.87755">
        <ele>44.8</ele>
        <time>2021-03-28T06:27:41Z</time>
      </trkpt>
      <trkpt lat="42.81622" lon="2.87755">
        <ele>44.8</ele>
        <time>2021-03-28T06:27:41Z</time>
      </trkpt>
      <trkpt lat="42.81631" lon="2.87757">
        <ele>44.7</ele>
        <time>2021-03-28T06:27:42Z</time>
      </trkpt>
      <trkpt lat="42.81631" lon="2.87757">
        <ele>44.7</ele>
        <time>2021-03-28T06:27:42Z</time>
      </trkpt>
      <trkpt lat="42.81639" lon="2.87759">
        <ele>44.7</ele>
        <time>2021-03-28T06:27:43Z</time>
      </trkpt>
      <trkpt lat="42.81639" lon="2.87759">
        <ele>44.7</ele>
        <time>2021-03-28T06:27:43Z</time>
      </trkpt>
      <trkpt lat="42.81648" lon="2.8776">
        <ele>44.4</ele>
        <time>2021-03-28T06:27:45Z</time>
      </trkpt>
      <trkpt lat="42.81648" lon="2.8776">
        <ele>44.4</ele>
        <time>2021-03-28T06:27:45Z</time>
      </trkpt>
      <trkpt lat="42.81658" lon="2.87761">
        <ele>44.2</ele>
        <time>2021-03-28T06:27:47Z</time>
      </trkpt>
      <trkpt lat="42.81658" lon="2.87761">
        <ele>44.2</ele>
        <time>2021-03-28T06:27:47Z</time>
      </trkpt>
      <trkpt lat="42.81668" lon="2.87763">
        <ele>44</ele>
        <time>2021-03-28T06:27:49Z</time>
      </trkpt>
      <trkpt lat="42.81668" lon="2.87763">
        <ele>44</ele>
        <time>2021-03-28T06:27:49Z</time>
      </trkpt>
      <trkpt lat="42.81677" lon="2.87763">
        <ele>44</ele>
        <time>2021-03-28T06:27:50Z</time>
      </trkpt>
      <trkpt lat="42.81677" lon="2.87763">
        <ele>44</ele>
        <time>2021-03-28T06:27:50Z</time>
      </trkpt>
      <trkpt lat="42.81686" lon="2.87764">
        <ele>44</ele>
        <time>2021-03-28T06:27:52Z</time>
      </trkpt>
      <trkpt lat="42.81686" lon="2.87764">
        <ele>44</ele>
        <time>2021-03-28T06:27:52Z</time>
      </trkpt>
      <trkpt lat="42.81697" lon="2.87765">
        <ele>44</ele>
        <time>2021-03-28T06:27:54Z</time>
      </trkpt>
      <trkpt lat="42.81697" lon="2.87765">
        <ele>44</ele>
        <time>2021-03-28T06:27:54Z</time>
      </trkpt>
      <trkpt lat="42.81706" lon="2.87766">
        <ele>44</ele>
        <time>2021-03-28T06:27:55Z</time>
      </trkpt>
      <trkpt lat="42.81706" lon="2.87766">
        <ele>44</ele>
        <time>2021-03-28T06:27:55Z</time>
      </trkpt>
      <trkpt lat="42.81714" lon="2.87767">
        <ele>44</ele>
        <time>2021-03-28T06:27:56Z</time>
      </trkpt>
      <trkpt lat="42.81714" lon="2.87767">
        <ele>44</ele>
        <time>2021-03-28T06:27:56Z</time>
      </trkpt>
      <trkpt lat="42.81721" lon="2.87768">
        <ele>44</ele>
        <time>2021-03-28T06:27:57Z</time>
      </trkpt>
      <trkpt lat="42.81721" lon="2.87768">
        <ele>44</ele>
        <time>2021-03-28T06:27:57Z</time>
      </trkpt>
      <trkpt lat="42.8173" lon="2.8777">
        <ele>44</ele>
        <time>2021-03-28T06:27:59Z</time>
      </trkpt>
      <trkpt lat="42.8173" lon="2.8777">
        <ele>44</ele>
        <time>2021-03-28T06:27:59Z</time>
      </trkpt>
      <trkpt lat="42.81737" lon="2.87771">
        <ele>44</ele>
        <time>2021-03-28T06:28:00Z</time>
      </trkpt>
      <trkpt lat="42.81737" lon="2.87771">
        <ele>44</ele>
        <time>2021-03-28T06:28:00Z</time>
      </trkpt>
      <trkpt lat="42.81746" lon="2.87771">
        <ele>44</ele>
        <time>2021-03-28T06:28:02Z</time>
      </trkpt>
      <trkpt lat="42.81746" lon="2.87771">
        <ele>44</ele>
        <time>2021-03-28T06:28:02Z</time>
      </trkpt>
      <trkpt lat="42.81754" lon="2.87772">
        <ele>44</ele>
        <time>2021-03-28T06:28:03Z</time>
      </trkpt>
      <trkpt lat="42.81754" lon="2.87772">
        <ele>44</ele>
        <time>2021-03-28T06:28:03Z</time>
      </trkpt>
      <trkpt lat="42.81763" lon="2.87775">
        <ele>44</ele>
        <time>2021-03-28T06:28:05Z</time>
      </trkpt>
      <trkpt lat="42.81763" lon="2.87775">
        <ele>44</ele>
        <time>2021-03-28T06:28:05Z</time>
      </trkpt>
      <trkpt lat="42.81771" lon="2.87777">
        <ele>44</ele>
        <time>2021-03-28T06:28:06Z</time>
      </trkpt>
      <trkpt lat="42.81771" lon="2.87777">
        <ele>44</ele>
        <time>2021-03-28T06:28:06Z</time>
      </trkpt>
      <trkpt lat="42.8178" lon="2.8778">
        <ele>44</ele>
        <time>2021-03-28T06:28:08Z</time>
      </trkpt>
      <trkpt lat="42.8178" lon="2.8778">
        <ele>44</ele>
        <time>2021-03-28T06:28:08Z</time>
      </trkpt>
      <trkpt lat="42.81787" lon="2.87784">
        <ele>44</ele>
        <time>2021-03-28T06:28:09Z</time>
      </trkpt>
      <trkpt lat="42.81787" lon="2.87784">
        <ele>44</ele>
        <time>2021-03-28T06:28:09Z</time>
      </trkpt>
      <trkpt lat="42.81795" lon="2.87789">
        <ele>44</ele>
        <time>2021-03-28T06:28:11Z</time>
      </trkpt>
      <trkpt lat="42.81795" lon="2.87789">
        <ele>44</ele>
        <time>2021-03-28T06:28:11Z</time>
      </trkpt>
      <trkpt lat="42.81803" lon="2.87792">
        <ele>44</ele>
        <time>2021-03-28T06:28:12Z</time>
      </trkpt>
      <trkpt lat="42.81803" lon="2.87792">
        <ele>44</ele>
        <time>2021-03-28T06:28:12Z</time>
      </trkpt>
      <trkpt lat="42.81809" lon="2.87796">
        <ele>44</ele>
        <time>2021-03-28T06:28:13Z</time>
      </trkpt>
      <trkpt lat="42.81809" lon="2.87796">
        <ele>44</ele>
        <time>2021-03-28T06:28:13Z</time>
      </trkpt>
      <trkpt lat="42.81815" lon="2.87799">
        <ele>44</ele>
        <time>2021-03-28T06:28:14Z</time>
      </trkpt>
      <trkpt lat="42.81815" lon="2.87799">
        <ele>44</ele>
        <time>2021-03-28T06:28:14Z</time>
      </trkpt>
      <trkpt lat="42.81821" lon="2.87802">
        <ele>44</ele>
        <time>2021-03-28T06:28:15Z</time>
      </trkpt>
      <trkpt lat="42.81821" lon="2.87802">
        <ele>44</ele>
        <time>2021-03-28T06:28:15Z</time>
      </trkpt>
      <trkpt lat="42.81828" lon="2.87806">
        <ele>44</ele>
        <time>2021-03-28T06:28:17Z</time>
      </trkpt>
      <trkpt lat="42.81828" lon="2.87806">
        <ele>44</ele>
        <time>2021-03-28T06:28:17Z</time>
      </trkpt>
      <trkpt lat="42.81838" lon="2.87811">
        <ele>44</ele>
        <time>2021-03-28T06:28:19Z</time>
      </trkpt>
      <trkpt lat="42.81838" lon="2.87811">
        <ele>44</ele>
        <time>2021-03-28T06:28:19Z</time>
      </trkpt>
      <trkpt lat="42.81847" lon="2.87816">
        <ele>44</ele>
        <time>2021-03-28T06:28:21Z</time>
      </trkpt>
      <trkpt lat="42.81847" lon="2.87816">
        <ele>44</ele>
        <time>2021-03-28T06:28:21Z</time>
      </trkpt>
      <trkpt lat="42.81855" lon="2.8782">
        <ele>44</ele>
        <time>2021-03-28T06:28:22Z</time>
      </trkpt>
      <trkpt lat="42.81855" lon="2.8782">
        <ele>44</ele>
        <time>2021-03-28T06:28:22Z</time>
      </trkpt>
      <trkpt lat="42.81864" lon="2.87823">
        <ele>44</ele>
        <time>2021-03-28T06:28:24Z</time>
      </trkpt>
      <trkpt lat="42.81864" lon="2.87823">
        <ele>44</ele>
        <time>2021-03-28T06:28:24Z</time>
      </trkpt>
      <trkpt lat="42.81872" lon="2.87826">
        <ele>44</ele>
        <time>2021-03-28T06:28:25Z</time>
      </trkpt>
      <trkpt lat="42.81872" lon="2.87826">
        <ele>44</ele>
        <time>2021-03-28T06:28:25Z</time>
      </trkpt>
      <trkpt lat="42.81879" lon="2.87827">
        <ele>44</ele>
        <time>2021-03-28T06:28:26Z</time>
      </trkpt>
      <trkpt lat="42.81879" lon="2.87827">
        <ele>44</ele>
        <time>2021-03-28T06:28:26Z</time>
      </trkpt>
      <trkpt lat="42.81887" lon="2.87828">
        <ele>44</ele>
        <time>2021-03-28T06:28:28Z</time>
      </trkpt>
      <trkpt lat="42.81887" lon="2.87828">
        <ele>44</ele>
        <time>2021-03-28T06:28:28Z</time>
      </trkpt>
      <trkpt lat="42.81893" lon="2.87829">
        <ele>44.1</ele>
        <time>2021-03-28T06:28:29Z</time>
      </trkpt>
      <trkpt lat="42.81893" lon="2.87829">
        <ele>44.1</ele>
        <time>2021-03-28T06:28:29Z</time>
      </trkpt>
      <trkpt lat="42.81901" lon="2.87829">
        <ele>44.4</ele>
        <time>2021-03-28T06:28:31Z</time>
      </trkpt>
      <trkpt lat="42.81901" lon="2.87829">
        <ele>44.4</ele>
        <time>2021-03-28T06:28:31Z</time>
      </trkpt>
      <trkpt lat="42.8191" lon="2.8783">
        <ele>44.7</ele>
        <time>2021-03-28T06:28:33Z</time>
      </trkpt>
      <trkpt lat="42.8191" lon="2.8783">
        <ele>44.7</ele>
        <time>2021-03-28T06:28:33Z</time>
      </trkpt>
      <trkpt lat="42.8192" lon="2.87831">
        <ele>44.9</ele>
        <time>2021-03-28T06:28:35Z</time>
      </trkpt>
      <trkpt lat="42.8192" lon="2.87831">
        <ele>44.9</ele>
        <time>2021-03-28T06:28:35Z</time>
      </trkpt>
      <trkpt lat="42.8193" lon="2.87832">
        <ele>45</ele>
        <time>2021-03-28T06:28:37Z</time>
      </trkpt>
      <trkpt lat="42.8193" lon="2.87832">
        <ele>45</ele>
        <time>2021-03-28T06:28:37Z</time>
      </trkpt>
      <trkpt lat="42.81939" lon="2.87833">
        <ele>45</ele>
        <time>2021-03-28T06:28:38Z</time>
      </trkpt>
      <trkpt lat="42.81939" lon="2.87833">
        <ele>45</ele>
        <time>2021-03-28T06:28:38Z</time>
      </trkpt>
      <trkpt lat="42.81946" lon="2.87834">
        <ele>45</ele>
        <time>2021-03-28T06:28:39Z</time>
      </trkpt>
      <trkpt lat="42.81946" lon="2.87834">
        <ele>45</ele>
        <time>2021-03-28T06:28:39Z</time>
      </trkpt>
      <trkpt lat="42.81955" lon="2.87834">
        <ele>45</ele>
        <time>2021-03-28T06:28:41Z</time>
      </trkpt>
      <trkpt lat="42.81955" lon="2.87834">
        <ele>45</ele>
        <time>2021-03-28T06:28:41Z</time>
      </trkpt>
      <trkpt lat="42.81965" lon="2.87834">
        <ele>45</ele>
        <time>2021-03-28T06:28:43Z</time>
      </trkpt>
      <trkpt lat="42.81965" lon="2.87834">
        <ele>45</ele>
        <time>2021-03-28T06:28:43Z</time>
      </trkpt>
      <trkpt lat="42.81973" lon="2.87835">
        <ele>45</ele>
        <time>2021-03-28T06:28:44Z</time>
      </trkpt>
      <trkpt lat="42.81973" lon="2.87835">
        <ele>45</ele>
        <time>2021-03-28T06:28:44Z</time>
      </trkpt>
      <trkpt lat="42.81983" lon="2.87835">
        <ele>45</ele>
        <time>2021-03-28T06:28:46Z</time>
      </trkpt>
      <trkpt lat="42.81983" lon="2.87835">
        <ele>45</ele>
        <time>2021-03-28T06:28:46Z</time>
      </trkpt>
      <trkpt lat="42.81991" lon="2.87836">
        <ele>45</ele>
        <time>2021-03-28T06:28:47Z</time>
      </trkpt>
      <trkpt lat="42.81991" lon="2.87836">
        <ele>45</ele>
        <time>2021-03-28T06:28:47Z</time>
      </trkpt>
      <trkpt lat="42.81999" lon="2.87837">
        <ele>45</ele>
        <time>2021-03-28T06:28:49Z</time>
      </trkpt>
      <trkpt lat="42.81999" lon="2.87837">
        <ele>45</ele>
        <time>2021-03-28T06:28:49Z</time>
      </trkpt>
      <trkpt lat="42.82008" lon="2.8784">
        <ele>45</ele>
        <time>2021-03-28T06:28:51Z</time>
      </trkpt>
      <trkpt lat="42.82008" lon="2.8784">
        <ele>45</ele>
        <time>2021-03-28T06:28:51Z</time>
      </trkpt>
      <trkpt lat="42.82017" lon="2.87844">
        <ele>45</ele>
        <time>2021-03-28T06:28:53Z</time>
      </trkpt>
      <trkpt lat="42.82017" lon="2.87844">
        <ele>45</ele>
        <time>2021-03-28T06:28:53Z</time>
      </trkpt>
      <trkpt lat="42.82026" lon="2.87848">
        <ele>45</ele>
        <time>2021-03-28T06:28:55Z</time>
      </trkpt>
      <trkpt lat="42.82026" lon="2.87848">
        <ele>45</ele>
        <time>2021-03-28T06:28:55Z</time>
      </trkpt>
      <trkpt lat="42.82034" lon="2.87851">
        <ele>45.2</ele>
        <time>2021-03-28T06:28:56Z</time>
      </trkpt>
      <trkpt lat="42.82034" lon="2.87851">
        <ele>45.2</ele>
        <time>2021-03-28T06:28:56Z</time>
      </trkpt>
      <trkpt lat="42.82043" lon="2.87855">
        <ele>45.5</ele>
        <time>2021-03-28T06:28:58Z</time>
      </trkpt>
      <trkpt lat="42.82043" lon="2.87855">
        <ele>45.5</ele>
        <time>2021-03-28T06:28:58Z</time>
      </trkpt>
      <trkpt lat="42.82052" lon="2.87859">
        <ele>45.9</ele>
        <time>2021-03-28T06:29:00Z</time>
      </trkpt>
      <trkpt lat="42.82052" lon="2.87859">
        <ele>45.9</ele>
        <time>2021-03-28T06:29:00Z</time>
      </trkpt>
      <trkpt lat="42.82059" lon="2.87862">
        <ele>46</ele>
        <time>2021-03-28T06:29:01Z</time>
      </trkpt>
      <trkpt lat="42.82059" lon="2.87862">
        <ele>46</ele>
        <time>2021-03-28T06:29:01Z</time>
      </trkpt>
      <trkpt lat="42.82065" lon="2.87865">
        <ele>46</ele>
        <time>2021-03-28T06:29:02Z</time>
      </trkpt>
      <trkpt lat="42.82065" lon="2.87865">
        <ele>46</ele>
        <time>2021-03-28T06:29:02Z</time>
      </trkpt>
      <trkpt lat="42.82073" lon="2.87868">
        <ele>46.2</ele>
        <time>2021-03-28T06:29:04Z</time>
      </trkpt>
      <trkpt lat="42.82073" lon="2.87868">
        <ele>46.2</ele>
        <time>2021-03-28T06:29:04Z</time>
      </trkpt>
      <trkpt lat="42.82081" lon="2.87872">
        <ele>46.3</ele>
        <time>2021-03-28T06:29:06Z</time>
      </trkpt>
      <trkpt lat="42.82081" lon="2.87872">
        <ele>46.3</ele>
        <time>2021-03-28T06:29:06Z</time>
      </trkpt>
      <trkpt lat="42.82087" lon="2.87874">
        <ele>46.6</ele>
        <time>2021-03-28T06:29:07Z</time>
      </trkpt>
      <trkpt lat="42.82087" lon="2.87874">
        <ele>46.6</ele>
        <time>2021-03-28T06:29:07Z</time>
      </trkpt>
      <trkpt lat="42.82095" lon="2.87878">
        <ele>46.8</ele>
        <time>2021-03-28T06:29:09Z</time>
      </trkpt>
      <trkpt lat="42.82095" lon="2.87878">
        <ele>46.8</ele>
        <time>2021-03-28T06:29:09Z</time>
      </trkpt>
      <trkpt lat="42.82104" lon="2.87881">
        <ele>46.9</ele>
        <time>2021-03-28T06:29:11Z</time>
      </trkpt>
      <trkpt lat="42.82104" lon="2.87881">
        <ele>46.9</ele>
        <time>2021-03-28T06:29:11Z</time>
      </trkpt>
      <trkpt lat="42.82111" lon="2.87884">
        <ele>47</ele>
        <time>2021-03-28T06:29:12Z</time>
      </trkpt>
      <trkpt lat="42.82111" lon="2.87884">
        <ele>47</ele>
        <time>2021-03-28T06:29:12Z</time>
      </trkpt>
      <trkpt lat="42.82117" lon="2.87887">
        <ele>47</ele>
        <time>2021-03-28T06:29:13Z</time>
      </trkpt>
      <trkpt lat="42.82117" lon="2.87887">
        <ele>47</ele>
        <time>2021-03-28T06:29:13Z</time>
      </trkpt>
      <trkpt lat="42.82124" lon="2.87889">
        <ele>47</ele>
        <time>2021-03-28T06:29:15Z</time>
      </trkpt>
      <trkpt lat="42.82124" lon="2.87889">
        <ele>47</ele>
        <time>2021-03-28T06:29:15Z</time>
      </trkpt>
      <trkpt lat="42.8213" lon="2.87892">
        <ele>47</ele>
        <time>2021-03-28T06:29:16Z</time>
      </trkpt>
      <trkpt lat="42.8213" lon="2.87892">
        <ele>47</ele>
        <time>2021-03-28T06:29:16Z</time>
      </trkpt>
      <trkpt lat="42.82137" lon="2.87894">
        <ele>47</ele>
        <time>2021-03-28T06:29:18Z</time>
      </trkpt>
      <trkpt lat="42.82137" lon="2.87894">
        <ele>47</ele>
        <time>2021-03-28T06:29:18Z</time>
      </trkpt>
      <trkpt lat="42.82144" lon="2.87896">
        <ele>47.2</ele>
        <time>2021-03-28T06:29:19Z</time>
      </trkpt>
      <trkpt lat="42.82144" lon="2.87896">
        <ele>47.2</ele>
        <time>2021-03-28T06:29:19Z</time>
      </trkpt>
      <trkpt lat="42.82149" lon="2.87897">
        <ele>47.4</ele>
        <time>2021-03-28T06:29:20Z</time>
      </trkpt>
      <trkpt lat="42.82149" lon="2.87897">
        <ele>47.4</ele>
        <time>2021-03-28T06:29:20Z</time>
      </trkpt>
      <trkpt lat="42.82156" lon="2.87899">
        <ele>47.6</ele>
        <time>2021-03-28T06:29:22Z</time>
      </trkpt>
      <trkpt lat="42.82156" lon="2.87899">
        <ele>47.6</ele>
        <time>2021-03-28T06:29:22Z</time>
      </trkpt>
      <trkpt lat="42.82161" lon="2.879">
        <ele>47.8</ele>
        <time>2021-03-28T06:29:23Z</time>
      </trkpt>
      <trkpt lat="42.82161" lon="2.879">
        <ele>47.8</ele>
        <time>2021-03-28T06:29:23Z</time>
      </trkpt>
      <trkpt lat="42.82167" lon="2.87901">
        <ele>48</ele>
        <time>2021-03-28T06:29:24Z</time>
      </trkpt>
      <trkpt lat="42.82167" lon="2.87901">
        <ele>48</ele>
        <time>2021-03-28T06:29:24Z</time>
      </trkpt>
      <trkpt lat="42.82172" lon="2.87902">
        <ele>48</ele>
        <time>2021-03-28T06:29:25Z</time>
      </trkpt>
      <trkpt lat="42.82172" lon="2.87902">
        <ele>48</ele>
        <time>2021-03-28T06:29:25Z</time>
      </trkpt>
      <trkpt lat="42.82178" lon="2.87904">
        <ele>48</ele>
        <time>2021-03-28T06:29:27Z</time>
      </trkpt>
      <trkpt lat="42.82178" lon="2.87904">
        <ele>48</ele>
        <time>2021-03-28T06:29:27Z</time>
      </trkpt>
      <trkpt lat="42.82184" lon="2.87905">
        <ele>48</ele>
        <time>2021-03-28T06:29:29Z</time>
      </trkpt>
      <trkpt lat="42.82184" lon="2.87905">
        <ele>48</ele>
        <time>2021-03-28T06:29:29Z</time>
      </trkpt>
      <trkpt lat="42.82191" lon="2.87907">
        <ele>48</ele>
        <time>2021-03-28T06:29:31Z</time>
      </trkpt>
      <trkpt lat="42.82191" lon="2.87907">
        <ele>48</ele>
        <time>2021-03-28T06:29:31Z</time>
      </trkpt>
      <trkpt lat="42.82199" lon="2.87908">
        <ele>48.2</ele>
        <time>2021-03-28T06:29:33Z</time>
      </trkpt>
      <trkpt lat="42.82199" lon="2.87908">
        <ele>48.2</ele>
        <time>2021-03-28T06:29:33Z</time>
      </trkpt>
      <trkpt lat="42.82207" lon="2.87909">
        <ele>48.4</ele>
        <time>2021-03-28T06:29:35Z</time>
      </trkpt>
      <trkpt lat="42.82207" lon="2.87909">
        <ele>48.4</ele>
        <time>2021-03-28T06:29:35Z</time>
      </trkpt>
      <trkpt lat="42.82215" lon="2.87911">
        <ele>48.7</ele>
        <time>2021-03-28T06:29:37Z</time>
      </trkpt>
      <trkpt lat="42.82215" lon="2.87911">
        <ele>48.7</ele>
        <time>2021-03-28T06:29:37Z</time>
      </trkpt>
      <trkpt lat="42.82221" lon="2.87913">
        <ele>49</ele>
        <time>2021-03-28T06:29:38Z</time>
      </trkpt>
      <trkpt lat="42.82221" lon="2.87913">
        <ele>49</ele>
        <time>2021-03-28T06:29:38Z</time>
      </trkpt>
      <trkpt lat="42.82227" lon="2.87915">
        <ele>49.2</ele>
        <time>2021-03-28T06:29:39Z</time>
      </trkpt>
      <trkpt lat="42.82227" lon="2.87915">
        <ele>49.2</ele>
        <time>2021-03-28T06:29:39Z</time>
      </trkpt>
      <trkpt lat="42.82234" lon="2.87916">
        <ele>49.4</ele>
        <time>2021-03-28T06:29:41Z</time>
      </trkpt>
      <trkpt lat="42.82234" lon="2.87916">
        <ele>49.4</ele>
        <time>2021-03-28T06:29:41Z</time>
      </trkpt>
      <trkpt lat="42.8224" lon="2.87918">
        <ele>49.6</ele>
        <time>2021-03-28T06:29:42Z</time>
      </trkpt>
      <trkpt lat="42.8224" lon="2.87918">
        <ele>49.6</ele>
        <time>2021-03-28T06:29:42Z</time>
      </trkpt>
      <trkpt lat="42.82245" lon="2.87919">
        <ele>49.7</ele>
        <time>2021-03-28T06:29:43Z</time>
      </trkpt>
      <trkpt lat="42.82245" lon="2.87919">
        <ele>49.7</ele>
        <time>2021-03-28T06:29:43Z</time>
      </trkpt>
      <trkpt lat="42.82251" lon="2.8792">
        <ele>49.9</ele>
        <time>2021-03-28T06:29:45Z</time>
      </trkpt>
      <trkpt lat="42.82251" lon="2.8792">
        <ele>49.9</ele>
        <time>2021-03-28T06:29:45Z</time>
      </trkpt>
      <trkpt lat="42.82257" lon="2.87921">
        <ele>49.9</ele>
        <time>2021-03-28T06:29:47Z</time>
      </trkpt>
      <trkpt lat="42.82257" lon="2.87921">
        <ele>49.9</ele>
        <time>2021-03-28T06:29:47Z</time>
      </trkpt>
      <trkpt lat="42.82262" lon="2.87922">
        <ele>49.9</ele>
        <time>2021-03-28T06:29:48Z</time>
      </trkpt>
      <trkpt lat="42.82262" lon="2.87922">
        <ele>49.9</ele>
        <time>2021-03-28T06:29:48Z</time>
      </trkpt>
      <trkpt lat="42.82268" lon="2.87922">
        <ele>49.9</ele>
        <time>2021-03-28T06:29:50Z</time>
      </trkpt>
      <trkpt lat="42.82268" lon="2.87922">
        <ele>49.9</ele>
        <time>2021-03-28T06:29:50Z</time>
      </trkpt>
      <trkpt lat="42.82275" lon="2.8792">
        <ele>50</ele>
        <time>2021-03-28T06:29:52Z</time>
      </trkpt>
      <trkpt lat="42.82275" lon="2.8792">
        <ele>50</ele>
        <time>2021-03-28T06:29:52Z</time>
      </trkpt>
      <trkpt lat="42.8228" lon="2.87918">
        <ele>50.1</ele>
        <time>2021-03-28T06:29:53Z</time>
      </trkpt>
      <trkpt lat="42.8228" lon="2.87918">
        <ele>50.1</ele>
        <time>2021-03-28T06:29:53Z</time>
      </trkpt>
      <trkpt lat="42.82286" lon="2.87916">
        <ele>50.3</ele>
        <time>2021-03-28T06:29:55Z</time>
      </trkpt>
      <trkpt lat="42.82286" lon="2.87916">
        <ele>50.3</ele>
        <time>2021-03-28T06:29:55Z</time>
      </trkpt>
      <trkpt lat="42.82292" lon="2.87914">
        <ele>50.6</ele>
        <time>2021-03-28T06:29:56Z</time>
      </trkpt>
      <trkpt lat="42.82292" lon="2.87914">
        <ele>50.6</ele>
        <time>2021-03-28T06:29:56Z</time>
      </trkpt>
      <trkpt lat="42.82299" lon="2.87913">
        <ele>50.8</ele>
        <time>2021-03-28T06:29:58Z</time>
      </trkpt>
      <trkpt lat="42.82299" lon="2.87913">
        <ele>50.8</ele>
        <time>2021-03-28T06:29:58Z</time>
      </trkpt>
      <trkpt lat="42.82306" lon="2.87911">
        <ele>51</ele>
        <time>2021-03-28T06:30:00Z</time>
      </trkpt>
      <trkpt lat="42.82306" lon="2.87911">
        <ele>51</ele>
        <time>2021-03-28T06:30:00Z</time>
      </trkpt>
      <trkpt lat="42.82312" lon="2.87909">
        <ele>51</ele>
        <time>2021-03-28T06:30:01Z</time>
      </trkpt>
      <trkpt lat="42.82312" lon="2.87909">
        <ele>51</ele>
        <time>2021-03-28T06:30:01Z</time>
      </trkpt>
      <trkpt lat="42.82319" lon="2.87907">
        <ele>51</ele>
        <time>2021-03-28T06:30:03Z</time>
      </trkpt>
      <trkpt lat="42.82319" lon="2.87907">
        <ele>51</ele>
        <time>2021-03-28T06:30:03Z</time>
      </trkpt>
      <trkpt lat="42.82326" lon="2.87905">
        <ele>51</ele>
        <time>2021-03-28T06:30:05Z</time>
      </trkpt>
      <trkpt lat="42.82326" lon="2.87905">
        <ele>51</ele>
        <time>2021-03-28T06:30:05Z</time>
      </trkpt>
      <trkpt lat="42.82332" lon="2.87903">
        <ele>51</ele>
        <time>2021-03-28T06:30:06Z</time>
      </trkpt>
      <trkpt lat="42.82332" lon="2.87903">
        <ele>51</ele>
        <time>2021-03-28T06:30:06Z</time>
      </trkpt>
      <trkpt lat="42.82337" lon="2.87901">
        <ele>51</ele>
        <time>2021-03-28T06:30:07Z</time>
      </trkpt>
      <trkpt lat="42.82337" lon="2.87901">
        <ele>51</ele>
        <time>2021-03-28T06:30:07Z</time>
      </trkpt>
      <trkpt lat="42.82343" lon="2.87899">
        <ele>51</ele>
        <time>2021-03-28T06:30:09Z</time>
      </trkpt>
      <trkpt lat="42.82343" lon="2.87899">
        <ele>51</ele>
        <time>2021-03-28T06:30:09Z</time>
      </trkpt>
      <trkpt lat="42.82349" lon="2.87897">
        <ele>51</ele>
        <time>2021-03-28T06:30:10Z</time>
      </trkpt>
      <trkpt lat="42.82349" lon="2.87897">
        <ele>51</ele>
        <time>2021-03-28T06:30:10Z</time>
      </trkpt>
      <trkpt lat="42.82354" lon="2.87896">
        <ele>51</ele>
        <time>2021-03-28T06:30:11Z</time>
      </trkpt>
      <trkpt lat="42.82354" lon="2.87896">
        <ele>51</ele>
        <time>2021-03-28T06:30:11Z</time>
      </trkpt>
      <trkpt lat="42.8236" lon="2.87894">
        <ele>51</ele>
        <time>2021-03-28T06:30:13Z</time>
      </trkpt>
      <trkpt lat="42.8236" lon="2.87894">
        <ele>51</ele>
        <time>2021-03-28T06:30:13Z</time>
      </trkpt>
      <trkpt lat="42.82366" lon="2.87892">
        <ele>51.2</ele>
        <time>2021-03-28T06:30:14Z</time>
      </trkpt>
      <trkpt lat="42.82366" lon="2.87892">
        <ele>51.2</ele>
        <time>2021-03-28T06:30:14Z</time>
      </trkpt>
      <trkpt lat="42.82372" lon="2.8789">
        <ele>51.4</ele>
        <time>2021-03-28T06:30:16Z</time>
      </trkpt>
      <trkpt lat="42.82372" lon="2.8789">
        <ele>51.4</ele>
        <time>2021-03-28T06:30:16Z</time>
      </trkpt>
      <trkpt lat="42.82378" lon="2.87889">
        <ele>51.6</ele>
        <time>2021-03-28T06:30:17Z</time>
      </trkpt>
      <trkpt lat="42.82378" lon="2.87889">
        <ele>51.6</ele>
        <time>2021-03-28T06:30:17Z</time>
      </trkpt>
      <trkpt lat="42.82385" lon="2.87888">
        <ele>51.8</ele>
        <time>2021-03-28T06:30:19Z</time>
      </trkpt>
      <trkpt lat="42.82385" lon="2.87888">
        <ele>51.8</ele>
        <time>2021-03-28T06:30:19Z</time>
      </trkpt>
      <trkpt lat="42.8239" lon="2.87888">
        <ele>52</ele>
        <time>2021-03-28T06:30:20Z</time>
      </trkpt>
      <trkpt lat="42.8239" lon="2.87888">
        <ele>52</ele>
        <time>2021-03-28T06:30:20Z</time>
      </trkpt>
      <trkpt lat="42.82397" lon="2.87887">
        <ele>52</ele>
        <time>2021-03-28T06:30:22Z</time>
      </trkpt>
      <trkpt lat="42.82397" lon="2.87887">
        <ele>52</ele>
        <time>2021-03-28T06:30:22Z</time>
      </trkpt>
      <trkpt lat="42.82402" lon="2.87887">
        <ele>52</ele>
        <time>2021-03-28T06:30:23Z</time>
      </trkpt>
      <trkpt lat="42.82402" lon="2.87887">
        <ele>52</ele>
        <time>2021-03-28T06:30:23Z</time>
      </trkpt>
      <trkpt lat="42.82409" lon="2.87887">
        <ele>52</ele>
        <time>2021-03-28T06:30:25Z</time>
      </trkpt>
      <trkpt lat="42.82409" lon="2.87887">
        <ele>52</ele>
        <time>2021-03-28T06:30:25Z</time>
      </trkpt>
      <trkpt lat="42.82415" lon="2.87886">
        <ele>52</ele>
        <time>2021-03-28T06:30:26Z</time>
      </trkpt>
      <trkpt lat="42.82415" lon="2.87886">
        <ele>52</ele>
        <time>2021-03-28T06:30:26Z</time>
      </trkpt>
      <trkpt lat="42.82421" lon="2.87885">
        <ele>52</ele>
        <time>2021-03-28T06:30:28Z</time>
      </trkpt>
      <trkpt lat="42.82421" lon="2.87885">
        <ele>52</ele>
        <time>2021-03-28T06:30:28Z</time>
      </trkpt>
      <trkpt lat="42.82429" lon="2.87884">
        <ele>52.1</ele>
        <time>2021-03-28T06:30:30Z</time>
      </trkpt>
      <trkpt lat="42.82429" lon="2.87884">
        <ele>52.1</ele>
        <time>2021-03-28T06:30:30Z</time>
      </trkpt>
      <trkpt lat="42.82437" lon="2.87883">
        <ele>52.1</ele>
        <time>2021-03-28T06:30:32Z</time>
      </trkpt>
      <trkpt lat="42.82437" lon="2.87883">
        <ele>52.1</ele>
        <time>2021-03-28T06:30:32Z</time>
      </trkpt>
      <trkpt lat="42.82443" lon="2.87883">
        <ele>52.2</ele>
        <time>2021-03-28T06:30:33Z</time>
      </trkpt>
      <trkpt lat="42.82443" lon="2.87883">
        <ele>52.2</ele>
        <time>2021-03-28T06:30:33Z</time>
      </trkpt>
      <trkpt lat="42.82449" lon="2.87882">
        <ele>52.3</ele>
        <time>2021-03-28T06:30:34Z</time>
      </trkpt>
      <trkpt lat="42.82449" lon="2.87882">
        <ele>52.3</ele>
        <time>2021-03-28T06:30:34Z</time>
      </trkpt>
      <trkpt lat="42.82454" lon="2.87881">
        <ele>52.3</ele>
        <time>2021-03-28T06:30:35Z</time>
      </trkpt>
      <trkpt lat="42.82454" lon="2.87881">
        <ele>52.3</ele>
        <time>2021-03-28T06:30:35Z</time>
      </trkpt>
      <trkpt lat="42.8246" lon="2.8788">
        <ele>52.3</ele>
        <time>2021-03-28T06:30:37Z</time>
      </trkpt>
      <trkpt lat="42.8246" lon="2.8788">
        <ele>52.3</ele>
        <time>2021-03-28T06:30:37Z</time>
      </trkpt>
      <trkpt lat="42.82467" lon="2.87879">
        <ele>52.4</ele>
        <time>2021-03-28T06:30:39Z</time>
      </trkpt>
      <trkpt lat="42.82467" lon="2.87879">
        <ele>52.4</ele>
        <time>2021-03-28T06:30:39Z</time>
      </trkpt>
      <trkpt lat="42.82475" lon="2.87878">
        <ele>52.4</ele>
        <time>2021-03-28T06:30:41Z</time>
      </trkpt>
      <trkpt lat="42.82475" lon="2.87878">
        <ele>52.4</ele>
        <time>2021-03-28T06:30:41Z</time>
      </trkpt>
      <trkpt lat="42.82482" lon="2.87877">
        <ele>52.4</ele>
        <time>2021-03-28T06:30:43Z</time>
      </trkpt>
      <trkpt lat="42.82482" lon="2.87877">
        <ele>52.4</ele>
        <time>2021-03-28T06:30:43Z</time>
      </trkpt>
      <trkpt lat="42.8249" lon="2.87876">
        <ele>52.5</ele>
        <time>2021-03-28T06:30:45Z</time>
      </trkpt>
      <trkpt lat="42.8249" lon="2.87876">
        <ele>52.5</ele>
        <time>2021-03-28T06:30:45Z</time>
      </trkpt>
      <trkpt lat="42.82497" lon="2.87876">
        <ele>52.5</ele>
        <time>2021-03-28T06:30:46Z</time>
      </trkpt>
      <trkpt lat="42.82497" lon="2.87876">
        <ele>52.5</ele>
        <time>2021-03-28T06:30:46Z</time>
      </trkpt>
      <trkpt lat="42.82504" lon="2.87875">
        <ele>52.6</ele>
        <time>2021-03-28T06:30:48Z</time>
      </trkpt>
      <trkpt lat="42.82504" lon="2.87875">
        <ele>52.6</ele>
        <time>2021-03-28T06:30:48Z</time>
      </trkpt>
      <trkpt lat="42.82511" lon="2.87874">
        <ele>52.9</ele>
        <time>2021-03-28T06:30:50Z</time>
      </trkpt>
      <trkpt lat="42.82511" lon="2.87874">
        <ele>52.9</ele>
        <time>2021-03-28T06:30:50Z</time>
      </trkpt>
      <trkpt lat="42.82519" lon="2.87874">
        <ele>53.2</ele>
        <time>2021-03-28T06:30:52Z</time>
      </trkpt>
      <trkpt lat="42.82519" lon="2.87874">
        <ele>53.2</ele>
        <time>2021-03-28T06:30:52Z</time>
      </trkpt>
      <trkpt lat="42.82526" lon="2.87873">
        <ele>53.5</ele>
        <time>2021-03-28T06:30:53Z</time>
      </trkpt>
      <trkpt lat="42.82526" lon="2.87873">
        <ele>53.5</ele>
        <time>2021-03-28T06:30:53Z</time>
      </trkpt>
      <trkpt lat="42.82533" lon="2.87872">
        <ele>53.6</ele>
        <time>2021-03-28T06:30:55Z</time>
      </trkpt>
      <trkpt lat="42.82533" lon="2.87872">
        <ele>53.6</ele>
        <time>2021-03-28T06:30:55Z</time>
      </trkpt>
      <trkpt lat="42.82539" lon="2.87872">
        <ele>53.6</ele>
        <time>2021-03-28T06:30:56Z</time>
      </trkpt>
      <trkpt lat="42.82539" lon="2.87872">
        <ele>53.6</ele>
        <time>2021-03-28T06:30:56Z</time>
      </trkpt>
      <trkpt lat="42.82547" lon="2.8787">
        <ele>53.7</ele>
        <time>2021-03-28T06:30:58Z</time>
      </trkpt>
      <trkpt lat="42.82547" lon="2.8787">
        <ele>53.7</ele>
        <time>2021-03-28T06:30:58Z</time>
      </trkpt>
      <trkpt lat="42.82553" lon="2.87867">
        <ele>53.8</ele>
        <time>2021-03-28T06:30:59Z</time>
      </trkpt>
      <trkpt lat="42.82553" lon="2.87867">
        <ele>53.8</ele>
        <time>2021-03-28T06:30:59Z</time>
      </trkpt>
      <trkpt lat="42.82559" lon="2.87864">
        <ele>54</ele>
        <time>2021-03-28T06:31:01Z</time>
      </trkpt>
      <trkpt lat="42.82559" lon="2.87864">
        <ele>54</ele>
        <time>2021-03-28T06:31:01Z</time>
      </trkpt>
      <trkpt lat="42.82564" lon="2.87861">
        <ele>54.3</ele>
        <time>2021-03-28T06:31:02Z</time>
      </trkpt>
      <trkpt lat="42.82564" lon="2.87861">
        <ele>54.3</ele>
        <time>2021-03-28T06:31:02Z</time>
      </trkpt>
      <trkpt lat="42.8257" lon="2.87858">
        <ele>54.5</ele>
        <time>2021-03-28T06:31:04Z</time>
      </trkpt>
      <trkpt lat="42.8257" lon="2.87858">
        <ele>54.5</ele>
        <time>2021-03-28T06:31:04Z</time>
      </trkpt>
      <trkpt lat="42.82575" lon="2.87854">
        <ele>54.5</ele>
        <time>2021-03-28T06:31:05Z</time>
      </trkpt>
      <trkpt lat="42.82575" lon="2.87854">
        <ele>54.5</ele>
        <time>2021-03-28T06:31:05Z</time>
      </trkpt>
      <trkpt lat="42.8258" lon="2.87851">
        <ele>54.6</ele>
        <time>2021-03-28T06:31:06Z</time>
      </trkpt>
      <trkpt lat="42.8258" lon="2.87851">
        <ele>54.6</ele>
        <time>2021-03-28T06:31:06Z</time>
      </trkpt>
      <trkpt lat="42.82585" lon="2.87846">
        <ele>54.5</ele>
        <time>2021-03-28T06:31:08Z</time>
      </trkpt>
      <trkpt lat="42.82585" lon="2.87846">
        <ele>54.5</ele>
        <time>2021-03-28T06:31:08Z</time>
      </trkpt>
      <trkpt lat="42.82592" lon="2.87841">
        <ele>54.5</ele>
        <time>2021-03-28T06:31:10Z</time>
      </trkpt>
      <trkpt lat="42.82592" lon="2.87841">
        <ele>54.5</ele>
        <time>2021-03-28T06:31:10Z</time>
      </trkpt>
      <trkpt lat="42.82597" lon="2.87837">
        <ele>54.6</ele>
        <time>2021-03-28T06:31:11Z</time>
      </trkpt>
      <trkpt lat="42.82597" lon="2.87837">
        <ele>54.6</ele>
        <time>2021-03-28T06:31:11Z</time>
      </trkpt>
      <trkpt lat="42.82603" lon="2.87832">
        <ele>54.7</ele>
        <time>2021-03-28T06:31:13Z</time>
      </trkpt>
      <trkpt lat="42.82603" lon="2.87832">
        <ele>54.7</ele>
        <time>2021-03-28T06:31:13Z</time>
      </trkpt>
      <trkpt lat="42.82609" lon="2.87828">
        <ele>54.9</ele>
        <time>2021-03-28T06:31:15Z</time>
      </trkpt>
      <trkpt lat="42.82609" lon="2.87828">
        <ele>54.9</ele>
        <time>2021-03-28T06:31:15Z</time>
      </trkpt>
      <trkpt lat="42.82615" lon="2.87824">
        <ele>55.1</ele>
        <time>2021-03-28T06:31:16Z</time>
      </trkpt>
      <trkpt lat="42.82615" lon="2.87824">
        <ele>55.1</ele>
        <time>2021-03-28T06:31:16Z</time>
      </trkpt>
      <trkpt lat="42.82621" lon="2.87819">
        <ele>55.3</ele>
        <time>2021-03-28T06:31:18Z</time>
      </trkpt>
      <trkpt lat="42.82621" lon="2.87819">
        <ele>55.3</ele>
        <time>2021-03-28T06:31:18Z</time>
      </trkpt>
      <trkpt lat="42.82627" lon="2.87814">
        <ele>55.6</ele>
        <time>2021-03-28T06:31:20Z</time>
      </trkpt>
      <trkpt lat="42.82627" lon="2.87814">
        <ele>55.6</ele>
        <time>2021-03-28T06:31:20Z</time>
      </trkpt>
      <trkpt lat="42.82632" lon="2.8781">
        <ele>55.8</ele>
        <time>2021-03-28T06:31:21Z</time>
      </trkpt>
      <trkpt lat="42.82632" lon="2.8781">
        <ele>55.8</ele>
        <time>2021-03-28T06:31:21Z</time>
      </trkpt>
      <trkpt lat="42.82639" lon="2.87806">
        <ele>56</ele>
        <time>2021-03-28T06:31:23Z</time>
      </trkpt>
      <trkpt lat="42.82639" lon="2.87806">
        <ele>56</ele>
        <time>2021-03-28T06:31:23Z</time>
      </trkpt>
      <trkpt lat="42.82645" lon="2.87801">
        <ele>56.1</ele>
        <time>2021-03-28T06:31:25Z</time>
      </trkpt>
      <trkpt lat="42.82645" lon="2.87801">
        <ele>56.1</ele>
        <time>2021-03-28T06:31:25Z</time>
      </trkpt>
      <trkpt lat="42.82651" lon="2.87797">
        <ele>56.1</ele>
        <time>2021-03-28T06:31:26Z</time>
      </trkpt>
      <trkpt lat="42.82651" lon="2.87797">
        <ele>56.1</ele>
        <time>2021-03-28T06:31:26Z</time>
      </trkpt>
      <trkpt lat="42.82658" lon="2.87793">
        <ele>56.2</ele>
        <time>2021-03-28T06:31:28Z</time>
      </trkpt>
      <trkpt lat="42.82658" lon="2.87793">
        <ele>56.2</ele>
        <time>2021-03-28T06:31:28Z</time>
      </trkpt>
      <trkpt lat="42.82663" lon="2.87789">
        <ele>56.3</ele>
        <time>2021-03-28T06:31:29Z</time>
      </trkpt>
      <trkpt lat="42.82663" lon="2.87789">
        <ele>56.3</ele>
        <time>2021-03-28T06:31:29Z</time>
      </trkpt>
      <trkpt lat="42.82669" lon="2.87784">
        <ele>56.3</ele>
        <time>2021-03-28T06:31:31Z</time>
      </trkpt>
      <trkpt lat="42.82669" lon="2.87784">
        <ele>56.3</ele>
        <time>2021-03-28T06:31:31Z</time>
      </trkpt>
      <trkpt lat="42.82675" lon="2.87779">
        <ele>56.3</ele>
        <time>2021-03-28T06:31:33Z</time>
      </trkpt>
      <trkpt lat="42.82675" lon="2.87779">
        <ele>56.3</ele>
        <time>2021-03-28T06:31:33Z</time>
      </trkpt>
      <trkpt lat="42.82682" lon="2.87774">
        <ele>56.6</ele>
        <time>2021-03-28T06:31:35Z</time>
      </trkpt>
      <trkpt lat="42.82682" lon="2.87774">
        <ele>56.6</ele>
        <time>2021-03-28T06:31:35Z</time>
      </trkpt>
      <trkpt lat="42.82688" lon="2.8777">
        <ele>56.8</ele>
        <time>2021-03-28T06:31:36Z</time>
      </trkpt>
      <trkpt lat="42.82688" lon="2.8777">
        <ele>56.8</ele>
        <time>2021-03-28T06:31:36Z</time>
      </trkpt>
      <trkpt lat="42.82693" lon="2.87766">
        <ele>56.9</ele>
        <time>2021-03-28T06:31:37Z</time>
      </trkpt>
      <trkpt lat="42.82693" lon="2.87766">
        <ele>56.9</ele>
        <time>2021-03-28T06:31:37Z</time>
      </trkpt>
      <trkpt lat="42.82698" lon="2.87762">
        <ele>57.1</ele>
        <time>2021-03-28T06:31:39Z</time>
      </trkpt>
      <trkpt lat="42.82698" lon="2.87762">
        <ele>57.1</ele>
        <time>2021-03-28T06:31:39Z</time>
      </trkpt>
      <trkpt lat="42.82703" lon="2.87758">
        <ele>57.1</ele>
        <time>2021-03-28T06:31:40Z</time>
      </trkpt>
      <trkpt lat="42.82703" lon="2.87758">
        <ele>57.1</ele>
        <time>2021-03-28T06:31:40Z</time>
      </trkpt>
      <trkpt lat="42.82708" lon="2.87754">
        <ele>57.1</ele>
        <time>2021-03-28T06:31:41Z</time>
      </trkpt>
      <trkpt lat="42.82708" lon="2.87754">
        <ele>57.1</ele>
        <time>2021-03-28T06:31:41Z</time>
      </trkpt>
      <trkpt lat="42.82712" lon="2.8775">
        <ele>57</ele>
        <time>2021-03-28T06:31:42Z</time>
      </trkpt>
      <trkpt lat="42.82712" lon="2.8775">
        <ele>57</ele>
        <time>2021-03-28T06:31:42Z</time>
      </trkpt>
      <trkpt lat="42.82718" lon="2.87746">
        <ele>57</ele>
        <time>2021-03-28T06:31:44Z</time>
      </trkpt>
      <trkpt lat="42.82718" lon="2.87746">
        <ele>57</ele>
        <time>2021-03-28T06:31:44Z</time>
      </trkpt>
      <trkpt lat="42.82722" lon="2.87742">
        <ele>57</ele>
        <time>2021-03-28T06:31:45Z</time>
      </trkpt>
      <trkpt lat="42.82722" lon="2.87742">
        <ele>57</ele>
        <time>2021-03-28T06:31:45Z</time>
      </trkpt>
      <trkpt lat="42.82728" lon="2.87737">
        <ele>57.2</ele>
        <time>2021-03-28T06:31:47Z</time>
      </trkpt>
      <trkpt lat="42.82728" lon="2.87737">
        <ele>57.2</ele>
        <time>2021-03-28T06:31:47Z</time>
      </trkpt>
      <trkpt lat="42.82733" lon="2.87733">
        <ele>57.4</ele>
        <time>2021-03-28T06:31:48Z</time>
      </trkpt>
      <trkpt lat="42.82733" lon="2.87733">
        <ele>57.4</ele>
        <time>2021-03-28T06:31:48Z</time>
      </trkpt>
      <trkpt lat="42.82738" lon="2.87728">
        <ele>57.6</ele>
        <time>2021-03-28T06:31:50Z</time>
      </trkpt>
      <trkpt lat="42.82738" lon="2.87728">
        <ele>57.6</ele>
        <time>2021-03-28T06:31:50Z</time>
      </trkpt>
      <trkpt lat="42.82743" lon="2.87724">
        <ele>57.7</ele>
        <time>2021-03-28T06:31:51Z</time>
      </trkpt>
      <trkpt lat="42.82743" lon="2.87724">
        <ele>57.7</ele>
        <time>2021-03-28T06:31:51Z</time>
      </trkpt>
      <trkpt lat="42.82748" lon="2.87719">
        <ele>57.9</ele>
        <time>2021-03-28T06:31:53Z</time>
      </trkpt>
      <trkpt lat="42.82748" lon="2.87719">
        <ele>57.9</ele>
        <time>2021-03-28T06:31:53Z</time>
      </trkpt>
      <trkpt lat="42.82753" lon="2.87716">
        <ele>58.2</ele>
        <time>2021-03-28T06:31:54Z</time>
      </trkpt>
      <trkpt lat="42.82753" lon="2.87716">
        <ele>58.2</ele>
        <time>2021-03-28T06:31:54Z</time>
      </trkpt>
      <trkpt lat="42.82757" lon="2.87713">
        <ele>58.4</ele>
        <time>2021-03-28T06:31:55Z</time>
      </trkpt>
      <trkpt lat="42.82757" lon="2.87713">
        <ele>58.4</ele>
        <time>2021-03-28T06:31:55Z</time>
      </trkpt>
      <trkpt lat="42.82763" lon="2.87709">
        <ele>58.7</ele>
        <time>2021-03-28T06:31:57Z</time>
      </trkpt>
      <trkpt lat="42.82763" lon="2.87709">
        <ele>58.7</ele>
        <time>2021-03-28T06:31:57Z</time>
      </trkpt>
      <trkpt lat="42.82767" lon="2.87706">
        <ele>58.9</ele>
        <time>2021-03-28T06:31:58Z</time>
      </trkpt>
      <trkpt lat="42.82767" lon="2.87706">
        <ele>58.9</ele>
        <time>2021-03-28T06:31:58Z</time>
      </trkpt>
      <trkpt lat="42.82773" lon="2.87702">
        <ele>59</ele>
        <time>2021-03-28T06:32:00Z</time>
      </trkpt>
      <trkpt lat="42.82773" lon="2.87702">
        <ele>59</ele>
        <time>2021-03-28T06:32:00Z</time>
      </trkpt>
      <trkpt lat="42.82777" lon="2.87699">
        <ele>59.1</ele>
        <time>2021-03-28T06:32:01Z</time>
      </trkpt>
      <trkpt lat="42.82777" lon="2.87699">
        <ele>59.1</ele>
        <time>2021-03-28T06:32:01Z</time>
      </trkpt>
      <trkpt lat="42.82782" lon="2.87695">
        <ele>59.3</ele>
        <time>2021-03-28T06:32:03Z</time>
      </trkpt>
      <trkpt lat="42.82782" lon="2.87695">
        <ele>59.3</ele>
        <time>2021-03-28T06:32:03Z</time>
      </trkpt>
      <trkpt lat="42.82787" lon="2.87691">
        <ele>59.7</ele>
        <time>2021-03-28T06:32:05Z</time>
      </trkpt>
      <trkpt lat="42.82787" lon="2.87691">
        <ele>59.7</ele>
        <time>2021-03-28T06:32:05Z</time>
      </trkpt>
      <trkpt lat="42.82792" lon="2.87687">
        <ele>60</ele>
        <time>2021-03-28T06:32:06Z</time>
      </trkpt>
      <trkpt lat="42.82792" lon="2.87687">
        <ele>60</ele>
        <time>2021-03-28T06:32:06Z</time>
      </trkpt>
      <trkpt lat="42.82796" lon="2.87684">
        <ele>60.3</ele>
        <time>2021-03-28T06:32:07Z</time>
      </trkpt>
      <trkpt lat="42.82796" lon="2.87684">
        <ele>60.3</ele>
        <time>2021-03-28T06:32:07Z</time>
      </trkpt>
      <trkpt lat="42.828" lon="2.87682">
        <ele>60.6</ele>
        <time>2021-03-28T06:32:08Z</time>
      </trkpt>
      <trkpt lat="42.828" lon="2.87682">
        <ele>60.6</ele>
        <time>2021-03-28T06:32:08Z</time>
      </trkpt>
      <trkpt lat="42.82805" lon="2.87679">
        <ele>61</ele>
        <time>2021-03-28T06:32:10Z</time>
      </trkpt>
      <trkpt lat="42.82805" lon="2.87679">
        <ele>61</ele>
        <time>2021-03-28T06:32:10Z</time>
      </trkpt>
      <trkpt lat="42.82809" lon="2.87676">
        <ele>61.1</ele>
        <time>2021-03-28T06:32:11Z</time>
      </trkpt>
      <trkpt lat="42.82809" lon="2.87676">
        <ele>61.1</ele>
        <time>2021-03-28T06:32:11Z</time>
      </trkpt>
      <trkpt lat="42.82814" lon="2.87672">
        <ele>61.3</ele>
        <time>2021-03-28T06:32:13Z</time>
      </trkpt>
      <trkpt lat="42.82814" lon="2.87672">
        <ele>61.3</ele>
        <time>2021-03-28T06:32:13Z</time>
      </trkpt>
      <trkpt lat="42.82818" lon="2.87668">
        <ele>61.5</ele>
        <time>2021-03-28T06:32:14Z</time>
      </trkpt>
      <trkpt lat="42.82818" lon="2.87668">
        <ele>61.5</ele>
        <time>2021-03-28T06:32:14Z</time>
      </trkpt>
      <trkpt lat="42.82824" lon="2.87664">
        <ele>61.6</ele>
        <time>2021-03-28T06:32:16Z</time>
      </trkpt>
      <trkpt lat="42.82824" lon="2.87664">
        <ele>61.6</ele>
        <time>2021-03-28T06:32:16Z</time>
      </trkpt>
      <trkpt lat="42.82829" lon="2.87661">
        <ele>61.8</ele>
        <time>2021-03-28T06:32:17Z</time>
      </trkpt>
      <trkpt lat="42.82829" lon="2.87661">
        <ele>61.8</ele>
        <time>2021-03-28T06:32:17Z</time>
      </trkpt>
      <trkpt lat="42.82833" lon="2.87658">
        <ele>62</ele>
        <time>2021-03-28T06:32:18Z</time>
      </trkpt>
      <trkpt lat="42.82833" lon="2.87658">
        <ele>62</ele>
        <time>2021-03-28T06:32:18Z</time>
      </trkpt>
      <trkpt lat="42.82838" lon="2.87655">
        <ele>62.2</ele>
        <time>2021-03-28T06:32:20Z</time>
      </trkpt>
      <trkpt lat="42.82838" lon="2.87655">
        <ele>62.2</ele>
        <time>2021-03-28T06:32:20Z</time>
      </trkpt>
      <trkpt lat="42.82842" lon="2.87652">
        <ele>62.5</ele>
        <time>2021-03-28T06:32:21Z</time>
      </trkpt>
      <trkpt lat="42.82842" lon="2.87652">
        <ele>62.5</ele>
        <time>2021-03-28T06:32:21Z</time>
      </trkpt>
      <trkpt lat="42.82847" lon="2.87649">
        <ele>62.8</ele>
        <time>2021-03-28T06:32:23Z</time>
      </trkpt>
      <trkpt lat="42.82847" lon="2.87649">
        <ele>62.8</ele>
        <time>2021-03-28T06:32:23Z</time>
      </trkpt>
      <trkpt lat="42.82853" lon="2.87645">
        <ele>63.3</ele>
        <time>2021-03-28T06:32:25Z</time>
      </trkpt>
      <trkpt lat="42.82853" lon="2.87645">
        <ele>63.3</ele>
        <time>2021-03-28T06:32:25Z</time>
      </trkpt>
      <trkpt lat="42.82859" lon="2.87641">
        <ele>63.8</ele>
        <time>2021-03-28T06:32:27Z</time>
      </trkpt>
      <trkpt lat="42.82859" lon="2.87641">
        <ele>63.8</ele>
        <time>2021-03-28T06:32:27Z</time>
      </trkpt>
      <trkpt lat="42.82865" lon="2.87636">
        <ele>64.3</ele>
        <time>2021-03-28T06:32:29Z</time>
      </trkpt>
      <trkpt lat="42.82865" lon="2.87636">
        <ele>64.3</ele>
        <time>2021-03-28T06:32:29Z</time>
      </trkpt>
      <trkpt lat="42.82871" lon="2.8763">
        <ele>64.7</ele>
        <time>2021-03-28T06:32:31Z</time>
      </trkpt>
      <trkpt lat="42.82871" lon="2.8763">
        <ele>64.7</ele>
        <time>2021-03-28T06:32:31Z</time>
      </trkpt>
      <trkpt lat="42.82876" lon="2.87625">
        <ele>65.1</ele>
        <time>2021-03-28T06:32:32Z</time>
      </trkpt>
      <trkpt lat="42.82876" lon="2.87625">
        <ele>65.1</ele>
        <time>2021-03-28T06:32:32Z</time>
      </trkpt>
      <trkpt lat="42.82882" lon="2.87621">
        <ele>65.5</ele>
        <time>2021-03-28T06:32:34Z</time>
      </trkpt>
      <trkpt lat="42.82882" lon="2.87621">
        <ele>65.5</ele>
        <time>2021-03-28T06:32:34Z</time>
      </trkpt>
      <trkpt lat="42.82886" lon="2.87617">
        <ele>65.8</ele>
        <time>2021-03-28T06:32:35Z</time>
      </trkpt>
      <trkpt lat="42.82886" lon="2.87617">
        <ele>65.8</ele>
        <time>2021-03-28T06:32:35Z</time>
      </trkpt>
      <trkpt lat="42.82892" lon="2.87614">
        <ele>66.3</ele>
        <time>2021-03-28T06:32:37Z</time>
      </trkpt>
      <trkpt lat="42.82892" lon="2.87614">
        <ele>66.3</ele>
        <time>2021-03-28T06:32:37Z</time>
      </trkpt>
      <trkpt lat="42.82896" lon="2.87611">
        <ele>66.8</ele>
        <time>2021-03-28T06:32:38Z</time>
      </trkpt>
      <trkpt lat="42.82896" lon="2.87611">
        <ele>66.8</ele>
        <time>2021-03-28T06:32:38Z</time>
      </trkpt>
      <trkpt lat="42.829" lon="2.87608">
        <ele>67.2</ele>
        <time>2021-03-28T06:32:39Z</time>
      </trkpt>
      <trkpt lat="42.829" lon="2.87608">
        <ele>67.2</ele>
        <time>2021-03-28T06:32:39Z</time>
      </trkpt>
      <trkpt lat="42.82904" lon="2.87605">
        <ele>67.7</ele>
        <time>2021-03-28T06:32:41Z</time>
      </trkpt>
      <trkpt lat="42.82904" lon="2.87605">
        <ele>67.7</ele>
        <time>2021-03-28T06:32:41Z</time>
      </trkpt>
      <trkpt lat="42.82908" lon="2.87601">
        <ele>68.2</ele>
        <time>2021-03-28T06:32:43Z</time>
      </trkpt>
      <trkpt lat="42.82908" lon="2.87601">
        <ele>68.2</ele>
        <time>2021-03-28T06:32:43Z</time>
      </trkpt>
      <trkpt lat="42.82914" lon="2.87597">
        <ele>68.7</ele>
        <time>2021-03-28T06:32:45Z</time>
      </trkpt>
      <trkpt lat="42.82914" lon="2.87597">
        <ele>68.7</ele>
        <time>2021-03-28T06:32:45Z</time>
      </trkpt>
      <trkpt lat="42.82918" lon="2.87594">
        <ele>69.1</ele>
        <time>2021-03-28T06:32:46Z</time>
      </trkpt>
      <trkpt lat="42.82918" lon="2.87594">
        <ele>69.1</ele>
        <time>2021-03-28T06:32:46Z</time>
      </trkpt>
      <trkpt lat="42.82923" lon="2.8759">
        <ele>69.2</ele>
        <time>2021-03-28T06:32:48Z</time>
      </trkpt>
      <trkpt lat="42.82923" lon="2.8759">
        <ele>69.2</ele>
        <time>2021-03-28T06:32:48Z</time>
      </trkpt>
      <trkpt lat="42.82928" lon="2.87587">
        <ele>69.4</ele>
        <time>2021-03-28T06:32:50Z</time>
      </trkpt>
      <trkpt lat="42.82928" lon="2.87587">
        <ele>69.4</ele>
        <time>2021-03-28T06:32:50Z</time>
      </trkpt>
      <trkpt lat="42.82934" lon="2.87582">
        <ele>69.6</ele>
        <time>2021-03-28T06:32:52Z</time>
      </trkpt>
      <trkpt lat="42.82934" lon="2.87582">
        <ele>69.6</ele>
        <time>2021-03-28T06:32:52Z</time>
      </trkpt>
      <trkpt lat="42.8294" lon="2.87578">
        <ele>69.8</ele>
        <time>2021-03-28T06:32:54Z</time>
      </trkpt>
      <trkpt lat="42.8294" lon="2.87578">
        <ele>69.8</ele>
        <time>2021-03-28T06:32:54Z</time>
      </trkpt>
      <trkpt lat="42.82945" lon="2.87573">
        <ele>70</ele>
        <time>2021-03-28T06:32:55Z</time>
      </trkpt>
      <trkpt lat="42.82945" lon="2.87573">
        <ele>70</ele>
        <time>2021-03-28T06:32:55Z</time>
      </trkpt>
      <trkpt lat="42.8295" lon="2.8757">
        <ele>70.1</ele>
        <time>2021-03-28T06:32:56Z</time>
      </trkpt>
      <trkpt lat="42.8295" lon="2.8757">
        <ele>70.1</ele>
        <time>2021-03-28T06:32:56Z</time>
      </trkpt>
      <trkpt lat="42.82955" lon="2.87566">
        <ele>70.2</ele>
        <time>2021-03-28T06:32:58Z</time>
      </trkpt>
      <trkpt lat="42.82955" lon="2.87566">
        <ele>70.2</ele>
        <time>2021-03-28T06:32:58Z</time>
      </trkpt>
      <trkpt lat="42.82961" lon="2.87562">
        <ele>70.1</ele>
        <time>2021-03-28T06:33:00Z</time>
      </trkpt>
      <trkpt lat="42.82961" lon="2.87562">
        <ele>70.1</ele>
        <time>2021-03-28T06:33:00Z</time>
      </trkpt>
      <trkpt lat="42.82966" lon="2.87558">
        <ele>70.1</ele>
        <time>2021-03-28T06:33:01Z</time>
      </trkpt>
      <trkpt lat="42.82966" lon="2.87558">
        <ele>70.1</ele>
        <time>2021-03-28T06:33:01Z</time>
      </trkpt>
      <trkpt lat="42.82971" lon="2.87555">
        <ele>70</ele>
        <time>2021-03-28T06:33:03Z</time>
      </trkpt>
      <trkpt lat="42.82971" lon="2.87555">
        <ele>70</ele>
        <time>2021-03-28T06:33:03Z</time>
      </trkpt>
      <trkpt lat="42.82977" lon="2.87551">
        <ele>70.1</ele>
        <time>2021-03-28T06:33:05Z</time>
      </trkpt>
      <trkpt lat="42.82977" lon="2.87551">
        <ele>70.1</ele>
        <time>2021-03-28T06:33:05Z</time>
      </trkpt>
      <trkpt lat="42.82983" lon="2.87547">
        <ele>70.2</ele>
        <time>2021-03-28T06:33:07Z</time>
      </trkpt>
      <trkpt lat="42.82983" lon="2.87547">
        <ele>70.2</ele>
        <time>2021-03-28T06:33:07Z</time>
      </trkpt>
      <trkpt lat="42.8299" lon="2.87541">
        <ele>70.2</ele>
        <time>2021-03-28T06:33:09Z</time>
      </trkpt>
      <trkpt lat="42.8299" lon="2.87541">
        <ele>70.2</ele>
        <time>2021-03-28T06:33:09Z</time>
      </trkpt>
      <trkpt lat="42.82996" lon="2.87537">
        <ele>70.1</ele>
        <time>2021-03-28T06:33:10Z</time>
      </trkpt>
      <trkpt lat="42.82996" lon="2.87537">
        <ele>70.1</ele>
        <time>2021-03-28T06:33:10Z</time>
      </trkpt>
      <trkpt lat="42.83" lon="2.87533">
        <ele>70</ele>
        <time>2021-03-28T06:33:11Z</time>
      </trkpt>
      <trkpt lat="42.83" lon="2.87533">
        <ele>70</ele>
        <time>2021-03-28T06:33:11Z</time>
      </trkpt>
      <trkpt lat="42.83007" lon="2.8753">
        <ele>69.5</ele>
        <time>2021-03-28T06:33:13Z</time>
      </trkpt>
      <trkpt lat="42.83007" lon="2.8753">
        <ele>69.5</ele>
        <time>2021-03-28T06:33:13Z</time>
      </trkpt>
      <trkpt lat="42.83012" lon="2.87527">
        <ele>69.2</ele>
        <time>2021-03-28T06:33:14Z</time>
      </trkpt>
      <trkpt lat="42.83012" lon="2.87527">
        <ele>69.2</ele>
        <time>2021-03-28T06:33:14Z</time>
      </trkpt>
      <trkpt lat="42.83018" lon="2.87525">
        <ele>68.8</ele>
        <time>2021-03-28T06:33:16Z</time>
      </trkpt>
      <trkpt lat="42.83018" lon="2.87525">
        <ele>68.8</ele>
        <time>2021-03-28T06:33:16Z</time>
      </trkpt>
      <trkpt lat="42.83025" lon="2.87523">
        <ele>68.3</ele>
        <time>2021-03-28T06:33:18Z</time>
      </trkpt>
      <trkpt lat="42.83025" lon="2.87523">
        <ele>68.3</ele>
        <time>2021-03-28T06:33:18Z</time>
      </trkpt>
      <trkpt lat="42.83033" lon="2.87522">
        <ele>68</ele>
        <time>2021-03-28T06:33:20Z</time>
      </trkpt>
      <trkpt lat="42.83033" lon="2.87522">
        <ele>68</ele>
        <time>2021-03-28T06:33:20Z</time>
      </trkpt>
      <trkpt lat="42.8304" lon="2.87521">
        <ele>67.7</ele>
        <time>2021-03-28T06:33:21Z</time>
      </trkpt>
      <trkpt lat="42.8304" lon="2.87521">
        <ele>67.7</ele>
        <time>2021-03-28T06:33:21Z</time>
      </trkpt>
      <trkpt lat="42.83046" lon="2.87521">
        <ele>67.4</ele>
        <time>2021-03-28T06:33:22Z</time>
      </trkpt>
      <trkpt lat="42.83046" lon="2.87521">
        <ele>67.4</ele>
        <time>2021-03-28T06:33:22Z</time>
      </trkpt>
      <trkpt lat="42.83054" lon="2.8752">
        <ele>67.1</ele>
        <time>2021-03-28T06:33:24Z</time>
      </trkpt>
      <trkpt lat="42.83054" lon="2.8752">
        <ele>67.1</ele>
        <time>2021-03-28T06:33:24Z</time>
      </trkpt>
      <trkpt lat="42.8306" lon="2.8752">
        <ele>66.8</ele>
        <time>2021-03-28T06:33:25Z</time>
      </trkpt>
      <trkpt lat="42.8306" lon="2.8752">
        <ele>66.8</ele>
        <time>2021-03-28T06:33:25Z</time>
      </trkpt>
      <trkpt lat="42.83067" lon="2.87519">
        <ele>66.6</ele>
        <time>2021-03-28T06:33:27Z</time>
      </trkpt>
      <trkpt lat="42.83067" lon="2.87519">
        <ele>66.6</ele>
        <time>2021-03-28T06:33:27Z</time>
      </trkpt>
      <trkpt lat="42.83074" lon="2.87518">
        <ele>66.3</ele>
        <time>2021-03-28T06:33:28Z</time>
      </trkpt>
      <trkpt lat="42.83074" lon="2.87518">
        <ele>66.3</ele>
        <time>2021-03-28T06:33:28Z</time>
      </trkpt>
      <trkpt lat="42.8308" lon="2.87518">
        <ele>66.1</ele>
        <time>2021-03-28T06:33:29Z</time>
      </trkpt>
      <trkpt lat="42.8308" lon="2.87518">
        <ele>66.1</ele>
        <time>2021-03-28T06:33:29Z</time>
      </trkpt>
      <trkpt lat="42.83086" lon="2.87517">
        <ele>66.1</ele>
        <time>2021-03-28T06:33:31Z</time>
      </trkpt>
      <trkpt lat="42.83086" lon="2.87517">
        <ele>66.1</ele>
        <time>2021-03-28T06:33:31Z</time>
      </trkpt>
      <trkpt lat="42.83092" lon="2.87516">
        <ele>66.2</ele>
        <time>2021-03-28T06:33:32Z</time>
      </trkpt>
      <trkpt lat="42.83092" lon="2.87516">
        <ele>66.2</ele>
        <time>2021-03-28T06:33:32Z</time>
      </trkpt>
      <trkpt lat="42.83099" lon="2.87516">
        <ele>66.3</ele>
        <time>2021-03-28T06:33:34Z</time>
      </trkpt>
      <trkpt lat="42.83099" lon="2.87516">
        <ele>66.3</ele>
        <time>2021-03-28T06:33:34Z</time>
      </trkpt>
      <trkpt lat="42.83105" lon="2.87515">
        <ele>66.4</ele>
        <time>2021-03-28T06:33:35Z</time>
      </trkpt>
      <trkpt lat="42.83105" lon="2.87515">
        <ele>66.4</ele>
        <time>2021-03-28T06:33:35Z</time>
      </trkpt>
      <trkpt lat="42.83111" lon="2.87514">
        <ele>66.5</ele>
        <time>2021-03-28T06:33:36Z</time>
      </trkpt>
      <trkpt lat="42.83111" lon="2.87514">
        <ele>66.5</ele>
        <time>2021-03-28T06:33:36Z</time>
      </trkpt>
      <trkpt lat="42.83117" lon="2.87511">
        <ele>66.9</ele>
        <time>2021-03-28T06:33:38Z</time>
      </trkpt>
      <trkpt lat="42.83117" lon="2.87511">
        <ele>66.9</ele>
        <time>2021-03-28T06:33:38Z</time>
      </trkpt>
      <trkpt lat="42.83122" lon="2.87507">
        <ele>67.3</ele>
        <time>2021-03-28T06:33:39Z</time>
      </trkpt>
      <trkpt lat="42.83122" lon="2.87507">
        <ele>67.3</ele>
        <time>2021-03-28T06:33:39Z</time>
      </trkpt>
      <trkpt lat="42.83127" lon="2.87501">
        <ele>67.7</ele>
        <time>2021-03-28T06:33:41Z</time>
      </trkpt>
      <trkpt lat="42.83127" lon="2.87501">
        <ele>67.7</ele>
        <time>2021-03-28T06:33:41Z</time>
      </trkpt>
      <trkpt lat="42.83132" lon="2.87495">
        <ele>67.9</ele>
        <time>2021-03-28T06:33:42Z</time>
      </trkpt>
      <trkpt lat="42.83132" lon="2.87495">
        <ele>67.9</ele>
        <time>2021-03-28T06:33:42Z</time>
      </trkpt>
      <trkpt lat="42.83136" lon="2.87489">
        <ele>67.9</ele>
        <time>2021-03-28T06:33:43Z</time>
      </trkpt>
      <trkpt lat="42.83136" lon="2.87489">
        <ele>67.9</ele>
        <time>2021-03-28T06:33:43Z</time>
      </trkpt>
      <trkpt lat="42.83139" lon="2.87483">
        <ele>67.8</ele>
        <time>2021-03-28T06:33:44Z</time>
      </trkpt>
      <trkpt lat="42.83139" lon="2.87483">
        <ele>67.8</ele>
        <time>2021-03-28T06:33:44Z</time>
      </trkpt>
      <trkpt lat="42.83143" lon="2.87475">
        <ele>67.5</ele>
        <time>2021-03-28T06:33:46Z</time>
      </trkpt>
      <trkpt lat="42.83143" lon="2.87475">
        <ele>67.5</ele>
        <time>2021-03-28T06:33:46Z</time>
      </trkpt>
      <trkpt lat="42.83147" lon="2.87466">
        <ele>67.4</ele>
        <time>2021-03-28T06:33:48Z</time>
      </trkpt>
      <trkpt lat="42.83147" lon="2.87466">
        <ele>67.4</ele>
        <time>2021-03-28T06:33:48Z</time>
      </trkpt>
      <trkpt lat="42.83151" lon="2.87459">
        <ele>67.6</ele>
        <time>2021-03-28T06:33:49Z</time>
      </trkpt>
      <trkpt lat="42.83151" lon="2.87459">
        <ele>67.6</ele>
        <time>2021-03-28T06:33:49Z</time>
      </trkpt>
      <trkpt lat="42.83155" lon="2.87449">
        <ele>67.8</ele>
        <time>2021-03-28T06:33:51Z</time>
      </trkpt>
      <trkpt lat="42.83155" lon="2.87449">
        <ele>67.8</ele>
        <time>2021-03-28T06:33:51Z</time>
      </trkpt>
      <trkpt lat="42.8316" lon="2.87439">
        <ele>68.1</ele>
        <time>2021-03-28T06:33:53Z</time>
      </trkpt>
      <trkpt lat="42.8316" lon="2.87439">
        <ele>68.1</ele>
        <time>2021-03-28T06:33:53Z</time>
      </trkpt>
      <trkpt lat="42.83164" lon="2.87429">
        <ele>68.3</ele>
        <time>2021-03-28T06:33:55Z</time>
      </trkpt>
      <trkpt lat="42.83164" lon="2.87429">
        <ele>68.3</ele>
        <time>2021-03-28T06:33:55Z</time>
      </trkpt>
      <trkpt lat="42.83169" lon="2.8742">
        <ele>68.3</ele>
        <time>2021-03-28T06:33:56Z</time>
      </trkpt>
      <trkpt lat="42.83169" lon="2.8742">
        <ele>68.3</ele>
        <time>2021-03-28T06:33:56Z</time>
      </trkpt>
      <trkpt lat="42.83173" lon="2.87411">
        <ele>68.5</ele>
        <time>2021-03-28T06:33:58Z</time>
      </trkpt>
      <trkpt lat="42.83173" lon="2.87411">
        <ele>68.5</ele>
        <time>2021-03-28T06:33:58Z</time>
      </trkpt>
      <trkpt lat="42.83177" lon="2.87401">
        <ele>68.7</ele>
        <time>2021-03-28T06:34:00Z</time>
      </trkpt>
      <trkpt lat="42.83177" lon="2.87401">
        <ele>68.7</ele>
        <time>2021-03-28T06:34:00Z</time>
      </trkpt>
      <trkpt lat="42.83181" lon="2.8739">
        <ele>69.1</ele>
        <time>2021-03-28T06:34:02Z</time>
      </trkpt>
      <trkpt lat="42.83181" lon="2.8739">
        <ele>69.1</ele>
        <time>2021-03-28T06:34:02Z</time>
      </trkpt>
      <trkpt lat="42.83185" lon="2.87381">
        <ele>69.4</ele>
        <time>2021-03-28T06:34:03Z</time>
      </trkpt>
      <trkpt lat="42.83185" lon="2.87381">
        <ele>69.4</ele>
        <time>2021-03-28T06:34:03Z</time>
      </trkpt>
      <trkpt lat="42.83188" lon="2.87371">
        <ele>69.6</ele>
        <time>2021-03-28T06:34:05Z</time>
      </trkpt>
      <trkpt lat="42.83188" lon="2.87371">
        <ele>69.6</ele>
        <time>2021-03-28T06:34:05Z</time>
      </trkpt>
      <trkpt lat="42.83191" lon="2.87363">
        <ele>69.7</ele>
        <time>2021-03-28T06:34:06Z</time>
      </trkpt>
      <trkpt lat="42.83191" lon="2.87363">
        <ele>69.7</ele>
        <time>2021-03-28T06:34:06Z</time>
      </trkpt>
      <trkpt lat="42.83194" lon="2.87355">
        <ele>69.9</ele>
        <time>2021-03-28T06:34:07Z</time>
      </trkpt>
      <trkpt lat="42.83194" lon="2.87355">
        <ele>69.9</ele>
        <time>2021-03-28T06:34:07Z</time>
      </trkpt>
      <trkpt lat="42.83196" lon="2.87348">
        <ele>70.2</ele>
        <time>2021-03-28T06:34:08Z</time>
      </trkpt>
      <trkpt lat="42.83196" lon="2.87348">
        <ele>70.2</ele>
        <time>2021-03-28T06:34:08Z</time>
      </trkpt>
      <trkpt lat="42.83199" lon="2.8734">
        <ele>70.4</ele>
        <time>2021-03-28T06:34:10Z</time>
      </trkpt>
      <trkpt lat="42.83199" lon="2.8734">
        <ele>70.4</ele>
        <time>2021-03-28T06:34:10Z</time>
      </trkpt>
      <trkpt lat="42.83202" lon="2.87333">
        <ele>70.5</ele>
        <time>2021-03-28T06:34:11Z</time>
      </trkpt>
      <trkpt lat="42.83202" lon="2.87333">
        <ele>70.5</ele>
        <time>2021-03-28T06:34:11Z</time>
      </trkpt>
      <trkpt lat="42.83205" lon="2.87325">
        <ele>70.6</ele>
        <time>2021-03-28T06:34:13Z</time>
      </trkpt>
      <trkpt lat="42.83205" lon="2.87325">
        <ele>70.6</ele>
        <time>2021-03-28T06:34:13Z</time>
      </trkpt>
      <trkpt lat="42.83207" lon="2.87317">
        <ele>70.6</ele>
        <time>2021-03-28T06:34:14Z</time>
      </trkpt>
      <trkpt lat="42.83207" lon="2.87317">
        <ele>70.6</ele>
        <time>2021-03-28T06:34:14Z</time>
      </trkpt>
      <trkpt lat="42.83209" lon="2.87311">
        <ele>70.6</ele>
        <time>2021-03-28T06:34:15Z</time>
      </trkpt>
      <trkpt lat="42.83209" lon="2.87311">
        <ele>70.6</ele>
        <time>2021-03-28T06:34:15Z</time>
      </trkpt>
      <trkpt lat="42.83211" lon="2.87303">
        <ele>70.5</ele>
        <time>2021-03-28T06:34:17Z</time>
      </trkpt>
      <trkpt lat="42.83211" lon="2.87303">
        <ele>70.5</ele>
        <time>2021-03-28T06:34:17Z</time>
      </trkpt>
      <trkpt lat="42.83213" lon="2.87296">
        <ele>70.5</ele>
        <time>2021-03-28T06:34:18Z</time>
      </trkpt>
      <trkpt lat="42.83213" lon="2.87296">
        <ele>70.5</ele>
        <time>2021-03-28T06:34:18Z</time>
      </trkpt>
      <trkpt lat="42.83216" lon="2.87288">
        <ele>70.3</ele>
        <time>2021-03-28T06:34:20Z</time>
      </trkpt>
      <trkpt lat="42.83216" lon="2.87288">
        <ele>70.3</ele>
        <time>2021-03-28T06:34:20Z</time>
      </trkpt>
      <trkpt lat="42.83218" lon="2.87281">
        <ele>70.1</ele>
        <time>2021-03-28T06:34:21Z</time>
      </trkpt>
      <trkpt lat="42.83218" lon="2.87281">
        <ele>70.1</ele>
        <time>2021-03-28T06:34:21Z</time>
      </trkpt>
      <trkpt lat="42.83222" lon="2.87272">
        <ele>70.2</ele>
        <time>2021-03-28T06:34:23Z</time>
      </trkpt>
      <trkpt lat="42.83222" lon="2.87272">
        <ele>70.2</ele>
        <time>2021-03-28T06:34:23Z</time>
      </trkpt>
      <trkpt lat="42.83225" lon="2.87262">
        <ele>70.8</ele>
        <time>2021-03-28T06:34:25Z</time>
      </trkpt>
      <trkpt lat="42.83225" lon="2.87262">
        <ele>70.8</ele>
        <time>2021-03-28T06:34:25Z</time>
      </trkpt>
      <trkpt lat="42.83229" lon="2.87252">
        <ele>71.4</ele>
        <time>2021-03-28T06:34:27Z</time>
      </trkpt>
      <trkpt lat="42.83229" lon="2.87252">
        <ele>71.4</ele>
        <time>2021-03-28T06:34:27Z</time>
      </trkpt>
      <trkpt lat="42.83233" lon="2.87241">
        <ele>71.6</ele>
        <time>2021-03-28T06:34:29Z</time>
      </trkpt>
      <trkpt lat="42.83233" lon="2.87241">
        <ele>71.6</ele>
        <time>2021-03-28T06:34:29Z</time>
      </trkpt>
      <trkpt lat="42.83237" lon="2.8723">
        <ele>71.7</ele>
        <time>2021-03-28T06:34:31Z</time>
      </trkpt>
      <trkpt lat="42.83237" lon="2.8723">
        <ele>71.7</ele>
        <time>2021-03-28T06:34:31Z</time>
      </trkpt>
      <trkpt lat="42.8324" lon="2.87218">
        <ele>71.6</ele>
        <time>2021-03-28T06:34:33Z</time>
      </trkpt>
      <trkpt lat="42.8324" lon="2.87218">
        <ele>71.6</ele>
        <time>2021-03-28T06:34:33Z</time>
      </trkpt>
      <trkpt lat="42.83244" lon="2.87207">
        <ele>71.8</ele>
        <time>2021-03-28T06:34:35Z</time>
      </trkpt>
      <trkpt lat="42.83244" lon="2.87207">
        <ele>71.8</ele>
        <time>2021-03-28T06:34:35Z</time>
      </trkpt>
      <trkpt lat="42.83247" lon="2.87197">
        <ele>71.9</ele>
        <time>2021-03-28T06:34:36Z</time>
      </trkpt>
      <trkpt lat="42.83247" lon="2.87197">
        <ele>71.9</ele>
        <time>2021-03-28T06:34:36Z</time>
      </trkpt>
      <trkpt lat="42.8325" lon="2.87187">
        <ele>72</ele>
        <time>2021-03-28T06:34:38Z</time>
      </trkpt>
      <trkpt lat="42.8325" lon="2.87187">
        <ele>72</ele>
        <time>2021-03-28T06:34:38Z</time>
      </trkpt>
      <trkpt lat="42.83254" lon="2.87178">
        <ele>72.2</ele>
        <time>2021-03-28T06:34:39Z</time>
      </trkpt>
      <trkpt lat="42.83254" lon="2.87178">
        <ele>72.2</ele>
        <time>2021-03-28T06:34:39Z</time>
      </trkpt>
      <trkpt lat="42.83256" lon="2.87169">
        <ele>72.3</ele>
        <time>2021-03-28T06:34:40Z</time>
      </trkpt>
      <trkpt lat="42.83256" lon="2.87169">
        <ele>72.3</ele>
        <time>2021-03-28T06:34:40Z</time>
      </trkpt>
      <trkpt lat="42.83259" lon="2.8716">
        <ele>72.3</ele>
        <time>2021-03-28T06:34:42Z</time>
      </trkpt>
      <trkpt lat="42.83259" lon="2.8716">
        <ele>72.3</ele>
        <time>2021-03-28T06:34:42Z</time>
      </trkpt>
      <trkpt lat="42.83262" lon="2.87152">
        <ele>72.4</ele>
        <time>2021-03-28T06:34:43Z</time>
      </trkpt>
      <trkpt lat="42.83262" lon="2.87152">
        <ele>72.4</ele>
        <time>2021-03-28T06:34:43Z</time>
      </trkpt>
      <trkpt lat="42.83265" lon="2.87143">
        <ele>72.5</ele>
        <time>2021-03-28T06:34:45Z</time>
      </trkpt>
      <trkpt lat="42.83265" lon="2.87143">
        <ele>72.5</ele>
        <time>2021-03-28T06:34:45Z</time>
      </trkpt>
      <trkpt lat="42.83268" lon="2.87133">
        <ele>72.6</ele>
        <time>2021-03-28T06:34:47Z</time>
      </trkpt>
      <trkpt lat="42.83268" lon="2.87133">
        <ele>72.6</ele>
        <time>2021-03-28T06:34:47Z</time>
      </trkpt>
      <trkpt lat="42.83272" lon="2.87122">
        <ele>72.7</ele>
        <time>2021-03-28T06:34:49Z</time>
      </trkpt>
      <trkpt lat="42.83272" lon="2.87122">
        <ele>72.7</ele>
        <time>2021-03-28T06:34:49Z</time>
      </trkpt>
      <trkpt lat="42.83275" lon="2.87113">
        <ele>72.8</ele>
        <time>2021-03-28T06:34:50Z</time>
      </trkpt>
      <trkpt lat="42.83275" lon="2.87113">
        <ele>72.8</ele>
        <time>2021-03-28T06:34:50Z</time>
      </trkpt>
      <trkpt lat="42.83278" lon="2.87106">
        <ele>73</ele>
        <time>2021-03-28T06:34:51Z</time>
      </trkpt>
      <trkpt lat="42.83278" lon="2.87106">
        <ele>73</ele>
        <time>2021-03-28T06:34:51Z</time>
      </trkpt>
      <trkpt lat="42.83282" lon="2.87098">
        <ele>73.1</ele>
        <time>2021-03-28T06:34:53Z</time>
      </trkpt>
      <trkpt lat="42.83282" lon="2.87098">
        <ele>73.1</ele>
        <time>2021-03-28T06:34:53Z</time>
      </trkpt>
      <trkpt lat="42.83286" lon="2.87089">
        <ele>73.3</ele>
        <time>2021-03-28T06:34:55Z</time>
      </trkpt>
      <trkpt lat="42.83286" lon="2.87089">
        <ele>73.3</ele>
        <time>2021-03-28T06:34:55Z</time>
      </trkpt>
      <trkpt lat="42.83291" lon="2.87079">
        <ele>73.3</ele>
        <time>2021-03-28T06:34:57Z</time>
      </trkpt>
      <trkpt lat="42.83291" lon="2.87079">
        <ele>73.3</ele>
        <time>2021-03-28T06:34:57Z</time>
      </trkpt>
      <trkpt lat="42.83296" lon="2.87072">
        <ele>73.1</ele>
        <time>2021-03-28T06:34:58Z</time>
      </trkpt>
      <trkpt lat="42.83296" lon="2.87072">
        <ele>73.1</ele>
        <time>2021-03-28T06:34:58Z</time>
      </trkpt>
      <trkpt lat="42.83301" lon="2.87064">
        <ele>73</ele>
        <time>2021-03-28T06:35:00Z</time>
      </trkpt>
      <trkpt lat="42.83301" lon="2.87064">
        <ele>73</ele>
        <time>2021-03-28T06:35:00Z</time>
      </trkpt>
      <trkpt lat="42.83306" lon="2.87056">
        <ele>73.1</ele>
        <time>2021-03-28T06:35:02Z</time>
      </trkpt>
      <trkpt lat="42.83306" lon="2.87056">
        <ele>73.1</ele>
        <time>2021-03-28T06:35:02Z</time>
      </trkpt>
      <trkpt lat="42.83312" lon="2.87047">
        <ele>73.6</ele>
        <time>2021-03-28T06:35:04Z</time>
      </trkpt>
      <trkpt lat="42.83312" lon="2.87047">
        <ele>73.6</ele>
        <time>2021-03-28T06:35:04Z</time>
      </trkpt>
      <trkpt lat="42.83319" lon="2.87038">
        <ele>74</ele>
        <time>2021-03-28T06:35:06Z</time>
      </trkpt>
      <trkpt lat="42.83319" lon="2.87038">
        <ele>74</ele>
        <time>2021-03-28T06:35:06Z</time>
      </trkpt>
      <trkpt lat="42.83324" lon="2.87031">
        <ele>74</ele>
        <time>2021-03-28T06:35:07Z</time>
      </trkpt>
      <trkpt lat="42.83324" lon="2.87031">
        <ele>74</ele>
        <time>2021-03-28T06:35:07Z</time>
      </trkpt>
      <trkpt lat="42.83329" lon="2.87022">
        <ele>73.9</ele>
        <time>2021-03-28T06:35:09Z</time>
      </trkpt>
      <trkpt lat="42.83329" lon="2.87022">
        <ele>73.9</ele>
        <time>2021-03-28T06:35:09Z</time>
      </trkpt>
      <trkpt lat="42.83335" lon="2.87014">
        <ele>74.1</ele>
        <time>2021-03-28T06:35:11Z</time>
      </trkpt>
      <trkpt lat="42.83335" lon="2.87014">
        <ele>74.1</ele>
        <time>2021-03-28T06:35:11Z</time>
      </trkpt>
      <trkpt lat="42.8334" lon="2.87008">
        <ele>74.3</ele>
        <time>2021-03-28T06:35:12Z</time>
      </trkpt>
      <trkpt lat="42.8334" lon="2.87008">
        <ele>74.3</ele>
        <time>2021-03-28T06:35:12Z</time>
      </trkpt>
      <trkpt lat="42.83346" lon="2.87">
        <ele>74.5</ele>
        <time>2021-03-28T06:35:14Z</time>
      </trkpt>
      <trkpt lat="42.83346" lon="2.87">
        <ele>74.5</ele>
        <time>2021-03-28T06:35:14Z</time>
      </trkpt>
      <trkpt lat="42.83351" lon="2.86994">
        <ele>74.6</ele>
        <time>2021-03-28T06:35:15Z</time>
      </trkpt>
      <trkpt lat="42.83351" lon="2.86994">
        <ele>74.6</ele>
        <time>2021-03-28T06:35:15Z</time>
      </trkpt>
      <trkpt lat="42.83356" lon="2.86988">
        <ele>74.8</ele>
        <time>2021-03-28T06:35:17Z</time>
      </trkpt>
      <trkpt lat="42.83356" lon="2.86988">
        <ele>74.8</ele>
        <time>2021-03-28T06:35:17Z</time>
      </trkpt>
      <trkpt lat="42.83362" lon="2.86981">
        <ele>75</ele>
        <time>2021-03-28T06:35:19Z</time>
      </trkpt>
      <trkpt lat="42.83362" lon="2.86981">
        <ele>75</ele>
        <time>2021-03-28T06:35:19Z</time>
      </trkpt>
      <trkpt lat="42.83368" lon="2.86972">
        <ele>75.3</ele>
        <time>2021-03-28T06:35:21Z</time>
      </trkpt>
      <trkpt lat="42.83368" lon="2.86972">
        <ele>75.3</ele>
        <time>2021-03-28T06:35:21Z</time>
      </trkpt>
      <trkpt lat="42.83375" lon="2.86964">
        <ele>75.2</ele>
        <time>2021-03-28T06:35:23Z</time>
      </trkpt>
      <trkpt lat="42.83375" lon="2.86964">
        <ele>75.2</ele>
        <time>2021-03-28T06:35:23Z</time>
      </trkpt>
      <trkpt lat="42.83382" lon="2.86955">
        <ele>75.1</ele>
        <time>2021-03-28T06:35:25Z</time>
      </trkpt>
      <trkpt lat="42.83382" lon="2.86955">
        <ele>75.1</ele>
        <time>2021-03-28T06:35:25Z</time>
      </trkpt>
      <trkpt lat="42.83389" lon="2.86946">
        <ele>75.1</ele>
        <time>2021-03-28T06:35:27Z</time>
      </trkpt>
      <trkpt lat="42.83389" lon="2.86946">
        <ele>75.1</ele>
        <time>2021-03-28T06:35:27Z</time>
      </trkpt>
      <trkpt lat="42.83396" lon="2.86939">
        <ele>75.6</ele>
        <time>2021-03-28T06:35:28Z</time>
      </trkpt>
      <trkpt lat="42.83396" lon="2.86939">
        <ele>75.6</ele>
        <time>2021-03-28T06:35:28Z</time>
      </trkpt>
      <trkpt lat="42.83402" lon="2.86932">
        <ele>76</ele>
        <time>2021-03-28T06:35:30Z</time>
      </trkpt>
      <trkpt lat="42.83402" lon="2.86932">
        <ele>76</ele>
        <time>2021-03-28T06:35:30Z</time>
      </trkpt>
      <trkpt lat="42.83406" lon="2.86927">
        <ele>76.1</ele>
        <time>2021-03-28T06:35:31Z</time>
      </trkpt>
      <trkpt lat="42.83406" lon="2.86927">
        <ele>76.1</ele>
        <time>2021-03-28T06:35:31Z</time>
      </trkpt>
      <trkpt lat="42.8341" lon="2.86922">
        <ele>76.1</ele>
        <time>2021-03-28T06:35:32Z</time>
      </trkpt>
      <trkpt lat="42.8341" lon="2.86922">
        <ele>76.1</ele>
        <time>2021-03-28T06:35:32Z</time>
      </trkpt>
      <trkpt lat="42.83415" lon="2.86916">
        <ele>75.9</ele>
        <time>2021-03-28T06:35:34Z</time>
      </trkpt>
      <trkpt lat="42.83415" lon="2.86916">
        <ele>75.9</ele>
        <time>2021-03-28T06:35:34Z</time>
      </trkpt>
      <trkpt lat="42.83419" lon="2.86911">
        <ele>76</ele>
        <time>2021-03-28T06:35:35Z</time>
      </trkpt>
      <trkpt lat="42.83419" lon="2.86911">
        <ele>76</ele>
        <time>2021-03-28T06:35:35Z</time>
      </trkpt>
      <trkpt lat="42.83424" lon="2.86905">
        <ele>76.5</ele>
        <time>2021-03-28T06:35:37Z</time>
      </trkpt>
      <trkpt lat="42.83424" lon="2.86905">
        <ele>76.5</ele>
        <time>2021-03-28T06:35:37Z</time>
      </trkpt>
      <trkpt lat="42.83428" lon="2.869">
        <ele>76.9</ele>
        <time>2021-03-28T06:35:38Z</time>
      </trkpt>
      <trkpt lat="42.83428" lon="2.869">
        <ele>76.9</ele>
        <time>2021-03-28T06:35:38Z</time>
      </trkpt>
      <trkpt lat="42.83433" lon="2.86895">
        <ele>77.3</ele>
        <time>2021-03-28T06:35:40Z</time>
      </trkpt>
      <trkpt lat="42.83433" lon="2.86895">
        <ele>77.3</ele>
        <time>2021-03-28T06:35:40Z</time>
      </trkpt>
      <trkpt lat="42.83437" lon="2.86891">
        <ele>77.8</ele>
        <time>2021-03-28T06:35:41Z</time>
      </trkpt>
      <trkpt lat="42.83437" lon="2.86891">
        <ele>77.8</ele>
        <time>2021-03-28T06:35:41Z</time>
      </trkpt>
      <trkpt lat="42.83441" lon="2.86888">
        <ele>78.3</ele>
        <time>2021-03-28T06:35:42Z</time>
      </trkpt>
      <trkpt lat="42.83441" lon="2.86888">
        <ele>78.3</ele>
        <time>2021-03-28T06:35:42Z</time>
      </trkpt>
      <trkpt lat="42.83446" lon="2.86886">
        <ele>78.7</ele>
        <time>2021-03-28T06:35:43Z</time>
      </trkpt>
      <trkpt lat="42.83446" lon="2.86886">
        <ele>78.7</ele>
        <time>2021-03-28T06:35:43Z</time>
      </trkpt>
      <trkpt lat="42.8345" lon="2.86884">
        <ele>78.9</ele>
        <time>2021-03-28T06:35:44Z</time>
      </trkpt>
      <trkpt lat="42.8345" lon="2.86884">
        <ele>78.9</ele>
        <time>2021-03-28T06:35:44Z</time>
      </trkpt>
      <trkpt lat="42.83456" lon="2.86884">
        <ele>79.2</ele>
        <time>2021-03-28T06:35:46Z</time>
      </trkpt>
      <trkpt lat="42.83456" lon="2.86884">
        <ele>79.2</ele>
        <time>2021-03-28T06:35:46Z</time>
      </trkpt>
      <trkpt lat="42.83463" lon="2.86884">
        <ele>79.6</ele>
        <time>2021-03-28T06:35:48Z</time>
      </trkpt>
      <trkpt lat="42.83463" lon="2.86884">
        <ele>79.6</ele>
        <time>2021-03-28T06:35:48Z</time>
      </trkpt>
      <trkpt lat="42.83469" lon="2.86884">
        <ele>80.1</ele>
        <time>2021-03-28T06:35:50Z</time>
      </trkpt>
      <trkpt lat="42.83469" lon="2.86884">
        <ele>80.1</ele>
        <time>2021-03-28T06:35:50Z</time>
      </trkpt>
      <trkpt lat="42.83476" lon="2.86884">
        <ele>80.4</ele>
        <time>2021-03-28T06:35:52Z</time>
      </trkpt>
      <trkpt lat="42.83476" lon="2.86884">
        <ele>80.4</ele>
        <time>2021-03-28T06:35:52Z</time>
      </trkpt>
      <trkpt lat="42.83482" lon="2.86884">
        <ele>80.7</ele>
        <time>2021-03-28T06:35:53Z</time>
      </trkpt>
      <trkpt lat="42.83482" lon="2.86884">
        <ele>80.7</ele>
        <time>2021-03-28T06:35:53Z</time>
      </trkpt>
      <trkpt lat="42.83487" lon="2.86885">
        <ele>81</ele>
        <time>2021-03-28T06:35:54Z</time>
      </trkpt>
      <trkpt lat="42.83487" lon="2.86885">
        <ele>81</ele>
        <time>2021-03-28T06:35:54Z</time>
      </trkpt>
      <trkpt lat="42.83492" lon="2.86885">
        <ele>81.3</ele>
        <time>2021-03-28T06:35:56Z</time>
      </trkpt>
      <trkpt lat="42.83492" lon="2.86885">
        <ele>81.3</ele>
        <time>2021-03-28T06:35:56Z</time>
      </trkpt>
      <trkpt lat="42.83498" lon="2.86886">
        <ele>81.6</ele>
        <time>2021-03-28T06:35:58Z</time>
      </trkpt>
      <trkpt lat="42.83498" lon="2.86886">
        <ele>81.6</ele>
        <time>2021-03-28T06:35:58Z</time>
      </trkpt>
      <trkpt lat="42.83503" lon="2.86887">
        <ele>82</ele>
        <time>2021-03-28T06:35:59Z</time>
      </trkpt>
      <trkpt lat="42.83503" lon="2.86887">
        <ele>82</ele>
        <time>2021-03-28T06:35:59Z</time>
      </trkpt>
      <trkpt lat="42.83509" lon="2.86888">
        <ele>82.5</ele>
        <time>2021-03-28T06:36:01Z</time>
      </trkpt>
      <trkpt lat="42.83509" lon="2.86888">
        <ele>82.5</ele>
        <time>2021-03-28T06:36:01Z</time>
      </trkpt>
      <trkpt lat="42.83515" lon="2.86889">
        <ele>83.1</ele>
        <time>2021-03-28T06:36:03Z</time>
      </trkpt>
      <trkpt lat="42.83515" lon="2.86889">
        <ele>83.1</ele>
        <time>2021-03-28T06:36:03Z</time>
      </trkpt>
      <trkpt lat="42.83522" lon="2.86891">
        <ele>83.6</ele>
        <time>2021-03-28T06:36:05Z</time>
      </trkpt>
      <trkpt lat="42.83522" lon="2.86891">
        <ele>83.6</ele>
        <time>2021-03-28T06:36:05Z</time>
      </trkpt>
      <trkpt lat="42.83527" lon="2.86893">
        <ele>84.1</ele>
        <time>2021-03-28T06:36:06Z</time>
      </trkpt>
      <trkpt lat="42.83527" lon="2.86893">
        <ele>84.1</ele>
        <time>2021-03-28T06:36:06Z</time>
      </trkpt>
      <trkpt lat="42.83533" lon="2.86898">
        <ele>84.2</ele>
        <time>2021-03-28T06:36:08Z</time>
      </trkpt>
      <trkpt lat="42.83533" lon="2.86898">
        <ele>84.2</ele>
        <time>2021-03-28T06:36:08Z</time>
      </trkpt>
      <trkpt lat="42.83537" lon="2.86902">
        <ele>84.5</ele>
        <time>2021-03-28T06:36:09Z</time>
      </trkpt>
      <trkpt lat="42.83537" lon="2.86902">
        <ele>84.5</ele>
        <time>2021-03-28T06:36:09Z</time>
      </trkpt>
      <trkpt lat="42.8354" lon="2.86909">
        <ele>84.9</ele>
        <time>2021-03-28T06:36:11Z</time>
      </trkpt>
      <trkpt lat="42.8354" lon="2.86909">
        <ele>84.9</ele>
        <time>2021-03-28T06:36:11Z</time>
      </trkpt>
      <trkpt lat="42.83541" lon="2.86917">
        <ele>85.5</ele>
        <time>2021-03-28T06:36:13Z</time>
      </trkpt>
      <trkpt lat="42.83541" lon="2.86917">
        <ele>85.5</ele>
        <time>2021-03-28T06:36:13Z</time>
      </trkpt>
      <trkpt lat="42.83542" lon="2.86925">
        <ele>86.3</ele>
        <time>2021-03-28T06:36:15Z</time>
      </trkpt>
      <trkpt lat="42.83542" lon="2.86925">
        <ele>86.3</ele>
        <time>2021-03-28T06:36:15Z</time>
      </trkpt>
      <trkpt lat="42.83542" lon="2.86932">
        <ele>86.9</ele>
        <time>2021-03-28T06:36:16Z</time>
      </trkpt>
      <trkpt lat="42.83542" lon="2.86932">
        <ele>86.9</ele>
        <time>2021-03-28T06:36:16Z</time>
      </trkpt>
      <trkpt lat="42.83541" lon="2.86941">
        <ele>87.5</ele>
        <time>2021-03-28T06:36:18Z</time>
      </trkpt>
      <trkpt lat="42.83541" lon="2.86941">
        <ele>87.5</ele>
        <time>2021-03-28T06:36:18Z</time>
      </trkpt>
      <trkpt lat="42.8354" lon="2.86948">
        <ele>87.7</ele>
        <time>2021-03-28T06:36:19Z</time>
      </trkpt>
      <trkpt lat="42.8354" lon="2.86948">
        <ele>87.7</ele>
        <time>2021-03-28T06:36:19Z</time>
      </trkpt>
      <trkpt lat="42.83539" lon="2.86955">
        <ele>87.7</ele>
        <time>2021-03-28T06:36:20Z</time>
      </trkpt>
      <trkpt lat="42.83539" lon="2.86955">
        <ele>87.7</ele>
        <time>2021-03-28T06:36:20Z</time>
      </trkpt>
      <trkpt lat="42.83538" lon="2.86962">
        <ele>87.6</ele>
        <time>2021-03-28T06:36:21Z</time>
      </trkpt>
      <trkpt lat="42.83538" lon="2.86962">
        <ele>87.6</ele>
        <time>2021-03-28T06:36:21Z</time>
      </trkpt>
      <trkpt lat="42.83538" lon="2.86968">
        <ele>87.6</ele>
        <time>2021-03-28T06:36:22Z</time>
      </trkpt>
      <trkpt lat="42.83538" lon="2.86968">
        <ele>87.6</ele>
        <time>2021-03-28T06:36:22Z</time>
      </trkpt>
      <trkpt lat="42.83538" lon="2.86975">
        <ele>87.5</ele>
        <time>2021-03-28T06:36:24Z</time>
      </trkpt>
      <trkpt lat="42.83538" lon="2.86975">
        <ele>87.5</ele>
        <time>2021-03-28T06:36:24Z</time>
      </trkpt>
      <trkpt lat="42.83539" lon="2.86981">
        <ele>87.5</ele>
        <time>2021-03-28T06:36:25Z</time>
      </trkpt>
      <trkpt lat="42.83539" lon="2.86981">
        <ele>87.5</ele>
        <time>2021-03-28T06:36:25Z</time>
      </trkpt>
      <trkpt lat="42.8354" lon="2.86988">
        <ele>87.7</ele>
        <time>2021-03-28T06:36:27Z</time>
      </trkpt>
      <trkpt lat="42.8354" lon="2.86988">
        <ele>87.7</ele>
        <time>2021-03-28T06:36:27Z</time>
      </trkpt>
      <trkpt lat="42.83542" lon="2.86993">
        <ele>87.8</ele>
        <time>2021-03-28T06:36:28Z</time>
      </trkpt>
      <trkpt lat="42.83542" lon="2.86993">
        <ele>87.8</ele>
        <time>2021-03-28T06:36:28Z</time>
      </trkpt>
      <trkpt lat="42.83544" lon="2.86998">
        <ele>88</ele>
        <time>2021-03-28T06:36:29Z</time>
      </trkpt>
      <trkpt lat="42.83544" lon="2.86998">
        <ele>88</ele>
        <time>2021-03-28T06:36:29Z</time>
      </trkpt>
      <trkpt lat="42.83546" lon="2.87004">
        <ele>88.3</ele>
        <time>2021-03-28T06:36:31Z</time>
      </trkpt>
      <trkpt lat="42.83546" lon="2.87004">
        <ele>88.3</ele>
        <time>2021-03-28T06:36:31Z</time>
      </trkpt>
      <trkpt lat="42.83549" lon="2.87008">
        <ele>88.4</ele>
        <time>2021-03-28T06:36:32Z</time>
      </trkpt>
      <trkpt lat="42.83549" lon="2.87008">
        <ele>88.4</ele>
        <time>2021-03-28T06:36:32Z</time>
      </trkpt>
      <trkpt lat="42.83552" lon="2.87012">
        <ele>88.4</ele>
        <time>2021-03-28T06:36:33Z</time>
      </trkpt>
      <trkpt lat="42.83552" lon="2.87012">
        <ele>88.4</ele>
        <time>2021-03-28T06:36:33Z</time>
      </trkpt>
      <trkpt lat="42.83555" lon="2.87017">
        <ele>88.2</ele>
        <time>2021-03-28T06:36:35Z</time>
      </trkpt>
      <trkpt lat="42.83555" lon="2.87017">
        <ele>88.2</ele>
        <time>2021-03-28T06:36:35Z</time>
      </trkpt>
      <trkpt lat="42.83559" lon="2.87022">
        <ele>88.8</ele>
        <time>2021-03-28T06:36:37Z</time>
      </trkpt>
      <trkpt lat="42.83559" lon="2.87022">
        <ele>88.8</ele>
        <time>2021-03-28T06:36:37Z</time>
      </trkpt>
      <trkpt lat="42.83564" lon="2.87027">
        <ele>89.5</ele>
        <time>2021-03-28T06:36:39Z</time>
      </trkpt>
      <trkpt lat="42.83564" lon="2.87027">
        <ele>89.5</ele>
        <time>2021-03-28T06:36:39Z</time>
      </trkpt>
      <trkpt lat="42.83568" lon="2.87032">
        <ele>90.2</ele>
        <time>2021-03-28T06:36:40Z</time>
      </trkpt>
      <trkpt lat="42.83568" lon="2.87032">
        <ele>90.2</ele>
        <time>2021-03-28T06:36:40Z</time>
      </trkpt>
      <trkpt lat="42.83571" lon="2.87037">
        <ele>90.7</ele>
        <time>2021-03-28T06:36:42Z</time>
      </trkpt>
      <trkpt lat="42.83571" lon="2.87037">
        <ele>90.7</ele>
        <time>2021-03-28T06:36:42Z</time>
      </trkpt>
      <trkpt lat="42.83574" lon="2.87043">
        <ele>90.9</ele>
        <time>2021-03-28T06:36:44Z</time>
      </trkpt>
      <trkpt lat="42.83574" lon="2.87043">
        <ele>90.9</ele>
        <time>2021-03-28T06:36:44Z</time>
      </trkpt>
      <trkpt lat="42.83578" lon="2.87049">
        <ele>90.9</ele>
        <time>2021-03-28T06:36:46Z</time>
      </trkpt>
      <trkpt lat="42.83578" lon="2.87049">
        <ele>90.9</ele>
        <time>2021-03-28T06:36:46Z</time>
      </trkpt>
      <trkpt lat="42.8358" lon="2.87054">
        <ele>90.8</ele>
        <time>2021-03-28T06:36:47Z</time>
      </trkpt>
      <trkpt lat="42.8358" lon="2.87054">
        <ele>90.8</ele>
        <time>2021-03-28T06:36:47Z</time>
      </trkpt>
      <trkpt lat="42.83583" lon="2.87058">
        <ele>90.7</ele>
        <time>2021-03-28T06:36:48Z</time>
      </trkpt>
      <trkpt lat="42.83583" lon="2.87058">
        <ele>90.7</ele>
        <time>2021-03-28T06:36:48Z</time>
      </trkpt>
      <trkpt lat="42.83586" lon="2.87063">
        <ele>91.2</ele>
        <time>2021-03-28T06:36:50Z</time>
      </trkpt>
      <trkpt lat="42.83586" lon="2.87063">
        <ele>91.2</ele>
        <time>2021-03-28T06:36:50Z</time>
      </trkpt>
      <trkpt lat="42.83589" lon="2.87068">
        <ele>91.9</ele>
        <time>2021-03-28T06:36:52Z</time>
      </trkpt>
      <trkpt lat="42.83589" lon="2.87068">
        <ele>91.9</ele>
        <time>2021-03-28T06:36:52Z</time>
      </trkpt>
      <trkpt lat="42.83593" lon="2.87072">
        <ele>92.4</ele>
        <time>2021-03-28T06:36:54Z</time>
      </trkpt>
      <trkpt lat="42.83593" lon="2.87072">
        <ele>92.4</ele>
        <time>2021-03-28T06:36:54Z</time>
      </trkpt>
      <trkpt lat="42.83596" lon="2.87077">
        <ele>92.9</ele>
        <time>2021-03-28T06:36:56Z</time>
      </trkpt>
      <trkpt lat="42.83596" lon="2.87077">
        <ele>92.9</ele>
        <time>2021-03-28T06:36:56Z</time>
      </trkpt>
      <trkpt lat="42.836" lon="2.87083">
        <ele>93.2</ele>
        <time>2021-03-28T06:36:58Z</time>
      </trkpt>
      <trkpt lat="42.836" lon="2.87083">
        <ele>93.2</ele>
        <time>2021-03-28T06:36:58Z</time>
      </trkpt>
      <trkpt lat="42.83603" lon="2.87088">
        <ele>93.7</ele>
        <time>2021-03-28T06:37:00Z</time>
      </trkpt>
      <trkpt lat="42.83603" lon="2.87088">
        <ele>93.7</ele>
        <time>2021-03-28T06:37:00Z</time>
      </trkpt>
      <trkpt lat="42.83607" lon="2.87093">
        <ele>94</ele>
        <time>2021-03-28T06:37:01Z</time>
      </trkpt>
      <trkpt lat="42.83607" lon="2.87093">
        <ele>94</ele>
        <time>2021-03-28T06:37:01Z</time>
      </trkpt>
      <trkpt lat="42.83609" lon="2.87098">
        <ele>94.1</ele>
        <time>2021-03-28T06:37:03Z</time>
      </trkpt>
      <trkpt lat="42.83609" lon="2.87098">
        <ele>94.1</ele>
        <time>2021-03-28T06:37:03Z</time>
      </trkpt>
      <trkpt lat="42.83613" lon="2.87103">
        <ele>94.2</ele>
        <time>2021-03-28T06:37:05Z</time>
      </trkpt>
      <trkpt lat="42.83613" lon="2.87103">
        <ele>94.2</ele>
        <time>2021-03-28T06:37:05Z</time>
      </trkpt>
      <trkpt lat="42.83616" lon="2.87109">
        <ele>94.4</ele>
        <time>2021-03-28T06:37:07Z</time>
      </trkpt>
      <trkpt lat="42.83616" lon="2.87109">
        <ele>94.4</ele>
        <time>2021-03-28T06:37:07Z</time>
      </trkpt>
      <trkpt lat="42.8362" lon="2.87114">
        <ele>94.7</ele>
        <time>2021-03-28T06:37:09Z</time>
      </trkpt>
      <trkpt lat="42.8362" lon="2.87114">
        <ele>94.7</ele>
        <time>2021-03-28T06:37:09Z</time>
      </trkpt>
      <trkpt lat="42.83624" lon="2.8712">
        <ele>95.1</ele>
        <time>2021-03-28T06:37:11Z</time>
      </trkpt>
      <trkpt lat="42.83624" lon="2.8712">
        <ele>95.1</ele>
        <time>2021-03-28T06:37:11Z</time>
      </trkpt>
      <trkpt lat="42.83627" lon="2.87125">
        <ele>95.3</ele>
        <time>2021-03-28T06:37:12Z</time>
      </trkpt>
      <trkpt lat="42.83627" lon="2.87125">
        <ele>95.3</ele>
        <time>2021-03-28T06:37:12Z</time>
      </trkpt>
      <trkpt lat="42.8363" lon="2.87131">
        <ele>95.6</ele>
        <time>2021-03-28T06:37:14Z</time>
      </trkpt>
      <trkpt lat="42.8363" lon="2.87131">
        <ele>95.6</ele>
        <time>2021-03-28T06:37:14Z</time>
      </trkpt>
      <trkpt lat="42.83633" lon="2.87136">
        <ele>96</ele>
        <time>2021-03-28T06:37:16Z</time>
      </trkpt>
      <trkpt lat="42.83633" lon="2.87136">
        <ele>96</ele>
        <time>2021-03-28T06:37:16Z</time>
      </trkpt>
      <trkpt lat="42.83636" lon="2.87141">
        <ele>96.2</ele>
        <time>2021-03-28T06:37:17Z</time>
      </trkpt>
      <trkpt lat="42.83636" lon="2.87141">
        <ele>96.2</ele>
        <time>2021-03-28T06:37:17Z</time>
      </trkpt>
      <trkpt lat="42.83639" lon="2.87144">
        <ele>96.4</ele>
        <time>2021-03-28T06:37:18Z</time>
      </trkpt>
      <trkpt lat="42.83639" lon="2.87144">
        <ele>96.4</ele>
        <time>2021-03-28T06:37:18Z</time>
      </trkpt>
      <trkpt lat="42.83642" lon="2.87148">
        <ele>96.4</ele>
        <time>2021-03-28T06:37:20Z</time>
      </trkpt>
      <trkpt lat="42.83642" lon="2.87148">
        <ele>96.4</ele>
        <time>2021-03-28T06:37:20Z</time>
      </trkpt>
      <trkpt lat="42.83645" lon="2.87152">
        <ele>96.5</ele>
        <time>2021-03-28T06:37:22Z</time>
      </trkpt>
      <trkpt lat="42.83645" lon="2.87152">
        <ele>96.5</ele>
        <time>2021-03-28T06:37:22Z</time>
      </trkpt>
      <trkpt lat="42.83649" lon="2.87155">
        <ele>96.7</ele>
        <time>2021-03-28T06:37:23Z</time>
      </trkpt>
      <trkpt lat="42.83649" lon="2.87155">
        <ele>96.7</ele>
        <time>2021-03-28T06:37:23Z</time>
      </trkpt>
      <trkpt lat="42.83652" lon="2.87158">
        <ele>97</ele>
        <time>2021-03-28T06:37:25Z</time>
      </trkpt>
      <trkpt lat="42.83652" lon="2.87158">
        <ele>97</ele>
        <time>2021-03-28T06:37:25Z</time>
      </trkpt>
      <trkpt lat="42.83655" lon="2.87161">
        <ele>97.3</ele>
        <time>2021-03-28T06:37:27Z</time>
      </trkpt>
      <trkpt lat="42.83655" lon="2.87161">
        <ele>97.3</ele>
        <time>2021-03-28T06:37:27Z</time>
      </trkpt>
      <trkpt lat="42.83658" lon="2.87164">
        <ele>97.6</ele>
        <time>2021-03-28T06:37:28Z</time>
      </trkpt>
      <trkpt lat="42.83658" lon="2.87164">
        <ele>97.6</ele>
        <time>2021-03-28T06:37:28Z</time>
      </trkpt>
      <trkpt lat="42.83663" lon="2.87167">
        <ele>98.2</ele>
        <time>2021-03-28T06:37:30Z</time>
      </trkpt>
      <trkpt lat="42.83663" lon="2.87167">
        <ele>98.2</ele>
        <time>2021-03-28T06:37:30Z</time>
      </trkpt>
      <trkpt lat="42.83666" lon="2.87169">
        <ele>98.7</ele>
        <time>2021-03-28T06:37:31Z</time>
      </trkpt>
      <trkpt lat="42.83666" lon="2.87169">
        <ele>98.7</ele>
        <time>2021-03-28T06:37:31Z</time>
      </trkpt>
      <trkpt lat="42.8367" lon="2.8717">
        <ele>98.8</ele>
        <time>2021-03-28T06:37:32Z</time>
      </trkpt>
      <trkpt lat="42.8367" lon="2.8717">
        <ele>98.8</ele>
        <time>2021-03-28T06:37:32Z</time>
      </trkpt>
      <trkpt lat="42.83674" lon="2.87172">
        <ele>99</ele>
        <time>2021-03-28T06:37:34Z</time>
      </trkpt>
      <trkpt lat="42.83674" lon="2.87172">
        <ele>99</ele>
        <time>2021-03-28T06:37:34Z</time>
      </trkpt>
      <trkpt lat="42.83679" lon="2.87173">
        <ele>99.3</ele>
        <time>2021-03-28T06:37:36Z</time>
      </trkpt>
      <trkpt lat="42.83679" lon="2.87173">
        <ele>99.3</ele>
        <time>2021-03-28T06:37:36Z</time>
      </trkpt>
      <trkpt lat="42.83682" lon="2.87173">
        <ele>99.6</ele>
        <time>2021-03-28T06:37:37Z</time>
      </trkpt>
      <trkpt lat="42.83682" lon="2.87173">
        <ele>99.6</ele>
        <time>2021-03-28T06:37:37Z</time>
      </trkpt>
      <trkpt lat="42.83687" lon="2.87173">
        <ele>99.9</ele>
        <time>2021-03-28T06:37:39Z</time>
      </trkpt>
      <trkpt lat="42.83687" lon="2.87173">
        <ele>99.9</ele>
        <time>2021-03-28T06:37:39Z</time>
      </trkpt>
      <trkpt lat="42.83691" lon="2.87173">
        <ele>100.3</ele>
        <time>2021-03-28T06:37:41Z</time>
      </trkpt>
      <trkpt lat="42.83691" lon="2.87173">
        <ele>100.3</ele>
        <time>2021-03-28T06:37:41Z</time>
      </trkpt>
      <trkpt lat="42.83695" lon="2.87173">
        <ele>100.6</ele>
        <time>2021-03-28T06:37:43Z</time>
      </trkpt>
      <trkpt lat="42.83695" lon="2.87173">
        <ele>100.6</ele>
        <time>2021-03-28T06:37:43Z</time>
      </trkpt>
      <trkpt lat="42.837" lon="2.87172">
        <ele>101</ele>
        <time>2021-03-28T06:37:45Z</time>
      </trkpt>
      <trkpt lat="42.837" lon="2.87172">
        <ele>101</ele>
        <time>2021-03-28T06:37:45Z</time>
      </trkpt>
      <trkpt lat="42.83704" lon="2.87171">
        <ele>101.3</ele>
        <time>2021-03-28T06:37:46Z</time>
      </trkpt>
      <trkpt lat="42.83704" lon="2.87171">
        <ele>101.3</ele>
        <time>2021-03-28T06:37:46Z</time>
      </trkpt>
      <trkpt lat="42.83707" lon="2.8717">
        <ele>101.7</ele>
        <time>2021-03-28T06:37:47Z</time>
      </trkpt>
      <trkpt lat="42.83707" lon="2.8717">
        <ele>101.7</ele>
        <time>2021-03-28T06:37:47Z</time>
      </trkpt>
      <trkpt lat="42.83711" lon="2.87168">
        <ele>102.1</ele>
        <time>2021-03-28T06:37:48Z</time>
      </trkpt>
      <trkpt lat="42.83711" lon="2.87168">
        <ele>102.1</ele>
        <time>2021-03-28T06:37:48Z</time>
      </trkpt>
      <trkpt lat="42.83714" lon="2.87167">
        <ele>102.4</ele>
        <time>2021-03-28T06:37:49Z</time>
      </trkpt>
      <trkpt lat="42.83714" lon="2.87167">
        <ele>102.4</ele>
        <time>2021-03-28T06:37:49Z</time>
      </trkpt>
      <trkpt lat="42.83717" lon="2.87165">
        <ele>102.7</ele>
        <time>2021-03-28T06:37:50Z</time>
      </trkpt>
      <trkpt lat="42.83717" lon="2.87165">
        <ele>102.7</ele>
        <time>2021-03-28T06:37:50Z</time>
      </trkpt>
      <trkpt lat="42.83721" lon="2.87164">
        <ele>103.1</ele>
        <time>2021-03-28T06:37:52Z</time>
      </trkpt>
      <trkpt lat="42.83721" lon="2.87164">
        <ele>103.1</ele>
        <time>2021-03-28T06:37:52Z</time>
      </trkpt>
      <trkpt lat="42.83725" lon="2.87161">
        <ele>103.5</ele>
        <time>2021-03-28T06:37:54Z</time>
      </trkpt>
      <trkpt lat="42.83725" lon="2.87161">
        <ele>103.5</ele>
        <time>2021-03-28T06:37:54Z</time>
      </trkpt>
      <trkpt lat="42.83729" lon="2.87159">
        <ele>103.8</ele>
        <time>2021-03-28T06:37:55Z</time>
      </trkpt>
      <trkpt lat="42.83729" lon="2.87159">
        <ele>103.8</ele>
        <time>2021-03-28T06:37:55Z</time>
      </trkpt>
      <trkpt lat="42.83733" lon="2.87156">
        <ele>104.1</ele>
        <time>2021-03-28T06:37:57Z</time>
      </trkpt>
      <trkpt lat="42.83733" lon="2.87156">
        <ele>104.1</ele>
        <time>2021-03-28T06:37:57Z</time>
      </trkpt>
      <trkpt lat="42.83736" lon="2.87153">
        <ele>104.5</ele>
        <time>2021-03-28T06:37:58Z</time>
      </trkpt>
      <trkpt lat="42.83736" lon="2.87153">
        <ele>104.5</ele>
        <time>2021-03-28T06:37:58Z</time>
      </trkpt>
      <trkpt lat="42.8374" lon="2.8715">
        <ele>104.8</ele>
        <time>2021-03-28T06:38:00Z</time>
      </trkpt>
      <trkpt lat="42.8374" lon="2.8715">
        <ele>104.8</ele>
        <time>2021-03-28T06:38:00Z</time>
      </trkpt>
      <trkpt lat="42.83743" lon="2.87147">
        <ele>105.2</ele>
        <time>2021-03-28T06:38:01Z</time>
      </trkpt>
      <trkpt lat="42.83743" lon="2.87147">
        <ele>105.2</ele>
        <time>2021-03-28T06:38:01Z</time>
      </trkpt>
      <trkpt lat="42.83747" lon="2.87143">
        <ele>105.6</ele>
        <time>2021-03-28T06:38:03Z</time>
      </trkpt>
      <trkpt lat="42.83747" lon="2.87143">
        <ele>105.6</ele>
        <time>2021-03-28T06:38:03Z</time>
      </trkpt>
      <trkpt lat="42.8375" lon="2.8714">
        <ele>105.9</ele>
        <time>2021-03-28T06:38:04Z</time>
      </trkpt>
      <trkpt lat="42.8375" lon="2.8714">
        <ele>105.9</ele>
        <time>2021-03-28T06:38:04Z</time>
      </trkpt>
      <trkpt lat="42.83753" lon="2.87137">
        <ele>106.4</ele>
        <time>2021-03-28T06:38:05Z</time>
      </trkpt>
      <trkpt lat="42.83753" lon="2.87137">
        <ele>106.4</ele>
        <time>2021-03-28T06:38:05Z</time>
      </trkpt>
      <trkpt lat="42.83755" lon="2.87133">
        <ele>107</ele>
        <time>2021-03-28T06:38:07Z</time>
      </trkpt>
      <trkpt lat="42.83755" lon="2.87133">
        <ele>107</ele>
        <time>2021-03-28T06:38:07Z</time>
      </trkpt>
      <trkpt lat="42.83758" lon="2.87128">
        <ele>107.6</ele>
        <time>2021-03-28T06:38:09Z</time>
      </trkpt>
      <trkpt lat="42.83758" lon="2.87128">
        <ele>107.6</ele>
        <time>2021-03-28T06:38:09Z</time>
      </trkpt>
      <trkpt lat="42.83761" lon="2.87124">
        <ele>108</ele>
        <time>2021-03-28T06:38:10Z</time>
      </trkpt>
      <trkpt lat="42.83761" lon="2.87124">
        <ele>108</ele>
        <time>2021-03-28T06:38:10Z</time>
      </trkpt>
      <trkpt lat="42.83763" lon="2.8712">
        <ele>108.3</ele>
        <time>2021-03-28T06:38:11Z</time>
      </trkpt>
      <trkpt lat="42.83763" lon="2.8712">
        <ele>108.3</ele>
        <time>2021-03-28T06:38:11Z</time>
      </trkpt>
      <trkpt lat="42.83766" lon="2.87116">
        <ele>108.4</ele>
        <time>2021-03-28T06:38:13Z</time>
      </trkpt>
      <trkpt lat="42.83766" lon="2.87116">
        <ele>108.4</ele>
        <time>2021-03-28T06:38:13Z</time>
      </trkpt>
      <trkpt lat="42.83769" lon="2.87114">
        <ele>108.5</ele>
        <time>2021-03-28T06:38:14Z</time>
      </trkpt>
      <trkpt lat="42.83769" lon="2.87114">
        <ele>108.5</ele>
        <time>2021-03-28T06:38:14Z</time>
      </trkpt>
      <trkpt lat="42.83773" lon="2.87113">
        <ele>108.3</ele>
        <time>2021-03-28T06:38:16Z</time>
      </trkpt>
      <trkpt lat="42.83773" lon="2.87113">
        <ele>108.3</ele>
        <time>2021-03-28T06:38:16Z</time>
      </trkpt>
      <trkpt lat="42.83776" lon="2.87113">
        <ele>108</ele>
        <time>2021-03-28T06:38:17Z</time>
      </trkpt>
      <trkpt lat="42.83776" lon="2.87113">
        <ele>108</ele>
        <time>2021-03-28T06:38:17Z</time>
      </trkpt>
      <trkpt lat="42.83781" lon="2.87115">
        <ele>108.3</ele>
        <time>2021-03-28T06:38:19Z</time>
      </trkpt>
      <trkpt lat="42.83781" lon="2.87115">
        <ele>108.3</ele>
        <time>2021-03-28T06:38:19Z</time>
      </trkpt>
      <trkpt lat="42.83784" lon="2.87118">
        <ele>108.7</ele>
        <time>2021-03-28T06:38:20Z</time>
      </trkpt>
      <trkpt lat="42.83784" lon="2.87118">
        <ele>108.7</ele>
        <time>2021-03-28T06:38:20Z</time>
      </trkpt>
      <trkpt lat="42.83786" lon="2.87123">
        <ele>108.9</ele>
        <time>2021-03-28T06:38:22Z</time>
      </trkpt>
      <trkpt lat="42.83786" lon="2.87123">
        <ele>108.9</ele>
        <time>2021-03-28T06:38:22Z</time>
      </trkpt>
      <trkpt lat="42.83788" lon="2.87129">
        <ele>109</ele>
        <time>2021-03-28T06:38:24Z</time>
      </trkpt>
      <trkpt lat="42.83788" lon="2.87129">
        <ele>109</ele>
        <time>2021-03-28T06:38:24Z</time>
      </trkpt>
      <trkpt lat="42.83787" lon="2.87135">
        <ele>108.8</ele>
        <time>2021-03-28T06:38:26Z</time>
      </trkpt>
      <trkpt lat="42.83787" lon="2.87135">
        <ele>108.8</ele>
        <time>2021-03-28T06:38:26Z</time>
      </trkpt>
      <trkpt lat="42.83786" lon="2.87139">
        <ele>108.6</ele>
        <time>2021-03-28T06:38:27Z</time>
      </trkpt>
      <trkpt lat="42.83786" lon="2.87139">
        <ele>108.6</ele>
        <time>2021-03-28T06:38:27Z</time>
      </trkpt>
      <trkpt lat="42.83785" lon="2.87143">
        <ele>108.8</ele>
        <time>2021-03-28T06:38:28Z</time>
      </trkpt>
      <trkpt lat="42.83785" lon="2.87143">
        <ele>108.8</ele>
        <time>2021-03-28T06:38:28Z</time>
      </trkpt>
      <trkpt lat="42.83783" lon="2.87147">
        <ele>108.9</ele>
        <time>2021-03-28T06:38:30Z</time>
      </trkpt>
      <trkpt lat="42.83783" lon="2.87147">
        <ele>108.9</ele>
        <time>2021-03-28T06:38:30Z</time>
      </trkpt>
      <trkpt lat="42.83781" lon="2.87152">
        <ele>109</ele>
        <time>2021-03-28T06:38:31Z</time>
      </trkpt>
      <trkpt lat="42.83781" lon="2.87152">
        <ele>109</ele>
        <time>2021-03-28T06:38:31Z</time>
      </trkpt>
      <trkpt lat="42.83779" lon="2.87156">
        <ele>109.1</ele>
        <time>2021-03-28T06:38:32Z</time>
      </trkpt>
      <trkpt lat="42.83779" lon="2.87156">
        <ele>109.1</ele>
        <time>2021-03-28T06:38:32Z</time>
      </trkpt>
      <trkpt lat="42.83777" lon="2.8716">
        <ele>109.1</ele>
        <time>2021-03-28T06:38:33Z</time>
      </trkpt>
      <trkpt lat="42.83777" lon="2.8716">
        <ele>109.1</ele>
        <time>2021-03-28T06:38:33Z</time>
      </trkpt>
      <trkpt lat="42.83775" lon="2.87165">
        <ele>109.2</ele>
        <time>2021-03-28T06:38:35Z</time>
      </trkpt>
      <trkpt lat="42.83775" lon="2.87165">
        <ele>109.2</ele>
        <time>2021-03-28T06:38:35Z</time>
      </trkpt>
      <trkpt lat="42.83773" lon="2.87171">
        <ele>109.4</ele>
        <time>2021-03-28T06:38:37Z</time>
      </trkpt>
      <trkpt lat="42.83773" lon="2.87171">
        <ele>109.4</ele>
        <time>2021-03-28T06:38:37Z</time>
      </trkpt>
      <trkpt lat="42.83771" lon="2.87178">
        <ele>109.7</ele>
        <time>2021-03-28T06:38:39Z</time>
      </trkpt>
      <trkpt lat="42.83771" lon="2.87178">
        <ele>109.7</ele>
        <time>2021-03-28T06:38:39Z</time>
      </trkpt>
      <trkpt lat="42.8377" lon="2.87184">
        <ele>110</ele>
        <time>2021-03-28T06:38:41Z</time>
      </trkpt>
      <trkpt lat="42.8377" lon="2.87184">
        <ele>110</ele>
        <time>2021-03-28T06:38:41Z</time>
      </trkpt>
      <trkpt lat="42.83769" lon="2.8719">
        <ele>110.3</ele>
        <time>2021-03-28T06:38:42Z</time>
      </trkpt>
      <trkpt lat="42.83769" lon="2.8719">
        <ele>110.3</ele>
        <time>2021-03-28T06:38:42Z</time>
      </trkpt>
      <trkpt lat="42.83768" lon="2.87195">
        <ele>110.6</ele>
        <time>2021-03-28T06:38:43Z</time>
      </trkpt>
      <trkpt lat="42.83768" lon="2.87195">
        <ele>110.6</ele>
        <time>2021-03-28T06:38:43Z</time>
      </trkpt>
      <trkpt lat="42.83768" lon="2.87201">
        <ele>110.8</ele>
        <time>2021-03-28T06:38:45Z</time>
      </trkpt>
      <trkpt lat="42.83768" lon="2.87201">
        <ele>110.8</ele>
        <time>2021-03-28T06:38:45Z</time>
      </trkpt>
      <trkpt lat="42.83768" lon="2.87206">
        <ele>111</ele>
        <time>2021-03-28T06:38:46Z</time>
      </trkpt>
      <trkpt lat="42.83768" lon="2.87206">
        <ele>111</ele>
        <time>2021-03-28T06:38:46Z</time>
      </trkpt>
      <trkpt lat="42.83768" lon="2.87211">
        <ele>111.2</ele>
        <time>2021-03-28T06:38:47Z</time>
      </trkpt>
      <trkpt lat="42.83768" lon="2.87211">
        <ele>111.2</ele>
        <time>2021-03-28T06:38:47Z</time>
      </trkpt>
      <trkpt lat="42.83768" lon="2.87216">
        <ele>111.6</ele>
        <time>2021-03-28T06:38:49Z</time>
      </trkpt>
      <trkpt lat="42.83768" lon="2.87216">
        <ele>111.6</ele>
        <time>2021-03-28T06:38:49Z</time>
      </trkpt>
      <trkpt lat="42.83769" lon="2.87221">
        <ele>112</ele>
        <time>2021-03-28T06:38:50Z</time>
      </trkpt>
      <trkpt lat="42.83769" lon="2.87221">
        <ele>112</ele>
        <time>2021-03-28T06:38:50Z</time>
      </trkpt>
      <trkpt lat="42.8377" lon="2.87227">
        <ele>112.2</ele>
        <time>2021-03-28T06:38:52Z</time>
      </trkpt>
      <trkpt lat="42.8377" lon="2.87227">
        <ele>112.2</ele>
        <time>2021-03-28T06:38:52Z</time>
      </trkpt>
      <trkpt lat="42.83771" lon="2.87232">
        <ele>112.3</ele>
        <time>2021-03-28T06:38:53Z</time>
      </trkpt>
      <trkpt lat="42.83771" lon="2.87232">
        <ele>112.3</ele>
        <time>2021-03-28T06:38:53Z</time>
      </trkpt>
      <trkpt lat="42.83773" lon="2.87239">
        <ele>112.4</ele>
        <time>2021-03-28T06:38:55Z</time>
      </trkpt>
      <trkpt lat="42.83773" lon="2.87239">
        <ele>112.4</ele>
        <time>2021-03-28T06:38:55Z</time>
      </trkpt>
      <trkpt lat="42.83774" lon="2.87244">
        <ele>112.5</ele>
        <time>2021-03-28T06:38:56Z</time>
      </trkpt>
      <trkpt lat="42.83774" lon="2.87244">
        <ele>112.5</ele>
        <time>2021-03-28T06:38:56Z</time>
      </trkpt>
      <trkpt lat="42.83776" lon="2.87251">
        <ele>112.6</ele>
        <time>2021-03-28T06:38:58Z</time>
      </trkpt>
      <trkpt lat="42.83776" lon="2.87251">
        <ele>112.6</ele>
        <time>2021-03-28T06:38:58Z</time>
      </trkpt>
      <trkpt lat="42.83778" lon="2.87258">
        <ele>112.7</ele>
        <time>2021-03-28T06:39:00Z</time>
      </trkpt>
      <trkpt lat="42.83778" lon="2.87258">
        <ele>112.7</ele>
        <time>2021-03-28T06:39:00Z</time>
      </trkpt>
      <trkpt lat="42.83779" lon="2.87264">
        <ele>112.8</ele>
        <time>2021-03-28T06:39:02Z</time>
      </trkpt>
      <trkpt lat="42.83779" lon="2.87264">
        <ele>112.8</ele>
        <time>2021-03-28T06:39:02Z</time>
      </trkpt>
      <trkpt lat="42.83781" lon="2.87272">
        <ele>113</ele>
        <time>2021-03-28T06:39:04Z</time>
      </trkpt>
      <trkpt lat="42.83781" lon="2.87272">
        <ele>113</ele>
        <time>2021-03-28T06:39:04Z</time>
      </trkpt>
      <trkpt lat="42.83783" lon="2.87279">
        <ele>113.2</ele>
        <time>2021-03-28T06:39:06Z</time>
      </trkpt>
      <trkpt lat="42.83783" lon="2.87279">
        <ele>113.2</ele>
        <time>2021-03-28T06:39:06Z</time>
      </trkpt>
      <trkpt lat="42.83785" lon="2.87285">
        <ele>113.6</ele>
        <time>2021-03-28T06:39:07Z</time>
      </trkpt>
      <trkpt lat="42.83785" lon="2.87285">
        <ele>113.6</ele>
        <time>2021-03-28T06:39:07Z</time>
      </trkpt>
      <trkpt lat="42.83787" lon="2.87292">
        <ele>114.1</ele>
        <time>2021-03-28T06:39:09Z</time>
      </trkpt>
      <trkpt lat="42.83787" lon="2.87292">
        <ele>114.1</ele>
        <time>2021-03-28T06:39:09Z</time>
      </trkpt>
      <trkpt lat="42.83789" lon="2.87298">
        <ele>114.7</ele>
        <time>2021-03-28T06:39:10Z</time>
      </trkpt>
      <trkpt lat="42.83789" lon="2.87298">
        <ele>114.7</ele>
        <time>2021-03-28T06:39:10Z</time>
      </trkpt>
      <trkpt lat="42.83791" lon="2.87305">
        <ele>115.4</ele>
        <time>2021-03-28T06:39:12Z</time>
      </trkpt>
      <trkpt lat="42.83791" lon="2.87305">
        <ele>115.4</ele>
        <time>2021-03-28T06:39:12Z</time>
      </trkpt>
      <trkpt lat="42.83793" lon="2.87311">
        <ele>115.6</ele>
        <time>2021-03-28T06:39:13Z</time>
      </trkpt>
      <trkpt lat="42.83793" lon="2.87311">
        <ele>115.6</ele>
        <time>2021-03-28T06:39:13Z</time>
      </trkpt>
      <trkpt lat="42.83795" lon="2.87317">
        <ele>115.7</ele>
        <time>2021-03-28T06:39:15Z</time>
      </trkpt>
      <trkpt lat="42.83795" lon="2.87317">
        <ele>115.7</ele>
        <time>2021-03-28T06:39:15Z</time>
      </trkpt>
      <trkpt lat="42.83797" lon="2.87322">
        <ele>115.8</ele>
        <time>2021-03-28T06:39:16Z</time>
      </trkpt>
      <trkpt lat="42.83797" lon="2.87322">
        <ele>115.8</ele>
        <time>2021-03-28T06:39:16Z</time>
      </trkpt>
      <trkpt lat="42.83798" lon="2.87326">
        <ele>115.8</ele>
        <time>2021-03-28T06:39:17Z</time>
      </trkpt>
      <trkpt lat="42.83798" lon="2.87326">
        <ele>115.8</ele>
        <time>2021-03-28T06:39:17Z</time>
      </trkpt>
      <trkpt lat="42.838" lon="2.87332">
        <ele>115.9</ele>
        <time>2021-03-28T06:39:19Z</time>
      </trkpt>
      <trkpt lat="42.838" lon="2.87332">
        <ele>115.9</ele>
        <time>2021-03-28T06:39:19Z</time>
      </trkpt>
      <trkpt lat="42.83802" lon="2.87337">
        <ele>116.1</ele>
        <time>2021-03-28T06:39:20Z</time>
      </trkpt>
      <trkpt lat="42.83802" lon="2.87337">
        <ele>116.1</ele>
        <time>2021-03-28T06:39:20Z</time>
      </trkpt>
      <trkpt lat="42.83804" lon="2.87342">
        <ele>116.3</ele>
        <time>2021-03-28T06:39:21Z</time>
      </trkpt>
      <trkpt lat="42.83804" lon="2.87342">
        <ele>116.3</ele>
        <time>2021-03-28T06:39:21Z</time>
      </trkpt>
      <trkpt lat="42.83806" lon="2.87348">
        <ele>116.7</ele>
        <time>2021-03-28T06:39:23Z</time>
      </trkpt>
      <trkpt lat="42.83806" lon="2.87348">
        <ele>116.7</ele>
        <time>2021-03-28T06:39:23Z</time>
      </trkpt>
      <trkpt lat="42.83808" lon="2.87353">
        <ele>117</ele>
        <time>2021-03-28T06:39:24Z</time>
      </trkpt>
      <trkpt lat="42.83808" lon="2.87353">
        <ele>117</ele>
        <time>2021-03-28T06:39:24Z</time>
      </trkpt>
      <trkpt lat="42.8381" lon="2.87358">
        <ele>117.2</ele>
        <time>2021-03-28T06:39:25Z</time>
      </trkpt>
      <trkpt lat="42.8381" lon="2.87358">
        <ele>117.2</ele>
        <time>2021-03-28T06:39:25Z</time>
      </trkpt>
      <trkpt lat="42.83812" lon="2.87363">
        <ele>117.5</ele>
        <time>2021-03-28T06:39:26Z</time>
      </trkpt>
      <trkpt lat="42.83812" lon="2.87363">
        <ele>117.5</ele>
        <time>2021-03-28T06:39:26Z</time>
      </trkpt>
      <trkpt lat="42.83814" lon="2.87369">
        <ele>118.1</ele>
        <time>2021-03-28T06:39:28Z</time>
      </trkpt>
      <trkpt lat="42.83814" lon="2.87369">
        <ele>118.1</ele>
        <time>2021-03-28T06:39:28Z</time>
      </trkpt>
      <trkpt lat="42.83815" lon="2.87375">
        <ele>118.5</ele>
        <time>2021-03-28T06:39:29Z</time>
      </trkpt>
      <trkpt lat="42.83815" lon="2.87375">
        <ele>118.5</ele>
        <time>2021-03-28T06:39:29Z</time>
      </trkpt>
      <trkpt lat="42.83817" lon="2.87381">
        <ele>119</ele>
        <time>2021-03-28T06:39:31Z</time>
      </trkpt>
      <trkpt lat="42.83817" lon="2.87381">
        <ele>119</ele>
        <time>2021-03-28T06:39:31Z</time>
      </trkpt>
      <trkpt lat="42.83819" lon="2.87386">
        <ele>119.4</ele>
        <time>2021-03-28T06:39:32Z</time>
      </trkpt>
      <trkpt lat="42.83819" lon="2.87386">
        <ele>119.4</ele>
        <time>2021-03-28T06:39:32Z</time>
      </trkpt>
      <trkpt lat="42.8382" lon="2.87391">
        <ele>119.7</ele>
        <time>2021-03-28T06:39:33Z</time>
      </trkpt>
      <trkpt lat="42.8382" lon="2.87391">
        <ele>119.7</ele>
        <time>2021-03-28T06:39:33Z</time>
      </trkpt>
      <trkpt lat="42.83822" lon="2.87396">
        <ele>120</ele>
        <time>2021-03-28T06:39:35Z</time>
      </trkpt>
      <trkpt lat="42.83822" lon="2.87396">
        <ele>120</ele>
        <time>2021-03-28T06:39:35Z</time>
      </trkpt>
      <trkpt lat="42.83823" lon="2.87401">
        <ele>120.2</ele>
        <time>2021-03-28T06:39:37Z</time>
      </trkpt>
      <trkpt lat="42.83823" lon="2.87401">
        <ele>120.2</ele>
        <time>2021-03-28T06:39:37Z</time>
      </trkpt>
      <trkpt lat="42.83824" lon="2.87408">
        <ele>120.5</ele>
        <time>2021-03-28T06:39:39Z</time>
      </trkpt>
      <trkpt lat="42.83824" lon="2.87408">
        <ele>120.5</ele>
        <time>2021-03-28T06:39:39Z</time>
      </trkpt>
      <trkpt lat="42.83826" lon="2.87414">
        <ele>120.7</ele>
        <time>2021-03-28T06:39:40Z</time>
      </trkpt>
      <trkpt lat="42.83826" lon="2.87414">
        <ele>120.7</ele>
        <time>2021-03-28T06:39:40Z</time>
      </trkpt>
      <trkpt lat="42.83828" lon="2.8742">
        <ele>120.9</ele>
        <time>2021-03-28T06:39:42Z</time>
      </trkpt>
      <trkpt lat="42.83828" lon="2.8742">
        <ele>120.9</ele>
        <time>2021-03-28T06:39:42Z</time>
      </trkpt>
      <trkpt lat="42.83829" lon="2.87426">
        <ele>121</ele>
        <time>2021-03-28T06:39:43Z</time>
      </trkpt>
      <trkpt lat="42.83829" lon="2.87426">
        <ele>121</ele>
        <time>2021-03-28T06:39:43Z</time>
      </trkpt>
      <trkpt lat="42.83831" lon="2.87432">
        <ele>121.2</ele>
        <time>2021-03-28T06:39:45Z</time>
      </trkpt>
      <trkpt lat="42.83831" lon="2.87432">
        <ele>121.2</ele>
        <time>2021-03-28T06:39:45Z</time>
      </trkpt>
      <trkpt lat="42.83833" lon="2.87438">
        <ele>121.2</ele>
        <time>2021-03-28T06:39:46Z</time>
      </trkpt>
      <trkpt lat="42.83833" lon="2.87438">
        <ele>121.2</ele>
        <time>2021-03-28T06:39:46Z</time>
      </trkpt>
      <trkpt lat="42.83834" lon="2.87445">
        <ele>121.3</ele>
        <time>2021-03-28T06:39:48Z</time>
      </trkpt>
      <trkpt lat="42.83834" lon="2.87445">
        <ele>121.3</ele>
        <time>2021-03-28T06:39:48Z</time>
      </trkpt>
      <trkpt lat="42.83835" lon="2.87451">
        <ele>121.7</ele>
        <time>2021-03-28T06:39:49Z</time>
      </trkpt>
      <trkpt lat="42.83835" lon="2.87451">
        <ele>121.7</ele>
        <time>2021-03-28T06:39:49Z</time>
      </trkpt>
      <trkpt lat="42.83837" lon="2.87457">
        <ele>122.3</ele>
        <time>2021-03-28T06:39:51Z</time>
      </trkpt>
      <trkpt lat="42.83837" lon="2.87457">
        <ele>122.3</ele>
        <time>2021-03-28T06:39:51Z</time>
      </trkpt>
      <trkpt lat="42.83839" lon="2.87464">
        <ele>122.9</ele>
        <time>2021-03-28T06:39:53Z</time>
      </trkpt>
      <trkpt lat="42.83839" lon="2.87464">
        <ele>122.9</ele>
        <time>2021-03-28T06:39:53Z</time>
      </trkpt>
      <trkpt lat="42.8384" lon="2.8747">
        <ele>123.4</ele>
        <time>2021-03-28T06:39:54Z</time>
      </trkpt>
      <trkpt lat="42.8384" lon="2.8747">
        <ele>123.4</ele>
        <time>2021-03-28T06:39:54Z</time>
      </trkpt>
      <trkpt lat="42.83841" lon="2.87475">
        <ele>123.8</ele>
        <time>2021-03-28T06:39:55Z</time>
      </trkpt>
      <trkpt lat="42.83841" lon="2.87475">
        <ele>123.8</ele>
        <time>2021-03-28T06:39:55Z</time>
      </trkpt>
      <trkpt lat="42.83842" lon="2.8748">
        <ele>124.3</ele>
        <time>2021-03-28T06:39:57Z</time>
      </trkpt>
      <trkpt lat="42.83842" lon="2.8748">
        <ele>124.3</ele>
        <time>2021-03-28T06:39:57Z</time>
      </trkpt>
      <trkpt lat="42.83843" lon="2.87486">
        <ele>124.7</ele>
        <time>2021-03-28T06:39:59Z</time>
      </trkpt>
      <trkpt lat="42.83843" lon="2.87486">
        <ele>124.7</ele>
        <time>2021-03-28T06:39:59Z</time>
      </trkpt>
      <trkpt lat="42.83844" lon="2.87491">
        <ele>125</ele>
        <time>2021-03-28T06:40:00Z</time>
      </trkpt>
      <trkpt lat="42.83844" lon="2.87491">
        <ele>125</ele>
        <time>2021-03-28T06:40:00Z</time>
      </trkpt>
      <trkpt lat="42.83844" lon="2.87495">
        <ele>125.2</ele>
        <time>2021-03-28T06:40:01Z</time>
      </trkpt>
      <trkpt lat="42.83844" lon="2.87495">
        <ele>125.2</ele>
        <time>2021-03-28T06:40:01Z</time>
      </trkpt>
      <trkpt lat="42.83844" lon="2.875">
        <ele>125.4</ele>
        <time>2021-03-28T06:40:02Z</time>
      </trkpt>
      <trkpt lat="42.83844" lon="2.875">
        <ele>125.4</ele>
        <time>2021-03-28T06:40:02Z</time>
      </trkpt>
      <trkpt lat="42.83845" lon="2.87507">
        <ele>125.8</ele>
        <time>2021-03-28T06:40:04Z</time>
      </trkpt>
      <trkpt lat="42.83845" lon="2.87507">
        <ele>125.8</ele>
        <time>2021-03-28T06:40:04Z</time>
      </trkpt>
      <trkpt lat="42.83847" lon="2.87514">
        <ele>126.3</ele>
        <time>2021-03-28T06:40:06Z</time>
      </trkpt>
      <trkpt lat="42.83847" lon="2.87514">
        <ele>126.3</ele>
        <time>2021-03-28T06:40:06Z</time>
      </trkpt>
      <trkpt lat="42.83849" lon="2.8752">
        <ele>126.5</ele>
        <time>2021-03-28T06:40:07Z</time>
      </trkpt>
      <trkpt lat="42.83849" lon="2.8752">
        <ele>126.5</ele>
        <time>2021-03-28T06:40:07Z</time>
      </trkpt>
      <trkpt lat="42.83851" lon="2.87525">
        <ele>126.6</ele>
        <time>2021-03-28T06:40:09Z</time>
      </trkpt>
      <trkpt lat="42.83851" lon="2.87525">
        <ele>126.6</ele>
        <time>2021-03-28T06:40:09Z</time>
      </trkpt>
      <trkpt lat="42.83853" lon="2.87529">
        <ele>126.5</ele>
        <time>2021-03-28T06:40:11Z</time>
      </trkpt>
      <trkpt lat="42.83853" lon="2.87529">
        <ele>126.5</ele>
        <time>2021-03-28T06:40:11Z</time>
      </trkpt>
      <trkpt lat="42.83856" lon="2.87531">
        <ele>126.2</ele>
        <time>2021-03-28T06:40:12Z</time>
      </trkpt>
      <trkpt lat="42.83856" lon="2.87531">
        <ele>126.2</ele>
        <time>2021-03-28T06:40:12Z</time>
      </trkpt>
      <trkpt lat="42.83859" lon="2.87533">
        <ele>126</ele>
        <time>2021-03-28T06:40:13Z</time>
      </trkpt>
      <trkpt lat="42.83859" lon="2.87533">
        <ele>126</ele>
        <time>2021-03-28T06:40:13Z</time>
      </trkpt>
      <trkpt lat="42.83862" lon="2.87534">
        <ele>125.8</ele>
        <time>2021-03-28T06:40:15Z</time>
      </trkpt>
      <trkpt lat="42.83862" lon="2.87534">
        <ele>125.8</ele>
        <time>2021-03-28T06:40:15Z</time>
      </trkpt>
      <trkpt lat="42.83867" lon="2.87536">
        <ele>125.9</ele>
        <time>2021-03-28T06:40:17Z</time>
      </trkpt>
      <trkpt lat="42.83867" lon="2.87536">
        <ele>125.9</ele>
        <time>2021-03-28T06:40:17Z</time>
      </trkpt>
      <trkpt lat="42.83871" lon="2.87537">
        <ele>126</ele>
        <time>2021-03-28T06:40:18Z</time>
      </trkpt>
      <trkpt lat="42.83871" lon="2.87537">
        <ele>126</ele>
        <time>2021-03-28T06:40:18Z</time>
      </trkpt>
      <trkpt lat="42.83875" lon="2.87538">
        <ele>126.1</ele>
        <time>2021-03-28T06:40:20Z</time>
      </trkpt>
      <trkpt lat="42.83875" lon="2.87538">
        <ele>126.1</ele>
        <time>2021-03-28T06:40:20Z</time>
      </trkpt>
      <trkpt lat="42.83879" lon="2.87538">
        <ele>126.3</ele>
        <time>2021-03-28T06:40:21Z</time>
      </trkpt>
      <trkpt lat="42.83879" lon="2.87538">
        <ele>126.3</ele>
        <time>2021-03-28T06:40:21Z</time>
      </trkpt>
      <trkpt lat="42.83884" lon="2.87538">
        <ele>126.4</ele>
        <time>2021-03-28T06:40:23Z</time>
      </trkpt>
      <trkpt lat="42.83884" lon="2.87538">
        <ele>126.4</ele>
        <time>2021-03-28T06:40:23Z</time>
      </trkpt>
      <trkpt lat="42.83888" lon="2.87538">
        <ele>126.6</ele>
        <time>2021-03-28T06:40:24Z</time>
      </trkpt>
      <trkpt lat="42.83888" lon="2.87538">
        <ele>126.6</ele>
        <time>2021-03-28T06:40:24Z</time>
      </trkpt>
      <trkpt lat="42.83892" lon="2.87537">
        <ele>126.9</ele>
        <time>2021-03-28T06:40:26Z</time>
      </trkpt>
      <trkpt lat="42.83892" lon="2.87537">
        <ele>126.9</ele>
        <time>2021-03-28T06:40:26Z</time>
      </trkpt>
      <trkpt lat="42.83896" lon="2.87537">
        <ele>127.2</ele>
        <time>2021-03-28T06:40:28Z</time>
      </trkpt>
      <trkpt lat="42.83896" lon="2.87537">
        <ele>127.2</ele>
        <time>2021-03-28T06:40:28Z</time>
      </trkpt>
      <trkpt lat="42.839" lon="2.87537">
        <ele>127.5</ele>
        <time>2021-03-28T06:40:29Z</time>
      </trkpt>
      <trkpt lat="42.839" lon="2.87537">
        <ele>127.5</ele>
        <time>2021-03-28T06:40:29Z</time>
      </trkpt>
      <trkpt lat="42.83905" lon="2.87537">
        <ele>127.9</ele>
        <time>2021-03-28T06:40:31Z</time>
      </trkpt>
      <trkpt lat="42.83905" lon="2.87537">
        <ele>127.9</ele>
        <time>2021-03-28T06:40:31Z</time>
      </trkpt>
      <trkpt lat="42.8391" lon="2.87537">
        <ele>128.2</ele>
        <time>2021-03-28T06:40:32Z</time>
      </trkpt>
      <trkpt lat="42.8391" lon="2.87537">
        <ele>128.2</ele>
        <time>2021-03-28T06:40:32Z</time>
      </trkpt>
      <trkpt lat="42.83915" lon="2.87536">
        <ele>128.6</ele>
        <time>2021-03-28T06:40:33Z</time>
      </trkpt>
      <trkpt lat="42.83915" lon="2.87536">
        <ele>128.6</ele>
        <time>2021-03-28T06:40:33Z</time>
      </trkpt>
      <trkpt lat="42.8392" lon="2.87535">
        <ele>128.8</ele>
        <time>2021-03-28T06:40:35Z</time>
      </trkpt>
      <trkpt lat="42.8392" lon="2.87535">
        <ele>128.8</ele>
        <time>2021-03-28T06:40:35Z</time>
      </trkpt>
      <trkpt lat="42.83924" lon="2.87534">
        <ele>129.1</ele>
        <time>2021-03-28T06:40:37Z</time>
      </trkpt>
      <trkpt lat="42.83924" lon="2.87534">
        <ele>129.1</ele>
        <time>2021-03-28T06:40:37Z</time>
      </trkpt>
      <trkpt lat="42.83929" lon="2.87533">
        <ele>129.3</ele>
        <time>2021-03-28T06:40:38Z</time>
      </trkpt>
      <trkpt lat="42.83929" lon="2.87533">
        <ele>129.3</ele>
        <time>2021-03-28T06:40:38Z</time>
      </trkpt>
      <trkpt lat="42.83933" lon="2.87532">
        <ele>129.5</ele>
        <time>2021-03-28T06:40:39Z</time>
      </trkpt>
      <trkpt lat="42.83933" lon="2.87532">
        <ele>129.5</ele>
        <time>2021-03-28T06:40:39Z</time>
      </trkpt>
      <trkpt lat="42.83937" lon="2.87529">
        <ele>129.7</ele>
        <time>2021-03-28T06:40:41Z</time>
      </trkpt>
      <trkpt lat="42.83937" lon="2.87529">
        <ele>129.7</ele>
        <time>2021-03-28T06:40:41Z</time>
      </trkpt>
      <trkpt lat="42.83943" lon="2.87525">
        <ele>130.2</ele>
        <time>2021-03-28T06:40:43Z</time>
      </trkpt>
      <trkpt lat="42.83943" lon="2.87525">
        <ele>130.2</ele>
        <time>2021-03-28T06:40:43Z</time>
      </trkpt>
      <trkpt lat="42.83947" lon="2.87521">
        <ele>130.5</ele>
        <time>2021-03-28T06:40:44Z</time>
      </trkpt>
      <trkpt lat="42.83947" lon="2.87521">
        <ele>130.5</ele>
        <time>2021-03-28T06:40:44Z</time>
      </trkpt>
      <trkpt lat="42.83951" lon="2.87516">
        <ele>130.7</ele>
        <time>2021-03-28T06:40:46Z</time>
      </trkpt>
      <trkpt lat="42.83951" lon="2.87516">
        <ele>130.7</ele>
        <time>2021-03-28T06:40:46Z</time>
      </trkpt>
      <trkpt lat="42.83956" lon="2.8751">
        <ele>130.9</ele>
        <time>2021-03-28T06:40:48Z</time>
      </trkpt>
      <trkpt lat="42.83956" lon="2.8751">
        <ele>130.9</ele>
        <time>2021-03-28T06:40:48Z</time>
      </trkpt>
      <trkpt lat="42.8396" lon="2.87502">
        <ele>131.1</ele>
        <time>2021-03-28T06:40:50Z</time>
      </trkpt>
      <trkpt lat="42.8396" lon="2.87502">
        <ele>131.1</ele>
        <time>2021-03-28T06:40:50Z</time>
      </trkpt>
      <trkpt lat="42.83964" lon="2.87496">
        <ele>131.2</ele>
        <time>2021-03-28T06:40:51Z</time>
      </trkpt>
      <trkpt lat="42.83964" lon="2.87496">
        <ele>131.2</ele>
        <time>2021-03-28T06:40:51Z</time>
      </trkpt>
      <trkpt lat="42.83968" lon="2.8749">
        <ele>131.3</ele>
        <time>2021-03-28T06:40:52Z</time>
      </trkpt>
      <trkpt lat="42.83968" lon="2.8749">
        <ele>131.3</ele>
        <time>2021-03-28T06:40:52Z</time>
      </trkpt>
      <trkpt lat="42.83971" lon="2.87484">
        <ele>131.3</ele>
        <time>2021-03-28T06:40:53Z</time>
      </trkpt>
      <trkpt lat="42.83971" lon="2.87484">
        <ele>131.3</ele>
        <time>2021-03-28T06:40:53Z</time>
      </trkpt>
      <trkpt lat="42.83975" lon="2.87478">
        <ele>131.3</ele>
        <time>2021-03-28T06:40:55Z</time>
      </trkpt>
      <trkpt lat="42.83975" lon="2.87478">
        <ele>131.3</ele>
        <time>2021-03-28T06:40:55Z</time>
      </trkpt>
      <trkpt lat="42.83979" lon="2.87474">
        <ele>131.4</ele>
        <time>2021-03-28T06:40:56Z</time>
      </trkpt>
      <trkpt lat="42.83979" lon="2.87474">
        <ele>131.4</ele>
        <time>2021-03-28T06:40:56Z</time>
      </trkpt>
      <trkpt lat="42.83984" lon="2.8747">
        <ele>131.4</ele>
        <time>2021-03-28T06:40:57Z</time>
      </trkpt>
      <trkpt lat="42.83984" lon="2.8747">
        <ele>131.4</ele>
        <time>2021-03-28T06:40:57Z</time>
      </trkpt>
      <trkpt lat="42.83989" lon="2.87467">
        <ele>131.4</ele>
        <time>2021-03-28T06:40:59Z</time>
      </trkpt>
      <trkpt lat="42.83989" lon="2.87467">
        <ele>131.4</ele>
        <time>2021-03-28T06:40:59Z</time>
      </trkpt>
      <trkpt lat="42.83993" lon="2.87465">
        <ele>131.2</ele>
        <time>2021-03-28T06:41:00Z</time>
      </trkpt>
      <trkpt lat="42.83993" lon="2.87465">
        <ele>131.2</ele>
        <time>2021-03-28T06:41:00Z</time>
      </trkpt>
      <trkpt lat="42.83999" lon="2.87465">
        <ele>130.8</ele>
        <time>2021-03-28T06:41:02Z</time>
      </trkpt>
      <trkpt lat="42.83999" lon="2.87465">
        <ele>130.8</ele>
        <time>2021-03-28T06:41:02Z</time>
      </trkpt>
      <trkpt lat="42.84006" lon="2.87466">
        <ele>131.3</ele>
        <time>2021-03-28T06:41:04Z</time>
      </trkpt>
      <trkpt lat="42.84006" lon="2.87466">
        <ele>131.3</ele>
        <time>2021-03-28T06:41:04Z</time>
      </trkpt>
      <trkpt lat="42.84013" lon="2.87468">
        <ele>131.8</ele>
        <time>2021-03-28T06:41:06Z</time>
      </trkpt>
      <trkpt lat="42.84013" lon="2.87468">
        <ele>131.8</ele>
        <time>2021-03-28T06:41:06Z</time>
      </trkpt>
      <trkpt lat="42.84019" lon="2.87471">
        <ele>132.2</ele>
        <time>2021-03-28T06:41:07Z</time>
      </trkpt>
      <trkpt lat="42.84019" lon="2.87471">
        <ele>132.2</ele>
        <time>2021-03-28T06:41:07Z</time>
      </trkpt>
      <trkpt lat="42.84026" lon="2.87474">
        <ele>132.7</ele>
        <time>2021-03-28T06:41:09Z</time>
      </trkpt>
      <trkpt lat="42.84026" lon="2.87474">
        <ele>132.7</ele>
        <time>2021-03-28T06:41:09Z</time>
      </trkpt>
      <trkpt lat="42.84033" lon="2.87477">
        <ele>133.2</ele>
        <time>2021-03-28T06:41:11Z</time>
      </trkpt>
      <trkpt lat="42.84033" lon="2.87477">
        <ele>133.2</ele>
        <time>2021-03-28T06:41:11Z</time>
      </trkpt>
      <trkpt lat="42.84038" lon="2.87479">
        <ele>133.6</ele>
        <time>2021-03-28T06:41:12Z</time>
      </trkpt>
      <trkpt lat="42.84038" lon="2.87479">
        <ele>133.6</ele>
        <time>2021-03-28T06:41:12Z</time>
      </trkpt>
      <trkpt lat="42.84044" lon="2.87482">
        <ele>134</ele>
        <time>2021-03-28T06:41:14Z</time>
      </trkpt>
      <trkpt lat="42.84044" lon="2.87482">
        <ele>134</ele>
        <time>2021-03-28T06:41:14Z</time>
      </trkpt>
      <trkpt lat="42.8405" lon="2.87484">
        <ele>134.5</ele>
        <time>2021-03-28T06:41:16Z</time>
      </trkpt>
      <trkpt lat="42.8405" lon="2.87484">
        <ele>134.5</ele>
        <time>2021-03-28T06:41:16Z</time>
      </trkpt>
      <trkpt lat="42.84055" lon="2.87485">
        <ele>135</ele>
        <time>2021-03-28T06:41:17Z</time>
      </trkpt>
      <trkpt lat="42.84055" lon="2.87485">
        <ele>135</ele>
        <time>2021-03-28T06:41:17Z</time>
      </trkpt>
      <trkpt lat="42.8406" lon="2.87485">
        <ele>135.2</ele>
        <time>2021-03-28T06:41:18Z</time>
      </trkpt>
      <trkpt lat="42.8406" lon="2.87485">
        <ele>135.2</ele>
        <time>2021-03-28T06:41:18Z</time>
      </trkpt>
      <trkpt lat="42.84064" lon="2.87485">
        <ele>135.3</ele>
        <time>2021-03-28T06:41:19Z</time>
      </trkpt>
      <trkpt lat="42.84064" lon="2.87485">
        <ele>135.3</ele>
        <time>2021-03-28T06:41:19Z</time>
      </trkpt>
      <trkpt lat="42.8407" lon="2.87484">
        <ele>135.5</ele>
        <time>2021-03-28T06:41:21Z</time>
      </trkpt>
      <trkpt lat="42.8407" lon="2.87484">
        <ele>135.5</ele>
        <time>2021-03-28T06:41:21Z</time>
      </trkpt>
      <trkpt lat="42.84074" lon="2.87483">
        <ele>135.7</ele>
        <time>2021-03-28T06:41:22Z</time>
      </trkpt>
      <trkpt lat="42.84074" lon="2.87483">
        <ele>135.7</ele>
        <time>2021-03-28T06:41:22Z</time>
      </trkpt>
      <trkpt lat="42.84078" lon="2.87482">
        <ele>135.8</ele>
        <time>2021-03-28T06:41:23Z</time>
      </trkpt>
      <trkpt lat="42.84078" lon="2.87482">
        <ele>135.8</ele>
        <time>2021-03-28T06:41:23Z</time>
      </trkpt>
      <trkpt lat="42.84083" lon="2.8748">
        <ele>136</ele>
        <time>2021-03-28T06:41:25Z</time>
      </trkpt>
      <trkpt lat="42.84083" lon="2.8748">
        <ele>136</ele>
        <time>2021-03-28T06:41:25Z</time>
      </trkpt>
      <trkpt lat="42.84088" lon="2.87478">
        <ele>135.6</ele>
        <time>2021-03-28T06:41:27Z</time>
      </trkpt>
      <trkpt lat="42.84088" lon="2.87478">
        <ele>135.6</ele>
        <time>2021-03-28T06:41:27Z</time>
      </trkpt>
      <trkpt lat="42.84094" lon="2.87474">
        <ele>135.2</ele>
        <time>2021-03-28T06:41:29Z</time>
      </trkpt>
      <trkpt lat="42.84094" lon="2.87474">
        <ele>135.2</ele>
        <time>2021-03-28T06:41:29Z</time>
      </trkpt>
      <trkpt lat="42.84099" lon="2.8747">
        <ele>135</ele>
        <time>2021-03-28T06:41:30Z</time>
      </trkpt>
      <trkpt lat="42.84099" lon="2.8747">
        <ele>135</ele>
        <time>2021-03-28T06:41:30Z</time>
      </trkpt>
      <trkpt lat="42.84104" lon="2.87467">
        <ele>135</ele>
        <time>2021-03-28T06:41:31Z</time>
      </trkpt>
      <trkpt lat="42.84104" lon="2.87467">
        <ele>135</ele>
        <time>2021-03-28T06:41:31Z</time>
      </trkpt>
      <trkpt lat="42.84109" lon="2.87464">
        <ele>135</ele>
        <time>2021-03-28T06:41:33Z</time>
      </trkpt>
      <trkpt lat="42.84109" lon="2.87464">
        <ele>135</ele>
        <time>2021-03-28T06:41:33Z</time>
      </trkpt>
      <trkpt lat="42.84116" lon="2.8746">
        <ele>135.2</ele>
        <time>2021-03-28T06:41:35Z</time>
      </trkpt>
      <trkpt lat="42.84116" lon="2.8746">
        <ele>135.2</ele>
        <time>2021-03-28T06:41:35Z</time>
      </trkpt>
      <trkpt lat="42.84123" lon="2.87455">
        <ele>135.4</ele>
        <time>2021-03-28T06:41:37Z</time>
      </trkpt>
      <trkpt lat="42.84123" lon="2.87455">
        <ele>135.4</ele>
        <time>2021-03-28T06:41:37Z</time>
      </trkpt>
      <trkpt lat="42.8413" lon="2.87451">
        <ele>135.7</ele>
        <time>2021-03-28T06:41:39Z</time>
      </trkpt>
      <trkpt lat="42.8413" lon="2.87451">
        <ele>135.7</ele>
        <time>2021-03-28T06:41:39Z</time>
      </trkpt>
      <trkpt lat="42.84136" lon="2.87447">
        <ele>135.8</ele>
        <time>2021-03-28T06:41:40Z</time>
      </trkpt>
      <trkpt lat="42.84136" lon="2.87447">
        <ele>135.8</ele>
        <time>2021-03-28T06:41:40Z</time>
      </trkpt>
      <trkpt lat="42.84143" lon="2.87444">
        <ele>135.9</ele>
        <time>2021-03-28T06:41:42Z</time>
      </trkpt>
      <trkpt lat="42.84143" lon="2.87444">
        <ele>135.9</ele>
        <time>2021-03-28T06:41:42Z</time>
      </trkpt>
      <trkpt lat="42.84149" lon="2.87442">
        <ele>136.1</ele>
        <time>2021-03-28T06:41:43Z</time>
      </trkpt>
      <trkpt lat="42.84149" lon="2.87442">
        <ele>136.1</ele>
        <time>2021-03-28T06:41:43Z</time>
      </trkpt>
      <trkpt lat="42.84155" lon="2.8744">
        <ele>136.1</ele>
        <time>2021-03-28T06:41:44Z</time>
      </trkpt>
      <trkpt lat="42.84155" lon="2.8744">
        <ele>136.1</ele>
        <time>2021-03-28T06:41:44Z</time>
      </trkpt>
      <trkpt lat="42.84161" lon="2.87438">
        <ele>136.1</ele>
        <time>2021-03-28T06:41:46Z</time>
      </trkpt>
      <trkpt lat="42.84161" lon="2.87438">
        <ele>136.1</ele>
        <time>2021-03-28T06:41:46Z</time>
      </trkpt>
      <trkpt lat="42.84166" lon="2.87437">
        <ele>136.1</ele>
        <time>2021-03-28T06:41:47Z</time>
      </trkpt>
      <trkpt lat="42.84166" lon="2.87437">
        <ele>136.1</ele>
        <time>2021-03-28T06:41:47Z</time>
      </trkpt>
      <trkpt lat="42.84172" lon="2.87435">
        <ele>136.5</ele>
        <time>2021-03-28T06:41:49Z</time>
      </trkpt>
      <trkpt lat="42.84172" lon="2.87435">
        <ele>136.5</ele>
        <time>2021-03-28T06:41:49Z</time>
      </trkpt>
      <trkpt lat="42.84178" lon="2.87433">
        <ele>136.9</ele>
        <time>2021-03-28T06:41:51Z</time>
      </trkpt>
      <trkpt lat="42.84178" lon="2.87433">
        <ele>136.9</ele>
        <time>2021-03-28T06:41:51Z</time>
      </trkpt>
      <trkpt lat="42.84184" lon="2.87431">
        <ele>137.3</ele>
        <time>2021-03-28T06:41:52Z</time>
      </trkpt>
      <trkpt lat="42.84184" lon="2.87431">
        <ele>137.3</ele>
        <time>2021-03-28T06:41:52Z</time>
      </trkpt>
      <trkpt lat="42.84189" lon="2.8743">
        <ele>137.4</ele>
        <time>2021-03-28T06:41:53Z</time>
      </trkpt>
      <trkpt lat="42.84189" lon="2.8743">
        <ele>137.4</ele>
        <time>2021-03-28T06:41:53Z</time>
      </trkpt>
      <trkpt lat="42.84195" lon="2.87429">
        <ele>137.6</ele>
        <time>2021-03-28T06:41:55Z</time>
      </trkpt>
      <trkpt lat="42.84195" lon="2.87429">
        <ele>137.6</ele>
        <time>2021-03-28T06:41:55Z</time>
      </trkpt>
      <trkpt lat="42.84202" lon="2.87428">
        <ele>137.8</ele>
        <time>2021-03-28T06:41:57Z</time>
      </trkpt>
      <trkpt lat="42.84202" lon="2.87428">
        <ele>137.8</ele>
        <time>2021-03-28T06:41:57Z</time>
      </trkpt>
      <trkpt lat="42.84208" lon="2.87427">
        <ele>137.9</ele>
        <time>2021-03-28T06:41:58Z</time>
      </trkpt>
      <trkpt lat="42.84208" lon="2.87427">
        <ele>137.9</ele>
        <time>2021-03-28T06:41:58Z</time>
      </trkpt>
      <trkpt lat="42.84214" lon="2.87426">
        <ele>138.1</ele>
        <time>2021-03-28T06:42:00Z</time>
      </trkpt>
      <trkpt lat="42.84214" lon="2.87426">
        <ele>138.1</ele>
        <time>2021-03-28T06:42:00Z</time>
      </trkpt>
      <trkpt lat="42.84221" lon="2.87425">
        <ele>138.3</ele>
        <time>2021-03-28T06:42:02Z</time>
      </trkpt>
      <trkpt lat="42.84221" lon="2.87425">
        <ele>138.3</ele>
        <time>2021-03-28T06:42:02Z</time>
      </trkpt>
      <trkpt lat="42.84227" lon="2.87424">
        <ele>138.4</ele>
        <time>2021-03-28T06:42:03Z</time>
      </trkpt>
      <trkpt lat="42.84227" lon="2.87424">
        <ele>138.4</ele>
        <time>2021-03-28T06:42:03Z</time>
      </trkpt>
      <trkpt lat="42.84233" lon="2.87423">
        <ele>138.5</ele>
        <time>2021-03-28T06:42:05Z</time>
      </trkpt>
      <trkpt lat="42.84233" lon="2.87423">
        <ele>138.5</ele>
        <time>2021-03-28T06:42:05Z</time>
      </trkpt>
      <trkpt lat="42.84239" lon="2.87422">
        <ele>138.6</ele>
        <time>2021-03-28T06:42:06Z</time>
      </trkpt>
      <trkpt lat="42.84239" lon="2.87422">
        <ele>138.6</ele>
        <time>2021-03-28T06:42:06Z</time>
      </trkpt>
      <trkpt lat="42.84245" lon="2.87421">
        <ele>138.7</ele>
        <time>2021-03-28T06:42:08Z</time>
      </trkpt>
      <trkpt lat="42.84245" lon="2.87421">
        <ele>138.7</ele>
        <time>2021-03-28T06:42:08Z</time>
      </trkpt>
      <trkpt lat="42.8425" lon="2.8742">
        <ele>138.8</ele>
        <time>2021-03-28T06:42:09Z</time>
      </trkpt>
      <trkpt lat="42.8425" lon="2.8742">
        <ele>138.8</ele>
        <time>2021-03-28T06:42:09Z</time>
      </trkpt>
      <trkpt lat="42.84255" lon="2.8742">
        <ele>139</ele>
        <time>2021-03-28T06:42:10Z</time>
      </trkpt>
      <trkpt lat="42.84255" lon="2.8742">
        <ele>139</ele>
        <time>2021-03-28T06:42:10Z</time>
      </trkpt>
      <trkpt lat="42.8426" lon="2.8742">
        <ele>139.1</ele>
        <time>2021-03-28T06:42:12Z</time>
      </trkpt>
      <trkpt lat="42.8426" lon="2.8742">
        <ele>139.1</ele>
        <time>2021-03-28T06:42:12Z</time>
      </trkpt>
      <trkpt lat="42.84266" lon="2.87422">
        <ele>139.2</ele>
        <time>2021-03-28T06:42:14Z</time>
      </trkpt>
      <trkpt lat="42.84266" lon="2.87422">
        <ele>139.2</ele>
        <time>2021-03-28T06:42:14Z</time>
      </trkpt>
      <trkpt lat="42.84271" lon="2.87424">
        <ele>139.2</ele>
        <time>2021-03-28T06:42:15Z</time>
      </trkpt>
      <trkpt lat="42.84271" lon="2.87424">
        <ele>139.2</ele>
        <time>2021-03-28T06:42:15Z</time>
      </trkpt>
      <trkpt lat="42.84277" lon="2.87427">
        <ele>139.2</ele>
        <time>2021-03-28T06:42:17Z</time>
      </trkpt>
      <trkpt lat="42.84277" lon="2.87427">
        <ele>139.2</ele>
        <time>2021-03-28T06:42:17Z</time>
      </trkpt>
      <trkpt lat="42.84281" lon="2.8743">
        <ele>139.3</ele>
        <time>2021-03-28T06:42:18Z</time>
      </trkpt>
      <trkpt lat="42.84281" lon="2.8743">
        <ele>139.3</ele>
        <time>2021-03-28T06:42:18Z</time>
      </trkpt>
      <trkpt lat="42.84286" lon="2.87432">
        <ele>139.5</ele>
        <time>2021-03-28T06:42:19Z</time>
      </trkpt>
      <trkpt lat="42.84286" lon="2.87432">
        <ele>139.5</ele>
        <time>2021-03-28T06:42:19Z</time>
      </trkpt>
      <trkpt lat="42.84291" lon="2.87437">
        <ele>139.7</ele>
        <time>2021-03-28T06:42:21Z</time>
      </trkpt>
      <trkpt lat="42.84291" lon="2.87437">
        <ele>139.7</ele>
        <time>2021-03-28T06:42:21Z</time>
      </trkpt>
      <trkpt lat="42.84295" lon="2.87442">
        <ele>140</ele>
        <time>2021-03-28T06:42:22Z</time>
      </trkpt>
      <trkpt lat="42.84295" lon="2.87442">
        <ele>140</ele>
        <time>2021-03-28T06:42:22Z</time>
      </trkpt>
      <trkpt lat="42.84301" lon="2.87448">
        <ele>140.5</ele>
        <time>2021-03-28T06:42:24Z</time>
      </trkpt>
      <trkpt lat="42.84301" lon="2.87448">
        <ele>140.5</ele>
        <time>2021-03-28T06:42:24Z</time>
      </trkpt>
      <trkpt lat="42.84305" lon="2.87453">
        <ele>140.9</ele>
        <time>2021-03-28T06:42:25Z</time>
      </trkpt>
      <trkpt lat="42.84305" lon="2.87453">
        <ele>140.9</ele>
        <time>2021-03-28T06:42:25Z</time>
      </trkpt>
      <trkpt lat="42.84309" lon="2.87459">
        <ele>141.3</ele>
        <time>2021-03-28T06:42:27Z</time>
      </trkpt>
      <trkpt lat="42.84309" lon="2.87459">
        <ele>141.3</ele>
        <time>2021-03-28T06:42:27Z</time>
      </trkpt>
      <trkpt lat="42.84314" lon="2.87465">
        <ele>141.7</ele>
        <time>2021-03-28T06:42:29Z</time>
      </trkpt>
      <trkpt lat="42.84314" lon="2.87465">
        <ele>141.7</ele>
        <time>2021-03-28T06:42:29Z</time>
      </trkpt>
      <trkpt lat="42.8432" lon="2.87473">
        <ele>142.1</ele>
        <time>2021-03-28T06:42:31Z</time>
      </trkpt>
      <trkpt lat="42.8432" lon="2.87473">
        <ele>142.1</ele>
        <time>2021-03-28T06:42:31Z</time>
      </trkpt>
      <trkpt lat="42.84326" lon="2.8748">
        <ele>142.7</ele>
        <time>2021-03-28T06:42:33Z</time>
      </trkpt>
      <trkpt lat="42.84326" lon="2.8748">
        <ele>142.7</ele>
        <time>2021-03-28T06:42:33Z</time>
      </trkpt>
      <trkpt lat="42.84332" lon="2.87486">
        <ele>143.4</ele>
        <time>2021-03-28T06:42:35Z</time>
      </trkpt>
      <trkpt lat="42.84332" lon="2.87486">
        <ele>143.4</ele>
        <time>2021-03-28T06:42:35Z</time>
      </trkpt>
      <trkpt lat="42.84336" lon="2.87491">
        <ele>143.8</ele>
        <time>2021-03-28T06:42:36Z</time>
      </trkpt>
      <trkpt lat="42.84336" lon="2.87491">
        <ele>143.8</ele>
        <time>2021-03-28T06:42:36Z</time>
      </trkpt>
      <trkpt lat="42.84341" lon="2.87496">
        <ele>144</ele>
        <time>2021-03-28T06:42:38Z</time>
      </trkpt>
      <trkpt lat="42.84341" lon="2.87496">
        <ele>144</ele>
        <time>2021-03-28T06:42:38Z</time>
      </trkpt>
      <trkpt lat="42.84347" lon="2.87499">
        <ele>144</ele>
        <time>2021-03-28T06:42:40Z</time>
      </trkpt>
      <trkpt lat="42.84347" lon="2.87499">
        <ele>144</ele>
        <time>2021-03-28T06:42:40Z</time>
      </trkpt>
      <trkpt lat="42.84352" lon="2.87503">
        <ele>143.9</ele>
        <time>2021-03-28T06:42:41Z</time>
      </trkpt>
      <trkpt lat="42.84352" lon="2.87503">
        <ele>143.9</ele>
        <time>2021-03-28T06:42:41Z</time>
      </trkpt>
      <trkpt lat="42.84357" lon="2.87506">
        <ele>143.8</ele>
        <time>2021-03-28T06:42:43Z</time>
      </trkpt>
      <trkpt lat="42.84357" lon="2.87506">
        <ele>143.8</ele>
        <time>2021-03-28T06:42:43Z</time>
      </trkpt>
      <trkpt lat="42.84363" lon="2.87509">
        <ele>143.7</ele>
        <time>2021-03-28T06:42:45Z</time>
      </trkpt>
      <trkpt lat="42.84363" lon="2.87509">
        <ele>143.7</ele>
        <time>2021-03-28T06:42:45Z</time>
      </trkpt>
      <trkpt lat="42.84369" lon="2.87511">
        <ele>143.8</ele>
        <time>2021-03-28T06:42:47Z</time>
      </trkpt>
      <trkpt lat="42.84369" lon="2.87511">
        <ele>143.8</ele>
        <time>2021-03-28T06:42:47Z</time>
      </trkpt>
      <trkpt lat="42.84376" lon="2.87512">
        <ele>143.8</ele>
        <time>2021-03-28T06:42:49Z</time>
      </trkpt>
      <trkpt lat="42.84376" lon="2.87512">
        <ele>143.8</ele>
        <time>2021-03-28T06:42:49Z</time>
      </trkpt>
      <trkpt lat="42.84384" lon="2.87514">
        <ele>143.9</ele>
        <time>2021-03-28T06:42:51Z</time>
      </trkpt>
      <trkpt lat="42.84384" lon="2.87514">
        <ele>143.9</ele>
        <time>2021-03-28T06:42:51Z</time>
      </trkpt>
      <trkpt lat="42.8439" lon="2.87515">
        <ele>144</ele>
        <time>2021-03-28T06:42:52Z</time>
      </trkpt>
      <trkpt lat="42.8439" lon="2.87515">
        <ele>144</ele>
        <time>2021-03-28T06:42:52Z</time>
      </trkpt>
      <trkpt lat="42.84397" lon="2.87515">
        <ele>144.4</ele>
        <time>2021-03-28T06:42:54Z</time>
      </trkpt>
      <trkpt lat="42.84397" lon="2.87515">
        <ele>144.4</ele>
        <time>2021-03-28T06:42:54Z</time>
      </trkpt>
      <trkpt lat="42.84403" lon="2.87516">
        <ele>144.7</ele>
        <time>2021-03-28T06:42:55Z</time>
      </trkpt>
      <trkpt lat="42.84403" lon="2.87516">
        <ele>144.7</ele>
        <time>2021-03-28T06:42:55Z</time>
      </trkpt>
      <trkpt lat="42.84409" lon="2.87517">
        <ele>145</ele>
        <time>2021-03-28T06:42:57Z</time>
      </trkpt>
      <trkpt lat="42.84409" lon="2.87517">
        <ele>145</ele>
        <time>2021-03-28T06:42:57Z</time>
      </trkpt>
      <trkpt lat="42.84416" lon="2.87519">
        <ele>145.3</ele>
        <time>2021-03-28T06:42:59Z</time>
      </trkpt>
      <trkpt lat="42.84416" lon="2.87519">
        <ele>145.3</ele>
        <time>2021-03-28T06:42:59Z</time>
      </trkpt>
      <trkpt lat="42.84423" lon="2.8752">
        <ele>145.5</ele>
        <time>2021-03-28T06:43:01Z</time>
      </trkpt>
      <trkpt lat="42.84423" lon="2.8752">
        <ele>145.5</ele>
        <time>2021-03-28T06:43:01Z</time>
      </trkpt>
      <trkpt lat="42.84429" lon="2.87522">
        <ele>145.6</ele>
        <time>2021-03-28T06:43:02Z</time>
      </trkpt>
      <trkpt lat="42.84429" lon="2.87522">
        <ele>145.6</ele>
        <time>2021-03-28T06:43:02Z</time>
      </trkpt>
      <trkpt lat="42.84434" lon="2.87524">
        <ele>145.7</ele>
        <time>2021-03-28T06:43:03Z</time>
      </trkpt>
      <trkpt lat="42.84434" lon="2.87524">
        <ele>145.7</ele>
        <time>2021-03-28T06:43:03Z</time>
      </trkpt>
      <trkpt lat="42.84439" lon="2.87526">
        <ele>145.9</ele>
        <time>2021-03-28T06:43:05Z</time>
      </trkpt>
      <trkpt lat="42.84439" lon="2.87526">
        <ele>145.9</ele>
        <time>2021-03-28T06:43:05Z</time>
      </trkpt>
      <trkpt lat="42.84444" lon="2.87527">
        <ele>146</ele>
        <time>2021-03-28T06:43:06Z</time>
      </trkpt>
      <trkpt lat="42.84444" lon="2.87527">
        <ele>146</ele>
        <time>2021-03-28T06:43:06Z</time>
      </trkpt>
      <trkpt lat="42.8445" lon="2.8753">
        <ele>146.3</ele>
        <time>2021-03-28T06:43:08Z</time>
      </trkpt>
      <trkpt lat="42.8445" lon="2.8753">
        <ele>146.3</ele>
        <time>2021-03-28T06:43:08Z</time>
      </trkpt>
      <trkpt lat="42.84455" lon="2.87531">
        <ele>146.5</ele>
        <time>2021-03-28T06:43:09Z</time>
      </trkpt>
      <trkpt lat="42.84455" lon="2.87531">
        <ele>146.5</ele>
        <time>2021-03-28T06:43:09Z</time>
      </trkpt>
      <trkpt lat="42.8446" lon="2.87533">
        <ele>146.7</ele>
        <time>2021-03-28T06:43:10Z</time>
      </trkpt>
      <trkpt lat="42.8446" lon="2.87533">
        <ele>146.7</ele>
        <time>2021-03-28T06:43:10Z</time>
      </trkpt>
      <trkpt lat="42.84464" lon="2.87534">
        <ele>146.9</ele>
        <time>2021-03-28T06:43:11Z</time>
      </trkpt>
      <trkpt lat="42.84464" lon="2.87534">
        <ele>146.9</ele>
        <time>2021-03-28T06:43:11Z</time>
      </trkpt>
      <trkpt lat="42.84469" lon="2.87536">
        <ele>147.2</ele>
        <time>2021-03-28T06:43:13Z</time>
      </trkpt>
      <trkpt lat="42.84469" lon="2.87536">
        <ele>147.2</ele>
        <time>2021-03-28T06:43:13Z</time>
      </trkpt>
      <trkpt lat="42.84476" lon="2.87538">
        <ele>147.3</ele>
        <time>2021-03-28T06:43:15Z</time>
      </trkpt>
      <trkpt lat="42.84476" lon="2.87538">
        <ele>147.3</ele>
        <time>2021-03-28T06:43:15Z</time>
      </trkpt>
      <trkpt lat="42.84483" lon="2.87539">
        <ele>147.2</ele>
        <time>2021-03-28T06:43:17Z</time>
      </trkpt>
      <trkpt lat="42.84483" lon="2.87539">
        <ele>147.2</ele>
        <time>2021-03-28T06:43:17Z</time>
      </trkpt>
      <trkpt lat="42.8449" lon="2.87542">
        <ele>147.2</ele>
        <time>2021-03-28T06:43:19Z</time>
      </trkpt>
      <trkpt lat="42.8449" lon="2.87542">
        <ele>147.2</ele>
        <time>2021-03-28T06:43:19Z</time>
      </trkpt>
      <trkpt lat="42.84496" lon="2.87546">
        <ele>147.3</ele>
        <time>2021-03-28T06:43:20Z</time>
      </trkpt>
      <trkpt lat="42.84496" lon="2.87546">
        <ele>147.3</ele>
        <time>2021-03-28T06:43:20Z</time>
      </trkpt>
      <trkpt lat="42.84502" lon="2.8755">
        <ele>147.4</ele>
        <time>2021-03-28T06:43:22Z</time>
      </trkpt>
      <trkpt lat="42.84502" lon="2.8755">
        <ele>147.4</ele>
        <time>2021-03-28T06:43:22Z</time>
      </trkpt>
      <trkpt lat="42.84507" lon="2.87557">
        <ele>147</ele>
        <time>2021-03-28T06:43:24Z</time>
      </trkpt>
      <trkpt lat="42.84507" lon="2.87557">
        <ele>147</ele>
        <time>2021-03-28T06:43:24Z</time>
      </trkpt>
      <trkpt lat="42.84512" lon="2.87562">
        <ele>146.9</ele>
        <time>2021-03-28T06:43:25Z</time>
      </trkpt>
      <trkpt lat="42.84512" lon="2.87562">
        <ele>146.9</ele>
        <time>2021-03-28T06:43:25Z</time>
      </trkpt>
      <trkpt lat="42.84516" lon="2.87569">
        <ele>147</ele>
        <time>2021-03-28T06:43:27Z</time>
      </trkpt>
      <trkpt lat="42.84516" lon="2.87569">
        <ele>147</ele>
        <time>2021-03-28T06:43:27Z</time>
      </trkpt>
      <trkpt lat="42.84521" lon="2.87577">
        <ele>147.5</ele>
        <time>2021-03-28T06:43:29Z</time>
      </trkpt>
      <trkpt lat="42.84521" lon="2.87577">
        <ele>147.5</ele>
        <time>2021-03-28T06:43:29Z</time>
      </trkpt>
      <trkpt lat="42.84524" lon="2.87583">
        <ele>148.1</ele>
        <time>2021-03-28T06:43:30Z</time>
      </trkpt>
      <trkpt lat="42.84524" lon="2.87583">
        <ele>148.1</ele>
        <time>2021-03-28T06:43:30Z</time>
      </trkpt>
      <trkpt lat="42.84527" lon="2.87589">
        <ele>148.2</ele>
        <time>2021-03-28T06:43:31Z</time>
      </trkpt>
      <trkpt lat="42.84527" lon="2.87589">
        <ele>148.2</ele>
        <time>2021-03-28T06:43:31Z</time>
      </trkpt>
      <trkpt lat="42.8453" lon="2.87594">
        <ele>148.1</ele>
        <time>2021-03-28T06:43:32Z</time>
      </trkpt>
      <trkpt lat="42.8453" lon="2.87594">
        <ele>148.1</ele>
        <time>2021-03-28T06:43:32Z</time>
      </trkpt>
      <trkpt lat="42.84532" lon="2.87601">
        <ele>147.8</ele>
        <time>2021-03-28T06:43:34Z</time>
      </trkpt>
      <trkpt lat="42.84532" lon="2.87601">
        <ele>147.8</ele>
        <time>2021-03-28T06:43:34Z</time>
      </trkpt>
      <trkpt lat="42.84535" lon="2.87607">
        <ele>147.6</ele>
        <time>2021-03-28T06:43:35Z</time>
      </trkpt>
      <trkpt lat="42.84535" lon="2.87607">
        <ele>147.6</ele>
        <time>2021-03-28T06:43:35Z</time>
      </trkpt>
      <trkpt lat="42.84538" lon="2.87616">
        <ele>147.3</ele>
        <time>2021-03-28T06:43:37Z</time>
      </trkpt>
      <trkpt lat="42.84538" lon="2.87616">
        <ele>147.3</ele>
        <time>2021-03-28T06:43:37Z</time>
      </trkpt>
      <trkpt lat="42.8454" lon="2.87624">
        <ele>147.2</ele>
        <time>2021-03-28T06:43:38Z</time>
      </trkpt>
      <trkpt lat="42.8454" lon="2.87624">
        <ele>147.2</ele>
        <time>2021-03-28T06:43:38Z</time>
      </trkpt>
      <trkpt lat="42.84542" lon="2.8763">
        <ele>147.2</ele>
        <time>2021-03-28T06:43:39Z</time>
      </trkpt>
      <trkpt lat="42.84542" lon="2.8763">
        <ele>147.2</ele>
        <time>2021-03-28T06:43:39Z</time>
      </trkpt>
      <trkpt lat="42.84544" lon="2.87636">
        <ele>147.3</ele>
        <time>2021-03-28T06:43:41Z</time>
      </trkpt>
      <trkpt lat="42.84544" lon="2.87636">
        <ele>147.3</ele>
        <time>2021-03-28T06:43:41Z</time>
      </trkpt>
      <trkpt lat="42.84547" lon="2.87642">
        <ele>147.1</ele>
        <time>2021-03-28T06:43:43Z</time>
      </trkpt>
      <trkpt lat="42.84547" lon="2.87642">
        <ele>147.1</ele>
        <time>2021-03-28T06:43:43Z</time>
      </trkpt>
      <trkpt lat="42.84552" lon="2.87647">
        <ele>146.8</ele>
        <time>2021-03-28T06:43:45Z</time>
      </trkpt>
      <trkpt lat="42.84552" lon="2.87647">
        <ele>146.8</ele>
        <time>2021-03-28T06:43:45Z</time>
      </trkpt>
      <trkpt lat="42.84557" lon="2.8765">
        <ele>146.7</ele>
        <time>2021-03-28T06:43:46Z</time>
      </trkpt>
      <trkpt lat="42.84557" lon="2.8765">
        <ele>146.7</ele>
        <time>2021-03-28T06:43:46Z</time>
      </trkpt>
      <trkpt lat="42.84562" lon="2.87652">
        <ele>147</ele>
        <time>2021-03-28T06:43:48Z</time>
      </trkpt>
      <trkpt lat="42.84562" lon="2.87652">
        <ele>147</ele>
        <time>2021-03-28T06:43:48Z</time>
      </trkpt>
      <trkpt lat="42.84568" lon="2.87652">
        <ele>147.4</ele>
        <time>2021-03-28T06:43:50Z</time>
      </trkpt>
      <trkpt lat="42.84568" lon="2.87652">
        <ele>147.4</ele>
        <time>2021-03-28T06:43:50Z</time>
      </trkpt>
      <trkpt lat="42.84574" lon="2.8765">
        <ele>147.8</ele>
        <time>2021-03-28T06:43:52Z</time>
      </trkpt>
      <trkpt lat="42.84574" lon="2.8765">
        <ele>147.8</ele>
        <time>2021-03-28T06:43:52Z</time>
      </trkpt>
      <trkpt lat="42.84581" lon="2.87648">
        <ele>148.2</ele>
        <time>2021-03-28T06:43:54Z</time>
      </trkpt>
      <trkpt lat="42.84581" lon="2.87648">
        <ele>148.2</ele>
        <time>2021-03-28T06:43:54Z</time>
      </trkpt>
      <trkpt lat="42.84588" lon="2.87644">
        <ele>148.6</ele>
        <time>2021-03-28T06:43:56Z</time>
      </trkpt>
      <trkpt lat="42.84588" lon="2.87644">
        <ele>148.6</ele>
        <time>2021-03-28T06:43:56Z</time>
      </trkpt>
      <trkpt lat="42.84594" lon="2.8764">
        <ele>149.2</ele>
        <time>2021-03-28T06:43:58Z</time>
      </trkpt>
      <trkpt lat="42.84594" lon="2.8764">
        <ele>149.2</ele>
        <time>2021-03-28T06:43:58Z</time>
      </trkpt>
      <trkpt lat="42.84601" lon="2.87635">
        <ele>149.4</ele>
        <time>2021-03-28T06:44:00Z</time>
      </trkpt>
      <trkpt lat="42.84601" lon="2.87635">
        <ele>149.4</ele>
        <time>2021-03-28T06:44:00Z</time>
      </trkpt>
      <trkpt lat="42.84606" lon="2.87631">
        <ele>149.6</ele>
        <time>2021-03-28T06:44:01Z</time>
      </trkpt>
      <trkpt lat="42.84606" lon="2.87631">
        <ele>149.6</ele>
        <time>2021-03-28T06:44:01Z</time>
      </trkpt>
      <trkpt lat="42.84611" lon="2.87628">
        <ele>149.7</ele>
        <time>2021-03-28T06:44:02Z</time>
      </trkpt>
      <trkpt lat="42.84611" lon="2.87628">
        <ele>149.7</ele>
        <time>2021-03-28T06:44:02Z</time>
      </trkpt>
      <trkpt lat="42.84616" lon="2.87623">
        <ele>149.8</ele>
        <time>2021-03-28T06:44:04Z</time>
      </trkpt>
      <trkpt lat="42.84616" lon="2.87623">
        <ele>149.8</ele>
        <time>2021-03-28T06:44:04Z</time>
      </trkpt>
      <trkpt lat="42.84621" lon="2.8762">
        <ele>150.1</ele>
        <time>2021-03-28T06:44:05Z</time>
      </trkpt>
      <trkpt lat="42.84621" lon="2.8762">
        <ele>150.1</ele>
        <time>2021-03-28T06:44:05Z</time>
      </trkpt>
      <trkpt lat="42.84626" lon="2.87615">
        <ele>150.4</ele>
        <time>2021-03-28T06:44:07Z</time>
      </trkpt>
      <trkpt lat="42.84626" lon="2.87615">
        <ele>150.4</ele>
        <time>2021-03-28T06:44:07Z</time>
      </trkpt>
      <trkpt lat="42.84631" lon="2.87612">
        <ele>150.8</ele>
        <time>2021-03-28T06:44:08Z</time>
      </trkpt>
      <trkpt lat="42.84631" lon="2.87612">
        <ele>150.8</ele>
        <time>2021-03-28T06:44:08Z</time>
      </trkpt>
      <trkpt lat="42.84636" lon="2.87609">
        <ele>151.6</ele>
        <time>2021-03-28T06:44:10Z</time>
      </trkpt>
      <trkpt lat="42.84636" lon="2.87609">
        <ele>151.6</ele>
        <time>2021-03-28T06:44:10Z</time>
      </trkpt>
      <trkpt lat="42.84643" lon="2.87606">
        <ele>152.2</ele>
        <time>2021-03-28T06:44:12Z</time>
      </trkpt>
      <trkpt lat="42.84643" lon="2.87606">
        <ele>152.2</ele>
        <time>2021-03-28T06:44:12Z</time>
      </trkpt>
      <trkpt lat="42.84648" lon="2.87605">
        <ele>152.4</ele>
        <time>2021-03-28T06:44:13Z</time>
      </trkpt>
      <trkpt lat="42.84648" lon="2.87605">
        <ele>152.4</ele>
        <time>2021-03-28T06:44:13Z</time>
      </trkpt>
      <trkpt lat="42.84655" lon="2.87603">
        <ele>152.7</ele>
        <time>2021-03-28T06:44:15Z</time>
      </trkpt>
      <trkpt lat="42.84655" lon="2.87603">
        <ele>152.7</ele>
        <time>2021-03-28T06:44:15Z</time>
      </trkpt>
      <trkpt lat="42.8466" lon="2.87602">
        <ele>153</ele>
        <time>2021-03-28T06:44:16Z</time>
      </trkpt>
      <trkpt lat="42.8466" lon="2.87602">
        <ele>153</ele>
        <time>2021-03-28T06:44:16Z</time>
      </trkpt>
      <trkpt lat="42.84666" lon="2.876">
        <ele>153.4</ele>
        <time>2021-03-28T06:44:18Z</time>
      </trkpt>
      <trkpt lat="42.84666" lon="2.876">
        <ele>153.4</ele>
        <time>2021-03-28T06:44:18Z</time>
      </trkpt>
      <trkpt lat="42.84672" lon="2.87599">
        <ele>153.4</ele>
        <time>2021-03-28T06:44:20Z</time>
      </trkpt>
      <trkpt lat="42.84672" lon="2.87599">
        <ele>153.4</ele>
        <time>2021-03-28T06:44:20Z</time>
      </trkpt>
      <trkpt lat="42.84678" lon="2.87598">
        <ele>153.5</ele>
        <time>2021-03-28T06:44:21Z</time>
      </trkpt>
      <trkpt lat="42.84678" lon="2.87598">
        <ele>153.5</ele>
        <time>2021-03-28T06:44:21Z</time>
      </trkpt>
      <trkpt lat="42.84685" lon="2.87597">
        <ele>153.5</ele>
        <time>2021-03-28T06:44:23Z</time>
      </trkpt>
      <trkpt lat="42.84685" lon="2.87597">
        <ele>153.5</ele>
        <time>2021-03-28T06:44:23Z</time>
      </trkpt>
      <trkpt lat="42.84692" lon="2.87595">
        <ele>153.6</ele>
        <time>2021-03-28T06:44:25Z</time>
      </trkpt>
      <trkpt lat="42.84692" lon="2.87595">
        <ele>153.6</ele>
        <time>2021-03-28T06:44:25Z</time>
      </trkpt>
      <trkpt lat="42.847" lon="2.87594">
        <ele>153.6</ele>
        <time>2021-03-28T06:44:27Z</time>
      </trkpt>
      <trkpt lat="42.847" lon="2.87594">
        <ele>153.6</ele>
        <time>2021-03-28T06:44:27Z</time>
      </trkpt>
      <trkpt lat="42.84708" lon="2.87593">
        <ele>153.7</ele>
        <time>2021-03-28T06:44:29Z</time>
      </trkpt>
      <trkpt lat="42.84708" lon="2.87593">
        <ele>153.7</ele>
        <time>2021-03-28T06:44:29Z</time>
      </trkpt>
      <trkpt lat="42.84717" lon="2.87591">
        <ele>153.7</ele>
        <time>2021-03-28T06:44:31Z</time>
      </trkpt>
      <trkpt lat="42.84717" lon="2.87591">
        <ele>153.7</ele>
        <time>2021-03-28T06:44:31Z</time>
      </trkpt>
      <trkpt lat="42.84725" lon="2.8759">
        <ele>153.7</ele>
        <time>2021-03-28T06:44:32Z</time>
      </trkpt>
      <trkpt lat="42.84725" lon="2.8759">
        <ele>153.7</ele>
        <time>2021-03-28T06:44:32Z</time>
      </trkpt>
      <trkpt lat="42.84731" lon="2.87588">
        <ele>153.4</ele>
        <time>2021-03-28T06:44:33Z</time>
      </trkpt>
      <trkpt lat="42.84731" lon="2.87588">
        <ele>153.4</ele>
        <time>2021-03-28T06:44:33Z</time>
      </trkpt>
      <trkpt lat="42.84739" lon="2.87587">
        <ele>153.2</ele>
        <time>2021-03-28T06:44:35Z</time>
      </trkpt>
      <trkpt lat="42.84739" lon="2.87587">
        <ele>153.2</ele>
        <time>2021-03-28T06:44:35Z</time>
      </trkpt>
      <trkpt lat="42.84746" lon="2.87585">
        <ele>153.1</ele>
        <time>2021-03-28T06:44:36Z</time>
      </trkpt>
      <trkpt lat="42.84746" lon="2.87585">
        <ele>153.1</ele>
        <time>2021-03-28T06:44:36Z</time>
      </trkpt>
      <trkpt lat="42.84752" lon="2.87583">
        <ele>152.9</ele>
        <time>2021-03-28T06:44:38Z</time>
      </trkpt>
      <trkpt lat="42.84752" lon="2.87583">
        <ele>152.9</ele>
        <time>2021-03-28T06:44:38Z</time>
      </trkpt>
      <trkpt lat="42.84759" lon="2.87582">
        <ele>152.8</ele>
        <time>2021-03-28T06:44:39Z</time>
      </trkpt>
      <trkpt lat="42.84759" lon="2.87582">
        <ele>152.8</ele>
        <time>2021-03-28T06:44:39Z</time>
      </trkpt>
      <trkpt lat="42.84767" lon="2.87581">
        <ele>152.6</ele>
        <time>2021-03-28T06:44:41Z</time>
      </trkpt>
      <trkpt lat="42.84767" lon="2.87581">
        <ele>152.6</ele>
        <time>2021-03-28T06:44:41Z</time>
      </trkpt>
      <trkpt lat="42.84773" lon="2.8758">
        <ele>152.5</ele>
        <time>2021-03-28T06:44:42Z</time>
      </trkpt>
      <trkpt lat="42.84773" lon="2.8758">
        <ele>152.5</ele>
        <time>2021-03-28T06:44:42Z</time>
      </trkpt>
      <trkpt lat="42.84781" lon="2.87578">
        <ele>152.5</ele>
        <time>2021-03-28T06:44:44Z</time>
      </trkpt>
      <trkpt lat="42.84781" lon="2.87578">
        <ele>152.5</ele>
        <time>2021-03-28T06:44:44Z</time>
      </trkpt>
      <trkpt lat="42.8479" lon="2.87576">
        <ele>152.4</ele>
        <time>2021-03-28T06:44:46Z</time>
      </trkpt>
      <trkpt lat="42.8479" lon="2.87576">
        <ele>152.4</ele>
        <time>2021-03-28T06:44:46Z</time>
      </trkpt>
      <trkpt lat="42.84797" lon="2.87575">
        <ele>152.4</ele>
        <time>2021-03-28T06:44:47Z</time>
      </trkpt>
      <trkpt lat="42.84797" lon="2.87575">
        <ele>152.4</ele>
        <time>2021-03-28T06:44:47Z</time>
      </trkpt>
      <trkpt lat="42.84805" lon="2.87574">
        <ele>152.4</ele>
        <time>2021-03-28T06:44:49Z</time>
      </trkpt>
      <trkpt lat="42.84805" lon="2.87574">
        <ele>152.4</ele>
        <time>2021-03-28T06:44:49Z</time>
      </trkpt>
      <trkpt lat="42.84813" lon="2.87572">
        <ele>152.3</ele>
        <time>2021-03-28T06:44:51Z</time>
      </trkpt>
      <trkpt lat="42.84813" lon="2.87572">
        <ele>152.3</ele>
        <time>2021-03-28T06:44:51Z</time>
      </trkpt>
      <trkpt lat="42.84821" lon="2.87569">
        <ele>152.2</ele>
        <time>2021-03-28T06:44:53Z</time>
      </trkpt>
      <trkpt lat="42.84821" lon="2.87569">
        <ele>152.2</ele>
        <time>2021-03-28T06:44:53Z</time>
      </trkpt>
      <trkpt lat="42.8483" lon="2.87567">
        <ele>152</ele>
        <time>2021-03-28T06:44:55Z</time>
      </trkpt>
      <trkpt lat="42.8483" lon="2.87567">
        <ele>152</ele>
        <time>2021-03-28T06:44:55Z</time>
      </trkpt>
      <trkpt lat="42.84838" lon="2.87565">
        <ele>151.9</ele>
        <time>2021-03-28T06:44:56Z</time>
      </trkpt>
      <trkpt lat="42.84838" lon="2.87565">
        <ele>151.9</ele>
        <time>2021-03-28T06:44:56Z</time>
      </trkpt>
      <trkpt lat="42.84846" lon="2.87562">
        <ele>152</ele>
        <time>2021-03-28T06:44:58Z</time>
      </trkpt>
      <trkpt lat="42.84846" lon="2.87562">
        <ele>152</ele>
        <time>2021-03-28T06:44:58Z</time>
      </trkpt>
      <trkpt lat="42.84855" lon="2.87559">
        <ele>151.9</ele>
        <time>2021-03-28T06:45:00Z</time>
      </trkpt>
      <trkpt lat="42.84855" lon="2.87559">
        <ele>151.9</ele>
        <time>2021-03-28T06:45:00Z</time>
      </trkpt>
      <trkpt lat="42.84864" lon="2.87557">
        <ele>151.8</ele>
        <time>2021-03-28T06:45:02Z</time>
      </trkpt>
      <trkpt lat="42.84864" lon="2.87557">
        <ele>151.8</ele>
        <time>2021-03-28T06:45:02Z</time>
      </trkpt>
      <trkpt lat="42.84871" lon="2.87555">
        <ele>151.7</ele>
        <time>2021-03-28T06:45:03Z</time>
      </trkpt>
      <trkpt lat="42.84871" lon="2.87555">
        <ele>151.7</ele>
        <time>2021-03-28T06:45:03Z</time>
      </trkpt>
      <trkpt lat="42.84878" lon="2.87553">
        <ele>151.6</ele>
        <time>2021-03-28T06:45:04Z</time>
      </trkpt>
      <trkpt lat="42.84878" lon="2.87553">
        <ele>151.6</ele>
        <time>2021-03-28T06:45:04Z</time>
      </trkpt>
      <trkpt lat="42.84883" lon="2.87551">
        <ele>151.6</ele>
        <time>2021-03-28T06:45:05Z</time>
      </trkpt>
      <trkpt lat="42.84883" lon="2.87551">
        <ele>151.6</ele>
        <time>2021-03-28T06:45:05Z</time>
      </trkpt>
      <trkpt lat="42.8489" lon="2.87549">
        <ele>151.4</ele>
        <time>2021-03-28T06:45:07Z</time>
      </trkpt>
      <trkpt lat="42.8489" lon="2.87549">
        <ele>151.4</ele>
        <time>2021-03-28T06:45:07Z</time>
      </trkpt>
      <trkpt lat="42.84896" lon="2.87547">
        <ele>151.2</ele>
        <time>2021-03-28T06:45:08Z</time>
      </trkpt>
      <trkpt lat="42.84896" lon="2.87547">
        <ele>151.2</ele>
        <time>2021-03-28T06:45:08Z</time>
      </trkpt>
      <trkpt lat="42.84901" lon="2.87546">
        <ele>151</ele>
        <time>2021-03-28T06:45:09Z</time>
      </trkpt>
      <trkpt lat="42.84901" lon="2.87546">
        <ele>151</ele>
        <time>2021-03-28T06:45:09Z</time>
      </trkpt>
      <trkpt lat="42.84909" lon="2.87543">
        <ele>150.8</ele>
        <time>2021-03-28T06:45:11Z</time>
      </trkpt>
      <trkpt lat="42.84909" lon="2.87543">
        <ele>150.8</ele>
        <time>2021-03-28T06:45:11Z</time>
      </trkpt>
      <trkpt lat="42.84917" lon="2.8754">
        <ele>150.7</ele>
        <time>2021-03-28T06:45:13Z</time>
      </trkpt>
      <trkpt lat="42.84917" lon="2.8754">
        <ele>150.7</ele>
        <time>2021-03-28T06:45:13Z</time>
      </trkpt>
      <trkpt lat="42.84924" lon="2.87538">
        <ele>151.3</ele>
        <time>2021-03-28T06:45:14Z</time>
      </trkpt>
      <trkpt lat="42.84924" lon="2.87538">
        <ele>151.3</ele>
        <time>2021-03-28T06:45:14Z</time>
      </trkpt>
      <trkpt lat="42.84931" lon="2.87537">
        <ele>151.7</ele>
        <time>2021-03-28T06:45:15Z</time>
      </trkpt>
      <trkpt lat="42.84931" lon="2.87537">
        <ele>151.7</ele>
        <time>2021-03-28T06:45:15Z</time>
      </trkpt>
      <trkpt lat="42.84937" lon="2.87538">
        <ele>152</ele>
        <time>2021-03-28T06:45:17Z</time>
      </trkpt>
      <trkpt lat="42.84937" lon="2.87538">
        <ele>152</ele>
        <time>2021-03-28T06:45:17Z</time>
      </trkpt>
      <trkpt lat="42.84944" lon="2.87541">
        <ele>152.4</ele>
        <time>2021-03-28T06:45:19Z</time>
      </trkpt>
      <trkpt lat="42.84944" lon="2.87541">
        <ele>152.4</ele>
        <time>2021-03-28T06:45:19Z</time>
      </trkpt>
      <trkpt lat="42.84951" lon="2.87544">
        <ele>152.9</ele>
        <time>2021-03-28T06:45:21Z</time>
      </trkpt>
      <trkpt lat="42.84951" lon="2.87544">
        <ele>152.9</ele>
        <time>2021-03-28T06:45:21Z</time>
      </trkpt>
      <trkpt lat="42.84957" lon="2.87547">
        <ele>153.3</ele>
        <time>2021-03-28T06:45:23Z</time>
      </trkpt>
      <trkpt lat="42.84957" lon="2.87547">
        <ele>153.3</ele>
        <time>2021-03-28T06:45:23Z</time>
      </trkpt>
      <trkpt lat="42.84964" lon="2.87549">
        <ele>153.6</ele>
        <time>2021-03-28T06:45:25Z</time>
      </trkpt>
      <trkpt lat="42.84964" lon="2.87549">
        <ele>153.6</ele>
        <time>2021-03-28T06:45:25Z</time>
      </trkpt>
      <trkpt lat="42.84969" lon="2.87551">
        <ele>153.9</ele>
        <time>2021-03-28T06:45:26Z</time>
      </trkpt>
      <trkpt lat="42.84969" lon="2.87551">
        <ele>153.9</ele>
        <time>2021-03-28T06:45:26Z</time>
      </trkpt>
      <trkpt lat="42.84975" lon="2.87553">
        <ele>154.2</ele>
        <time>2021-03-28T06:45:28Z</time>
      </trkpt>
      <trkpt lat="42.84975" lon="2.87553">
        <ele>154.2</ele>
        <time>2021-03-28T06:45:28Z</time>
      </trkpt>
      <trkpt lat="42.84981" lon="2.87556">
        <ele>154.6</ele>
        <time>2021-03-28T06:45:30Z</time>
      </trkpt>
      <trkpt lat="42.84981" lon="2.87556">
        <ele>154.6</ele>
        <time>2021-03-28T06:45:30Z</time>
      </trkpt>
      <trkpt lat="42.84986" lon="2.87557">
        <ele>154.9</ele>
        <time>2021-03-28T06:45:31Z</time>
      </trkpt>
      <trkpt lat="42.84986" lon="2.87557">
        <ele>154.9</ele>
        <time>2021-03-28T06:45:31Z</time>
      </trkpt>
      <trkpt lat="42.8499" lon="2.87559">
        <ele>155.2</ele>
        <time>2021-03-28T06:45:32Z</time>
      </trkpt>
      <trkpt lat="42.8499" lon="2.87559">
        <ele>155.2</ele>
        <time>2021-03-28T06:45:32Z</time>
      </trkpt>
      <trkpt lat="42.84994" lon="2.8756">
        <ele>155.4</ele>
        <time>2021-03-28T06:45:33Z</time>
      </trkpt>
      <trkpt lat="42.84994" lon="2.8756">
        <ele>155.4</ele>
        <time>2021-03-28T06:45:33Z</time>
      </trkpt>
      <trkpt lat="42.84999" lon="2.87561">
        <ele>155.7</ele>
        <time>2021-03-28T06:45:35Z</time>
      </trkpt>
      <trkpt lat="42.84999" lon="2.87561">
        <ele>155.7</ele>
        <time>2021-03-28T06:45:35Z</time>
      </trkpt>
      <trkpt lat="42.85003" lon="2.87562">
        <ele>156</ele>
        <time>2021-03-28T06:45:36Z</time>
      </trkpt>
      <trkpt lat="42.85003" lon="2.87562">
        <ele>156</ele>
        <time>2021-03-28T06:45:36Z</time>
      </trkpt>
      <trkpt lat="42.85008" lon="2.87563">
        <ele>156.3</ele>
        <time>2021-03-28T06:45:38Z</time>
      </trkpt>
      <trkpt lat="42.85008" lon="2.87563">
        <ele>156.3</ele>
        <time>2021-03-28T06:45:38Z</time>
      </trkpt>
      <trkpt lat="42.85013" lon="2.87564">
        <ele>156.6</ele>
        <time>2021-03-28T06:45:40Z</time>
      </trkpt>
      <trkpt lat="42.85013" lon="2.87564">
        <ele>156.6</ele>
        <time>2021-03-28T06:45:40Z</time>
      </trkpt>
      <trkpt lat="42.85018" lon="2.87564">
        <ele>157</ele>
        <time>2021-03-28T06:45:42Z</time>
      </trkpt>
      <trkpt lat="42.85018" lon="2.87564">
        <ele>157</ele>
        <time>2021-03-28T06:45:42Z</time>
      </trkpt>
      <trkpt lat="42.85023" lon="2.87565">
        <ele>157.3</ele>
        <time>2021-03-28T06:45:44Z</time>
      </trkpt>
      <trkpt lat="42.85023" lon="2.87565">
        <ele>157.3</ele>
        <time>2021-03-28T06:45:44Z</time>
      </trkpt>
      <trkpt lat="42.85028" lon="2.87565">
        <ele>157.7</ele>
        <time>2021-03-28T06:45:45Z</time>
      </trkpt>
      <trkpt lat="42.85028" lon="2.87565">
        <ele>157.7</ele>
        <time>2021-03-28T06:45:45Z</time>
      </trkpt>
      <trkpt lat="42.85033" lon="2.87565">
        <ele>158</ele>
        <time>2021-03-28T06:45:47Z</time>
      </trkpt>
      <trkpt lat="42.85033" lon="2.87565">
        <ele>158</ele>
        <time>2021-03-28T06:45:47Z</time>
      </trkpt>
      <trkpt lat="42.85039" lon="2.87565">
        <ele>158.3</ele>
        <time>2021-03-28T06:45:49Z</time>
      </trkpt>
      <trkpt lat="42.85039" lon="2.87565">
        <ele>158.3</ele>
        <time>2021-03-28T06:45:49Z</time>
      </trkpt>
      <trkpt lat="42.85044" lon="2.87565">
        <ele>158.7</ele>
        <time>2021-03-28T06:45:51Z</time>
      </trkpt>
      <trkpt lat="42.85044" lon="2.87565">
        <ele>158.7</ele>
        <time>2021-03-28T06:45:51Z</time>
      </trkpt>
      <trkpt lat="42.85048" lon="2.87565">
        <ele>158.9</ele>
        <time>2021-03-28T06:45:52Z</time>
      </trkpt>
      <trkpt lat="42.85048" lon="2.87565">
        <ele>158.9</ele>
        <time>2021-03-28T06:45:52Z</time>
      </trkpt>
      <trkpt lat="42.85053" lon="2.87564">
        <ele>159.3</ele>
        <time>2021-03-28T06:45:54Z</time>
      </trkpt>
      <trkpt lat="42.85053" lon="2.87564">
        <ele>159.3</ele>
        <time>2021-03-28T06:45:54Z</time>
      </trkpt>
      <trkpt lat="42.85057" lon="2.87563">
        <ele>159.5</ele>
        <time>2021-03-28T06:45:55Z</time>
      </trkpt>
      <trkpt lat="42.85057" lon="2.87563">
        <ele>159.5</ele>
        <time>2021-03-28T06:45:55Z</time>
      </trkpt>
      <trkpt lat="42.85061" lon="2.87562">
        <ele>159.8</ele>
        <time>2021-03-28T06:45:56Z</time>
      </trkpt>
      <trkpt lat="42.85061" lon="2.87562">
        <ele>159.8</ele>
        <time>2021-03-28T06:45:56Z</time>
      </trkpt>
      <trkpt lat="42.85065" lon="2.8756">
        <ele>160.1</ele>
        <time>2021-03-28T06:45:58Z</time>
      </trkpt>
      <trkpt lat="42.85065" lon="2.8756">
        <ele>160.1</ele>
        <time>2021-03-28T06:45:58Z</time>
      </trkpt>
      <trkpt lat="42.8507" lon="2.87558">
        <ele>160.4</ele>
        <time>2021-03-28T06:46:00Z</time>
      </trkpt>
      <trkpt lat="42.8507" lon="2.87558">
        <ele>160.4</ele>
        <time>2021-03-28T06:46:00Z</time>
      </trkpt>
      <trkpt lat="42.85076" lon="2.87556">
        <ele>160.7</ele>
        <time>2021-03-28T06:46:02Z</time>
      </trkpt>
      <trkpt lat="42.85076" lon="2.87556">
        <ele>160.7</ele>
        <time>2021-03-28T06:46:02Z</time>
      </trkpt>
      <trkpt lat="42.85081" lon="2.87554">
        <ele>161</ele>
        <time>2021-03-28T06:46:04Z</time>
      </trkpt>
      <trkpt lat="42.85081" lon="2.87554">
        <ele>161</ele>
        <time>2021-03-28T06:46:04Z</time>
      </trkpt>
      <trkpt lat="42.85086" lon="2.87553">
        <ele>161.2</ele>
        <time>2021-03-28T06:46:05Z</time>
      </trkpt>
      <trkpt lat="42.85086" lon="2.87553">
        <ele>161.2</ele>
        <time>2021-03-28T06:46:05Z</time>
      </trkpt>
      <trkpt lat="42.85091" lon="2.87551">
        <ele>161.4</ele>
        <time>2021-03-28T06:46:06Z</time>
      </trkpt>
      <trkpt lat="42.85091" lon="2.87551">
        <ele>161.4</ele>
        <time>2021-03-28T06:46:06Z</time>
      </trkpt>
      <trkpt lat="42.85095" lon="2.8755">
        <ele>161.5</ele>
        <time>2021-03-28T06:46:07Z</time>
      </trkpt>
      <trkpt lat="42.85095" lon="2.8755">
        <ele>161.5</ele>
        <time>2021-03-28T06:46:07Z</time>
      </trkpt>
      <trkpt lat="42.851" lon="2.87549">
        <ele>161.6</ele>
        <time>2021-03-28T06:46:09Z</time>
      </trkpt>
      <trkpt lat="42.851" lon="2.87549">
        <ele>161.6</ele>
        <time>2021-03-28T06:46:09Z</time>
      </trkpt>
      <trkpt lat="42.85105" lon="2.87549">
        <ele>161.7</ele>
        <time>2021-03-28T06:46:10Z</time>
      </trkpt>
      <trkpt lat="42.85105" lon="2.87549">
        <ele>161.7</ele>
        <time>2021-03-28T06:46:10Z</time>
      </trkpt>
      <trkpt lat="42.8511" lon="2.87548">
        <ele>161.8</ele>
        <time>2021-03-28T06:46:12Z</time>
      </trkpt>
      <trkpt lat="42.8511" lon="2.87548">
        <ele>161.8</ele>
        <time>2021-03-28T06:46:12Z</time>
      </trkpt>
      <trkpt lat="42.85114" lon="2.87547">
        <ele>162.2</ele>
        <time>2021-03-28T06:46:13Z</time>
      </trkpt>
      <trkpt lat="42.85114" lon="2.87547">
        <ele>162.2</ele>
        <time>2021-03-28T06:46:13Z</time>
      </trkpt>
      <trkpt lat="42.85118" lon="2.87547">
        <ele>162.6</ele>
        <time>2021-03-28T06:46:14Z</time>
      </trkpt>
      <trkpt lat="42.85118" lon="2.87547">
        <ele>162.6</ele>
        <time>2021-03-28T06:46:14Z</time>
      </trkpt>
      <trkpt lat="42.85123" lon="2.87547">
        <ele>163</ele>
        <time>2021-03-28T06:46:16Z</time>
      </trkpt>
      <trkpt lat="42.85123" lon="2.87547">
        <ele>163</ele>
        <time>2021-03-28T06:46:16Z</time>
      </trkpt>
      <trkpt lat="42.85127" lon="2.87548">
        <ele>163.4</ele>
        <time>2021-03-28T06:46:17Z</time>
      </trkpt>
      <trkpt lat="42.85127" lon="2.87548">
        <ele>163.4</ele>
        <time>2021-03-28T06:46:17Z</time>
      </trkpt>
      <trkpt lat="42.85133" lon="2.87548">
        <ele>163.9</ele>
        <time>2021-03-28T06:46:19Z</time>
      </trkpt>
      <trkpt lat="42.85133" lon="2.87548">
        <ele>163.9</ele>
        <time>2021-03-28T06:46:19Z</time>
      </trkpt>
      <trkpt lat="42.85137" lon="2.87549">
        <ele>164.3</ele>
        <time>2021-03-28T06:46:20Z</time>
      </trkpt>
      <trkpt lat="42.85137" lon="2.87549">
        <ele>164.3</ele>
        <time>2021-03-28T06:46:20Z</time>
      </trkpt>
      <trkpt lat="42.85141" lon="2.8755">
        <ele>164.5</ele>
        <time>2021-03-28T06:46:21Z</time>
      </trkpt>
      <trkpt lat="42.85141" lon="2.8755">
        <ele>164.5</ele>
        <time>2021-03-28T06:46:21Z</time>
      </trkpt>
      <trkpt lat="42.85146" lon="2.87551">
        <ele>164.7</ele>
        <time>2021-03-28T06:46:23Z</time>
      </trkpt>
      <trkpt lat="42.85146" lon="2.87551">
        <ele>164.7</ele>
        <time>2021-03-28T06:46:23Z</time>
      </trkpt>
      <trkpt lat="42.85152" lon="2.87552">
        <ele>164.8</ele>
        <time>2021-03-28T06:46:25Z</time>
      </trkpt>
      <trkpt lat="42.85152" lon="2.87552">
        <ele>164.8</ele>
        <time>2021-03-28T06:46:25Z</time>
      </trkpt>
      <trkpt lat="42.85157" lon="2.87554">
        <ele>164.8</ele>
        <time>2021-03-28T06:46:27Z</time>
      </trkpt>
      <trkpt lat="42.85157" lon="2.87554">
        <ele>164.8</ele>
        <time>2021-03-28T06:46:27Z</time>
      </trkpt>
      <trkpt lat="42.85162" lon="2.87556">
        <ele>164.8</ele>
        <time>2021-03-28T06:46:28Z</time>
      </trkpt>
      <trkpt lat="42.85162" lon="2.87556">
        <ele>164.8</ele>
        <time>2021-03-28T06:46:28Z</time>
      </trkpt>
      <trkpt lat="42.85167" lon="2.87558">
        <ele>164.9</ele>
        <time>2021-03-28T06:46:29Z</time>
      </trkpt>
      <trkpt lat="42.85167" lon="2.87558">
        <ele>164.9</ele>
        <time>2021-03-28T06:46:29Z</time>
      </trkpt>
      <trkpt lat="42.85172" lon="2.87559">
        <ele>165</ele>
        <time>2021-03-28T06:46:31Z</time>
      </trkpt>
      <trkpt lat="42.85172" lon="2.87559">
        <ele>165</ele>
        <time>2021-03-28T06:46:31Z</time>
      </trkpt>
      <trkpt lat="42.85178" lon="2.87561">
        <ele>165.1</ele>
        <time>2021-03-28T06:46:33Z</time>
      </trkpt>
      <trkpt lat="42.85178" lon="2.87561">
        <ele>165.1</ele>
        <time>2021-03-28T06:46:33Z</time>
      </trkpt>
      <trkpt lat="42.85184" lon="2.87563">
        <ele>165</ele>
        <time>2021-03-28T06:46:35Z</time>
      </trkpt>
      <trkpt lat="42.85184" lon="2.87563">
        <ele>165</ele>
        <time>2021-03-28T06:46:35Z</time>
      </trkpt>
      <trkpt lat="42.85189" lon="2.87565">
        <ele>164.9</ele>
        <time>2021-03-28T06:46:36Z</time>
      </trkpt>
      <trkpt lat="42.85189" lon="2.87565">
        <ele>164.9</ele>
        <time>2021-03-28T06:46:36Z</time>
      </trkpt>
      <trkpt lat="42.85195" lon="2.87566">
        <ele>164.9</ele>
        <time>2021-03-28T06:46:38Z</time>
      </trkpt>
      <trkpt lat="42.85195" lon="2.87566">
        <ele>164.9</ele>
        <time>2021-03-28T06:46:38Z</time>
      </trkpt>
      <trkpt lat="42.85201" lon="2.87567">
        <ele>165.1</ele>
        <time>2021-03-28T06:46:40Z</time>
      </trkpt>
      <trkpt lat="42.85201" lon="2.87567">
        <ele>165.1</ele>
        <time>2021-03-28T06:46:40Z</time>
      </trkpt>
      <trkpt lat="42.85206" lon="2.87568">
        <ele>165.3</ele>
        <time>2021-03-28T06:46:41Z</time>
      </trkpt>
      <trkpt lat="42.85206" lon="2.87568">
        <ele>165.3</ele>
        <time>2021-03-28T06:46:41Z</time>
      </trkpt>
      <trkpt lat="42.85211" lon="2.8757">
        <ele>165.4</ele>
        <time>2021-03-28T06:46:43Z</time>
      </trkpt>
      <trkpt lat="42.85211" lon="2.8757">
        <ele>165.4</ele>
        <time>2021-03-28T06:46:43Z</time>
      </trkpt>
      <trkpt lat="42.85216" lon="2.87571">
        <ele>165.5</ele>
        <time>2021-03-28T06:46:44Z</time>
      </trkpt>
      <trkpt lat="42.85216" lon="2.87571">
        <ele>165.5</ele>
        <time>2021-03-28T06:46:44Z</time>
      </trkpt>
      <trkpt lat="42.85221" lon="2.87572">
        <ele>165.5</ele>
        <time>2021-03-28T06:46:45Z</time>
      </trkpt>
      <trkpt lat="42.85221" lon="2.87572">
        <ele>165.5</ele>
        <time>2021-03-28T06:46:45Z</time>
      </trkpt>
      <trkpt lat="42.85226" lon="2.87574">
        <ele>165.5</ele>
        <time>2021-03-28T06:46:47Z</time>
      </trkpt>
      <trkpt lat="42.85226" lon="2.87574">
        <ele>165.5</ele>
        <time>2021-03-28T06:46:47Z</time>
      </trkpt>
      <trkpt lat="42.85231" lon="2.87575">
        <ele>165.5</ele>
        <time>2021-03-28T06:46:49Z</time>
      </trkpt>
      <trkpt lat="42.85231" lon="2.87575">
        <ele>165.5</ele>
        <time>2021-03-28T06:46:49Z</time>
      </trkpt>
      <trkpt lat="42.85236" lon="2.87575">
        <ele>165.5</ele>
        <time>2021-03-28T06:46:50Z</time>
      </trkpt>
      <trkpt lat="42.85236" lon="2.87575">
        <ele>165.5</ele>
        <time>2021-03-28T06:46:50Z</time>
      </trkpt>
      <trkpt lat="42.85241" lon="2.87575">
        <ele>165.6</ele>
        <time>2021-03-28T06:46:51Z</time>
      </trkpt>
      <trkpt lat="42.85241" lon="2.87575">
        <ele>165.6</ele>
        <time>2021-03-28T06:46:51Z</time>
      </trkpt>
      <trkpt lat="42.85245" lon="2.87576">
        <ele>165.7</ele>
        <time>2021-03-28T06:46:53Z</time>
      </trkpt>
      <trkpt lat="42.85245" lon="2.87576">
        <ele>165.7</ele>
        <time>2021-03-28T06:46:53Z</time>
      </trkpt>
      <trkpt lat="42.85251" lon="2.87576">
        <ele>165.8</ele>
        <time>2021-03-28T06:46:55Z</time>
      </trkpt>
      <trkpt lat="42.85251" lon="2.87576">
        <ele>165.8</ele>
        <time>2021-03-28T06:46:55Z</time>
      </trkpt>
      <trkpt lat="42.85255" lon="2.87575">
        <ele>165.9</ele>
        <time>2021-03-28T06:46:56Z</time>
      </trkpt>
      <trkpt lat="42.85255" lon="2.87575">
        <ele>165.9</ele>
        <time>2021-03-28T06:46:56Z</time>
      </trkpt>
      <trkpt lat="42.85261" lon="2.87574">
        <ele>166</ele>
        <time>2021-03-28T06:46:58Z</time>
      </trkpt>
      <trkpt lat="42.85261" lon="2.87574">
        <ele>166</ele>
        <time>2021-03-28T06:46:58Z</time>
      </trkpt>
      <trkpt lat="42.85266" lon="2.87573">
        <ele>166.1</ele>
        <time>2021-03-28T06:46:59Z</time>
      </trkpt>
      <trkpt lat="42.85266" lon="2.87573">
        <ele>166.1</ele>
        <time>2021-03-28T06:46:59Z</time>
      </trkpt>
      <trkpt lat="42.8527" lon="2.87573">
        <ele>166.1</ele>
        <time>2021-03-28T06:47:00Z</time>
      </trkpt>
      <trkpt lat="42.8527" lon="2.87573">
        <ele>166.1</ele>
        <time>2021-03-28T06:47:00Z</time>
      </trkpt>
      <trkpt lat="42.85274" lon="2.87573">
        <ele>166.2</ele>
        <time>2021-03-28T06:47:01Z</time>
      </trkpt>
      <trkpt lat="42.85274" lon="2.87573">
        <ele>166.2</ele>
        <time>2021-03-28T06:47:01Z</time>
      </trkpt>
      <trkpt lat="42.85279" lon="2.87572">
        <ele>166.3</ele>
        <time>2021-03-28T06:47:03Z</time>
      </trkpt>
      <trkpt lat="42.85279" lon="2.87572">
        <ele>166.3</ele>
        <time>2021-03-28T06:47:03Z</time>
      </trkpt>
      <trkpt lat="42.85284" lon="2.87571">
        <ele>166.6</ele>
        <time>2021-03-28T06:47:05Z</time>
      </trkpt>
      <trkpt lat="42.85284" lon="2.87571">
        <ele>166.6</ele>
        <time>2021-03-28T06:47:05Z</time>
      </trkpt>
      <trkpt lat="42.8529" lon="2.8757">
        <ele>166.9</ele>
        <time>2021-03-28T06:47:07Z</time>
      </trkpt>
      <trkpt lat="42.8529" lon="2.8757">
        <ele>166.9</ele>
        <time>2021-03-28T06:47:07Z</time>
      </trkpt>
      <trkpt lat="42.85295" lon="2.87569">
        <ele>167.1</ele>
        <time>2021-03-28T06:47:08Z</time>
      </trkpt>
      <trkpt lat="42.85295" lon="2.87569">
        <ele>167.1</ele>
        <time>2021-03-28T06:47:08Z</time>
      </trkpt>
      <trkpt lat="42.85301" lon="2.87569">
        <ele>167.4</ele>
        <time>2021-03-28T06:47:10Z</time>
      </trkpt>
      <trkpt lat="42.85301" lon="2.87569">
        <ele>167.4</ele>
        <time>2021-03-28T06:47:10Z</time>
      </trkpt>
      <trkpt lat="42.85307" lon="2.87568">
        <ele>167.6</ele>
        <time>2021-03-28T06:47:12Z</time>
      </trkpt>
      <trkpt lat="42.85307" lon="2.87568">
        <ele>167.6</ele>
        <time>2021-03-28T06:47:12Z</time>
      </trkpt>
      <trkpt lat="42.85313" lon="2.87567">
        <ele>168.1</ele>
        <time>2021-03-28T06:47:14Z</time>
      </trkpt>
      <trkpt lat="42.85313" lon="2.87567">
        <ele>168.1</ele>
        <time>2021-03-28T06:47:14Z</time>
      </trkpt>
      <trkpt lat="42.85318" lon="2.87566">
        <ele>168.5</ele>
        <time>2021-03-28T06:47:15Z</time>
      </trkpt>
      <trkpt lat="42.85318" lon="2.87566">
        <ele>168.5</ele>
        <time>2021-03-28T06:47:15Z</time>
      </trkpt>
      <trkpt lat="42.85324" lon="2.87565">
        <ele>169</ele>
        <time>2021-03-28T06:47:17Z</time>
      </trkpt>
      <trkpt lat="42.85324" lon="2.87565">
        <ele>169</ele>
        <time>2021-03-28T06:47:17Z</time>
      </trkpt>
      <trkpt lat="42.8533" lon="2.87564">
        <ele>169.5</ele>
        <time>2021-03-28T06:47:19Z</time>
      </trkpt>
      <trkpt lat="42.8533" lon="2.87564">
        <ele>169.5</ele>
        <time>2021-03-28T06:47:19Z</time>
      </trkpt>
      <trkpt lat="42.85335" lon="2.87564">
        <ele>169.8</ele>
        <time>2021-03-28T06:47:20Z</time>
      </trkpt>
      <trkpt lat="42.85335" lon="2.87564">
        <ele>169.8</ele>
        <time>2021-03-28T06:47:20Z</time>
      </trkpt>
      <trkpt lat="42.85341" lon="2.87563">
        <ele>170.1</ele>
        <time>2021-03-28T06:47:22Z</time>
      </trkpt>
      <trkpt lat="42.85341" lon="2.87563">
        <ele>170.1</ele>
        <time>2021-03-28T06:47:22Z</time>
      </trkpt>
      <trkpt lat="42.85347" lon="2.87562">
        <ele>170.4</ele>
        <time>2021-03-28T06:47:24Z</time>
      </trkpt>
      <trkpt lat="42.85347" lon="2.87562">
        <ele>170.4</ele>
        <time>2021-03-28T06:47:24Z</time>
      </trkpt>
      <trkpt lat="42.85352" lon="2.87561">
        <ele>170.6</ele>
        <time>2021-03-28T06:47:25Z</time>
      </trkpt>
      <trkpt lat="42.85352" lon="2.87561">
        <ele>170.6</ele>
        <time>2021-03-28T06:47:25Z</time>
      </trkpt>
      <trkpt lat="42.85357" lon="2.8756">
        <ele>170.8</ele>
        <time>2021-03-28T06:47:27Z</time>
      </trkpt>
      <trkpt lat="42.85357" lon="2.8756">
        <ele>170.8</ele>
        <time>2021-03-28T06:47:27Z</time>
      </trkpt>
      <trkpt lat="42.85363" lon="2.8756">
        <ele>171.1</ele>
        <time>2021-03-28T06:47:29Z</time>
      </trkpt>
      <trkpt lat="42.85363" lon="2.8756">
        <ele>171.1</ele>
        <time>2021-03-28T06:47:29Z</time>
      </trkpt>
      <trkpt lat="42.85368" lon="2.87559">
        <ele>171.3</ele>
        <time>2021-03-28T06:47:31Z</time>
      </trkpt>
      <trkpt lat="42.85368" lon="2.87559">
        <ele>171.3</ele>
        <time>2021-03-28T06:47:31Z</time>
      </trkpt>
      <trkpt lat="42.85374" lon="2.87558">
        <ele>171.4</ele>
        <time>2021-03-28T06:47:33Z</time>
      </trkpt>
      <trkpt lat="42.85374" lon="2.87558">
        <ele>171.4</ele>
        <time>2021-03-28T06:47:33Z</time>
      </trkpt>
      <trkpt lat="42.85379" lon="2.87558">
        <ele>171.6</ele>
        <time>2021-03-28T06:47:35Z</time>
      </trkpt>
      <trkpt lat="42.85379" lon="2.87558">
        <ele>171.6</ele>
        <time>2021-03-28T06:47:35Z</time>
      </trkpt>
      <trkpt lat="42.85385" lon="2.87557">
        <ele>171.9</ele>
        <time>2021-03-28T06:47:37Z</time>
      </trkpt>
      <trkpt lat="42.85385" lon="2.87557">
        <ele>171.9</ele>
        <time>2021-03-28T06:47:37Z</time>
      </trkpt>
      <trkpt lat="42.85391" lon="2.87555">
        <ele>172.2</ele>
        <time>2021-03-28T06:47:39Z</time>
      </trkpt>
      <trkpt lat="42.85391" lon="2.87555">
        <ele>172.2</ele>
        <time>2021-03-28T06:47:39Z</time>
      </trkpt>
      <trkpt lat="42.85396" lon="2.87553">
        <ele>172.6</ele>
        <time>2021-03-28T06:47:40Z</time>
      </trkpt>
      <trkpt lat="42.85396" lon="2.87553">
        <ele>172.6</ele>
        <time>2021-03-28T06:47:40Z</time>
      </trkpt>
      <trkpt lat="42.85401" lon="2.87553">
        <ele>173</ele>
        <time>2021-03-28T06:47:42Z</time>
      </trkpt>
      <trkpt lat="42.85401" lon="2.87553">
        <ele>173</ele>
        <time>2021-03-28T06:47:42Z</time>
      </trkpt>
      <trkpt lat="42.85406" lon="2.87552">
        <ele>173.3</ele>
        <time>2021-03-28T06:47:43Z</time>
      </trkpt>
      <trkpt lat="42.85406" lon="2.87552">
        <ele>173.3</ele>
        <time>2021-03-28T06:47:43Z</time>
      </trkpt>
      <trkpt lat="42.8541" lon="2.87552">
        <ele>173.6</ele>
        <time>2021-03-28T06:47:44Z</time>
      </trkpt>
      <trkpt lat="42.8541" lon="2.87552">
        <ele>173.6</ele>
        <time>2021-03-28T06:47:44Z</time>
      </trkpt>
      <trkpt lat="42.85415" lon="2.87552">
        <ele>173.9</ele>
        <time>2021-03-28T06:47:46Z</time>
      </trkpt>
      <trkpt lat="42.85415" lon="2.87552">
        <ele>173.9</ele>
        <time>2021-03-28T06:47:46Z</time>
      </trkpt>
      <trkpt lat="42.8542" lon="2.87551">
        <ele>174.1</ele>
        <time>2021-03-28T06:47:47Z</time>
      </trkpt>
      <trkpt lat="42.8542" lon="2.87551">
        <ele>174.1</ele>
        <time>2021-03-28T06:47:47Z</time>
      </trkpt>
      <trkpt lat="42.85426" lon="2.87551">
        <ele>174.3</ele>
        <time>2021-03-28T06:47:49Z</time>
      </trkpt>
      <trkpt lat="42.85426" lon="2.87551">
        <ele>174.3</ele>
        <time>2021-03-28T06:47:49Z</time>
      </trkpt>
      <trkpt lat="42.85431" lon="2.87552">
        <ele>174.4</ele>
        <time>2021-03-28T06:47:50Z</time>
      </trkpt>
      <trkpt lat="42.85431" lon="2.87552">
        <ele>174.4</ele>
        <time>2021-03-28T06:47:50Z</time>
      </trkpt>
      <trkpt lat="42.85436" lon="2.87555">
        <ele>174.7</ele>
        <time>2021-03-28T06:47:52Z</time>
      </trkpt>
      <trkpt lat="42.85436" lon="2.87555">
        <ele>174.7</ele>
        <time>2021-03-28T06:47:52Z</time>
      </trkpt>
      <trkpt lat="42.85441" lon="2.87558">
        <ele>174.9</ele>
        <time>2021-03-28T06:47:54Z</time>
      </trkpt>
      <trkpt lat="42.85441" lon="2.87558">
        <ele>174.9</ele>
        <time>2021-03-28T06:47:54Z</time>
      </trkpt>
      <trkpt lat="42.85446" lon="2.87562">
        <ele>175.2</ele>
        <time>2021-03-28T06:47:56Z</time>
      </trkpt>
      <trkpt lat="42.85446" lon="2.87562">
        <ele>175.2</ele>
        <time>2021-03-28T06:47:56Z</time>
      </trkpt>
      <trkpt lat="42.85451" lon="2.87566">
        <ele>175.4</ele>
        <time>2021-03-28T06:47:57Z</time>
      </trkpt>
      <trkpt lat="42.85451" lon="2.87566">
        <ele>175.4</ele>
        <time>2021-03-28T06:47:57Z</time>
      </trkpt>
      <trkpt lat="42.85456" lon="2.8757">
        <ele>175.5</ele>
        <time>2021-03-28T06:47:59Z</time>
      </trkpt>
      <trkpt lat="42.85456" lon="2.8757">
        <ele>175.5</ele>
        <time>2021-03-28T06:47:59Z</time>
      </trkpt>
      <trkpt lat="42.85461" lon="2.87574">
        <ele>175.7</ele>
        <time>2021-03-28T06:48:01Z</time>
      </trkpt>
      <trkpt lat="42.85461" lon="2.87574">
        <ele>175.7</ele>
        <time>2021-03-28T06:48:01Z</time>
      </trkpt>
      <trkpt lat="42.85466" lon="2.87579">
        <ele>175.9</ele>
        <time>2021-03-28T06:48:03Z</time>
      </trkpt>
      <trkpt lat="42.85466" lon="2.87579">
        <ele>175.9</ele>
        <time>2021-03-28T06:48:03Z</time>
      </trkpt>
      <trkpt lat="42.8547" lon="2.87583">
        <ele>176</ele>
        <time>2021-03-28T06:48:04Z</time>
      </trkpt>
      <trkpt lat="42.8547" lon="2.87583">
        <ele>176</ele>
        <time>2021-03-28T06:48:04Z</time>
      </trkpt>
      <trkpt lat="42.85474" lon="2.87587">
        <ele>176.4</ele>
        <time>2021-03-28T06:48:06Z</time>
      </trkpt>
      <trkpt lat="42.85474" lon="2.87587">
        <ele>176.4</ele>
        <time>2021-03-28T06:48:06Z</time>
      </trkpt>
      <trkpt lat="42.85478" lon="2.87592">
        <ele>176.8</ele>
        <time>2021-03-28T06:48:08Z</time>
      </trkpt>
      <trkpt lat="42.85478" lon="2.87592">
        <ele>176.8</ele>
        <time>2021-03-28T06:48:08Z</time>
      </trkpt>
      <trkpt lat="42.85483" lon="2.87597">
        <ele>177.1</ele>
        <time>2021-03-28T06:48:10Z</time>
      </trkpt>
      <trkpt lat="42.85483" lon="2.87597">
        <ele>177.1</ele>
        <time>2021-03-28T06:48:10Z</time>
      </trkpt>
      <trkpt lat="42.85488" lon="2.87602">
        <ele>177.2</ele>
        <time>2021-03-28T06:48:12Z</time>
      </trkpt>
      <trkpt lat="42.85488" lon="2.87602">
        <ele>177.2</ele>
        <time>2021-03-28T06:48:12Z</time>
      </trkpt>
      <trkpt lat="42.85493" lon="2.87607">
        <ele>177.2</ele>
        <time>2021-03-28T06:48:14Z</time>
      </trkpt>
      <trkpt lat="42.85493" lon="2.87607">
        <ele>177.2</ele>
        <time>2021-03-28T06:48:14Z</time>
      </trkpt>
      <trkpt lat="42.85498" lon="2.87611">
        <ele>177.1</ele>
        <time>2021-03-28T06:48:15Z</time>
      </trkpt>
      <trkpt lat="42.85498" lon="2.87611">
        <ele>177.1</ele>
        <time>2021-03-28T06:48:15Z</time>
      </trkpt>
      <trkpt lat="42.85503" lon="2.87615">
        <ele>177.5</ele>
        <time>2021-03-28T06:48:17Z</time>
      </trkpt>
      <trkpt lat="42.85503" lon="2.87615">
        <ele>177.5</ele>
        <time>2021-03-28T06:48:17Z</time>
      </trkpt>
      <trkpt lat="42.85508" lon="2.87618">
        <ele>177.8</ele>
        <time>2021-03-28T06:48:18Z</time>
      </trkpt>
      <trkpt lat="42.85508" lon="2.87618">
        <ele>177.8</ele>
        <time>2021-03-28T06:48:18Z</time>
      </trkpt>
      <trkpt lat="42.85513" lon="2.87621">
        <ele>178.1</ele>
        <time>2021-03-28T06:48:20Z</time>
      </trkpt>
      <trkpt lat="42.85513" lon="2.87621">
        <ele>178.1</ele>
        <time>2021-03-28T06:48:20Z</time>
      </trkpt>
      <trkpt lat="42.85518" lon="2.87624">
        <ele>178.3</ele>
        <time>2021-03-28T06:48:22Z</time>
      </trkpt>
      <trkpt lat="42.85518" lon="2.87624">
        <ele>178.3</ele>
        <time>2021-03-28T06:48:22Z</time>
      </trkpt>
      <trkpt lat="42.85524" lon="2.87627">
        <ele>178.3</ele>
        <time>2021-03-28T06:48:24Z</time>
      </trkpt>
      <trkpt lat="42.85524" lon="2.87627">
        <ele>178.3</ele>
        <time>2021-03-28T06:48:24Z</time>
      </trkpt>
      <trkpt lat="42.85529" lon="2.8763">
        <ele>178.3</ele>
        <time>2021-03-28T06:48:26Z</time>
      </trkpt>
      <trkpt lat="42.85529" lon="2.8763">
        <ele>178.3</ele>
        <time>2021-03-28T06:48:26Z</time>
      </trkpt>
      <trkpt lat="42.85534" lon="2.87633">
        <ele>178.3</ele>
        <time>2021-03-28T06:48:27Z</time>
      </trkpt>
      <trkpt lat="42.85534" lon="2.87633">
        <ele>178.3</ele>
        <time>2021-03-28T06:48:27Z</time>
      </trkpt>
      <trkpt lat="42.85539" lon="2.87635">
        <ele>178.3</ele>
        <time>2021-03-28T06:48:28Z</time>
      </trkpt>
      <trkpt lat="42.85539" lon="2.87635">
        <ele>178.3</ele>
        <time>2021-03-28T06:48:28Z</time>
      </trkpt>
      <trkpt lat="42.85544" lon="2.87638">
        <ele>178.3</ele>
        <time>2021-03-28T06:48:30Z</time>
      </trkpt>
      <trkpt lat="42.85544" lon="2.87638">
        <ele>178.3</ele>
        <time>2021-03-28T06:48:30Z</time>
      </trkpt>
      <trkpt lat="42.85549" lon="2.8764">
        <ele>178.4</ele>
        <time>2021-03-28T06:48:31Z</time>
      </trkpt>
      <trkpt lat="42.85549" lon="2.8764">
        <ele>178.4</ele>
        <time>2021-03-28T06:48:31Z</time>
      </trkpt>
      <trkpt lat="42.85555" lon="2.87642">
        <ele>178.4</ele>
        <time>2021-03-28T06:48:33Z</time>
      </trkpt>
      <trkpt lat="42.85555" lon="2.87642">
        <ele>178.4</ele>
        <time>2021-03-28T06:48:33Z</time>
      </trkpt>
      <trkpt lat="42.85562" lon="2.87643">
        <ele>178.2</ele>
        <time>2021-03-28T06:48:35Z</time>
      </trkpt>
      <trkpt lat="42.85562" lon="2.87643">
        <ele>178.2</ele>
        <time>2021-03-28T06:48:35Z</time>
      </trkpt>
      <trkpt lat="42.85569" lon="2.87643">
        <ele>178</ele>
        <time>2021-03-28T06:48:37Z</time>
      </trkpt>
      <trkpt lat="42.85569" lon="2.87643">
        <ele>178</ele>
        <time>2021-03-28T06:48:37Z</time>
      </trkpt>
      <trkpt lat="42.85576" lon="2.87643">
        <ele>177.7</ele>
        <time>2021-03-28T06:48:39Z</time>
      </trkpt>
      <trkpt lat="42.85576" lon="2.87643">
        <ele>177.7</ele>
        <time>2021-03-28T06:48:39Z</time>
      </trkpt>
      <trkpt lat="42.85584" lon="2.87642">
        <ele>177.3</ele>
        <time>2021-03-28T06:48:41Z</time>
      </trkpt>
      <trkpt lat="42.85584" lon="2.87642">
        <ele>177.3</ele>
        <time>2021-03-28T06:48:41Z</time>
      </trkpt>
      <trkpt lat="42.85592" lon="2.87641">
        <ele>177.5</ele>
        <time>2021-03-28T06:48:43Z</time>
      </trkpt>
      <trkpt lat="42.85592" lon="2.87641">
        <ele>177.5</ele>
        <time>2021-03-28T06:48:43Z</time>
      </trkpt>
      <trkpt lat="42.85601" lon="2.8764">
        <ele>177.7</ele>
        <time>2021-03-28T06:48:45Z</time>
      </trkpt>
      <trkpt lat="42.85601" lon="2.8764">
        <ele>177.7</ele>
        <time>2021-03-28T06:48:45Z</time>
      </trkpt>
      <trkpt lat="42.8561" lon="2.8764">
        <ele>178</ele>
        <time>2021-03-28T06:48:47Z</time>
      </trkpt>
      <trkpt lat="42.8561" lon="2.8764">
        <ele>178</ele>
        <time>2021-03-28T06:48:47Z</time>
      </trkpt>
      <trkpt lat="42.85618" lon="2.8764">
        <ele>177.8</ele>
        <time>2021-03-28T06:48:48Z</time>
      </trkpt>
      <trkpt lat="42.85618" lon="2.8764">
        <ele>177.8</ele>
        <time>2021-03-28T06:48:48Z</time>
      </trkpt>
      <trkpt lat="42.85627" lon="2.87641">
        <ele>177.5</ele>
        <time>2021-03-28T06:48:50Z</time>
      </trkpt>
      <trkpt lat="42.85627" lon="2.87641">
        <ele>177.5</ele>
        <time>2021-03-28T06:48:50Z</time>
      </trkpt>
      <trkpt lat="42.85637" lon="2.87642">
        <ele>177.2</ele>
        <time>2021-03-28T06:48:52Z</time>
      </trkpt>
      <trkpt lat="42.85637" lon="2.87642">
        <ele>177.2</ele>
        <time>2021-03-28T06:48:52Z</time>
      </trkpt>
      <trkpt lat="42.85645" lon="2.87644">
        <ele>177.1</ele>
        <time>2021-03-28T06:48:53Z</time>
      </trkpt>
      <trkpt lat="42.85645" lon="2.87644">
        <ele>177.1</ele>
        <time>2021-03-28T06:48:53Z</time>
      </trkpt>
      <trkpt lat="42.85653" lon="2.87646">
        <ele>177.1</ele>
        <time>2021-03-28T06:48:54Z</time>
      </trkpt>
      <trkpt lat="42.85653" lon="2.87646">
        <ele>177.1</ele>
        <time>2021-03-28T06:48:54Z</time>
      </trkpt>
      <trkpt lat="42.8566" lon="2.87648">
        <ele>177.1</ele>
        <time>2021-03-28T06:48:55Z</time>
      </trkpt>
      <trkpt lat="42.8566" lon="2.87648">
        <ele>177.1</ele>
        <time>2021-03-28T06:48:55Z</time>
      </trkpt>
      <trkpt lat="42.85666" lon="2.8765">
        <ele>177</ele>
        <time>2021-03-28T06:48:56Z</time>
      </trkpt>
      <trkpt lat="42.85666" lon="2.8765">
        <ele>177</ele>
        <time>2021-03-28T06:48:56Z</time>
      </trkpt>
      <trkpt lat="42.85674" lon="2.87652">
        <ele>176.7</ele>
        <time>2021-03-28T06:48:58Z</time>
      </trkpt>
      <trkpt lat="42.85674" lon="2.87652">
        <ele>176.7</ele>
        <time>2021-03-28T06:48:58Z</time>
      </trkpt>
      <trkpt lat="42.85683" lon="2.87653">
        <ele>176.4</ele>
        <time>2021-03-28T06:49:00Z</time>
      </trkpt>
      <trkpt lat="42.85683" lon="2.87653">
        <ele>176.4</ele>
        <time>2021-03-28T06:49:00Z</time>
      </trkpt>
      <trkpt lat="42.85691" lon="2.87654">
        <ele>176.1</ele>
        <time>2021-03-28T06:49:01Z</time>
      </trkpt>
      <trkpt lat="42.85691" lon="2.87654">
        <ele>176.1</ele>
        <time>2021-03-28T06:49:01Z</time>
      </trkpt>
      <trkpt lat="42.85701" lon="2.87654">
        <ele>175.8</ele>
        <time>2021-03-28T06:49:03Z</time>
      </trkpt>
      <trkpt lat="42.85701" lon="2.87654">
        <ele>175.8</ele>
        <time>2021-03-28T06:49:03Z</time>
      </trkpt>
      <trkpt lat="42.85712" lon="2.87652">
        <ele>175.4</ele>
        <time>2021-03-28T06:49:05Z</time>
      </trkpt>
      <trkpt lat="42.85712" lon="2.87652">
        <ele>175.4</ele>
        <time>2021-03-28T06:49:05Z</time>
      </trkpt>
      <trkpt lat="42.85723" lon="2.8765">
        <ele>174.9</ele>
        <time>2021-03-28T06:49:07Z</time>
      </trkpt>
      <trkpt lat="42.85723" lon="2.8765">
        <ele>174.9</ele>
        <time>2021-03-28T06:49:07Z</time>
      </trkpt>
      <trkpt lat="42.85736" lon="2.87647">
        <ele>174</ele>
        <time>2021-03-28T06:49:09Z</time>
      </trkpt>
      <trkpt lat="42.85736" lon="2.87647">
        <ele>174</ele>
        <time>2021-03-28T06:49:09Z</time>
      </trkpt>
      <trkpt lat="42.8575" lon="2.87643">
        <ele>173</ele>
        <time>2021-03-28T06:49:11Z</time>
      </trkpt>
      <trkpt lat="42.8575" lon="2.87643">
        <ele>173</ele>
        <time>2021-03-28T06:49:11Z</time>
      </trkpt>
      <trkpt lat="42.85762" lon="2.8764">
        <ele>172.2</ele>
        <time>2021-03-28T06:49:12Z</time>
      </trkpt>
      <trkpt lat="42.85762" lon="2.8764">
        <ele>172.2</ele>
        <time>2021-03-28T06:49:12Z</time>
      </trkpt>
      <trkpt lat="42.85772" lon="2.87638">
        <ele>171.4</ele>
        <time>2021-03-28T06:49:13Z</time>
      </trkpt>
      <trkpt lat="42.85772" lon="2.87638">
        <ele>171.4</ele>
        <time>2021-03-28T06:49:13Z</time>
      </trkpt>
      <trkpt lat="42.85786" lon="2.87635">
        <ele>169.6</ele>
        <time>2021-03-28T06:49:15Z</time>
      </trkpt>
      <trkpt lat="42.85786" lon="2.87635">
        <ele>169.6</ele>
        <time>2021-03-28T06:49:15Z</time>
      </trkpt>
      <trkpt lat="42.85798" lon="2.87633">
        <ele>167.4</ele>
        <time>2021-03-28T06:49:16Z</time>
      </trkpt>
      <trkpt lat="42.85798" lon="2.87633">
        <ele>167.4</ele>
        <time>2021-03-28T06:49:16Z</time>
      </trkpt>
      <trkpt lat="42.85812" lon="2.87631">
        <ele>165.8</ele>
        <time>2021-03-28T06:49:18Z</time>
      </trkpt>
      <trkpt lat="42.85812" lon="2.87631">
        <ele>165.8</ele>
        <time>2021-03-28T06:49:18Z</time>
      </trkpt>
      <trkpt lat="42.85824" lon="2.87629">
        <ele>165.3</ele>
        <time>2021-03-28T06:49:19Z</time>
      </trkpt>
      <trkpt lat="42.85824" lon="2.87629">
        <ele>165.3</ele>
        <time>2021-03-28T06:49:19Z</time>
      </trkpt>
      <trkpt lat="42.85839" lon="2.87627">
        <ele>164.8</ele>
        <time>2021-03-28T06:49:21Z</time>
      </trkpt>
      <trkpt lat="42.85839" lon="2.87627">
        <ele>164.8</ele>
        <time>2021-03-28T06:49:21Z</time>
      </trkpt>
      <trkpt lat="42.85852" lon="2.87625">
        <ele>164.3</ele>
        <time>2021-03-28T06:49:22Z</time>
      </trkpt>
      <trkpt lat="42.85852" lon="2.87625">
        <ele>164.3</ele>
        <time>2021-03-28T06:49:22Z</time>
      </trkpt>
      <trkpt lat="42.85867" lon="2.87623">
        <ele>163.9</ele>
        <time>2021-03-28T06:49:24Z</time>
      </trkpt>
      <trkpt lat="42.85867" lon="2.87623">
        <ele>163.9</ele>
        <time>2021-03-28T06:49:24Z</time>
      </trkpt>
      <trkpt lat="42.85883" lon="2.8762">
        <ele>163.7</ele>
        <time>2021-03-28T06:49:26Z</time>
      </trkpt>
      <trkpt lat="42.85883" lon="2.8762">
        <ele>163.7</ele>
        <time>2021-03-28T06:49:26Z</time>
      </trkpt>
      <trkpt lat="42.85898" lon="2.87618">
        <ele>163.8</ele>
        <time>2021-03-28T06:49:28Z</time>
      </trkpt>
      <trkpt lat="42.85898" lon="2.87618">
        <ele>163.8</ele>
        <time>2021-03-28T06:49:28Z</time>
      </trkpt>
      <trkpt lat="42.85912" lon="2.87616">
        <ele>163.8</ele>
        <time>2021-03-28T06:49:29Z</time>
      </trkpt>
      <trkpt lat="42.85912" lon="2.87616">
        <ele>163.8</ele>
        <time>2021-03-28T06:49:29Z</time>
      </trkpt>
      <trkpt lat="42.85925" lon="2.87614">
        <ele>163.6</ele>
        <time>2021-03-28T06:49:31Z</time>
      </trkpt>
      <trkpt lat="42.85925" lon="2.87614">
        <ele>163.6</ele>
        <time>2021-03-28T06:49:31Z</time>
      </trkpt>
      <trkpt lat="42.85939" lon="2.87612">
        <ele>163.2</ele>
        <time>2021-03-28T06:49:33Z</time>
      </trkpt>
      <trkpt lat="42.85939" lon="2.87612">
        <ele>163.2</ele>
        <time>2021-03-28T06:49:33Z</time>
      </trkpt>
      <trkpt lat="42.8595" lon="2.8761">
        <ele>163</ele>
        <time>2021-03-28T06:49:34Z</time>
      </trkpt>
      <trkpt lat="42.8595" lon="2.8761">
        <ele>163</ele>
        <time>2021-03-28T06:49:34Z</time>
      </trkpt>
      <trkpt lat="42.85962" lon="2.87608">
        <ele>163</ele>
        <time>2021-03-28T06:49:36Z</time>
      </trkpt>
      <trkpt lat="42.85962" lon="2.87608">
        <ele>163</ele>
        <time>2021-03-28T06:49:36Z</time>
      </trkpt>
      <trkpt lat="42.85972" lon="2.87607">
        <ele>163</ele>
        <time>2021-03-28T06:49:37Z</time>
      </trkpt>
      <trkpt lat="42.85972" lon="2.87607">
        <ele>163</ele>
        <time>2021-03-28T06:49:37Z</time>
      </trkpt>
      <trkpt lat="42.85982" lon="2.87606">
        <ele>163.1</ele>
        <time>2021-03-28T06:49:39Z</time>
      </trkpt>
      <trkpt lat="42.85982" lon="2.87606">
        <ele>163.1</ele>
        <time>2021-03-28T06:49:39Z</time>
      </trkpt>
      <trkpt lat="42.8599" lon="2.87605">
        <ele>163.2</ele>
        <time>2021-03-28T06:49:40Z</time>
      </trkpt>
      <trkpt lat="42.8599" lon="2.87605">
        <ele>163.2</ele>
        <time>2021-03-28T06:49:40Z</time>
      </trkpt>
      <trkpt lat="42.86" lon="2.87604">
        <ele>163.2</ele>
        <time>2021-03-28T06:49:42Z</time>
      </trkpt>
      <trkpt lat="42.86" lon="2.87604">
        <ele>163.2</ele>
        <time>2021-03-28T06:49:42Z</time>
      </trkpt>
      <trkpt lat="42.86008" lon="2.87605">
        <ele>163.6</ele>
        <time>2021-03-28T06:49:43Z</time>
      </trkpt>
      <trkpt lat="42.86008" lon="2.87605">
        <ele>163.6</ele>
        <time>2021-03-28T06:49:43Z</time>
      </trkpt>
      <trkpt lat="42.86015" lon="2.87606">
        <ele>163.8</ele>
        <time>2021-03-28T06:49:44Z</time>
      </trkpt>
      <trkpt lat="42.86015" lon="2.87606">
        <ele>163.8</ele>
        <time>2021-03-28T06:49:44Z</time>
      </trkpt>
      <trkpt lat="42.86023" lon="2.8761">
        <ele>163.9</ele>
        <time>2021-03-28T06:49:46Z</time>
      </trkpt>
      <trkpt lat="42.86023" lon="2.8761">
        <ele>163.9</ele>
        <time>2021-03-28T06:49:46Z</time>
      </trkpt>
      <trkpt lat="42.86029" lon="2.87614">
        <ele>164.1</ele>
        <time>2021-03-28T06:49:47Z</time>
      </trkpt>
      <trkpt lat="42.86029" lon="2.87614">
        <ele>164.1</ele>
        <time>2021-03-28T06:49:47Z</time>
      </trkpt>
      <trkpt lat="42.86034" lon="2.87619">
        <ele>164.8</ele>
        <time>2021-03-28T06:49:48Z</time>
      </trkpt>
      <trkpt lat="42.86034" lon="2.87619">
        <ele>164.8</ele>
        <time>2021-03-28T06:49:48Z</time>
      </trkpt>
      <trkpt lat="42.86039" lon="2.87626">
        <ele>165.4</ele>
        <time>2021-03-28T06:49:50Z</time>
      </trkpt>
      <trkpt lat="42.86039" lon="2.87626">
        <ele>165.4</ele>
        <time>2021-03-28T06:49:50Z</time>
      </trkpt>
      <trkpt lat="42.86043" lon="2.87635">
        <ele>165.9</ele>
        <time>2021-03-28T06:49:52Z</time>
      </trkpt>
      <trkpt lat="42.86043" lon="2.87635">
        <ele>165.9</ele>
        <time>2021-03-28T06:49:52Z</time>
      </trkpt>
      <trkpt lat="42.86047" lon="2.87645">
        <ele>166.3</ele>
        <time>2021-03-28T06:49:54Z</time>
      </trkpt>
      <trkpt lat="42.86047" lon="2.87645">
        <ele>166.3</ele>
        <time>2021-03-28T06:49:54Z</time>
      </trkpt>
      <trkpt lat="42.8605" lon="2.87656">
        <ele>166.5</ele>
        <time>2021-03-28T06:49:56Z</time>
      </trkpt>
      <trkpt lat="42.8605" lon="2.87656">
        <ele>166.5</ele>
        <time>2021-03-28T06:49:56Z</time>
      </trkpt>
      <trkpt lat="42.86053" lon="2.87665">
        <ele>166.7</ele>
        <time>2021-03-28T06:49:57Z</time>
      </trkpt>
      <trkpt lat="42.86053" lon="2.87665">
        <ele>166.7</ele>
        <time>2021-03-28T06:49:57Z</time>
      </trkpt>
      <trkpt lat="42.86057" lon="2.87675">
        <ele>167.1</ele>
        <time>2021-03-28T06:49:59Z</time>
      </trkpt>
      <trkpt lat="42.86057" lon="2.87675">
        <ele>167.1</ele>
        <time>2021-03-28T06:49:59Z</time>
      </trkpt>
      <trkpt lat="42.8606" lon="2.87686">
        <ele>167.5</ele>
        <time>2021-03-28T06:50:01Z</time>
      </trkpt>
      <trkpt lat="42.8606" lon="2.87686">
        <ele>167.5</ele>
        <time>2021-03-28T06:50:01Z</time>
      </trkpt>
      <trkpt lat="42.86064" lon="2.87698">
        <ele>167.8</ele>
        <time>2021-03-28T06:50:03Z</time>
      </trkpt>
      <trkpt lat="42.86064" lon="2.87698">
        <ele>167.8</ele>
        <time>2021-03-28T06:50:03Z</time>
      </trkpt>
      <trkpt lat="42.86068" lon="2.87708">
        <ele>167.8</ele>
        <time>2021-03-28T06:50:04Z</time>
      </trkpt>
      <trkpt lat="42.86068" lon="2.87708">
        <ele>167.8</ele>
        <time>2021-03-28T06:50:04Z</time>
      </trkpt>
      <trkpt lat="42.86072" lon="2.87718">
        <ele>168</ele>
        <time>2021-03-28T06:50:06Z</time>
      </trkpt>
      <trkpt lat="42.86072" lon="2.87718">
        <ele>168</ele>
        <time>2021-03-28T06:50:06Z</time>
      </trkpt>
      <trkpt lat="42.86075" lon="2.87727">
        <ele>168.4</ele>
        <time>2021-03-28T06:50:07Z</time>
      </trkpt>
      <trkpt lat="42.86075" lon="2.87727">
        <ele>168.4</ele>
        <time>2021-03-28T06:50:07Z</time>
      </trkpt>
      <trkpt lat="42.86079" lon="2.87736">
        <ele>168.8</ele>
        <time>2021-03-28T06:50:09Z</time>
      </trkpt>
      <trkpt lat="42.86079" lon="2.87736">
        <ele>168.8</ele>
        <time>2021-03-28T06:50:09Z</time>
      </trkpt>
      <trkpt lat="42.86083" lon="2.87744">
        <ele>169.1</ele>
        <time>2021-03-28T06:50:11Z</time>
      </trkpt>
      <trkpt lat="42.86083" lon="2.87744">
        <ele>169.1</ele>
        <time>2021-03-28T06:50:11Z</time>
      </trkpt>
      <trkpt lat="42.86087" lon="2.87753">
        <ele>169.1</ele>
        <time>2021-03-28T06:50:13Z</time>
      </trkpt>
      <trkpt lat="42.86087" lon="2.87753">
        <ele>169.1</ele>
        <time>2021-03-28T06:50:13Z</time>
      </trkpt>
      <trkpt lat="42.8609" lon="2.8776">
        <ele>169.2</ele>
        <time>2021-03-28T06:50:14Z</time>
      </trkpt>
      <trkpt lat="42.8609" lon="2.8776">
        <ele>169.2</ele>
        <time>2021-03-28T06:50:14Z</time>
      </trkpt>
      <trkpt lat="42.86094" lon="2.87767">
        <ele>169.4</ele>
        <time>2021-03-28T06:50:15Z</time>
      </trkpt>
      <trkpt lat="42.86094" lon="2.87767">
        <ele>169.4</ele>
        <time>2021-03-28T06:50:15Z</time>
      </trkpt>
      <trkpt lat="42.86098" lon="2.87776">
        <ele>169.5</ele>
        <time>2021-03-28T06:50:17Z</time>
      </trkpt>
      <trkpt lat="42.86098" lon="2.87776">
        <ele>169.5</ele>
        <time>2021-03-28T06:50:17Z</time>
      </trkpt>
      <trkpt lat="42.86102" lon="2.87784">
        <ele>169.5</ele>
        <time>2021-03-28T06:50:18Z</time>
      </trkpt>
      <trkpt lat="42.86102" lon="2.87784">
        <ele>169.5</ele>
        <time>2021-03-28T06:50:18Z</time>
      </trkpt>
      <trkpt lat="42.86105" lon="2.8779">
        <ele>169.6</ele>
        <time>2021-03-28T06:50:19Z</time>
      </trkpt>
      <trkpt lat="42.86105" lon="2.8779">
        <ele>169.6</ele>
        <time>2021-03-28T06:50:19Z</time>
      </trkpt>
      <trkpt lat="42.86108" lon="2.87796">
        <ele>169.8</ele>
        <time>2021-03-28T06:50:20Z</time>
      </trkpt>
      <trkpt lat="42.86108" lon="2.87796">
        <ele>169.8</ele>
        <time>2021-03-28T06:50:20Z</time>
      </trkpt>
      <trkpt lat="42.86112" lon="2.87804">
        <ele>170</ele>
        <time>2021-03-28T06:50:22Z</time>
      </trkpt>
      <trkpt lat="42.86112" lon="2.87804">
        <ele>170</ele>
        <time>2021-03-28T06:50:22Z</time>
      </trkpt>
      <trkpt lat="42.86116" lon="2.87811">
        <ele>170.2</ele>
        <time>2021-03-28T06:50:23Z</time>
      </trkpt>
      <trkpt lat="42.86116" lon="2.87811">
        <ele>170.2</ele>
        <time>2021-03-28T06:50:23Z</time>
      </trkpt>
      <trkpt lat="42.8612" lon="2.87818">
        <ele>170.3</ele>
        <time>2021-03-28T06:50:25Z</time>
      </trkpt>
      <trkpt lat="42.8612" lon="2.87818">
        <ele>170.3</ele>
        <time>2021-03-28T06:50:25Z</time>
      </trkpt>
      <trkpt lat="42.86123" lon="2.87824">
        <ele>170.4</ele>
        <time>2021-03-28T06:50:26Z</time>
      </trkpt>
      <trkpt lat="42.86123" lon="2.87824">
        <ele>170.4</ele>
        <time>2021-03-28T06:50:26Z</time>
      </trkpt>
      <trkpt lat="42.86126" lon="2.8783">
        <ele>170.5</ele>
        <time>2021-03-28T06:50:28Z</time>
      </trkpt>
      <trkpt lat="42.86126" lon="2.8783">
        <ele>170.5</ele>
        <time>2021-03-28T06:50:28Z</time>
      </trkpt>
      <trkpt lat="42.86129" lon="2.87834">
        <ele>170.7</ele>
        <time>2021-03-28T06:50:29Z</time>
      </trkpt>
      <trkpt lat="42.86129" lon="2.87834">
        <ele>170.7</ele>
        <time>2021-03-28T06:50:29Z</time>
      </trkpt>
      <trkpt lat="42.86131" lon="2.87837">
        <ele>170.8</ele>
        <time>2021-03-28T06:50:30Z</time>
      </trkpt>
      <trkpt lat="42.86131" lon="2.87837">
        <ele>170.8</ele>
        <time>2021-03-28T06:50:30Z</time>
      </trkpt>
      <trkpt lat="42.86133" lon="2.87841">
        <ele>170.9</ele>
        <time>2021-03-28T06:50:32Z</time>
      </trkpt>
      <trkpt lat="42.86133" lon="2.87841">
        <ele>170.9</ele>
        <time>2021-03-28T06:50:32Z</time>
      </trkpt>
      <trkpt lat="42.86136" lon="2.87846">
        <ele>170.9</ele>
        <time>2021-03-28T06:50:34Z</time>
      </trkpt>
      <trkpt lat="42.86136" lon="2.87846">
        <ele>170.9</ele>
        <time>2021-03-28T06:50:34Z</time>
      </trkpt>
      <trkpt lat="42.8614" lon="2.87851">
        <ele>171</ele>
        <time>2021-03-28T06:50:36Z</time>
      </trkpt>
      <trkpt lat="42.8614" lon="2.87851">
        <ele>171</ele>
        <time>2021-03-28T06:50:36Z</time>
      </trkpt>
      <trkpt lat="42.86146" lon="2.87857">
        <ele>171</ele>
        <time>2021-03-28T06:50:38Z</time>
      </trkpt>
      <trkpt lat="42.86146" lon="2.87857">
        <ele>171</ele>
        <time>2021-03-28T06:50:38Z</time>
      </trkpt>
      <trkpt lat="42.86151" lon="2.87862">
        <ele>171</ele>
        <time>2021-03-28T06:50:39Z</time>
      </trkpt>
      <trkpt lat="42.86151" lon="2.87862">
        <ele>171</ele>
        <time>2021-03-28T06:50:39Z</time>
      </trkpt>
      <trkpt lat="42.86156" lon="2.87866">
        <ele>171.1</ele>
        <time>2021-03-28T06:50:41Z</time>
      </trkpt>
      <trkpt lat="42.86156" lon="2.87866">
        <ele>171.1</ele>
        <time>2021-03-28T06:50:41Z</time>
      </trkpt>
      <trkpt lat="42.86163" lon="2.8787">
        <ele>171</ele>
        <time>2021-03-28T06:50:43Z</time>
      </trkpt>
      <trkpt lat="42.86163" lon="2.8787">
        <ele>171</ele>
        <time>2021-03-28T06:50:43Z</time>
      </trkpt>
      <trkpt lat="42.86173" lon="2.87873">
        <ele>170.8</ele>
        <time>2021-03-28T06:50:45Z</time>
      </trkpt>
      <trkpt lat="42.86173" lon="2.87873">
        <ele>170.8</ele>
        <time>2021-03-28T06:50:45Z</time>
      </trkpt>
      <trkpt lat="42.86181" lon="2.87875">
        <ele>170.5</ele>
        <time>2021-03-28T06:50:46Z</time>
      </trkpt>
      <trkpt lat="42.86181" lon="2.87875">
        <ele>170.5</ele>
        <time>2021-03-28T06:50:46Z</time>
      </trkpt>
      <trkpt lat="42.86189" lon="2.87876">
        <ele>170.2</ele>
        <time>2021-03-28T06:50:47Z</time>
      </trkpt>
      <trkpt lat="42.86189" lon="2.87876">
        <ele>170.2</ele>
        <time>2021-03-28T06:50:47Z</time>
      </trkpt>
      <trkpt lat="42.86198" lon="2.87876">
        <ele>169.8</ele>
        <time>2021-03-28T06:50:49Z</time>
      </trkpt>
      <trkpt lat="42.86198" lon="2.87876">
        <ele>169.8</ele>
        <time>2021-03-28T06:50:49Z</time>
      </trkpt>
      <trkpt lat="42.86206" lon="2.87876">
        <ele>169.2</ele>
        <time>2021-03-28T06:50:50Z</time>
      </trkpt>
      <trkpt lat="42.86206" lon="2.87876">
        <ele>169.2</ele>
        <time>2021-03-28T06:50:50Z</time>
      </trkpt>
      <trkpt lat="42.86214" lon="2.87875">
        <ele>168.6</ele>
        <time>2021-03-28T06:50:51Z</time>
      </trkpt>
      <trkpt lat="42.86214" lon="2.87875">
        <ele>168.6</ele>
        <time>2021-03-28T06:50:51Z</time>
      </trkpt>
      <trkpt lat="42.86224" lon="2.87872">
        <ele>167.9</ele>
        <time>2021-03-28T06:50:53Z</time>
      </trkpt>
      <trkpt lat="42.86224" lon="2.87872">
        <ele>167.9</ele>
        <time>2021-03-28T06:50:53Z</time>
      </trkpt>
      <trkpt lat="42.86233" lon="2.87868">
        <ele>167.3</ele>
        <time>2021-03-28T06:50:54Z</time>
      </trkpt>
      <trkpt lat="42.86233" lon="2.87868">
        <ele>167.3</ele>
        <time>2021-03-28T06:50:54Z</time>
      </trkpt>
      <trkpt lat="42.8624" lon="2.87864">
        <ele>166.7</ele>
        <time>2021-03-28T06:50:55Z</time>
      </trkpt>
      <trkpt lat="42.8624" lon="2.87864">
        <ele>166.7</ele>
        <time>2021-03-28T06:50:55Z</time>
      </trkpt>
      <trkpt lat="42.86248" lon="2.87859">
        <ele>166.2</ele>
        <time>2021-03-28T06:50:56Z</time>
      </trkpt>
      <trkpt lat="42.86248" lon="2.87859">
        <ele>166.2</ele>
        <time>2021-03-28T06:50:56Z</time>
      </trkpt>
      <trkpt lat="42.86256" lon="2.87852">
        <ele>165.8</ele>
        <time>2021-03-28T06:50:58Z</time>
      </trkpt>
      <trkpt lat="42.86256" lon="2.87852">
        <ele>165.8</ele>
        <time>2021-03-28T06:50:58Z</time>
      </trkpt>
      <trkpt lat="42.86265" lon="2.87842">
        <ele>165.5</ele>
        <time>2021-03-28T06:51:00Z</time>
      </trkpt>
      <trkpt lat="42.86265" lon="2.87842">
        <ele>165.5</ele>
        <time>2021-03-28T06:51:00Z</time>
      </trkpt>
      <trkpt lat="42.86273" lon="2.8783">
        <ele>165</ele>
        <time>2021-03-28T06:51:02Z</time>
      </trkpt>
      <trkpt lat="42.86273" lon="2.8783">
        <ele>165</ele>
        <time>2021-03-28T06:51:02Z</time>
      </trkpt>
      <trkpt lat="42.8628" lon="2.87819">
        <ele>164.3</ele>
        <time>2021-03-28T06:51:03Z</time>
      </trkpt>
      <trkpt lat="42.8628" lon="2.87819">
        <ele>164.3</ele>
        <time>2021-03-28T06:51:03Z</time>
      </trkpt>
      <trkpt lat="42.86286" lon="2.87808">
        <ele>163.8</ele>
        <time>2021-03-28T06:51:04Z</time>
      </trkpt>
      <trkpt lat="42.86286" lon="2.87808">
        <ele>163.8</ele>
        <time>2021-03-28T06:51:04Z</time>
      </trkpt>
      <trkpt lat="42.86292" lon="2.87795">
        <ele>163.3</ele>
        <time>2021-03-28T06:51:06Z</time>
      </trkpt>
      <trkpt lat="42.86292" lon="2.87795">
        <ele>163.3</ele>
        <time>2021-03-28T06:51:06Z</time>
      </trkpt>
      <trkpt lat="42.86297" lon="2.8778">
        <ele>162.7</ele>
        <time>2021-03-28T06:51:08Z</time>
      </trkpt>
      <trkpt lat="42.86297" lon="2.8778">
        <ele>162.7</ele>
        <time>2021-03-28T06:51:08Z</time>
      </trkpt>
      <trkpt lat="42.86302" lon="2.87762">
        <ele>161.7</ele>
        <time>2021-03-28T06:51:10Z</time>
      </trkpt>
      <trkpt lat="42.86302" lon="2.87762">
        <ele>161.7</ele>
        <time>2021-03-28T06:51:10Z</time>
      </trkpt>
      <trkpt lat="42.86308" lon="2.87744">
        <ele>160.8</ele>
        <time>2021-03-28T06:51:12Z</time>
      </trkpt>
      <trkpt lat="42.86308" lon="2.87744">
        <ele>160.8</ele>
        <time>2021-03-28T06:51:12Z</time>
      </trkpt>
      <trkpt lat="42.86312" lon="2.87724">
        <ele>160.3</ele>
        <time>2021-03-28T06:51:14Z</time>
      </trkpt>
      <trkpt lat="42.86312" lon="2.87724">
        <ele>160.3</ele>
        <time>2021-03-28T06:51:14Z</time>
      </trkpt>
      <trkpt lat="42.86316" lon="2.87707">
        <ele>159.8</ele>
        <time>2021-03-28T06:51:15Z</time>
      </trkpt>
      <trkpt lat="42.86316" lon="2.87707">
        <ele>159.8</ele>
        <time>2021-03-28T06:51:15Z</time>
      </trkpt>
      <trkpt lat="42.8632" lon="2.87692">
        <ele>159.4</ele>
        <time>2021-03-28T06:51:16Z</time>
      </trkpt>
      <trkpt lat="42.8632" lon="2.87692">
        <ele>159.4</ele>
        <time>2021-03-28T06:51:16Z</time>
      </trkpt>
      <trkpt lat="42.86324" lon="2.87674">
        <ele>158.5</ele>
        <time>2021-03-28T06:51:18Z</time>
      </trkpt>
      <trkpt lat="42.86324" lon="2.87674">
        <ele>158.5</ele>
        <time>2021-03-28T06:51:18Z</time>
      </trkpt>
      <trkpt lat="42.86328" lon="2.87659">
        <ele>157.7</ele>
        <time>2021-03-28T06:51:19Z</time>
      </trkpt>
      <trkpt lat="42.86328" lon="2.87659">
        <ele>157.7</ele>
        <time>2021-03-28T06:51:19Z</time>
      </trkpt>
      <trkpt lat="42.86332" lon="2.87645">
        <ele>157.1</ele>
        <time>2021-03-28T06:51:20Z</time>
      </trkpt>
      <trkpt lat="42.86332" lon="2.87645">
        <ele>157.1</ele>
        <time>2021-03-28T06:51:20Z</time>
      </trkpt>
      <trkpt lat="42.86339" lon="2.87631">
        <ele>156.4</ele>
        <time>2021-03-28T06:51:22Z</time>
      </trkpt>
      <trkpt lat="42.86339" lon="2.87631">
        <ele>156.4</ele>
        <time>2021-03-28T06:51:22Z</time>
      </trkpt>
      <trkpt lat="42.86346" lon="2.87619">
        <ele>155.6</ele>
        <time>2021-03-28T06:51:23Z</time>
      </trkpt>
      <trkpt lat="42.86346" lon="2.87619">
        <ele>155.6</ele>
        <time>2021-03-28T06:51:23Z</time>
      </trkpt>
      <trkpt lat="42.86355" lon="2.87607">
        <ele>154.8</ele>
        <time>2021-03-28T06:51:25Z</time>
      </trkpt>
      <trkpt lat="42.86355" lon="2.87607">
        <ele>154.8</ele>
        <time>2021-03-28T06:51:25Z</time>
      </trkpt>
      <trkpt lat="42.86364" lon="2.87597">
        <ele>154.5</ele>
        <time>2021-03-28T06:51:26Z</time>
      </trkpt>
      <trkpt lat="42.86364" lon="2.87597">
        <ele>154.5</ele>
        <time>2021-03-28T06:51:26Z</time>
      </trkpt>
      <trkpt lat="42.86374" lon="2.87587">
        <ele>154.5</ele>
        <time>2021-03-28T06:51:28Z</time>
      </trkpt>
      <trkpt lat="42.86374" lon="2.87587">
        <ele>154.5</ele>
        <time>2021-03-28T06:51:28Z</time>
      </trkpt>
      <trkpt lat="42.86385" lon="2.87577">
        <ele>154.3</ele>
        <time>2021-03-28T06:51:30Z</time>
      </trkpt>
      <trkpt lat="42.86385" lon="2.87577">
        <ele>154.3</ele>
        <time>2021-03-28T06:51:30Z</time>
      </trkpt>
      <trkpt lat="42.86397" lon="2.87568">
        <ele>154.6</ele>
        <time>2021-03-28T06:51:32Z</time>
      </trkpt>
      <trkpt lat="42.86397" lon="2.87568">
        <ele>154.6</ele>
        <time>2021-03-28T06:51:32Z</time>
      </trkpt>
      <trkpt lat="42.86406" lon="2.8756">
        <ele>154.9</ele>
        <time>2021-03-28T06:51:33Z</time>
      </trkpt>
      <trkpt lat="42.86406" lon="2.8756">
        <ele>154.9</ele>
        <time>2021-03-28T06:51:33Z</time>
      </trkpt>
      <trkpt lat="42.86417" lon="2.87552">
        <ele>155</ele>
        <time>2021-03-28T06:51:35Z</time>
      </trkpt>
      <trkpt lat="42.86417" lon="2.87552">
        <ele>155</ele>
        <time>2021-03-28T06:51:35Z</time>
      </trkpt>
      <trkpt lat="42.86425" lon="2.87545">
        <ele>154.8</ele>
        <time>2021-03-28T06:51:36Z</time>
      </trkpt>
      <trkpt lat="42.86425" lon="2.87545">
        <ele>154.8</ele>
        <time>2021-03-28T06:51:36Z</time>
      </trkpt>
      <trkpt lat="42.86433" lon="2.87539">
        <ele>154.8</ele>
        <time>2021-03-28T06:51:37Z</time>
      </trkpt>
      <trkpt lat="42.86433" lon="2.87539">
        <ele>154.8</ele>
        <time>2021-03-28T06:51:37Z</time>
      </trkpt>
      <trkpt lat="42.86442" lon="2.87532">
        <ele>154.9</ele>
        <time>2021-03-28T06:51:39Z</time>
      </trkpt>
      <trkpt lat="42.86442" lon="2.87532">
        <ele>154.9</ele>
        <time>2021-03-28T06:51:39Z</time>
      </trkpt>
      <trkpt lat="42.86451" lon="2.87525">
        <ele>154.8</ele>
        <time>2021-03-28T06:51:41Z</time>
      </trkpt>
      <trkpt lat="42.86451" lon="2.87525">
        <ele>154.8</ele>
        <time>2021-03-28T06:51:41Z</time>
      </trkpt>
      <trkpt lat="42.86459" lon="2.87519">
        <ele>154.6</ele>
        <time>2021-03-28T06:51:42Z</time>
      </trkpt>
      <trkpt lat="42.86459" lon="2.87519">
        <ele>154.6</ele>
        <time>2021-03-28T06:51:42Z</time>
      </trkpt>
      <trkpt lat="42.86467" lon="2.87513">
        <ele>154.6</ele>
        <time>2021-03-28T06:51:44Z</time>
      </trkpt>
      <trkpt lat="42.86467" lon="2.87513">
        <ele>154.6</ele>
        <time>2021-03-28T06:51:44Z</time>
      </trkpt>
      <trkpt lat="42.86474" lon="2.87507">
        <ele>154.7</ele>
        <time>2021-03-28T06:51:45Z</time>
      </trkpt>
      <trkpt lat="42.86474" lon="2.87507">
        <ele>154.7</ele>
        <time>2021-03-28T06:51:45Z</time>
      </trkpt>
      <trkpt lat="42.8648" lon="2.87503">
        <ele>154.6</ele>
        <time>2021-03-28T06:51:46Z</time>
      </trkpt>
      <trkpt lat="42.8648" lon="2.87503">
        <ele>154.6</ele>
        <time>2021-03-28T06:51:46Z</time>
      </trkpt>
      <trkpt lat="42.86485" lon="2.87501">
        <ele>154.5</ele>
        <time>2021-03-28T06:51:47Z</time>
      </trkpt>
      <trkpt lat="42.86485" lon="2.87501">
        <ele>154.5</ele>
        <time>2021-03-28T06:51:47Z</time>
      </trkpt>
      <trkpt lat="42.8649" lon="2.875">
        <ele>154.4</ele>
        <time>2021-03-28T06:51:48Z</time>
      </trkpt>
      <trkpt lat="42.8649" lon="2.875">
        <ele>154.4</ele>
        <time>2021-03-28T06:51:48Z</time>
      </trkpt>
      <trkpt lat="42.86494" lon="2.87502">
        <ele>154.2</ele>
        <time>2021-03-28T06:51:49Z</time>
      </trkpt>
      <trkpt lat="42.86494" lon="2.87502">
        <ele>154.2</ele>
        <time>2021-03-28T06:51:49Z</time>
      </trkpt>
      <trkpt lat="42.865" lon="2.87506">
        <ele>154</ele>
        <time>2021-03-28T06:51:51Z</time>
      </trkpt>
      <trkpt lat="42.865" lon="2.87506">
        <ele>154</ele>
        <time>2021-03-28T06:51:51Z</time>
      </trkpt>
      <trkpt lat="42.86506" lon="2.87512">
        <ele>154</ele>
        <time>2021-03-28T06:51:53Z</time>
      </trkpt>
      <trkpt lat="42.86506" lon="2.87512">
        <ele>154</ele>
        <time>2021-03-28T06:51:53Z</time>
      </trkpt>
      <trkpt lat="42.86513" lon="2.8752">
        <ele>154</ele>
        <time>2021-03-28T06:51:55Z</time>
      </trkpt>
      <trkpt lat="42.86513" lon="2.8752">
        <ele>154</ele>
        <time>2021-03-28T06:51:55Z</time>
      </trkpt>
      <trkpt lat="42.86521" lon="2.87529">
        <ele>154</ele>
        <time>2021-03-28T06:51:57Z</time>
      </trkpt>
      <trkpt lat="42.86521" lon="2.87529">
        <ele>154</ele>
        <time>2021-03-28T06:51:57Z</time>
      </trkpt>
      <trkpt lat="42.86528" lon="2.87536">
        <ele>153.7</ele>
        <time>2021-03-28T06:51:58Z</time>
      </trkpt>
      <trkpt lat="42.86528" lon="2.87536">
        <ele>153.7</ele>
        <time>2021-03-28T06:51:58Z</time>
      </trkpt>
      <trkpt lat="42.86534" lon="2.87543">
        <ele>153.6</ele>
        <time>2021-03-28T06:51:59Z</time>
      </trkpt>
      <trkpt lat="42.86534" lon="2.87543">
        <ele>153.6</ele>
        <time>2021-03-28T06:51:59Z</time>
      </trkpt>
      <trkpt lat="42.8654" lon="2.87548">
        <ele>153.6</ele>
        <time>2021-03-28T06:52:00Z</time>
      </trkpt>
      <trkpt lat="42.8654" lon="2.87548">
        <ele>153.6</ele>
        <time>2021-03-28T06:52:00Z</time>
      </trkpt>
      <trkpt lat="42.86547" lon="2.87555">
        <ele>153.7</ele>
        <time>2021-03-28T06:52:02Z</time>
      </trkpt>
      <trkpt lat="42.86547" lon="2.87555">
        <ele>153.7</ele>
        <time>2021-03-28T06:52:02Z</time>
      </trkpt>
      <trkpt lat="42.86554" lon="2.87563">
        <ele>154</ele>
        <time>2021-03-28T06:52:04Z</time>
      </trkpt>
      <trkpt lat="42.86554" lon="2.87563">
        <ele>154</ele>
        <time>2021-03-28T06:52:04Z</time>
      </trkpt>
      <trkpt lat="42.86563" lon="2.8757">
        <ele>154</ele>
        <time>2021-03-28T06:52:06Z</time>
      </trkpt>
      <trkpt lat="42.86563" lon="2.8757">
        <ele>154</ele>
        <time>2021-03-28T06:52:06Z</time>
      </trkpt>
      <trkpt lat="42.86572" lon="2.87578">
        <ele>154</ele>
        <time>2021-03-28T06:52:08Z</time>
      </trkpt>
      <trkpt lat="42.86572" lon="2.87578">
        <ele>154</ele>
        <time>2021-03-28T06:52:08Z</time>
      </trkpt>
      <trkpt lat="42.8658" lon="2.87585">
        <ele>153.9</ele>
        <time>2021-03-28T06:52:09Z</time>
      </trkpt>
      <trkpt lat="42.8658" lon="2.87585">
        <ele>153.9</ele>
        <time>2021-03-28T06:52:09Z</time>
      </trkpt>
      <trkpt lat="42.86588" lon="2.87591">
        <ele>153.8</ele>
        <time>2021-03-28T06:52:11Z</time>
      </trkpt>
      <trkpt lat="42.86588" lon="2.87591">
        <ele>153.8</ele>
        <time>2021-03-28T06:52:11Z</time>
      </trkpt>
      <trkpt lat="42.86597" lon="2.87597">
        <ele>153.8</ele>
        <time>2021-03-28T06:52:13Z</time>
      </trkpt>
      <trkpt lat="42.86597" lon="2.87597">
        <ele>153.8</ele>
        <time>2021-03-28T06:52:13Z</time>
      </trkpt>
      <trkpt lat="42.86606" lon="2.87603">
        <ele>153.9</ele>
        <time>2021-03-28T06:52:15Z</time>
      </trkpt>
      <trkpt lat="42.86606" lon="2.87603">
        <ele>153.9</ele>
        <time>2021-03-28T06:52:15Z</time>
      </trkpt>
      <trkpt lat="42.86615" lon="2.87609">
        <ele>154.1</ele>
        <time>2021-03-28T06:52:17Z</time>
      </trkpt>
      <trkpt lat="42.86615" lon="2.87609">
        <ele>154.1</ele>
        <time>2021-03-28T06:52:17Z</time>
      </trkpt>
      <trkpt lat="42.86624" lon="2.87616">
        <ele>154.3</ele>
        <time>2021-03-28T06:52:19Z</time>
      </trkpt>
      <trkpt lat="42.86624" lon="2.87616">
        <ele>154.3</ele>
        <time>2021-03-28T06:52:19Z</time>
      </trkpt>
      <trkpt lat="42.86632" lon="2.87624">
        <ele>154.3</ele>
        <time>2021-03-28T06:52:21Z</time>
      </trkpt>
      <trkpt lat="42.86632" lon="2.87624">
        <ele>154.3</ele>
        <time>2021-03-28T06:52:21Z</time>
      </trkpt>
      <trkpt lat="42.8664" lon="2.87632">
        <ele>154.3</ele>
        <time>2021-03-28T06:52:23Z</time>
      </trkpt>
      <trkpt lat="42.8664" lon="2.87632">
        <ele>154.3</ele>
        <time>2021-03-28T06:52:23Z</time>
      </trkpt>
      <trkpt lat="42.86648" lon="2.87641">
        <ele>154.3</ele>
        <time>2021-03-28T06:52:25Z</time>
      </trkpt>
      <trkpt lat="42.86648" lon="2.87641">
        <ele>154.3</ele>
        <time>2021-03-28T06:52:25Z</time>
      </trkpt>
      <trkpt lat="42.86656" lon="2.87649">
        <ele>154.6</ele>
        <time>2021-03-28T06:52:27Z</time>
      </trkpt>
      <trkpt lat="42.86656" lon="2.87649">
        <ele>154.6</ele>
        <time>2021-03-28T06:52:27Z</time>
      </trkpt>
      <trkpt lat="42.86664" lon="2.87656">
        <ele>154.9</ele>
        <time>2021-03-28T06:52:29Z</time>
      </trkpt>
      <trkpt lat="42.86664" lon="2.87656">
        <ele>154.9</ele>
        <time>2021-03-28T06:52:29Z</time>
      </trkpt>
      <trkpt lat="42.86671" lon="2.87663">
        <ele>155.2</ele>
        <time>2021-03-28T06:52:30Z</time>
      </trkpt>
      <trkpt lat="42.86671" lon="2.87663">
        <ele>155.2</ele>
        <time>2021-03-28T06:52:30Z</time>
      </trkpt>
      <trkpt lat="42.86678" lon="2.8767">
        <ele>155.4</ele>
        <time>2021-03-28T06:52:32Z</time>
      </trkpt>
      <trkpt lat="42.86678" lon="2.8767">
        <ele>155.4</ele>
        <time>2021-03-28T06:52:32Z</time>
      </trkpt>
      <trkpt lat="42.86684" lon="2.87676">
        <ele>155.4</ele>
        <time>2021-03-28T06:52:33Z</time>
      </trkpt>
      <trkpt lat="42.86684" lon="2.87676">
        <ele>155.4</ele>
        <time>2021-03-28T06:52:33Z</time>
      </trkpt>
      <trkpt lat="42.8669" lon="2.87683">
        <ele>155.4</ele>
        <time>2021-03-28T06:52:35Z</time>
      </trkpt>
      <trkpt lat="42.8669" lon="2.87683">
        <ele>155.4</ele>
        <time>2021-03-28T06:52:35Z</time>
      </trkpt>
      <trkpt lat="42.86697" lon="2.87691">
        <ele>155.2</ele>
        <time>2021-03-28T06:52:37Z</time>
      </trkpt>
      <trkpt lat="42.86697" lon="2.87691">
        <ele>155.2</ele>
        <time>2021-03-28T06:52:37Z</time>
      </trkpt>
      <trkpt lat="42.86703" lon="2.87698">
        <ele>155.3</ele>
        <time>2021-03-28T06:52:39Z</time>
      </trkpt>
      <trkpt lat="42.86703" lon="2.87698">
        <ele>155.3</ele>
        <time>2021-03-28T06:52:39Z</time>
      </trkpt>
      <trkpt lat="42.8671" lon="2.87707">
        <ele>155.6</ele>
        <time>2021-03-28T06:52:41Z</time>
      </trkpt>
      <trkpt lat="42.8671" lon="2.87707">
        <ele>155.6</ele>
        <time>2021-03-28T06:52:41Z</time>
      </trkpt>
      <trkpt lat="42.86716" lon="2.87713">
        <ele>155.8</ele>
        <time>2021-03-28T06:52:42Z</time>
      </trkpt>
      <trkpt lat="42.86716" lon="2.87713">
        <ele>155.8</ele>
        <time>2021-03-28T06:52:42Z</time>
      </trkpt>
      <trkpt lat="42.86722" lon="2.87719">
        <ele>156</ele>
        <time>2021-03-28T06:52:43Z</time>
      </trkpt>
      <trkpt lat="42.86722" lon="2.87719">
        <ele>156</ele>
        <time>2021-03-28T06:52:43Z</time>
      </trkpt>
      <trkpt lat="42.86727" lon="2.87726">
        <ele>155.9</ele>
        <time>2021-03-28T06:52:45Z</time>
      </trkpt>
      <trkpt lat="42.86727" lon="2.87726">
        <ele>155.9</ele>
        <time>2021-03-28T06:52:45Z</time>
      </trkpt>
      <trkpt lat="42.86733" lon="2.87733">
        <ele>155.8</ele>
        <time>2021-03-28T06:52:46Z</time>
      </trkpt>
      <trkpt lat="42.86733" lon="2.87733">
        <ele>155.8</ele>
        <time>2021-03-28T06:52:46Z</time>
      </trkpt>
      <trkpt lat="42.86738" lon="2.87742">
        <ele>155.7</ele>
        <time>2021-03-28T06:52:48Z</time>
      </trkpt>
      <trkpt lat="42.86738" lon="2.87742">
        <ele>155.7</ele>
        <time>2021-03-28T06:52:48Z</time>
      </trkpt>
      <trkpt lat="42.86745" lon="2.87751">
        <ele>155.8</ele>
        <time>2021-03-28T06:52:50Z</time>
      </trkpt>
      <trkpt lat="42.86745" lon="2.87751">
        <ele>155.8</ele>
        <time>2021-03-28T06:52:50Z</time>
      </trkpt>
      <trkpt lat="42.86751" lon="2.87759">
        <ele>155.7</ele>
        <time>2021-03-28T06:52:52Z</time>
      </trkpt>
      <trkpt lat="42.86751" lon="2.87759">
        <ele>155.7</ele>
        <time>2021-03-28T06:52:52Z</time>
      </trkpt>
      <trkpt lat="42.86757" lon="2.87766">
        <ele>155.6</ele>
        <time>2021-03-28T06:52:53Z</time>
      </trkpt>
      <trkpt lat="42.86757" lon="2.87766">
        <ele>155.6</ele>
        <time>2021-03-28T06:52:53Z</time>
      </trkpt>
      <trkpt lat="42.86763" lon="2.87773">
        <ele>155.6</ele>
        <time>2021-03-28T06:52:55Z</time>
      </trkpt>
      <trkpt lat="42.86763" lon="2.87773">
        <ele>155.6</ele>
        <time>2021-03-28T06:52:55Z</time>
      </trkpt>
      <trkpt lat="42.86771" lon="2.8778">
        <ele>155.7</ele>
        <time>2021-03-28T06:52:57Z</time>
      </trkpt>
      <trkpt lat="42.86771" lon="2.8778">
        <ele>155.7</ele>
        <time>2021-03-28T06:52:57Z</time>
      </trkpt>
      <trkpt lat="42.86778" lon="2.87787">
        <ele>155.7</ele>
        <time>2021-03-28T06:52:59Z</time>
      </trkpt>
      <trkpt lat="42.86778" lon="2.87787">
        <ele>155.7</ele>
        <time>2021-03-28T06:52:59Z</time>
      </trkpt>
      <trkpt lat="42.86785" lon="2.87793">
        <ele>155.4</ele>
        <time>2021-03-28T06:53:00Z</time>
      </trkpt>
      <trkpt lat="42.86785" lon="2.87793">
        <ele>155.4</ele>
        <time>2021-03-28T06:53:00Z</time>
      </trkpt>
      <trkpt lat="42.86791" lon="2.87801">
        <ele>155.2</ele>
        <time>2021-03-28T06:53:02Z</time>
      </trkpt>
      <trkpt lat="42.86791" lon="2.87801">
        <ele>155.2</ele>
        <time>2021-03-28T06:53:02Z</time>
      </trkpt>
      <trkpt lat="42.86797" lon="2.87807">
        <ele>155</ele>
        <time>2021-03-28T06:53:03Z</time>
      </trkpt>
      <trkpt lat="42.86797" lon="2.87807">
        <ele>155</ele>
        <time>2021-03-28T06:53:03Z</time>
      </trkpt>
      <trkpt lat="42.86803" lon="2.87814">
        <ele>155</ele>
        <time>2021-03-28T06:53:05Z</time>
      </trkpt>
      <trkpt lat="42.86803" lon="2.87814">
        <ele>155</ele>
        <time>2021-03-28T06:53:05Z</time>
      </trkpt>
      <trkpt lat="42.86809" lon="2.87821">
        <ele>155.1</ele>
        <time>2021-03-28T06:53:07Z</time>
      </trkpt>
      <trkpt lat="42.86809" lon="2.87821">
        <ele>155.1</ele>
        <time>2021-03-28T06:53:07Z</time>
      </trkpt>
      <trkpt lat="42.86814" lon="2.87827">
        <ele>155.1</ele>
        <time>2021-03-28T06:53:08Z</time>
      </trkpt>
      <trkpt lat="42.86814" lon="2.87827">
        <ele>155.1</ele>
        <time>2021-03-28T06:53:08Z</time>
      </trkpt>
      <trkpt lat="42.86818" lon="2.87832">
        <ele>155</ele>
        <time>2021-03-28T06:53:09Z</time>
      </trkpt>
      <trkpt lat="42.86818" lon="2.87832">
        <ele>155</ele>
        <time>2021-03-28T06:53:09Z</time>
      </trkpt>
      <trkpt lat="42.86822" lon="2.87838">
        <ele>154.9</ele>
        <time>2021-03-28T06:53:11Z</time>
      </trkpt>
      <trkpt lat="42.86822" lon="2.87838">
        <ele>154.9</ele>
        <time>2021-03-28T06:53:11Z</time>
      </trkpt>
      <trkpt lat="42.86824" lon="2.87843">
        <ele>154.9</ele>
        <time>2021-03-28T06:53:12Z</time>
      </trkpt>
      <trkpt lat="42.86824" lon="2.87843">
        <ele>154.9</ele>
        <time>2021-03-28T06:53:12Z</time>
      </trkpt>
      <trkpt lat="42.86826" lon="2.87848">
        <ele>154.9</ele>
        <time>2021-03-28T06:53:13Z</time>
      </trkpt>
      <trkpt lat="42.86826" lon="2.87848">
        <ele>154.9</ele>
        <time>2021-03-28T06:53:13Z</time>
      </trkpt>
      <trkpt lat="42.86826" lon="2.87854">
        <ele>154.8</ele>
        <time>2021-03-28T06:53:15Z</time>
      </trkpt>
      <trkpt lat="42.86826" lon="2.87854">
        <ele>154.8</ele>
        <time>2021-03-28T06:53:15Z</time>
      </trkpt>
      <trkpt lat="42.86826" lon="2.8786">
        <ele>154.8</ele>
        <time>2021-03-28T06:53:17Z</time>
      </trkpt>
      <trkpt lat="42.86826" lon="2.8786">
        <ele>154.8</ele>
        <time>2021-03-28T06:53:17Z</time>
      </trkpt>
      <trkpt lat="42.86826" lon="2.87865">
        <ele>154.6</ele>
        <time>2021-03-28T06:53:19Z</time>
      </trkpt>
      <trkpt lat="42.86826" lon="2.87865">
        <ele>154.6</ele>
        <time>2021-03-28T06:53:19Z</time>
      </trkpt>
      <trkpt lat="42.86825" lon="2.87871">
        <ele>154.5</ele>
        <time>2021-03-28T06:53:20Z</time>
      </trkpt>
      <trkpt lat="42.86825" lon="2.87871">
        <ele>154.5</ele>
        <time>2021-03-28T06:53:20Z</time>
      </trkpt>
      <trkpt lat="42.86825" lon="2.87874">
        <ele>154.4</ele>
        <time>2021-03-28T06:53:21Z</time>
      </trkpt>
      <trkpt lat="42.86825" lon="2.87874">
        <ele>154.4</ele>
        <time>2021-03-28T06:53:21Z</time>
      </trkpt>
      <trkpt lat="42.86825" lon="2.87877">
        <ele>154.3</ele>
        <time>2021-03-28T06:53:22Z</time>
      </trkpt>
      <trkpt lat="42.86825" lon="2.87877">
        <ele>154.3</ele>
        <time>2021-03-28T06:53:22Z</time>
      </trkpt>
      <trkpt lat="42.86825" lon="2.87878">
        <ele>154.3</ele>
        <time>2021-03-28T06:53:24Z</time>
      </trkpt>
      <trkpt lat="42.86825" lon="2.87878">
        <ele>154.3</ele>
        <time>2021-03-28T06:53:24Z</time>
      </trkpt>
      <trkpt lat="42.86825" lon="2.87879">
        <ele>154.2</ele>
        <time>2021-03-28T06:53:25Z</time>
      </trkpt>
      <trkpt lat="42.86825" lon="2.87879">
        <ele>154.2</ele>
        <time>2021-03-28T06:53:25Z</time>
      </trkpt>
      <trkpt lat="42.86823" lon="2.87891">
        <ele>154</ele>
        <time>2021-03-28T06:53:33Z</time>
      </trkpt>
      <trkpt lat="42.86823" lon="2.87891">
        <ele>154</ele>
        <time>2021-03-28T06:53:33Z</time>
      </trkpt>
      <trkpt lat="42.86823" lon="2.87891">
        <ele>154</ele>
        <time>2021-03-28T06:53:35Z</time>
      </trkpt>
      <trkpt lat="42.86823" lon="2.87891">
        <ele>154</ele>
        <time>2021-03-28T06:53:35Z</time>
      </trkpt>
      <trkpt lat="42.86823" lon="2.87891">
        <ele>154</ele>
        <time>2021-03-28T06:53:37Z</time>
      </trkpt>
      <trkpt lat="42.86823" lon="2.87891">
        <ele>154</ele>
        <time>2021-03-28T06:53:37Z</time>
      </trkpt>
      <trkpt lat="42.86823" lon="2.87892">
        <ele>154</ele>
        <time>2021-03-28T06:53:38Z</time>
      </trkpt>
      <trkpt lat="42.86823" lon="2.87892">
        <ele>154</ele>
        <time>2021-03-28T06:53:38Z</time>
      </trkpt>
      <trkpt lat="42.86824" lon="2.87893">
        <ele>154</ele>
        <time>2021-03-28T06:53:40Z</time>
      </trkpt>
      <trkpt lat="42.86824" lon="2.87893">
        <ele>154</ele>
        <time>2021-03-28T06:53:40Z</time>
      </trkpt>
      <trkpt lat="42.86812" lon="2.87885">
        <ele>154</ele>
        <time>2021-03-28T06:56:16Z</time>
      </trkpt>
      <trkpt lat="42.86812" lon="2.87885">
        <ele>154</ele>
        <time>2021-03-28T06:56:16Z</time>
      </trkpt>
      <trkpt lat="42.86812" lon="2.87884">
        <ele>154</ele>
        <time>2021-03-28T06:56:17Z</time>
      </trkpt>
      <trkpt lat="42.86812" lon="2.87884">
        <ele>154</ele>
        <time>2021-03-28T06:56:17Z</time>
      </trkpt>
      <trkpt lat="42.86812" lon="2.87881">
        <ele>154.1</ele>
        <time>2021-03-28T06:56:19Z</time>
      </trkpt>
      <trkpt lat="42.86812" lon="2.87881">
        <ele>154.1</ele>
        <time>2021-03-28T06:56:19Z</time>
      </trkpt>
      <trkpt lat="42.86812" lon="2.87876">
        <ele>154.1</ele>
        <time>2021-03-28T06:56:21Z</time>
      </trkpt>
      <trkpt lat="42.86812" lon="2.87876">
        <ele>154.1</ele>
        <time>2021-03-28T06:56:21Z</time>
      </trkpt>
      <trkpt lat="42.86813" lon="2.87872">
        <ele>154.2</ele>
        <time>2021-03-28T06:56:22Z</time>
      </trkpt>
      <trkpt lat="42.86813" lon="2.87872">
        <ele>154.2</ele>
        <time>2021-03-28T06:56:22Z</time>
      </trkpt>
      <trkpt lat="42.86813" lon="2.87867">
        <ele>154.2</ele>
        <time>2021-03-28T06:56:24Z</time>
      </trkpt>
      <trkpt lat="42.86813" lon="2.87867">
        <ele>154.2</ele>
        <time>2021-03-28T06:56:24Z</time>
      </trkpt>
      <trkpt lat="42.86814" lon="2.87862">
        <ele>154.3</ele>
        <time>2021-03-28T06:56:26Z</time>
      </trkpt>
      <trkpt lat="42.86814" lon="2.87862">
        <ele>154.3</ele>
        <time>2021-03-28T06:56:26Z</time>
      </trkpt>
      <trkpt lat="42.86815" lon="2.87858">
        <ele>154.4</ele>
        <time>2021-03-28T06:56:27Z</time>
      </trkpt>
      <trkpt lat="42.86815" lon="2.87858">
        <ele>154.4</ele>
        <time>2021-03-28T06:56:27Z</time>
      </trkpt>
      <trkpt lat="42.86815" lon="2.87854">
        <ele>154.5</ele>
        <time>2021-03-28T06:56:29Z</time>
      </trkpt>
      <trkpt lat="42.86815" lon="2.87854">
        <ele>154.5</ele>
        <time>2021-03-28T06:56:29Z</time>
      </trkpt>
      <trkpt lat="42.86816" lon="2.87851">
        <ele>154.6</ele>
        <time>2021-03-28T06:56:30Z</time>
      </trkpt>
      <trkpt lat="42.86816" lon="2.87851">
        <ele>154.6</ele>
        <time>2021-03-28T06:56:30Z</time>
      </trkpt>
      <trkpt lat="42.86818" lon="2.87844">
        <ele>154.8</ele>
        <time>2021-03-28T06:56:32Z</time>
      </trkpt>
      <trkpt lat="42.86818" lon="2.87844">
        <ele>154.8</ele>
        <time>2021-03-28T06:56:32Z</time>
      </trkpt>
      <trkpt lat="42.8682" lon="2.87836">
        <ele>155</ele>
        <time>2021-03-28T06:56:34Z</time>
      </trkpt>
      <trkpt lat="42.8682" lon="2.87836">
        <ele>155</ele>
        <time>2021-03-28T06:56:34Z</time>
      </trkpt>
      <trkpt lat="42.86822" lon="2.87829">
        <ele>155.1</ele>
        <time>2021-03-28T06:56:35Z</time>
      </trkpt>
      <trkpt lat="42.86822" lon="2.87829">
        <ele>155.1</ele>
        <time>2021-03-28T06:56:35Z</time>
      </trkpt>
      <trkpt lat="42.86825" lon="2.87821">
        <ele>155.3</ele>
        <time>2021-03-28T06:56:37Z</time>
      </trkpt>
      <trkpt lat="42.86825" lon="2.87821">
        <ele>155.3</ele>
        <time>2021-03-28T06:56:37Z</time>
      </trkpt>
      <trkpt lat="42.86828" lon="2.87815">
        <ele>155.5</ele>
        <time>2021-03-28T06:56:38Z</time>
      </trkpt>
      <trkpt lat="42.86828" lon="2.87815">
        <ele>155.5</ele>
        <time>2021-03-28T06:56:38Z</time>
      </trkpt>
      <trkpt lat="42.8683" lon="2.87809">
        <ele>155.8</ele>
        <time>2021-03-28T06:56:39Z</time>
      </trkpt>
      <trkpt lat="42.8683" lon="2.87809">
        <ele>155.8</ele>
        <time>2021-03-28T06:56:39Z</time>
      </trkpt>
      <trkpt lat="42.86834" lon="2.87802">
        <ele>156</ele>
        <time>2021-03-28T06:56:41Z</time>
      </trkpt>
      <trkpt lat="42.86834" lon="2.87802">
        <ele>156</ele>
        <time>2021-03-28T06:56:41Z</time>
      </trkpt>
      <trkpt lat="42.86836" lon="2.87796">
        <ele>156</ele>
        <time>2021-03-28T06:56:42Z</time>
      </trkpt>
      <trkpt lat="42.86836" lon="2.87796">
        <ele>156</ele>
        <time>2021-03-28T06:56:42Z</time>
      </trkpt>
      <trkpt lat="42.8684" lon="2.87789">
        <ele>156.1</ele>
        <time>2021-03-28T06:56:44Z</time>
      </trkpt>
      <trkpt lat="42.8684" lon="2.87789">
        <ele>156.1</ele>
        <time>2021-03-28T06:56:44Z</time>
      </trkpt>
      <trkpt lat="42.86844" lon="2.87784">
        <ele>156.3</ele>
        <time>2021-03-28T06:56:45Z</time>
      </trkpt>
      <trkpt lat="42.86844" lon="2.87784">
        <ele>156.3</ele>
        <time>2021-03-28T06:56:45Z</time>
      </trkpt>
      <trkpt lat="42.86848" lon="2.87777">
        <ele>156.5</ele>
        <time>2021-03-28T06:56:47Z</time>
      </trkpt>
      <trkpt lat="42.86848" lon="2.87777">
        <ele>156.5</ele>
        <time>2021-03-28T06:56:47Z</time>
      </trkpt>
      <trkpt lat="42.86853" lon="2.8777">
        <ele>156.8</ele>
        <time>2021-03-28T06:56:49Z</time>
      </trkpt>
      <trkpt lat="42.86853" lon="2.8777">
        <ele>156.8</ele>
        <time>2021-03-28T06:56:49Z</time>
      </trkpt>
      <trkpt lat="42.86857" lon="2.87761">
        <ele>156.9</ele>
        <time>2021-03-28T06:56:51Z</time>
      </trkpt>
      <trkpt lat="42.86857" lon="2.87761">
        <ele>156.9</ele>
        <time>2021-03-28T06:56:51Z</time>
      </trkpt>
      <trkpt lat="42.8686" lon="2.87754">
        <ele>157</ele>
        <time>2021-03-28T06:56:52Z</time>
      </trkpt>
      <trkpt lat="42.8686" lon="2.87754">
        <ele>157</ele>
        <time>2021-03-28T06:56:52Z</time>
      </trkpt>
      <trkpt lat="42.86864" lon="2.87746">
        <ele>157.2</ele>
        <time>2021-03-28T06:56:54Z</time>
      </trkpt>
      <trkpt lat="42.86864" lon="2.87746">
        <ele>157.2</ele>
        <time>2021-03-28T06:56:54Z</time>
      </trkpt>
      <trkpt lat="42.86868" lon="2.87737">
        <ele>157.6</ele>
        <time>2021-03-28T06:56:56Z</time>
      </trkpt>
      <trkpt lat="42.86868" lon="2.87737">
        <ele>157.6</ele>
        <time>2021-03-28T06:56:56Z</time>
      </trkpt>
      <trkpt lat="42.86872" lon="2.87727">
        <ele>157.9</ele>
        <time>2021-03-28T06:56:58Z</time>
      </trkpt>
      <trkpt lat="42.86872" lon="2.87727">
        <ele>157.9</ele>
        <time>2021-03-28T06:56:58Z</time>
      </trkpt>
      <trkpt lat="42.86876" lon="2.87718">
        <ele>158.2</ele>
        <time>2021-03-28T06:57:00Z</time>
      </trkpt>
      <trkpt lat="42.86876" lon="2.87718">
        <ele>158.2</ele>
        <time>2021-03-28T06:57:00Z</time>
      </trkpt>
      <trkpt lat="42.8688" lon="2.87708">
        <ele>158.5</ele>
        <time>2021-03-28T06:57:02Z</time>
      </trkpt>
      <trkpt lat="42.8688" lon="2.87708">
        <ele>158.5</ele>
        <time>2021-03-28T06:57:02Z</time>
      </trkpt>
      <trkpt lat="42.86884" lon="2.87699">
        <ele>158.8</ele>
        <time>2021-03-28T06:57:03Z</time>
      </trkpt>
      <trkpt lat="42.86884" lon="2.87699">
        <ele>158.8</ele>
        <time>2021-03-28T06:57:03Z</time>
      </trkpt>
      <trkpt lat="42.86887" lon="2.8769">
        <ele>159</ele>
        <time>2021-03-28T06:57:05Z</time>
      </trkpt>
      <trkpt lat="42.86887" lon="2.8769">
        <ele>159</ele>
        <time>2021-03-28T06:57:05Z</time>
      </trkpt>
      <trkpt lat="42.86891" lon="2.87682">
        <ele>159.1</ele>
        <time>2021-03-28T06:57:06Z</time>
      </trkpt>
      <trkpt lat="42.86891" lon="2.87682">
        <ele>159.1</ele>
        <time>2021-03-28T06:57:06Z</time>
      </trkpt>
      <trkpt lat="42.86894" lon="2.87673">
        <ele>159.2</ele>
        <time>2021-03-28T06:57:08Z</time>
      </trkpt>
      <trkpt lat="42.86894" lon="2.87673">
        <ele>159.2</ele>
        <time>2021-03-28T06:57:08Z</time>
      </trkpt>
      <trkpt lat="42.86897" lon="2.87665">
        <ele>159.3</ele>
        <time>2021-03-28T06:57:09Z</time>
      </trkpt>
      <trkpt lat="42.86897" lon="2.87665">
        <ele>159.3</ele>
        <time>2021-03-28T06:57:09Z</time>
      </trkpt>
      <trkpt lat="42.869" lon="2.87657">
        <ele>159.8</ele>
        <time>2021-03-28T06:57:11Z</time>
      </trkpt>
      <trkpt lat="42.869" lon="2.87657">
        <ele>159.8</ele>
        <time>2021-03-28T06:57:11Z</time>
      </trkpt>
      <trkpt lat="42.86903" lon="2.87648">
        <ele>160.2</ele>
        <time>2021-03-28T06:57:13Z</time>
      </trkpt>
      <trkpt lat="42.86903" lon="2.87648">
        <ele>160.2</ele>
        <time>2021-03-28T06:57:13Z</time>
      </trkpt>
      <trkpt lat="42.86905" lon="2.8764">
        <ele>160.5</ele>
        <time>2021-03-28T06:57:14Z</time>
      </trkpt>
      <trkpt lat="42.86905" lon="2.8764">
        <ele>160.5</ele>
        <time>2021-03-28T06:57:14Z</time>
      </trkpt>
      <trkpt lat="42.86908" lon="2.87632">
        <ele>160.8</ele>
        <time>2021-03-28T06:57:16Z</time>
      </trkpt>
      <trkpt lat="42.86908" lon="2.87632">
        <ele>160.8</ele>
        <time>2021-03-28T06:57:16Z</time>
      </trkpt>
      <trkpt lat="42.8691" lon="2.87625">
        <ele>160.9</ele>
        <time>2021-03-28T06:57:17Z</time>
      </trkpt>
      <trkpt lat="42.8691" lon="2.87625">
        <ele>160.9</ele>
        <time>2021-03-28T06:57:17Z</time>
      </trkpt>
      <trkpt lat="42.86912" lon="2.87618">
        <ele>161</ele>
        <time>2021-03-28T06:57:18Z</time>
      </trkpt>
      <trkpt lat="42.86912" lon="2.87618">
        <ele>161</ele>
        <time>2021-03-28T06:57:18Z</time>
      </trkpt>
      <trkpt lat="42.86914" lon="2.8761">
        <ele>161</ele>
        <time>2021-03-28T06:57:20Z</time>
      </trkpt>
      <trkpt lat="42.86914" lon="2.8761">
        <ele>161</ele>
        <time>2021-03-28T06:57:20Z</time>
      </trkpt>
      <trkpt lat="42.86916" lon="2.87603">
        <ele>161.3</ele>
        <time>2021-03-28T06:57:21Z</time>
      </trkpt>
      <trkpt lat="42.86916" lon="2.87603">
        <ele>161.3</ele>
        <time>2021-03-28T06:57:21Z</time>
      </trkpt>
      <trkpt lat="42.86918" lon="2.87597">
        <ele>161.6</ele>
        <time>2021-03-28T06:57:22Z</time>
      </trkpt>
      <trkpt lat="42.86918" lon="2.87597">
        <ele>161.6</ele>
        <time>2021-03-28T06:57:22Z</time>
      </trkpt>
      <trkpt lat="42.86921" lon="2.87589">
        <ele>161.9</ele>
        <time>2021-03-28T06:57:24Z</time>
      </trkpt>
      <trkpt lat="42.86921" lon="2.87589">
        <ele>161.9</ele>
        <time>2021-03-28T06:57:24Z</time>
      </trkpt>
      <trkpt lat="42.86923" lon="2.87582">
        <ele>162.2</ele>
        <time>2021-03-28T06:57:25Z</time>
      </trkpt>
      <trkpt lat="42.86923" lon="2.87582">
        <ele>162.2</ele>
        <time>2021-03-28T06:57:25Z</time>
      </trkpt>
      <trkpt lat="42.86925" lon="2.87574">
        <ele>162.3</ele>
        <time>2021-03-28T06:57:27Z</time>
      </trkpt>
      <trkpt lat="42.86925" lon="2.87574">
        <ele>162.3</ele>
        <time>2021-03-28T06:57:27Z</time>
      </trkpt>
      <trkpt lat="42.86928" lon="2.87565">
        <ele>162.4</ele>
        <time>2021-03-28T06:57:29Z</time>
      </trkpt>
      <trkpt lat="42.86928" lon="2.87565">
        <ele>162.4</ele>
        <time>2021-03-28T06:57:29Z</time>
      </trkpt>
      <trkpt lat="42.86931" lon="2.87556">
        <ele>162.5</ele>
        <time>2021-03-28T06:57:31Z</time>
      </trkpt>
      <trkpt lat="42.86931" lon="2.87556">
        <ele>162.5</ele>
        <time>2021-03-28T06:57:31Z</time>
      </trkpt>
      <trkpt lat="42.86934" lon="2.87547">
        <ele>162.9</ele>
        <time>2021-03-28T06:57:32Z</time>
      </trkpt>
      <trkpt lat="42.86934" lon="2.87547">
        <ele>162.9</ele>
        <time>2021-03-28T06:57:32Z</time>
      </trkpt>
      <trkpt lat="42.86936" lon="2.8754">
        <ele>163.3</ele>
        <time>2021-03-28T06:57:33Z</time>
      </trkpt>
      <trkpt lat="42.86936" lon="2.8754">
        <ele>163.3</ele>
        <time>2021-03-28T06:57:33Z</time>
      </trkpt>
      <trkpt lat="42.86939" lon="2.87531">
        <ele>163.7</ele>
        <time>2021-03-28T06:57:35Z</time>
      </trkpt>
      <trkpt lat="42.86939" lon="2.87531">
        <ele>163.7</ele>
        <time>2021-03-28T06:57:35Z</time>
      </trkpt>
      <trkpt lat="42.86941" lon="2.87524">
        <ele>163.9</ele>
        <time>2021-03-28T06:57:36Z</time>
      </trkpt>
      <trkpt lat="42.86941" lon="2.87524">
        <ele>163.9</ele>
        <time>2021-03-28T06:57:36Z</time>
      </trkpt>
      <trkpt lat="42.86943" lon="2.87517">
        <ele>164</ele>
        <time>2021-03-28T06:57:37Z</time>
      </trkpt>
      <trkpt lat="42.86943" lon="2.87517">
        <ele>164</ele>
        <time>2021-03-28T06:57:37Z</time>
      </trkpt>
      <trkpt lat="42.86946" lon="2.87509">
        <ele>164</ele>
        <time>2021-03-28T06:57:39Z</time>
      </trkpt>
      <trkpt lat="42.86946" lon="2.87509">
        <ele>164</ele>
        <time>2021-03-28T06:57:39Z</time>
      </trkpt>
      <trkpt lat="42.86948" lon="2.875">
        <ele>164.1</ele>
        <time>2021-03-28T06:57:41Z</time>
      </trkpt>
      <trkpt lat="42.86948" lon="2.875">
        <ele>164.1</ele>
        <time>2021-03-28T06:57:41Z</time>
      </trkpt>
      <trkpt lat="42.8695" lon="2.87491">
        <ele>164.5</ele>
        <time>2021-03-28T06:57:43Z</time>
      </trkpt>
      <trkpt lat="42.8695" lon="2.87491">
        <ele>164.5</ele>
        <time>2021-03-28T06:57:43Z</time>
      </trkpt>
      <trkpt lat="42.86953" lon="2.87481">
        <ele>165</ele>
        <time>2021-03-28T06:57:45Z</time>
      </trkpt>
      <trkpt lat="42.86953" lon="2.87481">
        <ele>165</ele>
        <time>2021-03-28T06:57:45Z</time>
      </trkpt>
      <trkpt lat="42.86956" lon="2.87472">
        <ele>165.4</ele>
        <time>2021-03-28T06:57:47Z</time>
      </trkpt>
      <trkpt lat="42.86956" lon="2.87472">
        <ele>165.4</ele>
        <time>2021-03-28T06:57:47Z</time>
      </trkpt>
      <trkpt lat="42.86958" lon="2.87464">
        <ele>165.8</ele>
        <time>2021-03-28T06:57:48Z</time>
      </trkpt>
      <trkpt lat="42.86958" lon="2.87464">
        <ele>165.8</ele>
        <time>2021-03-28T06:57:48Z</time>
      </trkpt>
      <trkpt lat="42.86961" lon="2.87456">
        <ele>166.2</ele>
        <time>2021-03-28T06:57:50Z</time>
      </trkpt>
      <trkpt lat="42.86961" lon="2.87456">
        <ele>166.2</ele>
        <time>2021-03-28T06:57:50Z</time>
      </trkpt>
      <trkpt lat="42.86964" lon="2.87447">
        <ele>166.6</ele>
        <time>2021-03-28T06:57:52Z</time>
      </trkpt>
      <trkpt lat="42.86964" lon="2.87447">
        <ele>166.6</ele>
        <time>2021-03-28T06:57:52Z</time>
      </trkpt>
      <trkpt lat="42.86966" lon="2.87439">
        <ele>166.8</ele>
        <time>2021-03-28T06:57:54Z</time>
      </trkpt>
      <trkpt lat="42.86966" lon="2.87439">
        <ele>166.8</ele>
        <time>2021-03-28T06:57:54Z</time>
      </trkpt>
      <trkpt lat="42.86969" lon="2.8743">
        <ele>166.9</ele>
        <time>2021-03-28T06:57:56Z</time>
      </trkpt>
      <trkpt lat="42.86969" lon="2.8743">
        <ele>166.9</ele>
        <time>2021-03-28T06:57:56Z</time>
      </trkpt>
      <trkpt lat="42.86971" lon="2.87424">
        <ele>167</ele>
        <time>2021-03-28T06:57:57Z</time>
      </trkpt>
      <trkpt lat="42.86971" lon="2.87424">
        <ele>167</ele>
        <time>2021-03-28T06:57:57Z</time>
      </trkpt>
      <trkpt lat="42.86973" lon="2.87415">
        <ele>167</ele>
        <time>2021-03-28T06:57:59Z</time>
      </trkpt>
      <trkpt lat="42.86973" lon="2.87415">
        <ele>167</ele>
        <time>2021-03-28T06:57:59Z</time>
      </trkpt>
      <trkpt lat="42.86975" lon="2.87406">
        <ele>167.1</ele>
        <time>2021-03-28T06:58:01Z</time>
      </trkpt>
      <trkpt lat="42.86975" lon="2.87406">
        <ele>167.1</ele>
        <time>2021-03-28T06:58:01Z</time>
      </trkpt>
      <trkpt lat="42.86976" lon="2.87398">
        <ele>167.2</ele>
        <time>2021-03-28T06:58:02Z</time>
      </trkpt>
      <trkpt lat="42.86976" lon="2.87398">
        <ele>167.2</ele>
        <time>2021-03-28T06:58:02Z</time>
      </trkpt>
      <trkpt lat="42.86976" lon="2.8739">
        <ele>167.3</ele>
        <time>2021-03-28T06:58:04Z</time>
      </trkpt>
      <trkpt lat="42.86976" lon="2.8739">
        <ele>167.3</ele>
        <time>2021-03-28T06:58:04Z</time>
      </trkpt>
      <trkpt lat="42.86976" lon="2.87383">
        <ele>167.5</ele>
        <time>2021-03-28T06:58:05Z</time>
      </trkpt>
      <trkpt lat="42.86976" lon="2.87383">
        <ele>167.5</ele>
        <time>2021-03-28T06:58:05Z</time>
      </trkpt>
      <trkpt lat="42.86976" lon="2.87375">
        <ele>167.7</ele>
        <time>2021-03-28T06:58:07Z</time>
      </trkpt>
      <trkpt lat="42.86976" lon="2.87375">
        <ele>167.7</ele>
        <time>2021-03-28T06:58:07Z</time>
      </trkpt>
      <trkpt lat="42.86976" lon="2.87369">
        <ele>167.9</ele>
        <time>2021-03-28T06:58:09Z</time>
      </trkpt>
      <trkpt lat="42.86976" lon="2.87369">
        <ele>167.9</ele>
        <time>2021-03-28T06:58:09Z</time>
      </trkpt>
      <trkpt lat="42.86976" lon="2.87364">
        <ele>168</ele>
        <time>2021-03-28T06:58:10Z</time>
      </trkpt>
      <trkpt lat="42.86976" lon="2.87364">
        <ele>168</ele>
        <time>2021-03-28T06:58:10Z</time>
      </trkpt>
      <trkpt lat="42.86979" lon="2.87362">
        <ele>168.2</ele>
        <time>2021-03-28T06:58:12Z</time>
      </trkpt>
      <trkpt lat="42.86979" lon="2.87362">
        <ele>168.2</ele>
        <time>2021-03-28T06:58:12Z</time>
      </trkpt>
      <trkpt lat="42.86984" lon="2.8736">
        <ele>168.4</ele>
        <time>2021-03-28T06:58:14Z</time>
      </trkpt>
      <trkpt lat="42.86984" lon="2.8736">
        <ele>168.4</ele>
        <time>2021-03-28T06:58:14Z</time>
      </trkpt>
      <trkpt lat="42.86988" lon="2.87358">
        <ele>168.5</ele>
        <time>2021-03-28T06:58:15Z</time>
      </trkpt>
      <trkpt lat="42.86988" lon="2.87358">
        <ele>168.5</ele>
        <time>2021-03-28T06:58:15Z</time>
      </trkpt>
      <trkpt lat="42.86993" lon="2.87357">
        <ele>168.7</ele>
        <time>2021-03-28T06:58:17Z</time>
      </trkpt>
      <trkpt lat="42.86993" lon="2.87357">
        <ele>168.7</ele>
        <time>2021-03-28T06:58:17Z</time>
      </trkpt>
      <trkpt lat="42.86998" lon="2.87355">
        <ele>168.9</ele>
        <time>2021-03-28T06:58:19Z</time>
      </trkpt>
      <trkpt lat="42.86998" lon="2.87355">
        <ele>168.9</ele>
        <time>2021-03-28T06:58:19Z</time>
      </trkpt>
      <trkpt lat="42.87003" lon="2.87353">
        <ele>169.1</ele>
        <time>2021-03-28T06:58:20Z</time>
      </trkpt>
      <trkpt lat="42.87003" lon="2.87353">
        <ele>169.1</ele>
        <time>2021-03-28T06:58:20Z</time>
      </trkpt>
      <trkpt lat="42.87009" lon="2.87351">
        <ele>169.4</ele>
        <time>2021-03-28T06:58:22Z</time>
      </trkpt>
      <trkpt lat="42.87009" lon="2.87351">
        <ele>169.4</ele>
        <time>2021-03-28T06:58:22Z</time>
      </trkpt>
      <trkpt lat="42.87014" lon="2.8735">
        <ele>169.7</ele>
        <time>2021-03-28T06:58:23Z</time>
      </trkpt>
      <trkpt lat="42.87014" lon="2.8735">
        <ele>169.7</ele>
        <time>2021-03-28T06:58:23Z</time>
      </trkpt>
      <trkpt lat="42.87019" lon="2.87352">
        <ele>169.9</ele>
        <time>2021-03-28T06:58:25Z</time>
      </trkpt>
      <trkpt lat="42.87019" lon="2.87352">
        <ele>169.9</ele>
        <time>2021-03-28T06:58:25Z</time>
      </trkpt>
      <trkpt lat="42.87024" lon="2.87356">
        <ele>170</ele>
        <time>2021-03-28T06:58:27Z</time>
      </trkpt>
      <trkpt lat="42.87024" lon="2.87356">
        <ele>170</ele>
        <time>2021-03-28T06:58:27Z</time>
      </trkpt>
      <trkpt lat="42.87028" lon="2.87361">
        <ele>170</ele>
        <time>2021-03-28T06:58:28Z</time>
      </trkpt>
      <trkpt lat="42.87028" lon="2.87361">
        <ele>170</ele>
        <time>2021-03-28T06:58:28Z</time>
      </trkpt>
      <trkpt lat="42.87033" lon="2.87368">
        <ele>170.2</ele>
        <time>2021-03-28T06:58:30Z</time>
      </trkpt>
      <trkpt lat="42.87033" lon="2.87368">
        <ele>170.2</ele>
        <time>2021-03-28T06:58:30Z</time>
      </trkpt>
      <trkpt lat="42.87039" lon="2.87377">
        <ele>170.2</ele>
        <time>2021-03-28T06:58:32Z</time>
      </trkpt>
      <trkpt lat="42.87039" lon="2.87377">
        <ele>170.2</ele>
        <time>2021-03-28T06:58:32Z</time>
      </trkpt>
      <trkpt lat="42.87044" lon="2.87385">
        <ele>170.1</ele>
        <time>2021-03-28T06:58:33Z</time>
      </trkpt>
      <trkpt lat="42.87044" lon="2.87385">
        <ele>170.1</ele>
        <time>2021-03-28T06:58:33Z</time>
      </trkpt>
      <trkpt lat="42.87049" lon="2.87394">
        <ele>169.8</ele>
        <time>2021-03-28T06:58:35Z</time>
      </trkpt>
      <trkpt lat="42.87049" lon="2.87394">
        <ele>169.8</ele>
        <time>2021-03-28T06:58:35Z</time>
      </trkpt>
      <trkpt lat="42.87054" lon="2.87401">
        <ele>169.6</ele>
        <time>2021-03-28T06:58:36Z</time>
      </trkpt>
      <trkpt lat="42.87054" lon="2.87401">
        <ele>169.6</ele>
        <time>2021-03-28T06:58:36Z</time>
      </trkpt>
      <trkpt lat="42.8706" lon="2.87406">
        <ele>169.4</ele>
        <time>2021-03-28T06:58:38Z</time>
      </trkpt>
      <trkpt lat="42.8706" lon="2.87406">
        <ele>169.4</ele>
        <time>2021-03-28T06:58:38Z</time>
      </trkpt>
      <trkpt lat="42.87066" lon="2.8741">
        <ele>169.2</ele>
        <time>2021-03-28T06:58:40Z</time>
      </trkpt>
      <trkpt lat="42.87066" lon="2.8741">
        <ele>169.2</ele>
        <time>2021-03-28T06:58:40Z</time>
      </trkpt>
      <trkpt lat="42.8707" lon="2.87414">
        <ele>169.1</ele>
        <time>2021-03-28T06:58:41Z</time>
      </trkpt>
      <trkpt lat="42.8707" lon="2.87414">
        <ele>169.1</ele>
        <time>2021-03-28T06:58:41Z</time>
      </trkpt>
      <trkpt lat="42.87075" lon="2.87415">
        <ele>169.1</ele>
        <time>2021-03-28T06:58:43Z</time>
      </trkpt>
      <trkpt lat="42.87075" lon="2.87415">
        <ele>169.1</ele>
        <time>2021-03-28T06:58:43Z</time>
      </trkpt>
      <trkpt lat="42.87079" lon="2.87412">
        <ele>169.2</ele>
        <time>2021-03-28T06:58:45Z</time>
      </trkpt>
      <trkpt lat="42.87079" lon="2.87412">
        <ele>169.2</ele>
        <time>2021-03-28T06:58:45Z</time>
      </trkpt>
      <trkpt lat="42.87082" lon="2.87407">
        <ele>169.4</ele>
        <time>2021-03-28T06:58:47Z</time>
      </trkpt>
      <trkpt lat="42.87082" lon="2.87407">
        <ele>169.4</ele>
        <time>2021-03-28T06:58:47Z</time>
      </trkpt>
      <trkpt lat="42.87085" lon="2.874">
        <ele>169.7</ele>
        <time>2021-03-28T06:58:49Z</time>
      </trkpt>
      <trkpt lat="42.87085" lon="2.874">
        <ele>169.7</ele>
        <time>2021-03-28T06:58:49Z</time>
      </trkpt>
      <trkpt lat="42.87088" lon="2.87394">
        <ele>170</ele>
        <time>2021-03-28T06:58:50Z</time>
      </trkpt>
      <trkpt lat="42.87088" lon="2.87394">
        <ele>170</ele>
        <time>2021-03-28T06:58:50Z</time>
      </trkpt>
      <trkpt lat="42.87091" lon="2.87386">
        <ele>170.4</ele>
        <time>2021-03-28T06:58:52Z</time>
      </trkpt>
      <trkpt lat="42.87091" lon="2.87386">
        <ele>170.4</ele>
        <time>2021-03-28T06:58:52Z</time>
      </trkpt>
      <trkpt lat="42.87093" lon="2.87378">
        <ele>170.9</ele>
        <time>2021-03-28T06:58:54Z</time>
      </trkpt>
      <trkpt lat="42.87093" lon="2.87378">
        <ele>170.9</ele>
        <time>2021-03-28T06:58:54Z</time>
      </trkpt>
      <trkpt lat="42.87095" lon="2.87371">
        <ele>171.4</ele>
        <time>2021-03-28T06:58:55Z</time>
      </trkpt>
      <trkpt lat="42.87095" lon="2.87371">
        <ele>171.4</ele>
        <time>2021-03-28T06:58:55Z</time>
      </trkpt>
      <trkpt lat="42.87096" lon="2.87362">
        <ele>171.9</ele>
        <time>2021-03-28T06:58:57Z</time>
      </trkpt>
      <trkpt lat="42.87096" lon="2.87362">
        <ele>171.9</ele>
        <time>2021-03-28T06:58:57Z</time>
      </trkpt>
      <trkpt lat="42.87096" lon="2.87353">
        <ele>172.2</ele>
        <time>2021-03-28T06:58:59Z</time>
      </trkpt>
      <trkpt lat="42.87096" lon="2.87353">
        <ele>172.2</ele>
        <time>2021-03-28T06:58:59Z</time>
      </trkpt>
      <trkpt lat="42.87095" lon="2.87343">
        <ele>172.5</ele>
        <time>2021-03-28T06:59:01Z</time>
      </trkpt>
      <trkpt lat="42.87095" lon="2.87343">
        <ele>172.5</ele>
        <time>2021-03-28T06:59:01Z</time>
      </trkpt>
      <trkpt lat="42.87093" lon="2.87335">
        <ele>172.6</ele>
        <time>2021-03-28T06:59:03Z</time>
      </trkpt>
      <trkpt lat="42.87093" lon="2.87335">
        <ele>172.6</ele>
        <time>2021-03-28T06:59:03Z</time>
      </trkpt>
      <trkpt lat="42.87091" lon="2.87327">
        <ele>172.7</ele>
        <time>2021-03-28T06:59:05Z</time>
      </trkpt>
      <trkpt lat="42.87091" lon="2.87327">
        <ele>172.7</ele>
        <time>2021-03-28T06:59:05Z</time>
      </trkpt>
      <trkpt lat="42.87088" lon="2.87318">
        <ele>172.9</ele>
        <time>2021-03-28T06:59:07Z</time>
      </trkpt>
      <trkpt lat="42.87088" lon="2.87318">
        <ele>172.9</ele>
        <time>2021-03-28T06:59:07Z</time>
      </trkpt>
      <trkpt lat="42.87086" lon="2.8731">
        <ele>173</ele>
        <time>2021-03-28T06:59:09Z</time>
      </trkpt>
      <trkpt lat="42.87086" lon="2.8731">
        <ele>173</ele>
        <time>2021-03-28T06:59:09Z</time>
      </trkpt>
      <trkpt lat="42.87084" lon="2.87302">
        <ele>173.1</ele>
        <time>2021-03-28T06:59:10Z</time>
      </trkpt>
      <trkpt lat="42.87084" lon="2.87302">
        <ele>173.1</ele>
        <time>2021-03-28T06:59:10Z</time>
      </trkpt>
      <trkpt lat="42.87083" lon="2.87295">
        <ele>173</ele>
        <time>2021-03-28T06:59:11Z</time>
      </trkpt>
      <trkpt lat="42.87083" lon="2.87295">
        <ele>173</ele>
        <time>2021-03-28T06:59:11Z</time>
      </trkpt>
      <trkpt lat="42.87083" lon="2.87288">
        <ele>173</ele>
        <time>2021-03-28T06:59:13Z</time>
      </trkpt>
      <trkpt lat="42.87083" lon="2.87288">
        <ele>173</ele>
        <time>2021-03-28T06:59:13Z</time>
      </trkpt>
      <trkpt lat="42.87083" lon="2.87283">
        <ele>173</ele>
        <time>2021-03-28T06:59:14Z</time>
      </trkpt>
      <trkpt lat="42.87083" lon="2.87283">
        <ele>173</ele>
        <time>2021-03-28T06:59:14Z</time>
      </trkpt>
      <trkpt lat="42.87084" lon="2.87276">
        <ele>173.1</ele>
        <time>2021-03-28T06:59:16Z</time>
      </trkpt>
      <trkpt lat="42.87084" lon="2.87276">
        <ele>173.1</ele>
        <time>2021-03-28T06:59:16Z</time>
      </trkpt>
      <trkpt lat="42.87086" lon="2.8727">
        <ele>173.3</ele>
        <time>2021-03-28T06:59:17Z</time>
      </trkpt>
      <trkpt lat="42.87086" lon="2.8727">
        <ele>173.3</ele>
        <time>2021-03-28T06:59:17Z</time>
      </trkpt>
      <trkpt lat="42.87089" lon="2.87263">
        <ele>173.6</ele>
        <time>2021-03-28T06:59:19Z</time>
      </trkpt>
      <trkpt lat="42.87089" lon="2.87263">
        <ele>173.6</ele>
        <time>2021-03-28T06:59:19Z</time>
      </trkpt>
      <trkpt lat="42.87091" lon="2.87256">
        <ele>173.8</ele>
        <time>2021-03-28T06:59:21Z</time>
      </trkpt>
      <trkpt lat="42.87091" lon="2.87256">
        <ele>173.8</ele>
        <time>2021-03-28T06:59:21Z</time>
      </trkpt>
      <trkpt lat="42.87094" lon="2.87249">
        <ele>174.2</ele>
        <time>2021-03-28T06:59:23Z</time>
      </trkpt>
      <trkpt lat="42.87094" lon="2.87249">
        <ele>174.2</ele>
        <time>2021-03-28T06:59:23Z</time>
      </trkpt>
      <trkpt lat="42.87097" lon="2.87243">
        <ele>174.6</ele>
        <time>2021-03-28T06:59:24Z</time>
      </trkpt>
      <trkpt lat="42.87097" lon="2.87243">
        <ele>174.6</ele>
        <time>2021-03-28T06:59:24Z</time>
      </trkpt>
      <trkpt lat="42.87099" lon="2.87237">
        <ele>174.9</ele>
        <time>2021-03-28T06:59:25Z</time>
      </trkpt>
      <trkpt lat="42.87099" lon="2.87237">
        <ele>174.9</ele>
        <time>2021-03-28T06:59:25Z</time>
      </trkpt>
      <trkpt lat="42.87103" lon="2.87231">
        <ele>175</ele>
        <time>2021-03-28T06:59:27Z</time>
      </trkpt>
      <trkpt lat="42.87103" lon="2.87231">
        <ele>175</ele>
        <time>2021-03-28T06:59:27Z</time>
      </trkpt>
      <trkpt lat="42.87105" lon="2.87223">
        <ele>175</ele>
        <time>2021-03-28T06:59:29Z</time>
      </trkpt>
      <trkpt lat="42.87105" lon="2.87223">
        <ele>175</ele>
        <time>2021-03-28T06:59:29Z</time>
      </trkpt>
      <trkpt lat="42.87108" lon="2.87217">
        <ele>175.3</ele>
        <time>2021-03-28T06:59:30Z</time>
      </trkpt>
      <trkpt lat="42.87108" lon="2.87217">
        <ele>175.3</ele>
        <time>2021-03-28T06:59:30Z</time>
      </trkpt>
      <trkpt lat="42.8711" lon="2.87212">
        <ele>175.7</ele>
        <time>2021-03-28T06:59:31Z</time>
      </trkpt>
      <trkpt lat="42.8711" lon="2.87212">
        <ele>175.7</ele>
        <time>2021-03-28T06:59:31Z</time>
      </trkpt>
      <trkpt lat="42.87112" lon="2.87207">
        <ele>176.2</ele>
        <time>2021-03-28T06:59:33Z</time>
      </trkpt>
      <trkpt lat="42.87112" lon="2.87207">
        <ele>176.2</ele>
        <time>2021-03-28T06:59:33Z</time>
      </trkpt>
      <trkpt lat="42.87114" lon="2.87203">
        <ele>176.6</ele>
        <time>2021-03-28T06:59:34Z</time>
      </trkpt>
      <trkpt lat="42.87114" lon="2.87203">
        <ele>176.6</ele>
        <time>2021-03-28T06:59:34Z</time>
      </trkpt>
      <trkpt lat="42.87115" lon="2.87199">
        <ele>176.9</ele>
        <time>2021-03-28T06:59:35Z</time>
      </trkpt>
      <trkpt lat="42.87115" lon="2.87199">
        <ele>176.9</ele>
        <time>2021-03-28T06:59:35Z</time>
      </trkpt>
      <trkpt lat="42.87117" lon="2.87194">
        <ele>177.2</ele>
        <time>2021-03-28T06:59:37Z</time>
      </trkpt>
      <trkpt lat="42.87117" lon="2.87194">
        <ele>177.2</ele>
        <time>2021-03-28T06:59:37Z</time>
      </trkpt>
      <trkpt lat="42.87118" lon="2.87189">
        <ele>177.8</ele>
        <time>2021-03-28T06:59:38Z</time>
      </trkpt>
      <trkpt lat="42.87118" lon="2.87189">
        <ele>177.8</ele>
        <time>2021-03-28T06:59:38Z</time>
      </trkpt>
      <trkpt lat="42.87118" lon="2.87184">
        <ele>178.2</ele>
        <time>2021-03-28T06:59:39Z</time>
      </trkpt>
      <trkpt lat="42.87118" lon="2.87184">
        <ele>178.2</ele>
        <time>2021-03-28T06:59:39Z</time>
      </trkpt>
      <trkpt lat="42.87117" lon="2.87179">
        <ele>178.6</ele>
        <time>2021-03-28T06:59:40Z</time>
      </trkpt>
      <trkpt lat="42.87117" lon="2.87179">
        <ele>178.6</ele>
        <time>2021-03-28T06:59:40Z</time>
      </trkpt>
      <trkpt lat="42.87117" lon="2.87176">
        <ele>178.9</ele>
        <time>2021-03-28T06:59:41Z</time>
      </trkpt>
      <trkpt lat="42.87117" lon="2.87176">
        <ele>178.9</ele>
        <time>2021-03-28T06:59:41Z</time>
      </trkpt>
      <trkpt lat="42.87115" lon="2.87173">
        <ele>179.3</ele>
        <time>2021-03-28T06:59:43Z</time>
      </trkpt>
      <trkpt lat="42.87115" lon="2.87173">
        <ele>179.3</ele>
        <time>2021-03-28T06:59:43Z</time>
      </trkpt>
      <trkpt lat="42.87113" lon="2.87169">
        <ele>179.8</ele>
        <time>2021-03-28T06:59:45Z</time>
      </trkpt>
      <trkpt lat="42.87113" lon="2.87169">
        <ele>179.8</ele>
        <time>2021-03-28T06:59:45Z</time>
      </trkpt>
      <trkpt lat="42.87111" lon="2.87165">
        <ele>180.3</ele>
        <time>2021-03-28T06:59:46Z</time>
      </trkpt>
      <trkpt lat="42.87111" lon="2.87165">
        <ele>180.3</ele>
        <time>2021-03-28T06:59:46Z</time>
      </trkpt>
      <trkpt lat="42.87108" lon="2.87161">
        <ele>181</ele>
        <time>2021-03-28T06:59:48Z</time>
      </trkpt>
      <trkpt lat="42.87108" lon="2.87161">
        <ele>181</ele>
        <time>2021-03-28T06:59:48Z</time>
      </trkpt>
      <trkpt lat="42.87107" lon="2.87158">
        <ele>181.6</ele>
        <time>2021-03-28T06:59:49Z</time>
      </trkpt>
      <trkpt lat="42.87107" lon="2.87158">
        <ele>181.6</ele>
        <time>2021-03-28T06:59:49Z</time>
      </trkpt>
      <trkpt lat="42.87104" lon="2.87154">
        <ele>182.1</ele>
        <time>2021-03-28T06:59:51Z</time>
      </trkpt>
      <trkpt lat="42.87104" lon="2.87154">
        <ele>182.1</ele>
        <time>2021-03-28T06:59:51Z</time>
      </trkpt>
      <trkpt lat="42.87102" lon="2.87151">
        <ele>182.6</ele>
        <time>2021-03-28T06:59:52Z</time>
      </trkpt>
      <trkpt lat="42.87102" lon="2.87151">
        <ele>182.6</ele>
        <time>2021-03-28T06:59:52Z</time>
      </trkpt>
      <trkpt lat="42.871" lon="2.87148">
        <ele>182.9</ele>
        <time>2021-03-28T06:59:53Z</time>
      </trkpt>
      <trkpt lat="42.871" lon="2.87148">
        <ele>182.9</ele>
        <time>2021-03-28T06:59:53Z</time>
      </trkpt>
      <trkpt lat="42.87098" lon="2.87145">
        <ele>183.3</ele>
        <time>2021-03-28T06:59:54Z</time>
      </trkpt>
      <trkpt lat="42.87098" lon="2.87145">
        <ele>183.3</ele>
        <time>2021-03-28T06:59:54Z</time>
      </trkpt>
      <trkpt lat="42.87096" lon="2.87142">
        <ele>183.5</ele>
        <time>2021-03-28T06:59:55Z</time>
      </trkpt>
      <trkpt lat="42.87096" lon="2.87142">
        <ele>183.5</ele>
        <time>2021-03-28T06:59:55Z</time>
      </trkpt>
      <trkpt lat="42.87094" lon="2.87138">
        <ele>183.8</ele>
        <time>2021-03-28T06:59:57Z</time>
      </trkpt>
      <trkpt lat="42.87094" lon="2.87138">
        <ele>183.8</ele>
        <time>2021-03-28T06:59:57Z</time>
      </trkpt>
      <trkpt lat="42.87091" lon="2.87134">
        <ele>184.1</ele>
        <time>2021-03-28T06:59:59Z</time>
      </trkpt>
      <trkpt lat="42.87091" lon="2.87134">
        <ele>184.1</ele>
        <time>2021-03-28T06:59:59Z</time>
      </trkpt>
      <trkpt lat="42.87089" lon="2.87131">
        <ele>184.3</ele>
        <time>2021-03-28T07:00:00Z</time>
      </trkpt>
      <trkpt lat="42.87089" lon="2.87131">
        <ele>184.3</ele>
        <time>2021-03-28T07:00:00Z</time>
      </trkpt>
      <trkpt lat="42.87086" lon="2.87127">
        <ele>184.6</ele>
        <time>2021-03-28T07:00:02Z</time>
      </trkpt>
      <trkpt lat="42.87086" lon="2.87127">
        <ele>184.6</ele>
        <time>2021-03-28T07:00:02Z</time>
      </trkpt>
      <trkpt lat="42.87084" lon="2.87123">
        <ele>184.8</ele>
        <time>2021-03-28T07:00:04Z</time>
      </trkpt>
      <trkpt lat="42.87084" lon="2.87123">
        <ele>184.8</ele>
        <time>2021-03-28T07:00:04Z</time>
      </trkpt>
      <trkpt lat="42.87082" lon="2.87119">
        <ele>185</ele>
        <time>2021-03-28T07:00:05Z</time>
      </trkpt>
      <trkpt lat="42.87082" lon="2.87119">
        <ele>185</ele>
        <time>2021-03-28T07:00:05Z</time>
      </trkpt>
      <trkpt lat="42.8708" lon="2.87115">
        <ele>185.3</ele>
        <time>2021-03-28T07:00:07Z</time>
      </trkpt>
      <trkpt lat="42.8708" lon="2.87115">
        <ele>185.3</ele>
        <time>2021-03-28T07:00:07Z</time>
      </trkpt>
      <trkpt lat="42.87078" lon="2.87111">
        <ele>185.5</ele>
        <time>2021-03-28T07:00:08Z</time>
      </trkpt>
      <trkpt lat="42.87078" lon="2.87111">
        <ele>185.5</ele>
        <time>2021-03-28T07:00:08Z</time>
      </trkpt>
      <trkpt lat="42.87075" lon="2.87107">
        <ele>186</ele>
        <time>2021-03-28T07:00:10Z</time>
      </trkpt>
      <trkpt lat="42.87075" lon="2.87107">
        <ele>186</ele>
        <time>2021-03-28T07:00:10Z</time>
      </trkpt>
      <trkpt lat="42.87074" lon="2.87103">
        <ele>186.4</ele>
        <time>2021-03-28T07:00:11Z</time>
      </trkpt>
      <trkpt lat="42.87074" lon="2.87103">
        <ele>186.4</ele>
        <time>2021-03-28T07:00:11Z</time>
      </trkpt>
      <trkpt lat="42.87072" lon="2.871">
        <ele>186.8</ele>
        <time>2021-03-28T07:00:12Z</time>
      </trkpt>
      <trkpt lat="42.87072" lon="2.871">
        <ele>186.8</ele>
        <time>2021-03-28T07:00:12Z</time>
      </trkpt>
      <trkpt lat="42.8707" lon="2.87096">
        <ele>187.2</ele>
        <time>2021-03-28T07:00:14Z</time>
      </trkpt>
      <trkpt lat="42.8707" lon="2.87096">
        <ele>187.2</ele>
        <time>2021-03-28T07:00:14Z</time>
      </trkpt>
      <trkpt lat="42.87068" lon="2.87092">
        <ele>187.6</ele>
        <time>2021-03-28T07:00:15Z</time>
      </trkpt>
      <trkpt lat="42.87068" lon="2.87092">
        <ele>187.6</ele>
        <time>2021-03-28T07:00:15Z</time>
      </trkpt>
      <trkpt lat="42.87066" lon="2.87089">
        <ele>187.9</ele>
        <time>2021-03-28T07:00:16Z</time>
      </trkpt>
      <trkpt lat="42.87066" lon="2.87089">
        <ele>187.9</ele>
        <time>2021-03-28T07:00:16Z</time>
      </trkpt>
      <trkpt lat="42.87064" lon="2.87085">
        <ele>188.3</ele>
        <time>2021-03-28T07:00:18Z</time>
      </trkpt>
      <trkpt lat="42.87064" lon="2.87085">
        <ele>188.3</ele>
        <time>2021-03-28T07:00:18Z</time>
      </trkpt>
      <trkpt lat="42.87062" lon="2.87082">
        <ele>188.6</ele>
        <time>2021-03-28T07:00:19Z</time>
      </trkpt>
      <trkpt lat="42.87062" lon="2.87082">
        <ele>188.6</ele>
        <time>2021-03-28T07:00:19Z</time>
      </trkpt>
      <trkpt lat="42.87059" lon="2.87079">
        <ele>188.7</ele>
        <time>2021-03-28T07:00:21Z</time>
      </trkpt>
      <trkpt lat="42.87059" lon="2.87079">
        <ele>188.7</ele>
        <time>2021-03-28T07:00:21Z</time>
      </trkpt>
      <trkpt lat="42.87056" lon="2.87076">
        <ele>188.8</ele>
        <time>2021-03-28T07:00:22Z</time>
      </trkpt>
      <trkpt lat="42.87056" lon="2.87076">
        <ele>188.8</ele>
        <time>2021-03-28T07:00:22Z</time>
      </trkpt>
      <trkpt lat="42.87054" lon="2.87073">
        <ele>188.9</ele>
        <time>2021-03-28T07:00:23Z</time>
      </trkpt>
      <trkpt lat="42.87054" lon="2.87073">
        <ele>188.9</ele>
        <time>2021-03-28T07:00:23Z</time>
      </trkpt>
      <trkpt lat="42.8705" lon="2.87071">
        <ele>188.9</ele>
        <time>2021-03-28T07:00:25Z</time>
      </trkpt>
      <trkpt lat="42.8705" lon="2.87071">
        <ele>188.9</ele>
        <time>2021-03-28T07:00:25Z</time>
      </trkpt>
      <trkpt lat="42.87046" lon="2.87069">
        <ele>188.7</ele>
        <time>2021-03-28T07:00:27Z</time>
      </trkpt>
      <trkpt lat="42.87046" lon="2.87069">
        <ele>188.7</ele>
        <time>2021-03-28T07:00:27Z</time>
      </trkpt>
      <trkpt lat="42.87042" lon="2.87068">
        <ele>188.5</ele>
        <time>2021-03-28T07:00:29Z</time>
      </trkpt>
      <trkpt lat="42.87042" lon="2.87068">
        <ele>188.5</ele>
        <time>2021-03-28T07:00:29Z</time>
      </trkpt>
      <trkpt lat="42.87036" lon="2.87067">
        <ele>188.1</ele>
        <time>2021-03-28T07:00:31Z</time>
      </trkpt>
      <trkpt lat="42.87036" lon="2.87067">
        <ele>188.1</ele>
        <time>2021-03-28T07:00:31Z</time>
      </trkpt>
      <trkpt lat="42.8703" lon="2.87066">
        <ele>187.7</ele>
        <time>2021-03-28T07:00:32Z</time>
      </trkpt>
      <trkpt lat="42.8703" lon="2.87066">
        <ele>187.7</ele>
        <time>2021-03-28T07:00:32Z</time>
      </trkpt>
      <trkpt lat="42.87023" lon="2.87066">
        <ele>187.2</ele>
        <time>2021-03-28T07:00:34Z</time>
      </trkpt>
      <trkpt lat="42.87023" lon="2.87066">
        <ele>187.2</ele>
        <time>2021-03-28T07:00:34Z</time>
      </trkpt>
      <trkpt lat="42.87014" lon="2.87063">
        <ele>187.1</ele>
        <time>2021-03-28T07:00:36Z</time>
      </trkpt>
      <trkpt lat="42.87014" lon="2.87063">
        <ele>187.1</ele>
        <time>2021-03-28T07:00:36Z</time>
      </trkpt>
      <trkpt lat="42.87008" lon="2.87059">
        <ele>187.1</ele>
        <time>2021-03-28T07:00:37Z</time>
      </trkpt>
      <trkpt lat="42.87008" lon="2.87059">
        <ele>187.1</ele>
        <time>2021-03-28T07:00:37Z</time>
      </trkpt>
      <trkpt lat="42.87002" lon="2.87054">
        <ele>187.3</ele>
        <time>2021-03-28T07:00:39Z</time>
      </trkpt>
      <trkpt lat="42.87002" lon="2.87054">
        <ele>187.3</ele>
        <time>2021-03-28T07:00:39Z</time>
      </trkpt>
      <trkpt lat="42.86997" lon="2.87048">
        <ele>187.4</ele>
        <time>2021-03-28T07:00:41Z</time>
      </trkpt>
      <trkpt lat="42.86997" lon="2.87048">
        <ele>187.4</ele>
        <time>2021-03-28T07:00:41Z</time>
      </trkpt>
      <trkpt lat="42.86993" lon="2.87042">
        <ele>187.5</ele>
        <time>2021-03-28T07:00:43Z</time>
      </trkpt>
      <trkpt lat="42.86993" lon="2.87042">
        <ele>187.5</ele>
        <time>2021-03-28T07:00:43Z</time>
      </trkpt>
      <trkpt lat="42.86989" lon="2.87035">
        <ele>187.7</ele>
        <time>2021-03-28T07:00:45Z</time>
      </trkpt>
      <trkpt lat="42.86989" lon="2.87035">
        <ele>187.7</ele>
        <time>2021-03-28T07:00:45Z</time>
      </trkpt>
      <trkpt lat="42.86985" lon="2.87027">
        <ele>187.9</ele>
        <time>2021-03-28T07:00:47Z</time>
      </trkpt>
      <trkpt lat="42.86985" lon="2.87027">
        <ele>187.9</ele>
        <time>2021-03-28T07:00:47Z</time>
      </trkpt>
      <trkpt lat="42.8698" lon="2.8702">
        <ele>188.2</ele>
        <time>2021-03-28T07:00:49Z</time>
      </trkpt>
      <trkpt lat="42.8698" lon="2.8702">
        <ele>188.2</ele>
        <time>2021-03-28T07:00:49Z</time>
      </trkpt>
      <trkpt lat="42.86977" lon="2.87014">
        <ele>188.5</ele>
        <time>2021-03-28T07:00:50Z</time>
      </trkpt>
      <trkpt lat="42.86977" lon="2.87014">
        <ele>188.5</ele>
        <time>2021-03-28T07:00:50Z</time>
      </trkpt>
      <trkpt lat="42.86973" lon="2.87008">
        <ele>188.9</ele>
        <time>2021-03-28T07:00:52Z</time>
      </trkpt>
      <trkpt lat="42.86973" lon="2.87008">
        <ele>188.9</ele>
        <time>2021-03-28T07:00:52Z</time>
      </trkpt>
      <trkpt lat="42.86967" lon="2.87004">
        <ele>188.9</ele>
        <time>2021-03-28T07:00:54Z</time>
      </trkpt>
      <trkpt lat="42.86967" lon="2.87004">
        <ele>188.9</ele>
        <time>2021-03-28T07:00:54Z</time>
      </trkpt>
      <trkpt lat="42.86961" lon="2.87">
        <ele>188.8</ele>
        <time>2021-03-28T07:00:56Z</time>
      </trkpt>
      <trkpt lat="42.86961" lon="2.87">
        <ele>188.8</ele>
        <time>2021-03-28T07:00:56Z</time>
      </trkpt>
      <trkpt lat="42.86955" lon="2.86996">
        <ele>188.7</ele>
        <time>2021-03-28T07:00:57Z</time>
      </trkpt>
      <trkpt lat="42.86955" lon="2.86996">
        <ele>188.7</ele>
        <time>2021-03-28T07:00:57Z</time>
      </trkpt>
      <trkpt lat="42.86947" lon="2.86991">
        <ele>188.5</ele>
        <time>2021-03-28T07:00:59Z</time>
      </trkpt>
      <trkpt lat="42.86947" lon="2.86991">
        <ele>188.5</ele>
        <time>2021-03-28T07:00:59Z</time>
      </trkpt>
      <trkpt lat="42.86941" lon="2.86987">
        <ele>188.6</ele>
        <time>2021-03-28T07:01:00Z</time>
      </trkpt>
      <trkpt lat="42.86941" lon="2.86987">
        <ele>188.6</ele>
        <time>2021-03-28T07:01:00Z</time>
      </trkpt>
      <trkpt lat="42.86934" lon="2.86982">
        <ele>188.7</ele>
        <time>2021-03-28T07:01:02Z</time>
      </trkpt>
      <trkpt lat="42.86934" lon="2.86982">
        <ele>188.7</ele>
        <time>2021-03-28T07:01:02Z</time>
      </trkpt>
      <trkpt lat="42.86927" lon="2.86976">
        <ele>188.8</ele>
        <time>2021-03-28T07:01:04Z</time>
      </trkpt>
      <trkpt lat="42.86927" lon="2.86976">
        <ele>188.8</ele>
        <time>2021-03-28T07:01:04Z</time>
      </trkpt>
      <trkpt lat="42.86922" lon="2.8697">
        <ele>188.7</ele>
        <time>2021-03-28T07:01:05Z</time>
      </trkpt>
      <trkpt lat="42.86922" lon="2.8697">
        <ele>188.7</ele>
        <time>2021-03-28T07:01:05Z</time>
      </trkpt>
      <trkpt lat="42.86916" lon="2.86964">
        <ele>188.7</ele>
        <time>2021-03-28T07:01:07Z</time>
      </trkpt>
      <trkpt lat="42.86916" lon="2.86964">
        <ele>188.7</ele>
        <time>2021-03-28T07:01:07Z</time>
      </trkpt>
      <trkpt lat="42.8691" lon="2.86959">
        <ele>188.7</ele>
        <time>2021-03-28T07:01:08Z</time>
      </trkpt>
      <trkpt lat="42.8691" lon="2.86959">
        <ele>188.7</ele>
        <time>2021-03-28T07:01:08Z</time>
      </trkpt>
      <trkpt lat="42.86904" lon="2.86953">
        <ele>188.7</ele>
        <time>2021-03-28T07:01:10Z</time>
      </trkpt>
      <trkpt lat="42.86904" lon="2.86953">
        <ele>188.7</ele>
        <time>2021-03-28T07:01:10Z</time>
      </trkpt>
      <trkpt lat="42.86898" lon="2.86948">
        <ele>188.6</ele>
        <time>2021-03-28T07:01:11Z</time>
      </trkpt>
      <trkpt lat="42.86898" lon="2.86948">
        <ele>188.6</ele>
        <time>2021-03-28T07:01:11Z</time>
      </trkpt>
      <trkpt lat="42.86891" lon="2.86942">
        <ele>188.4</ele>
        <time>2021-03-28T07:01:13Z</time>
      </trkpt>
      <trkpt lat="42.86891" lon="2.86942">
        <ele>188.4</ele>
        <time>2021-03-28T07:01:13Z</time>
      </trkpt>
      <trkpt lat="42.86884" lon="2.86936">
        <ele>187.7</ele>
        <time>2021-03-28T07:01:15Z</time>
      </trkpt>
      <trkpt lat="42.86884" lon="2.86936">
        <ele>187.7</ele>
        <time>2021-03-28T07:01:15Z</time>
      </trkpt>
      <trkpt lat="42.86877" lon="2.86929">
        <ele>187</ele>
        <time>2021-03-28T07:01:16Z</time>
      </trkpt>
      <trkpt lat="42.86877" lon="2.86929">
        <ele>187</ele>
        <time>2021-03-28T07:01:16Z</time>
      </trkpt>
      <trkpt lat="42.86871" lon="2.86922">
        <ele>186.4</ele>
        <time>2021-03-28T07:01:18Z</time>
      </trkpt>
      <trkpt lat="42.86871" lon="2.86922">
        <ele>186.4</ele>
        <time>2021-03-28T07:01:18Z</time>
      </trkpt>
      <trkpt lat="42.86865" lon="2.86915">
        <ele>186</ele>
        <time>2021-03-28T07:01:20Z</time>
      </trkpt>
      <trkpt lat="42.86865" lon="2.86915">
        <ele>186</ele>
        <time>2021-03-28T07:01:20Z</time>
      </trkpt>
      <trkpt lat="42.8686" lon="2.86909">
        <ele>186</ele>
        <time>2021-03-28T07:01:21Z</time>
      </trkpt>
      <trkpt lat="42.8686" lon="2.86909">
        <ele>186</ele>
        <time>2021-03-28T07:01:21Z</time>
      </trkpt>
      <trkpt lat="42.86856" lon="2.86904">
        <ele>186.1</ele>
        <time>2021-03-28T07:01:22Z</time>
      </trkpt>
      <trkpt lat="42.86856" lon="2.86904">
        <ele>186.1</ele>
        <time>2021-03-28T07:01:22Z</time>
      </trkpt>
      <trkpt lat="42.86851" lon="2.86898">
        <ele>186.2</ele>
        <time>2021-03-28T07:01:24Z</time>
      </trkpt>
      <trkpt lat="42.86851" lon="2.86898">
        <ele>186.2</ele>
        <time>2021-03-28T07:01:24Z</time>
      </trkpt>
      <trkpt lat="42.86846" lon="2.86892">
        <ele>186.1</ele>
        <time>2021-03-28T07:01:25Z</time>
      </trkpt>
      <trkpt lat="42.86846" lon="2.86892">
        <ele>186.1</ele>
        <time>2021-03-28T07:01:25Z</time>
      </trkpt>
      <trkpt lat="42.86841" lon="2.86885">
        <ele>185.7</ele>
        <time>2021-03-28T07:01:27Z</time>
      </trkpt>
      <trkpt lat="42.86841" lon="2.86885">
        <ele>185.7</ele>
        <time>2021-03-28T07:01:27Z</time>
      </trkpt>
      <trkpt lat="42.86837" lon="2.8688">
        <ele>185.5</ele>
        <time>2021-03-28T07:01:28Z</time>
      </trkpt>
      <trkpt lat="42.86837" lon="2.8688">
        <ele>185.5</ele>
        <time>2021-03-28T07:01:28Z</time>
      </trkpt>
      <trkpt lat="42.86833" lon="2.86875">
        <ele>185.4</ele>
        <time>2021-03-28T07:01:29Z</time>
      </trkpt>
      <trkpt lat="42.86833" lon="2.86875">
        <ele>185.4</ele>
        <time>2021-03-28T07:01:29Z</time>
      </trkpt>
      <trkpt lat="42.86829" lon="2.8687">
        <ele>185.4</ele>
        <time>2021-03-28T07:01:31Z</time>
      </trkpt>
      <trkpt lat="42.86829" lon="2.8687">
        <ele>185.4</ele>
        <time>2021-03-28T07:01:31Z</time>
      </trkpt>
      <trkpt lat="42.86824" lon="2.86864">
        <ele>185.4</ele>
        <time>2021-03-28T07:01:33Z</time>
      </trkpt>
      <trkpt lat="42.86824" lon="2.86864">
        <ele>185.4</ele>
        <time>2021-03-28T07:01:33Z</time>
      </trkpt>
      <trkpt lat="42.86819" lon="2.86858">
        <ele>185.3</ele>
        <time>2021-03-28T07:01:35Z</time>
      </trkpt>
      <trkpt lat="42.86819" lon="2.86858">
        <ele>185.3</ele>
        <time>2021-03-28T07:01:35Z</time>
      </trkpt>
      <trkpt lat="42.86815" lon="2.86853">
        <ele>185.3</ele>
        <time>2021-03-28T07:01:36Z</time>
      </trkpt>
      <trkpt lat="42.86815" lon="2.86853">
        <ele>185.3</ele>
        <time>2021-03-28T07:01:36Z</time>
      </trkpt>
      <trkpt lat="42.86809" lon="2.86848">
        <ele>185.4</ele>
        <time>2021-03-28T07:01:38Z</time>
      </trkpt>
      <trkpt lat="42.86809" lon="2.86848">
        <ele>185.4</ele>
        <time>2021-03-28T07:01:38Z</time>
      </trkpt>
      <trkpt lat="42.86803" lon="2.86841">
        <ele>185.6</ele>
        <time>2021-03-28T07:01:40Z</time>
      </trkpt>
      <trkpt lat="42.86803" lon="2.86841">
        <ele>185.6</ele>
        <time>2021-03-28T07:01:40Z</time>
      </trkpt>
      <trkpt lat="42.86798" lon="2.86835">
        <ele>185.7</ele>
        <time>2021-03-28T07:01:41Z</time>
      </trkpt>
      <trkpt lat="42.86798" lon="2.86835">
        <ele>185.7</ele>
        <time>2021-03-28T07:01:41Z</time>
      </trkpt>
      <trkpt lat="42.86792" lon="2.86828">
        <ele>185.6</ele>
        <time>2021-03-28T07:01:43Z</time>
      </trkpt>
      <trkpt lat="42.86792" lon="2.86828">
        <ele>185.6</ele>
        <time>2021-03-28T07:01:43Z</time>
      </trkpt>
      <trkpt lat="42.86787" lon="2.86822">
        <ele>185.7</ele>
        <time>2021-03-28T07:01:44Z</time>
      </trkpt>
      <trkpt lat="42.86787" lon="2.86822">
        <ele>185.7</ele>
        <time>2021-03-28T07:01:44Z</time>
      </trkpt>
      <trkpt lat="42.86781" lon="2.86815">
        <ele>186</ele>
        <time>2021-03-28T07:01:46Z</time>
      </trkpt>
      <trkpt lat="42.86781" lon="2.86815">
        <ele>186</ele>
        <time>2021-03-28T07:01:46Z</time>
      </trkpt>
      <trkpt lat="42.86774" lon="2.86806">
        <ele>186.4</ele>
        <time>2021-03-28T07:01:48Z</time>
      </trkpt>
      <trkpt lat="42.86774" lon="2.86806">
        <ele>186.4</ele>
        <time>2021-03-28T07:01:48Z</time>
      </trkpt>
      <trkpt lat="42.86769" lon="2.86799">
        <ele>186.2</ele>
        <time>2021-03-28T07:01:49Z</time>
      </trkpt>
      <trkpt lat="42.86769" lon="2.86799">
        <ele>186.2</ele>
        <time>2021-03-28T07:01:49Z</time>
      </trkpt>
      <trkpt lat="42.86763" lon="2.86791">
        <ele>186</ele>
        <time>2021-03-28T07:01:51Z</time>
      </trkpt>
      <trkpt lat="42.86763" lon="2.86791">
        <ele>186</ele>
        <time>2021-03-28T07:01:51Z</time>
      </trkpt>
      <trkpt lat="42.86759" lon="2.86784">
        <ele>185.8</ele>
        <time>2021-03-28T07:01:52Z</time>
      </trkpt>
      <trkpt lat="42.86759" lon="2.86784">
        <ele>185.8</ele>
        <time>2021-03-28T07:01:52Z</time>
      </trkpt>
      <trkpt lat="42.86754" lon="2.86774">
        <ele>185.8</ele>
        <time>2021-03-28T07:01:54Z</time>
      </trkpt>
      <trkpt lat="42.86754" lon="2.86774">
        <ele>185.8</ele>
        <time>2021-03-28T07:01:54Z</time>
      </trkpt>
      <trkpt lat="42.86751" lon="2.86766">
        <ele>186</ele>
        <time>2021-03-28T07:01:55Z</time>
      </trkpt>
      <trkpt lat="42.86751" lon="2.86766">
        <ele>186</ele>
        <time>2021-03-28T07:01:55Z</time>
      </trkpt>
      <trkpt lat="42.86749" lon="2.86758">
        <ele>186.2</ele>
        <time>2021-03-28T07:01:56Z</time>
      </trkpt>
      <trkpt lat="42.86749" lon="2.86758">
        <ele>186.2</ele>
        <time>2021-03-28T07:01:56Z</time>
      </trkpt>
      <trkpt lat="42.86749" lon="2.8675">
        <ele>186.9</ele>
        <time>2021-03-28T07:01:58Z</time>
      </trkpt>
      <trkpt lat="42.86749" lon="2.8675">
        <ele>186.9</ele>
        <time>2021-03-28T07:01:58Z</time>
      </trkpt>
      <trkpt lat="42.86752" lon="2.86743">
        <ele>187.2</ele>
        <time>2021-03-28T07:02:00Z</time>
      </trkpt>
      <trkpt lat="42.86752" lon="2.86743">
        <ele>187.2</ele>
        <time>2021-03-28T07:02:00Z</time>
      </trkpt>
      <trkpt lat="42.86756" lon="2.86738">
        <ele>187.4</ele>
        <time>2021-03-28T07:02:01Z</time>
      </trkpt>
      <trkpt lat="42.86756" lon="2.86738">
        <ele>187.4</ele>
        <time>2021-03-28T07:02:01Z</time>
      </trkpt>
      <trkpt lat="42.86761" lon="2.86734">
        <ele>187.5</ele>
        <time>2021-03-28T07:02:03Z</time>
      </trkpt>
      <trkpt lat="42.86761" lon="2.86734">
        <ele>187.5</ele>
        <time>2021-03-28T07:02:03Z</time>
      </trkpt>
      <trkpt lat="42.86768" lon="2.86729">
        <ele>187.5</ele>
        <time>2021-03-28T07:02:05Z</time>
      </trkpt>
      <trkpt lat="42.86768" lon="2.86729">
        <ele>187.5</ele>
        <time>2021-03-28T07:02:05Z</time>
      </trkpt>
      <trkpt lat="42.86774" lon="2.86726">
        <ele>187.4</ele>
        <time>2021-03-28T07:02:06Z</time>
      </trkpt>
      <trkpt lat="42.86774" lon="2.86726">
        <ele>187.4</ele>
        <time>2021-03-28T07:02:06Z</time>
      </trkpt>
      <trkpt lat="42.86781" lon="2.86723">
        <ele>187.3</ele>
        <time>2021-03-28T07:02:08Z</time>
      </trkpt>
      <trkpt lat="42.86781" lon="2.86723">
        <ele>187.3</ele>
        <time>2021-03-28T07:02:08Z</time>
      </trkpt>
      <trkpt lat="42.86788" lon="2.86719">
        <ele>187.6</ele>
        <time>2021-03-28T07:02:09Z</time>
      </trkpt>
      <trkpt lat="42.86788" lon="2.86719">
        <ele>187.6</ele>
        <time>2021-03-28T07:02:09Z</time>
      </trkpt>
      <trkpt lat="42.86794" lon="2.86714">
        <ele>187.9</ele>
        <time>2021-03-28T07:02:11Z</time>
      </trkpt>
      <trkpt lat="42.86794" lon="2.86714">
        <ele>187.9</ele>
        <time>2021-03-28T07:02:11Z</time>
      </trkpt>
      <trkpt lat="42.86801" lon="2.86708">
        <ele>188.1</ele>
        <time>2021-03-28T07:02:13Z</time>
      </trkpt>
      <trkpt lat="42.86801" lon="2.86708">
        <ele>188.1</ele>
        <time>2021-03-28T07:02:13Z</time>
      </trkpt>
      <trkpt lat="42.86805" lon="2.86701">
        <ele>188.2</ele>
        <time>2021-03-28T07:02:14Z</time>
      </trkpt>
      <trkpt lat="42.86805" lon="2.86701">
        <ele>188.2</ele>
        <time>2021-03-28T07:02:14Z</time>
      </trkpt>
      <trkpt lat="42.8681" lon="2.86693">
        <ele>188.4</ele>
        <time>2021-03-28T07:02:16Z</time>
      </trkpt>
      <trkpt lat="42.8681" lon="2.86693">
        <ele>188.4</ele>
        <time>2021-03-28T07:02:16Z</time>
      </trkpt>
      <trkpt lat="42.86813" lon="2.86686">
        <ele>188.6</ele>
        <time>2021-03-28T07:02:17Z</time>
      </trkpt>
      <trkpt lat="42.86813" lon="2.86686">
        <ele>188.6</ele>
        <time>2021-03-28T07:02:17Z</time>
      </trkpt>
      <trkpt lat="42.86817" lon="2.86676">
        <ele>188.9</ele>
        <time>2021-03-28T07:02:19Z</time>
      </trkpt>
      <trkpt lat="42.86817" lon="2.86676">
        <ele>188.9</ele>
        <time>2021-03-28T07:02:19Z</time>
      </trkpt>
      <trkpt lat="42.86821" lon="2.86665">
        <ele>189.2</ele>
        <time>2021-03-28T07:02:21Z</time>
      </trkpt>
      <trkpt lat="42.86821" lon="2.86665">
        <ele>189.2</ele>
        <time>2021-03-28T07:02:21Z</time>
      </trkpt>
      <trkpt lat="42.86824" lon="2.86656">
        <ele>189.6</ele>
        <time>2021-03-28T07:02:22Z</time>
      </trkpt>
      <trkpt lat="42.86824" lon="2.86656">
        <ele>189.6</ele>
        <time>2021-03-28T07:02:22Z</time>
      </trkpt>
      <trkpt lat="42.86826" lon="2.86648">
        <ele>190</ele>
        <time>2021-03-28T07:02:23Z</time>
      </trkpt>
      <trkpt lat="42.86826" lon="2.86648">
        <ele>190</ele>
        <time>2021-03-28T07:02:23Z</time>
      </trkpt>
      <trkpt lat="42.86829" lon="2.86639">
        <ele>190.3</ele>
        <time>2021-03-28T07:02:25Z</time>
      </trkpt>
      <trkpt lat="42.86829" lon="2.86639">
        <ele>190.3</ele>
        <time>2021-03-28T07:02:25Z</time>
      </trkpt>
      <trkpt lat="42.86831" lon="2.86632">
        <ele>190.6</ele>
        <time>2021-03-28T07:02:26Z</time>
      </trkpt>
      <trkpt lat="42.86831" lon="2.86632">
        <ele>190.6</ele>
        <time>2021-03-28T07:02:26Z</time>
      </trkpt>
      <trkpt lat="42.86832" lon="2.86623">
        <ele>190.8</ele>
        <time>2021-03-28T07:02:28Z</time>
      </trkpt>
      <trkpt lat="42.86832" lon="2.86623">
        <ele>190.8</ele>
        <time>2021-03-28T07:02:28Z</time>
      </trkpt>
      <trkpt lat="42.86831" lon="2.86614">
        <ele>190.7</ele>
        <time>2021-03-28T07:02:30Z</time>
      </trkpt>
      <trkpt lat="42.86831" lon="2.86614">
        <ele>190.7</ele>
        <time>2021-03-28T07:02:30Z</time>
      </trkpt>
      <trkpt lat="42.8683" lon="2.86606">
        <ele>190.4</ele>
        <time>2021-03-28T07:02:31Z</time>
      </trkpt>
      <trkpt lat="42.8683" lon="2.86606">
        <ele>190.4</ele>
        <time>2021-03-28T07:02:31Z</time>
      </trkpt>
      <trkpt lat="42.86827" lon="2.86597">
        <ele>189.9</ele>
        <time>2021-03-28T07:02:33Z</time>
      </trkpt>
      <trkpt lat="42.86827" lon="2.86597">
        <ele>189.9</ele>
        <time>2021-03-28T07:02:33Z</time>
      </trkpt>
      <trkpt lat="42.86823" lon="2.86588">
        <ele>189.6</ele>
        <time>2021-03-28T07:02:35Z</time>
      </trkpt>
      <trkpt lat="42.86823" lon="2.86588">
        <ele>189.6</ele>
        <time>2021-03-28T07:02:35Z</time>
      </trkpt>
      <trkpt lat="42.86819" lon="2.8658">
        <ele>189.6</ele>
        <time>2021-03-28T07:02:36Z</time>
      </trkpt>
      <trkpt lat="42.86819" lon="2.8658">
        <ele>189.6</ele>
        <time>2021-03-28T07:02:36Z</time>
      </trkpt>
      <trkpt lat="42.86815" lon="2.86572">
        <ele>190</ele>
        <time>2021-03-28T07:02:38Z</time>
      </trkpt>
      <trkpt lat="42.86815" lon="2.86572">
        <ele>190</ele>
        <time>2021-03-28T07:02:38Z</time>
      </trkpt>
      <trkpt lat="42.86809" lon="2.86563">
        <ele>190.5</ele>
        <time>2021-03-28T07:02:40Z</time>
      </trkpt>
      <trkpt lat="42.86809" lon="2.86563">
        <ele>190.5</ele>
        <time>2021-03-28T07:02:40Z</time>
      </trkpt>
      <trkpt lat="42.86805" lon="2.86555">
        <ele>191</ele>
        <time>2021-03-28T07:02:41Z</time>
      </trkpt>
      <trkpt lat="42.86805" lon="2.86555">
        <ele>191</ele>
        <time>2021-03-28T07:02:41Z</time>
      </trkpt>
      <trkpt lat="42.86801" lon="2.86549">
        <ele>192</ele>
        <time>2021-03-28T07:02:42Z</time>
      </trkpt>
      <trkpt lat="42.86801" lon="2.86549">
        <ele>192</ele>
        <time>2021-03-28T07:02:42Z</time>
      </trkpt>
      <trkpt lat="42.86796" lon="2.86541">
        <ele>192.7</ele>
        <time>2021-03-28T07:02:44Z</time>
      </trkpt>
      <trkpt lat="42.86796" lon="2.86541">
        <ele>192.7</ele>
        <time>2021-03-28T07:02:44Z</time>
      </trkpt>
      <trkpt lat="42.86792" lon="2.86535">
        <ele>193.1</ele>
        <time>2021-03-28T07:02:45Z</time>
      </trkpt>
      <trkpt lat="42.86792" lon="2.86535">
        <ele>193.1</ele>
        <time>2021-03-28T07:02:45Z</time>
      </trkpt>
      <trkpt lat="42.86789" lon="2.8653">
        <ele>193.3</ele>
        <time>2021-03-28T07:02:46Z</time>
      </trkpt>
      <trkpt lat="42.86789" lon="2.8653">
        <ele>193.3</ele>
        <time>2021-03-28T07:02:46Z</time>
      </trkpt>
      <trkpt lat="42.86785" lon="2.86525">
        <ele>193.6</ele>
        <time>2021-03-28T07:02:47Z</time>
      </trkpt>
      <trkpt lat="42.86785" lon="2.86525">
        <ele>193.6</ele>
        <time>2021-03-28T07:02:47Z</time>
      </trkpt>
      <trkpt lat="42.86781" lon="2.86519">
        <ele>194.1</ele>
        <time>2021-03-28T07:02:49Z</time>
      </trkpt>
      <trkpt lat="42.86781" lon="2.86519">
        <ele>194.1</ele>
        <time>2021-03-28T07:02:49Z</time>
      </trkpt>
      <trkpt lat="42.86776" lon="2.86511">
        <ele>194.8</ele>
        <time>2021-03-28T07:02:51Z</time>
      </trkpt>
      <trkpt lat="42.86776" lon="2.86511">
        <ele>194.8</ele>
        <time>2021-03-28T07:02:51Z</time>
      </trkpt>
      <trkpt lat="42.86771" lon="2.86504">
        <ele>195.2</ele>
        <time>2021-03-28T07:02:53Z</time>
      </trkpt>
      <trkpt lat="42.86771" lon="2.86504">
        <ele>195.2</ele>
        <time>2021-03-28T07:02:53Z</time>
      </trkpt>
      <trkpt lat="42.86765" lon="2.86496">
        <ele>195.4</ele>
        <time>2021-03-28T07:02:55Z</time>
      </trkpt>
      <trkpt lat="42.86765" lon="2.86496">
        <ele>195.4</ele>
        <time>2021-03-28T07:02:55Z</time>
      </trkpt>
      <trkpt lat="42.8676" lon="2.8649">
        <ele>195.5</ele>
        <time>2021-03-28T07:02:56Z</time>
      </trkpt>
      <trkpt lat="42.8676" lon="2.8649">
        <ele>195.5</ele>
        <time>2021-03-28T07:02:56Z</time>
      </trkpt>
      <trkpt lat="42.86754" lon="2.86485">
        <ele>195.5</ele>
        <time>2021-03-28T07:02:58Z</time>
      </trkpt>
      <trkpt lat="42.86754" lon="2.86485">
        <ele>195.5</ele>
        <time>2021-03-28T07:02:58Z</time>
      </trkpt>
      <trkpt lat="42.86749" lon="2.8648">
        <ele>195.5</ele>
        <time>2021-03-28T07:02:59Z</time>
      </trkpt>
      <trkpt lat="42.86749" lon="2.8648">
        <ele>195.5</ele>
        <time>2021-03-28T07:02:59Z</time>
      </trkpt>
      <trkpt lat="42.86743" lon="2.86477">
        <ele>195.6</ele>
        <time>2021-03-28T07:03:01Z</time>
      </trkpt>
      <trkpt lat="42.86743" lon="2.86477">
        <ele>195.6</ele>
        <time>2021-03-28T07:03:01Z</time>
      </trkpt>
      <trkpt lat="42.86738" lon="2.86473">
        <ele>195.6</ele>
        <time>2021-03-28T07:03:02Z</time>
      </trkpt>
      <trkpt lat="42.86738" lon="2.86473">
        <ele>195.6</ele>
        <time>2021-03-28T07:03:02Z</time>
      </trkpt>
      <trkpt lat="42.86733" lon="2.86469">
        <ele>195.6</ele>
        <time>2021-03-28T07:03:04Z</time>
      </trkpt>
      <trkpt lat="42.86733" lon="2.86469">
        <ele>195.6</ele>
        <time>2021-03-28T07:03:04Z</time>
      </trkpt>
      <trkpt lat="42.86728" lon="2.86466">
        <ele>195.6</ele>
        <time>2021-03-28T07:03:05Z</time>
      </trkpt>
      <trkpt lat="42.86728" lon="2.86466">
        <ele>195.6</ele>
        <time>2021-03-28T07:03:05Z</time>
      </trkpt>
      <trkpt lat="42.86723" lon="2.86463">
        <ele>195.8</ele>
        <time>2021-03-28T07:03:06Z</time>
      </trkpt>
      <trkpt lat="42.86723" lon="2.86463">
        <ele>195.8</ele>
        <time>2021-03-28T07:03:06Z</time>
      </trkpt>
      <trkpt lat="42.86719" lon="2.8646">
        <ele>196.1</ele>
        <time>2021-03-28T07:03:07Z</time>
      </trkpt>
      <trkpt lat="42.86719" lon="2.8646">
        <ele>196.1</ele>
        <time>2021-03-28T07:03:07Z</time>
      </trkpt>
      <trkpt lat="42.86715" lon="2.86456">
        <ele>196.6</ele>
        <time>2021-03-28T07:03:09Z</time>
      </trkpt>
      <trkpt lat="42.86715" lon="2.86456">
        <ele>196.6</ele>
        <time>2021-03-28T07:03:09Z</time>
      </trkpt>
      <trkpt lat="42.86711" lon="2.86452">
        <ele>197</ele>
        <time>2021-03-28T07:03:10Z</time>
      </trkpt>
      <trkpt lat="42.86711" lon="2.86452">
        <ele>197</ele>
        <time>2021-03-28T07:03:10Z</time>
      </trkpt>
      <trkpt lat="42.86706" lon="2.86448">
        <ele>197.4</ele>
        <time>2021-03-28T07:03:12Z</time>
      </trkpt>
      <trkpt lat="42.86706" lon="2.86448">
        <ele>197.4</ele>
        <time>2021-03-28T07:03:12Z</time>
      </trkpt>
      <trkpt lat="42.86702" lon="2.86444">
        <ele>197.6</ele>
        <time>2021-03-28T07:03:13Z</time>
      </trkpt>
      <trkpt lat="42.86702" lon="2.86444">
        <ele>197.6</ele>
        <time>2021-03-28T07:03:13Z</time>
      </trkpt>
      <trkpt lat="42.86698" lon="2.8644">
        <ele>197.8</ele>
        <time>2021-03-28T07:03:14Z</time>
      </trkpt>
      <trkpt lat="42.86698" lon="2.8644">
        <ele>197.8</ele>
        <time>2021-03-28T07:03:14Z</time>
      </trkpt>
      <trkpt lat="42.86694" lon="2.86437">
        <ele>198.1</ele>
        <time>2021-03-28T07:03:15Z</time>
      </trkpt>
      <trkpt lat="42.86694" lon="2.86437">
        <ele>198.1</ele>
        <time>2021-03-28T07:03:15Z</time>
      </trkpt>
      <trkpt lat="42.86689" lon="2.86433">
        <ele>198.5</ele>
        <time>2021-03-28T07:03:17Z</time>
      </trkpt>
      <trkpt lat="42.86689" lon="2.86433">
        <ele>198.5</ele>
        <time>2021-03-28T07:03:17Z</time>
      </trkpt>
      <trkpt lat="42.86684" lon="2.86429">
        <ele>199</ele>
        <time>2021-03-28T07:03:18Z</time>
      </trkpt>
      <trkpt lat="42.86684" lon="2.86429">
        <ele>199</ele>
        <time>2021-03-28T07:03:18Z</time>
      </trkpt>
      <trkpt lat="42.8668" lon="2.86426">
        <ele>199.3</ele>
        <time>2021-03-28T07:03:19Z</time>
      </trkpt>
      <trkpt lat="42.8668" lon="2.86426">
        <ele>199.3</ele>
        <time>2021-03-28T07:03:19Z</time>
      </trkpt>
      <trkpt lat="42.86675" lon="2.86422">
        <ele>199.7</ele>
        <time>2021-03-28T07:03:21Z</time>
      </trkpt>
      <trkpt lat="42.86675" lon="2.86422">
        <ele>199.7</ele>
        <time>2021-03-28T07:03:21Z</time>
      </trkpt>
      <trkpt lat="42.8667" lon="2.86417">
        <ele>200.1</ele>
        <time>2021-03-28T07:03:23Z</time>
      </trkpt>
      <trkpt lat="42.8667" lon="2.86417">
        <ele>200.1</ele>
        <time>2021-03-28T07:03:23Z</time>
      </trkpt>
      <trkpt lat="42.86665" lon="2.86411">
        <ele>200.3</ele>
        <time>2021-03-28T07:03:25Z</time>
      </trkpt>
      <trkpt lat="42.86665" lon="2.86411">
        <ele>200.3</ele>
        <time>2021-03-28T07:03:25Z</time>
      </trkpt>
      <trkpt lat="42.86659" lon="2.86405">
        <ele>200.3</ele>
        <time>2021-03-28T07:03:27Z</time>
      </trkpt>
      <trkpt lat="42.86659" lon="2.86405">
        <ele>200.3</ele>
        <time>2021-03-28T07:03:27Z</time>
      </trkpt>
      <trkpt lat="42.86654" lon="2.86399">
        <ele>200.3</ele>
        <time>2021-03-28T07:03:28Z</time>
      </trkpt>
      <trkpt lat="42.86654" lon="2.86399">
        <ele>200.3</ele>
        <time>2021-03-28T07:03:28Z</time>
      </trkpt>
      <trkpt lat="42.86649" lon="2.86392">
        <ele>200.5</ele>
        <time>2021-03-28T07:03:30Z</time>
      </trkpt>
      <trkpt lat="42.86649" lon="2.86392">
        <ele>200.5</ele>
        <time>2021-03-28T07:03:30Z</time>
      </trkpt>
      <trkpt lat="42.86644" lon="2.86385">
        <ele>200.7</ele>
        <time>2021-03-28T07:03:32Z</time>
      </trkpt>
      <trkpt lat="42.86644" lon="2.86385">
        <ele>200.7</ele>
        <time>2021-03-28T07:03:32Z</time>
      </trkpt>
      <trkpt lat="42.86639" lon="2.86376">
        <ele>201</ele>
        <time>2021-03-28T07:03:34Z</time>
      </trkpt>
      <trkpt lat="42.86639" lon="2.86376">
        <ele>201</ele>
        <time>2021-03-28T07:03:34Z</time>
      </trkpt>
      <trkpt lat="42.86635" lon="2.86368">
        <ele>201.3</ele>
        <time>2021-03-28T07:03:35Z</time>
      </trkpt>
      <trkpt lat="42.86635" lon="2.86368">
        <ele>201.3</ele>
        <time>2021-03-28T07:03:35Z</time>
      </trkpt>
      <trkpt lat="42.86631" lon="2.8636">
        <ele>201.5</ele>
        <time>2021-03-28T07:03:37Z</time>
      </trkpt>
      <trkpt lat="42.86631" lon="2.8636">
        <ele>201.5</ele>
        <time>2021-03-28T07:03:37Z</time>
      </trkpt>
      <trkpt lat="42.86628" lon="2.86353">
        <ele>201.5</ele>
        <time>2021-03-28T07:03:38Z</time>
      </trkpt>
      <trkpt lat="42.86628" lon="2.86353">
        <ele>201.5</ele>
        <time>2021-03-28T07:03:38Z</time>
      </trkpt>
      <trkpt lat="42.86624" lon="2.86345">
        <ele>201.5</ele>
        <time>2021-03-28T07:03:40Z</time>
      </trkpt>
      <trkpt lat="42.86624" lon="2.86345">
        <ele>201.5</ele>
        <time>2021-03-28T07:03:40Z</time>
      </trkpt>
      <trkpt lat="42.8662" lon="2.86337">
        <ele>201.5</ele>
        <time>2021-03-28T07:03:42Z</time>
      </trkpt>
      <trkpt lat="42.8662" lon="2.86337">
        <ele>201.5</ele>
        <time>2021-03-28T07:03:42Z</time>
      </trkpt>
      <trkpt lat="42.86617" lon="2.8633">
        <ele>201.4</ele>
        <time>2021-03-28T07:03:43Z</time>
      </trkpt>
      <trkpt lat="42.86617" lon="2.8633">
        <ele>201.4</ele>
        <time>2021-03-28T07:03:43Z</time>
      </trkpt>
      <trkpt lat="42.86613" lon="2.86322">
        <ele>201.2</ele>
        <time>2021-03-28T07:03:45Z</time>
      </trkpt>
      <trkpt lat="42.86613" lon="2.86322">
        <ele>201.2</ele>
        <time>2021-03-28T07:03:45Z</time>
      </trkpt>
      <trkpt lat="42.8661" lon="2.86314">
        <ele>200.9</ele>
        <time>2021-03-28T07:03:46Z</time>
      </trkpt>
      <trkpt lat="42.8661" lon="2.86314">
        <ele>200.9</ele>
        <time>2021-03-28T07:03:46Z</time>
      </trkpt>
      <trkpt lat="42.86607" lon="2.86308">
        <ele>200.7</ele>
        <time>2021-03-28T07:03:47Z</time>
      </trkpt>
      <trkpt lat="42.86607" lon="2.86308">
        <ele>200.7</ele>
        <time>2021-03-28T07:03:47Z</time>
      </trkpt>
      <trkpt lat="42.86603" lon="2.863">
        <ele>200.7</ele>
        <time>2021-03-28T07:03:49Z</time>
      </trkpt>
      <trkpt lat="42.86603" lon="2.863">
        <ele>200.7</ele>
        <time>2021-03-28T07:03:49Z</time>
      </trkpt>
      <trkpt lat="42.866" lon="2.86292">
        <ele>200.7</ele>
        <time>2021-03-28T07:03:50Z</time>
      </trkpt>
      <trkpt lat="42.866" lon="2.86292">
        <ele>200.7</ele>
        <time>2021-03-28T07:03:50Z</time>
      </trkpt>
      <trkpt lat="42.86596" lon="2.86282">
        <ele>200.8</ele>
        <time>2021-03-28T07:03:52Z</time>
      </trkpt>
      <trkpt lat="42.86596" lon="2.86282">
        <ele>200.8</ele>
        <time>2021-03-28T07:03:52Z</time>
      </trkpt>
      <trkpt lat="42.86593" lon="2.86274">
        <ele>200.8</ele>
        <time>2021-03-28T07:03:53Z</time>
      </trkpt>
      <trkpt lat="42.86593" lon="2.86274">
        <ele>200.8</ele>
        <time>2021-03-28T07:03:53Z</time>
      </trkpt>
      <trkpt lat="42.86589" lon="2.86266">
        <ele>200.8</ele>
        <time>2021-03-28T07:03:54Z</time>
      </trkpt>
      <trkpt lat="42.86589" lon="2.86266">
        <ele>200.8</ele>
        <time>2021-03-28T07:03:54Z</time>
      </trkpt>
      <trkpt lat="42.86585" lon="2.86258">
        <ele>200.9</ele>
        <time>2021-03-28T07:03:56Z</time>
      </trkpt>
      <trkpt lat="42.86585" lon="2.86258">
        <ele>200.9</ele>
        <time>2021-03-28T07:03:56Z</time>
      </trkpt>
      <trkpt lat="42.86582" lon="2.8625">
        <ele>200.8</ele>
        <time>2021-03-28T07:03:57Z</time>
      </trkpt>
      <trkpt lat="42.86582" lon="2.8625">
        <ele>200.8</ele>
        <time>2021-03-28T07:03:57Z</time>
      </trkpt>
      <trkpt lat="42.86578" lon="2.8624">
        <ele>200.4</ele>
        <time>2021-03-28T07:03:59Z</time>
      </trkpt>
      <trkpt lat="42.86578" lon="2.8624">
        <ele>200.4</ele>
        <time>2021-03-28T07:03:59Z</time>
      </trkpt>
      <trkpt lat="42.86574" lon="2.86232">
        <ele>200.2</ele>
        <time>2021-03-28T07:04:00Z</time>
      </trkpt>
      <trkpt lat="42.86574" lon="2.86232">
        <ele>200.2</ele>
        <time>2021-03-28T07:04:00Z</time>
      </trkpt>
      <trkpt lat="42.86571" lon="2.86224">
        <ele>200.1</ele>
        <time>2021-03-28T07:04:01Z</time>
      </trkpt>
      <trkpt lat="42.86571" lon="2.86224">
        <ele>200.1</ele>
        <time>2021-03-28T07:04:01Z</time>
      </trkpt>
      <trkpt lat="42.86569" lon="2.86217">
        <ele>200.4</ele>
        <time>2021-03-28T07:04:02Z</time>
      </trkpt>
      <trkpt lat="42.86569" lon="2.86217">
        <ele>200.4</ele>
        <time>2021-03-28T07:04:02Z</time>
      </trkpt>
      <trkpt lat="42.86566" lon="2.8621">
        <ele>200.8</ele>
        <time>2021-03-28T07:04:03Z</time>
      </trkpt>
      <trkpt lat="42.86566" lon="2.8621">
        <ele>200.8</ele>
        <time>2021-03-28T07:04:03Z</time>
      </trkpt>
      <trkpt lat="42.86563" lon="2.86202">
        <ele>201.2</ele>
        <time>2021-03-28T07:04:05Z</time>
      </trkpt>
      <trkpt lat="42.86563" lon="2.86202">
        <ele>201.2</ele>
        <time>2021-03-28T07:04:05Z</time>
      </trkpt>
      <trkpt lat="42.8656" lon="2.86194">
        <ele>201.5</ele>
        <time>2021-03-28T07:04:06Z</time>
      </trkpt>
      <trkpt lat="42.8656" lon="2.86194">
        <ele>201.5</ele>
        <time>2021-03-28T07:04:06Z</time>
      </trkpt>
      <trkpt lat="42.86557" lon="2.86185">
        <ele>201.9</ele>
        <time>2021-03-28T07:04:08Z</time>
      </trkpt>
      <trkpt lat="42.86557" lon="2.86185">
        <ele>201.9</ele>
        <time>2021-03-28T07:04:08Z</time>
      </trkpt>
      <trkpt lat="42.86554" lon="2.86176">
        <ele>202.2</ele>
        <time>2021-03-28T07:04:10Z</time>
      </trkpt>
      <trkpt lat="42.86554" lon="2.86176">
        <ele>202.2</ele>
        <time>2021-03-28T07:04:10Z</time>
      </trkpt>
      <trkpt lat="42.86552" lon="2.86166">
        <ele>202.5</ele>
        <time>2021-03-28T07:04:12Z</time>
      </trkpt>
      <trkpt lat="42.86552" lon="2.86166">
        <ele>202.5</ele>
        <time>2021-03-28T07:04:12Z</time>
      </trkpt>
      <trkpt lat="42.86549" lon="2.86157">
        <ele>202.8</ele>
        <time>2021-03-28T07:04:13Z</time>
      </trkpt>
      <trkpt lat="42.86549" lon="2.86157">
        <ele>202.8</ele>
        <time>2021-03-28T07:04:13Z</time>
      </trkpt>
      <trkpt lat="42.86547" lon="2.86148">
        <ele>203.1</ele>
        <time>2021-03-28T07:04:15Z</time>
      </trkpt>
      <trkpt lat="42.86547" lon="2.86148">
        <ele>203.1</ele>
        <time>2021-03-28T07:04:15Z</time>
      </trkpt>
      <trkpt lat="42.86545" lon="2.86141">
        <ele>203.4</ele>
        <time>2021-03-28T07:04:16Z</time>
      </trkpt>
      <trkpt lat="42.86545" lon="2.86141">
        <ele>203.4</ele>
        <time>2021-03-28T07:04:16Z</time>
      </trkpt>
      <trkpt lat="42.86543" lon="2.86132">
        <ele>203.7</ele>
        <time>2021-03-28T07:04:18Z</time>
      </trkpt>
      <trkpt lat="42.86543" lon="2.86132">
        <ele>203.7</ele>
        <time>2021-03-28T07:04:18Z</time>
      </trkpt>
      <trkpt lat="42.86541" lon="2.86123">
        <ele>204</ele>
        <time>2021-03-28T07:04:20Z</time>
      </trkpt>
      <trkpt lat="42.86541" lon="2.86123">
        <ele>204</ele>
        <time>2021-03-28T07:04:20Z</time>
      </trkpt>
      <trkpt lat="42.86539" lon="2.86115">
        <ele>204.3</ele>
        <time>2021-03-28T07:04:21Z</time>
      </trkpt>
      <trkpt lat="42.86539" lon="2.86115">
        <ele>204.3</ele>
        <time>2021-03-28T07:04:21Z</time>
      </trkpt>
      <trkpt lat="42.86536" lon="2.86107">
        <ele>204.6</ele>
        <time>2021-03-28T07:04:23Z</time>
      </trkpt>
      <trkpt lat="42.86536" lon="2.86107">
        <ele>204.6</ele>
        <time>2021-03-28T07:04:23Z</time>
      </trkpt>
      <trkpt lat="42.86534" lon="2.861">
        <ele>204.9</ele>
        <time>2021-03-28T07:04:24Z</time>
      </trkpt>
      <trkpt lat="42.86534" lon="2.861">
        <ele>204.9</ele>
        <time>2021-03-28T07:04:24Z</time>
      </trkpt>
      <trkpt lat="42.86533" lon="2.86094">
        <ele>205.3</ele>
        <time>2021-03-28T07:04:25Z</time>
      </trkpt>
      <trkpt lat="42.86533" lon="2.86094">
        <ele>205.3</ele>
        <time>2021-03-28T07:04:25Z</time>
      </trkpt>
      <trkpt lat="42.8653" lon="2.86087">
        <ele>205.8</ele>
        <time>2021-03-28T07:04:27Z</time>
      </trkpt>
      <trkpt lat="42.8653" lon="2.86087">
        <ele>205.8</ele>
        <time>2021-03-28T07:04:27Z</time>
      </trkpt>
      <trkpt lat="42.86528" lon="2.86081">
        <ele>206.1</ele>
        <time>2021-03-28T07:04:28Z</time>
      </trkpt>
      <trkpt lat="42.86528" lon="2.86081">
        <ele>206.1</ele>
        <time>2021-03-28T07:04:28Z</time>
      </trkpt>
      <trkpt lat="42.86526" lon="2.86076">
        <ele>206.2</ele>
        <time>2021-03-28T07:04:29Z</time>
      </trkpt>
      <trkpt lat="42.86526" lon="2.86076">
        <ele>206.2</ele>
        <time>2021-03-28T07:04:29Z</time>
      </trkpt>
      <trkpt lat="42.86525" lon="2.8607">
        <ele>206.2</ele>
        <time>2021-03-28T07:04:30Z</time>
      </trkpt>
      <trkpt lat="42.86525" lon="2.8607">
        <ele>206.2</ele>
        <time>2021-03-28T07:04:30Z</time>
      </trkpt>
      <trkpt lat="42.86523" lon="2.86064">
        <ele>206.4</ele>
        <time>2021-03-28T07:04:32Z</time>
      </trkpt>
      <trkpt lat="42.86523" lon="2.86064">
        <ele>206.4</ele>
        <time>2021-03-28T07:04:32Z</time>
      </trkpt>
      <trkpt lat="42.8652" lon="2.86056">
        <ele>206.7</ele>
        <time>2021-03-28T07:04:34Z</time>
      </trkpt>
      <trkpt lat="42.8652" lon="2.86056">
        <ele>206.7</ele>
        <time>2021-03-28T07:04:34Z</time>
      </trkpt>
      <trkpt lat="42.86519" lon="2.86049">
        <ele>206.9</ele>
        <time>2021-03-28T07:04:35Z</time>
      </trkpt>
      <trkpt lat="42.86519" lon="2.86049">
        <ele>206.9</ele>
        <time>2021-03-28T07:04:35Z</time>
      </trkpt>
      <trkpt lat="42.86517" lon="2.86043">
        <ele>207.1</ele>
        <time>2021-03-28T07:04:36Z</time>
      </trkpt>
      <trkpt lat="42.86517" lon="2.86043">
        <ele>207.1</ele>
        <time>2021-03-28T07:04:36Z</time>
      </trkpt>
      <trkpt lat="42.86516" lon="2.86037">
        <ele>207.3</ele>
        <time>2021-03-28T07:04:37Z</time>
      </trkpt>
      <trkpt lat="42.86516" lon="2.86037">
        <ele>207.3</ele>
        <time>2021-03-28T07:04:37Z</time>
      </trkpt>
      <trkpt lat="42.86515" lon="2.86028">
        <ele>207.5</ele>
        <time>2021-03-28T07:04:39Z</time>
      </trkpt>
      <trkpt lat="42.86515" lon="2.86028">
        <ele>207.5</ele>
        <time>2021-03-28T07:04:39Z</time>
      </trkpt>
      <trkpt lat="42.86515" lon="2.86021">
        <ele>207.5</ele>
        <time>2021-03-28T07:04:40Z</time>
      </trkpt>
      <trkpt lat="42.86515" lon="2.86021">
        <ele>207.5</ele>
        <time>2021-03-28T07:04:40Z</time>
      </trkpt>
      <trkpt lat="42.86515" lon="2.86014">
        <ele>207.6</ele>
        <time>2021-03-28T07:04:41Z</time>
      </trkpt>
      <trkpt lat="42.86515" lon="2.86014">
        <ele>207.6</ele>
        <time>2021-03-28T07:04:41Z</time>
      </trkpt>
      <trkpt lat="42.86516" lon="2.86005">
        <ele>207.6</ele>
        <time>2021-03-28T07:04:43Z</time>
      </trkpt>
      <trkpt lat="42.86516" lon="2.86005">
        <ele>207.6</ele>
        <time>2021-03-28T07:04:43Z</time>
      </trkpt>
      <trkpt lat="42.86517" lon="2.85996">
        <ele>207.5</ele>
        <time>2021-03-28T07:04:44Z</time>
      </trkpt>
      <trkpt lat="42.86517" lon="2.85996">
        <ele>207.5</ele>
        <time>2021-03-28T07:04:44Z</time>
      </trkpt>
      <trkpt lat="42.86517" lon="2.85986">
        <ele>207.1</ele>
        <time>2021-03-28T07:04:46Z</time>
      </trkpt>
      <trkpt lat="42.86517" lon="2.85986">
        <ele>207.1</ele>
        <time>2021-03-28T07:04:46Z</time>
      </trkpt>
      <trkpt lat="42.86518" lon="2.85975">
        <ele>206.7</ele>
        <time>2021-03-28T07:04:48Z</time>
      </trkpt>
      <trkpt lat="42.86518" lon="2.85975">
        <ele>206.7</ele>
        <time>2021-03-28T07:04:48Z</time>
      </trkpt>
      <trkpt lat="42.86518" lon="2.85965">
        <ele>206.7</ele>
        <time>2021-03-28T07:04:49Z</time>
      </trkpt>
      <trkpt lat="42.86518" lon="2.85965">
        <ele>206.7</ele>
        <time>2021-03-28T07:04:49Z</time>
      </trkpt>
      <trkpt lat="42.86519" lon="2.85954">
        <ele>206.7</ele>
        <time>2021-03-28T07:04:51Z</time>
      </trkpt>
      <trkpt lat="42.86519" lon="2.85954">
        <ele>206.7</ele>
        <time>2021-03-28T07:04:51Z</time>
      </trkpt>
      <trkpt lat="42.86519" lon="2.85944">
        <ele>206.7</ele>
        <time>2021-03-28T07:04:52Z</time>
      </trkpt>
      <trkpt lat="42.86519" lon="2.85944">
        <ele>206.7</ele>
        <time>2021-03-28T07:04:52Z</time>
      </trkpt>
      <trkpt lat="42.8652" lon="2.85935">
        <ele>206.3</ele>
        <time>2021-03-28T07:04:53Z</time>
      </trkpt>
      <trkpt lat="42.8652" lon="2.85935">
        <ele>206.3</ele>
        <time>2021-03-28T07:04:53Z</time>
      </trkpt>
      <trkpt lat="42.8652" lon="2.85923">
        <ele>205.9</ele>
        <time>2021-03-28T07:04:55Z</time>
      </trkpt>
      <trkpt lat="42.8652" lon="2.85923">
        <ele>205.9</ele>
        <time>2021-03-28T07:04:55Z</time>
      </trkpt>
      <trkpt lat="42.86519" lon="2.8591">
        <ele>205.7</ele>
        <time>2021-03-28T07:04:57Z</time>
      </trkpt>
      <trkpt lat="42.86519" lon="2.8591">
        <ele>205.7</ele>
        <time>2021-03-28T07:04:57Z</time>
      </trkpt>
      <trkpt lat="42.86519" lon="2.85896">
        <ele>205.7</ele>
        <time>2021-03-28T07:04:59Z</time>
      </trkpt>
      <trkpt lat="42.86519" lon="2.85896">
        <ele>205.7</ele>
        <time>2021-03-28T07:04:59Z</time>
      </trkpt>
      <trkpt lat="42.86518" lon="2.85885">
        <ele>205.5</ele>
        <time>2021-03-28T07:05:00Z</time>
      </trkpt>
      <trkpt lat="42.86518" lon="2.85885">
        <ele>205.5</ele>
        <time>2021-03-28T07:05:00Z</time>
      </trkpt>
      <trkpt lat="42.86517" lon="2.85874">
        <ele>205.1</ele>
        <time>2021-03-28T07:05:01Z</time>
      </trkpt>
      <trkpt lat="42.86517" lon="2.85874">
        <ele>205.1</ele>
        <time>2021-03-28T07:05:01Z</time>
      </trkpt>
      <trkpt lat="42.86516" lon="2.8586">
        <ele>204.5</ele>
        <time>2021-03-28T07:05:03Z</time>
      </trkpt>
      <trkpt lat="42.86516" lon="2.8586">
        <ele>204.5</ele>
        <time>2021-03-28T07:05:03Z</time>
      </trkpt>
      <trkpt lat="42.86513" lon="2.85845">
        <ele>203.6</ele>
        <time>2021-03-28T07:05:05Z</time>
      </trkpt>
      <trkpt lat="42.86513" lon="2.85845">
        <ele>203.6</ele>
        <time>2021-03-28T07:05:05Z</time>
      </trkpt>
      <trkpt lat="42.86511" lon="2.85827">
        <ele>202.6</ele>
        <time>2021-03-28T07:05:07Z</time>
      </trkpt>
      <trkpt lat="42.86511" lon="2.85827">
        <ele>202.6</ele>
        <time>2021-03-28T07:05:07Z</time>
      </trkpt>
      <trkpt lat="42.86508" lon="2.85812">
        <ele>201.5</ele>
        <time>2021-03-28T07:05:08Z</time>
      </trkpt>
      <trkpt lat="42.86508" lon="2.85812">
        <ele>201.5</ele>
        <time>2021-03-28T07:05:08Z</time>
      </trkpt>
      <trkpt lat="42.86506" lon="2.85799">
        <ele>200.5</ele>
        <time>2021-03-28T07:05:09Z</time>
      </trkpt>
      <trkpt lat="42.86506" lon="2.85799">
        <ele>200.5</ele>
        <time>2021-03-28T07:05:09Z</time>
      </trkpt>
      <trkpt lat="42.86501" lon="2.85784">
        <ele>198.8</ele>
        <time>2021-03-28T07:05:11Z</time>
      </trkpt>
      <trkpt lat="42.86501" lon="2.85784">
        <ele>198.8</ele>
        <time>2021-03-28T07:05:11Z</time>
      </trkpt>
      <trkpt lat="42.86496" lon="2.85771">
        <ele>197.4</ele>
        <time>2021-03-28T07:05:12Z</time>
      </trkpt>
      <trkpt lat="42.86496" lon="2.85771">
        <ele>197.4</ele>
        <time>2021-03-28T07:05:12Z</time>
      </trkpt>
      <trkpt lat="42.86491" lon="2.8576">
        <ele>196.3</ele>
        <time>2021-03-28T07:05:13Z</time>
      </trkpt>
      <trkpt lat="42.86491" lon="2.8576">
        <ele>196.3</ele>
        <time>2021-03-28T07:05:13Z</time>
      </trkpt>
      <trkpt lat="42.86484" lon="2.85751">
        <ele>195.8</ele>
        <time>2021-03-28T07:05:14Z</time>
      </trkpt>
      <trkpt lat="42.86484" lon="2.85751">
        <ele>195.8</ele>
        <time>2021-03-28T07:05:14Z</time>
      </trkpt>
      <trkpt lat="42.86474" lon="2.85741">
        <ele>195.5</ele>
        <time>2021-03-28T07:05:16Z</time>
      </trkpt>
      <trkpt lat="42.86474" lon="2.85741">
        <ele>195.5</ele>
        <time>2021-03-28T07:05:16Z</time>
      </trkpt>
      <trkpt lat="42.86465" lon="2.85733">
        <ele>195</ele>
        <time>2021-03-28T07:05:17Z</time>
      </trkpt>
      <trkpt lat="42.86465" lon="2.85733">
        <ele>195</ele>
        <time>2021-03-28T07:05:17Z</time>
      </trkpt>
      <trkpt lat="42.86456" lon="2.85726">
        <ele>194.7</ele>
        <time>2021-03-28T07:05:18Z</time>
      </trkpt>
      <trkpt lat="42.86456" lon="2.85726">
        <ele>194.7</ele>
        <time>2021-03-28T07:05:18Z</time>
      </trkpt>
      <trkpt lat="42.86444" lon="2.85719">
        <ele>194.5</ele>
        <time>2021-03-28T07:05:20Z</time>
      </trkpt>
      <trkpt lat="42.86444" lon="2.85719">
        <ele>194.5</ele>
        <time>2021-03-28T07:05:20Z</time>
      </trkpt>
      <trkpt lat="42.8643" lon="2.85712">
        <ele>193.1</ele>
        <time>2021-03-28T07:05:22Z</time>
      </trkpt>
      <trkpt lat="42.8643" lon="2.85712">
        <ele>193.1</ele>
        <time>2021-03-28T07:05:22Z</time>
      </trkpt>
      <trkpt lat="42.86417" lon="2.85706">
        <ele>192.2</ele>
        <time>2021-03-28T07:05:23Z</time>
      </trkpt>
      <trkpt lat="42.86417" lon="2.85706">
        <ele>192.2</ele>
        <time>2021-03-28T07:05:23Z</time>
      </trkpt>
      <trkpt lat="42.86403" lon="2.857">
        <ele>191.6</ele>
        <time>2021-03-28T07:05:25Z</time>
      </trkpt>
      <trkpt lat="42.86403" lon="2.857">
        <ele>191.6</ele>
        <time>2021-03-28T07:05:25Z</time>
      </trkpt>
      <trkpt lat="42.8639" lon="2.85695">
        <ele>191.1</ele>
        <time>2021-03-28T07:05:26Z</time>
      </trkpt>
      <trkpt lat="42.8639" lon="2.85695">
        <ele>191.1</ele>
        <time>2021-03-28T07:05:26Z</time>
      </trkpt>
      <trkpt lat="42.86375" lon="2.8569">
        <ele>190</ele>
        <time>2021-03-28T07:05:28Z</time>
      </trkpt>
      <trkpt lat="42.86375" lon="2.8569">
        <ele>190</ele>
        <time>2021-03-28T07:05:28Z</time>
      </trkpt>
      <trkpt lat="42.8636" lon="2.85685">
        <ele>188.9</ele>
        <time>2021-03-28T07:05:30Z</time>
      </trkpt>
      <trkpt lat="42.8636" lon="2.85685">
        <ele>188.9</ele>
        <time>2021-03-28T07:05:30Z</time>
      </trkpt>
      <trkpt lat="42.86346" lon="2.85674">
        <ele>187.2</ele>
        <time>2021-03-28T07:05:32Z</time>
      </trkpt>
      <trkpt lat="42.86346" lon="2.85674">
        <ele>187.2</ele>
        <time>2021-03-28T07:05:32Z</time>
      </trkpt>
      <trkpt lat="42.86338" lon="2.8566">
        <ele>185.4</ele>
        <time>2021-03-28T07:05:34Z</time>
      </trkpt>
      <trkpt lat="42.86338" lon="2.8566">
        <ele>185.4</ele>
        <time>2021-03-28T07:05:34Z</time>
      </trkpt>
      <trkpt lat="42.86333" lon="2.85648">
        <ele>184</ele>
        <time>2021-03-28T07:05:35Z</time>
      </trkpt>
      <trkpt lat="42.86333" lon="2.85648">
        <ele>184</ele>
        <time>2021-03-28T07:05:35Z</time>
      </trkpt>
      <trkpt lat="42.86333" lon="2.85633">
        <ele>183</ele>
        <time>2021-03-28T07:05:37Z</time>
      </trkpt>
      <trkpt lat="42.86333" lon="2.85633">
        <ele>183</ele>
        <time>2021-03-28T07:05:37Z</time>
      </trkpt>
      <trkpt lat="42.86336" lon="2.85616">
        <ele>182.1</ele>
        <time>2021-03-28T07:05:39Z</time>
      </trkpt>
      <trkpt lat="42.86336" lon="2.85616">
        <ele>182.1</ele>
        <time>2021-03-28T07:05:39Z</time>
      </trkpt>
      <trkpt lat="42.86344" lon="2.85599">
        <ele>181.6</ele>
        <time>2021-03-28T07:05:41Z</time>
      </trkpt>
      <trkpt lat="42.86344" lon="2.85599">
        <ele>181.6</ele>
        <time>2021-03-28T07:05:41Z</time>
      </trkpt>
      <trkpt lat="42.86353" lon="2.85581">
        <ele>180.4</ele>
        <time>2021-03-28T07:05:43Z</time>
      </trkpt>
      <trkpt lat="42.86353" lon="2.85581">
        <ele>180.4</ele>
        <time>2021-03-28T07:05:43Z</time>
      </trkpt>
      <trkpt lat="42.86362" lon="2.85565">
        <ele>179.5</ele>
        <time>2021-03-28T07:05:44Z</time>
      </trkpt>
      <trkpt lat="42.86362" lon="2.85565">
        <ele>179.5</ele>
        <time>2021-03-28T07:05:44Z</time>
      </trkpt>
      <trkpt lat="42.8637" lon="2.85551">
        <ele>179.5</ele>
        <time>2021-03-28T07:05:45Z</time>
      </trkpt>
      <trkpt lat="42.8637" lon="2.85551">
        <ele>179.5</ele>
        <time>2021-03-28T07:05:45Z</time>
      </trkpt>
      <trkpt lat="42.86378" lon="2.85532">
        <ele>179.4</ele>
        <time>2021-03-28T07:05:47Z</time>
      </trkpt>
      <trkpt lat="42.86378" lon="2.85532">
        <ele>179.4</ele>
        <time>2021-03-28T07:05:47Z</time>
      </trkpt>
      <trkpt lat="42.86386" lon="2.85512">
        <ele>177</ele>
        <time>2021-03-28T07:05:49Z</time>
      </trkpt>
      <trkpt lat="42.86386" lon="2.85512">
        <ele>177</ele>
        <time>2021-03-28T07:05:49Z</time>
      </trkpt>
      <trkpt lat="42.86395" lon="2.85491">
        <ele>175.2</ele>
        <time>2021-03-28T07:05:51Z</time>
      </trkpt>
      <trkpt lat="42.86395" lon="2.85491">
        <ele>175.2</ele>
        <time>2021-03-28T07:05:51Z</time>
      </trkpt>
      <trkpt lat="42.86403" lon="2.85469">
        <ele>174</ele>
        <time>2021-03-28T07:05:53Z</time>
      </trkpt>
      <trkpt lat="42.86403" lon="2.85469">
        <ele>174</ele>
        <time>2021-03-28T07:05:53Z</time>
      </trkpt>
      <trkpt lat="42.86411" lon="2.85446">
        <ele>171.6</ele>
        <time>2021-03-28T07:05:55Z</time>
      </trkpt>
      <trkpt lat="42.86411" lon="2.85446">
        <ele>171.6</ele>
        <time>2021-03-28T07:05:55Z</time>
      </trkpt>
      <trkpt lat="42.86417" lon="2.85427">
        <ele>169.4</ele>
        <time>2021-03-28T07:05:56Z</time>
      </trkpt>
      <trkpt lat="42.86417" lon="2.85427">
        <ele>169.4</ele>
        <time>2021-03-28T07:05:56Z</time>
      </trkpt>
      <trkpt lat="42.86419" lon="2.85407">
        <ele>169.7</ele>
        <time>2021-03-28T07:05:58Z</time>
      </trkpt>
      <trkpt lat="42.86419" lon="2.85407">
        <ele>169.7</ele>
        <time>2021-03-28T07:05:58Z</time>
      </trkpt>
      <trkpt lat="42.8642" lon="2.8539">
        <ele>169.7</ele>
        <time>2021-03-28T07:05:59Z</time>
      </trkpt>
      <trkpt lat="42.8642" lon="2.8539">
        <ele>169.7</ele>
        <time>2021-03-28T07:05:59Z</time>
      </trkpt>
      <trkpt lat="42.86416" lon="2.85373">
        <ele>169</ele>
        <time>2021-03-28T07:06:01Z</time>
      </trkpt>
      <trkpt lat="42.86416" lon="2.85373">
        <ele>169</ele>
        <time>2021-03-28T07:06:01Z</time>
      </trkpt>
      <trkpt lat="42.86411" lon="2.85354">
        <ele>168.8</ele>
        <time>2021-03-28T07:06:03Z</time>
      </trkpt>
      <trkpt lat="42.86411" lon="2.85354">
        <ele>168.8</ele>
        <time>2021-03-28T07:06:03Z</time>
      </trkpt>
      <trkpt lat="42.86405" lon="2.85335">
        <ele>168</ele>
        <time>2021-03-28T07:06:05Z</time>
      </trkpt>
      <trkpt lat="42.86405" lon="2.85335">
        <ele>168</ele>
        <time>2021-03-28T07:06:05Z</time>
      </trkpt>
      <trkpt lat="42.86399" lon="2.85318">
        <ele>167.3</ele>
        <time>2021-03-28T07:06:06Z</time>
      </trkpt>
      <trkpt lat="42.86399" lon="2.85318">
        <ele>167.3</ele>
        <time>2021-03-28T07:06:06Z</time>
      </trkpt>
      <trkpt lat="42.86392" lon="2.85299">
        <ele>166.6</ele>
        <time>2021-03-28T07:06:08Z</time>
      </trkpt>
      <trkpt lat="42.86392" lon="2.85299">
        <ele>166.6</ele>
        <time>2021-03-28T07:06:08Z</time>
      </trkpt>
      <trkpt lat="42.86386" lon="2.85282">
        <ele>166.1</ele>
        <time>2021-03-28T07:06:09Z</time>
      </trkpt>
      <trkpt lat="42.86386" lon="2.85282">
        <ele>166.1</ele>
        <time>2021-03-28T07:06:09Z</time>
      </trkpt>
      <trkpt lat="42.8638" lon="2.85266">
        <ele>166.2</ele>
        <time>2021-03-28T07:06:10Z</time>
      </trkpt>
      <trkpt lat="42.8638" lon="2.85266">
        <ele>166.2</ele>
        <time>2021-03-28T07:06:10Z</time>
      </trkpt>
      <trkpt lat="42.86374" lon="2.85248">
        <ele>165.3</ele>
        <time>2021-03-28T07:06:12Z</time>
      </trkpt>
      <trkpt lat="42.86374" lon="2.85248">
        <ele>165.3</ele>
        <time>2021-03-28T07:06:12Z</time>
      </trkpt>
      <trkpt lat="42.86367" lon="2.85232">
        <ele>164.7</ele>
        <time>2021-03-28T07:06:13Z</time>
      </trkpt>
      <trkpt lat="42.86367" lon="2.85232">
        <ele>164.7</ele>
        <time>2021-03-28T07:06:13Z</time>
      </trkpt>
      <trkpt lat="42.86359" lon="2.85213">
        <ele>162.7</ele>
        <time>2021-03-28T07:06:15Z</time>
      </trkpt>
      <trkpt lat="42.86359" lon="2.85213">
        <ele>162.7</ele>
        <time>2021-03-28T07:06:15Z</time>
      </trkpt>
      <trkpt lat="42.86351" lon="2.85197">
        <ele>163.3</ele>
        <time>2021-03-28T07:06:16Z</time>
      </trkpt>
      <trkpt lat="42.86351" lon="2.85197">
        <ele>163.3</ele>
        <time>2021-03-28T07:06:16Z</time>
      </trkpt>
      <trkpt lat="42.86344" lon="2.85182">
        <ele>162.9</ele>
        <time>2021-03-28T07:06:17Z</time>
      </trkpt>
      <trkpt lat="42.86344" lon="2.85182">
        <ele>162.9</ele>
        <time>2021-03-28T07:06:17Z</time>
      </trkpt>
      <trkpt lat="42.86336" lon="2.85166">
        <ele>160</ele>
        <time>2021-03-28T07:06:19Z</time>
      </trkpt>
      <trkpt lat="42.86336" lon="2.85166">
        <ele>160</ele>
        <time>2021-03-28T07:06:19Z</time>
      </trkpt>
      <trkpt lat="42.86328" lon="2.85151">
        <ele>160.8</ele>
        <time>2021-03-28T07:06:20Z</time>
      </trkpt>
      <trkpt lat="42.86328" lon="2.85151">
        <ele>160.8</ele>
        <time>2021-03-28T07:06:20Z</time>
      </trkpt>
      <trkpt lat="42.86321" lon="2.85137">
        <ele>160.4</ele>
        <time>2021-03-28T07:06:21Z</time>
      </trkpt>
      <trkpt lat="42.86321" lon="2.85137">
        <ele>160.4</ele>
        <time>2021-03-28T07:06:21Z</time>
      </trkpt>
      <trkpt lat="42.86313" lon="2.8512">
        <ele>157.7</ele>
        <time>2021-03-28T07:06:23Z</time>
      </trkpt>
      <trkpt lat="42.86313" lon="2.8512">
        <ele>157.7</ele>
        <time>2021-03-28T07:06:23Z</time>
      </trkpt>
      <trkpt lat="42.86306" lon="2.85105">
        <ele>154.8</ele>
        <time>2021-03-28T07:06:24Z</time>
      </trkpt>
      <trkpt lat="42.86306" lon="2.85105">
        <ele>154.8</ele>
        <time>2021-03-28T07:06:24Z</time>
      </trkpt>
      <trkpt lat="42.86297" lon="2.85086">
        <ele>153</ele>
        <time>2021-03-28T07:06:26Z</time>
      </trkpt>
      <trkpt lat="42.86297" lon="2.85086">
        <ele>153</ele>
        <time>2021-03-28T07:06:26Z</time>
      </trkpt>
      <trkpt lat="42.8629" lon="2.8507">
        <ele>152</ele>
        <time>2021-03-28T07:06:27Z</time>
      </trkpt>
      <trkpt lat="42.8629" lon="2.8507">
        <ele>152</ele>
        <time>2021-03-28T07:06:27Z</time>
      </trkpt>
      <trkpt lat="42.86281" lon="2.85051">
        <ele>152.1</ele>
        <time>2021-03-28T07:06:29Z</time>
      </trkpt>
      <trkpt lat="42.86281" lon="2.85051">
        <ele>152.1</ele>
        <time>2021-03-28T07:06:29Z</time>
      </trkpt>
      <trkpt lat="42.86271" lon="2.85032">
        <ele>153</ele>
        <time>2021-03-28T07:06:31Z</time>
      </trkpt>
      <trkpt lat="42.86271" lon="2.85032">
        <ele>153</ele>
        <time>2021-03-28T07:06:31Z</time>
      </trkpt>
      <trkpt lat="42.86261" lon="2.85012">
        <ele>152.4</ele>
        <time>2021-03-28T07:06:33Z</time>
      </trkpt>
      <trkpt lat="42.86261" lon="2.85012">
        <ele>152.4</ele>
        <time>2021-03-28T07:06:33Z</time>
      </trkpt>
      <trkpt lat="42.86251" lon="2.84995">
        <ele>150.6</ele>
        <time>2021-03-28T07:06:34Z</time>
      </trkpt>
      <trkpt lat="42.86251" lon="2.84995">
        <ele>150.6</ele>
        <time>2021-03-28T07:06:34Z</time>
      </trkpt>
      <trkpt lat="42.86241" lon="2.84978">
        <ele>151.1</ele>
        <time>2021-03-28T07:06:36Z</time>
      </trkpt>
      <trkpt lat="42.86241" lon="2.84978">
        <ele>151.1</ele>
        <time>2021-03-28T07:06:36Z</time>
      </trkpt>
      <trkpt lat="42.86232" lon="2.84963">
        <ele>151.2</ele>
        <time>2021-03-28T07:06:37Z</time>
      </trkpt>
      <trkpt lat="42.86232" lon="2.84963">
        <ele>151.2</ele>
        <time>2021-03-28T07:06:37Z</time>
      </trkpt>
      <trkpt lat="42.86224" lon="2.84951">
        <ele>150.2</ele>
        <time>2021-03-28T07:06:38Z</time>
      </trkpt>
      <trkpt lat="42.86224" lon="2.84951">
        <ele>150.2</ele>
        <time>2021-03-28T07:06:38Z</time>
      </trkpt>
      <trkpt lat="42.86215" lon="2.84937">
        <ele>149.7</ele>
        <time>2021-03-28T07:06:40Z</time>
      </trkpt>
      <trkpt lat="42.86215" lon="2.84937">
        <ele>149.7</ele>
        <time>2021-03-28T07:06:40Z</time>
      </trkpt>
      <trkpt lat="42.86207" lon="2.84925">
        <ele>149.4</ele>
        <time>2021-03-28T07:06:41Z</time>
      </trkpt>
      <trkpt lat="42.86207" lon="2.84925">
        <ele>149.4</ele>
        <time>2021-03-28T07:06:41Z</time>
      </trkpt>
      <trkpt lat="42.86199" lon="2.84914">
        <ele>149</ele>
        <time>2021-03-28T07:06:42Z</time>
      </trkpt>
      <trkpt lat="42.86199" lon="2.84914">
        <ele>149</ele>
        <time>2021-03-28T07:06:42Z</time>
      </trkpt>
      <trkpt lat="42.8619" lon="2.84904">
        <ele>149.4</ele>
        <time>2021-03-28T07:06:44Z</time>
      </trkpt>
      <trkpt lat="42.8619" lon="2.84904">
        <ele>149.4</ele>
        <time>2021-03-28T07:06:44Z</time>
      </trkpt>
      <trkpt lat="42.86181" lon="2.84895">
        <ele>149.6</ele>
        <time>2021-03-28T07:06:45Z</time>
      </trkpt>
      <trkpt lat="42.86181" lon="2.84895">
        <ele>149.6</ele>
        <time>2021-03-28T07:06:45Z</time>
      </trkpt>
      <trkpt lat="42.86173" lon="2.84887">
        <ele>149.2</ele>
        <time>2021-03-28T07:06:46Z</time>
      </trkpt>
      <trkpt lat="42.86173" lon="2.84887">
        <ele>149.2</ele>
        <time>2021-03-28T07:06:46Z</time>
      </trkpt>
      <trkpt lat="42.86166" lon="2.8488">
        <ele>148.9</ele>
        <time>2021-03-28T07:06:47Z</time>
      </trkpt>
      <trkpt lat="42.86166" lon="2.8488">
        <ele>148.9</ele>
        <time>2021-03-28T07:06:47Z</time>
      </trkpt>
      <trkpt lat="42.86157" lon="2.84869">
        <ele>149.2</ele>
        <time>2021-03-28T07:06:49Z</time>
      </trkpt>
      <trkpt lat="42.86157" lon="2.84869">
        <ele>149.2</ele>
        <time>2021-03-28T07:06:49Z</time>
      </trkpt>
      <trkpt lat="42.8615" lon="2.84859">
        <ele>149.1</ele>
        <time>2021-03-28T07:06:50Z</time>
      </trkpt>
      <trkpt lat="42.8615" lon="2.84859">
        <ele>149.1</ele>
        <time>2021-03-28T07:06:50Z</time>
      </trkpt>
      <trkpt lat="42.86142" lon="2.84847">
        <ele>148.6</ele>
        <time>2021-03-28T07:06:52Z</time>
      </trkpt>
      <trkpt lat="42.86142" lon="2.84847">
        <ele>148.6</ele>
        <time>2021-03-28T07:06:52Z</time>
      </trkpt>
      <trkpt lat="42.86134" lon="2.84833">
        <ele>147.9</ele>
        <time>2021-03-28T07:06:54Z</time>
      </trkpt>
      <trkpt lat="42.86134" lon="2.84833">
        <ele>147.9</ele>
        <time>2021-03-28T07:06:54Z</time>
      </trkpt>
      <trkpt lat="42.86125" lon="2.8482">
        <ele>147.1</ele>
        <time>2021-03-28T07:06:56Z</time>
      </trkpt>
      <trkpt lat="42.86125" lon="2.8482">
        <ele>147.1</ele>
        <time>2021-03-28T07:06:56Z</time>
      </trkpt>
      <trkpt lat="42.86117" lon="2.8481">
        <ele>146.6</ele>
        <time>2021-03-28T07:06:57Z</time>
      </trkpt>
      <trkpt lat="42.86117" lon="2.8481">
        <ele>146.6</ele>
        <time>2021-03-28T07:06:57Z</time>
      </trkpt>
      <trkpt lat="42.8611" lon="2.848">
        <ele>146.5</ele>
        <time>2021-03-28T07:06:58Z</time>
      </trkpt>
      <trkpt lat="42.8611" lon="2.848">
        <ele>146.5</ele>
        <time>2021-03-28T07:06:58Z</time>
      </trkpt>
      <trkpt lat="42.86102" lon="2.84788">
        <ele>146.4</ele>
        <time>2021-03-28T07:07:00Z</time>
      </trkpt>
      <trkpt lat="42.86102" lon="2.84788">
        <ele>146.4</ele>
        <time>2021-03-28T07:07:00Z</time>
      </trkpt>
      <trkpt lat="42.86096" lon="2.84777">
        <ele>146.4</ele>
        <time>2021-03-28T07:07:01Z</time>
      </trkpt>
      <trkpt lat="42.86096" lon="2.84777">
        <ele>146.4</ele>
        <time>2021-03-28T07:07:01Z</time>
      </trkpt>
      <trkpt lat="42.86091" lon="2.84766">
        <ele>146.2</ele>
        <time>2021-03-28T07:07:02Z</time>
      </trkpt>
      <trkpt lat="42.86091" lon="2.84766">
        <ele>146.2</ele>
        <time>2021-03-28T07:07:02Z</time>
      </trkpt>
      <trkpt lat="42.86087" lon="2.84753">
        <ele>146</ele>
        <time>2021-03-28T07:07:04Z</time>
      </trkpt>
      <trkpt lat="42.86087" lon="2.84753">
        <ele>146</ele>
        <time>2021-03-28T07:07:04Z</time>
      </trkpt>
      <trkpt lat="42.86084" lon="2.84738">
        <ele>146.1</ele>
        <time>2021-03-28T07:07:06Z</time>
      </trkpt>
      <trkpt lat="42.86084" lon="2.84738">
        <ele>146.1</ele>
        <time>2021-03-28T07:07:06Z</time>
      </trkpt>
      <trkpt lat="42.86083" lon="2.84723">
        <ele>146.9</ele>
        <time>2021-03-28T07:07:08Z</time>
      </trkpt>
      <trkpt lat="42.86083" lon="2.84723">
        <ele>146.9</ele>
        <time>2021-03-28T07:07:08Z</time>
      </trkpt>
      <trkpt lat="42.86084" lon="2.84707">
        <ele>147.1</ele>
        <time>2021-03-28T07:07:10Z</time>
      </trkpt>
      <trkpt lat="42.86084" lon="2.84707">
        <ele>147.1</ele>
        <time>2021-03-28T07:07:10Z</time>
      </trkpt>
      <trkpt lat="42.86085" lon="2.8469">
        <ele>147.6</ele>
        <time>2021-03-28T07:07:12Z</time>
      </trkpt>
      <trkpt lat="42.86085" lon="2.8469">
        <ele>147.6</ele>
        <time>2021-03-28T07:07:12Z</time>
      </trkpt>
      <trkpt lat="42.86085" lon="2.84676">
        <ele>147.5</ele>
        <time>2021-03-28T07:07:13Z</time>
      </trkpt>
      <trkpt lat="42.86085" lon="2.84676">
        <ele>147.5</ele>
        <time>2021-03-28T07:07:13Z</time>
      </trkpt>
      <trkpt lat="42.86085" lon="2.84664">
        <ele>147.3</ele>
        <time>2021-03-28T07:07:14Z</time>
      </trkpt>
      <trkpt lat="42.86085" lon="2.84664">
        <ele>147.3</ele>
        <time>2021-03-28T07:07:14Z</time>
      </trkpt>
      <trkpt lat="42.86083" lon="2.84651">
        <ele>146</ele>
        <time>2021-03-28T07:07:16Z</time>
      </trkpt>
      <trkpt lat="42.86083" lon="2.84651">
        <ele>146</ele>
        <time>2021-03-28T07:07:16Z</time>
      </trkpt>
      <trkpt lat="42.86079" lon="2.84637">
        <ele>144.8</ele>
        <time>2021-03-28T07:07:18Z</time>
      </trkpt>
      <trkpt lat="42.86079" lon="2.84637">
        <ele>144.8</ele>
        <time>2021-03-28T07:07:18Z</time>
      </trkpt>
      <trkpt lat="42.86075" lon="2.84627">
        <ele>143.6</ele>
        <time>2021-03-28T07:07:19Z</time>
      </trkpt>
      <trkpt lat="42.86075" lon="2.84627">
        <ele>143.6</ele>
        <time>2021-03-28T07:07:19Z</time>
      </trkpt>
      <trkpt lat="42.86069" lon="2.84618">
        <ele>142.7</ele>
        <time>2021-03-28T07:07:21Z</time>
      </trkpt>
      <trkpt lat="42.86069" lon="2.84618">
        <ele>142.7</ele>
        <time>2021-03-28T07:07:21Z</time>
      </trkpt>
      <trkpt lat="42.8606" lon="2.84612">
        <ele>142.3</ele>
        <time>2021-03-28T07:07:23Z</time>
      </trkpt>
      <trkpt lat="42.8606" lon="2.84612">
        <ele>142.3</ele>
        <time>2021-03-28T07:07:23Z</time>
      </trkpt>
      <trkpt lat="42.86051" lon="2.84608">
        <ele>143.8</ele>
        <time>2021-03-28T07:07:24Z</time>
      </trkpt>
      <trkpt lat="42.86051" lon="2.84608">
        <ele>143.8</ele>
        <time>2021-03-28T07:07:24Z</time>
      </trkpt>
      <trkpt lat="42.86041" lon="2.84606">
        <ele>145.2</ele>
        <time>2021-03-28T07:07:26Z</time>
      </trkpt>
      <trkpt lat="42.86041" lon="2.84606">
        <ele>145.2</ele>
        <time>2021-03-28T07:07:26Z</time>
      </trkpt>
      <trkpt lat="42.86032" lon="2.84605">
        <ele>146.3</ele>
        <time>2021-03-28T07:07:27Z</time>
      </trkpt>
      <trkpt lat="42.86032" lon="2.84605">
        <ele>146.3</ele>
        <time>2021-03-28T07:07:27Z</time>
      </trkpt>
      <trkpt lat="42.86024" lon="2.84604">
        <ele>146.8</ele>
        <time>2021-03-28T07:07:28Z</time>
      </trkpt>
      <trkpt lat="42.86024" lon="2.84604">
        <ele>146.8</ele>
        <time>2021-03-28T07:07:28Z</time>
      </trkpt>
      <trkpt lat="42.86018" lon="2.84603">
        <ele>147</ele>
        <time>2021-03-28T07:07:29Z</time>
      </trkpt>
      <trkpt lat="42.86018" lon="2.84603">
        <ele>147</ele>
        <time>2021-03-28T07:07:29Z</time>
      </trkpt>
      <trkpt lat="42.86011" lon="2.84599">
        <ele>147.8</ele>
        <time>2021-03-28T07:07:31Z</time>
      </trkpt>
      <trkpt lat="42.86011" lon="2.84599">
        <ele>147.8</ele>
        <time>2021-03-28T07:07:31Z</time>
      </trkpt>
      <trkpt lat="42.86005" lon="2.84593">
        <ele>148.3</ele>
        <time>2021-03-28T07:07:33Z</time>
      </trkpt>
      <trkpt lat="42.86005" lon="2.84593">
        <ele>148.3</ele>
        <time>2021-03-28T07:07:33Z</time>
      </trkpt>
      <trkpt lat="42.85999" lon="2.84586">
        <ele>148.4</ele>
        <time>2021-03-28T07:07:35Z</time>
      </trkpt>
      <trkpt lat="42.85999" lon="2.84586">
        <ele>148.4</ele>
        <time>2021-03-28T07:07:35Z</time>
      </trkpt>
      <trkpt lat="42.85993" lon="2.84577">
        <ele>149.1</ele>
        <time>2021-03-28T07:07:37Z</time>
      </trkpt>
      <trkpt lat="42.85993" lon="2.84577">
        <ele>149.1</ele>
        <time>2021-03-28T07:07:37Z</time>
      </trkpt>
      <trkpt lat="42.85989" lon="2.8457">
        <ele>149.7</ele>
        <time>2021-03-28T07:07:38Z</time>
      </trkpt>
      <trkpt lat="42.85989" lon="2.8457">
        <ele>149.7</ele>
        <time>2021-03-28T07:07:38Z</time>
      </trkpt>
      <trkpt lat="42.85985" lon="2.84561">
        <ele>150.1</ele>
        <time>2021-03-28T07:07:40Z</time>
      </trkpt>
      <trkpt lat="42.85985" lon="2.84561">
        <ele>150.1</ele>
        <time>2021-03-28T07:07:40Z</time>
      </trkpt>
      <trkpt lat="42.85981" lon="2.84552">
        <ele>150.3</ele>
        <time>2021-03-28T07:07:42Z</time>
      </trkpt>
      <trkpt lat="42.85981" lon="2.84552">
        <ele>150.3</ele>
        <time>2021-03-28T07:07:42Z</time>
      </trkpt>
      <trkpt lat="42.85979" lon="2.84544">
        <ele>150.3</ele>
        <time>2021-03-28T07:07:43Z</time>
      </trkpt>
      <trkpt lat="42.85979" lon="2.84544">
        <ele>150.3</ele>
        <time>2021-03-28T07:07:43Z</time>
      </trkpt>
      <trkpt lat="42.85975" lon="2.84535">
        <ele>150.2</ele>
        <time>2021-03-28T07:07:45Z</time>
      </trkpt>
      <trkpt lat="42.85975" lon="2.84535">
        <ele>150.2</ele>
        <time>2021-03-28T07:07:45Z</time>
      </trkpt>
      <trkpt lat="42.85972" lon="2.84527">
        <ele>150.3</ele>
        <time>2021-03-28T07:07:47Z</time>
      </trkpt>
      <trkpt lat="42.85972" lon="2.84527">
        <ele>150.3</ele>
        <time>2021-03-28T07:07:47Z</time>
      </trkpt>
      <trkpt lat="42.85968" lon="2.84519">
        <ele>152.3</ele>
        <time>2021-03-28T07:07:48Z</time>
      </trkpt>
      <trkpt lat="42.85968" lon="2.84519">
        <ele>152.3</ele>
        <time>2021-03-28T07:07:48Z</time>
      </trkpt>
      <trkpt lat="42.85964" lon="2.84512">
        <ele>153.7</ele>
        <time>2021-03-28T07:07:50Z</time>
      </trkpt>
      <trkpt lat="42.85964" lon="2.84512">
        <ele>153.7</ele>
        <time>2021-03-28T07:07:50Z</time>
      </trkpt>
      <trkpt lat="42.85961" lon="2.84507">
        <ele>154.4</ele>
        <time>2021-03-28T07:07:51Z</time>
      </trkpt>
      <trkpt lat="42.85961" lon="2.84507">
        <ele>154.4</ele>
        <time>2021-03-28T07:07:51Z</time>
      </trkpt>
      <trkpt lat="42.85957" lon="2.84501">
        <ele>154.7</ele>
        <time>2021-03-28T07:07:53Z</time>
      </trkpt>
      <trkpt lat="42.85957" lon="2.84501">
        <ele>154.7</ele>
        <time>2021-03-28T07:07:53Z</time>
      </trkpt>
      <trkpt lat="42.85952" lon="2.84496">
        <ele>155</ele>
        <time>2021-03-28T07:07:55Z</time>
      </trkpt>
      <trkpt lat="42.85952" lon="2.84496">
        <ele>155</ele>
        <time>2021-03-28T07:07:55Z</time>
      </trkpt>
      <trkpt lat="42.85948" lon="2.8449">
        <ele>154.9</ele>
        <time>2021-03-28T07:07:57Z</time>
      </trkpt>
      <trkpt lat="42.85948" lon="2.8449">
        <ele>154.9</ele>
        <time>2021-03-28T07:07:57Z</time>
      </trkpt>
      <trkpt lat="42.85942" lon="2.84485">
        <ele>154.9</ele>
        <time>2021-03-28T07:07:59Z</time>
      </trkpt>
      <trkpt lat="42.85942" lon="2.84485">
        <ele>154.9</ele>
        <time>2021-03-28T07:07:59Z</time>
      </trkpt>
      <trkpt lat="42.85937" lon="2.8448">
        <ele>155.4</ele>
        <time>2021-03-28T07:08:01Z</time>
      </trkpt>
      <trkpt lat="42.85937" lon="2.8448">
        <ele>155.4</ele>
        <time>2021-03-28T07:08:01Z</time>
      </trkpt>
      <trkpt lat="42.85933" lon="2.84474">
        <ele>155.9</ele>
        <time>2021-03-28T07:08:03Z</time>
      </trkpt>
      <trkpt lat="42.85933" lon="2.84474">
        <ele>155.9</ele>
        <time>2021-03-28T07:08:03Z</time>
      </trkpt>
      <trkpt lat="42.85929" lon="2.84469">
        <ele>156.4</ele>
        <time>2021-03-28T07:08:04Z</time>
      </trkpt>
      <trkpt lat="42.85929" lon="2.84469">
        <ele>156.4</ele>
        <time>2021-03-28T07:08:04Z</time>
      </trkpt>
      <trkpt lat="42.85925" lon="2.84465">
        <ele>156.6</ele>
        <time>2021-03-28T07:08:06Z</time>
      </trkpt>
      <trkpt lat="42.85925" lon="2.84465">
        <ele>156.6</ele>
        <time>2021-03-28T07:08:06Z</time>
      </trkpt>
      <trkpt lat="42.85921" lon="2.8446">
        <ele>156.6</ele>
        <time>2021-03-28T07:08:08Z</time>
      </trkpt>
      <trkpt lat="42.85921" lon="2.8446">
        <ele>156.6</ele>
        <time>2021-03-28T07:08:08Z</time>
      </trkpt>
      <trkpt lat="42.85917" lon="2.84454">
        <ele>156.3</ele>
        <time>2021-03-28T07:08:10Z</time>
      </trkpt>
      <trkpt lat="42.85917" lon="2.84454">
        <ele>156.3</ele>
        <time>2021-03-28T07:08:10Z</time>
      </trkpt>
      <trkpt lat="42.85913" lon="2.84449">
        <ele>156.5</ele>
        <time>2021-03-28T07:08:12Z</time>
      </trkpt>
      <trkpt lat="42.85913" lon="2.84449">
        <ele>156.5</ele>
        <time>2021-03-28T07:08:12Z</time>
      </trkpt>
      <trkpt lat="42.8591" lon="2.84444">
        <ele>156.7</ele>
        <time>2021-03-28T07:08:14Z</time>
      </trkpt>
      <trkpt lat="42.8591" lon="2.84444">
        <ele>156.7</ele>
        <time>2021-03-28T07:08:14Z</time>
      </trkpt>
      <trkpt lat="42.85906" lon="2.84438">
        <ele>157.3</ele>
        <time>2021-03-28T07:08:16Z</time>
      </trkpt>
      <trkpt lat="42.85906" lon="2.84438">
        <ele>157.3</ele>
        <time>2021-03-28T07:08:16Z</time>
      </trkpt>
      <trkpt lat="42.85903" lon="2.84433">
        <ele>157.7</ele>
        <time>2021-03-28T07:08:17Z</time>
      </trkpt>
      <trkpt lat="42.85903" lon="2.84433">
        <ele>157.7</ele>
        <time>2021-03-28T07:08:17Z</time>
      </trkpt>
      <trkpt lat="42.859" lon="2.84428">
        <ele>158</ele>
        <time>2021-03-28T07:08:19Z</time>
      </trkpt>
      <trkpt lat="42.859" lon="2.84428">
        <ele>158</ele>
        <time>2021-03-28T07:08:19Z</time>
      </trkpt>
      <trkpt lat="42.85898" lon="2.84424">
        <ele>158.3</ele>
        <time>2021-03-28T07:08:20Z</time>
      </trkpt>
      <trkpt lat="42.85898" lon="2.84424">
        <ele>158.3</ele>
        <time>2021-03-28T07:08:20Z</time>
      </trkpt>
      <trkpt lat="42.85895" lon="2.84419">
        <ele>158.6</ele>
        <time>2021-03-28T07:08:22Z</time>
      </trkpt>
      <trkpt lat="42.85895" lon="2.84419">
        <ele>158.6</ele>
        <time>2021-03-28T07:08:22Z</time>
      </trkpt>
      <trkpt lat="42.85892" lon="2.84414">
        <ele>158.9</ele>
        <time>2021-03-28T07:08:24Z</time>
      </trkpt>
      <trkpt lat="42.85892" lon="2.84414">
        <ele>158.9</ele>
        <time>2021-03-28T07:08:24Z</time>
      </trkpt>
      <trkpt lat="42.8589" lon="2.84409">
        <ele>159.2</ele>
        <time>2021-03-28T07:08:26Z</time>
      </trkpt>
      <trkpt lat="42.8589" lon="2.84409">
        <ele>159.2</ele>
        <time>2021-03-28T07:08:26Z</time>
      </trkpt>
      <trkpt lat="42.85887" lon="2.84404">
        <ele>159.6</ele>
        <time>2021-03-28T07:08:28Z</time>
      </trkpt>
      <trkpt lat="42.85887" lon="2.84404">
        <ele>159.6</ele>
        <time>2021-03-28T07:08:28Z</time>
      </trkpt>
      <trkpt lat="42.85884" lon="2.84398">
        <ele>160</ele>
        <time>2021-03-28T07:08:30Z</time>
      </trkpt>
      <trkpt lat="42.85884" lon="2.84398">
        <ele>160</ele>
        <time>2021-03-28T07:08:30Z</time>
      </trkpt>
      <trkpt lat="42.85881" lon="2.84392">
        <ele>160.2</ele>
        <time>2021-03-28T07:08:31Z</time>
      </trkpt>
      <trkpt lat="42.85881" lon="2.84392">
        <ele>160.2</ele>
        <time>2021-03-28T07:08:31Z</time>
      </trkpt>
      <trkpt lat="42.85878" lon="2.84388">
        <ele>160.3</ele>
        <time>2021-03-28T07:08:33Z</time>
      </trkpt>
      <trkpt lat="42.85878" lon="2.84388">
        <ele>160.3</ele>
        <time>2021-03-28T07:08:33Z</time>
      </trkpt>
      <trkpt lat="42.85875" lon="2.84384">
        <ele>160.5</ele>
        <time>2021-03-28T07:08:34Z</time>
      </trkpt>
      <trkpt lat="42.85875" lon="2.84384">
        <ele>160.5</ele>
        <time>2021-03-28T07:08:34Z</time>
      </trkpt>
      <trkpt lat="42.85873" lon="2.8438">
        <ele>160.7</ele>
        <time>2021-03-28T07:08:36Z</time>
      </trkpt>
      <trkpt lat="42.85873" lon="2.8438">
        <ele>160.7</ele>
        <time>2021-03-28T07:08:36Z</time>
      </trkpt>
      <trkpt lat="42.8587" lon="2.84376">
        <ele>161.1</ele>
        <time>2021-03-28T07:08:38Z</time>
      </trkpt>
      <trkpt lat="42.8587" lon="2.84376">
        <ele>161.1</ele>
        <time>2021-03-28T07:08:38Z</time>
      </trkpt>
      <trkpt lat="42.85867" lon="2.84372">
        <ele>161.4</ele>
        <time>2021-03-28T07:08:39Z</time>
      </trkpt>
      <trkpt lat="42.85867" lon="2.84372">
        <ele>161.4</ele>
        <time>2021-03-28T07:08:39Z</time>
      </trkpt>
      <trkpt lat="42.85865" lon="2.84368">
        <ele>161.9</ele>
        <time>2021-03-28T07:08:41Z</time>
      </trkpt>
      <trkpt lat="42.85865" lon="2.84368">
        <ele>161.9</ele>
        <time>2021-03-28T07:08:41Z</time>
      </trkpt>
      <trkpt lat="42.85862" lon="2.84364">
        <ele>162.4</ele>
        <time>2021-03-28T07:08:42Z</time>
      </trkpt>
      <trkpt lat="42.85862" lon="2.84364">
        <ele>162.4</ele>
        <time>2021-03-28T07:08:42Z</time>
      </trkpt>
      <trkpt lat="42.8586" lon="2.8436">
        <ele>162.9</ele>
        <time>2021-03-28T07:08:44Z</time>
      </trkpt>
      <trkpt lat="42.8586" lon="2.8436">
        <ele>162.9</ele>
        <time>2021-03-28T07:08:44Z</time>
      </trkpt>
      <trkpt lat="42.85858" lon="2.84357">
        <ele>163.3</ele>
        <time>2021-03-28T07:08:45Z</time>
      </trkpt>
      <trkpt lat="42.85858" lon="2.84357">
        <ele>163.3</ele>
        <time>2021-03-28T07:08:45Z</time>
      </trkpt>
      <trkpt lat="42.85855" lon="2.84354">
        <ele>163.6</ele>
        <time>2021-03-28T07:08:46Z</time>
      </trkpt>
      <trkpt lat="42.85855" lon="2.84354">
        <ele>163.6</ele>
        <time>2021-03-28T07:08:46Z</time>
      </trkpt>
      <trkpt lat="42.85853" lon="2.8435">
        <ele>164</ele>
        <time>2021-03-28T07:08:48Z</time>
      </trkpt>
      <trkpt lat="42.85853" lon="2.8435">
        <ele>164</ele>
        <time>2021-03-28T07:08:48Z</time>
      </trkpt>
      <trkpt lat="42.8585" lon="2.84347">
        <ele>164.3</ele>
        <time>2021-03-28T07:08:49Z</time>
      </trkpt>
      <trkpt lat="42.8585" lon="2.84347">
        <ele>164.3</ele>
        <time>2021-03-28T07:08:49Z</time>
      </trkpt>
      <trkpt lat="42.85848" lon="2.84343">
        <ele>164.7</ele>
        <time>2021-03-28T07:08:51Z</time>
      </trkpt>
      <trkpt lat="42.85848" lon="2.84343">
        <ele>164.7</ele>
        <time>2021-03-28T07:08:51Z</time>
      </trkpt>
      <trkpt lat="42.85844" lon="2.84339">
        <ele>165.1</ele>
        <time>2021-03-28T07:08:53Z</time>
      </trkpt>
      <trkpt lat="42.85844" lon="2.84339">
        <ele>165.1</ele>
        <time>2021-03-28T07:08:53Z</time>
      </trkpt>
      <trkpt lat="42.85841" lon="2.84334">
        <ele>165.7</ele>
        <time>2021-03-28T07:08:55Z</time>
      </trkpt>
      <trkpt lat="42.85841" lon="2.84334">
        <ele>165.7</ele>
        <time>2021-03-28T07:08:55Z</time>
      </trkpt>
      <trkpt lat="42.85838" lon="2.8433">
        <ele>166</ele>
        <time>2021-03-28T07:08:56Z</time>
      </trkpt>
      <trkpt lat="42.85838" lon="2.8433">
        <ele>166</ele>
        <time>2021-03-28T07:08:56Z</time>
      </trkpt>
      <trkpt lat="42.85835" lon="2.84326">
        <ele>166.2</ele>
        <time>2021-03-28T07:08:58Z</time>
      </trkpt>
      <trkpt lat="42.85835" lon="2.84326">
        <ele>166.2</ele>
        <time>2021-03-28T07:08:58Z</time>
      </trkpt>
      <trkpt lat="42.85831" lon="2.84321">
        <ele>166.6</ele>
        <time>2021-03-28T07:09:00Z</time>
      </trkpt>
      <trkpt lat="42.85831" lon="2.84321">
        <ele>166.6</ele>
        <time>2021-03-28T07:09:00Z</time>
      </trkpt>
      <trkpt lat="42.85829" lon="2.84317">
        <ele>166.8</ele>
        <time>2021-03-28T07:09:01Z</time>
      </trkpt>
      <trkpt lat="42.85829" lon="2.84317">
        <ele>166.8</ele>
        <time>2021-03-28T07:09:01Z</time>
      </trkpt>
      <trkpt lat="42.85826" lon="2.84314">
        <ele>167</ele>
        <time>2021-03-28T07:09:02Z</time>
      </trkpt>
      <trkpt lat="42.85826" lon="2.84314">
        <ele>167</ele>
        <time>2021-03-28T07:09:02Z</time>
      </trkpt>
      <trkpt lat="42.85824" lon="2.84312">
        <ele>167.2</ele>
        <time>2021-03-28T07:09:03Z</time>
      </trkpt>
      <trkpt lat="42.85824" lon="2.84312">
        <ele>167.2</ele>
        <time>2021-03-28T07:09:03Z</time>
      </trkpt>
      <trkpt lat="42.85822" lon="2.84309">
        <ele>167.4</ele>
        <time>2021-03-28T07:09:05Z</time>
      </trkpt>
      <trkpt lat="42.85822" lon="2.84309">
        <ele>167.4</ele>
        <time>2021-03-28T07:09:05Z</time>
      </trkpt>
      <trkpt lat="42.8582" lon="2.84305">
        <ele>167.6</ele>
        <time>2021-03-28T07:09:06Z</time>
      </trkpt>
      <trkpt lat="42.8582" lon="2.84305">
        <ele>167.6</ele>
        <time>2021-03-28T07:09:06Z</time>
      </trkpt>
      <trkpt lat="42.85817" lon="2.84302">
        <ele>167.9</ele>
        <time>2021-03-28T07:09:08Z</time>
      </trkpt>
      <trkpt lat="42.85817" lon="2.84302">
        <ele>167.9</ele>
        <time>2021-03-28T07:09:08Z</time>
      </trkpt>
      <trkpt lat="42.85814" lon="2.84298">
        <ele>168.1</ele>
        <time>2021-03-28T07:09:09Z</time>
      </trkpt>
      <trkpt lat="42.85814" lon="2.84298">
        <ele>168.1</ele>
        <time>2021-03-28T07:09:09Z</time>
      </trkpt>
      <trkpt lat="42.85812" lon="2.84295">
        <ele>168.2</ele>
        <time>2021-03-28T07:09:10Z</time>
      </trkpt>
      <trkpt lat="42.85812" lon="2.84295">
        <ele>168.2</ele>
        <time>2021-03-28T07:09:10Z</time>
      </trkpt>
      <trkpt lat="42.85809" lon="2.84292">
        <ele>168.4</ele>
        <time>2021-03-28T07:09:12Z</time>
      </trkpt>
      <trkpt lat="42.85809" lon="2.84292">
        <ele>168.4</ele>
        <time>2021-03-28T07:09:12Z</time>
      </trkpt>
      <trkpt lat="42.85806" lon="2.84288">
        <ele>168.6</ele>
        <time>2021-03-28T07:09:13Z</time>
      </trkpt>
      <trkpt lat="42.85806" lon="2.84288">
        <ele>168.6</ele>
        <time>2021-03-28T07:09:13Z</time>
      </trkpt>
      <trkpt lat="42.85804" lon="2.84285">
        <ele>168.4</ele>
        <time>2021-03-28T07:09:14Z</time>
      </trkpt>
      <trkpt lat="42.85804" lon="2.84285">
        <ele>168.4</ele>
        <time>2021-03-28T07:09:14Z</time>
      </trkpt>
      <trkpt lat="42.85802" lon="2.84283">
        <ele>168.3</ele>
        <time>2021-03-28T07:09:15Z</time>
      </trkpt>
      <trkpt lat="42.85802" lon="2.84283">
        <ele>168.3</ele>
        <time>2021-03-28T07:09:15Z</time>
      </trkpt>
      <trkpt lat="42.858" lon="2.84279">
        <ele>168.2</ele>
        <time>2021-03-28T07:09:17Z</time>
      </trkpt>
      <trkpt lat="42.858" lon="2.84279">
        <ele>168.2</ele>
        <time>2021-03-28T07:09:17Z</time>
      </trkpt>
      <trkpt lat="42.85797" lon="2.84276">
        <ele>168</ele>
        <time>2021-03-28T07:09:19Z</time>
      </trkpt>
      <trkpt lat="42.85797" lon="2.84276">
        <ele>168</ele>
        <time>2021-03-28T07:09:19Z</time>
      </trkpt>
      <trkpt lat="42.85795" lon="2.84272">
        <ele>168.1</ele>
        <time>2021-03-28T07:09:21Z</time>
      </trkpt>
      <trkpt lat="42.85795" lon="2.84272">
        <ele>168.1</ele>
        <time>2021-03-28T07:09:21Z</time>
      </trkpt>
      <trkpt lat="42.85792" lon="2.84268">
        <ele>168.4</ele>
        <time>2021-03-28T07:09:22Z</time>
      </trkpt>
      <trkpt lat="42.85792" lon="2.84268">
        <ele>168.4</ele>
        <time>2021-03-28T07:09:22Z</time>
      </trkpt>
      <trkpt lat="42.85789" lon="2.84264">
        <ele>168.5</ele>
        <time>2021-03-28T07:09:24Z</time>
      </trkpt>
      <trkpt lat="42.85789" lon="2.84264">
        <ele>168.5</ele>
        <time>2021-03-28T07:09:24Z</time>
      </trkpt>
      <trkpt lat="42.85787" lon="2.8426">
        <ele>169.1</ele>
        <time>2021-03-28T07:09:26Z</time>
      </trkpt>
      <trkpt lat="42.85787" lon="2.8426">
        <ele>169.1</ele>
        <time>2021-03-28T07:09:26Z</time>
      </trkpt>
      <trkpt lat="42.85784" lon="2.84256">
        <ele>169.5</ele>
        <time>2021-03-28T07:09:27Z</time>
      </trkpt>
      <trkpt lat="42.85784" lon="2.84256">
        <ele>169.5</ele>
        <time>2021-03-28T07:09:27Z</time>
      </trkpt>
      <trkpt lat="42.85781" lon="2.84253">
        <ele>170.1</ele>
        <time>2021-03-28T07:09:29Z</time>
      </trkpt>
      <trkpt lat="42.85781" lon="2.84253">
        <ele>170.1</ele>
        <time>2021-03-28T07:09:29Z</time>
      </trkpt>
      <trkpt lat="42.85778" lon="2.84248">
        <ele>170.7</ele>
        <time>2021-03-28T07:09:31Z</time>
      </trkpt>
      <trkpt lat="42.85778" lon="2.84248">
        <ele>170.7</ele>
        <time>2021-03-28T07:09:31Z</time>
      </trkpt>
      <trkpt lat="42.85776" lon="2.84244">
        <ele>170.8</ele>
        <time>2021-03-28T07:09:32Z</time>
      </trkpt>
      <trkpt lat="42.85776" lon="2.84244">
        <ele>170.8</ele>
        <time>2021-03-28T07:09:32Z</time>
      </trkpt>
      <trkpt lat="42.85773" lon="2.8424">
        <ele>170.9</ele>
        <time>2021-03-28T07:09:34Z</time>
      </trkpt>
      <trkpt lat="42.85773" lon="2.8424">
        <ele>170.9</ele>
        <time>2021-03-28T07:09:34Z</time>
      </trkpt>
      <trkpt lat="42.85771" lon="2.84236">
        <ele>171.2</ele>
        <time>2021-03-28T07:09:36Z</time>
      </trkpt>
      <trkpt lat="42.85771" lon="2.84236">
        <ele>171.2</ele>
        <time>2021-03-28T07:09:36Z</time>
      </trkpt>
      <trkpt lat="42.85769" lon="2.84232">
        <ele>171.4</ele>
        <time>2021-03-28T07:09:37Z</time>
      </trkpt>
      <trkpt lat="42.85769" lon="2.84232">
        <ele>171.4</ele>
        <time>2021-03-28T07:09:37Z</time>
      </trkpt>
      <trkpt lat="42.85767" lon="2.84228">
        <ele>171.7</ele>
        <time>2021-03-28T07:09:38Z</time>
      </trkpt>
      <trkpt lat="42.85767" lon="2.84228">
        <ele>171.7</ele>
        <time>2021-03-28T07:09:38Z</time>
      </trkpt>
      <trkpt lat="42.85765" lon="2.84224">
        <ele>172.2</ele>
        <time>2021-03-28T07:09:40Z</time>
      </trkpt>
      <trkpt lat="42.85765" lon="2.84224">
        <ele>172.2</ele>
        <time>2021-03-28T07:09:40Z</time>
      </trkpt>
      <trkpt lat="42.85762" lon="2.8422">
        <ele>172.6</ele>
        <time>2021-03-28T07:09:41Z</time>
      </trkpt>
      <trkpt lat="42.85762" lon="2.8422">
        <ele>172.6</ele>
        <time>2021-03-28T07:09:41Z</time>
      </trkpt>
      <trkpt lat="42.85761" lon="2.84216">
        <ele>172.8</ele>
        <time>2021-03-28T07:09:42Z</time>
      </trkpt>
      <trkpt lat="42.85761" lon="2.84216">
        <ele>172.8</ele>
        <time>2021-03-28T07:09:42Z</time>
      </trkpt>
      <trkpt lat="42.8576" lon="2.84213">
        <ele>173.2</ele>
        <time>2021-03-28T07:09:43Z</time>
      </trkpt>
      <trkpt lat="42.8576" lon="2.84213">
        <ele>173.2</ele>
        <time>2021-03-28T07:09:43Z</time>
      </trkpt>
      <trkpt lat="42.85759" lon="2.8421">
        <ele>173.5</ele>
        <time>2021-03-28T07:09:45Z</time>
      </trkpt>
      <trkpt lat="42.85759" lon="2.8421">
        <ele>173.5</ele>
        <time>2021-03-28T07:09:45Z</time>
      </trkpt>
      <trkpt lat="42.85758" lon="2.84207">
        <ele>173.8</ele>
        <time>2021-03-28T07:09:46Z</time>
      </trkpt>
      <trkpt lat="42.85758" lon="2.84207">
        <ele>173.8</ele>
        <time>2021-03-28T07:09:46Z</time>
      </trkpt>
      <trkpt lat="42.85757" lon="2.84204">
        <ele>174.2</ele>
        <time>2021-03-28T07:09:47Z</time>
      </trkpt>
      <trkpt lat="42.85757" lon="2.84204">
        <ele>174.2</ele>
        <time>2021-03-28T07:09:47Z</time>
      </trkpt>
      <trkpt lat="42.85755" lon="2.842">
        <ele>174.5</ele>
        <time>2021-03-28T07:09:49Z</time>
      </trkpt>
      <trkpt lat="42.85755" lon="2.842">
        <ele>174.5</ele>
        <time>2021-03-28T07:09:49Z</time>
      </trkpt>
      <trkpt lat="42.85754" lon="2.84195">
        <ele>175</ele>
        <time>2021-03-28T07:09:51Z</time>
      </trkpt>
      <trkpt lat="42.85754" lon="2.84195">
        <ele>175</ele>
        <time>2021-03-28T07:09:51Z</time>
      </trkpt>
      <trkpt lat="42.85752" lon="2.84191">
        <ele>175.3</ele>
        <time>2021-03-28T07:09:52Z</time>
      </trkpt>
      <trkpt lat="42.85752" lon="2.84191">
        <ele>175.3</ele>
        <time>2021-03-28T07:09:52Z</time>
      </trkpt>
      <trkpt lat="42.85751" lon="2.84187">
        <ele>175.5</ele>
        <time>2021-03-28T07:09:53Z</time>
      </trkpt>
      <trkpt lat="42.85751" lon="2.84187">
        <ele>175.5</ele>
        <time>2021-03-28T07:09:53Z</time>
      </trkpt>
      <trkpt lat="42.8575" lon="2.84183">
        <ele>175.7</ele>
        <time>2021-03-28T07:09:55Z</time>
      </trkpt>
      <trkpt lat="42.8575" lon="2.84183">
        <ele>175.7</ele>
        <time>2021-03-28T07:09:55Z</time>
      </trkpt>
      <trkpt lat="42.85749" lon="2.84179">
        <ele>175.6</ele>
        <time>2021-03-28T07:09:57Z</time>
      </trkpt>
      <trkpt lat="42.85749" lon="2.84179">
        <ele>175.6</ele>
        <time>2021-03-28T07:09:57Z</time>
      </trkpt>
      <trkpt lat="42.85748" lon="2.84176">
        <ele>175.5</ele>
        <time>2021-03-28T07:09:58Z</time>
      </trkpt>
      <trkpt lat="42.85748" lon="2.84176">
        <ele>175.5</ele>
        <time>2021-03-28T07:09:58Z</time>
      </trkpt>
      <trkpt lat="42.85746" lon="2.84171">
        <ele>175.5</ele>
        <time>2021-03-28T07:10:00Z</time>
      </trkpt>
      <trkpt lat="42.85746" lon="2.84171">
        <ele>175.5</ele>
        <time>2021-03-28T07:10:00Z</time>
      </trkpt>
      <trkpt lat="42.85745" lon="2.84167">
        <ele>175.4</ele>
        <time>2021-03-28T07:10:01Z</time>
      </trkpt>
      <trkpt lat="42.85745" lon="2.84167">
        <ele>175.4</ele>
        <time>2021-03-28T07:10:01Z</time>
      </trkpt>
      <trkpt lat="42.85744" lon="2.84163">
        <ele>175.6</ele>
        <time>2021-03-28T07:10:02Z</time>
      </trkpt>
      <trkpt lat="42.85744" lon="2.84163">
        <ele>175.6</ele>
        <time>2021-03-28T07:10:02Z</time>
      </trkpt>
      <trkpt lat="42.85742" lon="2.84158">
        <ele>176</ele>
        <time>2021-03-28T07:10:04Z</time>
      </trkpt>
      <trkpt lat="42.85742" lon="2.84158">
        <ele>176</ele>
        <time>2021-03-28T07:10:04Z</time>
      </trkpt>
      <trkpt lat="42.8574" lon="2.84153">
        <ele>176.3</ele>
        <time>2021-03-28T07:10:05Z</time>
      </trkpt>
      <trkpt lat="42.8574" lon="2.84153">
        <ele>176.3</ele>
        <time>2021-03-28T07:10:05Z</time>
      </trkpt>
      <trkpt lat="42.85737" lon="2.84149">
        <ele>176.4</ele>
        <time>2021-03-28T07:10:07Z</time>
      </trkpt>
      <trkpt lat="42.85737" lon="2.84149">
        <ele>176.4</ele>
        <time>2021-03-28T07:10:07Z</time>
      </trkpt>
      <trkpt lat="42.85735" lon="2.84144">
        <ele>176.6</ele>
        <time>2021-03-28T07:10:08Z</time>
      </trkpt>
      <trkpt lat="42.85735" lon="2.84144">
        <ele>176.6</ele>
        <time>2021-03-28T07:10:08Z</time>
      </trkpt>
      <trkpt lat="42.85733" lon="2.8414">
        <ele>177.1</ele>
        <time>2021-03-28T07:10:10Z</time>
      </trkpt>
      <trkpt lat="42.85733" lon="2.8414">
        <ele>177.1</ele>
        <time>2021-03-28T07:10:10Z</time>
      </trkpt>
      <trkpt lat="42.85731" lon="2.84135">
        <ele>177.5</ele>
        <time>2021-03-28T07:10:11Z</time>
      </trkpt>
      <trkpt lat="42.85731" lon="2.84135">
        <ele>177.5</ele>
        <time>2021-03-28T07:10:11Z</time>
      </trkpt>
      <trkpt lat="42.8573" lon="2.84131">
        <ele>177.9</ele>
        <time>2021-03-28T07:10:12Z</time>
      </trkpt>
      <trkpt lat="42.8573" lon="2.84131">
        <ele>177.9</ele>
        <time>2021-03-28T07:10:12Z</time>
      </trkpt>
      <trkpt lat="42.85728" lon="2.84126">
        <ele>178.3</ele>
        <time>2021-03-28T07:10:14Z</time>
      </trkpt>
      <trkpt lat="42.85728" lon="2.84126">
        <ele>178.3</ele>
        <time>2021-03-28T07:10:14Z</time>
      </trkpt>
      <trkpt lat="42.85725" lon="2.84121">
        <ele>178.7</ele>
        <time>2021-03-28T07:10:16Z</time>
      </trkpt>
      <trkpt lat="42.85725" lon="2.84121">
        <ele>178.7</ele>
        <time>2021-03-28T07:10:16Z</time>
      </trkpt>
      <trkpt lat="42.85723" lon="2.84117">
        <ele>179</ele>
        <time>2021-03-28T07:10:18Z</time>
      </trkpt>
      <trkpt lat="42.85723" lon="2.84117">
        <ele>179</ele>
        <time>2021-03-28T07:10:18Z</time>
      </trkpt>
      <trkpt lat="42.85721" lon="2.84113">
        <ele>179.2</ele>
        <time>2021-03-28T07:10:19Z</time>
      </trkpt>
      <trkpt lat="42.85721" lon="2.84113">
        <ele>179.2</ele>
        <time>2021-03-28T07:10:19Z</time>
      </trkpt>
      <trkpt lat="42.8572" lon="2.8411">
        <ele>179.1</ele>
        <time>2021-03-28T07:10:20Z</time>
      </trkpt>
      <trkpt lat="42.8572" lon="2.8411">
        <ele>179.1</ele>
        <time>2021-03-28T07:10:20Z</time>
      </trkpt>
      <trkpt lat="42.85718" lon="2.84107">
        <ele>179.1</ele>
        <time>2021-03-28T07:10:22Z</time>
      </trkpt>
      <trkpt lat="42.85718" lon="2.84107">
        <ele>179.1</ele>
        <time>2021-03-28T07:10:22Z</time>
      </trkpt>
      <trkpt lat="42.85716" lon="2.84103">
        <ele>179.2</ele>
        <time>2021-03-28T07:10:24Z</time>
      </trkpt>
      <trkpt lat="42.85716" lon="2.84103">
        <ele>179.2</ele>
        <time>2021-03-28T07:10:24Z</time>
      </trkpt>
      <trkpt lat="42.85714" lon="2.84098">
        <ele>179.4</ele>
        <time>2021-03-28T07:10:26Z</time>
      </trkpt>
      <trkpt lat="42.85714" lon="2.84098">
        <ele>179.4</ele>
        <time>2021-03-28T07:10:26Z</time>
      </trkpt>
      <trkpt lat="42.85711" lon="2.84094">
        <ele>179.7</ele>
        <time>2021-03-28T07:10:28Z</time>
      </trkpt>
      <trkpt lat="42.85711" lon="2.84094">
        <ele>179.7</ele>
        <time>2021-03-28T07:10:28Z</time>
      </trkpt>
      <trkpt lat="42.85709" lon="2.84089">
        <ele>180.2</ele>
        <time>2021-03-28T07:10:29Z</time>
      </trkpt>
      <trkpt lat="42.85709" lon="2.84089">
        <ele>180.2</ele>
        <time>2021-03-28T07:10:29Z</time>
      </trkpt>
      <trkpt lat="42.85707" lon="2.84085">
        <ele>180.9</ele>
        <time>2021-03-28T07:10:31Z</time>
      </trkpt>
      <trkpt lat="42.85707" lon="2.84085">
        <ele>180.9</ele>
        <time>2021-03-28T07:10:31Z</time>
      </trkpt>
      <trkpt lat="42.85704" lon="2.8408">
        <ele>181.5</ele>
        <time>2021-03-28T07:10:33Z</time>
      </trkpt>
      <trkpt lat="42.85704" lon="2.8408">
        <ele>181.5</ele>
        <time>2021-03-28T07:10:33Z</time>
      </trkpt>
      <trkpt lat="42.85702" lon="2.84076">
        <ele>182</ele>
        <time>2021-03-28T07:10:34Z</time>
      </trkpt>
      <trkpt lat="42.85702" lon="2.84076">
        <ele>182</ele>
        <time>2021-03-28T07:10:34Z</time>
      </trkpt>
      <trkpt lat="42.857" lon="2.84072">
        <ele>182.3</ele>
        <time>2021-03-28T07:10:35Z</time>
      </trkpt>
      <trkpt lat="42.857" lon="2.84072">
        <ele>182.3</ele>
        <time>2021-03-28T07:10:35Z</time>
      </trkpt>
      <trkpt lat="42.85697" lon="2.84067">
        <ele>182.7</ele>
        <time>2021-03-28T07:10:37Z</time>
      </trkpt>
      <trkpt lat="42.85697" lon="2.84067">
        <ele>182.7</ele>
        <time>2021-03-28T07:10:37Z</time>
      </trkpt>
      <trkpt lat="42.85694" lon="2.84062">
        <ele>183</ele>
        <time>2021-03-28T07:10:39Z</time>
      </trkpt>
      <trkpt lat="42.85694" lon="2.84062">
        <ele>183</ele>
        <time>2021-03-28T07:10:39Z</time>
      </trkpt>
      <trkpt lat="42.8569" lon="2.84057">
        <ele>182.7</ele>
        <time>2021-03-28T07:10:41Z</time>
      </trkpt>
      <trkpt lat="42.8569" lon="2.84057">
        <ele>182.7</ele>
        <time>2021-03-28T07:10:41Z</time>
      </trkpt>
      <trkpt lat="42.85687" lon="2.84053">
        <ele>182.6</ele>
        <time>2021-03-28T07:10:43Z</time>
      </trkpt>
      <trkpt lat="42.85687" lon="2.84053">
        <ele>182.6</ele>
        <time>2021-03-28T07:10:43Z</time>
      </trkpt>
      <trkpt lat="42.85685" lon="2.84049">
        <ele>182.6</ele>
        <time>2021-03-28T07:10:44Z</time>
      </trkpt>
      <trkpt lat="42.85685" lon="2.84049">
        <ele>182.6</ele>
        <time>2021-03-28T07:10:44Z</time>
      </trkpt>
      <trkpt lat="42.85681" lon="2.84045">
        <ele>182.7</ele>
        <time>2021-03-28T07:10:46Z</time>
      </trkpt>
      <trkpt lat="42.85681" lon="2.84045">
        <ele>182.7</ele>
        <time>2021-03-28T07:10:46Z</time>
      </trkpt>
      <trkpt lat="42.85678" lon="2.84042">
        <ele>182.8</ele>
        <time>2021-03-28T07:10:47Z</time>
      </trkpt>
      <trkpt lat="42.85678" lon="2.84042">
        <ele>182.8</ele>
        <time>2021-03-28T07:10:47Z</time>
      </trkpt>
      <trkpt lat="42.85675" lon="2.84038">
        <ele>183</ele>
        <time>2021-03-28T07:10:49Z</time>
      </trkpt>
      <trkpt lat="42.85675" lon="2.84038">
        <ele>183</ele>
        <time>2021-03-28T07:10:49Z</time>
      </trkpt>
      <trkpt lat="42.85672" lon="2.84033">
        <ele>183.6</ele>
        <time>2021-03-28T07:10:51Z</time>
      </trkpt>
      <trkpt lat="42.85672" lon="2.84033">
        <ele>183.6</ele>
        <time>2021-03-28T07:10:51Z</time>
      </trkpt>
      <trkpt lat="42.85668" lon="2.84029">
        <ele>184</ele>
        <time>2021-03-28T07:10:53Z</time>
      </trkpt>
      <trkpt lat="42.85668" lon="2.84029">
        <ele>184</ele>
        <time>2021-03-28T07:10:53Z</time>
      </trkpt>
      <trkpt lat="42.85665" lon="2.84026">
        <ele>184.2</ele>
        <time>2021-03-28T07:10:54Z</time>
      </trkpt>
      <trkpt lat="42.85665" lon="2.84026">
        <ele>184.2</ele>
        <time>2021-03-28T07:10:54Z</time>
      </trkpt>
      <trkpt lat="42.85662" lon="2.84022">
        <ele>184.5</ele>
        <time>2021-03-28T07:10:56Z</time>
      </trkpt>
      <trkpt lat="42.85662" lon="2.84022">
        <ele>184.5</ele>
        <time>2021-03-28T07:10:56Z</time>
      </trkpt>
      <trkpt lat="42.85658" lon="2.84018">
        <ele>184.6</ele>
        <time>2021-03-28T07:10:58Z</time>
      </trkpt>
      <trkpt lat="42.85658" lon="2.84018">
        <ele>184.6</ele>
        <time>2021-03-28T07:10:58Z</time>
      </trkpt>
      <trkpt lat="42.85655" lon="2.84014">
        <ele>184.8</ele>
        <time>2021-03-28T07:11:00Z</time>
      </trkpt>
      <trkpt lat="42.85655" lon="2.84014">
        <ele>184.8</ele>
        <time>2021-03-28T07:11:00Z</time>
      </trkpt>
      <trkpt lat="42.85652" lon="2.8401">
        <ele>184.9</ele>
        <time>2021-03-28T07:11:01Z</time>
      </trkpt>
      <trkpt lat="42.85652" lon="2.8401">
        <ele>184.9</ele>
        <time>2021-03-28T07:11:01Z</time>
      </trkpt>
      <trkpt lat="42.85649" lon="2.84007">
        <ele>185</ele>
        <time>2021-03-28T07:11:03Z</time>
      </trkpt>
      <trkpt lat="42.85649" lon="2.84007">
        <ele>185</ele>
        <time>2021-03-28T07:11:03Z</time>
      </trkpt>
      <trkpt lat="42.85647" lon="2.84004">
        <ele>185.3</ele>
        <time>2021-03-28T07:11:04Z</time>
      </trkpt>
      <trkpt lat="42.85647" lon="2.84004">
        <ele>185.3</ele>
        <time>2021-03-28T07:11:04Z</time>
      </trkpt>
      <trkpt lat="42.85645" lon="2.84">
        <ele>185.8</ele>
        <time>2021-03-28T07:11:05Z</time>
      </trkpt>
      <trkpt lat="42.85645" lon="2.84">
        <ele>185.8</ele>
        <time>2021-03-28T07:11:05Z</time>
      </trkpt>
      <trkpt lat="42.85644" lon="2.83995">
        <ele>186.4</ele>
        <time>2021-03-28T07:11:07Z</time>
      </trkpt>
      <trkpt lat="42.85644" lon="2.83995">
        <ele>186.4</ele>
        <time>2021-03-28T07:11:07Z</time>
      </trkpt>
      <trkpt lat="42.85642" lon="2.83991">
        <ele>186.9</ele>
        <time>2021-03-28T07:11:08Z</time>
      </trkpt>
      <trkpt lat="42.85642" lon="2.83991">
        <ele>186.9</ele>
        <time>2021-03-28T07:11:08Z</time>
      </trkpt>
      <trkpt lat="42.85641" lon="2.83988">
        <ele>187.3</ele>
        <time>2021-03-28T07:11:09Z</time>
      </trkpt>
      <trkpt lat="42.85641" lon="2.83988">
        <ele>187.3</ele>
        <time>2021-03-28T07:11:09Z</time>
      </trkpt>
      <trkpt lat="42.85639" lon="2.83983">
        <ele>187.5</ele>
        <time>2021-03-28T07:11:11Z</time>
      </trkpt>
      <trkpt lat="42.85639" lon="2.83983">
        <ele>187.5</ele>
        <time>2021-03-28T07:11:11Z</time>
      </trkpt>
      <trkpt lat="42.85636" lon="2.8398">
        <ele>187.4</ele>
        <time>2021-03-28T07:11:13Z</time>
      </trkpt>
      <trkpt lat="42.85636" lon="2.8398">
        <ele>187.4</ele>
        <time>2021-03-28T07:11:13Z</time>
      </trkpt>
      <trkpt lat="42.85634" lon="2.83976">
        <ele>187.3</ele>
        <time>2021-03-28T07:11:14Z</time>
      </trkpt>
      <trkpt lat="42.85634" lon="2.83976">
        <ele>187.3</ele>
        <time>2021-03-28T07:11:14Z</time>
      </trkpt>
      <trkpt lat="42.85631" lon="2.83972">
        <ele>187.4</ele>
        <time>2021-03-28T07:11:16Z</time>
      </trkpt>
      <trkpt lat="42.85631" lon="2.83972">
        <ele>187.4</ele>
        <time>2021-03-28T07:11:16Z</time>
      </trkpt>
      <trkpt lat="42.85629" lon="2.83967">
        <ele>187.7</ele>
        <time>2021-03-28T07:11:17Z</time>
      </trkpt>
      <trkpt lat="42.85629" lon="2.83967">
        <ele>187.7</ele>
        <time>2021-03-28T07:11:17Z</time>
      </trkpt>
      <trkpt lat="42.85626" lon="2.83963">
        <ele>187.9</ele>
        <time>2021-03-28T07:11:19Z</time>
      </trkpt>
      <trkpt lat="42.85626" lon="2.83963">
        <ele>187.9</ele>
        <time>2021-03-28T07:11:19Z</time>
      </trkpt>
      <trkpt lat="42.85624" lon="2.83958">
        <ele>188.2</ele>
        <time>2021-03-28T07:11:21Z</time>
      </trkpt>
      <trkpt lat="42.85624" lon="2.83958">
        <ele>188.2</ele>
        <time>2021-03-28T07:11:21Z</time>
      </trkpt>
      <trkpt lat="42.85622" lon="2.83953">
        <ele>188.5</ele>
        <time>2021-03-28T07:11:22Z</time>
      </trkpt>
      <trkpt lat="42.85622" lon="2.83953">
        <ele>188.5</ele>
        <time>2021-03-28T07:11:22Z</time>
      </trkpt>
      <trkpt lat="42.8562" lon="2.83949">
        <ele>189</ele>
        <time>2021-03-28T07:11:24Z</time>
      </trkpt>
      <trkpt lat="42.8562" lon="2.83949">
        <ele>189</ele>
        <time>2021-03-28T07:11:24Z</time>
      </trkpt>
      <trkpt lat="42.85618" lon="2.83944">
        <ele>189.3</ele>
        <time>2021-03-28T07:11:25Z</time>
      </trkpt>
      <trkpt lat="42.85618" lon="2.83944">
        <ele>189.3</ele>
        <time>2021-03-28T07:11:25Z</time>
      </trkpt>
      <trkpt lat="42.85616" lon="2.83939">
        <ele>189.7</ele>
        <time>2021-03-28T07:11:27Z</time>
      </trkpt>
      <trkpt lat="42.85616" lon="2.83939">
        <ele>189.7</ele>
        <time>2021-03-28T07:11:27Z</time>
      </trkpt>
      <trkpt lat="42.85614" lon="2.83936">
        <ele>190</ele>
        <time>2021-03-28T07:11:28Z</time>
      </trkpt>
      <trkpt lat="42.85614" lon="2.83936">
        <ele>190</ele>
        <time>2021-03-28T07:11:28Z</time>
      </trkpt>
      <trkpt lat="42.85613" lon="2.83932">
        <ele>190.1</ele>
        <time>2021-03-28T07:11:29Z</time>
      </trkpt>
      <trkpt lat="42.85613" lon="2.83932">
        <ele>190.1</ele>
        <time>2021-03-28T07:11:29Z</time>
      </trkpt>
      <trkpt lat="42.85611" lon="2.83928">
        <ele>190.6</ele>
        <time>2021-03-28T07:11:31Z</time>
      </trkpt>
      <trkpt lat="42.85611" lon="2.83928">
        <ele>190.6</ele>
        <time>2021-03-28T07:11:31Z</time>
      </trkpt>
      <trkpt lat="42.8561" lon="2.83924">
        <ele>191</ele>
        <time>2021-03-28T07:11:32Z</time>
      </trkpt>
      <trkpt lat="42.8561" lon="2.83924">
        <ele>191</ele>
        <time>2021-03-28T07:11:32Z</time>
      </trkpt>
      <trkpt lat="42.85608" lon="2.8392">
        <ele>191.4</ele>
        <time>2021-03-28T07:11:34Z</time>
      </trkpt>
      <trkpt lat="42.85608" lon="2.8392">
        <ele>191.4</ele>
        <time>2021-03-28T07:11:34Z</time>
      </trkpt>
      <trkpt lat="42.85606" lon="2.83915">
        <ele>191.9</ele>
        <time>2021-03-28T07:11:36Z</time>
      </trkpt>
      <trkpt lat="42.85606" lon="2.83915">
        <ele>191.9</ele>
        <time>2021-03-28T07:11:36Z</time>
      </trkpt>
      <trkpt lat="42.85604" lon="2.8391">
        <ele>192.1</ele>
        <time>2021-03-28T07:11:37Z</time>
      </trkpt>
      <trkpt lat="42.85604" lon="2.8391">
        <ele>192.1</ele>
        <time>2021-03-28T07:11:37Z</time>
      </trkpt>
      <trkpt lat="42.85603" lon="2.83907">
        <ele>192.3</ele>
        <time>2021-03-28T07:11:38Z</time>
      </trkpt>
      <trkpt lat="42.85603" lon="2.83907">
        <ele>192.3</ele>
        <time>2021-03-28T07:11:38Z</time>
      </trkpt>
      <trkpt lat="42.85601" lon="2.83903">
        <ele>192.4</ele>
        <time>2021-03-28T07:11:40Z</time>
      </trkpt>
      <trkpt lat="42.85601" lon="2.83903">
        <ele>192.4</ele>
        <time>2021-03-28T07:11:40Z</time>
      </trkpt>
      <trkpt lat="42.85599" lon="2.83899">
        <ele>192.5</ele>
        <time>2021-03-28T07:11:41Z</time>
      </trkpt>
      <trkpt lat="42.85599" lon="2.83899">
        <ele>192.5</ele>
        <time>2021-03-28T07:11:41Z</time>
      </trkpt>
      <trkpt lat="42.85597" lon="2.83896">
        <ele>192.5</ele>
        <time>2021-03-28T07:11:42Z</time>
      </trkpt>
      <trkpt lat="42.85597" lon="2.83896">
        <ele>192.5</ele>
        <time>2021-03-28T07:11:42Z</time>
      </trkpt>
      <trkpt lat="42.85595" lon="2.83892">
        <ele>192.5</ele>
        <time>2021-03-28T07:11:43Z</time>
      </trkpt>
      <trkpt lat="42.85595" lon="2.83892">
        <ele>192.5</ele>
        <time>2021-03-28T07:11:43Z</time>
      </trkpt>
      <trkpt lat="42.85593" lon="2.83888">
        <ele>192.6</ele>
        <time>2021-03-28T07:11:45Z</time>
      </trkpt>
      <trkpt lat="42.85593" lon="2.83888">
        <ele>192.6</ele>
        <time>2021-03-28T07:11:45Z</time>
      </trkpt>
      <trkpt lat="42.8559" lon="2.83883">
        <ele>192.8</ele>
        <time>2021-03-28T07:11:47Z</time>
      </trkpt>
      <trkpt lat="42.8559" lon="2.83883">
        <ele>192.8</ele>
        <time>2021-03-28T07:11:47Z</time>
      </trkpt>
      <trkpt lat="42.85588" lon="2.83879">
        <ele>193</ele>
        <time>2021-03-28T07:11:48Z</time>
      </trkpt>
      <trkpt lat="42.85588" lon="2.83879">
        <ele>193</ele>
        <time>2021-03-28T07:11:48Z</time>
      </trkpt>
      <trkpt lat="42.85586" lon="2.83874">
        <ele>193.2</ele>
        <time>2021-03-28T07:11:50Z</time>
      </trkpt>
      <trkpt lat="42.85586" lon="2.83874">
        <ele>193.2</ele>
        <time>2021-03-28T07:11:50Z</time>
      </trkpt>
      <trkpt lat="42.85584" lon="2.83869">
        <ele>193.4</ele>
        <time>2021-03-28T07:11:52Z</time>
      </trkpt>
      <trkpt lat="42.85584" lon="2.83869">
        <ele>193.4</ele>
        <time>2021-03-28T07:11:52Z</time>
      </trkpt>
      <trkpt lat="42.85582" lon="2.83865">
        <ele>193.7</ele>
        <time>2021-03-28T07:11:53Z</time>
      </trkpt>
      <trkpt lat="42.85582" lon="2.83865">
        <ele>193.7</ele>
        <time>2021-03-28T07:11:53Z</time>
      </trkpt>
      <trkpt lat="42.8558" lon="2.8386">
        <ele>194</ele>
        <time>2021-03-28T07:11:54Z</time>
      </trkpt>
      <trkpt lat="42.8558" lon="2.8386">
        <ele>194</ele>
        <time>2021-03-28T07:11:54Z</time>
      </trkpt>
      <trkpt lat="42.85578" lon="2.83856">
        <ele>194.4</ele>
        <time>2021-03-28T07:11:56Z</time>
      </trkpt>
      <trkpt lat="42.85578" lon="2.83856">
        <ele>194.4</ele>
        <time>2021-03-28T07:11:56Z</time>
      </trkpt>
      <trkpt lat="42.85576" lon="2.83851">
        <ele>194.7</ele>
        <time>2021-03-28T07:11:58Z</time>
      </trkpt>
      <trkpt lat="42.85576" lon="2.83851">
        <ele>194.7</ele>
        <time>2021-03-28T07:11:58Z</time>
      </trkpt>
      <trkpt lat="42.85574" lon="2.83847">
        <ele>195</ele>
        <time>2021-03-28T07:11:59Z</time>
      </trkpt>
      <trkpt lat="42.85574" lon="2.83847">
        <ele>195</ele>
        <time>2021-03-28T07:11:59Z</time>
      </trkpt>
      <trkpt lat="42.85573" lon="2.83844">
        <ele>195.2</ele>
        <time>2021-03-28T07:12:00Z</time>
      </trkpt>
      <trkpt lat="42.85573" lon="2.83844">
        <ele>195.2</ele>
        <time>2021-03-28T07:12:00Z</time>
      </trkpt>
      <trkpt lat="42.85571" lon="2.8384">
        <ele>195.4</ele>
        <time>2021-03-28T07:12:02Z</time>
      </trkpt>
      <trkpt lat="42.85571" lon="2.8384">
        <ele>195.4</ele>
        <time>2021-03-28T07:12:02Z</time>
      </trkpt>
      <trkpt lat="42.85569" lon="2.83835">
        <ele>195.6</ele>
        <time>2021-03-28T07:12:04Z</time>
      </trkpt>
      <trkpt lat="42.85569" lon="2.83835">
        <ele>195.6</ele>
        <time>2021-03-28T07:12:04Z</time>
      </trkpt>
      <trkpt lat="42.85567" lon="2.8383">
        <ele>195.9</ele>
        <time>2021-03-28T07:12:06Z</time>
      </trkpt>
      <trkpt lat="42.85567" lon="2.8383">
        <ele>195.9</ele>
        <time>2021-03-28T07:12:06Z</time>
      </trkpt>
      <trkpt lat="42.85565" lon="2.83825">
        <ele>196.2</ele>
        <time>2021-03-28T07:12:08Z</time>
      </trkpt>
      <trkpt lat="42.85565" lon="2.83825">
        <ele>196.2</ele>
        <time>2021-03-28T07:12:08Z</time>
      </trkpt>
      <trkpt lat="42.85562" lon="2.83819">
        <ele>196.6</ele>
        <time>2021-03-28T07:12:10Z</time>
      </trkpt>
      <trkpt lat="42.85562" lon="2.83819">
        <ele>196.6</ele>
        <time>2021-03-28T07:12:10Z</time>
      </trkpt>
      <trkpt lat="42.8556" lon="2.83813">
        <ele>196.9</ele>
        <time>2021-03-28T07:12:12Z</time>
      </trkpt>
      <trkpt lat="42.8556" lon="2.83813">
        <ele>196.9</ele>
        <time>2021-03-28T07:12:12Z</time>
      </trkpt>
      <trkpt lat="42.85557" lon="2.83809">
        <ele>197</ele>
        <time>2021-03-28T07:12:13Z</time>
      </trkpt>
      <trkpt lat="42.85557" lon="2.83809">
        <ele>197</ele>
        <time>2021-03-28T07:12:13Z</time>
      </trkpt>
      <trkpt lat="42.85555" lon="2.83805">
        <ele>197</ele>
        <time>2021-03-28T07:12:14Z</time>
      </trkpt>
      <trkpt lat="42.85555" lon="2.83805">
        <ele>197</ele>
        <time>2021-03-28T07:12:14Z</time>
      </trkpt>
      <trkpt lat="42.85553" lon="2.83801">
        <ele>197.1</ele>
        <time>2021-03-28T07:12:16Z</time>
      </trkpt>
      <trkpt lat="42.85553" lon="2.83801">
        <ele>197.1</ele>
        <time>2021-03-28T07:12:16Z</time>
      </trkpt>
      <trkpt lat="42.85551" lon="2.83797">
        <ele>197.4</ele>
        <time>2021-03-28T07:12:18Z</time>
      </trkpt>
      <trkpt lat="42.85551" lon="2.83797">
        <ele>197.4</ele>
        <time>2021-03-28T07:12:18Z</time>
      </trkpt>
      <trkpt lat="42.85549" lon="2.83793">
        <ele>197.7</ele>
        <time>2021-03-28T07:12:20Z</time>
      </trkpt>
      <trkpt lat="42.85549" lon="2.83793">
        <ele>197.7</ele>
        <time>2021-03-28T07:12:20Z</time>
      </trkpt>
      <trkpt lat="42.85546" lon="2.83788">
        <ele>197.9</ele>
        <time>2021-03-28T07:12:22Z</time>
      </trkpt>
      <trkpt lat="42.85546" lon="2.83788">
        <ele>197.9</ele>
        <time>2021-03-28T07:12:22Z</time>
      </trkpt>
      <trkpt lat="42.85543" lon="2.83783">
        <ele>198.2</ele>
        <time>2021-03-28T07:12:23Z</time>
      </trkpt>
      <trkpt lat="42.85543" lon="2.83783">
        <ele>198.2</ele>
        <time>2021-03-28T07:12:23Z</time>
      </trkpt>
      <trkpt lat="42.85541" lon="2.8378">
        <ele>198.3</ele>
        <time>2021-03-28T07:12:24Z</time>
      </trkpt>
      <trkpt lat="42.85541" lon="2.8378">
        <ele>198.3</ele>
        <time>2021-03-28T07:12:24Z</time>
      </trkpt>
      <trkpt lat="42.85538" lon="2.83777">
        <ele>198.3</ele>
        <time>2021-03-28T07:12:25Z</time>
      </trkpt>
      <trkpt lat="42.85538" lon="2.83777">
        <ele>198.3</ele>
        <time>2021-03-28T07:12:25Z</time>
      </trkpt>
      <trkpt lat="42.85536" lon="2.83773">
        <ele>198.4</ele>
        <time>2021-03-28T07:12:27Z</time>
      </trkpt>
      <trkpt lat="42.85536" lon="2.83773">
        <ele>198.4</ele>
        <time>2021-03-28T07:12:27Z</time>
      </trkpt>
      <trkpt lat="42.85533" lon="2.8377">
        <ele>198.5</ele>
        <time>2021-03-28T07:12:29Z</time>
      </trkpt>
      <trkpt lat="42.85533" lon="2.8377">
        <ele>198.5</ele>
        <time>2021-03-28T07:12:29Z</time>
      </trkpt>
      <trkpt lat="42.85531" lon="2.83767">
        <ele>198.7</ele>
        <time>2021-03-28T07:12:30Z</time>
      </trkpt>
      <trkpt lat="42.85531" lon="2.83767">
        <ele>198.7</ele>
        <time>2021-03-28T07:12:30Z</time>
      </trkpt>
      <trkpt lat="42.85529" lon="2.83764">
        <ele>198.8</ele>
        <time>2021-03-28T07:12:32Z</time>
      </trkpt>
      <trkpt lat="42.85529" lon="2.83764">
        <ele>198.8</ele>
        <time>2021-03-28T07:12:32Z</time>
      </trkpt>
      <trkpt lat="42.85526" lon="2.8376">
        <ele>199.2</ele>
        <time>2021-03-28T07:12:34Z</time>
      </trkpt>
      <trkpt lat="42.85526" lon="2.8376">
        <ele>199.2</ele>
        <time>2021-03-28T07:12:34Z</time>
      </trkpt>
      <trkpt lat="42.85524" lon="2.83756">
        <ele>199.3</ele>
        <time>2021-03-28T07:12:35Z</time>
      </trkpt>
      <trkpt lat="42.85524" lon="2.83756">
        <ele>199.3</ele>
        <time>2021-03-28T07:12:35Z</time>
      </trkpt>
      <trkpt lat="42.85522" lon="2.83753">
        <ele>199.5</ele>
        <time>2021-03-28T07:12:36Z</time>
      </trkpt>
      <trkpt lat="42.85522" lon="2.83753">
        <ele>199.5</ele>
        <time>2021-03-28T07:12:36Z</time>
      </trkpt>
      <trkpt lat="42.8552" lon="2.83748">
        <ele>199.7</ele>
        <time>2021-03-28T07:12:38Z</time>
      </trkpt>
      <trkpt lat="42.8552" lon="2.83748">
        <ele>199.7</ele>
        <time>2021-03-28T07:12:38Z</time>
      </trkpt>
      <trkpt lat="42.85518" lon="2.83744">
        <ele>199.8</ele>
        <time>2021-03-28T07:12:39Z</time>
      </trkpt>
      <trkpt lat="42.85518" lon="2.83744">
        <ele>199.8</ele>
        <time>2021-03-28T07:12:39Z</time>
      </trkpt>
      <trkpt lat="42.85516" lon="2.83741">
        <ele>200</ele>
        <time>2021-03-28T07:12:40Z</time>
      </trkpt>
      <trkpt lat="42.85516" lon="2.83741">
        <ele>200</ele>
        <time>2021-03-28T07:12:40Z</time>
      </trkpt>
      <trkpt lat="42.85514" lon="2.83737">
        <ele>200.4</ele>
        <time>2021-03-28T07:12:42Z</time>
      </trkpt>
      <trkpt lat="42.85514" lon="2.83737">
        <ele>200.4</ele>
        <time>2021-03-28T07:12:42Z</time>
      </trkpt>
      <trkpt lat="42.85512" lon="2.83732">
        <ele>201</ele>
        <time>2021-03-28T07:12:44Z</time>
      </trkpt>
      <trkpt lat="42.85512" lon="2.83732">
        <ele>201</ele>
        <time>2021-03-28T07:12:44Z</time>
      </trkpt>
      <trkpt lat="42.85511" lon="2.83727">
        <ele>201.6</ele>
        <time>2021-03-28T07:12:45Z</time>
      </trkpt>
      <trkpt lat="42.85511" lon="2.83727">
        <ele>201.6</ele>
        <time>2021-03-28T07:12:45Z</time>
      </trkpt>
      <trkpt lat="42.85509" lon="2.83722">
        <ele>202.2</ele>
        <time>2021-03-28T07:12:47Z</time>
      </trkpt>
      <trkpt lat="42.85509" lon="2.83722">
        <ele>202.2</ele>
        <time>2021-03-28T07:12:47Z</time>
      </trkpt>
      <trkpt lat="42.85507" lon="2.83716">
        <ele>202.2</ele>
        <time>2021-03-28T07:12:49Z</time>
      </trkpt>
      <trkpt lat="42.85507" lon="2.83716">
        <ele>202.2</ele>
        <time>2021-03-28T07:12:49Z</time>
      </trkpt>
      <trkpt lat="42.85506" lon="2.83709">
        <ele>202.4</ele>
        <time>2021-03-28T07:12:51Z</time>
      </trkpt>
      <trkpt lat="42.85506" lon="2.83709">
        <ele>202.4</ele>
        <time>2021-03-28T07:12:51Z</time>
      </trkpt>
      <trkpt lat="42.85505" lon="2.83703">
        <ele>202.7</ele>
        <time>2021-03-28T07:12:52Z</time>
      </trkpt>
      <trkpt lat="42.85505" lon="2.83703">
        <ele>202.7</ele>
        <time>2021-03-28T07:12:52Z</time>
      </trkpt>
      <trkpt lat="42.85505" lon="2.83696">
        <ele>203.1</ele>
        <time>2021-03-28T07:12:54Z</time>
      </trkpt>
      <trkpt lat="42.85505" lon="2.83696">
        <ele>203.1</ele>
        <time>2021-03-28T07:12:54Z</time>
      </trkpt>
      <trkpt lat="42.85504" lon="2.83688">
        <ele>203.1</ele>
        <time>2021-03-28T07:12:56Z</time>
      </trkpt>
      <trkpt lat="42.85504" lon="2.83688">
        <ele>203.1</ele>
        <time>2021-03-28T07:12:56Z</time>
      </trkpt>
      <trkpt lat="42.85504" lon="2.8368">
        <ele>203</ele>
        <time>2021-03-28T07:12:58Z</time>
      </trkpt>
      <trkpt lat="42.85504" lon="2.8368">
        <ele>203</ele>
        <time>2021-03-28T07:12:58Z</time>
      </trkpt>
      <trkpt lat="42.85504" lon="2.83672">
        <ele>203.1</ele>
        <time>2021-03-28T07:13:00Z</time>
      </trkpt>
      <trkpt lat="42.85504" lon="2.83672">
        <ele>203.1</ele>
        <time>2021-03-28T07:13:00Z</time>
      </trkpt>
      <trkpt lat="42.85505" lon="2.83666">
        <ele>203.2</ele>
        <time>2021-03-28T07:13:01Z</time>
      </trkpt>
      <trkpt lat="42.85505" lon="2.83666">
        <ele>203.2</ele>
        <time>2021-03-28T07:13:01Z</time>
      </trkpt>
      <trkpt lat="42.85505" lon="2.8366">
        <ele>203.3</ele>
        <time>2021-03-28T07:13:02Z</time>
      </trkpt>
      <trkpt lat="42.85505" lon="2.8366">
        <ele>203.3</ele>
        <time>2021-03-28T07:13:02Z</time>
      </trkpt>
      <trkpt lat="42.85506" lon="2.83654">
        <ele>203.6</ele>
        <time>2021-03-28T07:13:04Z</time>
      </trkpt>
      <trkpt lat="42.85506" lon="2.83654">
        <ele>203.6</ele>
        <time>2021-03-28T07:13:04Z</time>
      </trkpt>
      <trkpt lat="42.85506" lon="2.83649">
        <ele>203.8</ele>
        <time>2021-03-28T07:13:05Z</time>
      </trkpt>
      <trkpt lat="42.85506" lon="2.83649">
        <ele>203.8</ele>
        <time>2021-03-28T07:13:05Z</time>
      </trkpt>
      <trkpt lat="42.85506" lon="2.83643">
        <ele>204</ele>
        <time>2021-03-28T07:13:07Z</time>
      </trkpt>
      <trkpt lat="42.85506" lon="2.83643">
        <ele>204</ele>
        <time>2021-03-28T07:13:07Z</time>
      </trkpt>
      <trkpt lat="42.85507" lon="2.83637">
        <ele>204.3</ele>
        <time>2021-03-28T07:13:08Z</time>
      </trkpt>
      <trkpt lat="42.85507" lon="2.83637">
        <ele>204.3</ele>
        <time>2021-03-28T07:13:08Z</time>
      </trkpt>
      <trkpt lat="42.85507" lon="2.83631">
        <ele>204.6</ele>
        <time>2021-03-28T07:13:09Z</time>
      </trkpt>
      <trkpt lat="42.85507" lon="2.83631">
        <ele>204.6</ele>
        <time>2021-03-28T07:13:09Z</time>
      </trkpt>
      <trkpt lat="42.85508" lon="2.83625">
        <ele>205</ele>
        <time>2021-03-28T07:13:11Z</time>
      </trkpt>
      <trkpt lat="42.85508" lon="2.83625">
        <ele>205</ele>
        <time>2021-03-28T07:13:11Z</time>
      </trkpt>
      <trkpt lat="42.85508" lon="2.83618">
        <ele>205.4</ele>
        <time>2021-03-28T07:13:13Z</time>
      </trkpt>
      <trkpt lat="42.85508" lon="2.83618">
        <ele>205.4</ele>
        <time>2021-03-28T07:13:13Z</time>
      </trkpt>
      <trkpt lat="42.85508" lon="2.83611">
        <ele>205.7</ele>
        <time>2021-03-28T07:13:14Z</time>
      </trkpt>
      <trkpt lat="42.85508" lon="2.83611">
        <ele>205.7</ele>
        <time>2021-03-28T07:13:14Z</time>
      </trkpt>
      <trkpt lat="42.85509" lon="2.83604">
        <ele>205.9</ele>
        <time>2021-03-28T07:13:16Z</time>
      </trkpt>
      <trkpt lat="42.85509" lon="2.83604">
        <ele>205.9</ele>
        <time>2021-03-28T07:13:16Z</time>
      </trkpt>
      <trkpt lat="42.85509" lon="2.83598">
        <ele>206.1</ele>
        <time>2021-03-28T07:13:18Z</time>
      </trkpt>
      <trkpt lat="42.85509" lon="2.83598">
        <ele>206.1</ele>
        <time>2021-03-28T07:13:18Z</time>
      </trkpt>
      <trkpt lat="42.8551" lon="2.83591">
        <ele>206.3</ele>
        <time>2021-03-28T07:13:20Z</time>
      </trkpt>
      <trkpt lat="42.8551" lon="2.83591">
        <ele>206.3</ele>
        <time>2021-03-28T07:13:20Z</time>
      </trkpt>
      <trkpt lat="42.8551" lon="2.83583">
        <ele>206.5</ele>
        <time>2021-03-28T07:13:22Z</time>
      </trkpt>
      <trkpt lat="42.8551" lon="2.83583">
        <ele>206.5</ele>
        <time>2021-03-28T07:13:22Z</time>
      </trkpt>
      <trkpt lat="42.8551" lon="2.83577">
        <ele>206.7</ele>
        <time>2021-03-28T07:13:23Z</time>
      </trkpt>
      <trkpt lat="42.8551" lon="2.83577">
        <ele>206.7</ele>
        <time>2021-03-28T07:13:23Z</time>
      </trkpt>
      <trkpt lat="42.8551" lon="2.83571">
        <ele>206.7</ele>
        <time>2021-03-28T07:13:25Z</time>
      </trkpt>
      <trkpt lat="42.8551" lon="2.83571">
        <ele>206.7</ele>
        <time>2021-03-28T07:13:25Z</time>
      </trkpt>
      <trkpt lat="42.8551" lon="2.83563">
        <ele>206.7</ele>
        <time>2021-03-28T07:13:27Z</time>
      </trkpt>
      <trkpt lat="42.8551" lon="2.83563">
        <ele>206.7</ele>
        <time>2021-03-28T07:13:27Z</time>
      </trkpt>
      <trkpt lat="42.85509" lon="2.83555">
        <ele>206.7</ele>
        <time>2021-03-28T07:13:29Z</time>
      </trkpt>
      <trkpt lat="42.85509" lon="2.83555">
        <ele>206.7</ele>
        <time>2021-03-28T07:13:29Z</time>
      </trkpt>
      <trkpt lat="42.85509" lon="2.83549">
        <ele>207</ele>
        <time>2021-03-28T07:13:30Z</time>
      </trkpt>
      <trkpt lat="42.85509" lon="2.83549">
        <ele>207</ele>
        <time>2021-03-28T07:13:30Z</time>
      </trkpt>
      <trkpt lat="42.85508" lon="2.83543">
        <ele>207.2</ele>
        <time>2021-03-28T07:13:31Z</time>
      </trkpt>
      <trkpt lat="42.85508" lon="2.83543">
        <ele>207.2</ele>
        <time>2021-03-28T07:13:31Z</time>
      </trkpt>
      <trkpt lat="42.85506" lon="2.83536">
        <ele>207.3</ele>
        <time>2021-03-28T07:13:33Z</time>
      </trkpt>
      <trkpt lat="42.85506" lon="2.83536">
        <ele>207.3</ele>
        <time>2021-03-28T07:13:33Z</time>
      </trkpt>
      <trkpt lat="42.85503" lon="2.83528">
        <ele>207.4</ele>
        <time>2021-03-28T07:13:35Z</time>
      </trkpt>
      <trkpt lat="42.85503" lon="2.83528">
        <ele>207.4</ele>
        <time>2021-03-28T07:13:35Z</time>
      </trkpt>
      <trkpt lat="42.855" lon="2.83522">
        <ele>207.3</ele>
        <time>2021-03-28T07:13:36Z</time>
      </trkpt>
      <trkpt lat="42.855" lon="2.83522">
        <ele>207.3</ele>
        <time>2021-03-28T07:13:36Z</time>
      </trkpt>
      <trkpt lat="42.85497" lon="2.83515">
        <ele>207.1</ele>
        <time>2021-03-28T07:13:38Z</time>
      </trkpt>
      <trkpt lat="42.85497" lon="2.83515">
        <ele>207.1</ele>
        <time>2021-03-28T07:13:38Z</time>
      </trkpt>
      <trkpt lat="42.85494" lon="2.83508">
        <ele>207</ele>
        <time>2021-03-28T07:13:40Z</time>
      </trkpt>
      <trkpt lat="42.85494" lon="2.83508">
        <ele>207</ele>
        <time>2021-03-28T07:13:40Z</time>
      </trkpt>
      <trkpt lat="42.85491" lon="2.83502">
        <ele>207</ele>
        <time>2021-03-28T07:13:41Z</time>
      </trkpt>
      <trkpt lat="42.85491" lon="2.83502">
        <ele>207</ele>
        <time>2021-03-28T07:13:41Z</time>
      </trkpt>
      <trkpt lat="42.85488" lon="2.83496">
        <ele>206.8</ele>
        <time>2021-03-28T07:13:43Z</time>
      </trkpt>
      <trkpt lat="42.85488" lon="2.83496">
        <ele>206.8</ele>
        <time>2021-03-28T07:13:43Z</time>
      </trkpt>
      <trkpt lat="42.85484" lon="2.8349">
        <ele>206.7</ele>
        <time>2021-03-28T07:13:45Z</time>
      </trkpt>
      <trkpt lat="42.85484" lon="2.8349">
        <ele>206.7</ele>
        <time>2021-03-28T07:13:45Z</time>
      </trkpt>
      <trkpt lat="42.85481" lon="2.83484">
        <ele>206.8</ele>
        <time>2021-03-28T07:13:46Z</time>
      </trkpt>
      <trkpt lat="42.85481" lon="2.83484">
        <ele>206.8</ele>
        <time>2021-03-28T07:13:46Z</time>
      </trkpt>
      <trkpt lat="42.85477" lon="2.83477">
        <ele>206.9</ele>
        <time>2021-03-28T07:13:48Z</time>
      </trkpt>
      <trkpt lat="42.85477" lon="2.83477">
        <ele>206.9</ele>
        <time>2021-03-28T07:13:48Z</time>
      </trkpt>
      <trkpt lat="42.85473" lon="2.83471">
        <ele>207.2</ele>
        <time>2021-03-28T07:13:50Z</time>
      </trkpt>
      <trkpt lat="42.85473" lon="2.83471">
        <ele>207.2</ele>
        <time>2021-03-28T07:13:50Z</time>
      </trkpt>
      <trkpt lat="42.8547" lon="2.83465">
        <ele>207.6</ele>
        <time>2021-03-28T07:13:51Z</time>
      </trkpt>
      <trkpt lat="42.8547" lon="2.83465">
        <ele>207.6</ele>
        <time>2021-03-28T07:13:51Z</time>
      </trkpt>
      <trkpt lat="42.85467" lon="2.83459">
        <ele>208</ele>
        <time>2021-03-28T07:13:53Z</time>
      </trkpt>
      <trkpt lat="42.85467" lon="2.83459">
        <ele>208</ele>
        <time>2021-03-28T07:13:53Z</time>
      </trkpt>
      <trkpt lat="42.85464" lon="2.83452">
        <ele>208.3</ele>
        <time>2021-03-28T07:13:55Z</time>
      </trkpt>
      <trkpt lat="42.85464" lon="2.83452">
        <ele>208.3</ele>
        <time>2021-03-28T07:13:55Z</time>
      </trkpt>
      <trkpt lat="42.85462" lon="2.83447">
        <ele>208.6</ele>
        <time>2021-03-28T07:13:56Z</time>
      </trkpt>
      <trkpt lat="42.85462" lon="2.83447">
        <ele>208.6</ele>
        <time>2021-03-28T07:13:56Z</time>
      </trkpt>
      <trkpt lat="42.85459" lon="2.83441">
        <ele>209</ele>
        <time>2021-03-28T07:13:58Z</time>
      </trkpt>
      <trkpt lat="42.85459" lon="2.83441">
        <ele>209</ele>
        <time>2021-03-28T07:13:58Z</time>
      </trkpt>
      <trkpt lat="42.85457" lon="2.83435">
        <ele>209.5</ele>
        <time>2021-03-28T07:14:00Z</time>
      </trkpt>
      <trkpt lat="42.85457" lon="2.83435">
        <ele>209.5</ele>
        <time>2021-03-28T07:14:00Z</time>
      </trkpt>
      <trkpt lat="42.85455" lon="2.8343">
        <ele>209.9</ele>
        <time>2021-03-28T07:14:01Z</time>
      </trkpt>
      <trkpt lat="42.85455" lon="2.8343">
        <ele>209.9</ele>
        <time>2021-03-28T07:14:01Z</time>
      </trkpt>
      <trkpt lat="42.85454" lon="2.83426">
        <ele>210.2</ele>
        <time>2021-03-28T07:14:02Z</time>
      </trkpt>
      <trkpt lat="42.85454" lon="2.83426">
        <ele>210.2</ele>
        <time>2021-03-28T07:14:02Z</time>
      </trkpt>
      <trkpt lat="42.85452" lon="2.8342">
        <ele>210.6</ele>
        <time>2021-03-28T07:14:04Z</time>
      </trkpt>
      <trkpt lat="42.85452" lon="2.8342">
        <ele>210.6</ele>
        <time>2021-03-28T07:14:04Z</time>
      </trkpt>
      <trkpt lat="42.8545" lon="2.83415">
        <ele>211</ele>
        <time>2021-03-28T07:14:05Z</time>
      </trkpt>
      <trkpt lat="42.8545" lon="2.83415">
        <ele>211</ele>
        <time>2021-03-28T07:14:05Z</time>
      </trkpt>
      <trkpt lat="42.85449" lon="2.83411">
        <ele>211.5</ele>
        <time>2021-03-28T07:14:06Z</time>
      </trkpt>
      <trkpt lat="42.85449" lon="2.83411">
        <ele>211.5</ele>
        <time>2021-03-28T07:14:06Z</time>
      </trkpt>
      <trkpt lat="42.85447" lon="2.83406">
        <ele>211.9</ele>
        <time>2021-03-28T07:14:07Z</time>
      </trkpt>
      <trkpt lat="42.85447" lon="2.83406">
        <ele>211.9</ele>
        <time>2021-03-28T07:14:07Z</time>
      </trkpt>
      <trkpt lat="42.85445" lon="2.83401">
        <ele>212.3</ele>
        <time>2021-03-28T07:14:09Z</time>
      </trkpt>
      <trkpt lat="42.85445" lon="2.83401">
        <ele>212.3</ele>
        <time>2021-03-28T07:14:09Z</time>
      </trkpt>
      <trkpt lat="42.85443" lon="2.83397">
        <ele>212.6</ele>
        <time>2021-03-28T07:14:10Z</time>
      </trkpt>
      <trkpt lat="42.85443" lon="2.83397">
        <ele>212.6</ele>
        <time>2021-03-28T07:14:10Z</time>
      </trkpt>
      <trkpt lat="42.85441" lon="2.83392">
        <ele>212.8</ele>
        <time>2021-03-28T07:14:11Z</time>
      </trkpt>
      <trkpt lat="42.85441" lon="2.83392">
        <ele>212.8</ele>
        <time>2021-03-28T07:14:11Z</time>
      </trkpt>
      <trkpt lat="42.8544" lon="2.83387">
        <ele>212.9</ele>
        <time>2021-03-28T07:14:13Z</time>
      </trkpt>
      <trkpt lat="42.8544" lon="2.83387">
        <ele>212.9</ele>
        <time>2021-03-28T07:14:13Z</time>
      </trkpt>
      <trkpt lat="42.85438" lon="2.83382">
        <ele>213</ele>
        <time>2021-03-28T07:14:14Z</time>
      </trkpt>
      <trkpt lat="42.85438" lon="2.83382">
        <ele>213</ele>
        <time>2021-03-28T07:14:14Z</time>
      </trkpt>
      <trkpt lat="42.85436" lon="2.83377">
        <ele>213</ele>
        <time>2021-03-28T07:14:16Z</time>
      </trkpt>
      <trkpt lat="42.85436" lon="2.83377">
        <ele>213</ele>
        <time>2021-03-28T07:14:16Z</time>
      </trkpt>
      <trkpt lat="42.85434" lon="2.83372">
        <ele>213</ele>
        <time>2021-03-28T07:14:17Z</time>
      </trkpt>
      <trkpt lat="42.85434" lon="2.83372">
        <ele>213</ele>
        <time>2021-03-28T07:14:17Z</time>
      </trkpt>
      <trkpt lat="42.85433" lon="2.83367">
        <ele>213.2</ele>
        <time>2021-03-28T07:14:19Z</time>
      </trkpt>
      <trkpt lat="42.85433" lon="2.83367">
        <ele>213.2</ele>
        <time>2021-03-28T07:14:19Z</time>
      </trkpt>
      <trkpt lat="42.85432" lon="2.83362">
        <ele>213.3</ele>
        <time>2021-03-28T07:14:20Z</time>
      </trkpt>
      <trkpt lat="42.85432" lon="2.83362">
        <ele>213.3</ele>
        <time>2021-03-28T07:14:20Z</time>
      </trkpt>
      <trkpt lat="42.8543" lon="2.83357">
        <ele>213.5</ele>
        <time>2021-03-28T07:14:21Z</time>
      </trkpt>
      <trkpt lat="42.8543" lon="2.83357">
        <ele>213.5</ele>
        <time>2021-03-28T07:14:21Z</time>
      </trkpt>
      <trkpt lat="42.85428" lon="2.83351">
        <ele>213.8</ele>
        <time>2021-03-28T07:14:23Z</time>
      </trkpt>
      <trkpt lat="42.85428" lon="2.83351">
        <ele>213.8</ele>
        <time>2021-03-28T07:14:23Z</time>
      </trkpt>
      <trkpt lat="42.85426" lon="2.83345">
        <ele>214.1</ele>
        <time>2021-03-28T07:14:25Z</time>
      </trkpt>
      <trkpt lat="42.85426" lon="2.83345">
        <ele>214.1</ele>
        <time>2021-03-28T07:14:25Z</time>
      </trkpt>
      <trkpt lat="42.85424" lon="2.83339">
        <ele>214.3</ele>
        <time>2021-03-28T07:14:26Z</time>
      </trkpt>
      <trkpt lat="42.85424" lon="2.83339">
        <ele>214.3</ele>
        <time>2021-03-28T07:14:26Z</time>
      </trkpt>
      <trkpt lat="42.85423" lon="2.83333">
        <ele>214.7</ele>
        <time>2021-03-28T07:14:28Z</time>
      </trkpt>
      <trkpt lat="42.85423" lon="2.83333">
        <ele>214.7</ele>
        <time>2021-03-28T07:14:28Z</time>
      </trkpt>
      <trkpt lat="42.85421" lon="2.83328">
        <ele>215</ele>
        <time>2021-03-28T07:14:29Z</time>
      </trkpt>
      <trkpt lat="42.85421" lon="2.83328">
        <ele>215</ele>
        <time>2021-03-28T07:14:29Z</time>
      </trkpt>
      <trkpt lat="42.8542" lon="2.83323">
        <ele>215.2</ele>
        <time>2021-03-28T07:14:30Z</time>
      </trkpt>
      <trkpt lat="42.8542" lon="2.83323">
        <ele>215.2</ele>
        <time>2021-03-28T07:14:30Z</time>
      </trkpt>
      <trkpt lat="42.8542" lon="2.83318">
        <ele>215.6</ele>
        <time>2021-03-28T07:14:32Z</time>
      </trkpt>
      <trkpt lat="42.8542" lon="2.83318">
        <ele>215.6</ele>
        <time>2021-03-28T07:14:32Z</time>
      </trkpt>
      <trkpt lat="42.85419" lon="2.83313">
        <ele>215.9</ele>
        <time>2021-03-28T07:14:33Z</time>
      </trkpt>
      <trkpt lat="42.85419" lon="2.83313">
        <ele>215.9</ele>
        <time>2021-03-28T07:14:33Z</time>
      </trkpt>
      <trkpt lat="42.85417" lon="2.83308">
        <ele>216</ele>
        <time>2021-03-28T07:14:35Z</time>
      </trkpt>
      <trkpt lat="42.85417" lon="2.83308">
        <ele>216</ele>
        <time>2021-03-28T07:14:35Z</time>
      </trkpt>
      <trkpt lat="42.85416" lon="2.83302">
        <ele>216.5</ele>
        <time>2021-03-28T07:14:37Z</time>
      </trkpt>
      <trkpt lat="42.85416" lon="2.83302">
        <ele>216.5</ele>
        <time>2021-03-28T07:14:37Z</time>
      </trkpt>
      <trkpt lat="42.85415" lon="2.83297">
        <ele>217.1</ele>
        <time>2021-03-28T07:14:38Z</time>
      </trkpt>
      <trkpt lat="42.85415" lon="2.83297">
        <ele>217.1</ele>
        <time>2021-03-28T07:14:38Z</time>
      </trkpt>
      <trkpt lat="42.85413" lon="2.83292">
        <ele>217.7</ele>
        <time>2021-03-28T07:14:40Z</time>
      </trkpt>
      <trkpt lat="42.85413" lon="2.83292">
        <ele>217.7</ele>
        <time>2021-03-28T07:14:40Z</time>
      </trkpt>
      <trkpt lat="42.85411" lon="2.83286">
        <ele>218.5</ele>
        <time>2021-03-28T07:14:42Z</time>
      </trkpt>
      <trkpt lat="42.85411" lon="2.83286">
        <ele>218.5</ele>
        <time>2021-03-28T07:14:42Z</time>
      </trkpt>
      <trkpt lat="42.85409" lon="2.8328">
        <ele>218.9</ele>
        <time>2021-03-28T07:14:43Z</time>
      </trkpt>
      <trkpt lat="42.85409" lon="2.8328">
        <ele>218.9</ele>
        <time>2021-03-28T07:14:43Z</time>
      </trkpt>
      <trkpt lat="42.85408" lon="2.83275">
        <ele>219.3</ele>
        <time>2021-03-28T07:14:44Z</time>
      </trkpt>
      <trkpt lat="42.85408" lon="2.83275">
        <ele>219.3</ele>
        <time>2021-03-28T07:14:44Z</time>
      </trkpt>
      <trkpt lat="42.85405" lon="2.83269">
        <ele>219.7</ele>
        <time>2021-03-28T07:14:46Z</time>
      </trkpt>
      <trkpt lat="42.85405" lon="2.83269">
        <ele>219.7</ele>
        <time>2021-03-28T07:14:46Z</time>
      </trkpt>
      <trkpt lat="42.85402" lon="2.83264">
        <ele>219.8</ele>
        <time>2021-03-28T07:14:48Z</time>
      </trkpt>
      <trkpt lat="42.85402" lon="2.83264">
        <ele>219.8</ele>
        <time>2021-03-28T07:14:48Z</time>
      </trkpt>
      <trkpt lat="42.85399" lon="2.83259">
        <ele>219.8</ele>
        <time>2021-03-28T07:14:49Z</time>
      </trkpt>
      <trkpt lat="42.85399" lon="2.83259">
        <ele>219.8</ele>
        <time>2021-03-28T07:14:49Z</time>
      </trkpt>
      <trkpt lat="42.85396" lon="2.83254">
        <ele>219.8</ele>
        <time>2021-03-28T07:14:51Z</time>
      </trkpt>
      <trkpt lat="42.85396" lon="2.83254">
        <ele>219.8</ele>
        <time>2021-03-28T07:14:51Z</time>
      </trkpt>
      <trkpt lat="42.85392" lon="2.83248">
        <ele>219.6</ele>
        <time>2021-03-28T07:14:53Z</time>
      </trkpt>
      <trkpt lat="42.85392" lon="2.83248">
        <ele>219.6</ele>
        <time>2021-03-28T07:14:53Z</time>
      </trkpt>
      <trkpt lat="42.85389" lon="2.83243">
        <ele>219.7</ele>
        <time>2021-03-28T07:14:54Z</time>
      </trkpt>
      <trkpt lat="42.85389" lon="2.83243">
        <ele>219.7</ele>
        <time>2021-03-28T07:14:54Z</time>
      </trkpt>
      <trkpt lat="42.85386" lon="2.83239">
        <ele>220</ele>
        <time>2021-03-28T07:14:55Z</time>
      </trkpt>
      <trkpt lat="42.85386" lon="2.83239">
        <ele>220</ele>
        <time>2021-03-28T07:14:55Z</time>
      </trkpt>
      <trkpt lat="42.85384" lon="2.83235">
        <ele>220.3</ele>
        <time>2021-03-28T07:14:56Z</time>
      </trkpt>
      <trkpt lat="42.85384" lon="2.83235">
        <ele>220.3</ele>
        <time>2021-03-28T07:14:56Z</time>
      </trkpt>
      <trkpt lat="42.85381" lon="2.83231">
        <ele>220.5</ele>
        <time>2021-03-28T07:14:58Z</time>
      </trkpt>
      <trkpt lat="42.85381" lon="2.83231">
        <ele>220.5</ele>
        <time>2021-03-28T07:14:58Z</time>
      </trkpt>
      <trkpt lat="42.85379" lon="2.83227">
        <ele>220.7</ele>
        <time>2021-03-28T07:14:59Z</time>
      </trkpt>
      <trkpt lat="42.85379" lon="2.83227">
        <ele>220.7</ele>
        <time>2021-03-28T07:14:59Z</time>
      </trkpt>
      <trkpt lat="42.85376" lon="2.83223">
        <ele>220.8</ele>
        <time>2021-03-28T07:15:00Z</time>
      </trkpt>
      <trkpt lat="42.85376" lon="2.83223">
        <ele>220.8</ele>
        <time>2021-03-28T07:15:00Z</time>
      </trkpt>
      <trkpt lat="42.85374" lon="2.83218">
        <ele>220.9</ele>
        <time>2021-03-28T07:15:02Z</time>
      </trkpt>
      <trkpt lat="42.85374" lon="2.83218">
        <ele>220.9</ele>
        <time>2021-03-28T07:15:02Z</time>
      </trkpt>
      <trkpt lat="42.85372" lon="2.83214">
        <ele>221</ele>
        <time>2021-03-28T07:15:03Z</time>
      </trkpt>
      <trkpt lat="42.85372" lon="2.83214">
        <ele>221</ele>
        <time>2021-03-28T07:15:03Z</time>
      </trkpt>
      <trkpt lat="42.85369" lon="2.83209">
        <ele>221.1</ele>
        <time>2021-03-28T07:15:05Z</time>
      </trkpt>
      <trkpt lat="42.85369" lon="2.83209">
        <ele>221.1</ele>
        <time>2021-03-28T07:15:05Z</time>
      </trkpt>
      <trkpt lat="42.85366" lon="2.83204">
        <ele>221</ele>
        <time>2021-03-28T07:15:06Z</time>
      </trkpt>
      <trkpt lat="42.85366" lon="2.83204">
        <ele>221</ele>
        <time>2021-03-28T07:15:06Z</time>
      </trkpt>
      <trkpt lat="42.85364" lon="2.832">
        <ele>221</ele>
        <time>2021-03-28T07:15:08Z</time>
      </trkpt>
      <trkpt lat="42.85364" lon="2.832">
        <ele>221</ele>
        <time>2021-03-28T07:15:08Z</time>
      </trkpt>
      <trkpt lat="42.85361" lon="2.83195">
        <ele>220.8</ele>
        <time>2021-03-28T07:15:10Z</time>
      </trkpt>
      <trkpt lat="42.85361" lon="2.83195">
        <ele>220.8</ele>
        <time>2021-03-28T07:15:10Z</time>
      </trkpt>
      <trkpt lat="42.85358" lon="2.8319">
        <ele>221.3</ele>
        <time>2021-03-28T07:15:12Z</time>
      </trkpt>
      <trkpt lat="42.85358" lon="2.8319">
        <ele>221.3</ele>
        <time>2021-03-28T07:15:12Z</time>
      </trkpt>
      <trkpt lat="42.85355" lon="2.83185">
        <ele>221.7</ele>
        <time>2021-03-28T07:15:13Z</time>
      </trkpt>
      <trkpt lat="42.85355" lon="2.83185">
        <ele>221.7</ele>
        <time>2021-03-28T07:15:13Z</time>
      </trkpt>
      <trkpt lat="42.85353" lon="2.83181">
        <ele>222.1</ele>
        <time>2021-03-28T07:15:14Z</time>
      </trkpt>
      <trkpt lat="42.85353" lon="2.83181">
        <ele>222.1</ele>
        <time>2021-03-28T07:15:14Z</time>
      </trkpt>
      <trkpt lat="42.85351" lon="2.83176">
        <ele>222.4</ele>
        <time>2021-03-28T07:15:16Z</time>
      </trkpt>
      <trkpt lat="42.85351" lon="2.83176">
        <ele>222.4</ele>
        <time>2021-03-28T07:15:16Z</time>
      </trkpt>
      <trkpt lat="42.85349" lon="2.83171">
        <ele>222.7</ele>
        <time>2021-03-28T07:15:17Z</time>
      </trkpt>
      <trkpt lat="42.85349" lon="2.83171">
        <ele>222.7</ele>
        <time>2021-03-28T07:15:17Z</time>
      </trkpt>
      <trkpt lat="42.85346" lon="2.83166">
        <ele>222.8</ele>
        <time>2021-03-28T07:15:19Z</time>
      </trkpt>
      <trkpt lat="42.85346" lon="2.83166">
        <ele>222.8</ele>
        <time>2021-03-28T07:15:19Z</time>
      </trkpt>
      <trkpt lat="42.85344" lon="2.8316">
        <ele>223</ele>
        <time>2021-03-28T07:15:21Z</time>
      </trkpt>
      <trkpt lat="42.85344" lon="2.8316">
        <ele>223</ele>
        <time>2021-03-28T07:15:21Z</time>
      </trkpt>
      <trkpt lat="42.8534" lon="2.83155">
        <ele>222.8</ele>
        <time>2021-03-28T07:15:23Z</time>
      </trkpt>
      <trkpt lat="42.8534" lon="2.83155">
        <ele>222.8</ele>
        <time>2021-03-28T07:15:23Z</time>
      </trkpt>
      <trkpt lat="42.85336" lon="2.83149">
        <ele>222.3</ele>
        <time>2021-03-28T07:15:25Z</time>
      </trkpt>
      <trkpt lat="42.85336" lon="2.83149">
        <ele>222.3</ele>
        <time>2021-03-28T07:15:25Z</time>
      </trkpt>
      <trkpt lat="42.85333" lon="2.83144">
        <ele>222</ele>
        <time>2021-03-28T07:15:27Z</time>
      </trkpt>
      <trkpt lat="42.85333" lon="2.83144">
        <ele>222</ele>
        <time>2021-03-28T07:15:27Z</time>
      </trkpt>
      <trkpt lat="42.8533" lon="2.83138">
        <ele>222.3</ele>
        <time>2021-03-28T07:15:29Z</time>
      </trkpt>
      <trkpt lat="42.8533" lon="2.83138">
        <ele>222.3</ele>
        <time>2021-03-28T07:15:29Z</time>
      </trkpt>
      <trkpt lat="42.85326" lon="2.83132">
        <ele>223</ele>
        <time>2021-03-28T07:15:31Z</time>
      </trkpt>
      <trkpt lat="42.85326" lon="2.83132">
        <ele>223</ele>
        <time>2021-03-28T07:15:31Z</time>
      </trkpt>
      <trkpt lat="42.85323" lon="2.83125">
        <ele>223.8</ele>
        <time>2021-03-28T07:15:33Z</time>
      </trkpt>
      <trkpt lat="42.85323" lon="2.83125">
        <ele>223.8</ele>
        <time>2021-03-28T07:15:33Z</time>
      </trkpt>
      <trkpt lat="42.8532" lon="2.83119">
        <ele>224.5</ele>
        <time>2021-03-28T07:15:35Z</time>
      </trkpt>
      <trkpt lat="42.8532" lon="2.83119">
        <ele>224.5</ele>
        <time>2021-03-28T07:15:35Z</time>
      </trkpt>
      <trkpt lat="42.85318" lon="2.83113">
        <ele>225.1</ele>
        <time>2021-03-28T07:15:37Z</time>
      </trkpt>
      <trkpt lat="42.85318" lon="2.83113">
        <ele>225.1</ele>
        <time>2021-03-28T07:15:37Z</time>
      </trkpt>
      <trkpt lat="42.85315" lon="2.83108">
        <ele>225.4</ele>
        <time>2021-03-28T07:15:38Z</time>
      </trkpt>
      <trkpt lat="42.85315" lon="2.83108">
        <ele>225.4</ele>
        <time>2021-03-28T07:15:38Z</time>
      </trkpt>
      <trkpt lat="42.85313" lon="2.83102">
        <ele>225.5</ele>
        <time>2021-03-28T07:15:40Z</time>
      </trkpt>
      <trkpt lat="42.85313" lon="2.83102">
        <ele>225.5</ele>
        <time>2021-03-28T07:15:40Z</time>
      </trkpt>
      <trkpt lat="42.8531" lon="2.83097">
        <ele>225.6</ele>
        <time>2021-03-28T07:15:41Z</time>
      </trkpt>
      <trkpt lat="42.8531" lon="2.83097">
        <ele>225.6</ele>
        <time>2021-03-28T07:15:41Z</time>
      </trkpt>
      <trkpt lat="42.85308" lon="2.83091">
        <ele>225.7</ele>
        <time>2021-03-28T07:15:43Z</time>
      </trkpt>
      <trkpt lat="42.85308" lon="2.83091">
        <ele>225.7</ele>
        <time>2021-03-28T07:15:43Z</time>
      </trkpt>
      <trkpt lat="42.85306" lon="2.83087">
        <ele>225.7</ele>
        <time>2021-03-28T07:15:44Z</time>
      </trkpt>
      <trkpt lat="42.85306" lon="2.83087">
        <ele>225.7</ele>
        <time>2021-03-28T07:15:44Z</time>
      </trkpt>
      <trkpt lat="42.85304" lon="2.83081">
        <ele>226.1</ele>
        <time>2021-03-28T07:15:46Z</time>
      </trkpt>
      <trkpt lat="42.85304" lon="2.83081">
        <ele>226.1</ele>
        <time>2021-03-28T07:15:46Z</time>
      </trkpt>
      <trkpt lat="42.85301" lon="2.83075">
        <ele>226.7</ele>
        <time>2021-03-28T07:15:48Z</time>
      </trkpt>
      <trkpt lat="42.85301" lon="2.83075">
        <ele>226.7</ele>
        <time>2021-03-28T07:15:48Z</time>
      </trkpt>
      <trkpt lat="42.85298" lon="2.83069">
        <ele>227.4</ele>
        <time>2021-03-28T07:15:50Z</time>
      </trkpt>
      <trkpt lat="42.85298" lon="2.83069">
        <ele>227.4</ele>
        <time>2021-03-28T07:15:50Z</time>
      </trkpt>
      <trkpt lat="42.85296" lon="2.83064">
        <ele>227.9</ele>
        <time>2021-03-28T07:15:51Z</time>
      </trkpt>
      <trkpt lat="42.85296" lon="2.83064">
        <ele>227.9</ele>
        <time>2021-03-28T07:15:51Z</time>
      </trkpt>
      <trkpt lat="42.85293" lon="2.83059">
        <ele>228.2</ele>
        <time>2021-03-28T07:15:52Z</time>
      </trkpt>
      <trkpt lat="42.85293" lon="2.83059">
        <ele>228.2</ele>
        <time>2021-03-28T07:15:52Z</time>
      </trkpt>
      <trkpt lat="42.85291" lon="2.83055">
        <ele>228.5</ele>
        <time>2021-03-28T07:15:53Z</time>
      </trkpt>
      <trkpt lat="42.85291" lon="2.83055">
        <ele>228.5</ele>
        <time>2021-03-28T07:15:53Z</time>
      </trkpt>
      <trkpt lat="42.85289" lon="2.8305">
        <ele>228.6</ele>
        <time>2021-03-28T07:15:55Z</time>
      </trkpt>
      <trkpt lat="42.85289" lon="2.8305">
        <ele>228.6</ele>
        <time>2021-03-28T07:15:55Z</time>
      </trkpt>
      <trkpt lat="42.85286" lon="2.83045">
        <ele>228.6</ele>
        <time>2021-03-28T07:15:57Z</time>
      </trkpt>
      <trkpt lat="42.85286" lon="2.83045">
        <ele>228.6</ele>
        <time>2021-03-28T07:15:57Z</time>
      </trkpt>
      <trkpt lat="42.85283" lon="2.8304">
        <ele>228.5</ele>
        <time>2021-03-28T07:15:58Z</time>
      </trkpt>
      <trkpt lat="42.85283" lon="2.8304">
        <ele>228.5</ele>
        <time>2021-03-28T07:15:58Z</time>
      </trkpt>
      <trkpt lat="42.85281" lon="2.83035">
        <ele>228.2</ele>
        <time>2021-03-28T07:15:59Z</time>
      </trkpt>
      <trkpt lat="42.85281" lon="2.83035">
        <ele>228.2</ele>
        <time>2021-03-28T07:15:59Z</time>
      </trkpt>
      <trkpt lat="42.85279" lon="2.8303">
        <ele>228.1</ele>
        <time>2021-03-28T07:16:01Z</time>
      </trkpt>
      <trkpt lat="42.85279" lon="2.8303">
        <ele>228.1</ele>
        <time>2021-03-28T07:16:01Z</time>
      </trkpt>
      <trkpt lat="42.85276" lon="2.83024">
        <ele>227.9</ele>
        <time>2021-03-28T07:16:03Z</time>
      </trkpt>
      <trkpt lat="42.85276" lon="2.83024">
        <ele>227.9</ele>
        <time>2021-03-28T07:16:03Z</time>
      </trkpt>
      <trkpt lat="42.85274" lon="2.83017">
        <ele>227.9</ele>
        <time>2021-03-28T07:16:05Z</time>
      </trkpt>
      <trkpt lat="42.85274" lon="2.83017">
        <ele>227.9</ele>
        <time>2021-03-28T07:16:05Z</time>
      </trkpt>
      <trkpt lat="42.85271" lon="2.83011">
        <ele>228</ele>
        <time>2021-03-28T07:16:07Z</time>
      </trkpt>
      <trkpt lat="42.85271" lon="2.83011">
        <ele>228</ele>
        <time>2021-03-28T07:16:07Z</time>
      </trkpt>
      <trkpt lat="42.8527" lon="2.83005">
        <ele>228.2</ele>
        <time>2021-03-28T07:16:08Z</time>
      </trkpt>
      <trkpt lat="42.8527" lon="2.83005">
        <ele>228.2</ele>
        <time>2021-03-28T07:16:08Z</time>
      </trkpt>
      <trkpt lat="42.85269" lon="2.82999">
        <ele>228.4</ele>
        <time>2021-03-28T07:16:09Z</time>
      </trkpt>
      <trkpt lat="42.85269" lon="2.82999">
        <ele>228.4</ele>
        <time>2021-03-28T07:16:09Z</time>
      </trkpt>
      <trkpt lat="42.85267" lon="2.82993">
        <ele>228.7</ele>
        <time>2021-03-28T07:16:11Z</time>
      </trkpt>
      <trkpt lat="42.85267" lon="2.82993">
        <ele>228.7</ele>
        <time>2021-03-28T07:16:11Z</time>
      </trkpt>
      <trkpt lat="42.85266" lon="2.82985">
        <ele>229.2</ele>
        <time>2021-03-28T07:16:13Z</time>
      </trkpt>
      <trkpt lat="42.85266" lon="2.82985">
        <ele>229.2</ele>
        <time>2021-03-28T07:16:13Z</time>
      </trkpt>
      <trkpt lat="42.85265" lon="2.82979">
        <ele>229.7</ele>
        <time>2021-03-28T07:16:14Z</time>
      </trkpt>
      <trkpt lat="42.85265" lon="2.82979">
        <ele>229.7</ele>
        <time>2021-03-28T07:16:14Z</time>
      </trkpt>
      <trkpt lat="42.85265" lon="2.82973">
        <ele>230.2</ele>
        <time>2021-03-28T07:16:15Z</time>
      </trkpt>
      <trkpt lat="42.85265" lon="2.82973">
        <ele>230.2</ele>
        <time>2021-03-28T07:16:15Z</time>
      </trkpt>
      <trkpt lat="42.85264" lon="2.82967">
        <ele>230.8</ele>
        <time>2021-03-28T07:16:16Z</time>
      </trkpt>
      <trkpt lat="42.85264" lon="2.82967">
        <ele>230.8</ele>
        <time>2021-03-28T07:16:16Z</time>
      </trkpt>
      <trkpt lat="42.85263" lon="2.82962">
        <ele>231.2</ele>
        <time>2021-03-28T07:16:17Z</time>
      </trkpt>
      <trkpt lat="42.85263" lon="2.82962">
        <ele>231.2</ele>
        <time>2021-03-28T07:16:17Z</time>
      </trkpt>
      <trkpt lat="42.85262" lon="2.82957">
        <ele>231.5</ele>
        <time>2021-03-28T07:16:18Z</time>
      </trkpt>
      <trkpt lat="42.85262" lon="2.82957">
        <ele>231.5</ele>
        <time>2021-03-28T07:16:18Z</time>
      </trkpt>
      <trkpt lat="42.85261" lon="2.82952">
        <ele>231.8</ele>
        <time>2021-03-28T07:16:20Z</time>
      </trkpt>
      <trkpt lat="42.85261" lon="2.82952">
        <ele>231.8</ele>
        <time>2021-03-28T07:16:20Z</time>
      </trkpt>
      <trkpt lat="42.8526" lon="2.82946">
        <ele>232.3</ele>
        <time>2021-03-28T07:16:22Z</time>
      </trkpt>
      <trkpt lat="42.8526" lon="2.82946">
        <ele>232.3</ele>
        <time>2021-03-28T07:16:22Z</time>
      </trkpt>
      <trkpt lat="42.85258" lon="2.82938">
        <ele>232.6</ele>
        <time>2021-03-28T07:16:24Z</time>
      </trkpt>
      <trkpt lat="42.85258" lon="2.82938">
        <ele>232.6</ele>
        <time>2021-03-28T07:16:24Z</time>
      </trkpt>
      <trkpt lat="42.85257" lon="2.82929">
        <ele>232.6</ele>
        <time>2021-03-28T07:16:26Z</time>
      </trkpt>
      <trkpt lat="42.85257" lon="2.82929">
        <ele>232.6</ele>
        <time>2021-03-28T07:16:26Z</time>
      </trkpt>
      <trkpt lat="42.85255" lon="2.8292">
        <ele>232.8</ele>
        <time>2021-03-28T07:16:28Z</time>
      </trkpt>
      <trkpt lat="42.85255" lon="2.8292">
        <ele>232.8</ele>
        <time>2021-03-28T07:16:28Z</time>
      </trkpt>
      <trkpt lat="42.85254" lon="2.82912">
        <ele>232.9</ele>
        <time>2021-03-28T07:16:30Z</time>
      </trkpt>
      <trkpt lat="42.85254" lon="2.82912">
        <ele>232.9</ele>
        <time>2021-03-28T07:16:30Z</time>
      </trkpt>
      <trkpt lat="42.85253" lon="2.82904">
        <ele>233</ele>
        <time>2021-03-28T07:16:31Z</time>
      </trkpt>
      <trkpt lat="42.85253" lon="2.82904">
        <ele>233</ele>
        <time>2021-03-28T07:16:31Z</time>
      </trkpt>
      <trkpt lat="42.85252" lon="2.82898">
        <ele>233.2</ele>
        <time>2021-03-28T07:16:32Z</time>
      </trkpt>
      <trkpt lat="42.85252" lon="2.82898">
        <ele>233.2</ele>
        <time>2021-03-28T07:16:32Z</time>
      </trkpt>
      <trkpt lat="42.85251" lon="2.8289">
        <ele>233.3</ele>
        <time>2021-03-28T07:16:34Z</time>
      </trkpt>
      <trkpt lat="42.85251" lon="2.8289">
        <ele>233.3</ele>
        <time>2021-03-28T07:16:34Z</time>
      </trkpt>
      <trkpt lat="42.8525" lon="2.82883">
        <ele>233.7</ele>
        <time>2021-03-28T07:16:35Z</time>
      </trkpt>
      <trkpt lat="42.8525" lon="2.82883">
        <ele>233.7</ele>
        <time>2021-03-28T07:16:35Z</time>
      </trkpt>
      <trkpt lat="42.85248" lon="2.82875">
        <ele>234.5</ele>
        <time>2021-03-28T07:16:37Z</time>
      </trkpt>
      <trkpt lat="42.85248" lon="2.82875">
        <ele>234.5</ele>
        <time>2021-03-28T07:16:37Z</time>
      </trkpt>
      <trkpt lat="42.85247" lon="2.82867">
        <ele>235</ele>
        <time>2021-03-28T07:16:38Z</time>
      </trkpt>
      <trkpt lat="42.85247" lon="2.82867">
        <ele>235</ele>
        <time>2021-03-28T07:16:38Z</time>
      </trkpt>
      <trkpt lat="42.85245" lon="2.82859">
        <ele>235.4</ele>
        <time>2021-03-28T07:16:40Z</time>
      </trkpt>
      <trkpt lat="42.85245" lon="2.82859">
        <ele>235.4</ele>
        <time>2021-03-28T07:16:40Z</time>
      </trkpt>
      <trkpt lat="42.85244" lon="2.8285">
        <ele>235.7</ele>
        <time>2021-03-28T07:16:42Z</time>
      </trkpt>
      <trkpt lat="42.85244" lon="2.8285">
        <ele>235.7</ele>
        <time>2021-03-28T07:16:42Z</time>
      </trkpt>
      <trkpt lat="42.85243" lon="2.82841">
        <ele>236.2</ele>
        <time>2021-03-28T07:16:44Z</time>
      </trkpt>
      <trkpt lat="42.85243" lon="2.82841">
        <ele>236.2</ele>
        <time>2021-03-28T07:16:44Z</time>
      </trkpt>
      <trkpt lat="42.85242" lon="2.8283">
        <ele>237</ele>
        <time>2021-03-28T07:16:46Z</time>
      </trkpt>
      <trkpt lat="42.85242" lon="2.8283">
        <ele>237</ele>
        <time>2021-03-28T07:16:46Z</time>
      </trkpt>
      <trkpt lat="42.85242" lon="2.82819">
        <ele>237.6</ele>
        <time>2021-03-28T07:16:48Z</time>
      </trkpt>
      <trkpt lat="42.85242" lon="2.82819">
        <ele>237.6</ele>
        <time>2021-03-28T07:16:48Z</time>
      </trkpt>
      <trkpt lat="42.85241" lon="2.8281">
        <ele>238.1</ele>
        <time>2021-03-28T07:16:49Z</time>
      </trkpt>
      <trkpt lat="42.85241" lon="2.8281">
        <ele>238.1</ele>
        <time>2021-03-28T07:16:49Z</time>
      </trkpt>
      <trkpt lat="42.8524" lon="2.82802">
        <ele>238.3</ele>
        <time>2021-03-28T07:16:50Z</time>
      </trkpt>
      <trkpt lat="42.8524" lon="2.82802">
        <ele>238.3</ele>
        <time>2021-03-28T07:16:50Z</time>
      </trkpt>
      <trkpt lat="42.85239" lon="2.82793">
        <ele>238.4</ele>
        <time>2021-03-28T07:16:52Z</time>
      </trkpt>
      <trkpt lat="42.85239" lon="2.82793">
        <ele>238.4</ele>
        <time>2021-03-28T07:16:52Z</time>
      </trkpt>
      <trkpt lat="42.85238" lon="2.82784">
        <ele>238.4</ele>
        <time>2021-03-28T07:16:54Z</time>
      </trkpt>
      <trkpt lat="42.85238" lon="2.82784">
        <ele>238.4</ele>
        <time>2021-03-28T07:16:54Z</time>
      </trkpt>
      <trkpt lat="42.85237" lon="2.82774">
        <ele>238.4</ele>
        <time>2021-03-28T07:16:56Z</time>
      </trkpt>
      <trkpt lat="42.85237" lon="2.82774">
        <ele>238.4</ele>
        <time>2021-03-28T07:16:56Z</time>
      </trkpt>
      <trkpt lat="42.85236" lon="2.82766">
        <ele>238.4</ele>
        <time>2021-03-28T07:16:57Z</time>
      </trkpt>
      <trkpt lat="42.85236" lon="2.82766">
        <ele>238.4</ele>
        <time>2021-03-28T07:16:57Z</time>
      </trkpt>
      <trkpt lat="42.85234" lon="2.82756">
        <ele>238.2</ele>
        <time>2021-03-28T07:16:59Z</time>
      </trkpt>
      <trkpt lat="42.85234" lon="2.82756">
        <ele>238.2</ele>
        <time>2021-03-28T07:16:59Z</time>
      </trkpt>
      <trkpt lat="42.85232" lon="2.82746">
        <ele>238</ele>
        <time>2021-03-28T07:17:01Z</time>
      </trkpt>
      <trkpt lat="42.85232" lon="2.82746">
        <ele>238</ele>
        <time>2021-03-28T07:17:01Z</time>
      </trkpt>
      <trkpt lat="42.85231" lon="2.82737">
        <ele>237.8</ele>
        <time>2021-03-28T07:17:02Z</time>
      </trkpt>
      <trkpt lat="42.85231" lon="2.82737">
        <ele>237.8</ele>
        <time>2021-03-28T07:17:02Z</time>
      </trkpt>
      <trkpt lat="42.85229" lon="2.82728">
        <ele>237.7</ele>
        <time>2021-03-28T07:17:04Z</time>
      </trkpt>
      <trkpt lat="42.85229" lon="2.82728">
        <ele>237.7</ele>
        <time>2021-03-28T07:17:04Z</time>
      </trkpt>
      <trkpt lat="42.85228" lon="2.8272">
        <ele>237.6</ele>
        <time>2021-03-28T07:17:05Z</time>
      </trkpt>
      <trkpt lat="42.85228" lon="2.8272">
        <ele>237.6</ele>
        <time>2021-03-28T07:17:05Z</time>
      </trkpt>
      <trkpt lat="42.85226" lon="2.8271">
        <ele>237.4</ele>
        <time>2021-03-28T07:17:07Z</time>
      </trkpt>
      <trkpt lat="42.85226" lon="2.8271">
        <ele>237.4</ele>
        <time>2021-03-28T07:17:07Z</time>
      </trkpt>
      <trkpt lat="42.85224" lon="2.82701">
        <ele>237.3</ele>
        <time>2021-03-28T07:17:08Z</time>
      </trkpt>
      <trkpt lat="42.85224" lon="2.82701">
        <ele>237.3</ele>
        <time>2021-03-28T07:17:08Z</time>
      </trkpt>
      <trkpt lat="42.85223" lon="2.82693">
        <ele>237.2</ele>
        <time>2021-03-28T07:17:09Z</time>
      </trkpt>
      <trkpt lat="42.85223" lon="2.82693">
        <ele>237.2</ele>
        <time>2021-03-28T07:17:09Z</time>
      </trkpt>
      <trkpt lat="42.85221" lon="2.82683">
        <ele>237.4</ele>
        <time>2021-03-28T07:17:11Z</time>
      </trkpt>
      <trkpt lat="42.85221" lon="2.82683">
        <ele>237.4</ele>
        <time>2021-03-28T07:17:11Z</time>
      </trkpt>
      <trkpt lat="42.85219" lon="2.82672">
        <ele>237.5</ele>
        <time>2021-03-28T07:17:13Z</time>
      </trkpt>
      <trkpt lat="42.85219" lon="2.82672">
        <ele>237.5</ele>
        <time>2021-03-28T07:17:13Z</time>
      </trkpt>
      <trkpt lat="42.85217" lon="2.8266">
        <ele>238</ele>
        <time>2021-03-28T07:17:15Z</time>
      </trkpt>
      <trkpt lat="42.85217" lon="2.8266">
        <ele>238</ele>
        <time>2021-03-28T07:17:15Z</time>
      </trkpt>
      <trkpt lat="42.85216" lon="2.8265">
        <ele>238.6</ele>
        <time>2021-03-28T07:17:16Z</time>
      </trkpt>
      <trkpt lat="42.85216" lon="2.8265">
        <ele>238.6</ele>
        <time>2021-03-28T07:17:16Z</time>
      </trkpt>
      <trkpt lat="42.85215" lon="2.82639">
        <ele>239.2</ele>
        <time>2021-03-28T07:17:18Z</time>
      </trkpt>
      <trkpt lat="42.85215" lon="2.82639">
        <ele>239.2</ele>
        <time>2021-03-28T07:17:18Z</time>
      </trkpt>
      <trkpt lat="42.85214" lon="2.82629">
        <ele>239.2</ele>
        <time>2021-03-28T07:17:19Z</time>
      </trkpt>
      <trkpt lat="42.85214" lon="2.82629">
        <ele>239.2</ele>
        <time>2021-03-28T07:17:19Z</time>
      </trkpt>
      <trkpt lat="42.85213" lon="2.82621">
        <ele>239.4</ele>
        <time>2021-03-28T07:17:20Z</time>
      </trkpt>
      <trkpt lat="42.85213" lon="2.82621">
        <ele>239.4</ele>
        <time>2021-03-28T07:17:20Z</time>
      </trkpt>
      <trkpt lat="42.85213" lon="2.82612">
        <ele>239.6</ele>
        <time>2021-03-28T07:17:22Z</time>
      </trkpt>
      <trkpt lat="42.85213" lon="2.82612">
        <ele>239.6</ele>
        <time>2021-03-28T07:17:22Z</time>
      </trkpt>
      <trkpt lat="42.85212" lon="2.82604">
        <ele>239.6</ele>
        <time>2021-03-28T07:17:23Z</time>
      </trkpt>
      <trkpt lat="42.85212" lon="2.82604">
        <ele>239.6</ele>
        <time>2021-03-28T07:17:23Z</time>
      </trkpt>
      <trkpt lat="42.85212" lon="2.82594">
        <ele>239.6</ele>
        <time>2021-03-28T07:17:25Z</time>
      </trkpt>
      <trkpt lat="42.85212" lon="2.82594">
        <ele>239.6</ele>
        <time>2021-03-28T07:17:25Z</time>
      </trkpt>
      <trkpt lat="42.85211" lon="2.82583">
        <ele>239.7</ele>
        <time>2021-03-28T07:17:27Z</time>
      </trkpt>
      <trkpt lat="42.85211" lon="2.82583">
        <ele>239.7</ele>
        <time>2021-03-28T07:17:27Z</time>
      </trkpt>
      <trkpt lat="42.85211" lon="2.82573">
        <ele>240</ele>
        <time>2021-03-28T07:17:28Z</time>
      </trkpt>
      <trkpt lat="42.85211" lon="2.82573">
        <ele>240</ele>
        <time>2021-03-28T07:17:28Z</time>
      </trkpt>
      <trkpt lat="42.8521" lon="2.82564">
        <ele>240.2</ele>
        <time>2021-03-28T07:17:30Z</time>
      </trkpt>
      <trkpt lat="42.8521" lon="2.82564">
        <ele>240.2</ele>
        <time>2021-03-28T07:17:30Z</time>
      </trkpt>
      <trkpt lat="42.8521" lon="2.82555">
        <ele>240.5</ele>
        <time>2021-03-28T07:17:31Z</time>
      </trkpt>
      <trkpt lat="42.8521" lon="2.82555">
        <ele>240.5</ele>
        <time>2021-03-28T07:17:31Z</time>
      </trkpt>
      <trkpt lat="42.85209" lon="2.82546">
        <ele>240.4</ele>
        <time>2021-03-28T07:17:33Z</time>
      </trkpt>
      <trkpt lat="42.85209" lon="2.82546">
        <ele>240.4</ele>
        <time>2021-03-28T07:17:33Z</time>
      </trkpt>
      <trkpt lat="42.85208" lon="2.82536">
        <ele>240.4</ele>
        <time>2021-03-28T07:17:35Z</time>
      </trkpt>
      <trkpt lat="42.85208" lon="2.82536">
        <ele>240.4</ele>
        <time>2021-03-28T07:17:35Z</time>
      </trkpt>
      <trkpt lat="42.85208" lon="2.82528">
        <ele>240.4</ele>
        <time>2021-03-28T07:17:36Z</time>
      </trkpt>
      <trkpt lat="42.85208" lon="2.82528">
        <ele>240.4</ele>
        <time>2021-03-28T07:17:36Z</time>
      </trkpt>
      <trkpt lat="42.85207" lon="2.82518">
        <ele>240.5</ele>
        <time>2021-03-28T07:17:38Z</time>
      </trkpt>
      <trkpt lat="42.85207" lon="2.82518">
        <ele>240.5</ele>
        <time>2021-03-28T07:17:38Z</time>
      </trkpt>
      <trkpt lat="42.85207" lon="2.8251">
        <ele>240.6</ele>
        <time>2021-03-28T07:17:39Z</time>
      </trkpt>
      <trkpt lat="42.85207" lon="2.8251">
        <ele>240.6</ele>
        <time>2021-03-28T07:17:39Z</time>
      </trkpt>
      <trkpt lat="42.85206" lon="2.825">
        <ele>240.7</ele>
        <time>2021-03-28T07:17:41Z</time>
      </trkpt>
      <trkpt lat="42.85206" lon="2.825">
        <ele>240.7</ele>
        <time>2021-03-28T07:17:41Z</time>
      </trkpt>
      <trkpt lat="42.85205" lon="2.8249">
        <ele>240.8</ele>
        <time>2021-03-28T07:17:43Z</time>
      </trkpt>
      <trkpt lat="42.85205" lon="2.8249">
        <ele>240.8</ele>
        <time>2021-03-28T07:17:43Z</time>
      </trkpt>
      <trkpt lat="42.85205" lon="2.82478">
        <ele>241.1</ele>
        <time>2021-03-28T07:17:45Z</time>
      </trkpt>
      <trkpt lat="42.85205" lon="2.82478">
        <ele>241.1</ele>
        <time>2021-03-28T07:17:45Z</time>
      </trkpt>
      <trkpt lat="42.85204" lon="2.82469">
        <ele>241.1</ele>
        <time>2021-03-28T07:17:46Z</time>
      </trkpt>
      <trkpt lat="42.85204" lon="2.82469">
        <ele>241.1</ele>
        <time>2021-03-28T07:17:46Z</time>
      </trkpt>
      <trkpt lat="42.85203" lon="2.82459">
        <ele>241</ele>
        <time>2021-03-28T07:17:48Z</time>
      </trkpt>
      <trkpt lat="42.85203" lon="2.82459">
        <ele>241</ele>
        <time>2021-03-28T07:17:48Z</time>
      </trkpt>
      <trkpt lat="42.85203" lon="2.82451">
        <ele>241</ele>
        <time>2021-03-28T07:17:49Z</time>
      </trkpt>
      <trkpt lat="42.85203" lon="2.82451">
        <ele>241</ele>
        <time>2021-03-28T07:17:49Z</time>
      </trkpt>
      <trkpt lat="42.85203" lon="2.82443">
        <ele>241</ele>
        <time>2021-03-28T07:17:50Z</time>
      </trkpt>
      <trkpt lat="42.85203" lon="2.82443">
        <ele>241</ele>
        <time>2021-03-28T07:17:50Z</time>
      </trkpt>
      <trkpt lat="42.85202" lon="2.82435">
        <ele>241.2</ele>
        <time>2021-03-28T07:17:52Z</time>
      </trkpt>
      <trkpt lat="42.85202" lon="2.82435">
        <ele>241.2</ele>
        <time>2021-03-28T07:17:52Z</time>
      </trkpt>
      <trkpt lat="42.85202" lon="2.82426">
        <ele>241.4</ele>
        <time>2021-03-28T07:17:54Z</time>
      </trkpt>
      <trkpt lat="42.85202" lon="2.82426">
        <ele>241.4</ele>
        <time>2021-03-28T07:17:54Z</time>
      </trkpt>
      <trkpt lat="42.85202" lon="2.82415">
        <ele>241.6</ele>
        <time>2021-03-28T07:17:56Z</time>
      </trkpt>
      <trkpt lat="42.85202" lon="2.82415">
        <ele>241.6</ele>
        <time>2021-03-28T07:17:56Z</time>
      </trkpt>
      <trkpt lat="42.85201" lon="2.82405">
        <ele>241.9</ele>
        <time>2021-03-28T07:17:58Z</time>
      </trkpt>
      <trkpt lat="42.85201" lon="2.82405">
        <ele>241.9</ele>
        <time>2021-03-28T07:17:58Z</time>
      </trkpt>
      <trkpt lat="42.85201" lon="2.82397">
        <ele>242.1</ele>
        <time>2021-03-28T07:17:59Z</time>
      </trkpt>
      <trkpt lat="42.85201" lon="2.82397">
        <ele>242.1</ele>
        <time>2021-03-28T07:17:59Z</time>
      </trkpt>
      <trkpt lat="42.852" lon="2.82388">
        <ele>242.1</ele>
        <time>2021-03-28T07:18:01Z</time>
      </trkpt>
      <trkpt lat="42.852" lon="2.82388">
        <ele>242.1</ele>
        <time>2021-03-28T07:18:01Z</time>
      </trkpt>
      <trkpt lat="42.85199" lon="2.82378">
        <ele>242.2</ele>
        <time>2021-03-28T07:18:03Z</time>
      </trkpt>
      <trkpt lat="42.85199" lon="2.82378">
        <ele>242.2</ele>
        <time>2021-03-28T07:18:03Z</time>
      </trkpt>
      <trkpt lat="42.85198" lon="2.82368">
        <ele>242.3</ele>
        <time>2021-03-28T07:18:05Z</time>
      </trkpt>
      <trkpt lat="42.85198" lon="2.82368">
        <ele>242.3</ele>
        <time>2021-03-28T07:18:05Z</time>
      </trkpt>
      <trkpt lat="42.85198" lon="2.8236">
        <ele>242.3</ele>
        <time>2021-03-28T07:18:06Z</time>
      </trkpt>
      <trkpt lat="42.85198" lon="2.8236">
        <ele>242.3</ele>
        <time>2021-03-28T07:18:06Z</time>
      </trkpt>
      <trkpt lat="42.85197" lon="2.82351">
        <ele>242.5</ele>
        <time>2021-03-28T07:18:08Z</time>
      </trkpt>
      <trkpt lat="42.85197" lon="2.82351">
        <ele>242.5</ele>
        <time>2021-03-28T07:18:08Z</time>
      </trkpt>
      <trkpt lat="42.85196" lon="2.82342">
        <ele>242.9</ele>
        <time>2021-03-28T07:18:10Z</time>
      </trkpt>
      <trkpt lat="42.85196" lon="2.82342">
        <ele>242.9</ele>
        <time>2021-03-28T07:18:10Z</time>
      </trkpt>
      <trkpt lat="42.85195" lon="2.82333">
        <ele>243.2</ele>
        <time>2021-03-28T07:18:12Z</time>
      </trkpt>
      <trkpt lat="42.85195" lon="2.82333">
        <ele>243.2</ele>
        <time>2021-03-28T07:18:12Z</time>
      </trkpt>
      <trkpt lat="42.85194" lon="2.82325">
        <ele>243.2</ele>
        <time>2021-03-28T07:18:13Z</time>
      </trkpt>
      <trkpt lat="42.85194" lon="2.82325">
        <ele>243.2</ele>
        <time>2021-03-28T07:18:13Z</time>
      </trkpt>
      <trkpt lat="42.85193" lon="2.82317">
        <ele>243.3</ele>
        <time>2021-03-28T07:18:15Z</time>
      </trkpt>
      <trkpt lat="42.85193" lon="2.82317">
        <ele>243.3</ele>
        <time>2021-03-28T07:18:15Z</time>
      </trkpt>
      <trkpt lat="42.85192" lon="2.82307">
        <ele>243.4</ele>
        <time>2021-03-28T07:18:17Z</time>
      </trkpt>
      <trkpt lat="42.85192" lon="2.82307">
        <ele>243.4</ele>
        <time>2021-03-28T07:18:17Z</time>
      </trkpt>
      <trkpt lat="42.85191" lon="2.82299">
        <ele>243.7</ele>
        <time>2021-03-28T07:18:18Z</time>
      </trkpt>
      <trkpt lat="42.85191" lon="2.82299">
        <ele>243.7</ele>
        <time>2021-03-28T07:18:18Z</time>
      </trkpt>
      <trkpt lat="42.8519" lon="2.82291">
        <ele>243.9</ele>
        <time>2021-03-28T07:18:20Z</time>
      </trkpt>
      <trkpt lat="42.8519" lon="2.82291">
        <ele>243.9</ele>
        <time>2021-03-28T07:18:20Z</time>
      </trkpt>
      <trkpt lat="42.85189" lon="2.82283">
        <ele>244.1</ele>
        <time>2021-03-28T07:18:21Z</time>
      </trkpt>
      <trkpt lat="42.85189" lon="2.82283">
        <ele>244.1</ele>
        <time>2021-03-28T07:18:21Z</time>
      </trkpt>
      <trkpt lat="42.85188" lon="2.82274">
        <ele>244.3</ele>
        <time>2021-03-28T07:18:23Z</time>
      </trkpt>
      <trkpt lat="42.85188" lon="2.82274">
        <ele>244.3</ele>
        <time>2021-03-28T07:18:23Z</time>
      </trkpt>
      <trkpt lat="42.85187" lon="2.82265">
        <ele>244.6</ele>
        <time>2021-03-28T07:18:25Z</time>
      </trkpt>
      <trkpt lat="42.85187" lon="2.82265">
        <ele>244.6</ele>
        <time>2021-03-28T07:18:25Z</time>
      </trkpt>
      <trkpt lat="42.85186" lon="2.82256">
        <ele>244.8</ele>
        <time>2021-03-28T07:18:26Z</time>
      </trkpt>
      <trkpt lat="42.85186" lon="2.82256">
        <ele>244.8</ele>
        <time>2021-03-28T07:18:26Z</time>
      </trkpt>
      <trkpt lat="42.85185" lon="2.82249">
        <ele>245</ele>
        <time>2021-03-28T07:18:27Z</time>
      </trkpt>
      <trkpt lat="42.85185" lon="2.82249">
        <ele>245</ele>
        <time>2021-03-28T07:18:27Z</time>
      </trkpt>
      <trkpt lat="42.85184" lon="2.82241">
        <ele>245.3</ele>
        <time>2021-03-28T07:18:29Z</time>
      </trkpt>
      <trkpt lat="42.85184" lon="2.82241">
        <ele>245.3</ele>
        <time>2021-03-28T07:18:29Z</time>
      </trkpt>
      <trkpt lat="42.85184" lon="2.82234">
        <ele>245.5</ele>
        <time>2021-03-28T07:18:30Z</time>
      </trkpt>
      <trkpt lat="42.85184" lon="2.82234">
        <ele>245.5</ele>
        <time>2021-03-28T07:18:30Z</time>
      </trkpt>
      <trkpt lat="42.85183" lon="2.82226">
        <ele>245.7</ele>
        <time>2021-03-28T07:18:32Z</time>
      </trkpt>
      <trkpt lat="42.85183" lon="2.82226">
        <ele>245.7</ele>
        <time>2021-03-28T07:18:32Z</time>
      </trkpt>
      <trkpt lat="42.85182" lon="2.82219">
        <ele>245.9</ele>
        <time>2021-03-28T07:18:33Z</time>
      </trkpt>
      <trkpt lat="42.85182" lon="2.82219">
        <ele>245.9</ele>
        <time>2021-03-28T07:18:33Z</time>
      </trkpt>
      <trkpt lat="42.85182" lon="2.82213">
        <ele>246.1</ele>
        <time>2021-03-28T07:18:34Z</time>
      </trkpt>
      <trkpt lat="42.85182" lon="2.82213">
        <ele>246.1</ele>
        <time>2021-03-28T07:18:34Z</time>
      </trkpt>
      <trkpt lat="42.85181" lon="2.82206">
        <ele>246.2</ele>
        <time>2021-03-28T07:18:36Z</time>
      </trkpt>
      <trkpt lat="42.85181" lon="2.82206">
        <ele>246.2</ele>
        <time>2021-03-28T07:18:36Z</time>
      </trkpt>
      <trkpt lat="42.85179" lon="2.82199">
        <ele>246.2</ele>
        <time>2021-03-28T07:18:38Z</time>
      </trkpt>
      <trkpt lat="42.85179" lon="2.82199">
        <ele>246.2</ele>
        <time>2021-03-28T07:18:38Z</time>
      </trkpt>
      <trkpt lat="42.85178" lon="2.82193">
        <ele>246.3</ele>
        <time>2021-03-28T07:18:39Z</time>
      </trkpt>
      <trkpt lat="42.85178" lon="2.82193">
        <ele>246.3</ele>
        <time>2021-03-28T07:18:39Z</time>
      </trkpt>
      <trkpt lat="42.85177" lon="2.82186">
        <ele>246.5</ele>
        <time>2021-03-28T07:18:41Z</time>
      </trkpt>
      <trkpt lat="42.85177" lon="2.82186">
        <ele>246.5</ele>
        <time>2021-03-28T07:18:41Z</time>
      </trkpt>
      <trkpt lat="42.85176" lon="2.8218">
        <ele>246.7</ele>
        <time>2021-03-28T07:18:42Z</time>
      </trkpt>
      <trkpt lat="42.85176" lon="2.8218">
        <ele>246.7</ele>
        <time>2021-03-28T07:18:42Z</time>
      </trkpt>
      <trkpt lat="42.85175" lon="2.82173">
        <ele>246.9</ele>
        <time>2021-03-28T07:18:44Z</time>
      </trkpt>
      <trkpt lat="42.85175" lon="2.82173">
        <ele>246.9</ele>
        <time>2021-03-28T07:18:44Z</time>
      </trkpt>
      <trkpt lat="42.85174" lon="2.82166">
        <ele>247.3</ele>
        <time>2021-03-28T07:18:46Z</time>
      </trkpt>
      <trkpt lat="42.85174" lon="2.82166">
        <ele>247.3</ele>
        <time>2021-03-28T07:18:46Z</time>
      </trkpt>
      <trkpt lat="42.85173" lon="2.82159">
        <ele>247.5</ele>
        <time>2021-03-28T07:18:48Z</time>
      </trkpt>
      <trkpt lat="42.85173" lon="2.82159">
        <ele>247.5</ele>
        <time>2021-03-28T07:18:48Z</time>
      </trkpt>
      <trkpt lat="42.85172" lon="2.82153">
        <ele>247.8</ele>
        <time>2021-03-28T07:18:49Z</time>
      </trkpt>
      <trkpt lat="42.85172" lon="2.82153">
        <ele>247.8</ele>
        <time>2021-03-28T07:18:49Z</time>
      </trkpt>
      <trkpt lat="42.85171" lon="2.82145">
        <ele>248</ele>
        <time>2021-03-28T07:18:51Z</time>
      </trkpt>
      <trkpt lat="42.85171" lon="2.82145">
        <ele>248</ele>
        <time>2021-03-28T07:18:51Z</time>
      </trkpt>
      <trkpt lat="42.8517" lon="2.82138">
        <ele>248.1</ele>
        <time>2021-03-28T07:18:53Z</time>
      </trkpt>
      <trkpt lat="42.8517" lon="2.82138">
        <ele>248.1</ele>
        <time>2021-03-28T07:18:53Z</time>
      </trkpt>
      <trkpt lat="42.8517" lon="2.8213">
        <ele>248.2</ele>
        <time>2021-03-28T07:18:55Z</time>
      </trkpt>
      <trkpt lat="42.8517" lon="2.8213">
        <ele>248.2</ele>
        <time>2021-03-28T07:18:55Z</time>
      </trkpt>
      <trkpt lat="42.85169" lon="2.82122">
        <ele>248.4</ele>
        <time>2021-03-28T07:18:57Z</time>
      </trkpt>
      <trkpt lat="42.85169" lon="2.82122">
        <ele>248.4</ele>
        <time>2021-03-28T07:18:57Z</time>
      </trkpt>
      <trkpt lat="42.85169" lon="2.82113">
        <ele>248.6</ele>
        <time>2021-03-28T07:18:59Z</time>
      </trkpt>
      <trkpt lat="42.85169" lon="2.82113">
        <ele>248.6</ele>
        <time>2021-03-28T07:18:59Z</time>
      </trkpt>
      <trkpt lat="42.85168" lon="2.82104">
        <ele>249.2</ele>
        <time>2021-03-28T07:19:01Z</time>
      </trkpt>
      <trkpt lat="42.85168" lon="2.82104">
        <ele>249.2</ele>
        <time>2021-03-28T07:19:01Z</time>
      </trkpt>
      <trkpt lat="42.85168" lon="2.82097">
        <ele>249.8</ele>
        <time>2021-03-28T07:19:02Z</time>
      </trkpt>
      <trkpt lat="42.85168" lon="2.82097">
        <ele>249.8</ele>
        <time>2021-03-28T07:19:02Z</time>
      </trkpt>
      <trkpt lat="42.85167" lon="2.82089">
        <ele>250.5</ele>
        <time>2021-03-28T07:19:04Z</time>
      </trkpt>
      <trkpt lat="42.85167" lon="2.82089">
        <ele>250.5</ele>
        <time>2021-03-28T07:19:04Z</time>
      </trkpt>
      <trkpt lat="42.85166" lon="2.82083">
        <ele>251</ele>
        <time>2021-03-28T07:19:05Z</time>
      </trkpt>
      <trkpt lat="42.85166" lon="2.82083">
        <ele>251</ele>
        <time>2021-03-28T07:19:05Z</time>
      </trkpt>
      <trkpt lat="42.85166" lon="2.82075">
        <ele>251.3</ele>
        <time>2021-03-28T07:19:07Z</time>
      </trkpt>
      <trkpt lat="42.85166" lon="2.82075">
        <ele>251.3</ele>
        <time>2021-03-28T07:19:07Z</time>
      </trkpt>
      <trkpt lat="42.85165" lon="2.82068">
        <ele>251.6</ele>
        <time>2021-03-28T07:19:09Z</time>
      </trkpt>
      <trkpt lat="42.85165" lon="2.82068">
        <ele>251.6</ele>
        <time>2021-03-28T07:19:09Z</time>
      </trkpt>
      <trkpt lat="42.85163" lon="2.82061">
        <ele>251.7</ele>
        <time>2021-03-28T07:19:11Z</time>
      </trkpt>
      <trkpt lat="42.85163" lon="2.82061">
        <ele>251.7</ele>
        <time>2021-03-28T07:19:11Z</time>
      </trkpt>
      <trkpt lat="42.85162" lon="2.82055">
        <ele>251.8</ele>
        <time>2021-03-28T07:19:12Z</time>
      </trkpt>
      <trkpt lat="42.85162" lon="2.82055">
        <ele>251.8</ele>
        <time>2021-03-28T07:19:12Z</time>
      </trkpt>
      <trkpt lat="42.85161" lon="2.82048">
        <ele>251.9</ele>
        <time>2021-03-28T07:19:14Z</time>
      </trkpt>
      <trkpt lat="42.85161" lon="2.82048">
        <ele>251.9</ele>
        <time>2021-03-28T07:19:14Z</time>
      </trkpt>
      <trkpt lat="42.8516" lon="2.82043">
        <ele>251.9</ele>
        <time>2021-03-28T07:19:15Z</time>
      </trkpt>
      <trkpt lat="42.8516" lon="2.82043">
        <ele>251.9</ele>
        <time>2021-03-28T07:19:15Z</time>
      </trkpt>
      <trkpt lat="42.85158" lon="2.82037">
        <ele>251.9</ele>
        <time>2021-03-28T07:19:17Z</time>
      </trkpt>
      <trkpt lat="42.85158" lon="2.82037">
        <ele>251.9</ele>
        <time>2021-03-28T07:19:17Z</time>
      </trkpt>
      <trkpt lat="42.85157" lon="2.8203">
        <ele>252</ele>
        <time>2021-03-28T07:19:19Z</time>
      </trkpt>
      <trkpt lat="42.85157" lon="2.8203">
        <ele>252</ele>
        <time>2021-03-28T07:19:19Z</time>
      </trkpt>
      <trkpt lat="42.85156" lon="2.82022">
        <ele>252.2</ele>
        <time>2021-03-28T07:19:21Z</time>
      </trkpt>
      <trkpt lat="42.85156" lon="2.82022">
        <ele>252.2</ele>
        <time>2021-03-28T07:19:21Z</time>
      </trkpt>
      <trkpt lat="42.85154" lon="2.82016">
        <ele>252.2</ele>
        <time>2021-03-28T07:19:22Z</time>
      </trkpt>
      <trkpt lat="42.85154" lon="2.82016">
        <ele>252.2</ele>
        <time>2021-03-28T07:19:22Z</time>
      </trkpt>
      <trkpt lat="42.85153" lon="2.82009">
        <ele>252.5</ele>
        <time>2021-03-28T07:19:24Z</time>
      </trkpt>
      <trkpt lat="42.85153" lon="2.82009">
        <ele>252.5</ele>
        <time>2021-03-28T07:19:24Z</time>
      </trkpt>
      <trkpt lat="42.85153" lon="2.82004">
        <ele>252.7</ele>
        <time>2021-03-28T07:19:25Z</time>
      </trkpt>
      <trkpt lat="42.85153" lon="2.82004">
        <ele>252.7</ele>
        <time>2021-03-28T07:19:25Z</time>
      </trkpt>
      <trkpt lat="42.85152" lon="2.81998">
        <ele>253</ele>
        <time>2021-03-28T07:19:27Z</time>
      </trkpt>
      <trkpt lat="42.85152" lon="2.81998">
        <ele>253</ele>
        <time>2021-03-28T07:19:27Z</time>
      </trkpt>
      <trkpt lat="42.85152" lon="2.81991">
        <ele>253.1</ele>
        <time>2021-03-28T07:19:29Z</time>
      </trkpt>
      <trkpt lat="42.85152" lon="2.81991">
        <ele>253.1</ele>
        <time>2021-03-28T07:19:29Z</time>
      </trkpt>
      <trkpt lat="42.85151" lon="2.81984">
        <ele>253.2</ele>
        <time>2021-03-28T07:19:31Z</time>
      </trkpt>
      <trkpt lat="42.85151" lon="2.81984">
        <ele>253.2</ele>
        <time>2021-03-28T07:19:31Z</time>
      </trkpt>
      <trkpt lat="42.8515" lon="2.81979">
        <ele>253.1</ele>
        <time>2021-03-28T07:19:32Z</time>
      </trkpt>
      <trkpt lat="42.8515" lon="2.81979">
        <ele>253.1</ele>
        <time>2021-03-28T07:19:32Z</time>
      </trkpt>
      <trkpt lat="42.85149" lon="2.81975">
        <ele>253.1</ele>
        <time>2021-03-28T07:19:33Z</time>
      </trkpt>
      <trkpt lat="42.85149" lon="2.81975">
        <ele>253.1</ele>
        <time>2021-03-28T07:19:33Z</time>
      </trkpt>
      <trkpt lat="42.85147" lon="2.8197">
        <ele>253.2</ele>
        <time>2021-03-28T07:19:35Z</time>
      </trkpt>
      <trkpt lat="42.85147" lon="2.8197">
        <ele>253.2</ele>
        <time>2021-03-28T07:19:35Z</time>
      </trkpt>
      <trkpt lat="42.85145" lon="2.81964">
        <ele>253.5</ele>
        <time>2021-03-28T07:19:37Z</time>
      </trkpt>
      <trkpt lat="42.85145" lon="2.81964">
        <ele>253.5</ele>
        <time>2021-03-28T07:19:37Z</time>
      </trkpt>
      <trkpt lat="42.85141" lon="2.81958">
        <ele>254</ele>
        <time>2021-03-28T07:19:39Z</time>
      </trkpt>
      <trkpt lat="42.85141" lon="2.81958">
        <ele>254</ele>
        <time>2021-03-28T07:19:39Z</time>
      </trkpt>
      <trkpt lat="42.85138" lon="2.8195">
        <ele>254.7</ele>
        <time>2021-03-28T07:19:41Z</time>
      </trkpt>
      <trkpt lat="42.85138" lon="2.8195">
        <ele>254.7</ele>
        <time>2021-03-28T07:19:41Z</time>
      </trkpt>
      <trkpt lat="42.85135" lon="2.81944">
        <ele>255.1</ele>
        <time>2021-03-28T07:19:42Z</time>
      </trkpt>
      <trkpt lat="42.85135" lon="2.81944">
        <ele>255.1</ele>
        <time>2021-03-28T07:19:42Z</time>
      </trkpt>
      <trkpt lat="42.85132" lon="2.81938">
        <ele>255.2</ele>
        <time>2021-03-28T07:19:44Z</time>
      </trkpt>
      <trkpt lat="42.85132" lon="2.81938">
        <ele>255.2</ele>
        <time>2021-03-28T07:19:44Z</time>
      </trkpt>
      <trkpt lat="42.85129" lon="2.81931">
        <ele>255.3</ele>
        <time>2021-03-28T07:19:46Z</time>
      </trkpt>
      <trkpt lat="42.85129" lon="2.81931">
        <ele>255.3</ele>
        <time>2021-03-28T07:19:46Z</time>
      </trkpt>
      <trkpt lat="42.85127" lon="2.81925">
        <ele>255.6</ele>
        <time>2021-03-28T07:19:48Z</time>
      </trkpt>
      <trkpt lat="42.85127" lon="2.81925">
        <ele>255.6</ele>
        <time>2021-03-28T07:19:48Z</time>
      </trkpt>
      <trkpt lat="42.85125" lon="2.81918">
        <ele>255.9</ele>
        <time>2021-03-28T07:19:50Z</time>
      </trkpt>
      <trkpt lat="42.85125" lon="2.81918">
        <ele>255.9</ele>
        <time>2021-03-28T07:19:50Z</time>
      </trkpt>
      <trkpt lat="42.85124" lon="2.81911">
        <ele>256.1</ele>
        <time>2021-03-28T07:19:52Z</time>
      </trkpt>
      <trkpt lat="42.85124" lon="2.81911">
        <ele>256.1</ele>
        <time>2021-03-28T07:19:52Z</time>
      </trkpt>
      <trkpt lat="42.85123" lon="2.81906">
        <ele>256.2</ele>
        <time>2021-03-28T07:19:53Z</time>
      </trkpt>
      <trkpt lat="42.85123" lon="2.81906">
        <ele>256.2</ele>
        <time>2021-03-28T07:19:53Z</time>
      </trkpt>
      <trkpt lat="42.85123" lon="2.81899">
        <ele>256.5</ele>
        <time>2021-03-28T07:19:55Z</time>
      </trkpt>
      <trkpt lat="42.85123" lon="2.81899">
        <ele>256.5</ele>
        <time>2021-03-28T07:19:55Z</time>
      </trkpt>
      <trkpt lat="42.85122" lon="2.81894">
        <ele>256.6</ele>
        <time>2021-03-28T07:19:56Z</time>
      </trkpt>
      <trkpt lat="42.85122" lon="2.81894">
        <ele>256.6</ele>
        <time>2021-03-28T07:19:56Z</time>
      </trkpt>
      <trkpt lat="42.85121" lon="2.81889">
        <ele>256.9</ele>
        <time>2021-03-28T07:19:57Z</time>
      </trkpt>
      <trkpt lat="42.85121" lon="2.81889">
        <ele>256.9</ele>
        <time>2021-03-28T07:19:57Z</time>
      </trkpt>
      <trkpt lat="42.85121" lon="2.81883">
        <ele>257.1</ele>
        <time>2021-03-28T07:19:59Z</time>
      </trkpt>
      <trkpt lat="42.85121" lon="2.81883">
        <ele>257.1</ele>
        <time>2021-03-28T07:19:59Z</time>
      </trkpt>
      <trkpt lat="42.8512" lon="2.81877">
        <ele>257.4</ele>
        <time>2021-03-28T07:20:00Z</time>
      </trkpt>
      <trkpt lat="42.8512" lon="2.81877">
        <ele>257.4</ele>
        <time>2021-03-28T07:20:00Z</time>
      </trkpt>
      <trkpt lat="42.8512" lon="2.81872">
        <ele>257.7</ele>
        <time>2021-03-28T07:20:02Z</time>
      </trkpt>
      <trkpt lat="42.8512" lon="2.81872">
        <ele>257.7</ele>
        <time>2021-03-28T07:20:02Z</time>
      </trkpt>
      <trkpt lat="42.85121" lon="2.81867">
        <ele>258</ele>
        <time>2021-03-28T07:20:03Z</time>
      </trkpt>
      <trkpt lat="42.85121" lon="2.81867">
        <ele>258</ele>
        <time>2021-03-28T07:20:03Z</time>
      </trkpt>
      <trkpt lat="42.85121" lon="2.81863">
        <ele>258.3</ele>
        <time>2021-03-28T07:20:04Z</time>
      </trkpt>
      <trkpt lat="42.85121" lon="2.81863">
        <ele>258.3</ele>
        <time>2021-03-28T07:20:04Z</time>
      </trkpt>
      <trkpt lat="42.85121" lon="2.81859">
        <ele>258.5</ele>
        <time>2021-03-28T07:20:05Z</time>
      </trkpt>
      <trkpt lat="42.85121" lon="2.81859">
        <ele>258.5</ele>
        <time>2021-03-28T07:20:05Z</time>
      </trkpt>
      <trkpt lat="42.85121" lon="2.81856">
        <ele>258.7</ele>
        <time>2021-03-28T07:20:06Z</time>
      </trkpt>
      <trkpt lat="42.85121" lon="2.81856">
        <ele>258.7</ele>
        <time>2021-03-28T07:20:06Z</time>
      </trkpt>
      <trkpt lat="42.85121" lon="2.81851">
        <ele>258.9</ele>
        <time>2021-03-28T07:20:08Z</time>
      </trkpt>
      <trkpt lat="42.85121" lon="2.81851">
        <ele>258.9</ele>
        <time>2021-03-28T07:20:08Z</time>
      </trkpt>
      <trkpt lat="42.85121" lon="2.81845">
        <ele>259.1</ele>
        <time>2021-03-28T07:20:10Z</time>
      </trkpt>
      <trkpt lat="42.85121" lon="2.81845">
        <ele>259.1</ele>
        <time>2021-03-28T07:20:10Z</time>
      </trkpt>
      <trkpt lat="42.8512" lon="2.81838">
        <ele>259.4</ele>
        <time>2021-03-28T07:20:12Z</time>
      </trkpt>
      <trkpt lat="42.8512" lon="2.81838">
        <ele>259.4</ele>
        <time>2021-03-28T07:20:12Z</time>
      </trkpt>
      <trkpt lat="42.8512" lon="2.81831">
        <ele>259.8</ele>
        <time>2021-03-28T07:20:14Z</time>
      </trkpt>
      <trkpt lat="42.8512" lon="2.81831">
        <ele>259.8</ele>
        <time>2021-03-28T07:20:14Z</time>
      </trkpt>
      <trkpt lat="42.8512" lon="2.81824">
        <ele>260.2</ele>
        <time>2021-03-28T07:20:16Z</time>
      </trkpt>
      <trkpt lat="42.8512" lon="2.81824">
        <ele>260.2</ele>
        <time>2021-03-28T07:20:16Z</time>
      </trkpt>
      <trkpt lat="42.8512" lon="2.81817">
        <ele>260.6</ele>
        <time>2021-03-28T07:20:17Z</time>
      </trkpt>
      <trkpt lat="42.8512" lon="2.81817">
        <ele>260.6</ele>
        <time>2021-03-28T07:20:17Z</time>
      </trkpt>
      <trkpt lat="42.8512" lon="2.81811">
        <ele>261</ele>
        <time>2021-03-28T07:20:19Z</time>
      </trkpt>
      <trkpt lat="42.8512" lon="2.81811">
        <ele>261</ele>
        <time>2021-03-28T07:20:19Z</time>
      </trkpt>
      <trkpt lat="42.8512" lon="2.81804">
        <ele>261.4</ele>
        <time>2021-03-28T07:20:21Z</time>
      </trkpt>
      <trkpt lat="42.8512" lon="2.81804">
        <ele>261.4</ele>
        <time>2021-03-28T07:20:21Z</time>
      </trkpt>
      <trkpt lat="42.85121" lon="2.81796">
        <ele>261.7</ele>
        <time>2021-03-28T07:20:23Z</time>
      </trkpt>
      <trkpt lat="42.85121" lon="2.81796">
        <ele>261.7</ele>
        <time>2021-03-28T07:20:23Z</time>
      </trkpt>
      <trkpt lat="42.85121" lon="2.81788">
        <ele>262</ele>
        <time>2021-03-28T07:20:25Z</time>
      </trkpt>
      <trkpt lat="42.85121" lon="2.81788">
        <ele>262</ele>
        <time>2021-03-28T07:20:25Z</time>
      </trkpt>
      <trkpt lat="42.85121" lon="2.81781">
        <ele>262.2</ele>
        <time>2021-03-28T07:20:26Z</time>
      </trkpt>
      <trkpt lat="42.85121" lon="2.81781">
        <ele>262.2</ele>
        <time>2021-03-28T07:20:26Z</time>
      </trkpt>
      <trkpt lat="42.85121" lon="2.81774">
        <ele>262.4</ele>
        <time>2021-03-28T07:20:28Z</time>
      </trkpt>
      <trkpt lat="42.85121" lon="2.81774">
        <ele>262.4</ele>
        <time>2021-03-28T07:20:28Z</time>
      </trkpt>
      <trkpt lat="42.85121" lon="2.81767">
        <ele>262.6</ele>
        <time>2021-03-28T07:20:29Z</time>
      </trkpt>
      <trkpt lat="42.85121" lon="2.81767">
        <ele>262.6</ele>
        <time>2021-03-28T07:20:29Z</time>
      </trkpt>
      <trkpt lat="42.85121" lon="2.8176">
        <ele>262.8</ele>
        <time>2021-03-28T07:20:31Z</time>
      </trkpt>
      <trkpt lat="42.85121" lon="2.8176">
        <ele>262.8</ele>
        <time>2021-03-28T07:20:31Z</time>
      </trkpt>
      <trkpt lat="42.85121" lon="2.81754">
        <ele>262.9</ele>
        <time>2021-03-28T07:20:32Z</time>
      </trkpt>
      <trkpt lat="42.85121" lon="2.81754">
        <ele>262.9</ele>
        <time>2021-03-28T07:20:32Z</time>
      </trkpt>
      <trkpt lat="42.8512" lon="2.81749">
        <ele>263.1</ele>
        <time>2021-03-28T07:20:33Z</time>
      </trkpt>
      <trkpt lat="42.8512" lon="2.81749">
        <ele>263.1</ele>
        <time>2021-03-28T07:20:33Z</time>
      </trkpt>
      <trkpt lat="42.85119" lon="2.81742">
        <ele>263.3</ele>
        <time>2021-03-28T07:20:35Z</time>
      </trkpt>
      <trkpt lat="42.85119" lon="2.81742">
        <ele>263.3</ele>
        <time>2021-03-28T07:20:35Z</time>
      </trkpt>
      <trkpt lat="42.85118" lon="2.81735">
        <ele>263.5</ele>
        <time>2021-03-28T07:20:37Z</time>
      </trkpt>
      <trkpt lat="42.85118" lon="2.81735">
        <ele>263.5</ele>
        <time>2021-03-28T07:20:37Z</time>
      </trkpt>
      <trkpt lat="42.85117" lon="2.81729">
        <ele>263.8</ele>
        <time>2021-03-28T07:20:38Z</time>
      </trkpt>
      <trkpt lat="42.85117" lon="2.81729">
        <ele>263.8</ele>
        <time>2021-03-28T07:20:38Z</time>
      </trkpt>
      <trkpt lat="42.85116" lon="2.81722">
        <ele>264</ele>
        <time>2021-03-28T07:20:40Z</time>
      </trkpt>
      <trkpt lat="42.85116" lon="2.81722">
        <ele>264</ele>
        <time>2021-03-28T07:20:40Z</time>
      </trkpt>
      <trkpt lat="42.85116" lon="2.81714">
        <ele>264</ele>
        <time>2021-03-28T07:20:42Z</time>
      </trkpt>
      <trkpt lat="42.85116" lon="2.81714">
        <ele>264</ele>
        <time>2021-03-28T07:20:42Z</time>
      </trkpt>
      <trkpt lat="42.85115" lon="2.81707">
        <ele>264</ele>
        <time>2021-03-28T07:20:43Z</time>
      </trkpt>
      <trkpt lat="42.85115" lon="2.81707">
        <ele>264</ele>
        <time>2021-03-28T07:20:43Z</time>
      </trkpt>
      <trkpt lat="42.85115" lon="2.81701">
        <ele>264</ele>
        <time>2021-03-28T07:20:44Z</time>
      </trkpt>
      <trkpt lat="42.85115" lon="2.81701">
        <ele>264</ele>
        <time>2021-03-28T07:20:44Z</time>
      </trkpt>
      <trkpt lat="42.85114" lon="2.81694">
        <ele>264</ele>
        <time>2021-03-28T07:20:46Z</time>
      </trkpt>
      <trkpt lat="42.85114" lon="2.81694">
        <ele>264</ele>
        <time>2021-03-28T07:20:46Z</time>
      </trkpt>
      <trkpt lat="42.85113" lon="2.81686">
        <ele>264.3</ele>
        <time>2021-03-28T07:20:48Z</time>
      </trkpt>
      <trkpt lat="42.85113" lon="2.81686">
        <ele>264.3</ele>
        <time>2021-03-28T07:20:48Z</time>
      </trkpt>
      <trkpt lat="42.85112" lon="2.8168">
        <ele>264.5</ele>
        <time>2021-03-28T07:20:49Z</time>
      </trkpt>
      <trkpt lat="42.85112" lon="2.8168">
        <ele>264.5</ele>
        <time>2021-03-28T07:20:49Z</time>
      </trkpt>
      <trkpt lat="42.85111" lon="2.81673">
        <ele>264.8</ele>
        <time>2021-03-28T07:20:51Z</time>
      </trkpt>
      <trkpt lat="42.85111" lon="2.81673">
        <ele>264.8</ele>
        <time>2021-03-28T07:20:51Z</time>
      </trkpt>
      <trkpt lat="42.85111" lon="2.81666">
        <ele>265</ele>
        <time>2021-03-28T07:20:52Z</time>
      </trkpt>
      <trkpt lat="42.85111" lon="2.81666">
        <ele>265</ele>
        <time>2021-03-28T07:20:52Z</time>
      </trkpt>
      <trkpt lat="42.8511" lon="2.8166">
        <ele>264.9</ele>
        <time>2021-03-28T07:20:53Z</time>
      </trkpt>
      <trkpt lat="42.8511" lon="2.8166">
        <ele>264.9</ele>
        <time>2021-03-28T07:20:53Z</time>
      </trkpt>
      <trkpt lat="42.85108" lon="2.81652">
        <ele>264.8</ele>
        <time>2021-03-28T07:20:55Z</time>
      </trkpt>
      <trkpt lat="42.85108" lon="2.81652">
        <ele>264.8</ele>
        <time>2021-03-28T07:20:55Z</time>
      </trkpt>
      <trkpt lat="42.85107" lon="2.81645">
        <ele>264.8</ele>
        <time>2021-03-28T07:20:56Z</time>
      </trkpt>
      <trkpt lat="42.85107" lon="2.81645">
        <ele>264.8</ele>
        <time>2021-03-28T07:20:56Z</time>
      </trkpt>
      <trkpt lat="42.85106" lon="2.81636">
        <ele>264.8</ele>
        <time>2021-03-28T07:20:58Z</time>
      </trkpt>
      <trkpt lat="42.85106" lon="2.81636">
        <ele>264.8</ele>
        <time>2021-03-28T07:20:58Z</time>
      </trkpt>
      <trkpt lat="42.85104" lon="2.81625">
        <ele>264.9</ele>
        <time>2021-03-28T07:21:00Z</time>
      </trkpt>
      <trkpt lat="42.85104" lon="2.81625">
        <ele>264.9</ele>
        <time>2021-03-28T07:21:00Z</time>
      </trkpt>
      <trkpt lat="42.85102" lon="2.81615">
        <ele>265</ele>
        <time>2021-03-28T07:21:02Z</time>
      </trkpt>
      <trkpt lat="42.85102" lon="2.81615">
        <ele>265</ele>
        <time>2021-03-28T07:21:02Z</time>
      </trkpt>
      <trkpt lat="42.851" lon="2.81605">
        <ele>265.2</ele>
        <time>2021-03-28T07:21:04Z</time>
      </trkpt>
      <trkpt lat="42.851" lon="2.81605">
        <ele>265.2</ele>
        <time>2021-03-28T07:21:04Z</time>
      </trkpt>
      <trkpt lat="42.85098" lon="2.81597">
        <ele>265.5</ele>
        <time>2021-03-28T07:21:05Z</time>
      </trkpt>
      <trkpt lat="42.85098" lon="2.81597">
        <ele>265.5</ele>
        <time>2021-03-28T07:21:05Z</time>
      </trkpt>
      <trkpt lat="42.85096" lon="2.8159">
        <ele>265.8</ele>
        <time>2021-03-28T07:21:06Z</time>
      </trkpt>
      <trkpt lat="42.85096" lon="2.8159">
        <ele>265.8</ele>
        <time>2021-03-28T07:21:06Z</time>
      </trkpt>
      <trkpt lat="42.85094" lon="2.81583">
        <ele>266</ele>
        <time>2021-03-28T07:21:07Z</time>
      </trkpt>
      <trkpt lat="42.85094" lon="2.81583">
        <ele>266</ele>
        <time>2021-03-28T07:21:07Z</time>
      </trkpt>
      <trkpt lat="42.85091" lon="2.81577">
        <ele>266.2</ele>
        <time>2021-03-28T07:21:09Z</time>
      </trkpt>
      <trkpt lat="42.85091" lon="2.81577">
        <ele>266.2</ele>
        <time>2021-03-28T07:21:09Z</time>
      </trkpt>
      <trkpt lat="42.85088" lon="2.81569">
        <ele>266.5</ele>
        <time>2021-03-28T07:21:11Z</time>
      </trkpt>
      <trkpt lat="42.85088" lon="2.81569">
        <ele>266.5</ele>
        <time>2021-03-28T07:21:11Z</time>
      </trkpt>
      <trkpt lat="42.85084" lon="2.81561">
        <ele>266.8</ele>
        <time>2021-03-28T07:21:13Z</time>
      </trkpt>
      <trkpt lat="42.85084" lon="2.81561">
        <ele>266.8</ele>
        <time>2021-03-28T07:21:13Z</time>
      </trkpt>
      <trkpt lat="42.85081" lon="2.81553">
        <ele>266.7</ele>
        <time>2021-03-28T07:21:15Z</time>
      </trkpt>
      <trkpt lat="42.85081" lon="2.81553">
        <ele>266.7</ele>
        <time>2021-03-28T07:21:15Z</time>
      </trkpt>
      <trkpt lat="42.85079" lon="2.81546">
        <ele>266.4</ele>
        <time>2021-03-28T07:21:16Z</time>
      </trkpt>
      <trkpt lat="42.85079" lon="2.81546">
        <ele>266.4</ele>
        <time>2021-03-28T07:21:16Z</time>
      </trkpt>
      <trkpt lat="42.85077" lon="2.81539">
        <ele>266.2</ele>
        <time>2021-03-28T07:21:17Z</time>
      </trkpt>
      <trkpt lat="42.85077" lon="2.81539">
        <ele>266.2</ele>
        <time>2021-03-28T07:21:17Z</time>
      </trkpt>
      <trkpt lat="42.85076" lon="2.81532">
        <ele>266.2</ele>
        <time>2021-03-28T07:21:19Z</time>
      </trkpt>
      <trkpt lat="42.85076" lon="2.81532">
        <ele>266.2</ele>
        <time>2021-03-28T07:21:19Z</time>
      </trkpt>
      <trkpt lat="42.85075" lon="2.81523">
        <ele>266.3</ele>
        <time>2021-03-28T07:21:21Z</time>
      </trkpt>
      <trkpt lat="42.85075" lon="2.81523">
        <ele>266.3</ele>
        <time>2021-03-28T07:21:21Z</time>
      </trkpt>
      <trkpt lat="42.85075" lon="2.81517">
        <ele>266.5</ele>
        <time>2021-03-28T07:21:22Z</time>
      </trkpt>
      <trkpt lat="42.85075" lon="2.81517">
        <ele>266.5</ele>
        <time>2021-03-28T07:21:22Z</time>
      </trkpt>
      <trkpt lat="42.85074" lon="2.8151">
        <ele>266.6</ele>
        <time>2021-03-28T07:21:23Z</time>
      </trkpt>
      <trkpt lat="42.85074" lon="2.8151">
        <ele>266.6</ele>
        <time>2021-03-28T07:21:23Z</time>
      </trkpt>
      <trkpt lat="42.85073" lon="2.81503">
        <ele>266.8</ele>
        <time>2021-03-28T07:21:25Z</time>
      </trkpt>
      <trkpt lat="42.85073" lon="2.81503">
        <ele>266.8</ele>
        <time>2021-03-28T07:21:25Z</time>
      </trkpt>
      <trkpt lat="42.85073" lon="2.81494">
        <ele>267</ele>
        <time>2021-03-28T07:21:27Z</time>
      </trkpt>
      <trkpt lat="42.85073" lon="2.81494">
        <ele>267</ele>
        <time>2021-03-28T07:21:27Z</time>
      </trkpt>
      <trkpt lat="42.85073" lon="2.81487">
        <ele>267.2</ele>
        <time>2021-03-28T07:21:28Z</time>
      </trkpt>
      <trkpt lat="42.85073" lon="2.81487">
        <ele>267.2</ele>
        <time>2021-03-28T07:21:28Z</time>
      </trkpt>
      <trkpt lat="42.85073" lon="2.81478">
        <ele>267.5</ele>
        <time>2021-03-28T07:21:30Z</time>
      </trkpt>
      <trkpt lat="42.85073" lon="2.81478">
        <ele>267.5</ele>
        <time>2021-03-28T07:21:30Z</time>
      </trkpt>
      <trkpt lat="42.85073" lon="2.8147">
        <ele>267.7</ele>
        <time>2021-03-28T07:21:31Z</time>
      </trkpt>
      <trkpt lat="42.85073" lon="2.8147">
        <ele>267.7</ele>
        <time>2021-03-28T07:21:31Z</time>
      </trkpt>
      <trkpt lat="42.85073" lon="2.81464">
        <ele>267.8</ele>
        <time>2021-03-28T07:21:32Z</time>
      </trkpt>
      <trkpt lat="42.85073" lon="2.81464">
        <ele>267.8</ele>
        <time>2021-03-28T07:21:32Z</time>
      </trkpt>
      <trkpt lat="42.85072" lon="2.81456">
        <ele>268.1</ele>
        <time>2021-03-28T07:21:34Z</time>
      </trkpt>
      <trkpt lat="42.85072" lon="2.81456">
        <ele>268.1</ele>
        <time>2021-03-28T07:21:34Z</time>
      </trkpt>
      <trkpt lat="42.8507" lon="2.8145">
        <ele>268.3</ele>
        <time>2021-03-28T07:21:35Z</time>
      </trkpt>
      <trkpt lat="42.8507" lon="2.8145">
        <ele>268.3</ele>
        <time>2021-03-28T07:21:35Z</time>
      </trkpt>
      <trkpt lat="42.85068" lon="2.81444">
        <ele>268.5</ele>
        <time>2021-03-28T07:21:37Z</time>
      </trkpt>
      <trkpt lat="42.85068" lon="2.81444">
        <ele>268.5</ele>
        <time>2021-03-28T07:21:37Z</time>
      </trkpt>
      <trkpt lat="42.85066" lon="2.81439">
        <ele>268.5</ele>
        <time>2021-03-28T07:21:38Z</time>
      </trkpt>
      <trkpt lat="42.85066" lon="2.81439">
        <ele>268.5</ele>
        <time>2021-03-28T07:21:38Z</time>
      </trkpt>
      <trkpt lat="42.85063" lon="2.81434">
        <ele>268.5</ele>
        <time>2021-03-28T07:21:39Z</time>
      </trkpt>
      <trkpt lat="42.85063" lon="2.81434">
        <ele>268.5</ele>
        <time>2021-03-28T07:21:39Z</time>
      </trkpt>
      <trkpt lat="42.85061" lon="2.8143">
        <ele>268.6</ele>
        <time>2021-03-28T07:21:40Z</time>
      </trkpt>
      <trkpt lat="42.85061" lon="2.8143">
        <ele>268.6</ele>
        <time>2021-03-28T07:21:40Z</time>
      </trkpt>
      <trkpt lat="42.85057" lon="2.81424">
        <ele>268.9</ele>
        <time>2021-03-28T07:21:42Z</time>
      </trkpt>
      <trkpt lat="42.85057" lon="2.81424">
        <ele>268.9</ele>
        <time>2021-03-28T07:21:42Z</time>
      </trkpt>
      <trkpt lat="42.85052" lon="2.81417">
        <ele>269.1</ele>
        <time>2021-03-28T07:21:44Z</time>
      </trkpt>
      <trkpt lat="42.85052" lon="2.81417">
        <ele>269.1</ele>
        <time>2021-03-28T07:21:44Z</time>
      </trkpt>
      <trkpt lat="42.85048" lon="2.8141">
        <ele>269.2</ele>
        <time>2021-03-28T07:21:45Z</time>
      </trkpt>
      <trkpt lat="42.85048" lon="2.8141">
        <ele>269.2</ele>
        <time>2021-03-28T07:21:45Z</time>
      </trkpt>
      <trkpt lat="42.85044" lon="2.81403">
        <ele>269.3</ele>
        <time>2021-03-28T07:21:47Z</time>
      </trkpt>
      <trkpt lat="42.85044" lon="2.81403">
        <ele>269.3</ele>
        <time>2021-03-28T07:21:47Z</time>
      </trkpt>
      <trkpt lat="42.85041" lon="2.81396">
        <ele>269.6</ele>
        <time>2021-03-28T07:21:48Z</time>
      </trkpt>
      <trkpt lat="42.85041" lon="2.81396">
        <ele>269.6</ele>
        <time>2021-03-28T07:21:48Z</time>
      </trkpt>
      <trkpt lat="42.85038" lon="2.8139">
        <ele>269.9</ele>
        <time>2021-03-28T07:21:49Z</time>
      </trkpt>
      <trkpt lat="42.85038" lon="2.8139">
        <ele>269.9</ele>
        <time>2021-03-28T07:21:49Z</time>
      </trkpt>
      <trkpt lat="42.85036" lon="2.81384">
        <ele>269.9</ele>
        <time>2021-03-28T07:21:51Z</time>
      </trkpt>
      <trkpt lat="42.85036" lon="2.81384">
        <ele>269.9</ele>
        <time>2021-03-28T07:21:51Z</time>
      </trkpt>
      <trkpt lat="42.85034" lon="2.81377">
        <ele>269.8</ele>
        <time>2021-03-28T07:21:53Z</time>
      </trkpt>
      <trkpt lat="42.85034" lon="2.81377">
        <ele>269.8</ele>
        <time>2021-03-28T07:21:53Z</time>
      </trkpt>
      <trkpt lat="42.85032" lon="2.81369">
        <ele>269.7</ele>
        <time>2021-03-28T07:21:55Z</time>
      </trkpt>
      <trkpt lat="42.85032" lon="2.81369">
        <ele>269.7</ele>
        <time>2021-03-28T07:21:55Z</time>
      </trkpt>
      <trkpt lat="42.85031" lon="2.8136">
        <ele>269.6</ele>
        <time>2021-03-28T07:21:57Z</time>
      </trkpt>
      <trkpt lat="42.85031" lon="2.8136">
        <ele>269.6</ele>
        <time>2021-03-28T07:21:57Z</time>
      </trkpt>
      <trkpt lat="42.85029" lon="2.81352">
        <ele>269.8</ele>
        <time>2021-03-28T07:21:59Z</time>
      </trkpt>
      <trkpt lat="42.85029" lon="2.81352">
        <ele>269.8</ele>
        <time>2021-03-28T07:21:59Z</time>
      </trkpt>
      <trkpt lat="42.85028" lon="2.81344">
        <ele>270</ele>
        <time>2021-03-28T07:22:00Z</time>
      </trkpt>
      <trkpt lat="42.85028" lon="2.81344">
        <ele>270</ele>
        <time>2021-03-28T07:22:00Z</time>
      </trkpt>
      <trkpt lat="42.85027" lon="2.81336">
        <ele>270.1</ele>
        <time>2021-03-28T07:22:02Z</time>
      </trkpt>
      <trkpt lat="42.85027" lon="2.81336">
        <ele>270.1</ele>
        <time>2021-03-28T07:22:02Z</time>
      </trkpt>
      <trkpt lat="42.85027" lon="2.81328">
        <ele>270.1</ele>
        <time>2021-03-28T07:22:03Z</time>
      </trkpt>
      <trkpt lat="42.85027" lon="2.81328">
        <ele>270.1</ele>
        <time>2021-03-28T07:22:03Z</time>
      </trkpt>
      <trkpt lat="42.85026" lon="2.81322">
        <ele>270</ele>
        <time>2021-03-28T07:22:04Z</time>
      </trkpt>
      <trkpt lat="42.85026" lon="2.81322">
        <ele>270</ele>
        <time>2021-03-28T07:22:04Z</time>
      </trkpt>
      <trkpt lat="42.85024" lon="2.81313">
        <ele>270</ele>
        <time>2021-03-28T07:22:06Z</time>
      </trkpt>
      <trkpt lat="42.85024" lon="2.81313">
        <ele>270</ele>
        <time>2021-03-28T07:22:06Z</time>
      </trkpt>
      <trkpt lat="42.85023" lon="2.81303">
        <ele>270</ele>
        <time>2021-03-28T07:22:08Z</time>
      </trkpt>
      <trkpt lat="42.85023" lon="2.81303">
        <ele>270</ele>
        <time>2021-03-28T07:22:08Z</time>
      </trkpt>
      <trkpt lat="42.85021" lon="2.81294">
        <ele>270.1</ele>
        <time>2021-03-28T07:22:09Z</time>
      </trkpt>
      <trkpt lat="42.85021" lon="2.81294">
        <ele>270.1</ele>
        <time>2021-03-28T07:22:09Z</time>
      </trkpt>
      <trkpt lat="42.85019" lon="2.81285">
        <ele>270.3</ele>
        <time>2021-03-28T07:22:11Z</time>
      </trkpt>
      <trkpt lat="42.85019" lon="2.81285">
        <ele>270.3</ele>
        <time>2021-03-28T07:22:11Z</time>
      </trkpt>
      <trkpt lat="42.85018" lon="2.81277">
        <ele>270.5</ele>
        <time>2021-03-28T07:22:12Z</time>
      </trkpt>
      <trkpt lat="42.85018" lon="2.81277">
        <ele>270.5</ele>
        <time>2021-03-28T07:22:12Z</time>
      </trkpt>
      <trkpt lat="42.85016" lon="2.81268">
        <ele>270.6</ele>
        <time>2021-03-28T07:22:14Z</time>
      </trkpt>
      <trkpt lat="42.85016" lon="2.81268">
        <ele>270.6</ele>
        <time>2021-03-28T07:22:14Z</time>
      </trkpt>
      <trkpt lat="42.85013" lon="2.8126">
        <ele>270.7</ele>
        <time>2021-03-28T07:22:15Z</time>
      </trkpt>
      <trkpt lat="42.85013" lon="2.8126">
        <ele>270.7</ele>
        <time>2021-03-28T07:22:15Z</time>
      </trkpt>
      <trkpt lat="42.85011" lon="2.81254">
        <ele>270.9</ele>
        <time>2021-03-28T07:22:16Z</time>
      </trkpt>
      <trkpt lat="42.85011" lon="2.81254">
        <ele>270.9</ele>
        <time>2021-03-28T07:22:16Z</time>
      </trkpt>
      <trkpt lat="42.85007" lon="2.81248">
        <ele>271.2</ele>
        <time>2021-03-28T07:22:18Z</time>
      </trkpt>
      <trkpt lat="42.85007" lon="2.81248">
        <ele>271.2</ele>
        <time>2021-03-28T07:22:18Z</time>
      </trkpt>
      <trkpt lat="42.85004" lon="2.81244">
        <ele>271.4</ele>
        <time>2021-03-28T07:22:19Z</time>
      </trkpt>
      <trkpt lat="42.85004" lon="2.81244">
        <ele>271.4</ele>
        <time>2021-03-28T07:22:19Z</time>
      </trkpt>
      <trkpt lat="42.85" lon="2.8124">
        <ele>271.6</ele>
        <time>2021-03-28T07:22:20Z</time>
      </trkpt>
      <trkpt lat="42.85" lon="2.8124">
        <ele>271.6</ele>
        <time>2021-03-28T07:22:20Z</time>
      </trkpt>
      <trkpt lat="42.84996" lon="2.81237">
        <ele>271.4</ele>
        <time>2021-03-28T07:22:21Z</time>
      </trkpt>
      <trkpt lat="42.84996" lon="2.81237">
        <ele>271.4</ele>
        <time>2021-03-28T07:22:21Z</time>
      </trkpt>
      <trkpt lat="42.84991" lon="2.81234">
        <ele>271.5</ele>
        <time>2021-03-28T07:22:23Z</time>
      </trkpt>
      <trkpt lat="42.84991" lon="2.81234">
        <ele>271.5</ele>
        <time>2021-03-28T07:22:23Z</time>
      </trkpt>
      <trkpt lat="42.84986" lon="2.81232">
        <ele>271.7</ele>
        <time>2021-03-28T07:22:24Z</time>
      </trkpt>
      <trkpt lat="42.84986" lon="2.81232">
        <ele>271.7</ele>
        <time>2021-03-28T07:22:24Z</time>
      </trkpt>
      <trkpt lat="42.8498" lon="2.8123">
        <ele>272.1</ele>
        <time>2021-03-28T07:22:26Z</time>
      </trkpt>
      <trkpt lat="42.8498" lon="2.8123">
        <ele>272.1</ele>
        <time>2021-03-28T07:22:26Z</time>
      </trkpt>
      <trkpt lat="42.84974" lon="2.81229">
        <ele>272.5</ele>
        <time>2021-03-28T07:22:27Z</time>
      </trkpt>
      <trkpt lat="42.84974" lon="2.81229">
        <ele>272.5</ele>
        <time>2021-03-28T07:22:27Z</time>
      </trkpt>
      <trkpt lat="42.84969" lon="2.81228">
        <ele>272.8</ele>
        <time>2021-03-28T07:22:28Z</time>
      </trkpt>
      <trkpt lat="42.84969" lon="2.81228">
        <ele>272.8</ele>
        <time>2021-03-28T07:22:28Z</time>
      </trkpt>
      <trkpt lat="42.84963" lon="2.81225">
        <ele>272.9</ele>
        <time>2021-03-28T07:22:30Z</time>
      </trkpt>
      <trkpt lat="42.84963" lon="2.81225">
        <ele>272.9</ele>
        <time>2021-03-28T07:22:30Z</time>
      </trkpt>
      <trkpt lat="42.84957" lon="2.81222">
        <ele>273.1</ele>
        <time>2021-03-28T07:22:31Z</time>
      </trkpt>
      <trkpt lat="42.84957" lon="2.81222">
        <ele>273.1</ele>
        <time>2021-03-28T07:22:31Z</time>
      </trkpt>
      <trkpt lat="42.84951" lon="2.81216">
        <ele>273.3</ele>
        <time>2021-03-28T07:22:33Z</time>
      </trkpt>
      <trkpt lat="42.84951" lon="2.81216">
        <ele>273.3</ele>
        <time>2021-03-28T07:22:33Z</time>
      </trkpt>
      <trkpt lat="42.84946" lon="2.81209">
        <ele>273.8</ele>
        <time>2021-03-28T07:22:35Z</time>
      </trkpt>
      <trkpt lat="42.84946" lon="2.81209">
        <ele>273.8</ele>
        <time>2021-03-28T07:22:35Z</time>
      </trkpt>
      <trkpt lat="42.84942" lon="2.812">
        <ele>274</ele>
        <time>2021-03-28T07:22:37Z</time>
      </trkpt>
      <trkpt lat="42.84942" lon="2.812">
        <ele>274</ele>
        <time>2021-03-28T07:22:37Z</time>
      </trkpt>
      <trkpt lat="42.84939" lon="2.81193">
        <ele>273.9</ele>
        <time>2021-03-28T07:22:38Z</time>
      </trkpt>
      <trkpt lat="42.84939" lon="2.81193">
        <ele>273.9</ele>
        <time>2021-03-28T07:22:38Z</time>
      </trkpt>
      <trkpt lat="42.84936" lon="2.81186">
        <ele>273.6</ele>
        <time>2021-03-28T07:22:40Z</time>
      </trkpt>
      <trkpt lat="42.84936" lon="2.81186">
        <ele>273.6</ele>
        <time>2021-03-28T07:22:40Z</time>
      </trkpt>
      <trkpt lat="42.84933" lon="2.81177">
        <ele>273.3</ele>
        <time>2021-03-28T07:22:42Z</time>
      </trkpt>
      <trkpt lat="42.84933" lon="2.81177">
        <ele>273.3</ele>
        <time>2021-03-28T07:22:42Z</time>
      </trkpt>
      <trkpt lat="42.8493" lon="2.81168">
        <ele>273.1</ele>
        <time>2021-03-28T07:22:43Z</time>
      </trkpt>
      <trkpt lat="42.8493" lon="2.81168">
        <ele>273.1</ele>
        <time>2021-03-28T07:22:43Z</time>
      </trkpt>
      <trkpt lat="42.84927" lon="2.81158">
        <ele>273.6</ele>
        <time>2021-03-28T07:22:45Z</time>
      </trkpt>
      <trkpt lat="42.84927" lon="2.81158">
        <ele>273.6</ele>
        <time>2021-03-28T07:22:45Z</time>
      </trkpt>
      <trkpt lat="42.84924" lon="2.81148">
        <ele>274.1</ele>
        <time>2021-03-28T07:22:47Z</time>
      </trkpt>
      <trkpt lat="42.84924" lon="2.81148">
        <ele>274.1</ele>
        <time>2021-03-28T07:22:47Z</time>
      </trkpt>
      <trkpt lat="42.84922" lon="2.81137">
        <ele>274.7</ele>
        <time>2021-03-28T07:22:49Z</time>
      </trkpt>
      <trkpt lat="42.84922" lon="2.81137">
        <ele>274.7</ele>
        <time>2021-03-28T07:22:49Z</time>
      </trkpt>
      <trkpt lat="42.8492" lon="2.81129">
        <ele>275.1</ele>
        <time>2021-03-28T07:22:50Z</time>
      </trkpt>
      <trkpt lat="42.8492" lon="2.81129">
        <ele>275.1</ele>
        <time>2021-03-28T07:22:50Z</time>
      </trkpt>
      <trkpt lat="42.84919" lon="2.81121">
        <ele>275.5</ele>
        <time>2021-03-28T07:22:51Z</time>
      </trkpt>
      <trkpt lat="42.84919" lon="2.81121">
        <ele>275.5</ele>
        <time>2021-03-28T07:22:51Z</time>
      </trkpt>
      <trkpt lat="42.84917" lon="2.81113">
        <ele>275.9</ele>
        <time>2021-03-28T07:22:53Z</time>
      </trkpt>
      <trkpt lat="42.84917" lon="2.81113">
        <ele>275.9</ele>
        <time>2021-03-28T07:22:53Z</time>
      </trkpt>
      <trkpt lat="42.84915" lon="2.81106">
        <ele>275.9</ele>
        <time>2021-03-28T07:22:54Z</time>
      </trkpt>
      <trkpt lat="42.84915" lon="2.81106">
        <ele>275.9</ele>
        <time>2021-03-28T07:22:54Z</time>
      </trkpt>
      <trkpt lat="42.84912" lon="2.81098">
        <ele>275.7</ele>
        <time>2021-03-28T07:22:56Z</time>
      </trkpt>
      <trkpt lat="42.84912" lon="2.81098">
        <ele>275.7</ele>
        <time>2021-03-28T07:22:56Z</time>
      </trkpt>
      <trkpt lat="42.84909" lon="2.81092">
        <ele>275.7</ele>
        <time>2021-03-28T07:22:57Z</time>
      </trkpt>
      <trkpt lat="42.84909" lon="2.81092">
        <ele>275.7</ele>
        <time>2021-03-28T07:22:57Z</time>
      </trkpt>
      <trkpt lat="42.84906" lon="2.81085">
        <ele>275.6</ele>
        <time>2021-03-28T07:22:59Z</time>
      </trkpt>
      <trkpt lat="42.84906" lon="2.81085">
        <ele>275.6</ele>
        <time>2021-03-28T07:22:59Z</time>
      </trkpt>
      <trkpt lat="42.84904" lon="2.81079">
        <ele>275.5</ele>
        <time>2021-03-28T07:23:00Z</time>
      </trkpt>
      <trkpt lat="42.84904" lon="2.81079">
        <ele>275.5</ele>
        <time>2021-03-28T07:23:00Z</time>
      </trkpt>
      <trkpt lat="42.84901" lon="2.81074">
        <ele>275.4</ele>
        <time>2021-03-28T07:23:01Z</time>
      </trkpt>
      <trkpt lat="42.84901" lon="2.81074">
        <ele>275.4</ele>
        <time>2021-03-28T07:23:01Z</time>
      </trkpt>
      <trkpt lat="42.84898" lon="2.81066">
        <ele>275.3</ele>
        <time>2021-03-28T07:23:03Z</time>
      </trkpt>
      <trkpt lat="42.84898" lon="2.81066">
        <ele>275.3</ele>
        <time>2021-03-28T07:23:03Z</time>
      </trkpt>
      <trkpt lat="42.84895" lon="2.8106">
        <ele>275.2</ele>
        <time>2021-03-28T07:23:04Z</time>
      </trkpt>
      <trkpt lat="42.84895" lon="2.8106">
        <ele>275.2</ele>
        <time>2021-03-28T07:23:04Z</time>
      </trkpt>
      <trkpt lat="42.84893" lon="2.81052">
        <ele>275.3</ele>
        <time>2021-03-28T07:23:06Z</time>
      </trkpt>
      <trkpt lat="42.84893" lon="2.81052">
        <ele>275.3</ele>
        <time>2021-03-28T07:23:06Z</time>
      </trkpt>
      <trkpt lat="42.84891" lon="2.81043">
        <ele>275.5</ele>
        <time>2021-03-28T07:23:08Z</time>
      </trkpt>
      <trkpt lat="42.84891" lon="2.81043">
        <ele>275.5</ele>
        <time>2021-03-28T07:23:08Z</time>
      </trkpt>
      <trkpt lat="42.84891" lon="2.81033">
        <ele>275.9</ele>
        <time>2021-03-28T07:23:10Z</time>
      </trkpt>
      <trkpt lat="42.84891" lon="2.81033">
        <ele>275.9</ele>
        <time>2021-03-28T07:23:10Z</time>
      </trkpt>
      <trkpt lat="42.84892" lon="2.81024">
        <ele>276.2</ele>
        <time>2021-03-28T07:23:12Z</time>
      </trkpt>
      <trkpt lat="42.84892" lon="2.81024">
        <ele>276.2</ele>
        <time>2021-03-28T07:23:12Z</time>
      </trkpt>
      <trkpt lat="42.84893" lon="2.81015">
        <ele>276.6</ele>
        <time>2021-03-28T07:23:14Z</time>
      </trkpt>
      <trkpt lat="42.84893" lon="2.81015">
        <ele>276.6</ele>
        <time>2021-03-28T07:23:14Z</time>
      </trkpt>
      <trkpt lat="42.84893" lon="2.81007">
        <ele>276.9</ele>
        <time>2021-03-28T07:23:15Z</time>
      </trkpt>
      <trkpt lat="42.84893" lon="2.81007">
        <ele>276.9</ele>
        <time>2021-03-28T07:23:15Z</time>
      </trkpt>
      <trkpt lat="42.84894" lon="2.81001">
        <ele>277.2</ele>
        <time>2021-03-28T07:23:16Z</time>
      </trkpt>
      <trkpt lat="42.84894" lon="2.81001">
        <ele>277.2</ele>
        <time>2021-03-28T07:23:16Z</time>
      </trkpt>
      <trkpt lat="42.84895" lon="2.80994">
        <ele>277.5</ele>
        <time>2021-03-28T07:23:18Z</time>
      </trkpt>
      <trkpt lat="42.84895" lon="2.80994">
        <ele>277.5</ele>
        <time>2021-03-28T07:23:18Z</time>
      </trkpt>
      <trkpt lat="42.84895" lon="2.80987">
        <ele>277.8</ele>
        <time>2021-03-28T07:23:19Z</time>
      </trkpt>
      <trkpt lat="42.84895" lon="2.80987">
        <ele>277.8</ele>
        <time>2021-03-28T07:23:19Z</time>
      </trkpt>
      <trkpt lat="42.84895" lon="2.8098">
        <ele>278.1</ele>
        <time>2021-03-28T07:23:21Z</time>
      </trkpt>
      <trkpt lat="42.84895" lon="2.8098">
        <ele>278.1</ele>
        <time>2021-03-28T07:23:21Z</time>
      </trkpt>
      <trkpt lat="42.84896" lon="2.80971">
        <ele>278.6</ele>
        <time>2021-03-28T07:23:23Z</time>
      </trkpt>
      <trkpt lat="42.84896" lon="2.80971">
        <ele>278.6</ele>
        <time>2021-03-28T07:23:23Z</time>
      </trkpt>
      <trkpt lat="42.84897" lon="2.80964">
        <ele>278.9</ele>
        <time>2021-03-28T07:23:24Z</time>
      </trkpt>
      <trkpt lat="42.84897" lon="2.80964">
        <ele>278.9</ele>
        <time>2021-03-28T07:23:24Z</time>
      </trkpt>
      <trkpt lat="42.84898" lon="2.80954">
        <ele>279.3</ele>
        <time>2021-03-28T07:23:26Z</time>
      </trkpt>
      <trkpt lat="42.84898" lon="2.80954">
        <ele>279.3</ele>
        <time>2021-03-28T07:23:26Z</time>
      </trkpt>
      <trkpt lat="42.849" lon="2.80946">
        <ele>279.7</ele>
        <time>2021-03-28T07:23:27Z</time>
      </trkpt>
      <trkpt lat="42.849" lon="2.80946">
        <ele>279.7</ele>
        <time>2021-03-28T07:23:27Z</time>
      </trkpt>
      <trkpt lat="42.84901" lon="2.80935">
        <ele>279.8</ele>
        <time>2021-03-28T07:23:29Z</time>
      </trkpt>
      <trkpt lat="42.84901" lon="2.80935">
        <ele>279.8</ele>
        <time>2021-03-28T07:23:29Z</time>
      </trkpt>
      <trkpt lat="42.84902" lon="2.80923">
        <ele>280</ele>
        <time>2021-03-28T07:23:31Z</time>
      </trkpt>
      <trkpt lat="42.84902" lon="2.80923">
        <ele>280</ele>
        <time>2021-03-28T07:23:31Z</time>
      </trkpt>
      <trkpt lat="42.84904" lon="2.8091">
        <ele>280.2</ele>
        <time>2021-03-28T07:23:33Z</time>
      </trkpt>
      <trkpt lat="42.84904" lon="2.8091">
        <ele>280.2</ele>
        <time>2021-03-28T07:23:33Z</time>
      </trkpt>
      <trkpt lat="42.84907" lon="2.80897">
        <ele>280.7</ele>
        <time>2021-03-28T07:23:35Z</time>
      </trkpt>
      <trkpt lat="42.84907" lon="2.80897">
        <ele>280.7</ele>
        <time>2021-03-28T07:23:35Z</time>
      </trkpt>
      <trkpt lat="42.8491" lon="2.80884">
        <ele>281.3</ele>
        <time>2021-03-28T07:23:37Z</time>
      </trkpt>
      <trkpt lat="42.8491" lon="2.80884">
        <ele>281.3</ele>
        <time>2021-03-28T07:23:37Z</time>
      </trkpt>
      <trkpt lat="42.84912" lon="2.80873">
        <ele>281.6</ele>
        <time>2021-03-28T07:23:38Z</time>
      </trkpt>
      <trkpt lat="42.84912" lon="2.80873">
        <ele>281.6</ele>
        <time>2021-03-28T07:23:38Z</time>
      </trkpt>
      <trkpt lat="42.84915" lon="2.80862">
        <ele>281.9</ele>
        <time>2021-03-28T07:23:40Z</time>
      </trkpt>
      <trkpt lat="42.84915" lon="2.80862">
        <ele>281.9</ele>
        <time>2021-03-28T07:23:40Z</time>
      </trkpt>
      <trkpt lat="42.84918" lon="2.80853">
        <ele>282.1</ele>
        <time>2021-03-28T07:23:41Z</time>
      </trkpt>
      <trkpt lat="42.84918" lon="2.80853">
        <ele>282.1</ele>
        <time>2021-03-28T07:23:41Z</time>
      </trkpt>
      <trkpt lat="42.84921" lon="2.80843">
        <ele>282.2</ele>
        <time>2021-03-28T07:23:43Z</time>
      </trkpt>
      <trkpt lat="42.84921" lon="2.80843">
        <ele>282.2</ele>
        <time>2021-03-28T07:23:43Z</time>
      </trkpt>
      <trkpt lat="42.84924" lon="2.80834">
        <ele>282.5</ele>
        <time>2021-03-28T07:23:44Z</time>
      </trkpt>
      <trkpt lat="42.84924" lon="2.80834">
        <ele>282.5</ele>
        <time>2021-03-28T07:23:44Z</time>
      </trkpt>
      <trkpt lat="42.84926" lon="2.80826">
        <ele>282.7</ele>
        <time>2021-03-28T07:23:46Z</time>
      </trkpt>
      <trkpt lat="42.84926" lon="2.80826">
        <ele>282.7</ele>
        <time>2021-03-28T07:23:46Z</time>
      </trkpt>
      <trkpt lat="42.84928" lon="2.80818">
        <ele>282.8</ele>
        <time>2021-03-28T07:23:47Z</time>
      </trkpt>
      <trkpt lat="42.84928" lon="2.80818">
        <ele>282.8</ele>
        <time>2021-03-28T07:23:47Z</time>
      </trkpt>
      <trkpt lat="42.8493" lon="2.80811">
        <ele>282.9</ele>
        <time>2021-03-28T07:23:48Z</time>
      </trkpt>
      <trkpt lat="42.8493" lon="2.80811">
        <ele>282.9</ele>
        <time>2021-03-28T07:23:48Z</time>
      </trkpt>
      <trkpt lat="42.84931" lon="2.80804">
        <ele>283</ele>
        <time>2021-03-28T07:23:50Z</time>
      </trkpt>
      <trkpt lat="42.84931" lon="2.80804">
        <ele>283</ele>
        <time>2021-03-28T07:23:50Z</time>
      </trkpt>
      <trkpt lat="42.84932" lon="2.80797">
        <ele>283.1</ele>
        <time>2021-03-28T07:23:51Z</time>
      </trkpt>
      <trkpt lat="42.84932" lon="2.80797">
        <ele>283.1</ele>
        <time>2021-03-28T07:23:51Z</time>
      </trkpt>
      <trkpt lat="42.84933" lon="2.80789">
        <ele>283.2</ele>
        <time>2021-03-28T07:23:53Z</time>
      </trkpt>
      <trkpt lat="42.84933" lon="2.80789">
        <ele>283.2</ele>
        <time>2021-03-28T07:23:53Z</time>
      </trkpt>
      <trkpt lat="42.84935" lon="2.8078">
        <ele>283.3</ele>
        <time>2021-03-28T07:23:55Z</time>
      </trkpt>
      <trkpt lat="42.84935" lon="2.8078">
        <ele>283.3</ele>
        <time>2021-03-28T07:23:55Z</time>
      </trkpt>
      <trkpt lat="42.84937" lon="2.80771">
        <ele>283.6</ele>
        <time>2021-03-28T07:23:57Z</time>
      </trkpt>
      <trkpt lat="42.84937" lon="2.80771">
        <ele>283.6</ele>
        <time>2021-03-28T07:23:57Z</time>
      </trkpt>
      <trkpt lat="42.84938" lon="2.80763">
        <ele>284</ele>
        <time>2021-03-28T07:23:58Z</time>
      </trkpt>
      <trkpt lat="42.84938" lon="2.80763">
        <ele>284</ele>
        <time>2021-03-28T07:23:58Z</time>
      </trkpt>
      <trkpt lat="42.84939" lon="2.80755">
        <ele>284.3</ele>
        <time>2021-03-28T07:24:00Z</time>
      </trkpt>
      <trkpt lat="42.84939" lon="2.80755">
        <ele>284.3</ele>
        <time>2021-03-28T07:24:00Z</time>
      </trkpt>
      <trkpt lat="42.8494" lon="2.80748">
        <ele>284.5</ele>
        <time>2021-03-28T07:24:01Z</time>
      </trkpt>
      <trkpt lat="42.8494" lon="2.80748">
        <ele>284.5</ele>
        <time>2021-03-28T07:24:01Z</time>
      </trkpt>
      <trkpt lat="42.84941" lon="2.80742">
        <ele>284.5</ele>
        <time>2021-03-28T07:24:02Z</time>
      </trkpt>
      <trkpt lat="42.84941" lon="2.80742">
        <ele>284.5</ele>
        <time>2021-03-28T07:24:02Z</time>
      </trkpt>
      <trkpt lat="42.84943" lon="2.80734">
        <ele>284.7</ele>
        <time>2021-03-28T07:24:04Z</time>
      </trkpt>
      <trkpt lat="42.84943" lon="2.80734">
        <ele>284.7</ele>
        <time>2021-03-28T07:24:04Z</time>
      </trkpt>
      <trkpt lat="42.84944" lon="2.80725">
        <ele>284.9</ele>
        <time>2021-03-28T07:24:06Z</time>
      </trkpt>
      <trkpt lat="42.84944" lon="2.80725">
        <ele>284.9</ele>
        <time>2021-03-28T07:24:06Z</time>
      </trkpt>
      <trkpt lat="42.84945" lon="2.80718">
        <ele>284.9</ele>
        <time>2021-03-28T07:24:07Z</time>
      </trkpt>
      <trkpt lat="42.84945" lon="2.80718">
        <ele>284.9</ele>
        <time>2021-03-28T07:24:07Z</time>
      </trkpt>
      <trkpt lat="42.84945" lon="2.80711">
        <ele>284.7</ele>
        <time>2021-03-28T07:24:08Z</time>
      </trkpt>
      <trkpt lat="42.84945" lon="2.80711">
        <ele>284.7</ele>
        <time>2021-03-28T07:24:08Z</time>
      </trkpt>
      <trkpt lat="42.84945" lon="2.80705">
        <ele>284.5</ele>
        <time>2021-03-28T07:24:09Z</time>
      </trkpt>
      <trkpt lat="42.84945" lon="2.80705">
        <ele>284.5</ele>
        <time>2021-03-28T07:24:09Z</time>
      </trkpt>
      <trkpt lat="42.84944" lon="2.80699">
        <ele>284.1</ele>
        <time>2021-03-28T07:24:10Z</time>
      </trkpt>
      <trkpt lat="42.84944" lon="2.80699">
        <ele>284.1</ele>
        <time>2021-03-28T07:24:10Z</time>
      </trkpt>
      <trkpt lat="42.84942" lon="2.80691">
        <ele>283.8</ele>
        <time>2021-03-28T07:24:12Z</time>
      </trkpt>
      <trkpt lat="42.84942" lon="2.80691">
        <ele>283.8</ele>
        <time>2021-03-28T07:24:12Z</time>
      </trkpt>
      <trkpt lat="42.84938" lon="2.80684">
        <ele>283.7</ele>
        <time>2021-03-28T07:24:14Z</time>
      </trkpt>
      <trkpt lat="42.84938" lon="2.80684">
        <ele>283.7</ele>
        <time>2021-03-28T07:24:14Z</time>
      </trkpt>
      <trkpt lat="42.84933" lon="2.80677">
        <ele>283.8</ele>
        <time>2021-03-28T07:24:16Z</time>
      </trkpt>
      <trkpt lat="42.84933" lon="2.80677">
        <ele>283.8</ele>
        <time>2021-03-28T07:24:16Z</time>
      </trkpt>
      <trkpt lat="42.84929" lon="2.80671">
        <ele>284.2</ele>
        <time>2021-03-28T07:24:17Z</time>
      </trkpt>
      <trkpt lat="42.84929" lon="2.80671">
        <ele>284.2</ele>
        <time>2021-03-28T07:24:17Z</time>
      </trkpt>
      <trkpt lat="42.84923" lon="2.80665">
        <ele>284.9</ele>
        <time>2021-03-28T07:24:19Z</time>
      </trkpt>
      <trkpt lat="42.84923" lon="2.80665">
        <ele>284.9</ele>
        <time>2021-03-28T07:24:19Z</time>
      </trkpt>
      <trkpt lat="42.84916" lon="2.80657">
        <ele>285.3</ele>
        <time>2021-03-28T07:24:21Z</time>
      </trkpt>
      <trkpt lat="42.84916" lon="2.80657">
        <ele>285.3</ele>
        <time>2021-03-28T07:24:21Z</time>
      </trkpt>
      <trkpt lat="42.8491" lon="2.8065">
        <ele>285.1</ele>
        <time>2021-03-28T07:24:22Z</time>
      </trkpt>
      <trkpt lat="42.8491" lon="2.8065">
        <ele>285.1</ele>
        <time>2021-03-28T07:24:22Z</time>
      </trkpt>
      <trkpt lat="42.84906" lon="2.80643">
        <ele>285.1</ele>
        <time>2021-03-28T07:24:23Z</time>
      </trkpt>
      <trkpt lat="42.84906" lon="2.80643">
        <ele>285.1</ele>
        <time>2021-03-28T07:24:23Z</time>
      </trkpt>
      <trkpt lat="42.84902" lon="2.80636">
        <ele>285.1</ele>
        <time>2021-03-28T07:24:24Z</time>
      </trkpt>
      <trkpt lat="42.84902" lon="2.80636">
        <ele>285.1</ele>
        <time>2021-03-28T07:24:24Z</time>
      </trkpt>
      <trkpt lat="42.84899" lon="2.80626">
        <ele>285.2</ele>
        <time>2021-03-28T07:24:26Z</time>
      </trkpt>
      <trkpt lat="42.84899" lon="2.80626">
        <ele>285.2</ele>
        <time>2021-03-28T07:24:26Z</time>
      </trkpt>
      <trkpt lat="42.84897" lon="2.80616">
        <ele>285.4</ele>
        <time>2021-03-28T07:24:28Z</time>
      </trkpt>
      <trkpt lat="42.84897" lon="2.80616">
        <ele>285.4</ele>
        <time>2021-03-28T07:24:28Z</time>
      </trkpt>
      <trkpt lat="42.84895" lon="2.80607">
        <ele>285.4</ele>
        <time>2021-03-28T07:24:29Z</time>
      </trkpt>
      <trkpt lat="42.84895" lon="2.80607">
        <ele>285.4</ele>
        <time>2021-03-28T07:24:29Z</time>
      </trkpt>
      <trkpt lat="42.84893" lon="2.80599">
        <ele>285.4</ele>
        <time>2021-03-28T07:24:30Z</time>
      </trkpt>
      <trkpt lat="42.84893" lon="2.80599">
        <ele>285.4</ele>
        <time>2021-03-28T07:24:30Z</time>
      </trkpt>
      <trkpt lat="42.84892" lon="2.80591">
        <ele>285.3</ele>
        <time>2021-03-28T07:24:31Z</time>
      </trkpt>
      <trkpt lat="42.84892" lon="2.80591">
        <ele>285.3</ele>
        <time>2021-03-28T07:24:31Z</time>
      </trkpt>
      <trkpt lat="42.84892" lon="2.80582">
        <ele>285.3</ele>
        <time>2021-03-28T07:24:33Z</time>
      </trkpt>
      <trkpt lat="42.84892" lon="2.80582">
        <ele>285.3</ele>
        <time>2021-03-28T07:24:33Z</time>
      </trkpt>
      <trkpt lat="42.84891" lon="2.80572">
        <ele>285.3</ele>
        <time>2021-03-28T07:24:35Z</time>
      </trkpt>
      <trkpt lat="42.84891" lon="2.80572">
        <ele>285.3</ele>
        <time>2021-03-28T07:24:35Z</time>
      </trkpt>
      <trkpt lat="42.84891" lon="2.80561">
        <ele>285.3</ele>
        <time>2021-03-28T07:24:37Z</time>
      </trkpt>
      <trkpt lat="42.84891" lon="2.80561">
        <ele>285.3</ele>
        <time>2021-03-28T07:24:37Z</time>
      </trkpt>
      <trkpt lat="42.84892" lon="2.80551">
        <ele>285.2</ele>
        <time>2021-03-28T07:24:38Z</time>
      </trkpt>
      <trkpt lat="42.84892" lon="2.80551">
        <ele>285.2</ele>
        <time>2021-03-28T07:24:38Z</time>
      </trkpt>
      <trkpt lat="42.84892" lon="2.80542">
        <ele>285</ele>
        <time>2021-03-28T07:24:39Z</time>
      </trkpt>
      <trkpt lat="42.84892" lon="2.80542">
        <ele>285</ele>
        <time>2021-03-28T07:24:39Z</time>
      </trkpt>
      <trkpt lat="42.84893" lon="2.80535">
        <ele>284.8</ele>
        <time>2021-03-28T07:24:40Z</time>
      </trkpt>
      <trkpt lat="42.84893" lon="2.80535">
        <ele>284.8</ele>
        <time>2021-03-28T07:24:40Z</time>
      </trkpt>
      <trkpt lat="42.84893" lon="2.80525">
        <ele>284.5</ele>
        <time>2021-03-28T07:24:42Z</time>
      </trkpt>
      <trkpt lat="42.84893" lon="2.80525">
        <ele>284.5</ele>
        <time>2021-03-28T07:24:42Z</time>
      </trkpt>
      <trkpt lat="42.84894" lon="2.80516">
        <ele>284.3</ele>
        <time>2021-03-28T07:24:43Z</time>
      </trkpt>
      <trkpt lat="42.84894" lon="2.80516">
        <ele>284.3</ele>
        <time>2021-03-28T07:24:43Z</time>
      </trkpt>
      <trkpt lat="42.84895" lon="2.80505">
        <ele>284</ele>
        <time>2021-03-28T07:24:45Z</time>
      </trkpt>
      <trkpt lat="42.84895" lon="2.80505">
        <ele>284</ele>
        <time>2021-03-28T07:24:45Z</time>
      </trkpt>
      <trkpt lat="42.84896" lon="2.80495">
        <ele>283.8</ele>
        <time>2021-03-28T07:24:46Z</time>
      </trkpt>
      <trkpt lat="42.84896" lon="2.80495">
        <ele>283.8</ele>
        <time>2021-03-28T07:24:46Z</time>
      </trkpt>
      <trkpt lat="42.84897" lon="2.80483">
        <ele>283.5</ele>
        <time>2021-03-28T07:24:48Z</time>
      </trkpt>
      <trkpt lat="42.84897" lon="2.80483">
        <ele>283.5</ele>
        <time>2021-03-28T07:24:48Z</time>
      </trkpt>
      <trkpt lat="42.84898" lon="2.80472">
        <ele>283.3</ele>
        <time>2021-03-28T07:24:49Z</time>
      </trkpt>
      <trkpt lat="42.84898" lon="2.80472">
        <ele>283.3</ele>
        <time>2021-03-28T07:24:49Z</time>
      </trkpt>
      <trkpt lat="42.84899" lon="2.8046">
        <ele>283</ele>
        <time>2021-03-28T07:24:51Z</time>
      </trkpt>
      <trkpt lat="42.84899" lon="2.8046">
        <ele>283</ele>
        <time>2021-03-28T07:24:51Z</time>
      </trkpt>
      <trkpt lat="42.849" lon="2.80449">
        <ele>282.7</ele>
        <time>2021-03-28T07:24:52Z</time>
      </trkpt>
      <trkpt lat="42.849" lon="2.80449">
        <ele>282.7</ele>
        <time>2021-03-28T07:24:52Z</time>
      </trkpt>
      <trkpt lat="42.84901" lon="2.80439">
        <ele>282.5</ele>
        <time>2021-03-28T07:24:53Z</time>
      </trkpt>
      <trkpt lat="42.84901" lon="2.80439">
        <ele>282.5</ele>
        <time>2021-03-28T07:24:53Z</time>
      </trkpt>
      <trkpt lat="42.84902" lon="2.80427">
        <ele>282.3</ele>
        <time>2021-03-28T07:24:55Z</time>
      </trkpt>
      <trkpt lat="42.84902" lon="2.80427">
        <ele>282.3</ele>
        <time>2021-03-28T07:24:55Z</time>
      </trkpt>
      <trkpt lat="42.84903" lon="2.80413">
        <ele>281.9</ele>
        <time>2021-03-28T07:24:57Z</time>
      </trkpt>
      <trkpt lat="42.84903" lon="2.80413">
        <ele>281.9</ele>
        <time>2021-03-28T07:24:57Z</time>
      </trkpt>
      <trkpt lat="42.84904" lon="2.804">
        <ele>281.3</ele>
        <time>2021-03-28T07:24:58Z</time>
      </trkpt>
      <trkpt lat="42.84904" lon="2.804">
        <ele>281.3</ele>
        <time>2021-03-28T07:24:58Z</time>
      </trkpt>
      <trkpt lat="42.84906" lon="2.80386">
        <ele>280.7</ele>
        <time>2021-03-28T07:25:00Z</time>
      </trkpt>
      <trkpt lat="42.84906" lon="2.80386">
        <ele>280.7</ele>
        <time>2021-03-28T07:25:00Z</time>
      </trkpt>
      <trkpt lat="42.84907" lon="2.80373">
        <ele>280.4</ele>
        <time>2021-03-28T07:25:01Z</time>
      </trkpt>
      <trkpt lat="42.84907" lon="2.80373">
        <ele>280.4</ele>
        <time>2021-03-28T07:25:01Z</time>
      </trkpt>
      <trkpt lat="42.84908" lon="2.80362">
        <ele>280.1</ele>
        <time>2021-03-28T07:25:02Z</time>
      </trkpt>
      <trkpt lat="42.84908" lon="2.80362">
        <ele>280.1</ele>
        <time>2021-03-28T07:25:02Z</time>
      </trkpt>
      <trkpt lat="42.8491" lon="2.80349">
        <ele>280</ele>
        <time>2021-03-28T07:25:04Z</time>
      </trkpt>
      <trkpt lat="42.8491" lon="2.80349">
        <ele>280</ele>
        <time>2021-03-28T07:25:04Z</time>
      </trkpt>
      <trkpt lat="42.84912" lon="2.80338">
        <ele>279.8</ele>
        <time>2021-03-28T07:25:05Z</time>
      </trkpt>
      <trkpt lat="42.84912" lon="2.80338">
        <ele>279.8</ele>
        <time>2021-03-28T07:25:05Z</time>
      </trkpt>
      <trkpt lat="42.84915" lon="2.80326">
        <ele>279.6</ele>
        <time>2021-03-28T07:25:07Z</time>
      </trkpt>
      <trkpt lat="42.84915" lon="2.80326">
        <ele>279.6</ele>
        <time>2021-03-28T07:25:07Z</time>
      </trkpt>
      <trkpt lat="42.84919" lon="2.80312">
        <ele>279.3</ele>
        <time>2021-03-28T07:25:09Z</time>
      </trkpt>
      <trkpt lat="42.84919" lon="2.80312">
        <ele>279.3</ele>
        <time>2021-03-28T07:25:09Z</time>
      </trkpt>
      <trkpt lat="42.84922" lon="2.803">
        <ele>278.9</ele>
        <time>2021-03-28T07:25:10Z</time>
      </trkpt>
      <trkpt lat="42.84922" lon="2.803">
        <ele>278.9</ele>
        <time>2021-03-28T07:25:10Z</time>
      </trkpt>
      <trkpt lat="42.84926" lon="2.80287">
        <ele>278.3</ele>
        <time>2021-03-28T07:25:12Z</time>
      </trkpt>
      <trkpt lat="42.84926" lon="2.80287">
        <ele>278.3</ele>
        <time>2021-03-28T07:25:12Z</time>
      </trkpt>
      <trkpt lat="42.84931" lon="2.80273">
        <ele>277.8</ele>
        <time>2021-03-28T07:25:14Z</time>
      </trkpt>
      <trkpt lat="42.84931" lon="2.80273">
        <ele>277.8</ele>
        <time>2021-03-28T07:25:14Z</time>
      </trkpt>
      <trkpt lat="42.84934" lon="2.8026">
        <ele>277.6</ele>
        <time>2021-03-28T07:25:15Z</time>
      </trkpt>
      <trkpt lat="42.84934" lon="2.8026">
        <ele>277.6</ele>
        <time>2021-03-28T07:25:15Z</time>
      </trkpt>
      <trkpt lat="42.84937" lon="2.80246">
        <ele>277.3</ele>
        <time>2021-03-28T07:25:17Z</time>
      </trkpt>
      <trkpt lat="42.84937" lon="2.80246">
        <ele>277.3</ele>
        <time>2021-03-28T07:25:17Z</time>
      </trkpt>
      <trkpt lat="42.8494" lon="2.80233">
        <ele>277</ele>
        <time>2021-03-28T07:25:18Z</time>
      </trkpt>
      <trkpt lat="42.8494" lon="2.80233">
        <ele>277</ele>
        <time>2021-03-28T07:25:18Z</time>
      </trkpt>
      <trkpt lat="42.84942" lon="2.80219">
        <ele>276.7</ele>
        <time>2021-03-28T07:25:20Z</time>
      </trkpt>
      <trkpt lat="42.84942" lon="2.80219">
        <ele>276.7</ele>
        <time>2021-03-28T07:25:20Z</time>
      </trkpt>
      <trkpt lat="42.84943" lon="2.80203">
        <ele>276.2</ele>
        <time>2021-03-28T07:25:22Z</time>
      </trkpt>
      <trkpt lat="42.84943" lon="2.80203">
        <ele>276.2</ele>
        <time>2021-03-28T07:25:22Z</time>
      </trkpt>
      <trkpt lat="42.84944" lon="2.80189">
        <ele>275.8</ele>
        <time>2021-03-28T07:25:23Z</time>
      </trkpt>
      <trkpt lat="42.84944" lon="2.80189">
        <ele>275.8</ele>
        <time>2021-03-28T07:25:23Z</time>
      </trkpt>
      <trkpt lat="42.84945" lon="2.80173">
        <ele>275.2</ele>
        <time>2021-03-28T07:25:25Z</time>
      </trkpt>
      <trkpt lat="42.84945" lon="2.80173">
        <ele>275.2</ele>
        <time>2021-03-28T07:25:25Z</time>
      </trkpt>
      <trkpt lat="42.84945" lon="2.80155">
        <ele>274.6</ele>
        <time>2021-03-28T07:25:27Z</time>
      </trkpt>
      <trkpt lat="42.84945" lon="2.80155">
        <ele>274.6</ele>
        <time>2021-03-28T07:25:27Z</time>
      </trkpt>
      <trkpt lat="42.84945" lon="2.80141">
        <ele>274.1</ele>
        <time>2021-03-28T07:25:28Z</time>
      </trkpt>
      <trkpt lat="42.84945" lon="2.80141">
        <ele>274.1</ele>
        <time>2021-03-28T07:25:28Z</time>
      </trkpt>
      <trkpt lat="42.84944" lon="2.80128">
        <ele>273.6</ele>
        <time>2021-03-28T07:25:29Z</time>
      </trkpt>
      <trkpt lat="42.84944" lon="2.80128">
        <ele>273.6</ele>
        <time>2021-03-28T07:25:29Z</time>
      </trkpt>
      <trkpt lat="42.84944" lon="2.80113">
        <ele>273</ele>
        <time>2021-03-28T07:25:31Z</time>
      </trkpt>
      <trkpt lat="42.84944" lon="2.80113">
        <ele>273</ele>
        <time>2021-03-28T07:25:31Z</time>
      </trkpt>
      <trkpt lat="42.84943" lon="2.80096">
        <ele>272.9</ele>
        <time>2021-03-28T07:25:33Z</time>
      </trkpt>
      <trkpt lat="42.84943" lon="2.80096">
        <ele>272.9</ele>
        <time>2021-03-28T07:25:33Z</time>
      </trkpt>
      <trkpt lat="42.84942" lon="2.80079">
        <ele>272.7</ele>
        <time>2021-03-28T07:25:35Z</time>
      </trkpt>
      <trkpt lat="42.84942" lon="2.80079">
        <ele>272.7</ele>
        <time>2021-03-28T07:25:35Z</time>
      </trkpt>
      <trkpt lat="42.84942" lon="2.80064">
        <ele>272.1</ele>
        <time>2021-03-28T07:25:36Z</time>
      </trkpt>
      <trkpt lat="42.84942" lon="2.80064">
        <ele>272.1</ele>
        <time>2021-03-28T07:25:36Z</time>
      </trkpt>
      <trkpt lat="42.84942" lon="2.80047">
        <ele>271.5</ele>
        <time>2021-03-28T07:25:38Z</time>
      </trkpt>
      <trkpt lat="42.84942" lon="2.80047">
        <ele>271.5</ele>
        <time>2021-03-28T07:25:38Z</time>
      </trkpt>
      <trkpt lat="42.8494" lon="2.8003">
        <ele>270.9</ele>
        <time>2021-03-28T07:25:40Z</time>
      </trkpt>
      <trkpt lat="42.8494" lon="2.8003">
        <ele>270.9</ele>
        <time>2021-03-28T07:25:40Z</time>
      </trkpt>
      <trkpt lat="42.84937" lon="2.80013">
        <ele>270.7</ele>
        <time>2021-03-28T07:25:42Z</time>
      </trkpt>
      <trkpt lat="42.84937" lon="2.80013">
        <ele>270.7</ele>
        <time>2021-03-28T07:25:42Z</time>
      </trkpt>
      <trkpt lat="42.84934" lon="2.79996">
        <ele>270.6</ele>
        <time>2021-03-28T07:25:44Z</time>
      </trkpt>
      <trkpt lat="42.84934" lon="2.79996">
        <ele>270.6</ele>
        <time>2021-03-28T07:25:44Z</time>
      </trkpt>
      <trkpt lat="42.8493" lon="2.79978">
        <ele>270.5</ele>
        <time>2021-03-28T07:25:46Z</time>
      </trkpt>
      <trkpt lat="42.8493" lon="2.79978">
        <ele>270.5</ele>
        <time>2021-03-28T07:25:46Z</time>
      </trkpt>
      <trkpt lat="42.84926" lon="2.79961">
        <ele>270.2</ele>
        <time>2021-03-28T07:25:48Z</time>
      </trkpt>
      <trkpt lat="42.84926" lon="2.79961">
        <ele>270.2</ele>
        <time>2021-03-28T07:25:48Z</time>
      </trkpt>
      <trkpt lat="42.84922" lon="2.79946">
        <ele>270</ele>
        <time>2021-03-28T07:25:49Z</time>
      </trkpt>
      <trkpt lat="42.84922" lon="2.79946">
        <ele>270</ele>
        <time>2021-03-28T07:25:49Z</time>
      </trkpt>
      <trkpt lat="42.84918" lon="2.79934">
        <ele>269.6</ele>
        <time>2021-03-28T07:25:50Z</time>
      </trkpt>
      <trkpt lat="42.84918" lon="2.79934">
        <ele>269.6</ele>
        <time>2021-03-28T07:25:50Z</time>
      </trkpt>
      <trkpt lat="42.84913" lon="2.79921">
        <ele>269</ele>
        <time>2021-03-28T07:25:52Z</time>
      </trkpt>
      <trkpt lat="42.84913" lon="2.79921">
        <ele>269</ele>
        <time>2021-03-28T07:25:52Z</time>
      </trkpt>
      <trkpt lat="42.84907" lon="2.79907">
        <ele>268.6</ele>
        <time>2021-03-28T07:25:54Z</time>
      </trkpt>
      <trkpt lat="42.84907" lon="2.79907">
        <ele>268.6</ele>
        <time>2021-03-28T07:25:54Z</time>
      </trkpt>
      <trkpt lat="42.84902" lon="2.79895">
        <ele>268.5</ele>
        <time>2021-03-28T07:25:55Z</time>
      </trkpt>
      <trkpt lat="42.84902" lon="2.79895">
        <ele>268.5</ele>
        <time>2021-03-28T07:25:55Z</time>
      </trkpt>
      <trkpt lat="42.84896" lon="2.79881">
        <ele>268.2</ele>
        <time>2021-03-28T07:25:57Z</time>
      </trkpt>
      <trkpt lat="42.84896" lon="2.79881">
        <ele>268.2</ele>
        <time>2021-03-28T07:25:57Z</time>
      </trkpt>
      <trkpt lat="42.84891" lon="2.7987">
        <ele>268</ele>
        <time>2021-03-28T07:25:58Z</time>
      </trkpt>
      <trkpt lat="42.84891" lon="2.7987">
        <ele>268</ele>
        <time>2021-03-28T07:25:58Z</time>
      </trkpt>
      <trkpt lat="42.84885" lon="2.79858">
        <ele>267.8</ele>
        <time>2021-03-28T07:26:00Z</time>
      </trkpt>
      <trkpt lat="42.84885" lon="2.79858">
        <ele>267.8</ele>
        <time>2021-03-28T07:26:00Z</time>
      </trkpt>
      <trkpt lat="42.84879" lon="2.79845">
        <ele>267.3</ele>
        <time>2021-03-28T07:26:02Z</time>
      </trkpt>
      <trkpt lat="42.84879" lon="2.79845">
        <ele>267.3</ele>
        <time>2021-03-28T07:26:02Z</time>
      </trkpt>
      <trkpt lat="42.84873" lon="2.79833">
        <ele>267</ele>
        <time>2021-03-28T07:26:03Z</time>
      </trkpt>
      <trkpt lat="42.84873" lon="2.79833">
        <ele>267</ele>
        <time>2021-03-28T07:26:03Z</time>
      </trkpt>
      <trkpt lat="42.84868" lon="2.79823">
        <ele>266.6</ele>
        <time>2021-03-28T07:26:04Z</time>
      </trkpt>
      <trkpt lat="42.84868" lon="2.79823">
        <ele>266.6</ele>
        <time>2021-03-28T07:26:04Z</time>
      </trkpt>
      <trkpt lat="42.84862" lon="2.79812">
        <ele>266.2</ele>
        <time>2021-03-28T07:26:06Z</time>
      </trkpt>
      <trkpt lat="42.84862" lon="2.79812">
        <ele>266.2</ele>
        <time>2021-03-28T07:26:06Z</time>
      </trkpt>
      <trkpt lat="42.84857" lon="2.79802">
        <ele>265.9</ele>
        <time>2021-03-28T07:26:07Z</time>
      </trkpt>
      <trkpt lat="42.84857" lon="2.79802">
        <ele>265.9</ele>
        <time>2021-03-28T07:26:07Z</time>
      </trkpt>
      <trkpt lat="42.84851" lon="2.79791">
        <ele>265.5</ele>
        <time>2021-03-28T07:26:09Z</time>
      </trkpt>
      <trkpt lat="42.84851" lon="2.79791">
        <ele>265.5</ele>
        <time>2021-03-28T07:26:09Z</time>
      </trkpt>
      <trkpt lat="42.84847" lon="2.79781">
        <ele>265.1</ele>
        <time>2021-03-28T07:26:10Z</time>
      </trkpt>
      <trkpt lat="42.84847" lon="2.79781">
        <ele>265.1</ele>
        <time>2021-03-28T07:26:10Z</time>
      </trkpt>
      <trkpt lat="42.84842" lon="2.7977">
        <ele>264.7</ele>
        <time>2021-03-28T07:26:12Z</time>
      </trkpt>
      <trkpt lat="42.84842" lon="2.7977">
        <ele>264.7</ele>
        <time>2021-03-28T07:26:12Z</time>
      </trkpt>
      <trkpt lat="42.84837" lon="2.79759">
        <ele>264.3</ele>
        <time>2021-03-28T07:26:14Z</time>
      </trkpt>
      <trkpt lat="42.84837" lon="2.79759">
        <ele>264.3</ele>
        <time>2021-03-28T07:26:14Z</time>
      </trkpt>
      <trkpt lat="42.84832" lon="2.7975">
        <ele>264</ele>
        <time>2021-03-28T07:26:15Z</time>
      </trkpt>
      <trkpt lat="42.84832" lon="2.7975">
        <ele>264</ele>
        <time>2021-03-28T07:26:15Z</time>
      </trkpt>
      <trkpt lat="42.84828" lon="2.79743">
        <ele>264</ele>
        <time>2021-03-28T07:26:16Z</time>
      </trkpt>
      <trkpt lat="42.84828" lon="2.79743">
        <ele>264</ele>
        <time>2021-03-28T07:26:16Z</time>
      </trkpt>
      <trkpt lat="42.84825" lon="2.79737">
        <ele>263.9</ele>
        <time>2021-03-28T07:26:17Z</time>
      </trkpt>
      <trkpt lat="42.84825" lon="2.79737">
        <ele>263.9</ele>
        <time>2021-03-28T07:26:17Z</time>
      </trkpt>
      <trkpt lat="42.84822" lon="2.79731">
        <ele>263.7</ele>
        <time>2021-03-28T07:26:18Z</time>
      </trkpt>
      <trkpt lat="42.84822" lon="2.79731">
        <ele>263.7</ele>
        <time>2021-03-28T07:26:18Z</time>
      </trkpt>
      <trkpt lat="42.84819" lon="2.79726">
        <ele>263.6</ele>
        <time>2021-03-28T07:26:20Z</time>
      </trkpt>
      <trkpt lat="42.84819" lon="2.79726">
        <ele>263.6</ele>
        <time>2021-03-28T07:26:20Z</time>
      </trkpt>
      <trkpt lat="42.84817" lon="2.79722">
        <ele>263.4</ele>
        <time>2021-03-28T07:26:22Z</time>
      </trkpt>
      <trkpt lat="42.84817" lon="2.79722">
        <ele>263.4</ele>
        <time>2021-03-28T07:26:22Z</time>
      </trkpt>
      <trkpt lat="42.84815" lon="2.7972">
        <ele>263.3</ele>
        <time>2021-03-28T07:26:23Z</time>
      </trkpt>
      <trkpt lat="42.84815" lon="2.7972">
        <ele>263.3</ele>
        <time>2021-03-28T07:26:23Z</time>
      </trkpt>
      <trkpt lat="42.84814" lon="2.79719">
        <ele>263.3</ele>
        <time>2021-03-28T07:26:25Z</time>
      </trkpt>
      <trkpt lat="42.84814" lon="2.79719">
        <ele>263.3</ele>
        <time>2021-03-28T07:26:25Z</time>
      </trkpt>
      <trkpt lat="42.84802" lon="2.79706">
        <ele>262.9</ele>
        <time>2021-03-28T07:29:38Z</time>
      </trkpt>
      <trkpt lat="42.84802" lon="2.79706">
        <ele>262.9</ele>
        <time>2021-03-28T07:29:38Z</time>
      </trkpt>
      <trkpt lat="42.84798" lon="2.79707">
        <ele>262.7</ele>
        <time>2021-03-28T07:29:40Z</time>
      </trkpt>
      <trkpt lat="42.84798" lon="2.79707">
        <ele>262.7</ele>
        <time>2021-03-28T07:29:40Z</time>
      </trkpt>
      <trkpt lat="42.84791" lon="2.7971">
        <ele>262.5</ele>
        <time>2021-03-28T07:29:42Z</time>
      </trkpt>
      <trkpt lat="42.84791" lon="2.7971">
        <ele>262.5</ele>
        <time>2021-03-28T07:29:42Z</time>
      </trkpt>
      <trkpt lat="42.84782" lon="2.79713">
        <ele>262.2</ele>
        <time>2021-03-28T07:29:44Z</time>
      </trkpt>
      <trkpt lat="42.84782" lon="2.79713">
        <ele>262.2</ele>
        <time>2021-03-28T07:29:44Z</time>
      </trkpt>
      <trkpt lat="42.84775" lon="2.79715">
        <ele>261.8</ele>
        <time>2021-03-28T07:29:45Z</time>
      </trkpt>
      <trkpt lat="42.84775" lon="2.79715">
        <ele>261.8</ele>
        <time>2021-03-28T07:29:45Z</time>
      </trkpt>
      <trkpt lat="42.84768" lon="2.79714">
        <ele>261.4</ele>
        <time>2021-03-28T07:29:46Z</time>
      </trkpt>
      <trkpt lat="42.84768" lon="2.79714">
        <ele>261.4</ele>
        <time>2021-03-28T07:29:46Z</time>
      </trkpt>
      <trkpt lat="42.84763" lon="2.79711">
        <ele>261</ele>
        <time>2021-03-28T07:29:48Z</time>
      </trkpt>
      <trkpt lat="42.84763" lon="2.79711">
        <ele>261</ele>
        <time>2021-03-28T07:29:48Z</time>
      </trkpt>
      <trkpt lat="42.84761" lon="2.79707">
        <ele>260.7</ele>
        <time>2021-03-28T07:29:49Z</time>
      </trkpt>
      <trkpt lat="42.84761" lon="2.79707">
        <ele>260.7</ele>
        <time>2021-03-28T07:29:49Z</time>
      </trkpt>
      <trkpt lat="42.8476" lon="2.79703">
        <ele>260.5</ele>
        <time>2021-03-28T07:29:50Z</time>
      </trkpt>
      <trkpt lat="42.8476" lon="2.79703">
        <ele>260.5</ele>
        <time>2021-03-28T07:29:50Z</time>
      </trkpt>
      <trkpt lat="42.84762" lon="2.79697">
        <ele>260.4</ele>
        <time>2021-03-28T07:29:52Z</time>
      </trkpt>
      <trkpt lat="42.84762" lon="2.79697">
        <ele>260.4</ele>
        <time>2021-03-28T07:29:52Z</time>
      </trkpt>
      <trkpt lat="42.84764" lon="2.79691">
        <ele>260.3</ele>
        <time>2021-03-28T07:29:53Z</time>
      </trkpt>
      <trkpt lat="42.84764" lon="2.79691">
        <ele>260.3</ele>
        <time>2021-03-28T07:29:53Z</time>
      </trkpt>
      <trkpt lat="42.84767" lon="2.79686">
        <ele>260.4</ele>
        <time>2021-03-28T07:29:54Z</time>
      </trkpt>
      <trkpt lat="42.84767" lon="2.79686">
        <ele>260.4</ele>
        <time>2021-03-28T07:29:54Z</time>
      </trkpt>
      <trkpt lat="42.84771" lon="2.79679">
        <ele>260.3</ele>
        <time>2021-03-28T07:29:56Z</time>
      </trkpt>
      <trkpt lat="42.84771" lon="2.79679">
        <ele>260.3</ele>
        <time>2021-03-28T07:29:56Z</time>
      </trkpt>
      <trkpt lat="42.84777" lon="2.7967">
        <ele>260.2</ele>
        <time>2021-03-28T07:29:58Z</time>
      </trkpt>
      <trkpt lat="42.84777" lon="2.7967">
        <ele>260.2</ele>
        <time>2021-03-28T07:29:58Z</time>
      </trkpt>
      <trkpt lat="42.84783" lon="2.79662">
        <ele>260.2</ele>
        <time>2021-03-28T07:29:59Z</time>
      </trkpt>
      <trkpt lat="42.84783" lon="2.79662">
        <ele>260.2</ele>
        <time>2021-03-28T07:29:59Z</time>
      </trkpt>
      <trkpt lat="42.8479" lon="2.79653">
        <ele>260.2</ele>
        <time>2021-03-28T07:30:01Z</time>
      </trkpt>
      <trkpt lat="42.8479" lon="2.79653">
        <ele>260.2</ele>
        <time>2021-03-28T07:30:01Z</time>
      </trkpt>
      <trkpt lat="42.84797" lon="2.79646">
        <ele>260.1</ele>
        <time>2021-03-28T07:30:02Z</time>
      </trkpt>
      <trkpt lat="42.84797" lon="2.79646">
        <ele>260.1</ele>
        <time>2021-03-28T07:30:02Z</time>
      </trkpt>
      <trkpt lat="42.84805" lon="2.79639">
        <ele>260</ele>
        <time>2021-03-28T07:30:04Z</time>
      </trkpt>
      <trkpt lat="42.84805" lon="2.79639">
        <ele>260</ele>
        <time>2021-03-28T07:30:04Z</time>
      </trkpt>
      <trkpt lat="42.84812" lon="2.79635">
        <ele>259.8</ele>
        <time>2021-03-28T07:30:05Z</time>
      </trkpt>
      <trkpt lat="42.84812" lon="2.79635">
        <ele>259.8</ele>
        <time>2021-03-28T07:30:05Z</time>
      </trkpt>
      <trkpt lat="42.84819" lon="2.79632">
        <ele>259.8</ele>
        <time>2021-03-28T07:30:06Z</time>
      </trkpt>
      <trkpt lat="42.84819" lon="2.79632">
        <ele>259.8</ele>
        <time>2021-03-28T07:30:06Z</time>
      </trkpt>
      <trkpt lat="42.84827" lon="2.79633">
        <ele>259.8</ele>
        <time>2021-03-28T07:30:08Z</time>
      </trkpt>
      <trkpt lat="42.84827" lon="2.79633">
        <ele>259.8</ele>
        <time>2021-03-28T07:30:08Z</time>
      </trkpt>
      <trkpt lat="42.84837" lon="2.79638">
        <ele>259.5</ele>
        <time>2021-03-28T07:30:10Z</time>
      </trkpt>
      <trkpt lat="42.84837" lon="2.79638">
        <ele>259.5</ele>
        <time>2021-03-28T07:30:10Z</time>
      </trkpt>
      <trkpt lat="42.84847" lon="2.79645">
        <ele>259</ele>
        <time>2021-03-28T07:30:12Z</time>
      </trkpt>
      <trkpt lat="42.84847" lon="2.79645">
        <ele>259</ele>
        <time>2021-03-28T07:30:12Z</time>
      </trkpt>
      <trkpt lat="42.84856" lon="2.79655">
        <ele>258.7</ele>
        <time>2021-03-28T07:30:14Z</time>
      </trkpt>
      <trkpt lat="42.84856" lon="2.79655">
        <ele>258.7</ele>
        <time>2021-03-28T07:30:14Z</time>
      </trkpt>
      <trkpt lat="42.84866" lon="2.79666">
        <ele>258.1</ele>
        <time>2021-03-28T07:30:16Z</time>
      </trkpt>
      <trkpt lat="42.84866" lon="2.79666">
        <ele>258.1</ele>
        <time>2021-03-28T07:30:16Z</time>
      </trkpt>
      <trkpt lat="42.84875" lon="2.79679">
        <ele>257.5</ele>
        <time>2021-03-28T07:30:18Z</time>
      </trkpt>
      <trkpt lat="42.84875" lon="2.79679">
        <ele>257.5</ele>
        <time>2021-03-28T07:30:18Z</time>
      </trkpt>
      <trkpt lat="42.84883" lon="2.79689">
        <ele>257.3</ele>
        <time>2021-03-28T07:30:19Z</time>
      </trkpt>
      <trkpt lat="42.84883" lon="2.79689">
        <ele>257.3</ele>
        <time>2021-03-28T07:30:19Z</time>
      </trkpt>
      <trkpt lat="42.8489" lon="2.79698">
        <ele>257.3</ele>
        <time>2021-03-28T07:30:20Z</time>
      </trkpt>
      <trkpt lat="42.8489" lon="2.79698">
        <ele>257.3</ele>
        <time>2021-03-28T07:30:20Z</time>
      </trkpt>
      <trkpt lat="42.84898" lon="2.79708">
        <ele>256.6</ele>
        <time>2021-03-28T07:30:22Z</time>
      </trkpt>
      <trkpt lat="42.84898" lon="2.79708">
        <ele>256.6</ele>
        <time>2021-03-28T07:30:22Z</time>
      </trkpt>
      <trkpt lat="42.84908" lon="2.79716">
        <ele>256.2</ele>
        <time>2021-03-28T07:30:24Z</time>
      </trkpt>
      <trkpt lat="42.84908" lon="2.79716">
        <ele>256.2</ele>
        <time>2021-03-28T07:30:24Z</time>
      </trkpt>
      <trkpt lat="42.8492" lon="2.79724">
        <ele>256</ele>
        <time>2021-03-28T07:30:26Z</time>
      </trkpt>
      <trkpt lat="42.8492" lon="2.79724">
        <ele>256</ele>
        <time>2021-03-28T07:30:26Z</time>
      </trkpt>
      <trkpt lat="42.8493" lon="2.7973">
        <ele>256.1</ele>
        <time>2021-03-28T07:30:27Z</time>
      </trkpt>
      <trkpt lat="42.8493" lon="2.7973">
        <ele>256.1</ele>
        <time>2021-03-28T07:30:27Z</time>
      </trkpt>
      <trkpt lat="42.84941" lon="2.79736">
        <ele>256.1</ele>
        <time>2021-03-28T07:30:29Z</time>
      </trkpt>
      <trkpt lat="42.84941" lon="2.79736">
        <ele>256.1</ele>
        <time>2021-03-28T07:30:29Z</time>
      </trkpt>
      <trkpt lat="42.84953" lon="2.79742">
        <ele>255.5</ele>
        <time>2021-03-28T07:30:31Z</time>
      </trkpt>
      <trkpt lat="42.84953" lon="2.79742">
        <ele>255.5</ele>
        <time>2021-03-28T07:30:31Z</time>
      </trkpt>
      <trkpt lat="42.84965" lon="2.79741">
        <ele>253.4</ele>
        <time>2021-03-28T07:30:33Z</time>
      </trkpt>
      <trkpt lat="42.84965" lon="2.79741">
        <ele>253.4</ele>
        <time>2021-03-28T07:30:33Z</time>
      </trkpt>
      <trkpt lat="42.84974" lon="2.79735">
        <ele>250.9</ele>
        <time>2021-03-28T07:30:35Z</time>
      </trkpt>
      <trkpt lat="42.84974" lon="2.79735">
        <ele>250.9</ele>
        <time>2021-03-28T07:30:35Z</time>
      </trkpt>
      <trkpt lat="42.84979" lon="2.79727">
        <ele>250.6</ele>
        <time>2021-03-28T07:30:36Z</time>
      </trkpt>
      <trkpt lat="42.84979" lon="2.79727">
        <ele>250.6</ele>
        <time>2021-03-28T07:30:36Z</time>
      </trkpt>
      <trkpt lat="42.84979" lon="2.79716">
        <ele>250.5</ele>
        <time>2021-03-28T07:30:38Z</time>
      </trkpt>
      <trkpt lat="42.84979" lon="2.79716">
        <ele>250.5</ele>
        <time>2021-03-28T07:30:38Z</time>
      </trkpt>
      <trkpt lat="42.84977" lon="2.79707">
        <ele>251.1</ele>
        <time>2021-03-28T07:30:39Z</time>
      </trkpt>
      <trkpt lat="42.84977" lon="2.79707">
        <ele>251.1</ele>
        <time>2021-03-28T07:30:39Z</time>
      </trkpt>
      <trkpt lat="42.84975" lon="2.79697">
        <ele>251.3</ele>
        <time>2021-03-28T07:30:40Z</time>
      </trkpt>
      <trkpt lat="42.84975" lon="2.79697">
        <ele>251.3</ele>
        <time>2021-03-28T07:30:40Z</time>
      </trkpt>
      <trkpt lat="42.8497" lon="2.79685">
        <ele>251.8</ele>
        <time>2021-03-28T07:30:42Z</time>
      </trkpt>
      <trkpt lat="42.8497" lon="2.79685">
        <ele>251.8</ele>
        <time>2021-03-28T07:30:42Z</time>
      </trkpt>
      <trkpt lat="42.84966" lon="2.7967">
        <ele>252.8</ele>
        <time>2021-03-28T07:30:44Z</time>
      </trkpt>
      <trkpt lat="42.84966" lon="2.7967">
        <ele>252.8</ele>
        <time>2021-03-28T07:30:44Z</time>
      </trkpt>
      <trkpt lat="42.84963" lon="2.79656">
        <ele>253.1</ele>
        <time>2021-03-28T07:30:45Z</time>
      </trkpt>
      <trkpt lat="42.84963" lon="2.79656">
        <ele>253.1</ele>
        <time>2021-03-28T07:30:45Z</time>
      </trkpt>
      <trkpt lat="42.84962" lon="2.79643">
        <ele>253.2</ele>
        <time>2021-03-28T07:30:46Z</time>
      </trkpt>
      <trkpt lat="42.84962" lon="2.79643">
        <ele>253.2</ele>
        <time>2021-03-28T07:30:46Z</time>
      </trkpt>
      <trkpt lat="42.84963" lon="2.79629">
        <ele>252.7</ele>
        <time>2021-03-28T07:30:48Z</time>
      </trkpt>
      <trkpt lat="42.84963" lon="2.79629">
        <ele>252.7</ele>
        <time>2021-03-28T07:30:48Z</time>
      </trkpt>
      <trkpt lat="42.84964" lon="2.79616">
        <ele>251.9</ele>
        <time>2021-03-28T07:30:49Z</time>
      </trkpt>
      <trkpt lat="42.84964" lon="2.79616">
        <ele>251.9</ele>
        <time>2021-03-28T07:30:49Z</time>
      </trkpt>
      <trkpt lat="42.84966" lon="2.79604">
        <ele>251.6</ele>
        <time>2021-03-28T07:30:50Z</time>
      </trkpt>
      <trkpt lat="42.84966" lon="2.79604">
        <ele>251.6</ele>
        <time>2021-03-28T07:30:50Z</time>
      </trkpt>
      <trkpt lat="42.84967" lon="2.79593">
        <ele>251</ele>
        <time>2021-03-28T07:30:51Z</time>
      </trkpt>
      <trkpt lat="42.84967" lon="2.79593">
        <ele>251</ele>
        <time>2021-03-28T07:30:51Z</time>
      </trkpt>
      <trkpt lat="42.84971" lon="2.7958">
        <ele>251</ele>
        <time>2021-03-28T07:30:53Z</time>
      </trkpt>
      <trkpt lat="42.84971" lon="2.7958">
        <ele>251</ele>
        <time>2021-03-28T07:30:53Z</time>
      </trkpt>
      <trkpt lat="42.84975" lon="2.79569">
        <ele>251.3</ele>
        <time>2021-03-28T07:30:54Z</time>
      </trkpt>
      <trkpt lat="42.84975" lon="2.79569">
        <ele>251.3</ele>
        <time>2021-03-28T07:30:54Z</time>
      </trkpt>
      <trkpt lat="42.84981" lon="2.79559">
        <ele>252.3</ele>
        <time>2021-03-28T07:30:56Z</time>
      </trkpt>
      <trkpt lat="42.84981" lon="2.79559">
        <ele>252.3</ele>
        <time>2021-03-28T07:30:56Z</time>
      </trkpt>
      <trkpt lat="42.8499" lon="2.79552">
        <ele>252.9</ele>
        <time>2021-03-28T07:30:58Z</time>
      </trkpt>
      <trkpt lat="42.8499" lon="2.79552">
        <ele>252.9</ele>
        <time>2021-03-28T07:30:58Z</time>
      </trkpt>
      <trkpt lat="42.85002" lon="2.79546">
        <ele>253.1</ele>
        <time>2021-03-28T07:31:00Z</time>
      </trkpt>
      <trkpt lat="42.85002" lon="2.79546">
        <ele>253.1</ele>
        <time>2021-03-28T07:31:00Z</time>
      </trkpt>
      <trkpt lat="42.85012" lon="2.79541">
        <ele>251.1</ele>
        <time>2021-03-28T07:31:01Z</time>
      </trkpt>
      <trkpt lat="42.85012" lon="2.79541">
        <ele>251.1</ele>
        <time>2021-03-28T07:31:01Z</time>
      </trkpt>
      <trkpt lat="42.85021" lon="2.79536">
        <ele>249.1</ele>
        <time>2021-03-28T07:31:02Z</time>
      </trkpt>
      <trkpt lat="42.85021" lon="2.79536">
        <ele>249.1</ele>
        <time>2021-03-28T07:31:02Z</time>
      </trkpt>
      <trkpt lat="42.85033" lon="2.7953">
        <ele>247.1</ele>
        <time>2021-03-28T07:31:04Z</time>
      </trkpt>
      <trkpt lat="42.85033" lon="2.7953">
        <ele>247.1</ele>
        <time>2021-03-28T07:31:04Z</time>
      </trkpt>
      <trkpt lat="42.85043" lon="2.79524">
        <ele>245.3</ele>
        <time>2021-03-28T07:31:05Z</time>
      </trkpt>
      <trkpt lat="42.85043" lon="2.79524">
        <ele>245.3</ele>
        <time>2021-03-28T07:31:05Z</time>
      </trkpt>
      <trkpt lat="42.85051" lon="2.79518">
        <ele>244</ele>
        <time>2021-03-28T07:31:06Z</time>
      </trkpt>
      <trkpt lat="42.85051" lon="2.79518">
        <ele>244</ele>
        <time>2021-03-28T07:31:06Z</time>
      </trkpt>
      <trkpt lat="42.85059" lon="2.79511">
        <ele>244.1</ele>
        <time>2021-03-28T07:31:07Z</time>
      </trkpt>
      <trkpt lat="42.85059" lon="2.79511">
        <ele>244.1</ele>
        <time>2021-03-28T07:31:07Z</time>
      </trkpt>
      <trkpt lat="42.85068" lon="2.79501">
        <ele>243.7</ele>
        <time>2021-03-28T07:31:09Z</time>
      </trkpt>
      <trkpt lat="42.85068" lon="2.79501">
        <ele>243.7</ele>
        <time>2021-03-28T07:31:09Z</time>
      </trkpt>
      <trkpt lat="42.85076" lon="2.79492">
        <ele>244.2</ele>
        <time>2021-03-28T07:31:10Z</time>
      </trkpt>
      <trkpt lat="42.85076" lon="2.79492">
        <ele>244.2</ele>
        <time>2021-03-28T07:31:10Z</time>
      </trkpt>
      <trkpt lat="42.85083" lon="2.79483">
        <ele>244.5</ele>
        <time>2021-03-28T07:31:11Z</time>
      </trkpt>
      <trkpt lat="42.85083" lon="2.79483">
        <ele>244.5</ele>
        <time>2021-03-28T07:31:11Z</time>
      </trkpt>
      <trkpt lat="42.85092" lon="2.79472">
        <ele>243.9</ele>
        <time>2021-03-28T07:31:13Z</time>
      </trkpt>
      <trkpt lat="42.85092" lon="2.79472">
        <ele>243.9</ele>
        <time>2021-03-28T07:31:13Z</time>
      </trkpt>
      <trkpt lat="42.85103" lon="2.79459">
        <ele>243.1</ele>
        <time>2021-03-28T07:31:15Z</time>
      </trkpt>
      <trkpt lat="42.85103" lon="2.79459">
        <ele>243.1</ele>
        <time>2021-03-28T07:31:15Z</time>
      </trkpt>
      <trkpt lat="42.85112" lon="2.79447">
        <ele>242.3</ele>
        <time>2021-03-28T07:31:16Z</time>
      </trkpt>
      <trkpt lat="42.85112" lon="2.79447">
        <ele>242.3</ele>
        <time>2021-03-28T07:31:16Z</time>
      </trkpt>
      <trkpt lat="42.85121" lon="2.79436">
        <ele>241.6</ele>
        <time>2021-03-28T07:31:17Z</time>
      </trkpt>
      <trkpt lat="42.85121" lon="2.79436">
        <ele>241.6</ele>
        <time>2021-03-28T07:31:17Z</time>
      </trkpt>
      <trkpt lat="42.85131" lon="2.79423">
        <ele>240.8</ele>
        <time>2021-03-28T07:31:19Z</time>
      </trkpt>
      <trkpt lat="42.85131" lon="2.79423">
        <ele>240.8</ele>
        <time>2021-03-28T07:31:19Z</time>
      </trkpt>
      <trkpt lat="42.85141" lon="2.79412">
        <ele>240.2</ele>
        <time>2021-03-28T07:31:20Z</time>
      </trkpt>
      <trkpt lat="42.85141" lon="2.79412">
        <ele>240.2</ele>
        <time>2021-03-28T07:31:20Z</time>
      </trkpt>
      <trkpt lat="42.85149" lon="2.79401">
        <ele>240</ele>
        <time>2021-03-28T07:31:21Z</time>
      </trkpt>
      <trkpt lat="42.85149" lon="2.79401">
        <ele>240</ele>
        <time>2021-03-28T07:31:21Z</time>
      </trkpt>
      <trkpt lat="42.85161" lon="2.79388">
        <ele>239.4</ele>
        <time>2021-03-28T07:31:23Z</time>
      </trkpt>
      <trkpt lat="42.85161" lon="2.79388">
        <ele>239.4</ele>
        <time>2021-03-28T07:31:23Z</time>
      </trkpt>
      <trkpt lat="42.85174" lon="2.79375">
        <ele>239.2</ele>
        <time>2021-03-28T07:31:25Z</time>
      </trkpt>
      <trkpt lat="42.85174" lon="2.79375">
        <ele>239.2</ele>
        <time>2021-03-28T07:31:25Z</time>
      </trkpt>
      <trkpt lat="42.85186" lon="2.79364">
        <ele>238.2</ele>
        <time>2021-03-28T07:31:26Z</time>
      </trkpt>
      <trkpt lat="42.85186" lon="2.79364">
        <ele>238.2</ele>
        <time>2021-03-28T07:31:26Z</time>
      </trkpt>
      <trkpt lat="42.85199" lon="2.79351">
        <ele>237.6</ele>
        <time>2021-03-28T07:31:28Z</time>
      </trkpt>
      <trkpt lat="42.85199" lon="2.79351">
        <ele>237.6</ele>
        <time>2021-03-28T07:31:28Z</time>
      </trkpt>
      <trkpt lat="42.85213" lon="2.79336">
        <ele>236.4</ele>
        <time>2021-03-28T07:31:30Z</time>
      </trkpt>
      <trkpt lat="42.85213" lon="2.79336">
        <ele>236.4</ele>
        <time>2021-03-28T07:31:30Z</time>
      </trkpt>
      <trkpt lat="42.85227" lon="2.7932">
        <ele>235</ele>
        <time>2021-03-28T07:31:32Z</time>
      </trkpt>
      <trkpt lat="42.85227" lon="2.7932">
        <ele>235</ele>
        <time>2021-03-28T07:31:32Z</time>
      </trkpt>
      <trkpt lat="42.85239" lon="2.79307">
        <ele>234.6</ele>
        <time>2021-03-28T07:31:33Z</time>
      </trkpt>
      <trkpt lat="42.85239" lon="2.79307">
        <ele>234.6</ele>
        <time>2021-03-28T07:31:33Z</time>
      </trkpt>
      <trkpt lat="42.85252" lon="2.7929">
        <ele>233.4</ele>
        <time>2021-03-28T07:31:35Z</time>
      </trkpt>
      <trkpt lat="42.85252" lon="2.7929">
        <ele>233.4</ele>
        <time>2021-03-28T07:31:35Z</time>
      </trkpt>
      <trkpt lat="42.85265" lon="2.79272">
        <ele>231.4</ele>
        <time>2021-03-28T07:31:37Z</time>
      </trkpt>
      <trkpt lat="42.85265" lon="2.79272">
        <ele>231.4</ele>
        <time>2021-03-28T07:31:37Z</time>
      </trkpt>
      <trkpt lat="42.85276" lon="2.79256">
        <ele>231.3</ele>
        <time>2021-03-28T07:31:38Z</time>
      </trkpt>
      <trkpt lat="42.85276" lon="2.79256">
        <ele>231.3</ele>
        <time>2021-03-28T07:31:38Z</time>
      </trkpt>
      <trkpt lat="42.85289" lon="2.7924">
        <ele>230.8</ele>
        <time>2021-03-28T07:31:40Z</time>
      </trkpt>
      <trkpt lat="42.85289" lon="2.7924">
        <ele>230.8</ele>
        <time>2021-03-28T07:31:40Z</time>
      </trkpt>
      <trkpt lat="42.853" lon="2.79225">
        <ele>229</ele>
        <time>2021-03-28T07:31:41Z</time>
      </trkpt>
      <trkpt lat="42.853" lon="2.79225">
        <ele>229</ele>
        <time>2021-03-28T07:31:41Z</time>
      </trkpt>
      <trkpt lat="42.85312" lon="2.7921">
        <ele>228.4</ele>
        <time>2021-03-28T07:31:43Z</time>
      </trkpt>
      <trkpt lat="42.85312" lon="2.7921">
        <ele>228.4</ele>
        <time>2021-03-28T07:31:43Z</time>
      </trkpt>
      <trkpt lat="42.85323" lon="2.79196">
        <ele>228.2</ele>
        <time>2021-03-28T07:31:44Z</time>
      </trkpt>
      <trkpt lat="42.85323" lon="2.79196">
        <ele>228.2</ele>
        <time>2021-03-28T07:31:44Z</time>
      </trkpt>
      <trkpt lat="42.85336" lon="2.79182">
        <ele>227.3</ele>
        <time>2021-03-28T07:31:46Z</time>
      </trkpt>
      <trkpt lat="42.85336" lon="2.79182">
        <ele>227.3</ele>
        <time>2021-03-28T07:31:46Z</time>
      </trkpt>
      <trkpt lat="42.85347" lon="2.79169">
        <ele>226.5</ele>
        <time>2021-03-28T07:31:47Z</time>
      </trkpt>
      <trkpt lat="42.85347" lon="2.79169">
        <ele>226.5</ele>
        <time>2021-03-28T07:31:47Z</time>
      </trkpt>
      <trkpt lat="42.8536" lon="2.79155">
        <ele>226.1</ele>
        <time>2021-03-28T07:31:49Z</time>
      </trkpt>
      <trkpt lat="42.8536" lon="2.79155">
        <ele>226.1</ele>
        <time>2021-03-28T07:31:49Z</time>
      </trkpt>
      <trkpt lat="42.85374" lon="2.7914">
        <ele>224.7</ele>
        <time>2021-03-28T07:31:51Z</time>
      </trkpt>
      <trkpt lat="42.85374" lon="2.7914">
        <ele>224.7</ele>
        <time>2021-03-28T07:31:51Z</time>
      </trkpt>
      <trkpt lat="42.85389" lon="2.79126">
        <ele>223.7</ele>
        <time>2021-03-28T07:31:53Z</time>
      </trkpt>
      <trkpt lat="42.85389" lon="2.79126">
        <ele>223.7</ele>
        <time>2021-03-28T07:31:53Z</time>
      </trkpt>
      <trkpt lat="42.85405" lon="2.79113">
        <ele>223</ele>
        <time>2021-03-28T07:31:55Z</time>
      </trkpt>
      <trkpt lat="42.85405" lon="2.79113">
        <ele>223</ele>
        <time>2021-03-28T07:31:55Z</time>
      </trkpt>
      <trkpt lat="42.85421" lon="2.79101">
        <ele>222.6</ele>
        <time>2021-03-28T07:31:57Z</time>
      </trkpt>
      <trkpt lat="42.85421" lon="2.79101">
        <ele>222.6</ele>
        <time>2021-03-28T07:31:57Z</time>
      </trkpt>
      <trkpt lat="42.85435" lon="2.79093">
        <ele>221.8</ele>
        <time>2021-03-28T07:31:58Z</time>
      </trkpt>
      <trkpt lat="42.85435" lon="2.79093">
        <ele>221.8</ele>
        <time>2021-03-28T07:31:58Z</time>
      </trkpt>
      <trkpt lat="42.85447" lon="2.79085">
        <ele>219.9</ele>
        <time>2021-03-28T07:31:59Z</time>
      </trkpt>
      <trkpt lat="42.85447" lon="2.79085">
        <ele>219.9</ele>
        <time>2021-03-28T07:31:59Z</time>
      </trkpt>
      <trkpt lat="42.85458" lon="2.79074">
        <ele>217.9</ele>
        <time>2021-03-28T07:32:01Z</time>
      </trkpt>
      <trkpt lat="42.85458" lon="2.79074">
        <ele>217.9</ele>
        <time>2021-03-28T07:32:01Z</time>
      </trkpt>
      <trkpt lat="42.85464" lon="2.79058">
        <ele>215</ele>
        <time>2021-03-28T07:32:03Z</time>
      </trkpt>
      <trkpt lat="42.85464" lon="2.79058">
        <ele>215</ele>
        <time>2021-03-28T07:32:03Z</time>
      </trkpt>
      <trkpt lat="42.85462" lon="2.79044">
        <ele>214.1</ele>
        <time>2021-03-28T07:32:05Z</time>
      </trkpt>
      <trkpt lat="42.85462" lon="2.79044">
        <ele>214.1</ele>
        <time>2021-03-28T07:32:05Z</time>
      </trkpt>
      <trkpt lat="42.85458" lon="2.79034">
        <ele>213.1</ele>
        <time>2021-03-28T07:32:06Z</time>
      </trkpt>
      <trkpt lat="42.85458" lon="2.79034">
        <ele>213.1</ele>
        <time>2021-03-28T07:32:06Z</time>
      </trkpt>
      <trkpt lat="42.85448" lon="2.79024">
        <ele>212.1</ele>
        <time>2021-03-28T07:32:08Z</time>
      </trkpt>
      <trkpt lat="42.85448" lon="2.79024">
        <ele>212.1</ele>
        <time>2021-03-28T07:32:08Z</time>
      </trkpt>
      <trkpt lat="42.85436" lon="2.79015">
        <ele>212.9</ele>
        <time>2021-03-28T07:32:10Z</time>
      </trkpt>
      <trkpt lat="42.85436" lon="2.79015">
        <ele>212.9</ele>
        <time>2021-03-28T07:32:10Z</time>
      </trkpt>
      <trkpt lat="42.85421" lon="2.79006">
        <ele>212.4</ele>
        <time>2021-03-28T07:32:12Z</time>
      </trkpt>
      <trkpt lat="42.85421" lon="2.79006">
        <ele>212.4</ele>
        <time>2021-03-28T07:32:12Z</time>
      </trkpt>
      <trkpt lat="42.85408" lon="2.78999">
        <ele>211.8</ele>
        <time>2021-03-28T07:32:13Z</time>
      </trkpt>
      <trkpt lat="42.85408" lon="2.78999">
        <ele>211.8</ele>
        <time>2021-03-28T07:32:13Z</time>
      </trkpt>
      <trkpt lat="42.85392" lon="2.78992">
        <ele>211.9</ele>
        <time>2021-03-28T07:32:15Z</time>
      </trkpt>
      <trkpt lat="42.85392" lon="2.78992">
        <ele>211.9</ele>
        <time>2021-03-28T07:32:15Z</time>
      </trkpt>
      <trkpt lat="42.85378" lon="2.78985">
        <ele>211.5</ele>
        <time>2021-03-28T07:32:16Z</time>
      </trkpt>
      <trkpt lat="42.85378" lon="2.78985">
        <ele>211.5</ele>
        <time>2021-03-28T07:32:16Z</time>
      </trkpt>
      <trkpt lat="42.85365" lon="2.7898">
        <ele>209.9</ele>
        <time>2021-03-28T07:32:17Z</time>
      </trkpt>
      <trkpt lat="42.85365" lon="2.7898">
        <ele>209.9</ele>
        <time>2021-03-28T07:32:17Z</time>
      </trkpt>
      <trkpt lat="42.85349" lon="2.78975">
        <ele>208.6</ele>
        <time>2021-03-28T07:32:19Z</time>
      </trkpt>
      <trkpt lat="42.85349" lon="2.78975">
        <ele>208.6</ele>
        <time>2021-03-28T07:32:19Z</time>
      </trkpt>
      <trkpt lat="42.85335" lon="2.7897">
        <ele>208.4</ele>
        <time>2021-03-28T07:32:20Z</time>
      </trkpt>
      <trkpt lat="42.85335" lon="2.7897">
        <ele>208.4</ele>
        <time>2021-03-28T07:32:20Z</time>
      </trkpt>
      <trkpt lat="42.85321" lon="2.78965">
        <ele>207.8</ele>
        <time>2021-03-28T07:32:21Z</time>
      </trkpt>
      <trkpt lat="42.85321" lon="2.78965">
        <ele>207.8</ele>
        <time>2021-03-28T07:32:21Z</time>
      </trkpt>
      <trkpt lat="42.85305" lon="2.78958">
        <ele>206.6</ele>
        <time>2021-03-28T07:32:23Z</time>
      </trkpt>
      <trkpt lat="42.85305" lon="2.78958">
        <ele>206.6</ele>
        <time>2021-03-28T07:32:23Z</time>
      </trkpt>
      <trkpt lat="42.85291" lon="2.78953">
        <ele>205.7</ele>
        <time>2021-03-28T07:32:24Z</time>
      </trkpt>
      <trkpt lat="42.85291" lon="2.78953">
        <ele>205.7</ele>
        <time>2021-03-28T07:32:24Z</time>
      </trkpt>
      <trkpt lat="42.85277" lon="2.78948">
        <ele>204.9</ele>
        <time>2021-03-28T07:32:25Z</time>
      </trkpt>
      <trkpt lat="42.85277" lon="2.78948">
        <ele>204.9</ele>
        <time>2021-03-28T07:32:25Z</time>
      </trkpt>
      <trkpt lat="42.85261" lon="2.78942">
        <ele>204.1</ele>
        <time>2021-03-28T07:32:27Z</time>
      </trkpt>
      <trkpt lat="42.85261" lon="2.78942">
        <ele>204.1</ele>
        <time>2021-03-28T07:32:27Z</time>
      </trkpt>
      <trkpt lat="42.85244" lon="2.78935">
        <ele>203.7</ele>
        <time>2021-03-28T07:32:29Z</time>
      </trkpt>
      <trkpt lat="42.85244" lon="2.78935">
        <ele>203.7</ele>
        <time>2021-03-28T07:32:29Z</time>
      </trkpt>
      <trkpt lat="42.85231" lon="2.78928">
        <ele>203.5</ele>
        <time>2021-03-28T07:32:30Z</time>
      </trkpt>
      <trkpt lat="42.85231" lon="2.78928">
        <ele>203.5</ele>
        <time>2021-03-28T07:32:30Z</time>
      </trkpt>
      <trkpt lat="42.85219" lon="2.7892">
        <ele>203.3</ele>
        <time>2021-03-28T07:32:31Z</time>
      </trkpt>
      <trkpt lat="42.85219" lon="2.7892">
        <ele>203.3</ele>
        <time>2021-03-28T07:32:31Z</time>
      </trkpt>
      <trkpt lat="42.85208" lon="2.78907">
        <ele>203.2</ele>
        <time>2021-03-28T07:32:33Z</time>
      </trkpt>
      <trkpt lat="42.85208" lon="2.78907">
        <ele>203.2</ele>
        <time>2021-03-28T07:32:33Z</time>
      </trkpt>
      <trkpt lat="42.85199" lon="2.7889">
        <ele>202.5</ele>
        <time>2021-03-28T07:32:35Z</time>
      </trkpt>
      <trkpt lat="42.85199" lon="2.7889">
        <ele>202.5</ele>
        <time>2021-03-28T07:32:35Z</time>
      </trkpt>
      <trkpt lat="42.85192" lon="2.78875">
        <ele>200.7</ele>
        <time>2021-03-28T07:32:36Z</time>
      </trkpt>
      <trkpt lat="42.85192" lon="2.78875">
        <ele>200.7</ele>
        <time>2021-03-28T07:32:36Z</time>
      </trkpt>
      <trkpt lat="42.85186" lon="2.78857">
        <ele>199.2</ele>
        <time>2021-03-28T07:32:38Z</time>
      </trkpt>
      <trkpt lat="42.85186" lon="2.78857">
        <ele>199.2</ele>
        <time>2021-03-28T07:32:38Z</time>
      </trkpt>
      <trkpt lat="42.85181" lon="2.78841">
        <ele>198</ele>
        <time>2021-03-28T07:32:39Z</time>
      </trkpt>
      <trkpt lat="42.85181" lon="2.78841">
        <ele>198</ele>
        <time>2021-03-28T07:32:39Z</time>
      </trkpt>
      <trkpt lat="42.85179" lon="2.78824">
        <ele>197.6</ele>
        <time>2021-03-28T07:32:41Z</time>
      </trkpt>
      <trkpt lat="42.85179" lon="2.78824">
        <ele>197.6</ele>
        <time>2021-03-28T07:32:41Z</time>
      </trkpt>
      <trkpt lat="42.85182" lon="2.78807">
        <ele>198.4</ele>
        <time>2021-03-28T07:32:43Z</time>
      </trkpt>
      <trkpt lat="42.85182" lon="2.78807">
        <ele>198.4</ele>
        <time>2021-03-28T07:32:43Z</time>
      </trkpt>
      <trkpt lat="42.85189" lon="2.78791">
        <ele>197.5</ele>
        <time>2021-03-28T07:32:45Z</time>
      </trkpt>
      <trkpt lat="42.85189" lon="2.78791">
        <ele>197.5</ele>
        <time>2021-03-28T07:32:45Z</time>
      </trkpt>
      <trkpt lat="42.85197" lon="2.78775">
        <ele>195.9</ele>
        <time>2021-03-28T07:32:47Z</time>
      </trkpt>
      <trkpt lat="42.85197" lon="2.78775">
        <ele>195.9</ele>
        <time>2021-03-28T07:32:47Z</time>
      </trkpt>
      <trkpt lat="42.85208" lon="2.7876">
        <ele>193.8</ele>
        <time>2021-03-28T07:32:49Z</time>
      </trkpt>
      <trkpt lat="42.85208" lon="2.7876">
        <ele>193.8</ele>
        <time>2021-03-28T07:32:49Z</time>
      </trkpt>
      <trkpt lat="42.85217" lon="2.78748">
        <ele>192.4</ele>
        <time>2021-03-28T07:32:50Z</time>
      </trkpt>
      <trkpt lat="42.85217" lon="2.78748">
        <ele>192.4</ele>
        <time>2021-03-28T07:32:50Z</time>
      </trkpt>
      <trkpt lat="42.85227" lon="2.78733">
        <ele>191.5</ele>
        <time>2021-03-28T07:32:52Z</time>
      </trkpt>
      <trkpt lat="42.85227" lon="2.78733">
        <ele>191.5</ele>
        <time>2021-03-28T07:32:52Z</time>
      </trkpt>
      <trkpt lat="42.85236" lon="2.7872">
        <ele>190.5</ele>
        <time>2021-03-28T07:32:53Z</time>
      </trkpt>
      <trkpt lat="42.85236" lon="2.7872">
        <ele>190.5</ele>
        <time>2021-03-28T07:32:53Z</time>
      </trkpt>
      <trkpt lat="42.85244" lon="2.78709">
        <ele>189.6</ele>
        <time>2021-03-28T07:32:54Z</time>
      </trkpt>
      <trkpt lat="42.85244" lon="2.78709">
        <ele>189.6</ele>
        <time>2021-03-28T07:32:54Z</time>
      </trkpt>
      <trkpt lat="42.8525" lon="2.78698">
        <ele>188.7</ele>
        <time>2021-03-28T07:32:55Z</time>
      </trkpt>
      <trkpt lat="42.8525" lon="2.78698">
        <ele>188.7</ele>
        <time>2021-03-28T07:32:55Z</time>
      </trkpt>
      <trkpt lat="42.85257" lon="2.78682">
        <ele>188.2</ele>
        <time>2021-03-28T07:32:57Z</time>
      </trkpt>
      <trkpt lat="42.85257" lon="2.78682">
        <ele>188.2</ele>
        <time>2021-03-28T07:32:57Z</time>
      </trkpt>
      <trkpt lat="42.85259" lon="2.78665">
        <ele>186</ele>
        <time>2021-03-28T07:32:59Z</time>
      </trkpt>
      <trkpt lat="42.85259" lon="2.78665">
        <ele>186</ele>
        <time>2021-03-28T07:32:59Z</time>
      </trkpt>
      <trkpt lat="42.85256" lon="2.78646">
        <ele>184.3</ele>
        <time>2021-03-28T07:33:01Z</time>
      </trkpt>
      <trkpt lat="42.85256" lon="2.78646">
        <ele>184.3</ele>
        <time>2021-03-28T07:33:01Z</time>
      </trkpt>
      <trkpt lat="42.85254" lon="2.78629">
        <ele>184</ele>
        <time>2021-03-28T07:33:02Z</time>
      </trkpt>
      <trkpt lat="42.85254" lon="2.78629">
        <ele>184</ele>
        <time>2021-03-28T07:33:02Z</time>
      </trkpt>
      <trkpt lat="42.85251" lon="2.78609">
        <ele>184.6</ele>
        <time>2021-03-28T07:33:04Z</time>
      </trkpt>
      <trkpt lat="42.85251" lon="2.78609">
        <ele>184.6</ele>
        <time>2021-03-28T07:33:04Z</time>
      </trkpt>
      <trkpt lat="42.85249" lon="2.78587">
        <ele>184.6</ele>
        <time>2021-03-28T07:33:06Z</time>
      </trkpt>
      <trkpt lat="42.85249" lon="2.78587">
        <ele>184.6</ele>
        <time>2021-03-28T07:33:06Z</time>
      </trkpt>
      <trkpt lat="42.85249" lon="2.78568">
        <ele>184.7</ele>
        <time>2021-03-28T07:33:07Z</time>
      </trkpt>
      <trkpt lat="42.85249" lon="2.78568">
        <ele>184.7</ele>
        <time>2021-03-28T07:33:07Z</time>
      </trkpt>
      <trkpt lat="42.85251" lon="2.78551">
        <ele>185.1</ele>
        <time>2021-03-28T07:33:08Z</time>
      </trkpt>
      <trkpt lat="42.85251" lon="2.78551">
        <ele>185.1</ele>
        <time>2021-03-28T07:33:08Z</time>
      </trkpt>
      <trkpt lat="42.8525" lon="2.78532">
        <ele>183.2</ele>
        <time>2021-03-28T07:33:10Z</time>
      </trkpt>
      <trkpt lat="42.8525" lon="2.78532">
        <ele>183.2</ele>
        <time>2021-03-28T07:33:10Z</time>
      </trkpt>
      <trkpt lat="42.85243" lon="2.78517">
        <ele>179.9</ele>
        <time>2021-03-28T07:33:12Z</time>
      </trkpt>
      <trkpt lat="42.85243" lon="2.78517">
        <ele>179.9</ele>
        <time>2021-03-28T07:33:12Z</time>
      </trkpt>
      <trkpt lat="42.85235" lon="2.78507">
        <ele>177.7</ele>
        <time>2021-03-28T07:33:13Z</time>
      </trkpt>
      <trkpt lat="42.85235" lon="2.78507">
        <ele>177.7</ele>
        <time>2021-03-28T07:33:13Z</time>
      </trkpt>
      <trkpt lat="42.85227" lon="2.78501">
        <ele>176.5</ele>
        <time>2021-03-28T07:33:14Z</time>
      </trkpt>
      <trkpt lat="42.85227" lon="2.78501">
        <ele>176.5</ele>
        <time>2021-03-28T07:33:14Z</time>
      </trkpt>
      <trkpt lat="42.85216" lon="2.78496">
        <ele>176.6</ele>
        <time>2021-03-28T07:33:16Z</time>
      </trkpt>
      <trkpt lat="42.85216" lon="2.78496">
        <ele>176.6</ele>
        <time>2021-03-28T07:33:16Z</time>
      </trkpt>
      <trkpt lat="42.85205" lon="2.78494">
        <ele>176.8</ele>
        <time>2021-03-28T07:33:17Z</time>
      </trkpt>
      <trkpt lat="42.85205" lon="2.78494">
        <ele>176.8</ele>
        <time>2021-03-28T07:33:17Z</time>
      </trkpt>
      <trkpt lat="42.85195" lon="2.78493">
        <ele>176.8</ele>
        <time>2021-03-28T07:33:18Z</time>
      </trkpt>
      <trkpt lat="42.85195" lon="2.78493">
        <ele>176.8</ele>
        <time>2021-03-28T07:33:18Z</time>
      </trkpt>
      <trkpt lat="42.85182" lon="2.78494">
        <ele>176.1</ele>
        <time>2021-03-28T07:33:20Z</time>
      </trkpt>
      <trkpt lat="42.85182" lon="2.78494">
        <ele>176.1</ele>
        <time>2021-03-28T07:33:20Z</time>
      </trkpt>
      <trkpt lat="42.85169" lon="2.785">
        <ele>175.1</ele>
        <time>2021-03-28T07:33:22Z</time>
      </trkpt>
      <trkpt lat="42.85169" lon="2.785">
        <ele>175.1</ele>
        <time>2021-03-28T07:33:22Z</time>
      </trkpt>
      <trkpt lat="42.85156" lon="2.78509">
        <ele>174.3</ele>
        <time>2021-03-28T07:33:24Z</time>
      </trkpt>
      <trkpt lat="42.85156" lon="2.78509">
        <ele>174.3</ele>
        <time>2021-03-28T07:33:24Z</time>
      </trkpt>
      <trkpt lat="42.85145" lon="2.78517">
        <ele>173.8</ele>
        <time>2021-03-28T07:33:25Z</time>
      </trkpt>
      <trkpt lat="42.85145" lon="2.78517">
        <ele>173.8</ele>
        <time>2021-03-28T07:33:25Z</time>
      </trkpt>
      <trkpt lat="42.85132" lon="2.78524">
        <ele>173.8</ele>
        <time>2021-03-28T07:33:27Z</time>
      </trkpt>
      <trkpt lat="42.85132" lon="2.78524">
        <ele>173.8</ele>
        <time>2021-03-28T07:33:27Z</time>
      </trkpt>
      <trkpt lat="42.85121" lon="2.78527">
        <ele>174.4</ele>
        <time>2021-03-28T07:33:28Z</time>
      </trkpt>
      <trkpt lat="42.85121" lon="2.78527">
        <ele>174.4</ele>
        <time>2021-03-28T07:33:28Z</time>
      </trkpt>
      <trkpt lat="42.85109" lon="2.78521">
        <ele>175.3</ele>
        <time>2021-03-28T07:33:30Z</time>
      </trkpt>
      <trkpt lat="42.85109" lon="2.78521">
        <ele>175.3</ele>
        <time>2021-03-28T07:33:30Z</time>
      </trkpt>
      <trkpt lat="42.85101" lon="2.78513">
        <ele>174</ele>
        <time>2021-03-28T07:33:31Z</time>
      </trkpt>
      <trkpt lat="42.85101" lon="2.78513">
        <ele>174</ele>
        <time>2021-03-28T07:33:31Z</time>
      </trkpt>
      <trkpt lat="42.85094" lon="2.78504">
        <ele>172.8</ele>
        <time>2021-03-28T07:33:32Z</time>
      </trkpt>
      <trkpt lat="42.85094" lon="2.78504">
        <ele>172.8</ele>
        <time>2021-03-28T07:33:32Z</time>
      </trkpt>
      <trkpt lat="42.85088" lon="2.78493">
        <ele>171.5</ele>
        <time>2021-03-28T07:33:33Z</time>
      </trkpt>
      <trkpt lat="42.85088" lon="2.78493">
        <ele>171.5</ele>
        <time>2021-03-28T07:33:33Z</time>
      </trkpt>
      <trkpt lat="42.8508" lon="2.78478">
        <ele>170.2</ele>
        <time>2021-03-28T07:33:35Z</time>
      </trkpt>
      <trkpt lat="42.8508" lon="2.78478">
        <ele>170.2</ele>
        <time>2021-03-28T07:33:35Z</time>
      </trkpt>
      <trkpt lat="42.85073" lon="2.78465">
        <ele>169.4</ele>
        <time>2021-03-28T07:33:36Z</time>
      </trkpt>
      <trkpt lat="42.85073" lon="2.78465">
        <ele>169.4</ele>
        <time>2021-03-28T07:33:36Z</time>
      </trkpt>
      <trkpt lat="42.85065" lon="2.78453">
        <ele>168.3</ele>
        <time>2021-03-28T07:33:37Z</time>
      </trkpt>
      <trkpt lat="42.85065" lon="2.78453">
        <ele>168.3</ele>
        <time>2021-03-28T07:33:37Z</time>
      </trkpt>
      <trkpt lat="42.85054" lon="2.7844">
        <ele>167</ele>
        <time>2021-03-28T07:33:39Z</time>
      </trkpt>
      <trkpt lat="42.85054" lon="2.7844">
        <ele>167</ele>
        <time>2021-03-28T07:33:39Z</time>
      </trkpt>
      <trkpt lat="42.85044" lon="2.78427">
        <ele>166</ele>
        <time>2021-03-28T07:33:40Z</time>
      </trkpt>
      <trkpt lat="42.85044" lon="2.78427">
        <ele>166</ele>
        <time>2021-03-28T07:33:40Z</time>
      </trkpt>
      <trkpt lat="42.85032" lon="2.78414">
        <ele>164.7</ele>
        <time>2021-03-28T07:33:42Z</time>
      </trkpt>
      <trkpt lat="42.85032" lon="2.78414">
        <ele>164.7</ele>
        <time>2021-03-28T07:33:42Z</time>
      </trkpt>
      <trkpt lat="42.85018" lon="2.784">
        <ele>163.9</ele>
        <time>2021-03-28T07:33:44Z</time>
      </trkpt>
      <trkpt lat="42.85018" lon="2.784">
        <ele>163.9</ele>
        <time>2021-03-28T07:33:44Z</time>
      </trkpt>
      <trkpt lat="42.85007" lon="2.78387">
        <ele>163.5</ele>
        <time>2021-03-28T07:33:45Z</time>
      </trkpt>
      <trkpt lat="42.85007" lon="2.78387">
        <ele>163.5</ele>
        <time>2021-03-28T07:33:45Z</time>
      </trkpt>
      <trkpt lat="42.84993" lon="2.78374">
        <ele>163.1</ele>
        <time>2021-03-28T07:33:47Z</time>
      </trkpt>
      <trkpt lat="42.84993" lon="2.78374">
        <ele>163.1</ele>
        <time>2021-03-28T07:33:47Z</time>
      </trkpt>
      <trkpt lat="42.84979" lon="2.7836">
        <ele>162.6</ele>
        <time>2021-03-28T07:33:49Z</time>
      </trkpt>
      <trkpt lat="42.84979" lon="2.7836">
        <ele>162.6</ele>
        <time>2021-03-28T07:33:49Z</time>
      </trkpt>
      <trkpt lat="42.84967" lon="2.78348">
        <ele>162.4</ele>
        <time>2021-03-28T07:33:50Z</time>
      </trkpt>
      <trkpt lat="42.84967" lon="2.78348">
        <ele>162.4</ele>
        <time>2021-03-28T07:33:50Z</time>
      </trkpt>
      <trkpt lat="42.84955" lon="2.78336">
        <ele>161.4</ele>
        <time>2021-03-28T07:33:52Z</time>
      </trkpt>
      <trkpt lat="42.84955" lon="2.78336">
        <ele>161.4</ele>
        <time>2021-03-28T07:33:52Z</time>
      </trkpt>
      <trkpt lat="42.84941" lon="2.78323">
        <ele>160.5</ele>
        <time>2021-03-28T07:33:54Z</time>
      </trkpt>
      <trkpt lat="42.84941" lon="2.78323">
        <ele>160.5</ele>
        <time>2021-03-28T07:33:54Z</time>
      </trkpt>
      <trkpt lat="42.8493" lon="2.78312">
        <ele>160.1</ele>
        <time>2021-03-28T07:33:55Z</time>
      </trkpt>
      <trkpt lat="42.8493" lon="2.78312">
        <ele>160.1</ele>
        <time>2021-03-28T07:33:55Z</time>
      </trkpt>
      <trkpt lat="42.84917" lon="2.783">
        <ele>159.6</ele>
        <time>2021-03-28T07:33:57Z</time>
      </trkpt>
      <trkpt lat="42.84917" lon="2.783">
        <ele>159.6</ele>
        <time>2021-03-28T07:33:57Z</time>
      </trkpt>
      <trkpt lat="42.84903" lon="2.78287">
        <ele>158.9</ele>
        <time>2021-03-28T07:33:59Z</time>
      </trkpt>
      <trkpt lat="42.84903" lon="2.78287">
        <ele>158.9</ele>
        <time>2021-03-28T07:33:59Z</time>
      </trkpt>
      <trkpt lat="42.8489" lon="2.78271">
        <ele>157.1</ele>
        <time>2021-03-28T07:34:01Z</time>
      </trkpt>
      <trkpt lat="42.8489" lon="2.78271">
        <ele>157.1</ele>
        <time>2021-03-28T07:34:01Z</time>
      </trkpt>
      <trkpt lat="42.84878" lon="2.78254">
        <ele>156.5</ele>
        <time>2021-03-28T07:34:03Z</time>
      </trkpt>
      <trkpt lat="42.84878" lon="2.78254">
        <ele>156.5</ele>
        <time>2021-03-28T07:34:03Z</time>
      </trkpt>
      <trkpt lat="42.84868" lon="2.7824">
        <ele>156.4</ele>
        <time>2021-03-28T07:34:04Z</time>
      </trkpt>
      <trkpt lat="42.84868" lon="2.7824">
        <ele>156.4</ele>
        <time>2021-03-28T07:34:04Z</time>
      </trkpt>
      <trkpt lat="42.8486" lon="2.78225">
        <ele>155.8</ele>
        <time>2021-03-28T07:34:06Z</time>
      </trkpt>
      <trkpt lat="42.8486" lon="2.78225">
        <ele>155.8</ele>
        <time>2021-03-28T07:34:06Z</time>
      </trkpt>
      <trkpt lat="42.84852" lon="2.78209">
        <ele>155.1</ele>
        <time>2021-03-28T07:34:08Z</time>
      </trkpt>
      <trkpt lat="42.84852" lon="2.78209">
        <ele>155.1</ele>
        <time>2021-03-28T07:34:08Z</time>
      </trkpt>
      <trkpt lat="42.84845" lon="2.78196">
        <ele>155.3</ele>
        <time>2021-03-28T07:34:09Z</time>
      </trkpt>
      <trkpt lat="42.84845" lon="2.78196">
        <ele>155.3</ele>
        <time>2021-03-28T07:34:09Z</time>
      </trkpt>
      <trkpt lat="42.84838" lon="2.78182">
        <ele>155.6</ele>
        <time>2021-03-28T07:34:11Z</time>
      </trkpt>
      <trkpt lat="42.84838" lon="2.78182">
        <ele>155.6</ele>
        <time>2021-03-28T07:34:11Z</time>
      </trkpt>
      <trkpt lat="42.84831" lon="2.78168">
        <ele>155.7</ele>
        <time>2021-03-28T07:34:13Z</time>
      </trkpt>
      <trkpt lat="42.84831" lon="2.78168">
        <ele>155.7</ele>
        <time>2021-03-28T07:34:13Z</time>
      </trkpt>
      <trkpt lat="42.84825" lon="2.78156">
        <ele>156.3</ele>
        <time>2021-03-28T07:34:15Z</time>
      </trkpt>
      <trkpt lat="42.84825" lon="2.78156">
        <ele>156.3</ele>
        <time>2021-03-28T07:34:15Z</time>
      </trkpt>
      <trkpt lat="42.8482" lon="2.78146">
        <ele>156.4</ele>
        <time>2021-03-28T07:34:17Z</time>
      </trkpt>
      <trkpt lat="42.8482" lon="2.78146">
        <ele>156.4</ele>
        <time>2021-03-28T07:34:17Z</time>
      </trkpt>
      <trkpt lat="42.84815" lon="2.78138">
        <ele>156.1</ele>
        <time>2021-03-28T07:34:19Z</time>
      </trkpt>
      <trkpt lat="42.84815" lon="2.78138">
        <ele>156.1</ele>
        <time>2021-03-28T07:34:19Z</time>
      </trkpt>
      <trkpt lat="42.84812" lon="2.78133">
        <ele>155.5</ele>
        <time>2021-03-28T07:34:20Z</time>
      </trkpt>
      <trkpt lat="42.84812" lon="2.78133">
        <ele>155.5</ele>
        <time>2021-03-28T07:34:20Z</time>
      </trkpt>
      <trkpt lat="42.84809" lon="2.78128">
        <ele>155.2</ele>
        <time>2021-03-28T07:34:22Z</time>
      </trkpt>
      <trkpt lat="42.84809" lon="2.78128">
        <ele>155.2</ele>
        <time>2021-03-28T07:34:22Z</time>
      </trkpt>
      <trkpt lat="42.84808" lon="2.78125">
        <ele>154.9</ele>
        <time>2021-03-28T07:34:23Z</time>
      </trkpt>
      <trkpt lat="42.84808" lon="2.78125">
        <ele>154.9</ele>
        <time>2021-03-28T07:34:23Z</time>
      </trkpt>
      <trkpt lat="42.84807" lon="2.78123">
        <ele>154.8</ele>
        <time>2021-03-28T07:34:25Z</time>
      </trkpt>
      <trkpt lat="42.84807" lon="2.78123">
        <ele>154.8</ele>
        <time>2021-03-28T07:34:25Z</time>
      </trkpt>
      <trkpt lat="42.84804" lon="2.7811">
        <ele>154.9</ele>
        <time>2021-03-28T07:36:19Z</time>
      </trkpt>
      <trkpt lat="42.84804" lon="2.7811">
        <ele>154.9</ele>
        <time>2021-03-28T07:36:19Z</time>
      </trkpt>
      <trkpt lat="42.84803" lon="2.78108">
        <ele>155</ele>
        <time>2021-03-28T07:36:21Z</time>
      </trkpt>
      <trkpt lat="42.84803" lon="2.78108">
        <ele>155</ele>
        <time>2021-03-28T07:36:21Z</time>
      </trkpt>
      <trkpt lat="42.84802" lon="2.78104">
        <ele>155.3</ele>
        <time>2021-03-28T07:36:23Z</time>
      </trkpt>
      <trkpt lat="42.84802" lon="2.78104">
        <ele>155.3</ele>
        <time>2021-03-28T07:36:23Z</time>
      </trkpt>
      <trkpt lat="42.84799" lon="2.78097">
        <ele>155.5</ele>
        <time>2021-03-28T07:36:25Z</time>
      </trkpt>
      <trkpt lat="42.84799" lon="2.78097">
        <ele>155.5</ele>
        <time>2021-03-28T07:36:25Z</time>
      </trkpt>
      <trkpt lat="42.84797" lon="2.7809">
        <ele>155.6</ele>
        <time>2021-03-28T07:36:27Z</time>
      </trkpt>
      <trkpt lat="42.84797" lon="2.7809">
        <ele>155.6</ele>
        <time>2021-03-28T07:36:27Z</time>
      </trkpt>
      <trkpt lat="42.84795" lon="2.78084">
        <ele>155.8</ele>
        <time>2021-03-28T07:36:28Z</time>
      </trkpt>
      <trkpt lat="42.84795" lon="2.78084">
        <ele>155.8</ele>
        <time>2021-03-28T07:36:28Z</time>
      </trkpt>
      <trkpt lat="42.84793" lon="2.78075">
        <ele>155.8</ele>
        <time>2021-03-28T07:36:30Z</time>
      </trkpt>
      <trkpt lat="42.84793" lon="2.78075">
        <ele>155.8</ele>
        <time>2021-03-28T07:36:30Z</time>
      </trkpt>
      <trkpt lat="42.84791" lon="2.78067">
        <ele>155.7</ele>
        <time>2021-03-28T07:36:31Z</time>
      </trkpt>
      <trkpt lat="42.84791" lon="2.78067">
        <ele>155.7</ele>
        <time>2021-03-28T07:36:31Z</time>
      </trkpt>
      <trkpt lat="42.84789" lon="2.78056">
        <ele>155.6</ele>
        <time>2021-03-28T07:36:33Z</time>
      </trkpt>
      <trkpt lat="42.84789" lon="2.78056">
        <ele>155.6</ele>
        <time>2021-03-28T07:36:33Z</time>
      </trkpt>
      <trkpt lat="42.84787" lon="2.78046">
        <ele>154.6</ele>
        <time>2021-03-28T07:36:34Z</time>
      </trkpt>
      <trkpt lat="42.84787" lon="2.78046">
        <ele>154.6</ele>
        <time>2021-03-28T07:36:34Z</time>
      </trkpt>
      <trkpt lat="42.84785" lon="2.78036">
        <ele>153.7</ele>
        <time>2021-03-28T07:36:35Z</time>
      </trkpt>
      <trkpt lat="42.84785" lon="2.78036">
        <ele>153.7</ele>
        <time>2021-03-28T07:36:35Z</time>
      </trkpt>
      <trkpt lat="42.84784" lon="2.78026">
        <ele>152.8</ele>
        <time>2021-03-28T07:36:36Z</time>
      </trkpt>
      <trkpt lat="42.84784" lon="2.78026">
        <ele>152.8</ele>
        <time>2021-03-28T07:36:36Z</time>
      </trkpt>
      <trkpt lat="42.84782" lon="2.78017">
        <ele>151.9</ele>
        <time>2021-03-28T07:36:37Z</time>
      </trkpt>
      <trkpt lat="42.84782" lon="2.78017">
        <ele>151.9</ele>
        <time>2021-03-28T07:36:37Z</time>
      </trkpt>
      <trkpt lat="42.84782" lon="2.78004">
        <ele>151.2</ele>
        <time>2021-03-28T07:36:39Z</time>
      </trkpt>
      <trkpt lat="42.84782" lon="2.78004">
        <ele>151.2</ele>
        <time>2021-03-28T07:36:39Z</time>
      </trkpt>
      <trkpt lat="42.84781" lon="2.77993">
        <ele>150.6</ele>
        <time>2021-03-28T07:36:40Z</time>
      </trkpt>
      <trkpt lat="42.84781" lon="2.77993">
        <ele>150.6</ele>
        <time>2021-03-28T07:36:40Z</time>
      </trkpt>
      <trkpt lat="42.84781" lon="2.77981">
        <ele>150</ele>
        <time>2021-03-28T07:36:41Z</time>
      </trkpt>
      <trkpt lat="42.84781" lon="2.77981">
        <ele>150</ele>
        <time>2021-03-28T07:36:41Z</time>
      </trkpt>
      <trkpt lat="42.84782" lon="2.77968">
        <ele>149.5</ele>
        <time>2021-03-28T07:36:43Z</time>
      </trkpt>
      <trkpt lat="42.84782" lon="2.77968">
        <ele>149.5</ele>
        <time>2021-03-28T07:36:43Z</time>
      </trkpt>
      <trkpt lat="42.84784" lon="2.77954">
        <ele>149.1</ele>
        <time>2021-03-28T07:36:45Z</time>
      </trkpt>
      <trkpt lat="42.84784" lon="2.77954">
        <ele>149.1</ele>
        <time>2021-03-28T07:36:45Z</time>
      </trkpt>
      <trkpt lat="42.84787" lon="2.77942">
        <ele>148.6</ele>
        <time>2021-03-28T07:36:46Z</time>
      </trkpt>
      <trkpt lat="42.84787" lon="2.77942">
        <ele>148.6</ele>
        <time>2021-03-28T07:36:46Z</time>
      </trkpt>
      <trkpt lat="42.84791" lon="2.77931">
        <ele>148.7</ele>
        <time>2021-03-28T07:36:48Z</time>
      </trkpt>
      <trkpt lat="42.84791" lon="2.77931">
        <ele>148.7</ele>
        <time>2021-03-28T07:36:48Z</time>
      </trkpt>
      <trkpt lat="42.84796" lon="2.7792">
        <ele>149</ele>
        <time>2021-03-28T07:36:50Z</time>
      </trkpt>
      <trkpt lat="42.84796" lon="2.7792">
        <ele>149</ele>
        <time>2021-03-28T07:36:50Z</time>
      </trkpt>
      <trkpt lat="42.848" lon="2.77911">
        <ele>149</ele>
        <time>2021-03-28T07:36:52Z</time>
      </trkpt>
      <trkpt lat="42.848" lon="2.77911">
        <ele>149</ele>
        <time>2021-03-28T07:36:52Z</time>
      </trkpt>
      <trkpt lat="42.84804" lon="2.77903">
        <ele>148.9</ele>
        <time>2021-03-28T07:36:53Z</time>
      </trkpt>
      <trkpt lat="42.84804" lon="2.77903">
        <ele>148.9</ele>
        <time>2021-03-28T07:36:53Z</time>
      </trkpt>
      <trkpt lat="42.84807" lon="2.77897">
        <ele>148.7</ele>
        <time>2021-03-28T07:36:55Z</time>
      </trkpt>
      <trkpt lat="42.84807" lon="2.77897">
        <ele>148.7</ele>
        <time>2021-03-28T07:36:55Z</time>
      </trkpt>
      <trkpt lat="42.8481" lon="2.77892">
        <ele>148.7</ele>
        <time>2021-03-28T07:36:56Z</time>
      </trkpt>
      <trkpt lat="42.8481" lon="2.77892">
        <ele>148.7</ele>
        <time>2021-03-28T07:36:56Z</time>
      </trkpt>
      <trkpt lat="42.84813" lon="2.77888">
        <ele>148.8</ele>
        <time>2021-03-28T07:36:58Z</time>
      </trkpt>
      <trkpt lat="42.84813" lon="2.77888">
        <ele>148.8</ele>
        <time>2021-03-28T07:36:58Z</time>
      </trkpt>
      <trkpt lat="42.84815" lon="2.77884">
        <ele>148.8</ele>
        <time>2021-03-28T07:36:59Z</time>
      </trkpt>
      <trkpt lat="42.84815" lon="2.77884">
        <ele>148.8</ele>
        <time>2021-03-28T07:36:59Z</time>
      </trkpt>
      <trkpt lat="42.84817" lon="2.7788">
        <ele>148.8</ele>
        <time>2021-03-28T07:37:00Z</time>
      </trkpt>
      <trkpt lat="42.84817" lon="2.7788">
        <ele>148.8</ele>
        <time>2021-03-28T07:37:00Z</time>
      </trkpt>
      <trkpt lat="42.84819" lon="2.77877">
        <ele>148.8</ele>
        <time>2021-03-28T07:37:02Z</time>
      </trkpt>
      <trkpt lat="42.84819" lon="2.77877">
        <ele>148.8</ele>
        <time>2021-03-28T07:37:02Z</time>
      </trkpt>
      <trkpt lat="42.84821" lon="2.77874">
        <ele>148.9</ele>
        <time>2021-03-28T07:37:04Z</time>
      </trkpt>
      <trkpt lat="42.84821" lon="2.77874">
        <ele>148.9</ele>
        <time>2021-03-28T07:37:04Z</time>
      </trkpt>
      <trkpt lat="42.84823" lon="2.77871">
        <ele>148.9</ele>
        <time>2021-03-28T07:37:06Z</time>
      </trkpt>
      <trkpt lat="42.84823" lon="2.77871">
        <ele>148.9</ele>
        <time>2021-03-28T07:37:06Z</time>
      </trkpt>
      <trkpt lat="42.84825" lon="2.77868">
        <ele>148.9</ele>
        <time>2021-03-28T07:37:07Z</time>
      </trkpt>
      <trkpt lat="42.84825" lon="2.77868">
        <ele>148.9</ele>
        <time>2021-03-28T07:37:07Z</time>
      </trkpt>
      <trkpt lat="42.84828" lon="2.77865">
        <ele>148.9</ele>
        <time>2021-03-28T07:37:09Z</time>
      </trkpt>
      <trkpt lat="42.84828" lon="2.77865">
        <ele>148.9</ele>
        <time>2021-03-28T07:37:09Z</time>
      </trkpt>
      <trkpt lat="42.8483" lon="2.77863">
        <ele>148.8</ele>
        <time>2021-03-28T07:37:11Z</time>
      </trkpt>
      <trkpt lat="42.8483" lon="2.77863">
        <ele>148.8</ele>
        <time>2021-03-28T07:37:11Z</time>
      </trkpt>
      <trkpt lat="42.84831" lon="2.7786">
        <ele>148.8</ele>
        <time>2021-03-28T07:37:13Z</time>
      </trkpt>
      <trkpt lat="42.84831" lon="2.7786">
        <ele>148.8</ele>
        <time>2021-03-28T07:37:13Z</time>
      </trkpt>
      <trkpt lat="42.84833" lon="2.77858">
        <ele>148.8</ele>
        <time>2021-03-28T07:37:14Z</time>
      </trkpt>
      <trkpt lat="42.84833" lon="2.77858">
        <ele>148.8</ele>
        <time>2021-03-28T07:37:14Z</time>
      </trkpt>
      <trkpt lat="42.84835" lon="2.77855">
        <ele>148.9</ele>
        <time>2021-03-28T07:37:16Z</time>
      </trkpt>
      <trkpt lat="42.84835" lon="2.77855">
        <ele>148.9</ele>
        <time>2021-03-28T07:37:16Z</time>
      </trkpt>
      <trkpt lat="42.84836" lon="2.77853">
        <ele>148.9</ele>
        <time>2021-03-28T07:37:17Z</time>
      </trkpt>
      <trkpt lat="42.84836" lon="2.77853">
        <ele>148.9</ele>
        <time>2021-03-28T07:37:17Z</time>
      </trkpt>
      <trkpt lat="42.84837" lon="2.7785">
        <ele>148.8</ele>
        <time>2021-03-28T07:37:18Z</time>
      </trkpt>
      <trkpt lat="42.84837" lon="2.7785">
        <ele>148.8</ele>
        <time>2021-03-28T07:37:18Z</time>
      </trkpt>
      <trkpt lat="42.84839" lon="2.77847">
        <ele>148.8</ele>
        <time>2021-03-28T07:37:20Z</time>
      </trkpt>
      <trkpt lat="42.84839" lon="2.77847">
        <ele>148.8</ele>
        <time>2021-03-28T07:37:20Z</time>
      </trkpt>
      <trkpt lat="42.8484" lon="2.77844">
        <ele>148.7</ele>
        <time>2021-03-28T07:37:21Z</time>
      </trkpt>
      <trkpt lat="42.8484" lon="2.77844">
        <ele>148.7</ele>
        <time>2021-03-28T07:37:21Z</time>
      </trkpt>
      <trkpt lat="42.84842" lon="2.77839">
        <ele>148.6</ele>
        <time>2021-03-28T07:37:23Z</time>
      </trkpt>
      <trkpt lat="42.84842" lon="2.77839">
        <ele>148.6</ele>
        <time>2021-03-28T07:37:23Z</time>
      </trkpt>
      <trkpt lat="42.84844" lon="2.77833">
        <ele>148.4</ele>
        <time>2021-03-28T07:37:25Z</time>
      </trkpt>
      <trkpt lat="42.84844" lon="2.77833">
        <ele>148.4</ele>
        <time>2021-03-28T07:37:25Z</time>
      </trkpt>
      <trkpt lat="42.84847" lon="2.77827">
        <ele>148.2</ele>
        <time>2021-03-28T07:37:26Z</time>
      </trkpt>
      <trkpt lat="42.84847" lon="2.77827">
        <ele>148.2</ele>
        <time>2021-03-28T07:37:26Z</time>
      </trkpt>
      <trkpt lat="42.84849" lon="2.77822">
        <ele>148.1</ele>
        <time>2021-03-28T07:37:27Z</time>
      </trkpt>
      <trkpt lat="42.84849" lon="2.77822">
        <ele>148.1</ele>
        <time>2021-03-28T07:37:27Z</time>
      </trkpt>
      <trkpt lat="42.84852" lon="2.77815">
        <ele>148</ele>
        <time>2021-03-28T07:37:29Z</time>
      </trkpt>
      <trkpt lat="42.84852" lon="2.77815">
        <ele>148</ele>
        <time>2021-03-28T07:37:29Z</time>
      </trkpt>
      <trkpt lat="42.84855" lon="2.77808">
        <ele>147.9</ele>
        <time>2021-03-28T07:37:31Z</time>
      </trkpt>
      <trkpt lat="42.84855" lon="2.77808">
        <ele>147.9</ele>
        <time>2021-03-28T07:37:31Z</time>
      </trkpt>
      <trkpt lat="42.84858" lon="2.77801">
        <ele>147.6</ele>
        <time>2021-03-28T07:37:33Z</time>
      </trkpt>
      <trkpt lat="42.84858" lon="2.77801">
        <ele>147.6</ele>
        <time>2021-03-28T07:37:33Z</time>
      </trkpt>
      <trkpt lat="42.84862" lon="2.77793">
        <ele>147.2</ele>
        <time>2021-03-28T07:37:35Z</time>
      </trkpt>
      <trkpt lat="42.84862" lon="2.77793">
        <ele>147.2</ele>
        <time>2021-03-28T07:37:35Z</time>
      </trkpt>
      <trkpt lat="42.84865" lon="2.77787">
        <ele>146.9</ele>
        <time>2021-03-28T07:37:36Z</time>
      </trkpt>
      <trkpt lat="42.84865" lon="2.77787">
        <ele>146.9</ele>
        <time>2021-03-28T07:37:36Z</time>
      </trkpt>
      <trkpt lat="42.84869" lon="2.7778">
        <ele>146.7</ele>
        <time>2021-03-28T07:37:38Z</time>
      </trkpt>
      <trkpt lat="42.84869" lon="2.7778">
        <ele>146.7</ele>
        <time>2021-03-28T07:37:38Z</time>
      </trkpt>
      <trkpt lat="42.84873" lon="2.77772">
        <ele>146.7</ele>
        <time>2021-03-28T07:37:40Z</time>
      </trkpt>
      <trkpt lat="42.84873" lon="2.77772">
        <ele>146.7</ele>
        <time>2021-03-28T07:37:40Z</time>
      </trkpt>
      <trkpt lat="42.84877" lon="2.77765">
        <ele>146.6</ele>
        <time>2021-03-28T07:37:42Z</time>
      </trkpt>
      <trkpt lat="42.84877" lon="2.77765">
        <ele>146.6</ele>
        <time>2021-03-28T07:37:42Z</time>
      </trkpt>
      <trkpt lat="42.84881" lon="2.77756">
        <ele>146.3</ele>
        <time>2021-03-28T07:37:44Z</time>
      </trkpt>
      <trkpt lat="42.84881" lon="2.77756">
        <ele>146.3</ele>
        <time>2021-03-28T07:37:44Z</time>
      </trkpt>
      <trkpt lat="42.84884" lon="2.77749">
        <ele>145.9</ele>
        <time>2021-03-28T07:37:45Z</time>
      </trkpt>
      <trkpt lat="42.84884" lon="2.77749">
        <ele>145.9</ele>
        <time>2021-03-28T07:37:45Z</time>
      </trkpt>
      <trkpt lat="42.84889" lon="2.77741">
        <ele>145.7</ele>
        <time>2021-03-28T07:37:47Z</time>
      </trkpt>
      <trkpt lat="42.84889" lon="2.77741">
        <ele>145.7</ele>
        <time>2021-03-28T07:37:47Z</time>
      </trkpt>
      <trkpt lat="42.84893" lon="2.77734">
        <ele>145.6</ele>
        <time>2021-03-28T07:37:48Z</time>
      </trkpt>
      <trkpt lat="42.84893" lon="2.77734">
        <ele>145.6</ele>
        <time>2021-03-28T07:37:48Z</time>
      </trkpt>
      <trkpt lat="42.84899" lon="2.77725">
        <ele>145.5</ele>
        <time>2021-03-28T07:37:50Z</time>
      </trkpt>
      <trkpt lat="42.84899" lon="2.77725">
        <ele>145.5</ele>
        <time>2021-03-28T07:37:50Z</time>
      </trkpt>
      <trkpt lat="42.84903" lon="2.77718">
        <ele>145.4</ele>
        <time>2021-03-28T07:37:51Z</time>
      </trkpt>
      <trkpt lat="42.84903" lon="2.77718">
        <ele>145.4</ele>
        <time>2021-03-28T07:37:51Z</time>
      </trkpt>
      <trkpt lat="42.84907" lon="2.77712">
        <ele>145.3</ele>
        <time>2021-03-28T07:37:52Z</time>
      </trkpt>
      <trkpt lat="42.84907" lon="2.77712">
        <ele>145.3</ele>
        <time>2021-03-28T07:37:52Z</time>
      </trkpt>
      <trkpt lat="42.84911" lon="2.77706">
        <ele>145.2</ele>
        <time>2021-03-28T07:37:54Z</time>
      </trkpt>
      <trkpt lat="42.84911" lon="2.77706">
        <ele>145.2</ele>
        <time>2021-03-28T07:37:54Z</time>
      </trkpt>
      <trkpt lat="42.84916" lon="2.777">
        <ele>145.2</ele>
        <time>2021-03-28T07:37:55Z</time>
      </trkpt>
      <trkpt lat="42.84916" lon="2.777">
        <ele>145.2</ele>
        <time>2021-03-28T07:37:55Z</time>
      </trkpt>
      <trkpt lat="42.84922" lon="2.77694">
        <ele>145.2</ele>
        <time>2021-03-28T07:37:57Z</time>
      </trkpt>
      <trkpt lat="42.84922" lon="2.77694">
        <ele>145.2</ele>
        <time>2021-03-28T07:37:57Z</time>
      </trkpt>
      <trkpt lat="42.84927" lon="2.77689">
        <ele>145</ele>
        <time>2021-03-28T07:37:58Z</time>
      </trkpt>
      <trkpt lat="42.84927" lon="2.77689">
        <ele>145</ele>
        <time>2021-03-28T07:37:58Z</time>
      </trkpt>
      <trkpt lat="42.84935" lon="2.77686">
        <ele>145</ele>
        <time>2021-03-28T07:38:00Z</time>
      </trkpt>
      <trkpt lat="42.84935" lon="2.77686">
        <ele>145</ele>
        <time>2021-03-28T07:38:00Z</time>
      </trkpt>
      <trkpt lat="42.84941" lon="2.77683">
        <ele>145.1</ele>
        <time>2021-03-28T07:38:01Z</time>
      </trkpt>
      <trkpt lat="42.84941" lon="2.77683">
        <ele>145.1</ele>
        <time>2021-03-28T07:38:01Z</time>
      </trkpt>
      <trkpt lat="42.84946" lon="2.77681">
        <ele>145</ele>
        <time>2021-03-28T07:38:02Z</time>
      </trkpt>
      <trkpt lat="42.84946" lon="2.77681">
        <ele>145</ele>
        <time>2021-03-28T07:38:02Z</time>
      </trkpt>
      <trkpt lat="42.84953" lon="2.77678">
        <ele>144.7</ele>
        <time>2021-03-28T07:38:04Z</time>
      </trkpt>
      <trkpt lat="42.84953" lon="2.77678">
        <ele>144.7</ele>
        <time>2021-03-28T07:38:04Z</time>
      </trkpt>
      <trkpt lat="42.84959" lon="2.77676">
        <ele>144.3</ele>
        <time>2021-03-28T07:38:05Z</time>
      </trkpt>
      <trkpt lat="42.84959" lon="2.77676">
        <ele>144.3</ele>
        <time>2021-03-28T07:38:05Z</time>
      </trkpt>
      <trkpt lat="42.84965" lon="2.77673">
        <ele>143.9</ele>
        <time>2021-03-28T07:38:06Z</time>
      </trkpt>
      <trkpt lat="42.84965" lon="2.77673">
        <ele>143.9</ele>
        <time>2021-03-28T07:38:06Z</time>
      </trkpt>
      <trkpt lat="42.8497" lon="2.77671">
        <ele>143.5</ele>
        <time>2021-03-28T07:38:07Z</time>
      </trkpt>
      <trkpt lat="42.8497" lon="2.77671">
        <ele>143.5</ele>
        <time>2021-03-28T07:38:07Z</time>
      </trkpt>
      <trkpt lat="42.84977" lon="2.77667">
        <ele>143.1</ele>
        <time>2021-03-28T07:38:09Z</time>
      </trkpt>
      <trkpt lat="42.84977" lon="2.77667">
        <ele>143.1</ele>
        <time>2021-03-28T07:38:09Z</time>
      </trkpt>
      <trkpt lat="42.84985" lon="2.77663">
        <ele>142.7</ele>
        <time>2021-03-28T07:38:11Z</time>
      </trkpt>
      <trkpt lat="42.84985" lon="2.77663">
        <ele>142.7</ele>
        <time>2021-03-28T07:38:11Z</time>
      </trkpt>
      <trkpt lat="42.84995" lon="2.7766">
        <ele>142.3</ele>
        <time>2021-03-28T07:38:13Z</time>
      </trkpt>
      <trkpt lat="42.84995" lon="2.7766">
        <ele>142.3</ele>
        <time>2021-03-28T07:38:13Z</time>
      </trkpt>
      <trkpt lat="42.85005" lon="2.77654">
        <ele>141.5</ele>
        <time>2021-03-28T07:38:15Z</time>
      </trkpt>
      <trkpt lat="42.85005" lon="2.77654">
        <ele>141.5</ele>
        <time>2021-03-28T07:38:15Z</time>
      </trkpt>
      <trkpt lat="42.85014" lon="2.77646">
        <ele>140.2</ele>
        <time>2021-03-28T07:38:17Z</time>
      </trkpt>
      <trkpt lat="42.85014" lon="2.77646">
        <ele>140.2</ele>
        <time>2021-03-28T07:38:17Z</time>
      </trkpt>
      <trkpt lat="42.8502" lon="2.77638">
        <ele>139.3</ele>
        <time>2021-03-28T07:38:18Z</time>
      </trkpt>
      <trkpt lat="42.8502" lon="2.77638">
        <ele>139.3</ele>
        <time>2021-03-28T07:38:18Z</time>
      </trkpt>
      <trkpt lat="42.85027" lon="2.77629">
        <ele>139.7</ele>
        <time>2021-03-28T07:38:20Z</time>
      </trkpt>
      <trkpt lat="42.85027" lon="2.77629">
        <ele>139.7</ele>
        <time>2021-03-28T07:38:20Z</time>
      </trkpt>
      <trkpt lat="42.85034" lon="2.77618">
        <ele>140.7</ele>
        <time>2021-03-28T07:38:22Z</time>
      </trkpt>
      <trkpt lat="42.85034" lon="2.77618">
        <ele>140.7</ele>
        <time>2021-03-28T07:38:22Z</time>
      </trkpt>
      <trkpt lat="42.85039" lon="2.77609">
        <ele>141.5</ele>
        <time>2021-03-28T07:38:23Z</time>
      </trkpt>
      <trkpt lat="42.85039" lon="2.77609">
        <ele>141.5</ele>
        <time>2021-03-28T07:38:23Z</time>
      </trkpt>
      <trkpt lat="42.85045" lon="2.776">
        <ele>142</ele>
        <time>2021-03-28T07:38:25Z</time>
      </trkpt>
      <trkpt lat="42.85045" lon="2.776">
        <ele>142</ele>
        <time>2021-03-28T07:38:25Z</time>
      </trkpt>
      <trkpt lat="42.85049" lon="2.77592">
        <ele>142.4</ele>
        <time>2021-03-28T07:38:26Z</time>
      </trkpt>
      <trkpt lat="42.85049" lon="2.77592">
        <ele>142.4</ele>
        <time>2021-03-28T07:38:26Z</time>
      </trkpt>
      <trkpt lat="42.85053" lon="2.77583">
        <ele>142.9</ele>
        <time>2021-03-28T07:38:28Z</time>
      </trkpt>
      <trkpt lat="42.85053" lon="2.77583">
        <ele>142.9</ele>
        <time>2021-03-28T07:38:28Z</time>
      </trkpt>
      <trkpt lat="42.85056" lon="2.77576">
        <ele>143</ele>
        <time>2021-03-28T07:38:29Z</time>
      </trkpt>
      <trkpt lat="42.85056" lon="2.77576">
        <ele>143</ele>
        <time>2021-03-28T07:38:29Z</time>
      </trkpt>
      <trkpt lat="42.85059" lon="2.77568">
        <ele>143.1</ele>
        <time>2021-03-28T07:38:31Z</time>
      </trkpt>
      <trkpt lat="42.85059" lon="2.77568">
        <ele>143.1</ele>
        <time>2021-03-28T07:38:31Z</time>
      </trkpt>
      <trkpt lat="42.85062" lon="2.7756">
        <ele>143.2</ele>
        <time>2021-03-28T07:38:33Z</time>
      </trkpt>
      <trkpt lat="42.85062" lon="2.7756">
        <ele>143.2</ele>
        <time>2021-03-28T07:38:33Z</time>
      </trkpt>
      <trkpt lat="42.85065" lon="2.77553">
        <ele>143.4</ele>
        <time>2021-03-28T07:38:34Z</time>
      </trkpt>
      <trkpt lat="42.85065" lon="2.77553">
        <ele>143.4</ele>
        <time>2021-03-28T07:38:34Z</time>
      </trkpt>
      <trkpt lat="42.85067" lon="2.77547">
        <ele>143.7</ele>
        <time>2021-03-28T07:38:35Z</time>
      </trkpt>
      <trkpt lat="42.85067" lon="2.77547">
        <ele>143.7</ele>
        <time>2021-03-28T07:38:35Z</time>
      </trkpt>
      <trkpt lat="42.8507" lon="2.7754">
        <ele>144.1</ele>
        <time>2021-03-28T07:38:37Z</time>
      </trkpt>
      <trkpt lat="42.8507" lon="2.7754">
        <ele>144.1</ele>
        <time>2021-03-28T07:38:37Z</time>
      </trkpt>
      <trkpt lat="42.85071" lon="2.77534">
        <ele>144.4</ele>
        <time>2021-03-28T07:38:38Z</time>
      </trkpt>
      <trkpt lat="42.85071" lon="2.77534">
        <ele>144.4</ele>
        <time>2021-03-28T07:38:38Z</time>
      </trkpt>
      <trkpt lat="42.85073" lon="2.77528">
        <ele>144.6</ele>
        <time>2021-03-28T07:38:39Z</time>
      </trkpt>
      <trkpt lat="42.85073" lon="2.77528">
        <ele>144.6</ele>
        <time>2021-03-28T07:38:39Z</time>
      </trkpt>
      <trkpt lat="42.85075" lon="2.77524">
        <ele>144.9</ele>
        <time>2021-03-28T07:38:40Z</time>
      </trkpt>
      <trkpt lat="42.85075" lon="2.77524">
        <ele>144.9</ele>
        <time>2021-03-28T07:38:40Z</time>
      </trkpt>
      <trkpt lat="42.85078" lon="2.77518">
        <ele>145.2</ele>
        <time>2021-03-28T07:38:42Z</time>
      </trkpt>
      <trkpt lat="42.85078" lon="2.77518">
        <ele>145.2</ele>
        <time>2021-03-28T07:38:42Z</time>
      </trkpt>
      <trkpt lat="42.8508" lon="2.77513">
        <ele>145.5</ele>
        <time>2021-03-28T07:38:43Z</time>
      </trkpt>
      <trkpt lat="42.8508" lon="2.77513">
        <ele>145.5</ele>
        <time>2021-03-28T07:38:43Z</time>
      </trkpt>
      <trkpt lat="42.85082" lon="2.77507">
        <ele>145.7</ele>
        <time>2021-03-28T07:38:45Z</time>
      </trkpt>
      <trkpt lat="42.85082" lon="2.77507">
        <ele>145.7</ele>
        <time>2021-03-28T07:38:45Z</time>
      </trkpt>
      <trkpt lat="42.85083" lon="2.77502">
        <ele>145.9</ele>
        <time>2021-03-28T07:38:46Z</time>
      </trkpt>
      <trkpt lat="42.85083" lon="2.77502">
        <ele>145.9</ele>
        <time>2021-03-28T07:38:46Z</time>
      </trkpt>
      <trkpt lat="42.85085" lon="2.77495">
        <ele>146</ele>
        <time>2021-03-28T07:38:48Z</time>
      </trkpt>
      <trkpt lat="42.85085" lon="2.77495">
        <ele>146</ele>
        <time>2021-03-28T07:38:48Z</time>
      </trkpt>
      <trkpt lat="42.85087" lon="2.7749">
        <ele>146</ele>
        <time>2021-03-28T07:38:49Z</time>
      </trkpt>
      <trkpt lat="42.85087" lon="2.7749">
        <ele>146</ele>
        <time>2021-03-28T07:38:49Z</time>
      </trkpt>
      <trkpt lat="42.85088" lon="2.77485">
        <ele>146.1</ele>
        <time>2021-03-28T07:38:50Z</time>
      </trkpt>
      <trkpt lat="42.85088" lon="2.77485">
        <ele>146.1</ele>
        <time>2021-03-28T07:38:50Z</time>
      </trkpt>
      <trkpt lat="42.8509" lon="2.77481">
        <ele>146.2</ele>
        <time>2021-03-28T07:38:52Z</time>
      </trkpt>
      <trkpt lat="42.8509" lon="2.77481">
        <ele>146.2</ele>
        <time>2021-03-28T07:38:52Z</time>
      </trkpt>
      <trkpt lat="42.85092" lon="2.77477">
        <ele>146.3</ele>
        <time>2021-03-28T07:38:53Z</time>
      </trkpt>
      <trkpt lat="42.85092" lon="2.77477">
        <ele>146.3</ele>
        <time>2021-03-28T07:38:53Z</time>
      </trkpt>
      <trkpt lat="42.85095" lon="2.77472">
        <ele>146.4</ele>
        <time>2021-03-28T07:38:55Z</time>
      </trkpt>
      <trkpt lat="42.85095" lon="2.77472">
        <ele>146.4</ele>
        <time>2021-03-28T07:38:55Z</time>
      </trkpt>
      <trkpt lat="42.85097" lon="2.77465">
        <ele>146.7</ele>
        <time>2021-03-28T07:38:57Z</time>
      </trkpt>
      <trkpt lat="42.85097" lon="2.77465">
        <ele>146.7</ele>
        <time>2021-03-28T07:38:57Z</time>
      </trkpt>
      <trkpt lat="42.85099" lon="2.77459">
        <ele>147.1</ele>
        <time>2021-03-28T07:38:59Z</time>
      </trkpt>
      <trkpt lat="42.85099" lon="2.77459">
        <ele>147.1</ele>
        <time>2021-03-28T07:38:59Z</time>
      </trkpt>
      <trkpt lat="42.85102" lon="2.77452">
        <ele>147.4</ele>
        <time>2021-03-28T07:39:01Z</time>
      </trkpt>
      <trkpt lat="42.85102" lon="2.77452">
        <ele>147.4</ele>
        <time>2021-03-28T07:39:01Z</time>
      </trkpt>
      <trkpt lat="42.85104" lon="2.77446">
        <ele>147.7</ele>
        <time>2021-03-28T07:39:03Z</time>
      </trkpt>
      <trkpt lat="42.85104" lon="2.77446">
        <ele>147.7</ele>
        <time>2021-03-28T07:39:03Z</time>
      </trkpt>
      <trkpt lat="42.85106" lon="2.7744">
        <ele>148</ele>
        <time>2021-03-28T07:39:05Z</time>
      </trkpt>
      <trkpt lat="42.85106" lon="2.7744">
        <ele>148</ele>
        <time>2021-03-28T07:39:05Z</time>
      </trkpt>
      <trkpt lat="42.85107" lon="2.77434">
        <ele>148.3</ele>
        <time>2021-03-28T07:39:06Z</time>
      </trkpt>
      <trkpt lat="42.85107" lon="2.77434">
        <ele>148.3</ele>
        <time>2021-03-28T07:39:06Z</time>
      </trkpt>
      <trkpt lat="42.85108" lon="2.77429">
        <ele>148.6</ele>
        <time>2021-03-28T07:39:07Z</time>
      </trkpt>
      <trkpt lat="42.85108" lon="2.77429">
        <ele>148.6</ele>
        <time>2021-03-28T07:39:07Z</time>
      </trkpt>
      <trkpt lat="42.85109" lon="2.77425">
        <ele>148.7</ele>
        <time>2021-03-28T07:39:08Z</time>
      </trkpt>
      <trkpt lat="42.85109" lon="2.77425">
        <ele>148.7</ele>
        <time>2021-03-28T07:39:08Z</time>
      </trkpt>
      <trkpt lat="42.8511" lon="2.77421">
        <ele>148.9</ele>
        <time>2021-03-28T07:39:09Z</time>
      </trkpt>
      <trkpt lat="42.8511" lon="2.77421">
        <ele>148.9</ele>
        <time>2021-03-28T07:39:09Z</time>
      </trkpt>
      <trkpt lat="42.85111" lon="2.77417">
        <ele>149</ele>
        <time>2021-03-28T07:39:10Z</time>
      </trkpt>
      <trkpt lat="42.85111" lon="2.77417">
        <ele>149</ele>
        <time>2021-03-28T07:39:10Z</time>
      </trkpt>
      <trkpt lat="42.85112" lon="2.77413">
        <ele>149.1</ele>
        <time>2021-03-28T07:39:11Z</time>
      </trkpt>
      <trkpt lat="42.85112" lon="2.77413">
        <ele>149.1</ele>
        <time>2021-03-28T07:39:11Z</time>
      </trkpt>
      <trkpt lat="42.85113" lon="2.77408">
        <ele>149.3</ele>
        <time>2021-03-28T07:39:13Z</time>
      </trkpt>
      <trkpt lat="42.85113" lon="2.77408">
        <ele>149.3</ele>
        <time>2021-03-28T07:39:13Z</time>
      </trkpt>
      <trkpt lat="42.85114" lon="2.77403">
        <ele>149.5</ele>
        <time>2021-03-28T07:39:15Z</time>
      </trkpt>
      <trkpt lat="42.85114" lon="2.77403">
        <ele>149.5</ele>
        <time>2021-03-28T07:39:15Z</time>
      </trkpt>
      <trkpt lat="42.85115" lon="2.77396">
        <ele>149.7</ele>
        <time>2021-03-28T07:39:17Z</time>
      </trkpt>
      <trkpt lat="42.85115" lon="2.77396">
        <ele>149.7</ele>
        <time>2021-03-28T07:39:17Z</time>
      </trkpt>
      <trkpt lat="42.85116" lon="2.7739">
        <ele>149.9</ele>
        <time>2021-03-28T07:39:18Z</time>
      </trkpt>
      <trkpt lat="42.85116" lon="2.7739">
        <ele>149.9</ele>
        <time>2021-03-28T07:39:18Z</time>
      </trkpt>
      <trkpt lat="42.85117" lon="2.77386">
        <ele>150.2</ele>
        <time>2021-03-28T07:39:19Z</time>
      </trkpt>
      <trkpt lat="42.85117" lon="2.77386">
        <ele>150.2</ele>
        <time>2021-03-28T07:39:19Z</time>
      </trkpt>
      <trkpt lat="42.85118" lon="2.7738">
        <ele>150.5</ele>
        <time>2021-03-28T07:39:21Z</time>
      </trkpt>
      <trkpt lat="42.85118" lon="2.7738">
        <ele>150.5</ele>
        <time>2021-03-28T07:39:21Z</time>
      </trkpt>
      <trkpt lat="42.8512" lon="2.77374">
        <ele>150.9</ele>
        <time>2021-03-28T07:39:23Z</time>
      </trkpt>
      <trkpt lat="42.8512" lon="2.77374">
        <ele>150.9</ele>
        <time>2021-03-28T07:39:23Z</time>
      </trkpt>
      <trkpt lat="42.85122" lon="2.77369">
        <ele>151.2</ele>
        <time>2021-03-28T07:39:25Z</time>
      </trkpt>
      <trkpt lat="42.85122" lon="2.77369">
        <ele>151.2</ele>
        <time>2021-03-28T07:39:25Z</time>
      </trkpt>
      <trkpt lat="42.85124" lon="2.77363">
        <ele>151.4</ele>
        <time>2021-03-28T07:39:27Z</time>
      </trkpt>
      <trkpt lat="42.85124" lon="2.77363">
        <ele>151.4</ele>
        <time>2021-03-28T07:39:27Z</time>
      </trkpt>
      <trkpt lat="42.85126" lon="2.77358">
        <ele>151.7</ele>
        <time>2021-03-28T07:39:29Z</time>
      </trkpt>
      <trkpt lat="42.85126" lon="2.77358">
        <ele>151.7</ele>
        <time>2021-03-28T07:39:29Z</time>
      </trkpt>
      <trkpt lat="42.85127" lon="2.77353">
        <ele>152.1</ele>
        <time>2021-03-28T07:39:30Z</time>
      </trkpt>
      <trkpt lat="42.85127" lon="2.77353">
        <ele>152.1</ele>
        <time>2021-03-28T07:39:30Z</time>
      </trkpt>
      <trkpt lat="42.85128" lon="2.77347">
        <ele>152.4</ele>
        <time>2021-03-28T07:39:32Z</time>
      </trkpt>
      <trkpt lat="42.85128" lon="2.77347">
        <ele>152.4</ele>
        <time>2021-03-28T07:39:32Z</time>
      </trkpt>
      <trkpt lat="42.8513" lon="2.77343">
        <ele>152.7</ele>
        <time>2021-03-28T07:39:33Z</time>
      </trkpt>
      <trkpt lat="42.8513" lon="2.77343">
        <ele>152.7</ele>
        <time>2021-03-28T07:39:33Z</time>
      </trkpt>
      <trkpt lat="42.85131" lon="2.77338">
        <ele>153</ele>
        <time>2021-03-28T07:39:35Z</time>
      </trkpt>
      <trkpt lat="42.85131" lon="2.77338">
        <ele>153</ele>
        <time>2021-03-28T07:39:35Z</time>
      </trkpt>
      <trkpt lat="42.85132" lon="2.77334">
        <ele>153.2</ele>
        <time>2021-03-28T07:39:36Z</time>
      </trkpt>
      <trkpt lat="42.85132" lon="2.77334">
        <ele>153.2</ele>
        <time>2021-03-28T07:39:36Z</time>
      </trkpt>
      <trkpt lat="42.85133" lon="2.77329">
        <ele>153.5</ele>
        <time>2021-03-28T07:39:37Z</time>
      </trkpt>
      <trkpt lat="42.85133" lon="2.77329">
        <ele>153.5</ele>
        <time>2021-03-28T07:39:37Z</time>
      </trkpt>
      <trkpt lat="42.85134" lon="2.77326">
        <ele>153.7</ele>
        <time>2021-03-28T07:39:38Z</time>
      </trkpt>
      <trkpt lat="42.85134" lon="2.77326">
        <ele>153.7</ele>
        <time>2021-03-28T07:39:38Z</time>
      </trkpt>
      <trkpt lat="42.85134" lon="2.77323">
        <ele>153.9</ele>
        <time>2021-03-28T07:39:39Z</time>
      </trkpt>
      <trkpt lat="42.85134" lon="2.77323">
        <ele>153.9</ele>
        <time>2021-03-28T07:39:39Z</time>
      </trkpt>
      <trkpt lat="42.85136" lon="2.77318">
        <ele>154.2</ele>
        <time>2021-03-28T07:39:41Z</time>
      </trkpt>
      <trkpt lat="42.85136" lon="2.77318">
        <ele>154.2</ele>
        <time>2021-03-28T07:39:41Z</time>
      </trkpt>
      <trkpt lat="42.85138" lon="2.77313">
        <ele>154.5</ele>
        <time>2021-03-28T07:39:43Z</time>
      </trkpt>
      <trkpt lat="42.85138" lon="2.77313">
        <ele>154.5</ele>
        <time>2021-03-28T07:39:43Z</time>
      </trkpt>
      <trkpt lat="42.8514" lon="2.77308">
        <ele>154.8</ele>
        <time>2021-03-28T07:39:44Z</time>
      </trkpt>
      <trkpt lat="42.8514" lon="2.77308">
        <ele>154.8</ele>
        <time>2021-03-28T07:39:44Z</time>
      </trkpt>
      <trkpt lat="42.85142" lon="2.77304">
        <ele>155.1</ele>
        <time>2021-03-28T07:39:45Z</time>
      </trkpt>
      <trkpt lat="42.85142" lon="2.77304">
        <ele>155.1</ele>
        <time>2021-03-28T07:39:45Z</time>
      </trkpt>
      <trkpt lat="42.85145" lon="2.773">
        <ele>155.5</ele>
        <time>2021-03-28T07:39:47Z</time>
      </trkpt>
      <trkpt lat="42.85145" lon="2.773">
        <ele>155.5</ele>
        <time>2021-03-28T07:39:47Z</time>
      </trkpt>
      <trkpt lat="42.85148" lon="2.77296">
        <ele>155.8</ele>
        <time>2021-03-28T07:39:49Z</time>
      </trkpt>
      <trkpt lat="42.85148" lon="2.77296">
        <ele>155.8</ele>
        <time>2021-03-28T07:39:49Z</time>
      </trkpt>
      <trkpt lat="42.85152" lon="2.77293">
        <ele>156.1</ele>
        <time>2021-03-28T07:39:51Z</time>
      </trkpt>
      <trkpt lat="42.85152" lon="2.77293">
        <ele>156.1</ele>
        <time>2021-03-28T07:39:51Z</time>
      </trkpt>
      <trkpt lat="42.85155" lon="2.77291">
        <ele>156.4</ele>
        <time>2021-03-28T07:39:52Z</time>
      </trkpt>
      <trkpt lat="42.85155" lon="2.77291">
        <ele>156.4</ele>
        <time>2021-03-28T07:39:52Z</time>
      </trkpt>
      <trkpt lat="42.85159" lon="2.77289">
        <ele>156.6</ele>
        <time>2021-03-28T07:39:53Z</time>
      </trkpt>
      <trkpt lat="42.85159" lon="2.77289">
        <ele>156.6</ele>
        <time>2021-03-28T07:39:53Z</time>
      </trkpt>
      <trkpt lat="42.85162" lon="2.77288">
        <ele>156.8</ele>
        <time>2021-03-28T07:39:54Z</time>
      </trkpt>
      <trkpt lat="42.85162" lon="2.77288">
        <ele>156.8</ele>
        <time>2021-03-28T07:39:54Z</time>
      </trkpt>
      <trkpt lat="42.85166" lon="2.77287">
        <ele>157</ele>
        <time>2021-03-28T07:39:56Z</time>
      </trkpt>
      <trkpt lat="42.85166" lon="2.77287">
        <ele>157</ele>
        <time>2021-03-28T07:39:56Z</time>
      </trkpt>
      <trkpt lat="42.8517" lon="2.77286">
        <ele>157.2</ele>
        <time>2021-03-28T07:39:58Z</time>
      </trkpt>
      <trkpt lat="42.8517" lon="2.77286">
        <ele>157.2</ele>
        <time>2021-03-28T07:39:58Z</time>
      </trkpt>
      <trkpt lat="42.85174" lon="2.77285">
        <ele>157.2</ele>
        <time>2021-03-28T07:39:59Z</time>
      </trkpt>
      <trkpt lat="42.85174" lon="2.77285">
        <ele>157.2</ele>
        <time>2021-03-28T07:39:59Z</time>
      </trkpt>
      <trkpt lat="42.85178" lon="2.77284">
        <ele>157.3</ele>
        <time>2021-03-28T07:40:01Z</time>
      </trkpt>
      <trkpt lat="42.85178" lon="2.77284">
        <ele>157.3</ele>
        <time>2021-03-28T07:40:01Z</time>
      </trkpt>
      <trkpt lat="42.85183" lon="2.77284">
        <ele>157.4</ele>
        <time>2021-03-28T07:40:03Z</time>
      </trkpt>
      <trkpt lat="42.85183" lon="2.77284">
        <ele>157.4</ele>
        <time>2021-03-28T07:40:03Z</time>
      </trkpt>
      <trkpt lat="42.85187" lon="2.77284">
        <ele>157.4</ele>
        <time>2021-03-28T07:40:04Z</time>
      </trkpt>
      <trkpt lat="42.85187" lon="2.77284">
        <ele>157.4</ele>
        <time>2021-03-28T07:40:04Z</time>
      </trkpt>
      <trkpt lat="42.8519" lon="2.77283">
        <ele>157.4</ele>
        <time>2021-03-28T07:40:05Z</time>
      </trkpt>
      <trkpt lat="42.8519" lon="2.77283">
        <ele>157.4</ele>
        <time>2021-03-28T07:40:05Z</time>
      </trkpt>
      <trkpt lat="42.85194" lon="2.77283">
        <ele>157.5</ele>
        <time>2021-03-28T07:40:07Z</time>
      </trkpt>
      <trkpt lat="42.85194" lon="2.77283">
        <ele>157.5</ele>
        <time>2021-03-28T07:40:07Z</time>
      </trkpt>
      <trkpt lat="42.85197" lon="2.77282">
        <ele>157.6</ele>
        <time>2021-03-28T07:40:08Z</time>
      </trkpt>
      <trkpt lat="42.85197" lon="2.77282">
        <ele>157.6</ele>
        <time>2021-03-28T07:40:08Z</time>
      </trkpt>
      <trkpt lat="42.85201" lon="2.77281">
        <ele>157.7</ele>
        <time>2021-03-28T07:40:10Z</time>
      </trkpt>
      <trkpt lat="42.85201" lon="2.77281">
        <ele>157.7</ele>
        <time>2021-03-28T07:40:10Z</time>
      </trkpt>
      <trkpt lat="42.85205" lon="2.77279">
        <ele>157.8</ele>
        <time>2021-03-28T07:40:12Z</time>
      </trkpt>
      <trkpt lat="42.85205" lon="2.77279">
        <ele>157.8</ele>
        <time>2021-03-28T07:40:12Z</time>
      </trkpt>
      <trkpt lat="42.85209" lon="2.77279">
        <ele>157.9</ele>
        <time>2021-03-28T07:40:13Z</time>
      </trkpt>
      <trkpt lat="42.85209" lon="2.77279">
        <ele>157.9</ele>
        <time>2021-03-28T07:40:13Z</time>
      </trkpt>
      <trkpt lat="42.85213" lon="2.77277">
        <ele>158.1</ele>
        <time>2021-03-28T07:40:15Z</time>
      </trkpt>
      <trkpt lat="42.85213" lon="2.77277">
        <ele>158.1</ele>
        <time>2021-03-28T07:40:15Z</time>
      </trkpt>
      <trkpt lat="42.85218" lon="2.77276">
        <ele>158.3</ele>
        <time>2021-03-28T07:40:17Z</time>
      </trkpt>
      <trkpt lat="42.85218" lon="2.77276">
        <ele>158.3</ele>
        <time>2021-03-28T07:40:17Z</time>
      </trkpt>
      <trkpt lat="42.85221" lon="2.77275">
        <ele>158.5</ele>
        <time>2021-03-28T07:40:18Z</time>
      </trkpt>
      <trkpt lat="42.85221" lon="2.77275">
        <ele>158.5</ele>
        <time>2021-03-28T07:40:18Z</time>
      </trkpt>
      <trkpt lat="42.85225" lon="2.77275">
        <ele>158.6</ele>
        <time>2021-03-28T07:40:20Z</time>
      </trkpt>
      <trkpt lat="42.85225" lon="2.77275">
        <ele>158.6</ele>
        <time>2021-03-28T07:40:20Z</time>
      </trkpt>
      <trkpt lat="42.8523" lon="2.77273">
        <ele>159</ele>
        <time>2021-03-28T07:40:22Z</time>
      </trkpt>
      <trkpt lat="42.8523" lon="2.77273">
        <ele>159</ele>
        <time>2021-03-28T07:40:22Z</time>
      </trkpt>
      <trkpt lat="42.85234" lon="2.77271">
        <ele>159.6</ele>
        <time>2021-03-28T07:40:24Z</time>
      </trkpt>
      <trkpt lat="42.85234" lon="2.77271">
        <ele>159.6</ele>
        <time>2021-03-28T07:40:24Z</time>
      </trkpt>
      <trkpt lat="42.85239" lon="2.7727">
        <ele>160.1</ele>
        <time>2021-03-28T07:40:26Z</time>
      </trkpt>
      <trkpt lat="42.85239" lon="2.7727">
        <ele>160.1</ele>
        <time>2021-03-28T07:40:26Z</time>
      </trkpt>
      <trkpt lat="42.85243" lon="2.77269">
        <ele>160.7</ele>
        <time>2021-03-28T07:40:27Z</time>
      </trkpt>
      <trkpt lat="42.85243" lon="2.77269">
        <ele>160.7</ele>
        <time>2021-03-28T07:40:27Z</time>
      </trkpt>
      <trkpt lat="42.85248" lon="2.77267">
        <ele>161.2</ele>
        <time>2021-03-28T07:40:29Z</time>
      </trkpt>
      <trkpt lat="42.85248" lon="2.77267">
        <ele>161.2</ele>
        <time>2021-03-28T07:40:29Z</time>
      </trkpt>
      <trkpt lat="42.85251" lon="2.77267">
        <ele>161.6</ele>
        <time>2021-03-28T07:40:30Z</time>
      </trkpt>
      <trkpt lat="42.85251" lon="2.77267">
        <ele>161.6</ele>
        <time>2021-03-28T07:40:30Z</time>
      </trkpt>
      <trkpt lat="42.85256" lon="2.77266">
        <ele>161.8</ele>
        <time>2021-03-28T07:40:32Z</time>
      </trkpt>
      <trkpt lat="42.85256" lon="2.77266">
        <ele>161.8</ele>
        <time>2021-03-28T07:40:32Z</time>
      </trkpt>
      <trkpt lat="42.8526" lon="2.77265">
        <ele>161.9</ele>
        <time>2021-03-28T07:40:34Z</time>
      </trkpt>
      <trkpt lat="42.8526" lon="2.77265">
        <ele>161.9</ele>
        <time>2021-03-28T07:40:34Z</time>
      </trkpt>
      <trkpt lat="42.85264" lon="2.77265">
        <ele>162</ele>
        <time>2021-03-28T07:40:36Z</time>
      </trkpt>
      <trkpt lat="42.85264" lon="2.77265">
        <ele>162</ele>
        <time>2021-03-28T07:40:36Z</time>
      </trkpt>
      <trkpt lat="42.85268" lon="2.77264">
        <ele>162.2</ele>
        <time>2021-03-28T07:40:37Z</time>
      </trkpt>
      <trkpt lat="42.85268" lon="2.77264">
        <ele>162.2</ele>
        <time>2021-03-28T07:40:37Z</time>
      </trkpt>
      <trkpt lat="42.85272" lon="2.77263">
        <ele>162.4</ele>
        <time>2021-03-28T07:40:38Z</time>
      </trkpt>
      <trkpt lat="42.85272" lon="2.77263">
        <ele>162.4</ele>
        <time>2021-03-28T07:40:38Z</time>
      </trkpt>
      <trkpt lat="42.85275" lon="2.77262">
        <ele>162.6</ele>
        <time>2021-03-28T07:40:39Z</time>
      </trkpt>
      <trkpt lat="42.85275" lon="2.77262">
        <ele>162.6</ele>
        <time>2021-03-28T07:40:39Z</time>
      </trkpt>
      <trkpt lat="42.85279" lon="2.77261">
        <ele>162.7</ele>
        <time>2021-03-28T07:40:41Z</time>
      </trkpt>
      <trkpt lat="42.85279" lon="2.77261">
        <ele>162.7</ele>
        <time>2021-03-28T07:40:41Z</time>
      </trkpt>
      <trkpt lat="42.85282" lon="2.77261">
        <ele>162.6</ele>
        <time>2021-03-28T07:40:42Z</time>
      </trkpt>
      <trkpt lat="42.85282" lon="2.77261">
        <ele>162.6</ele>
        <time>2021-03-28T07:40:42Z</time>
      </trkpt>
      <trkpt lat="42.85286" lon="2.77259">
        <ele>162.9</ele>
        <time>2021-03-28T07:40:44Z</time>
      </trkpt>
      <trkpt lat="42.85286" lon="2.77259">
        <ele>162.9</ele>
        <time>2021-03-28T07:40:44Z</time>
      </trkpt>
      <trkpt lat="42.8529" lon="2.77258">
        <ele>163</ele>
        <time>2021-03-28T07:40:46Z</time>
      </trkpt>
      <trkpt lat="42.8529" lon="2.77258">
        <ele>163</ele>
        <time>2021-03-28T07:40:46Z</time>
      </trkpt>
      <trkpt lat="42.85294" lon="2.77257">
        <ele>163.2</ele>
        <time>2021-03-28T07:40:47Z</time>
      </trkpt>
      <trkpt lat="42.85294" lon="2.77257">
        <ele>163.2</ele>
        <time>2021-03-28T07:40:47Z</time>
      </trkpt>
      <trkpt lat="42.85297" lon="2.77255">
        <ele>163.5</ele>
        <time>2021-03-28T07:40:48Z</time>
      </trkpt>
      <trkpt lat="42.85297" lon="2.77255">
        <ele>163.5</ele>
        <time>2021-03-28T07:40:48Z</time>
      </trkpt>
      <trkpt lat="42.85301" lon="2.77254">
        <ele>164</ele>
        <time>2021-03-28T07:40:50Z</time>
      </trkpt>
      <trkpt lat="42.85301" lon="2.77254">
        <ele>164</ele>
        <time>2021-03-28T07:40:50Z</time>
      </trkpt>
      <trkpt lat="42.85304" lon="2.77252">
        <ele>164.5</ele>
        <time>2021-03-28T07:40:52Z</time>
      </trkpt>
      <trkpt lat="42.85304" lon="2.77252">
        <ele>164.5</ele>
        <time>2021-03-28T07:40:52Z</time>
      </trkpt>
      <trkpt lat="42.85307" lon="2.7725">
        <ele>164.6</ele>
        <time>2021-03-28T07:40:53Z</time>
      </trkpt>
      <trkpt lat="42.85307" lon="2.7725">
        <ele>164.6</ele>
        <time>2021-03-28T07:40:53Z</time>
      </trkpt>
      <trkpt lat="42.8531" lon="2.77248">
        <ele>164.6</ele>
        <time>2021-03-28T07:40:54Z</time>
      </trkpt>
      <trkpt lat="42.8531" lon="2.77248">
        <ele>164.6</ele>
        <time>2021-03-28T07:40:54Z</time>
      </trkpt>
      <trkpt lat="42.85313" lon="2.77246">
        <ele>164.7</ele>
        <time>2021-03-28T07:40:55Z</time>
      </trkpt>
      <trkpt lat="42.85313" lon="2.77246">
        <ele>164.7</ele>
        <time>2021-03-28T07:40:55Z</time>
      </trkpt>
      <trkpt lat="42.85316" lon="2.77243">
        <ele>165</ele>
        <time>2021-03-28T07:40:57Z</time>
      </trkpt>
      <trkpt lat="42.85316" lon="2.77243">
        <ele>165</ele>
        <time>2021-03-28T07:40:57Z</time>
      </trkpt>
      <trkpt lat="42.85319" lon="2.7724">
        <ele>165.4</ele>
        <time>2021-03-28T07:40:58Z</time>
      </trkpt>
      <trkpt lat="42.85319" lon="2.7724">
        <ele>165.4</ele>
        <time>2021-03-28T07:40:58Z</time>
      </trkpt>
      <trkpt lat="42.85321" lon="2.77238">
        <ele>165.7</ele>
        <time>2021-03-28T07:40:59Z</time>
      </trkpt>
      <trkpt lat="42.85321" lon="2.77238">
        <ele>165.7</ele>
        <time>2021-03-28T07:40:59Z</time>
      </trkpt>
      <trkpt lat="42.85324" lon="2.77235">
        <ele>165.8</ele>
        <time>2021-03-28T07:41:00Z</time>
      </trkpt>
      <trkpt lat="42.85324" lon="2.77235">
        <ele>165.8</ele>
        <time>2021-03-28T07:41:00Z</time>
      </trkpt>
      <trkpt lat="42.85327" lon="2.77233">
        <ele>165.9</ele>
        <time>2021-03-28T07:41:02Z</time>
      </trkpt>
      <trkpt lat="42.85327" lon="2.77233">
        <ele>165.9</ele>
        <time>2021-03-28T07:41:02Z</time>
      </trkpt>
      <trkpt lat="42.8533" lon="2.77231">
        <ele>165.8</ele>
        <time>2021-03-28T07:41:04Z</time>
      </trkpt>
      <trkpt lat="42.8533" lon="2.77231">
        <ele>165.8</ele>
        <time>2021-03-28T07:41:04Z</time>
      </trkpt>
      <trkpt lat="42.85333" lon="2.77228">
        <ele>165.8</ele>
        <time>2021-03-28T07:41:05Z</time>
      </trkpt>
      <trkpt lat="42.85333" lon="2.77228">
        <ele>165.8</ele>
        <time>2021-03-28T07:41:05Z</time>
      </trkpt>
      <trkpt lat="42.85336" lon="2.77226">
        <ele>166.9</ele>
        <time>2021-03-28T07:41:06Z</time>
      </trkpt>
      <trkpt lat="42.85336" lon="2.77226">
        <ele>166.9</ele>
        <time>2021-03-28T07:41:06Z</time>
      </trkpt>
      <trkpt lat="42.85339" lon="2.77224">
        <ele>168</ele>
        <time>2021-03-28T07:41:08Z</time>
      </trkpt>
      <trkpt lat="42.85339" lon="2.77224">
        <ele>168</ele>
        <time>2021-03-28T07:41:08Z</time>
      </trkpt>
      <trkpt lat="42.85342" lon="2.77221">
        <ele>169.1</ele>
        <time>2021-03-28T07:41:10Z</time>
      </trkpt>
      <trkpt lat="42.85342" lon="2.77221">
        <ele>169.1</ele>
        <time>2021-03-28T07:41:10Z</time>
      </trkpt>
      <trkpt lat="42.85345" lon="2.77218">
        <ele>169.9</ele>
        <time>2021-03-28T07:41:11Z</time>
      </trkpt>
      <trkpt lat="42.85345" lon="2.77218">
        <ele>169.9</ele>
        <time>2021-03-28T07:41:11Z</time>
      </trkpt>
      <trkpt lat="42.85347" lon="2.77216">
        <ele>170.6</ele>
        <time>2021-03-28T07:41:12Z</time>
      </trkpt>
      <trkpt lat="42.85347" lon="2.77216">
        <ele>170.6</ele>
        <time>2021-03-28T07:41:12Z</time>
      </trkpt>
      <trkpt lat="42.8535" lon="2.77213">
        <ele>171.1</ele>
        <time>2021-03-28T07:41:14Z</time>
      </trkpt>
      <trkpt lat="42.8535" lon="2.77213">
        <ele>171.1</ele>
        <time>2021-03-28T07:41:14Z</time>
      </trkpt>
      <trkpt lat="42.85352" lon="2.7721">
        <ele>171.5</ele>
        <time>2021-03-28T07:41:15Z</time>
      </trkpt>
      <trkpt lat="42.85352" lon="2.7721">
        <ele>171.5</ele>
        <time>2021-03-28T07:41:15Z</time>
      </trkpt>
      <trkpt lat="42.85353" lon="2.77207">
        <ele>171.6</ele>
        <time>2021-03-28T07:41:16Z</time>
      </trkpt>
      <trkpt lat="42.85353" lon="2.77207">
        <ele>171.6</ele>
        <time>2021-03-28T07:41:16Z</time>
      </trkpt>
      <trkpt lat="42.85355" lon="2.77204">
        <ele>171.8</ele>
        <time>2021-03-28T07:41:18Z</time>
      </trkpt>
      <trkpt lat="42.85355" lon="2.77204">
        <ele>171.8</ele>
        <time>2021-03-28T07:41:18Z</time>
      </trkpt>
      <trkpt lat="42.85357" lon="2.772">
        <ele>171.9</ele>
        <time>2021-03-28T07:41:19Z</time>
      </trkpt>
      <trkpt lat="42.85357" lon="2.772">
        <ele>171.9</ele>
        <time>2021-03-28T07:41:19Z</time>
      </trkpt>
      <trkpt lat="42.85358" lon="2.77196">
        <ele>171.9</ele>
        <time>2021-03-28T07:41:21Z</time>
      </trkpt>
      <trkpt lat="42.85358" lon="2.77196">
        <ele>171.9</ele>
        <time>2021-03-28T07:41:21Z</time>
      </trkpt>
      <trkpt lat="42.8536" lon="2.77191">
        <ele>171.7</ele>
        <time>2021-03-28T07:41:23Z</time>
      </trkpt>
      <trkpt lat="42.8536" lon="2.77191">
        <ele>171.7</ele>
        <time>2021-03-28T07:41:23Z</time>
      </trkpt>
      <trkpt lat="42.85361" lon="2.77187">
        <ele>171.6</ele>
        <time>2021-03-28T07:41:24Z</time>
      </trkpt>
      <trkpt lat="42.85361" lon="2.77187">
        <ele>171.6</ele>
        <time>2021-03-28T07:41:24Z</time>
      </trkpt>
      <trkpt lat="42.85362" lon="2.77184">
        <ele>171.8</ele>
        <time>2021-03-28T07:41:25Z</time>
      </trkpt>
      <trkpt lat="42.85362" lon="2.77184">
        <ele>171.8</ele>
        <time>2021-03-28T07:41:25Z</time>
      </trkpt>
      <trkpt lat="42.85363" lon="2.7718">
        <ele>171.9</ele>
        <time>2021-03-28T07:41:26Z</time>
      </trkpt>
      <trkpt lat="42.85363" lon="2.7718">
        <ele>171.9</ele>
        <time>2021-03-28T07:41:26Z</time>
      </trkpt>
      <trkpt lat="42.85365" lon="2.77177">
        <ele>172.1</ele>
        <time>2021-03-28T07:41:28Z</time>
      </trkpt>
      <trkpt lat="42.85365" lon="2.77177">
        <ele>172.1</ele>
        <time>2021-03-28T07:41:28Z</time>
      </trkpt>
      <trkpt lat="42.85366" lon="2.77174">
        <ele>172.3</ele>
        <time>2021-03-28T07:41:29Z</time>
      </trkpt>
      <trkpt lat="42.85366" lon="2.77174">
        <ele>172.3</ele>
        <time>2021-03-28T07:41:29Z</time>
      </trkpt>
      <trkpt lat="42.85367" lon="2.7717">
        <ele>172.4</ele>
        <time>2021-03-28T07:41:31Z</time>
      </trkpt>
      <trkpt lat="42.85367" lon="2.7717">
        <ele>172.4</ele>
        <time>2021-03-28T07:41:31Z</time>
      </trkpt>
      <trkpt lat="42.85368" lon="2.77166">
        <ele>172.6</ele>
        <time>2021-03-28T07:41:32Z</time>
      </trkpt>
      <trkpt lat="42.85368" lon="2.77166">
        <ele>172.6</ele>
        <time>2021-03-28T07:41:32Z</time>
      </trkpt>
      <trkpt lat="42.85369" lon="2.77162">
        <ele>172.9</ele>
        <time>2021-03-28T07:41:33Z</time>
      </trkpt>
      <trkpt lat="42.85369" lon="2.77162">
        <ele>172.9</ele>
        <time>2021-03-28T07:41:33Z</time>
      </trkpt>
      <trkpt lat="42.8537" lon="2.77158">
        <ele>173.3</ele>
        <time>2021-03-28T07:41:35Z</time>
      </trkpt>
      <trkpt lat="42.8537" lon="2.77158">
        <ele>173.3</ele>
        <time>2021-03-28T07:41:35Z</time>
      </trkpt>
      <trkpt lat="42.85371" lon="2.77154">
        <ele>173.6</ele>
        <time>2021-03-28T07:41:36Z</time>
      </trkpt>
      <trkpt lat="42.85371" lon="2.77154">
        <ele>173.6</ele>
        <time>2021-03-28T07:41:36Z</time>
      </trkpt>
      <trkpt lat="42.85372" lon="2.7715">
        <ele>174</ele>
        <time>2021-03-28T07:41:38Z</time>
      </trkpt>
      <trkpt lat="42.85372" lon="2.7715">
        <ele>174</ele>
        <time>2021-03-28T07:41:38Z</time>
      </trkpt>
      <trkpt lat="42.85372" lon="2.77146">
        <ele>174.3</ele>
        <time>2021-03-28T07:41:39Z</time>
      </trkpt>
      <trkpt lat="42.85372" lon="2.77146">
        <ele>174.3</ele>
        <time>2021-03-28T07:41:39Z</time>
      </trkpt>
      <trkpt lat="42.85372" lon="2.77142">
        <ele>174.7</ele>
        <time>2021-03-28T07:41:41Z</time>
      </trkpt>
      <trkpt lat="42.85372" lon="2.77142">
        <ele>174.7</ele>
        <time>2021-03-28T07:41:41Z</time>
      </trkpt>
      <trkpt lat="42.85373" lon="2.77137">
        <ele>175</ele>
        <time>2021-03-28T07:41:43Z</time>
      </trkpt>
      <trkpt lat="42.85373" lon="2.77137">
        <ele>175</ele>
        <time>2021-03-28T07:41:43Z</time>
      </trkpt>
      <trkpt lat="42.85373" lon="2.77131">
        <ele>175.3</ele>
        <time>2021-03-28T07:41:45Z</time>
      </trkpt>
      <trkpt lat="42.85373" lon="2.77131">
        <ele>175.3</ele>
        <time>2021-03-28T07:41:45Z</time>
      </trkpt>
      <trkpt lat="42.85373" lon="2.77126">
        <ele>175.5</ele>
        <time>2021-03-28T07:41:47Z</time>
      </trkpt>
      <trkpt lat="42.85373" lon="2.77126">
        <ele>175.5</ele>
        <time>2021-03-28T07:41:47Z</time>
      </trkpt>
      <trkpt lat="42.85374" lon="2.7712">
        <ele>175.8</ele>
        <time>2021-03-28T07:41:49Z</time>
      </trkpt>
      <trkpt lat="42.85374" lon="2.7712">
        <ele>175.8</ele>
        <time>2021-03-28T07:41:49Z</time>
      </trkpt>
      <trkpt lat="42.85374" lon="2.77115">
        <ele>176.1</ele>
        <time>2021-03-28T07:41:50Z</time>
      </trkpt>
      <trkpt lat="42.85374" lon="2.77115">
        <ele>176.1</ele>
        <time>2021-03-28T07:41:50Z</time>
      </trkpt>
      <trkpt lat="42.85373" lon="2.7711">
        <ele>176.4</ele>
        <time>2021-03-28T07:41:51Z</time>
      </trkpt>
      <trkpt lat="42.85373" lon="2.7711">
        <ele>176.4</ele>
        <time>2021-03-28T07:41:51Z</time>
      </trkpt>
      <trkpt lat="42.85373" lon="2.77106">
        <ele>176.7</ele>
        <time>2021-03-28T07:41:52Z</time>
      </trkpt>
      <trkpt lat="42.85373" lon="2.77106">
        <ele>176.7</ele>
        <time>2021-03-28T07:41:52Z</time>
      </trkpt>
      <trkpt lat="42.85372" lon="2.77102">
        <ele>177</ele>
        <time>2021-03-28T07:41:54Z</time>
      </trkpt>
      <trkpt lat="42.85372" lon="2.77102">
        <ele>177</ele>
        <time>2021-03-28T07:41:54Z</time>
      </trkpt>
      <trkpt lat="42.85372" lon="2.77096">
        <ele>177.4</ele>
        <time>2021-03-28T07:41:56Z</time>
      </trkpt>
      <trkpt lat="42.85372" lon="2.77096">
        <ele>177.4</ele>
        <time>2021-03-28T07:41:56Z</time>
      </trkpt>
      <trkpt lat="42.85372" lon="2.77091">
        <ele>177.8</ele>
        <time>2021-03-28T07:41:58Z</time>
      </trkpt>
      <trkpt lat="42.85372" lon="2.77091">
        <ele>177.8</ele>
        <time>2021-03-28T07:41:58Z</time>
      </trkpt>
      <trkpt lat="42.85371" lon="2.77085">
        <ele>178.2</ele>
        <time>2021-03-28T07:42:00Z</time>
      </trkpt>
      <trkpt lat="42.85371" lon="2.77085">
        <ele>178.2</ele>
        <time>2021-03-28T07:42:00Z</time>
      </trkpt>
      <trkpt lat="42.8537" lon="2.77079">
        <ele>178.4</ele>
        <time>2021-03-28T07:42:02Z</time>
      </trkpt>
      <trkpt lat="42.8537" lon="2.77079">
        <ele>178.4</ele>
        <time>2021-03-28T07:42:02Z</time>
      </trkpt>
      <trkpt lat="42.8537" lon="2.77074">
        <ele>178.5</ele>
        <time>2021-03-28T07:42:03Z</time>
      </trkpt>
      <trkpt lat="42.8537" lon="2.77074">
        <ele>178.5</ele>
        <time>2021-03-28T07:42:03Z</time>
      </trkpt>
      <trkpt lat="42.8537" lon="2.7707">
        <ele>178.6</ele>
        <time>2021-03-28T07:42:04Z</time>
      </trkpt>
      <trkpt lat="42.8537" lon="2.7707">
        <ele>178.6</ele>
        <time>2021-03-28T07:42:04Z</time>
      </trkpt>
      <trkpt lat="42.85369" lon="2.77066">
        <ele>178.8</ele>
        <time>2021-03-28T07:42:06Z</time>
      </trkpt>
      <trkpt lat="42.85369" lon="2.77066">
        <ele>178.8</ele>
        <time>2021-03-28T07:42:06Z</time>
      </trkpt>
      <trkpt lat="42.85368" lon="2.77061">
        <ele>178.9</ele>
        <time>2021-03-28T07:42:08Z</time>
      </trkpt>
      <trkpt lat="42.85368" lon="2.77061">
        <ele>178.9</ele>
        <time>2021-03-28T07:42:08Z</time>
      </trkpt>
      <trkpt lat="42.85368" lon="2.77056">
        <ele>179</ele>
        <time>2021-03-28T07:42:09Z</time>
      </trkpt>
      <trkpt lat="42.85368" lon="2.77056">
        <ele>179</ele>
        <time>2021-03-28T07:42:09Z</time>
      </trkpt>
      <trkpt lat="42.85367" lon="2.77051">
        <ele>179.3</ele>
        <time>2021-03-28T07:42:11Z</time>
      </trkpt>
      <trkpt lat="42.85367" lon="2.77051">
        <ele>179.3</ele>
        <time>2021-03-28T07:42:11Z</time>
      </trkpt>
      <trkpt lat="42.85367" lon="2.77047">
        <ele>179.5</ele>
        <time>2021-03-28T07:42:12Z</time>
      </trkpt>
      <trkpt lat="42.85367" lon="2.77047">
        <ele>179.5</ele>
        <time>2021-03-28T07:42:12Z</time>
      </trkpt>
      <trkpt lat="42.85366" lon="2.77042">
        <ele>179.8</ele>
        <time>2021-03-28T07:42:14Z</time>
      </trkpt>
      <trkpt lat="42.85366" lon="2.77042">
        <ele>179.8</ele>
        <time>2021-03-28T07:42:14Z</time>
      </trkpt>
      <trkpt lat="42.85366" lon="2.77037">
        <ele>180</ele>
        <time>2021-03-28T07:42:16Z</time>
      </trkpt>
      <trkpt lat="42.85366" lon="2.77037">
        <ele>180</ele>
        <time>2021-03-28T07:42:16Z</time>
      </trkpt>
      <trkpt lat="42.85365" lon="2.77031">
        <ele>180.3</ele>
        <time>2021-03-28T07:42:18Z</time>
      </trkpt>
      <trkpt lat="42.85365" lon="2.77031">
        <ele>180.3</ele>
        <time>2021-03-28T07:42:18Z</time>
      </trkpt>
      <trkpt lat="42.85365" lon="2.77026">
        <ele>180.5</ele>
        <time>2021-03-28T07:42:19Z</time>
      </trkpt>
      <trkpt lat="42.85365" lon="2.77026">
        <ele>180.5</ele>
        <time>2021-03-28T07:42:19Z</time>
      </trkpt>
      <trkpt lat="42.85364" lon="2.7702">
        <ele>180.7</ele>
        <time>2021-03-28T07:42:21Z</time>
      </trkpt>
      <trkpt lat="42.85364" lon="2.7702">
        <ele>180.7</ele>
        <time>2021-03-28T07:42:21Z</time>
      </trkpt>
      <trkpt lat="42.85363" lon="2.77015">
        <ele>180.8</ele>
        <time>2021-03-28T07:42:22Z</time>
      </trkpt>
      <trkpt lat="42.85363" lon="2.77015">
        <ele>180.8</ele>
        <time>2021-03-28T07:42:22Z</time>
      </trkpt>
      <trkpt lat="42.85362" lon="2.7701">
        <ele>180.9</ele>
        <time>2021-03-28T07:42:23Z</time>
      </trkpt>
      <trkpt lat="42.85362" lon="2.7701">
        <ele>180.9</ele>
        <time>2021-03-28T07:42:23Z</time>
      </trkpt>
      <trkpt lat="42.85362" lon="2.77006">
        <ele>180.9</ele>
        <time>2021-03-28T07:42:25Z</time>
      </trkpt>
      <trkpt lat="42.85362" lon="2.77006">
        <ele>180.9</ele>
        <time>2021-03-28T07:42:25Z</time>
      </trkpt>
      <trkpt lat="42.85362" lon="2.77001">
        <ele>181</ele>
        <time>2021-03-28T07:42:26Z</time>
      </trkpt>
      <trkpt lat="42.85362" lon="2.77001">
        <ele>181</ele>
        <time>2021-03-28T07:42:26Z</time>
      </trkpt>
      <trkpt lat="42.85362" lon="2.76996">
        <ele>181.2</ele>
        <time>2021-03-28T07:42:28Z</time>
      </trkpt>
      <trkpt lat="42.85362" lon="2.76996">
        <ele>181.2</ele>
        <time>2021-03-28T07:42:28Z</time>
      </trkpt>
      <trkpt lat="42.85362" lon="2.76991">
        <ele>181.6</ele>
        <time>2021-03-28T07:42:30Z</time>
      </trkpt>
      <trkpt lat="42.85362" lon="2.76991">
        <ele>181.6</ele>
        <time>2021-03-28T07:42:30Z</time>
      </trkpt>
      <trkpt lat="42.85362" lon="2.76987">
        <ele>181.9</ele>
        <time>2021-03-28T07:42:31Z</time>
      </trkpt>
      <trkpt lat="42.85362" lon="2.76987">
        <ele>181.9</ele>
        <time>2021-03-28T07:42:31Z</time>
      </trkpt>
      <trkpt lat="42.85361" lon="2.76982">
        <ele>182.3</ele>
        <time>2021-03-28T07:42:33Z</time>
      </trkpt>
      <trkpt lat="42.85361" lon="2.76982">
        <ele>182.3</ele>
        <time>2021-03-28T07:42:33Z</time>
      </trkpt>
      <trkpt lat="42.85361" lon="2.76977">
        <ele>182.7</ele>
        <time>2021-03-28T07:42:35Z</time>
      </trkpt>
      <trkpt lat="42.85361" lon="2.76977">
        <ele>182.7</ele>
        <time>2021-03-28T07:42:35Z</time>
      </trkpt>
      <trkpt lat="42.85361" lon="2.76971">
        <ele>183.2</ele>
        <time>2021-03-28T07:42:37Z</time>
      </trkpt>
      <trkpt lat="42.85361" lon="2.76971">
        <ele>183.2</ele>
        <time>2021-03-28T07:42:37Z</time>
      </trkpt>
      <trkpt lat="42.8536" lon="2.76966">
        <ele>183.5</ele>
        <time>2021-03-28T07:42:38Z</time>
      </trkpt>
      <trkpt lat="42.8536" lon="2.76966">
        <ele>183.5</ele>
        <time>2021-03-28T07:42:38Z</time>
      </trkpt>
      <trkpt lat="42.8536" lon="2.76961">
        <ele>183.9</ele>
        <time>2021-03-28T07:42:40Z</time>
      </trkpt>
      <trkpt lat="42.8536" lon="2.76961">
        <ele>183.9</ele>
        <time>2021-03-28T07:42:40Z</time>
      </trkpt>
      <trkpt lat="42.8536" lon="2.76956">
        <ele>184.3</ele>
        <time>2021-03-28T07:42:41Z</time>
      </trkpt>
      <trkpt lat="42.8536" lon="2.76956">
        <ele>184.3</ele>
        <time>2021-03-28T07:42:41Z</time>
      </trkpt>
      <trkpt lat="42.85359" lon="2.76953">
        <ele>184.5</ele>
        <time>2021-03-28T07:42:42Z</time>
      </trkpt>
      <trkpt lat="42.85359" lon="2.76953">
        <ele>184.5</ele>
        <time>2021-03-28T07:42:42Z</time>
      </trkpt>
      <trkpt lat="42.85359" lon="2.76949">
        <ele>184.8</ele>
        <time>2021-03-28T07:42:44Z</time>
      </trkpt>
      <trkpt lat="42.85359" lon="2.76949">
        <ele>184.8</ele>
        <time>2021-03-28T07:42:44Z</time>
      </trkpt>
      <trkpt lat="42.85358" lon="2.76945">
        <ele>185.1</ele>
        <time>2021-03-28T07:42:45Z</time>
      </trkpt>
      <trkpt lat="42.85358" lon="2.76945">
        <ele>185.1</ele>
        <time>2021-03-28T07:42:45Z</time>
      </trkpt>
      <trkpt lat="42.85358" lon="2.76941">
        <ele>185.4</ele>
        <time>2021-03-28T07:42:46Z</time>
      </trkpt>
      <trkpt lat="42.85358" lon="2.76941">
        <ele>185.4</ele>
        <time>2021-03-28T07:42:46Z</time>
      </trkpt>
      <trkpt lat="42.85357" lon="2.76937">
        <ele>185.6</ele>
        <time>2021-03-28T07:42:48Z</time>
      </trkpt>
      <trkpt lat="42.85357" lon="2.76937">
        <ele>185.6</ele>
        <time>2021-03-28T07:42:48Z</time>
      </trkpt>
      <trkpt lat="42.85357" lon="2.76933">
        <ele>185.8</ele>
        <time>2021-03-28T07:42:50Z</time>
      </trkpt>
      <trkpt lat="42.85357" lon="2.76933">
        <ele>185.8</ele>
        <time>2021-03-28T07:42:50Z</time>
      </trkpt>
      <trkpt lat="42.85356" lon="2.76928">
        <ele>186</ele>
        <time>2021-03-28T07:42:51Z</time>
      </trkpt>
      <trkpt lat="42.85356" lon="2.76928">
        <ele>186</ele>
        <time>2021-03-28T07:42:51Z</time>
      </trkpt>
      <trkpt lat="42.85355" lon="2.76923">
        <ele>186.2</ele>
        <time>2021-03-28T07:42:52Z</time>
      </trkpt>
      <trkpt lat="42.85355" lon="2.76923">
        <ele>186.2</ele>
        <time>2021-03-28T07:42:52Z</time>
      </trkpt>
      <trkpt lat="42.85354" lon="2.76918">
        <ele>186.5</ele>
        <time>2021-03-28T07:42:54Z</time>
      </trkpt>
      <trkpt lat="42.85354" lon="2.76918">
        <ele>186.5</ele>
        <time>2021-03-28T07:42:54Z</time>
      </trkpt>
      <trkpt lat="42.85353" lon="2.76914">
        <ele>186.8</ele>
        <time>2021-03-28T07:42:55Z</time>
      </trkpt>
      <trkpt lat="42.85353" lon="2.76914">
        <ele>186.8</ele>
        <time>2021-03-28T07:42:55Z</time>
      </trkpt>
      <trkpt lat="42.85352" lon="2.7691">
        <ele>187.2</ele>
        <time>2021-03-28T07:42:56Z</time>
      </trkpt>
      <trkpt lat="42.85352" lon="2.7691">
        <ele>187.2</ele>
        <time>2021-03-28T07:42:56Z</time>
      </trkpt>
      <trkpt lat="42.85351" lon="2.76907">
        <ele>187.5</ele>
        <time>2021-03-28T07:42:57Z</time>
      </trkpt>
      <trkpt lat="42.85351" lon="2.76907">
        <ele>187.5</ele>
        <time>2021-03-28T07:42:57Z</time>
      </trkpt>
      <trkpt lat="42.85349" lon="2.76902">
        <ele>187.9</ele>
        <time>2021-03-28T07:42:59Z</time>
      </trkpt>
      <trkpt lat="42.85349" lon="2.76902">
        <ele>187.9</ele>
        <time>2021-03-28T07:42:59Z</time>
      </trkpt>
      <trkpt lat="42.85348" lon="2.76898">
        <ele>188.2</ele>
        <time>2021-03-28T07:43:00Z</time>
      </trkpt>
      <trkpt lat="42.85348" lon="2.76898">
        <ele>188.2</ele>
        <time>2021-03-28T07:43:00Z</time>
      </trkpt>
      <trkpt lat="42.85347" lon="2.76895">
        <ele>188.4</ele>
        <time>2021-03-28T07:43:01Z</time>
      </trkpt>
      <trkpt lat="42.85347" lon="2.76895">
        <ele>188.4</ele>
        <time>2021-03-28T07:43:01Z</time>
      </trkpt>
      <trkpt lat="42.85345" lon="2.76892">
        <ele>188.7</ele>
        <time>2021-03-28T07:43:02Z</time>
      </trkpt>
      <trkpt lat="42.85345" lon="2.76892">
        <ele>188.7</ele>
        <time>2021-03-28T07:43:02Z</time>
      </trkpt>
      <trkpt lat="42.85344" lon="2.76888">
        <ele>188.9</ele>
        <time>2021-03-28T07:43:04Z</time>
      </trkpt>
      <trkpt lat="42.85344" lon="2.76888">
        <ele>188.9</ele>
        <time>2021-03-28T07:43:04Z</time>
      </trkpt>
      <trkpt lat="42.85343" lon="2.76884">
        <ele>189.1</ele>
        <time>2021-03-28T07:43:06Z</time>
      </trkpt>
      <trkpt lat="42.85343" lon="2.76884">
        <ele>189.1</ele>
        <time>2021-03-28T07:43:06Z</time>
      </trkpt>
      <trkpt lat="42.85342" lon="2.7688">
        <ele>189.2</ele>
        <time>2021-03-28T07:43:07Z</time>
      </trkpt>
      <trkpt lat="42.85342" lon="2.7688">
        <ele>189.2</ele>
        <time>2021-03-28T07:43:07Z</time>
      </trkpt>
      <trkpt lat="42.85341" lon="2.76876">
        <ele>189.2</ele>
        <time>2021-03-28T07:43:09Z</time>
      </trkpt>
      <trkpt lat="42.85341" lon="2.76876">
        <ele>189.2</ele>
        <time>2021-03-28T07:43:09Z</time>
      </trkpt>
      <trkpt lat="42.8534" lon="2.76872">
        <ele>189.2</ele>
        <time>2021-03-28T07:43:10Z</time>
      </trkpt>
      <trkpt lat="42.8534" lon="2.76872">
        <ele>189.2</ele>
        <time>2021-03-28T07:43:10Z</time>
      </trkpt>
      <trkpt lat="42.85338" lon="2.76867">
        <ele>189.1</ele>
        <time>2021-03-28T07:43:12Z</time>
      </trkpt>
      <trkpt lat="42.85338" lon="2.76867">
        <ele>189.1</ele>
        <time>2021-03-28T07:43:12Z</time>
      </trkpt>
      <trkpt lat="42.85338" lon="2.76863">
        <ele>188.8</ele>
        <time>2021-03-28T07:43:13Z</time>
      </trkpt>
      <trkpt lat="42.85338" lon="2.76863">
        <ele>188.8</ele>
        <time>2021-03-28T07:43:13Z</time>
      </trkpt>
      <trkpt lat="42.85337" lon="2.76859">
        <ele>188.8</ele>
        <time>2021-03-28T07:43:14Z</time>
      </trkpt>
      <trkpt lat="42.85337" lon="2.76859">
        <ele>188.8</ele>
        <time>2021-03-28T07:43:14Z</time>
      </trkpt>
      <trkpt lat="42.85335" lon="2.76854">
        <ele>188.9</ele>
        <time>2021-03-28T07:43:16Z</time>
      </trkpt>
      <trkpt lat="42.85335" lon="2.76854">
        <ele>188.9</ele>
        <time>2021-03-28T07:43:16Z</time>
      </trkpt>
      <trkpt lat="42.85333" lon="2.76849">
        <ele>189.1</ele>
        <time>2021-03-28T07:43:18Z</time>
      </trkpt>
      <trkpt lat="42.85333" lon="2.76849">
        <ele>189.1</ele>
        <time>2021-03-28T07:43:18Z</time>
      </trkpt>
      <trkpt lat="42.85331" lon="2.76844">
        <ele>189.8</ele>
        <time>2021-03-28T07:43:19Z</time>
      </trkpt>
      <trkpt lat="42.85331" lon="2.76844">
        <ele>189.8</ele>
        <time>2021-03-28T07:43:19Z</time>
      </trkpt>
      <trkpt lat="42.8533" lon="2.7684">
        <ele>190.3</ele>
        <time>2021-03-28T07:43:20Z</time>
      </trkpt>
      <trkpt lat="42.8533" lon="2.7684">
        <ele>190.3</ele>
        <time>2021-03-28T07:43:20Z</time>
      </trkpt>
      <trkpt lat="42.85328" lon="2.76836">
        <ele>190.9</ele>
        <time>2021-03-28T07:43:21Z</time>
      </trkpt>
      <trkpt lat="42.85328" lon="2.76836">
        <ele>190.9</ele>
        <time>2021-03-28T07:43:21Z</time>
      </trkpt>
      <trkpt lat="42.85326" lon="2.76831">
        <ele>191.6</ele>
        <time>2021-03-28T07:43:23Z</time>
      </trkpt>
      <trkpt lat="42.85326" lon="2.76831">
        <ele>191.6</ele>
        <time>2021-03-28T07:43:23Z</time>
      </trkpt>
      <trkpt lat="42.85324" lon="2.76828">
        <ele>192.1</ele>
        <time>2021-03-28T07:43:24Z</time>
      </trkpt>
      <trkpt lat="42.85324" lon="2.76828">
        <ele>192.1</ele>
        <time>2021-03-28T07:43:24Z</time>
      </trkpt>
      <trkpt lat="42.85322" lon="2.76824">
        <ele>192.4</ele>
        <time>2021-03-28T07:43:25Z</time>
      </trkpt>
      <trkpt lat="42.85322" lon="2.76824">
        <ele>192.4</ele>
        <time>2021-03-28T07:43:25Z</time>
      </trkpt>
      <trkpt lat="42.85321" lon="2.7682">
        <ele>192.5</ele>
        <time>2021-03-28T07:43:27Z</time>
      </trkpt>
      <trkpt lat="42.85321" lon="2.7682">
        <ele>192.5</ele>
        <time>2021-03-28T07:43:27Z</time>
      </trkpt>
      <trkpt lat="42.85319" lon="2.76816">
        <ele>192.7</ele>
        <time>2021-03-28T07:43:29Z</time>
      </trkpt>
      <trkpt lat="42.85319" lon="2.76816">
        <ele>192.7</ele>
        <time>2021-03-28T07:43:29Z</time>
      </trkpt>
      <trkpt lat="42.85316" lon="2.76812">
        <ele>192.9</ele>
        <time>2021-03-28T07:43:31Z</time>
      </trkpt>
      <trkpt lat="42.85316" lon="2.76812">
        <ele>192.9</ele>
        <time>2021-03-28T07:43:31Z</time>
      </trkpt>
      <trkpt lat="42.85315" lon="2.76808">
        <ele>193</ele>
        <time>2021-03-28T07:43:32Z</time>
      </trkpt>
      <trkpt lat="42.85315" lon="2.76808">
        <ele>193</ele>
        <time>2021-03-28T07:43:32Z</time>
      </trkpt>
      <trkpt lat="42.85312" lon="2.76804">
        <ele>193.1</ele>
        <time>2021-03-28T07:43:34Z</time>
      </trkpt>
      <trkpt lat="42.85312" lon="2.76804">
        <ele>193.1</ele>
        <time>2021-03-28T07:43:34Z</time>
      </trkpt>
      <trkpt lat="42.8531" lon="2.76798">
        <ele>193.2</ele>
        <time>2021-03-28T07:43:36Z</time>
      </trkpt>
      <trkpt lat="42.8531" lon="2.76798">
        <ele>193.2</ele>
        <time>2021-03-28T07:43:36Z</time>
      </trkpt>
      <trkpt lat="42.85308" lon="2.76794">
        <ele>193.1</ele>
        <time>2021-03-28T07:43:37Z</time>
      </trkpt>
      <trkpt lat="42.85308" lon="2.76794">
        <ele>193.1</ele>
        <time>2021-03-28T07:43:37Z</time>
      </trkpt>
      <trkpt lat="42.85305" lon="2.7679">
        <ele>192.8</ele>
        <time>2021-03-28T07:43:38Z</time>
      </trkpt>
      <trkpt lat="42.85305" lon="2.7679">
        <ele>192.8</ele>
        <time>2021-03-28T07:43:38Z</time>
      </trkpt>
      <trkpt lat="42.85303" lon="2.76786">
        <ele>193.5</ele>
        <time>2021-03-28T07:43:40Z</time>
      </trkpt>
      <trkpt lat="42.85303" lon="2.76786">
        <ele>193.5</ele>
        <time>2021-03-28T07:43:40Z</time>
      </trkpt>
      <trkpt lat="42.85301" lon="2.76782">
        <ele>194.2</ele>
        <time>2021-03-28T07:43:41Z</time>
      </trkpt>
      <trkpt lat="42.85301" lon="2.76782">
        <ele>194.2</ele>
        <time>2021-03-28T07:43:41Z</time>
      </trkpt>
      <trkpt lat="42.85299" lon="2.76778">
        <ele>194.6</ele>
        <time>2021-03-28T07:43:42Z</time>
      </trkpt>
      <trkpt lat="42.85299" lon="2.76778">
        <ele>194.6</ele>
        <time>2021-03-28T07:43:42Z</time>
      </trkpt>
      <trkpt lat="42.85297" lon="2.76774">
        <ele>195.5</ele>
        <time>2021-03-28T07:43:44Z</time>
      </trkpt>
      <trkpt lat="42.85297" lon="2.76774">
        <ele>195.5</ele>
        <time>2021-03-28T07:43:44Z</time>
      </trkpt>
      <trkpt lat="42.85295" lon="2.7677">
        <ele>196.5</ele>
        <time>2021-03-28T07:43:46Z</time>
      </trkpt>
      <trkpt lat="42.85295" lon="2.7677">
        <ele>196.5</ele>
        <time>2021-03-28T07:43:46Z</time>
      </trkpt>
      <trkpt lat="42.85293" lon="2.76766">
        <ele>197.4</ele>
        <time>2021-03-28T07:43:47Z</time>
      </trkpt>
      <trkpt lat="42.85293" lon="2.76766">
        <ele>197.4</ele>
        <time>2021-03-28T07:43:47Z</time>
      </trkpt>
      <trkpt lat="42.85291" lon="2.76761">
        <ele>198.3</ele>
        <time>2021-03-28T07:43:49Z</time>
      </trkpt>
      <trkpt lat="42.85291" lon="2.76761">
        <ele>198.3</ele>
        <time>2021-03-28T07:43:49Z</time>
      </trkpt>
      <trkpt lat="42.85288" lon="2.76756">
        <ele>199</ele>
        <time>2021-03-28T07:43:51Z</time>
      </trkpt>
      <trkpt lat="42.85288" lon="2.76756">
        <ele>199</ele>
        <time>2021-03-28T07:43:51Z</time>
      </trkpt>
      <trkpt lat="42.85286" lon="2.76752">
        <ele>199.5</ele>
        <time>2021-03-28T07:43:52Z</time>
      </trkpt>
      <trkpt lat="42.85286" lon="2.76752">
        <ele>199.5</ele>
        <time>2021-03-28T07:43:52Z</time>
      </trkpt>
      <trkpt lat="42.85284" lon="2.76747">
        <ele>199.7</ele>
        <time>2021-03-28T07:43:54Z</time>
      </trkpt>
      <trkpt lat="42.85284" lon="2.76747">
        <ele>199.7</ele>
        <time>2021-03-28T07:43:54Z</time>
      </trkpt>
      <trkpt lat="42.85282" lon="2.76743">
        <ele>199.7</ele>
        <time>2021-03-28T07:43:55Z</time>
      </trkpt>
      <trkpt lat="42.85282" lon="2.76743">
        <ele>199.7</ele>
        <time>2021-03-28T07:43:55Z</time>
      </trkpt>
      <trkpt lat="42.8528" lon="2.76739">
        <ele>199.5</ele>
        <time>2021-03-28T07:43:56Z</time>
      </trkpt>
      <trkpt lat="42.8528" lon="2.76739">
        <ele>199.5</ele>
        <time>2021-03-28T07:43:56Z</time>
      </trkpt>
      <trkpt lat="42.85279" lon="2.76736">
        <ele>199.3</ele>
        <time>2021-03-28T07:43:57Z</time>
      </trkpt>
      <trkpt lat="42.85279" lon="2.76736">
        <ele>199.3</ele>
        <time>2021-03-28T07:43:57Z</time>
      </trkpt>
      <trkpt lat="42.85277" lon="2.76732">
        <ele>199.2</ele>
        <time>2021-03-28T07:43:58Z</time>
      </trkpt>
      <trkpt lat="42.85277" lon="2.76732">
        <ele>199.2</ele>
        <time>2021-03-28T07:43:58Z</time>
      </trkpt>
      <trkpt lat="42.85276" lon="2.76729">
        <ele>199.5</ele>
        <time>2021-03-28T07:43:59Z</time>
      </trkpt>
      <trkpt lat="42.85276" lon="2.76729">
        <ele>199.5</ele>
        <time>2021-03-28T07:43:59Z</time>
      </trkpt>
      <trkpt lat="42.85275" lon="2.76726">
        <ele>199.8</ele>
        <time>2021-03-28T07:44:00Z</time>
      </trkpt>
      <trkpt lat="42.85275" lon="2.76726">
        <ele>199.8</ele>
        <time>2021-03-28T07:44:00Z</time>
      </trkpt>
      <trkpt lat="42.85273" lon="2.76723">
        <ele>200.1</ele>
        <time>2021-03-28T07:44:02Z</time>
      </trkpt>
      <trkpt lat="42.85273" lon="2.76723">
        <ele>200.1</ele>
        <time>2021-03-28T07:44:02Z</time>
      </trkpt>
      <trkpt lat="42.85272" lon="2.76719">
        <ele>200.7</ele>
        <time>2021-03-28T07:44:03Z</time>
      </trkpt>
      <trkpt lat="42.85272" lon="2.76719">
        <ele>200.7</ele>
        <time>2021-03-28T07:44:03Z</time>
      </trkpt>
      <trkpt lat="42.85271" lon="2.76716">
        <ele>201.1</ele>
        <time>2021-03-28T07:44:04Z</time>
      </trkpt>
      <trkpt lat="42.85271" lon="2.76716">
        <ele>201.1</ele>
        <time>2021-03-28T07:44:04Z</time>
      </trkpt>
      <trkpt lat="42.85269" lon="2.76712">
        <ele>201.5</ele>
        <time>2021-03-28T07:44:06Z</time>
      </trkpt>
      <trkpt lat="42.85269" lon="2.76712">
        <ele>201.5</ele>
        <time>2021-03-28T07:44:06Z</time>
      </trkpt>
      <trkpt lat="42.85268" lon="2.76707">
        <ele>201.9</ele>
        <time>2021-03-28T07:44:08Z</time>
      </trkpt>
      <trkpt lat="42.85268" lon="2.76707">
        <ele>201.9</ele>
        <time>2021-03-28T07:44:08Z</time>
      </trkpt>
      <trkpt lat="42.85266" lon="2.76702">
        <ele>202.2</ele>
        <time>2021-03-28T07:44:10Z</time>
      </trkpt>
      <trkpt lat="42.85266" lon="2.76702">
        <ele>202.2</ele>
        <time>2021-03-28T07:44:10Z</time>
      </trkpt>
      <trkpt lat="42.85265" lon="2.76696">
        <ele>202.4</ele>
        <time>2021-03-28T07:44:12Z</time>
      </trkpt>
      <trkpt lat="42.85265" lon="2.76696">
        <ele>202.4</ele>
        <time>2021-03-28T07:44:12Z</time>
      </trkpt>
      <trkpt lat="42.85263" lon="2.76692">
        <ele>202.9</ele>
        <time>2021-03-28T07:44:13Z</time>
      </trkpt>
      <trkpt lat="42.85263" lon="2.76692">
        <ele>202.9</ele>
        <time>2021-03-28T07:44:13Z</time>
      </trkpt>
      <trkpt lat="42.85262" lon="2.76687">
        <ele>203.6</ele>
        <time>2021-03-28T07:44:14Z</time>
      </trkpt>
      <trkpt lat="42.85262" lon="2.76687">
        <ele>203.6</ele>
        <time>2021-03-28T07:44:14Z</time>
      </trkpt>
      <trkpt lat="42.85261" lon="2.76682">
        <ele>204.4</ele>
        <time>2021-03-28T07:44:16Z</time>
      </trkpt>
      <trkpt lat="42.85261" lon="2.76682">
        <ele>204.4</ele>
        <time>2021-03-28T07:44:16Z</time>
      </trkpt>
      <trkpt lat="42.8526" lon="2.76678">
        <ele>205</ele>
        <time>2021-03-28T07:44:17Z</time>
      </trkpt>
      <trkpt lat="42.8526" lon="2.76678">
        <ele>205</ele>
        <time>2021-03-28T07:44:17Z</time>
      </trkpt>
      <trkpt lat="42.8526" lon="2.76673">
        <ele>205.6</ele>
        <time>2021-03-28T07:44:19Z</time>
      </trkpt>
      <trkpt lat="42.8526" lon="2.76673">
        <ele>205.6</ele>
        <time>2021-03-28T07:44:19Z</time>
      </trkpt>
      <trkpt lat="42.85259" lon="2.76668">
        <ele>206</ele>
        <time>2021-03-28T07:44:20Z</time>
      </trkpt>
      <trkpt lat="42.85259" lon="2.76668">
        <ele>206</ele>
        <time>2021-03-28T07:44:20Z</time>
      </trkpt>
      <trkpt lat="42.8526" lon="2.76663">
        <ele>206</ele>
        <time>2021-03-28T07:44:22Z</time>
      </trkpt>
      <trkpt lat="42.8526" lon="2.76663">
        <ele>206</ele>
        <time>2021-03-28T07:44:22Z</time>
      </trkpt>
      <trkpt lat="42.85261" lon="2.76659">
        <ele>206</ele>
        <time>2021-03-28T07:44:23Z</time>
      </trkpt>
      <trkpt lat="42.85261" lon="2.76659">
        <ele>206</ele>
        <time>2021-03-28T07:44:23Z</time>
      </trkpt>
      <trkpt lat="42.85262" lon="2.76655">
        <ele>205.6</ele>
        <time>2021-03-28T07:44:25Z</time>
      </trkpt>
      <trkpt lat="42.85262" lon="2.76655">
        <ele>205.6</ele>
        <time>2021-03-28T07:44:25Z</time>
      </trkpt>
      <trkpt lat="42.85264" lon="2.76652">
        <ele>205</ele>
        <time>2021-03-28T07:44:26Z</time>
      </trkpt>
      <trkpt lat="42.85264" lon="2.76652">
        <ele>205</ele>
        <time>2021-03-28T07:44:26Z</time>
      </trkpt>
      <trkpt lat="42.85266" lon="2.76649">
        <ele>204.3</ele>
        <time>2021-03-28T07:44:27Z</time>
      </trkpt>
      <trkpt lat="42.85266" lon="2.76649">
        <ele>204.3</ele>
        <time>2021-03-28T07:44:27Z</time>
      </trkpt>
      <trkpt lat="42.85269" lon="2.76647">
        <ele>203.5</ele>
        <time>2021-03-28T07:44:28Z</time>
      </trkpt>
      <trkpt lat="42.85269" lon="2.76647">
        <ele>203.5</ele>
        <time>2021-03-28T07:44:28Z</time>
      </trkpt>
      <trkpt lat="42.85272" lon="2.76646">
        <ele>202.2</ele>
        <time>2021-03-28T07:44:30Z</time>
      </trkpt>
      <trkpt lat="42.85272" lon="2.76646">
        <ele>202.2</ele>
        <time>2021-03-28T07:44:30Z</time>
      </trkpt>
      <trkpt lat="42.85275" lon="2.76646">
        <ele>200.9</ele>
        <time>2021-03-28T07:44:31Z</time>
      </trkpt>
      <trkpt lat="42.85275" lon="2.76646">
        <ele>200.9</ele>
        <time>2021-03-28T07:44:31Z</time>
      </trkpt>
      <trkpt lat="42.85278" lon="2.76647">
        <ele>199.7</ele>
        <time>2021-03-28T07:44:32Z</time>
      </trkpt>
      <trkpt lat="42.85278" lon="2.76647">
        <ele>199.7</ele>
        <time>2021-03-28T07:44:32Z</time>
      </trkpt>
      <trkpt lat="42.8528" lon="2.76649">
        <ele>199.7</ele>
        <time>2021-03-28T07:44:34Z</time>
      </trkpt>
      <trkpt lat="42.8528" lon="2.76649">
        <ele>199.7</ele>
        <time>2021-03-28T07:44:34Z</time>
      </trkpt>
      <trkpt lat="42.85283" lon="2.76652">
        <ele>199.8</ele>
        <time>2021-03-28T07:44:35Z</time>
      </trkpt>
      <trkpt lat="42.85283" lon="2.76652">
        <ele>199.8</ele>
        <time>2021-03-28T07:44:35Z</time>
      </trkpt>
      <trkpt lat="42.85285" lon="2.76656">
        <ele>199.8</ele>
        <time>2021-03-28T07:44:37Z</time>
      </trkpt>
      <trkpt lat="42.85285" lon="2.76656">
        <ele>199.8</ele>
        <time>2021-03-28T07:44:37Z</time>
      </trkpt>
      <trkpt lat="42.85287" lon="2.7666">
        <ele>199.8</ele>
        <time>2021-03-28T07:44:39Z</time>
      </trkpt>
      <trkpt lat="42.85287" lon="2.7666">
        <ele>199.8</ele>
        <time>2021-03-28T07:44:39Z</time>
      </trkpt>
      <trkpt lat="42.85289" lon="2.76666">
        <ele>199.8</ele>
        <time>2021-03-28T07:44:41Z</time>
      </trkpt>
      <trkpt lat="42.85289" lon="2.76666">
        <ele>199.8</ele>
        <time>2021-03-28T07:44:41Z</time>
      </trkpt>
      <trkpt lat="42.85292" lon="2.76671">
        <ele>200.3</ele>
        <time>2021-03-28T07:44:43Z</time>
      </trkpt>
      <trkpt lat="42.85292" lon="2.76671">
        <ele>200.3</ele>
        <time>2021-03-28T07:44:43Z</time>
      </trkpt>
      <trkpt lat="42.85295" lon="2.76676">
        <ele>201</ele>
        <time>2021-03-28T07:44:45Z</time>
      </trkpt>
      <trkpt lat="42.85295" lon="2.76676">
        <ele>201</ele>
        <time>2021-03-28T07:44:45Z</time>
      </trkpt>
      <trkpt lat="42.85298" lon="2.76682">
        <ele>201.6</ele>
        <time>2021-03-28T07:44:47Z</time>
      </trkpt>
      <trkpt lat="42.85298" lon="2.76682">
        <ele>201.6</ele>
        <time>2021-03-28T07:44:47Z</time>
      </trkpt>
      <trkpt lat="42.85301" lon="2.76688">
        <ele>202.3</ele>
        <time>2021-03-28T07:44:49Z</time>
      </trkpt>
      <trkpt lat="42.85301" lon="2.76688">
        <ele>202.3</ele>
        <time>2021-03-28T07:44:49Z</time>
      </trkpt>
      <trkpt lat="42.85304" lon="2.76692">
        <ele>202.8</ele>
        <time>2021-03-28T07:44:50Z</time>
      </trkpt>
      <trkpt lat="42.85304" lon="2.76692">
        <ele>202.8</ele>
        <time>2021-03-28T07:44:50Z</time>
      </trkpt>
      <trkpt lat="42.85308" lon="2.76698">
        <ele>203</ele>
        <time>2021-03-28T07:44:52Z</time>
      </trkpt>
      <trkpt lat="42.85308" lon="2.76698">
        <ele>203</ele>
        <time>2021-03-28T07:44:52Z</time>
      </trkpt>
      <trkpt lat="42.85311" lon="2.76702">
        <ele>203.1</ele>
        <time>2021-03-28T07:44:53Z</time>
      </trkpt>
      <trkpt lat="42.85311" lon="2.76702">
        <ele>203.1</ele>
        <time>2021-03-28T07:44:53Z</time>
      </trkpt>
      <trkpt lat="42.85315" lon="2.76707">
        <ele>203.2</ele>
        <time>2021-03-28T07:44:55Z</time>
      </trkpt>
      <trkpt lat="42.85315" lon="2.76707">
        <ele>203.2</ele>
        <time>2021-03-28T07:44:55Z</time>
      </trkpt>
      <trkpt lat="42.85319" lon="2.76712">
        <ele>203.3</ele>
        <time>2021-03-28T07:44:57Z</time>
      </trkpt>
      <trkpt lat="42.85319" lon="2.76712">
        <ele>203.3</ele>
        <time>2021-03-28T07:44:57Z</time>
      </trkpt>
      <trkpt lat="42.85323" lon="2.76716">
        <ele>203.3</ele>
        <time>2021-03-28T07:44:59Z</time>
      </trkpt>
      <trkpt lat="42.85323" lon="2.76716">
        <ele>203.3</ele>
        <time>2021-03-28T07:44:59Z</time>
      </trkpt>
      <trkpt lat="42.85328" lon="2.76721">
        <ele>203.5</ele>
        <time>2021-03-28T07:45:01Z</time>
      </trkpt>
      <trkpt lat="42.85328" lon="2.76721">
        <ele>203.5</ele>
        <time>2021-03-28T07:45:01Z</time>
      </trkpt>
      <trkpt lat="42.85332" lon="2.76726">
        <ele>203.7</ele>
        <time>2021-03-28T07:45:03Z</time>
      </trkpt>
      <trkpt lat="42.85332" lon="2.76726">
        <ele>203.7</ele>
        <time>2021-03-28T07:45:03Z</time>
      </trkpt>
      <trkpt lat="42.85337" lon="2.7673">
        <ele>204.1</ele>
        <time>2021-03-28T07:45:05Z</time>
      </trkpt>
      <trkpt lat="42.85337" lon="2.7673">
        <ele>204.1</ele>
        <time>2021-03-28T07:45:05Z</time>
      </trkpt>
      <trkpt lat="42.85341" lon="2.76733">
        <ele>204.5</ele>
        <time>2021-03-28T07:45:06Z</time>
      </trkpt>
      <trkpt lat="42.85341" lon="2.76733">
        <ele>204.5</ele>
        <time>2021-03-28T07:45:06Z</time>
      </trkpt>
      <trkpt lat="42.85345" lon="2.76737">
        <ele>205.1</ele>
        <time>2021-03-28T07:45:08Z</time>
      </trkpt>
      <trkpt lat="42.85345" lon="2.76737">
        <ele>205.1</ele>
        <time>2021-03-28T07:45:08Z</time>
      </trkpt>
      <trkpt lat="42.85349" lon="2.7674">
        <ele>205.6</ele>
        <time>2021-03-28T07:45:09Z</time>
      </trkpt>
      <trkpt lat="42.85349" lon="2.7674">
        <ele>205.6</ele>
        <time>2021-03-28T07:45:09Z</time>
      </trkpt>
      <trkpt lat="42.85352" lon="2.76743">
        <ele>206</ele>
        <time>2021-03-28T07:45:10Z</time>
      </trkpt>
      <trkpt lat="42.85352" lon="2.76743">
        <ele>206</ele>
        <time>2021-03-28T07:45:10Z</time>
      </trkpt>
      <trkpt lat="42.85355" lon="2.76746">
        <ele>206.3</ele>
        <time>2021-03-28T07:45:11Z</time>
      </trkpt>
      <trkpt lat="42.85355" lon="2.76746">
        <ele>206.3</ele>
        <time>2021-03-28T07:45:11Z</time>
      </trkpt>
      <trkpt lat="42.85357" lon="2.7675">
        <ele>206.5</ele>
        <time>2021-03-28T07:45:13Z</time>
      </trkpt>
      <trkpt lat="42.85357" lon="2.7675">
        <ele>206.5</ele>
        <time>2021-03-28T07:45:13Z</time>
      </trkpt>
      <trkpt lat="42.8536" lon="2.76753">
        <ele>206.8</ele>
        <time>2021-03-28T07:45:14Z</time>
      </trkpt>
      <trkpt lat="42.8536" lon="2.76753">
        <ele>206.8</ele>
        <time>2021-03-28T07:45:14Z</time>
      </trkpt>
      <trkpt lat="42.85362" lon="2.76758">
        <ele>207.1</ele>
        <time>2021-03-28T07:45:16Z</time>
      </trkpt>
      <trkpt lat="42.85362" lon="2.76758">
        <ele>207.1</ele>
        <time>2021-03-28T07:45:16Z</time>
      </trkpt>
      <trkpt lat="42.85365" lon="2.76762">
        <ele>207.5</ele>
        <time>2021-03-28T07:45:17Z</time>
      </trkpt>
      <trkpt lat="42.85365" lon="2.76762">
        <ele>207.5</ele>
        <time>2021-03-28T07:45:17Z</time>
      </trkpt>
      <trkpt lat="42.85368" lon="2.76766">
        <ele>207.8</ele>
        <time>2021-03-28T07:45:19Z</time>
      </trkpt>
      <trkpt lat="42.85368" lon="2.76766">
        <ele>207.8</ele>
        <time>2021-03-28T07:45:19Z</time>
      </trkpt>
      <trkpt lat="42.8537" lon="2.7677">
        <ele>208</ele>
        <time>2021-03-28T07:45:20Z</time>
      </trkpt>
      <trkpt lat="42.8537" lon="2.7677">
        <ele>208</ele>
        <time>2021-03-28T07:45:20Z</time>
      </trkpt>
      <trkpt lat="42.85373" lon="2.76774">
        <ele>208.2</ele>
        <time>2021-03-28T07:45:22Z</time>
      </trkpt>
      <trkpt lat="42.85373" lon="2.76774">
        <ele>208.2</ele>
        <time>2021-03-28T07:45:22Z</time>
      </trkpt>
      <trkpt lat="42.85376" lon="2.76778">
        <ele>208.3</ele>
        <time>2021-03-28T07:45:23Z</time>
      </trkpt>
      <trkpt lat="42.85376" lon="2.76778">
        <ele>208.3</ele>
        <time>2021-03-28T07:45:23Z</time>
      </trkpt>
      <trkpt lat="42.85379" lon="2.76782">
        <ele>208.5</ele>
        <time>2021-03-28T07:45:25Z</time>
      </trkpt>
      <trkpt lat="42.85379" lon="2.76782">
        <ele>208.5</ele>
        <time>2021-03-28T07:45:25Z</time>
      </trkpt>
      <trkpt lat="42.85382" lon="2.76786">
        <ele>208.8</ele>
        <time>2021-03-28T07:45:27Z</time>
      </trkpt>
      <trkpt lat="42.85382" lon="2.76786">
        <ele>208.8</ele>
        <time>2021-03-28T07:45:27Z</time>
      </trkpt>
      <trkpt lat="42.85386" lon="2.76791">
        <ele>209.1</ele>
        <time>2021-03-28T07:45:29Z</time>
      </trkpt>
      <trkpt lat="42.85386" lon="2.76791">
        <ele>209.1</ele>
        <time>2021-03-28T07:45:29Z</time>
      </trkpt>
      <trkpt lat="42.85389" lon="2.76794">
        <ele>209.4</ele>
        <time>2021-03-28T07:45:30Z</time>
      </trkpt>
      <trkpt lat="42.85389" lon="2.76794">
        <ele>209.4</ele>
        <time>2021-03-28T07:45:30Z</time>
      </trkpt>
      <trkpt lat="42.85392" lon="2.76799">
        <ele>209.9</ele>
        <time>2021-03-28T07:45:32Z</time>
      </trkpt>
      <trkpt lat="42.85392" lon="2.76799">
        <ele>209.9</ele>
        <time>2021-03-28T07:45:32Z</time>
      </trkpt>
      <trkpt lat="42.85395" lon="2.76802">
        <ele>210.3</ele>
        <time>2021-03-28T07:45:33Z</time>
      </trkpt>
      <trkpt lat="42.85395" lon="2.76802">
        <ele>210.3</ele>
        <time>2021-03-28T07:45:33Z</time>
      </trkpt>
      <trkpt lat="42.85399" lon="2.76806">
        <ele>210.7</ele>
        <time>2021-03-28T07:45:35Z</time>
      </trkpt>
      <trkpt lat="42.85399" lon="2.76806">
        <ele>210.7</ele>
        <time>2021-03-28T07:45:35Z</time>
      </trkpt>
      <trkpt lat="42.85402" lon="2.7681">
        <ele>210.8</ele>
        <time>2021-03-28T07:45:36Z</time>
      </trkpt>
      <trkpt lat="42.85402" lon="2.7681">
        <ele>210.8</ele>
        <time>2021-03-28T07:45:36Z</time>
      </trkpt>
      <trkpt lat="42.85404" lon="2.76813">
        <ele>210.9</ele>
        <time>2021-03-28T07:45:37Z</time>
      </trkpt>
      <trkpt lat="42.85404" lon="2.76813">
        <ele>210.9</ele>
        <time>2021-03-28T07:45:37Z</time>
      </trkpt>
      <trkpt lat="42.85407" lon="2.76816">
        <ele>210.9</ele>
        <time>2021-03-28T07:45:38Z</time>
      </trkpt>
      <trkpt lat="42.85407" lon="2.76816">
        <ele>210.9</ele>
        <time>2021-03-28T07:45:38Z</time>
      </trkpt>
      <trkpt lat="42.85411" lon="2.7682">
        <ele>211.1</ele>
        <time>2021-03-28T07:45:40Z</time>
      </trkpt>
      <trkpt lat="42.85411" lon="2.7682">
        <ele>211.1</ele>
        <time>2021-03-28T07:45:40Z</time>
      </trkpt>
      <trkpt lat="42.85415" lon="2.76823">
        <ele>211.4</ele>
        <time>2021-03-28T07:45:42Z</time>
      </trkpt>
      <trkpt lat="42.85415" lon="2.76823">
        <ele>211.4</ele>
        <time>2021-03-28T07:45:42Z</time>
      </trkpt>
      <trkpt lat="42.85419" lon="2.76827">
        <ele>211.5</ele>
        <time>2021-03-28T07:45:44Z</time>
      </trkpt>
      <trkpt lat="42.85419" lon="2.76827">
        <ele>211.5</ele>
        <time>2021-03-28T07:45:44Z</time>
      </trkpt>
      <trkpt lat="42.85422" lon="2.76831">
        <ele>211.4</ele>
        <time>2021-03-28T07:45:45Z</time>
      </trkpt>
      <trkpt lat="42.85422" lon="2.76831">
        <ele>211.4</ele>
        <time>2021-03-28T07:45:45Z</time>
      </trkpt>
      <trkpt lat="42.85426" lon="2.76834">
        <ele>211.4</ele>
        <time>2021-03-28T07:45:47Z</time>
      </trkpt>
      <trkpt lat="42.85426" lon="2.76834">
        <ele>211.4</ele>
        <time>2021-03-28T07:45:47Z</time>
      </trkpt>
      <trkpt lat="42.8543" lon="2.76836">
        <ele>211.6</ele>
        <time>2021-03-28T07:45:48Z</time>
      </trkpt>
      <trkpt lat="42.8543" lon="2.76836">
        <ele>211.6</ele>
        <time>2021-03-28T07:45:48Z</time>
      </trkpt>
      <trkpt lat="42.85433" lon="2.76838">
        <ele>211.9</ele>
        <time>2021-03-28T07:45:49Z</time>
      </trkpt>
      <trkpt lat="42.85433" lon="2.76838">
        <ele>211.9</ele>
        <time>2021-03-28T07:45:49Z</time>
      </trkpt>
      <trkpt lat="42.85437" lon="2.7684">
        <ele>212.3</ele>
        <time>2021-03-28T07:45:51Z</time>
      </trkpt>
      <trkpt lat="42.85437" lon="2.7684">
        <ele>212.3</ele>
        <time>2021-03-28T07:45:51Z</time>
      </trkpt>
      <trkpt lat="42.8544" lon="2.76842">
        <ele>212.5</ele>
        <time>2021-03-28T07:45:52Z</time>
      </trkpt>
      <trkpt lat="42.8544" lon="2.76842">
        <ele>212.5</ele>
        <time>2021-03-28T07:45:52Z</time>
      </trkpt>
      <trkpt lat="42.85444" lon="2.76845">
        <ele>212.5</ele>
        <time>2021-03-28T07:45:54Z</time>
      </trkpt>
      <trkpt lat="42.85444" lon="2.76845">
        <ele>212.5</ele>
        <time>2021-03-28T07:45:54Z</time>
      </trkpt>
      <trkpt lat="42.85449" lon="2.76848">
        <ele>212.9</ele>
        <time>2021-03-28T07:45:56Z</time>
      </trkpt>
      <trkpt lat="42.85449" lon="2.76848">
        <ele>212.9</ele>
        <time>2021-03-28T07:45:56Z</time>
      </trkpt>
      <trkpt lat="42.85453" lon="2.7685">
        <ele>213.3</ele>
        <time>2021-03-28T07:45:57Z</time>
      </trkpt>
      <trkpt lat="42.85453" lon="2.7685">
        <ele>213.3</ele>
        <time>2021-03-28T07:45:57Z</time>
      </trkpt>
      <trkpt lat="42.85457" lon="2.76852">
        <ele>213.8</ele>
        <time>2021-03-28T07:45:59Z</time>
      </trkpt>
      <trkpt lat="42.85457" lon="2.76852">
        <ele>213.8</ele>
        <time>2021-03-28T07:45:59Z</time>
      </trkpt>
      <trkpt lat="42.85461" lon="2.76854">
        <ele>214.3</ele>
        <time>2021-03-28T07:46:00Z</time>
      </trkpt>
      <trkpt lat="42.85461" lon="2.76854">
        <ele>214.3</ele>
        <time>2021-03-28T07:46:00Z</time>
      </trkpt>
      <trkpt lat="42.85465" lon="2.76855">
        <ele>214.7</ele>
        <time>2021-03-28T07:46:02Z</time>
      </trkpt>
      <trkpt lat="42.85465" lon="2.76855">
        <ele>214.7</ele>
        <time>2021-03-28T07:46:02Z</time>
      </trkpt>
      <trkpt lat="42.85469" lon="2.76857">
        <ele>215</ele>
        <time>2021-03-28T07:46:03Z</time>
      </trkpt>
      <trkpt lat="42.85469" lon="2.76857">
        <ele>215</ele>
        <time>2021-03-28T07:46:03Z</time>
      </trkpt>
      <trkpt lat="42.85473" lon="2.76858">
        <ele>215.2</ele>
        <time>2021-03-28T07:46:05Z</time>
      </trkpt>
      <trkpt lat="42.85473" lon="2.76858">
        <ele>215.2</ele>
        <time>2021-03-28T07:46:05Z</time>
      </trkpt>
      <trkpt lat="42.85477" lon="2.7686">
        <ele>215</ele>
        <time>2021-03-28T07:46:06Z</time>
      </trkpt>
      <trkpt lat="42.85477" lon="2.7686">
        <ele>215</ele>
        <time>2021-03-28T07:46:06Z</time>
      </trkpt>
      <trkpt lat="42.8548" lon="2.7686">
        <ele>214.9</ele>
        <time>2021-03-28T07:46:07Z</time>
      </trkpt>
      <trkpt lat="42.8548" lon="2.7686">
        <ele>214.9</ele>
        <time>2021-03-28T07:46:07Z</time>
      </trkpt>
      <trkpt lat="42.85484" lon="2.76861">
        <ele>214.9</ele>
        <time>2021-03-28T07:46:09Z</time>
      </trkpt>
      <trkpt lat="42.85484" lon="2.76861">
        <ele>214.9</ele>
        <time>2021-03-28T07:46:09Z</time>
      </trkpt>
      <trkpt lat="42.85488" lon="2.76861">
        <ele>215.1</ele>
        <time>2021-03-28T07:46:10Z</time>
      </trkpt>
      <trkpt lat="42.85488" lon="2.76861">
        <ele>215.1</ele>
        <time>2021-03-28T07:46:10Z</time>
      </trkpt>
      <trkpt lat="42.85492" lon="2.76861">
        <ele>215.4</ele>
        <time>2021-03-28T07:46:12Z</time>
      </trkpt>
      <trkpt lat="42.85492" lon="2.76861">
        <ele>215.4</ele>
        <time>2021-03-28T07:46:12Z</time>
      </trkpt>
      <trkpt lat="42.85496" lon="2.76861">
        <ele>215.6</ele>
        <time>2021-03-28T07:46:13Z</time>
      </trkpt>
      <trkpt lat="42.85496" lon="2.76861">
        <ele>215.6</ele>
        <time>2021-03-28T07:46:13Z</time>
      </trkpt>
      <trkpt lat="42.85501" lon="2.76862">
        <ele>216</ele>
        <time>2021-03-28T07:46:15Z</time>
      </trkpt>
      <trkpt lat="42.85501" lon="2.76862">
        <ele>216</ele>
        <time>2021-03-28T07:46:15Z</time>
      </trkpt>
      <trkpt lat="42.85505" lon="2.76862">
        <ele>216.5</ele>
        <time>2021-03-28T07:46:16Z</time>
      </trkpt>
      <trkpt lat="42.85505" lon="2.76862">
        <ele>216.5</ele>
        <time>2021-03-28T07:46:16Z</time>
      </trkpt>
      <trkpt lat="42.8551" lon="2.76863">
        <ele>216.9</ele>
        <time>2021-03-28T07:46:18Z</time>
      </trkpt>
      <trkpt lat="42.8551" lon="2.76863">
        <ele>216.9</ele>
        <time>2021-03-28T07:46:18Z</time>
      </trkpt>
      <trkpt lat="42.85514" lon="2.76864">
        <ele>217.1</ele>
        <time>2021-03-28T07:46:19Z</time>
      </trkpt>
      <trkpt lat="42.85514" lon="2.76864">
        <ele>217.1</ele>
        <time>2021-03-28T07:46:19Z</time>
      </trkpt>
      <trkpt lat="42.85517" lon="2.76866">
        <ele>217.1</ele>
        <time>2021-03-28T07:46:21Z</time>
      </trkpt>
      <trkpt lat="42.85517" lon="2.76866">
        <ele>217.1</ele>
        <time>2021-03-28T07:46:21Z</time>
      </trkpt>
      <trkpt lat="42.85521" lon="2.76869">
        <ele>217.1</ele>
        <time>2021-03-28T07:46:23Z</time>
      </trkpt>
      <trkpt lat="42.85521" lon="2.76869">
        <ele>217.1</ele>
        <time>2021-03-28T07:46:23Z</time>
      </trkpt>
      <trkpt lat="42.85525" lon="2.76872">
        <ele>216.9</ele>
        <time>2021-03-28T07:46:25Z</time>
      </trkpt>
      <trkpt lat="42.85525" lon="2.76872">
        <ele>216.9</ele>
        <time>2021-03-28T07:46:25Z</time>
      </trkpt>
      <trkpt lat="42.85528" lon="2.76876">
        <ele>216.8</ele>
        <time>2021-03-28T07:46:26Z</time>
      </trkpt>
      <trkpt lat="42.85528" lon="2.76876">
        <ele>216.8</ele>
        <time>2021-03-28T07:46:26Z</time>
      </trkpt>
      <trkpt lat="42.8553" lon="2.76879">
        <ele>217.3</ele>
        <time>2021-03-28T07:46:27Z</time>
      </trkpt>
      <trkpt lat="42.8553" lon="2.76879">
        <ele>217.3</ele>
        <time>2021-03-28T07:46:27Z</time>
      </trkpt>
      <trkpt lat="42.85533" lon="2.76882">
        <ele>217.7</ele>
        <time>2021-03-28T07:46:28Z</time>
      </trkpt>
      <trkpt lat="42.85533" lon="2.76882">
        <ele>217.7</ele>
        <time>2021-03-28T07:46:28Z</time>
      </trkpt>
      <trkpt lat="42.85536" lon="2.76886">
        <ele>218.1</ele>
        <time>2021-03-28T07:46:30Z</time>
      </trkpt>
      <trkpt lat="42.85536" lon="2.76886">
        <ele>218.1</ele>
        <time>2021-03-28T07:46:30Z</time>
      </trkpt>
      <trkpt lat="42.85538" lon="2.76889">
        <ele>218.3</ele>
        <time>2021-03-28T07:46:31Z</time>
      </trkpt>
      <trkpt lat="42.85538" lon="2.76889">
        <ele>218.3</ele>
        <time>2021-03-28T07:46:31Z</time>
      </trkpt>
      <trkpt lat="42.85541" lon="2.76893">
        <ele>218.7</ele>
        <time>2021-03-28T07:46:33Z</time>
      </trkpt>
      <trkpt lat="42.85541" lon="2.76893">
        <ele>218.7</ele>
        <time>2021-03-28T07:46:33Z</time>
      </trkpt>
      <trkpt lat="42.85544" lon="2.76898">
        <ele>218.9</ele>
        <time>2021-03-28T07:46:35Z</time>
      </trkpt>
      <trkpt lat="42.85544" lon="2.76898">
        <ele>218.9</ele>
        <time>2021-03-28T07:46:35Z</time>
      </trkpt>
      <trkpt lat="42.85546" lon="2.76902">
        <ele>219.1</ele>
        <time>2021-03-28T07:46:36Z</time>
      </trkpt>
      <trkpt lat="42.85546" lon="2.76902">
        <ele>219.1</ele>
        <time>2021-03-28T07:46:36Z</time>
      </trkpt>
      <trkpt lat="42.85548" lon="2.76905">
        <ele>219.3</ele>
        <time>2021-03-28T07:46:37Z</time>
      </trkpt>
      <trkpt lat="42.85548" lon="2.76905">
        <ele>219.3</ele>
        <time>2021-03-28T07:46:37Z</time>
      </trkpt>
      <trkpt lat="42.8555" lon="2.76909">
        <ele>219.4</ele>
        <time>2021-03-28T07:46:39Z</time>
      </trkpt>
      <trkpt lat="42.8555" lon="2.76909">
        <ele>219.4</ele>
        <time>2021-03-28T07:46:39Z</time>
      </trkpt>
      <trkpt lat="42.85553" lon="2.76914">
        <ele>219.5</ele>
        <time>2021-03-28T07:46:41Z</time>
      </trkpt>
      <trkpt lat="42.85553" lon="2.76914">
        <ele>219.5</ele>
        <time>2021-03-28T07:46:41Z</time>
      </trkpt>
      <trkpt lat="42.85556" lon="2.76918">
        <ele>219.7</ele>
        <time>2021-03-28T07:46:43Z</time>
      </trkpt>
      <trkpt lat="42.85556" lon="2.76918">
        <ele>219.7</ele>
        <time>2021-03-28T07:46:43Z</time>
      </trkpt>
      <trkpt lat="42.85559" lon="2.76923">
        <ele>220.2</ele>
        <time>2021-03-28T07:46:45Z</time>
      </trkpt>
      <trkpt lat="42.85559" lon="2.76923">
        <ele>220.2</ele>
        <time>2021-03-28T07:46:45Z</time>
      </trkpt>
      <trkpt lat="42.85562" lon="2.76928">
        <ele>220.5</ele>
        <time>2021-03-28T07:46:46Z</time>
      </trkpt>
      <trkpt lat="42.85562" lon="2.76928">
        <ele>220.5</ele>
        <time>2021-03-28T07:46:46Z</time>
      </trkpt>
      <trkpt lat="42.85564" lon="2.76931">
        <ele>220.6</ele>
        <time>2021-03-28T07:46:47Z</time>
      </trkpt>
      <trkpt lat="42.85564" lon="2.76931">
        <ele>220.6</ele>
        <time>2021-03-28T07:46:47Z</time>
      </trkpt>
      <trkpt lat="42.85567" lon="2.76935">
        <ele>220.7</ele>
        <time>2021-03-28T07:46:49Z</time>
      </trkpt>
      <trkpt lat="42.85567" lon="2.76935">
        <ele>220.7</ele>
        <time>2021-03-28T07:46:49Z</time>
      </trkpt>
      <trkpt lat="42.85569" lon="2.76939">
        <ele>220.8</ele>
        <time>2021-03-28T07:46:50Z</time>
      </trkpt>
      <trkpt lat="42.85569" lon="2.76939">
        <ele>220.8</ele>
        <time>2021-03-28T07:46:50Z</time>
      </trkpt>
      <trkpt lat="42.85571" lon="2.76942">
        <ele>220.8</ele>
        <time>2021-03-28T07:46:51Z</time>
      </trkpt>
      <trkpt lat="42.85571" lon="2.76942">
        <ele>220.8</ele>
        <time>2021-03-28T07:46:51Z</time>
      </trkpt>
      <trkpt lat="42.85573" lon="2.76945">
        <ele>220.9</ele>
        <time>2021-03-28T07:46:52Z</time>
      </trkpt>
      <trkpt lat="42.85573" lon="2.76945">
        <ele>220.9</ele>
        <time>2021-03-28T07:46:52Z</time>
      </trkpt>
      <trkpt lat="42.85576" lon="2.76948">
        <ele>221.3</ele>
        <time>2021-03-28T07:46:54Z</time>
      </trkpt>
      <trkpt lat="42.85576" lon="2.76948">
        <ele>221.3</ele>
        <time>2021-03-28T07:46:54Z</time>
      </trkpt>
      <trkpt lat="42.85579" lon="2.76951">
        <ele>221.6</ele>
        <time>2021-03-28T07:46:55Z</time>
      </trkpt>
      <trkpt lat="42.85579" lon="2.76951">
        <ele>221.6</ele>
        <time>2021-03-28T07:46:55Z</time>
      </trkpt>
      <trkpt lat="42.85581" lon="2.76954">
        <ele>221.9</ele>
        <time>2021-03-28T07:46:56Z</time>
      </trkpt>
      <trkpt lat="42.85581" lon="2.76954">
        <ele>221.9</ele>
        <time>2021-03-28T07:46:56Z</time>
      </trkpt>
      <trkpt lat="42.85584" lon="2.76957">
        <ele>222.4</ele>
        <time>2021-03-28T07:46:58Z</time>
      </trkpt>
      <trkpt lat="42.85584" lon="2.76957">
        <ele>222.4</ele>
        <time>2021-03-28T07:46:58Z</time>
      </trkpt>
      <trkpt lat="42.85587" lon="2.76961">
        <ele>223</ele>
        <time>2021-03-28T07:47:00Z</time>
      </trkpt>
      <trkpt lat="42.85587" lon="2.76961">
        <ele>223</ele>
        <time>2021-03-28T07:47:00Z</time>
      </trkpt>
      <trkpt lat="42.85589" lon="2.76964">
        <ele>223.5</ele>
        <time>2021-03-28T07:47:01Z</time>
      </trkpt>
      <trkpt lat="42.85589" lon="2.76964">
        <ele>223.5</ele>
        <time>2021-03-28T07:47:01Z</time>
      </trkpt>
      <trkpt lat="42.85593" lon="2.76968">
        <ele>224.1</ele>
        <time>2021-03-28T07:47:03Z</time>
      </trkpt>
      <trkpt lat="42.85593" lon="2.76968">
        <ele>224.1</ele>
        <time>2021-03-28T07:47:03Z</time>
      </trkpt>
      <trkpt lat="42.85596" lon="2.76972">
        <ele>224.6</ele>
        <time>2021-03-28T07:47:05Z</time>
      </trkpt>
      <trkpt lat="42.85596" lon="2.76972">
        <ele>224.6</ele>
        <time>2021-03-28T07:47:05Z</time>
      </trkpt>
      <trkpt lat="42.856" lon="2.76976">
        <ele>224.9</ele>
        <time>2021-03-28T07:47:07Z</time>
      </trkpt>
      <trkpt lat="42.856" lon="2.76976">
        <ele>224.9</ele>
        <time>2021-03-28T07:47:07Z</time>
      </trkpt>
      <trkpt lat="42.85603" lon="2.76979">
        <ele>225</ele>
        <time>2021-03-28T07:47:08Z</time>
      </trkpt>
      <trkpt lat="42.85603" lon="2.76979">
        <ele>225</ele>
        <time>2021-03-28T07:47:08Z</time>
      </trkpt>
      <trkpt lat="42.85606" lon="2.76983">
        <ele>225</ele>
        <time>2021-03-28T07:47:10Z</time>
      </trkpt>
      <trkpt lat="42.85606" lon="2.76983">
        <ele>225</ele>
        <time>2021-03-28T07:47:10Z</time>
      </trkpt>
      <trkpt lat="42.8561" lon="2.76988">
        <ele>224.9</ele>
        <time>2021-03-28T07:47:12Z</time>
      </trkpt>
      <trkpt lat="42.8561" lon="2.76988">
        <ele>224.9</ele>
        <time>2021-03-28T07:47:12Z</time>
      </trkpt>
      <trkpt lat="42.85613" lon="2.76991">
        <ele>224.8</ele>
        <time>2021-03-28T07:47:13Z</time>
      </trkpt>
      <trkpt lat="42.85613" lon="2.76991">
        <ele>224.8</ele>
        <time>2021-03-28T07:47:13Z</time>
      </trkpt>
      <trkpt lat="42.85615" lon="2.76994">
        <ele>224.8</ele>
        <time>2021-03-28T07:47:14Z</time>
      </trkpt>
      <trkpt lat="42.85615" lon="2.76994">
        <ele>224.8</ele>
        <time>2021-03-28T07:47:14Z</time>
      </trkpt>
      <trkpt lat="42.85617" lon="2.76997">
        <ele>224.9</ele>
        <time>2021-03-28T07:47:15Z</time>
      </trkpt>
      <trkpt lat="42.85617" lon="2.76997">
        <ele>224.9</ele>
        <time>2021-03-28T07:47:15Z</time>
      </trkpt>
      <trkpt lat="42.8562" lon="2.77001">
        <ele>225.1</ele>
        <time>2021-03-28T07:47:17Z</time>
      </trkpt>
      <trkpt lat="42.8562" lon="2.77001">
        <ele>225.1</ele>
        <time>2021-03-28T07:47:17Z</time>
      </trkpt>
      <trkpt lat="42.85623" lon="2.77004">
        <ele>225.3</ele>
        <time>2021-03-28T07:47:18Z</time>
      </trkpt>
      <trkpt lat="42.85623" lon="2.77004">
        <ele>225.3</ele>
        <time>2021-03-28T07:47:18Z</time>
      </trkpt>
      <trkpt lat="42.85626" lon="2.77007">
        <ele>225.5</ele>
        <time>2021-03-28T07:47:20Z</time>
      </trkpt>
      <trkpt lat="42.85626" lon="2.77007">
        <ele>225.5</ele>
        <time>2021-03-28T07:47:20Z</time>
      </trkpt>
      <trkpt lat="42.8563" lon="2.77011">
        <ele>225.7</ele>
        <time>2021-03-28T07:47:22Z</time>
      </trkpt>
      <trkpt lat="42.8563" lon="2.77011">
        <ele>225.7</ele>
        <time>2021-03-28T07:47:22Z</time>
      </trkpt>
      <trkpt lat="42.85633" lon="2.77015">
        <ele>225.8</ele>
        <time>2021-03-28T07:47:23Z</time>
      </trkpt>
      <trkpt lat="42.85633" lon="2.77015">
        <ele>225.8</ele>
        <time>2021-03-28T07:47:23Z</time>
      </trkpt>
      <trkpt lat="42.85636" lon="2.77018">
        <ele>225.9</ele>
        <time>2021-03-28T07:47:24Z</time>
      </trkpt>
      <trkpt lat="42.85636" lon="2.77018">
        <ele>225.9</ele>
        <time>2021-03-28T07:47:24Z</time>
      </trkpt>
      <trkpt lat="42.85639" lon="2.7702">
        <ele>226</ele>
        <time>2021-03-28T07:47:25Z</time>
      </trkpt>
      <trkpt lat="42.85639" lon="2.7702">
        <ele>226</ele>
        <time>2021-03-28T07:47:25Z</time>
      </trkpt>
      <trkpt lat="42.85642" lon="2.77023">
        <ele>226.2</ele>
        <time>2021-03-28T07:47:27Z</time>
      </trkpt>
      <trkpt lat="42.85642" lon="2.77023">
        <ele>226.2</ele>
        <time>2021-03-28T07:47:27Z</time>
      </trkpt>
      <trkpt lat="42.85646" lon="2.77026">
        <ele>226.6</ele>
        <time>2021-03-28T07:47:29Z</time>
      </trkpt>
      <trkpt lat="42.85646" lon="2.77026">
        <ele>226.6</ele>
        <time>2021-03-28T07:47:29Z</time>
      </trkpt>
      <trkpt lat="42.8565" lon="2.7703">
        <ele>227.2</ele>
        <time>2021-03-28T07:47:31Z</time>
      </trkpt>
      <trkpt lat="42.8565" lon="2.7703">
        <ele>227.2</ele>
        <time>2021-03-28T07:47:31Z</time>
      </trkpt>
      <trkpt lat="42.85654" lon="2.77034">
        <ele>227.8</ele>
        <time>2021-03-28T07:47:33Z</time>
      </trkpt>
      <trkpt lat="42.85654" lon="2.77034">
        <ele>227.8</ele>
        <time>2021-03-28T07:47:33Z</time>
      </trkpt>
      <trkpt lat="42.85659" lon="2.77038">
        <ele>228.4</ele>
        <time>2021-03-28T07:47:35Z</time>
      </trkpt>
      <trkpt lat="42.85659" lon="2.77038">
        <ele>228.4</ele>
        <time>2021-03-28T07:47:35Z</time>
      </trkpt>
      <trkpt lat="42.85663" lon="2.77043">
        <ele>228.9</ele>
        <time>2021-03-28T07:47:37Z</time>
      </trkpt>
      <trkpt lat="42.85663" lon="2.77043">
        <ele>228.9</ele>
        <time>2021-03-28T07:47:37Z</time>
      </trkpt>
      <trkpt lat="42.85667" lon="2.77048">
        <ele>229.3</ele>
        <time>2021-03-28T07:47:39Z</time>
      </trkpt>
      <trkpt lat="42.85667" lon="2.77048">
        <ele>229.3</ele>
        <time>2021-03-28T07:47:39Z</time>
      </trkpt>
      <trkpt lat="42.85671" lon="2.77053">
        <ele>229</ele>
        <time>2021-03-28T07:47:41Z</time>
      </trkpt>
      <trkpt lat="42.85671" lon="2.77053">
        <ele>229</ele>
        <time>2021-03-28T07:47:41Z</time>
      </trkpt>
      <trkpt lat="42.85675" lon="2.77058">
        <ele>228.9</ele>
        <time>2021-03-28T07:47:42Z</time>
      </trkpt>
      <trkpt lat="42.85675" lon="2.77058">
        <ele>228.9</ele>
        <time>2021-03-28T07:47:42Z</time>
      </trkpt>
      <trkpt lat="42.85678" lon="2.77062">
        <ele>229</ele>
        <time>2021-03-28T07:47:44Z</time>
      </trkpt>
      <trkpt lat="42.85678" lon="2.77062">
        <ele>229</ele>
        <time>2021-03-28T07:47:44Z</time>
      </trkpt>
      <trkpt lat="42.85682" lon="2.77067">
        <ele>229.2</ele>
        <time>2021-03-28T07:47:46Z</time>
      </trkpt>
      <trkpt lat="42.85682" lon="2.77067">
        <ele>229.2</ele>
        <time>2021-03-28T07:47:46Z</time>
      </trkpt>
      <trkpt lat="42.85685" lon="2.77073">
        <ele>229.4</ele>
        <time>2021-03-28T07:47:48Z</time>
      </trkpt>
      <trkpt lat="42.85685" lon="2.77073">
        <ele>229.4</ele>
        <time>2021-03-28T07:47:48Z</time>
      </trkpt>
      <trkpt lat="42.85688" lon="2.77077">
        <ele>229.7</ele>
        <time>2021-03-28T07:47:49Z</time>
      </trkpt>
      <trkpt lat="42.85688" lon="2.77077">
        <ele>229.7</ele>
        <time>2021-03-28T07:47:49Z</time>
      </trkpt>
      <trkpt lat="42.85691" lon="2.77081">
        <ele>230</ele>
        <time>2021-03-28T07:47:50Z</time>
      </trkpt>
      <trkpt lat="42.85691" lon="2.77081">
        <ele>230</ele>
        <time>2021-03-28T07:47:50Z</time>
      </trkpt>
      <trkpt lat="42.85693" lon="2.77084">
        <ele>230.3</ele>
        <time>2021-03-28T07:47:51Z</time>
      </trkpt>
      <trkpt lat="42.85693" lon="2.77084">
        <ele>230.3</ele>
        <time>2021-03-28T07:47:51Z</time>
      </trkpt>
      <trkpt lat="42.85696" lon="2.77088">
        <ele>230.4</ele>
        <time>2021-03-28T07:47:53Z</time>
      </trkpt>
      <trkpt lat="42.85696" lon="2.77088">
        <ele>230.4</ele>
        <time>2021-03-28T07:47:53Z</time>
      </trkpt>
      <trkpt lat="42.85699" lon="2.77091">
        <ele>230.2</ele>
        <time>2021-03-28T07:47:54Z</time>
      </trkpt>
      <trkpt lat="42.85699" lon="2.77091">
        <ele>230.2</ele>
        <time>2021-03-28T07:47:54Z</time>
      </trkpt>
      <trkpt lat="42.85703" lon="2.77093">
        <ele>230.1</ele>
        <time>2021-03-28T07:47:56Z</time>
      </trkpt>
      <trkpt lat="42.85703" lon="2.77093">
        <ele>230.1</ele>
        <time>2021-03-28T07:47:56Z</time>
      </trkpt>
      <trkpt lat="42.85708" lon="2.77095">
        <ele>230.2</ele>
        <time>2021-03-28T07:47:58Z</time>
      </trkpt>
      <trkpt lat="42.85708" lon="2.77095">
        <ele>230.2</ele>
        <time>2021-03-28T07:47:58Z</time>
      </trkpt>
      <trkpt lat="42.85712" lon="2.77096">
        <ele>230.6</ele>
        <time>2021-03-28T07:48:00Z</time>
      </trkpt>
      <trkpt lat="42.85712" lon="2.77096">
        <ele>230.6</ele>
        <time>2021-03-28T07:48:00Z</time>
      </trkpt>
      <trkpt lat="42.85717" lon="2.77096">
        <ele>231.1</ele>
        <time>2021-03-28T07:48:01Z</time>
      </trkpt>
      <trkpt lat="42.85717" lon="2.77096">
        <ele>231.1</ele>
        <time>2021-03-28T07:48:01Z</time>
      </trkpt>
      <trkpt lat="42.85721" lon="2.77096">
        <ele>231.9</ele>
        <time>2021-03-28T07:48:03Z</time>
      </trkpt>
      <trkpt lat="42.85721" lon="2.77096">
        <ele>231.9</ele>
        <time>2021-03-28T07:48:03Z</time>
      </trkpt>
      <trkpt lat="42.85726" lon="2.77095">
        <ele>232.4</ele>
        <time>2021-03-28T07:48:05Z</time>
      </trkpt>
      <trkpt lat="42.85726" lon="2.77095">
        <ele>232.4</ele>
        <time>2021-03-28T07:48:05Z</time>
      </trkpt>
      <trkpt lat="42.8573" lon="2.77093">
        <ele>232.9</ele>
        <time>2021-03-28T07:48:06Z</time>
      </trkpt>
      <trkpt lat="42.8573" lon="2.77093">
        <ele>232.9</ele>
        <time>2021-03-28T07:48:06Z</time>
      </trkpt>
      <trkpt lat="42.85734" lon="2.77091">
        <ele>233.4</ele>
        <time>2021-03-28T07:48:08Z</time>
      </trkpt>
      <trkpt lat="42.85734" lon="2.77091">
        <ele>233.4</ele>
        <time>2021-03-28T07:48:08Z</time>
      </trkpt>
      <trkpt lat="42.85738" lon="2.77088">
        <ele>233.8</ele>
        <time>2021-03-28T07:48:10Z</time>
      </trkpt>
      <trkpt lat="42.85738" lon="2.77088">
        <ele>233.8</ele>
        <time>2021-03-28T07:48:10Z</time>
      </trkpt>
      <trkpt lat="42.85742" lon="2.77086">
        <ele>234.1</ele>
        <time>2021-03-28T07:48:12Z</time>
      </trkpt>
      <trkpt lat="42.85742" lon="2.77086">
        <ele>234.1</ele>
        <time>2021-03-28T07:48:12Z</time>
      </trkpt>
      <trkpt lat="42.85747" lon="2.77083">
        <ele>234.3</ele>
        <time>2021-03-28T07:48:14Z</time>
      </trkpt>
      <trkpt lat="42.85747" lon="2.77083">
        <ele>234.3</ele>
        <time>2021-03-28T07:48:14Z</time>
      </trkpt>
      <trkpt lat="42.85751" lon="2.77081">
        <ele>234.9</ele>
        <time>2021-03-28T07:48:16Z</time>
      </trkpt>
      <trkpt lat="42.85751" lon="2.77081">
        <ele>234.9</ele>
        <time>2021-03-28T07:48:16Z</time>
      </trkpt>
      <trkpt lat="42.85755" lon="2.77078">
        <ele>235.6</ele>
        <time>2021-03-28T07:48:17Z</time>
      </trkpt>
      <trkpt lat="42.85755" lon="2.77078">
        <ele>235.6</ele>
        <time>2021-03-28T07:48:17Z</time>
      </trkpt>
      <trkpt lat="42.85758" lon="2.77076">
        <ele>236.2</ele>
        <time>2021-03-28T07:48:18Z</time>
      </trkpt>
      <trkpt lat="42.85758" lon="2.77076">
        <ele>236.2</ele>
        <time>2021-03-28T07:48:18Z</time>
      </trkpt>
      <trkpt lat="42.85762" lon="2.77074">
        <ele>236.7</ele>
        <time>2021-03-28T07:48:20Z</time>
      </trkpt>
      <trkpt lat="42.85762" lon="2.77074">
        <ele>236.7</ele>
        <time>2021-03-28T07:48:20Z</time>
      </trkpt>
      <trkpt lat="42.85766" lon="2.77073">
        <ele>237.1</ele>
        <time>2021-03-28T07:48:22Z</time>
      </trkpt>
      <trkpt lat="42.85766" lon="2.77073">
        <ele>237.1</ele>
        <time>2021-03-28T07:48:22Z</time>
      </trkpt>
      <trkpt lat="42.85771" lon="2.77072">
        <ele>237.2</ele>
        <time>2021-03-28T07:48:24Z</time>
      </trkpt>
      <trkpt lat="42.85771" lon="2.77072">
        <ele>237.2</ele>
        <time>2021-03-28T07:48:24Z</time>
      </trkpt>
      <trkpt lat="42.85775" lon="2.77073">
        <ele>237.2</ele>
        <time>2021-03-28T07:48:26Z</time>
      </trkpt>
      <trkpt lat="42.85775" lon="2.77073">
        <ele>237.2</ele>
        <time>2021-03-28T07:48:26Z</time>
      </trkpt>
      <trkpt lat="42.85779" lon="2.77075">
        <ele>237</ele>
        <time>2021-03-28T07:48:28Z</time>
      </trkpt>
      <trkpt lat="42.85779" lon="2.77075">
        <ele>237</ele>
        <time>2021-03-28T07:48:28Z</time>
      </trkpt>
      <trkpt lat="42.85782" lon="2.7708">
        <ele>237.1</ele>
        <time>2021-03-28T07:48:30Z</time>
      </trkpt>
      <trkpt lat="42.85782" lon="2.7708">
        <ele>237.1</ele>
        <time>2021-03-28T07:48:30Z</time>
      </trkpt>
      <trkpt lat="42.85784" lon="2.77084">
        <ele>237.1</ele>
        <time>2021-03-28T07:48:31Z</time>
      </trkpt>
      <trkpt lat="42.85784" lon="2.77084">
        <ele>237.1</ele>
        <time>2021-03-28T07:48:31Z</time>
      </trkpt>
      <trkpt lat="42.85785" lon="2.77088">
        <ele>238.1</ele>
        <time>2021-03-28T07:48:32Z</time>
      </trkpt>
      <trkpt lat="42.85785" lon="2.77088">
        <ele>238.1</ele>
        <time>2021-03-28T07:48:32Z</time>
      </trkpt>
      <trkpt lat="42.85785" lon="2.77093">
        <ele>239</ele>
        <time>2021-03-28T07:48:34Z</time>
      </trkpt>
      <trkpt lat="42.85785" lon="2.77093">
        <ele>239</ele>
        <time>2021-03-28T07:48:34Z</time>
      </trkpt>
      <trkpt lat="42.85784" lon="2.77098">
        <ele>239.6</ele>
        <time>2021-03-28T07:48:36Z</time>
      </trkpt>
      <trkpt lat="42.85784" lon="2.77098">
        <ele>239.6</ele>
        <time>2021-03-28T07:48:36Z</time>
      </trkpt>
      <trkpt lat="42.85782" lon="2.77103">
        <ele>240</ele>
        <time>2021-03-28T07:48:37Z</time>
      </trkpt>
      <trkpt lat="42.85782" lon="2.77103">
        <ele>240</ele>
        <time>2021-03-28T07:48:37Z</time>
      </trkpt>
      <trkpt lat="42.8578" lon="2.77108">
        <ele>240.2</ele>
        <time>2021-03-28T07:48:39Z</time>
      </trkpt>
      <trkpt lat="42.8578" lon="2.77108">
        <ele>240.2</ele>
        <time>2021-03-28T07:48:39Z</time>
      </trkpt>
      <trkpt lat="42.85778" lon="2.77113">
        <ele>240.3</ele>
        <time>2021-03-28T07:48:41Z</time>
      </trkpt>
      <trkpt lat="42.85778" lon="2.77113">
        <ele>240.3</ele>
        <time>2021-03-28T07:48:41Z</time>
      </trkpt>
      <trkpt lat="42.85776" lon="2.77118">
        <ele>240.2</ele>
        <time>2021-03-28T07:48:42Z</time>
      </trkpt>
      <trkpt lat="42.85776" lon="2.77118">
        <ele>240.2</ele>
        <time>2021-03-28T07:48:42Z</time>
      </trkpt>
      <trkpt lat="42.85774" lon="2.77124">
        <ele>240.2</ele>
        <time>2021-03-28T07:48:44Z</time>
      </trkpt>
      <trkpt lat="42.85774" lon="2.77124">
        <ele>240.2</ele>
        <time>2021-03-28T07:48:44Z</time>
      </trkpt>
      <trkpt lat="42.85772" lon="2.77131">
        <ele>240.3</ele>
        <time>2021-03-28T07:48:46Z</time>
      </trkpt>
      <trkpt lat="42.85772" lon="2.77131">
        <ele>240.3</ele>
        <time>2021-03-28T07:48:46Z</time>
      </trkpt>
      <trkpt lat="42.8577" lon="2.77137">
        <ele>240.6</ele>
        <time>2021-03-28T07:48:47Z</time>
      </trkpt>
      <trkpt lat="42.8577" lon="2.77137">
        <ele>240.6</ele>
        <time>2021-03-28T07:48:47Z</time>
      </trkpt>
      <trkpt lat="42.8577" lon="2.77143">
        <ele>240.6</ele>
        <time>2021-03-28T07:48:49Z</time>
      </trkpt>
      <trkpt lat="42.8577" lon="2.77143">
        <ele>240.6</ele>
        <time>2021-03-28T07:48:49Z</time>
      </trkpt>
      <trkpt lat="42.8577" lon="2.7715">
        <ele>240.6</ele>
        <time>2021-03-28T07:48:51Z</time>
      </trkpt>
      <trkpt lat="42.8577" lon="2.7715">
        <ele>240.6</ele>
        <time>2021-03-28T07:48:51Z</time>
      </trkpt>
      <trkpt lat="42.85771" lon="2.77156">
        <ele>240.6</ele>
        <time>2021-03-28T07:48:52Z</time>
      </trkpt>
      <trkpt lat="42.85771" lon="2.77156">
        <ele>240.6</ele>
        <time>2021-03-28T07:48:52Z</time>
      </trkpt>
      <trkpt lat="42.85772" lon="2.77163">
        <ele>240.9</ele>
        <time>2021-03-28T07:48:54Z</time>
      </trkpt>
      <trkpt lat="42.85772" lon="2.77163">
        <ele>240.9</ele>
        <time>2021-03-28T07:48:54Z</time>
      </trkpt>
      <trkpt lat="42.85773" lon="2.77168">
        <ele>241.2</ele>
        <time>2021-03-28T07:48:55Z</time>
      </trkpt>
      <trkpt lat="42.85773" lon="2.77168">
        <ele>241.2</ele>
        <time>2021-03-28T07:48:55Z</time>
      </trkpt>
      <trkpt lat="42.85775" lon="2.77174">
        <ele>241.1</ele>
        <time>2021-03-28T07:48:57Z</time>
      </trkpt>
      <trkpt lat="42.85775" lon="2.77174">
        <ele>241.1</ele>
        <time>2021-03-28T07:48:57Z</time>
      </trkpt>
      <trkpt lat="42.85777" lon="2.77178">
        <ele>241.2</ele>
        <time>2021-03-28T07:48:58Z</time>
      </trkpt>
      <trkpt lat="42.85777" lon="2.77178">
        <ele>241.2</ele>
        <time>2021-03-28T07:48:58Z</time>
      </trkpt>
      <trkpt lat="42.8578" lon="2.77183">
        <ele>241.2</ele>
        <time>2021-03-28T07:49:00Z</time>
      </trkpt>
      <trkpt lat="42.8578" lon="2.77183">
        <ele>241.2</ele>
        <time>2021-03-28T07:49:00Z</time>
      </trkpt>
      <trkpt lat="42.85783" lon="2.77187">
        <ele>241.2</ele>
        <time>2021-03-28T07:49:01Z</time>
      </trkpt>
      <trkpt lat="42.85783" lon="2.77187">
        <ele>241.2</ele>
        <time>2021-03-28T07:49:01Z</time>
      </trkpt>
      <trkpt lat="42.85785" lon="2.77191">
        <ele>241.4</ele>
        <time>2021-03-28T07:49:02Z</time>
      </trkpt>
      <trkpt lat="42.85785" lon="2.77191">
        <ele>241.4</ele>
        <time>2021-03-28T07:49:02Z</time>
      </trkpt>
      <trkpt lat="42.85788" lon="2.77194">
        <ele>241.5</ele>
        <time>2021-03-28T07:49:03Z</time>
      </trkpt>
      <trkpt lat="42.85788" lon="2.77194">
        <ele>241.5</ele>
        <time>2021-03-28T07:49:03Z</time>
      </trkpt>
      <trkpt lat="42.85791" lon="2.77197">
        <ele>241.5</ele>
        <time>2021-03-28T07:49:05Z</time>
      </trkpt>
      <trkpt lat="42.85791" lon="2.77197">
        <ele>241.5</ele>
        <time>2021-03-28T07:49:05Z</time>
      </trkpt>
      <trkpt lat="42.85794" lon="2.77201">
        <ele>241.5</ele>
        <time>2021-03-28T07:49:07Z</time>
      </trkpt>
      <trkpt lat="42.85794" lon="2.77201">
        <ele>241.5</ele>
        <time>2021-03-28T07:49:07Z</time>
      </trkpt>
      <trkpt lat="42.85798" lon="2.77204">
        <ele>241.5</ele>
        <time>2021-03-28T07:49:08Z</time>
      </trkpt>
      <trkpt lat="42.85798" lon="2.77204">
        <ele>241.5</ele>
        <time>2021-03-28T07:49:08Z</time>
      </trkpt>
      <trkpt lat="42.85802" lon="2.77208">
        <ele>242</ele>
        <time>2021-03-28T07:49:10Z</time>
      </trkpt>
      <trkpt lat="42.85802" lon="2.77208">
        <ele>242</ele>
        <time>2021-03-28T07:49:10Z</time>
      </trkpt>
      <trkpt lat="42.85806" lon="2.77211">
        <ele>242.4</ele>
        <time>2021-03-28T07:49:11Z</time>
      </trkpt>
      <trkpt lat="42.85806" lon="2.77211">
        <ele>242.4</ele>
        <time>2021-03-28T07:49:11Z</time>
      </trkpt>
      <trkpt lat="42.85809" lon="2.77214">
        <ele>242.7</ele>
        <time>2021-03-28T07:49:12Z</time>
      </trkpt>
      <trkpt lat="42.85809" lon="2.77214">
        <ele>242.7</ele>
        <time>2021-03-28T07:49:12Z</time>
      </trkpt>
      <trkpt lat="42.85813" lon="2.77217">
        <ele>243</ele>
        <time>2021-03-28T07:49:13Z</time>
      </trkpt>
      <trkpt lat="42.85813" lon="2.77217">
        <ele>243</ele>
        <time>2021-03-28T07:49:13Z</time>
      </trkpt>
      <trkpt lat="42.85818" lon="2.7722">
        <ele>243.5</ele>
        <time>2021-03-28T07:49:15Z</time>
      </trkpt>
      <trkpt lat="42.85818" lon="2.7722">
        <ele>243.5</ele>
        <time>2021-03-28T07:49:15Z</time>
      </trkpt>
      <trkpt lat="42.85823" lon="2.77224">
        <ele>243.9</ele>
        <time>2021-03-28T07:49:17Z</time>
      </trkpt>
      <trkpt lat="42.85823" lon="2.77224">
        <ele>243.9</ele>
        <time>2021-03-28T07:49:17Z</time>
      </trkpt>
      <trkpt lat="42.85828" lon="2.77227">
        <ele>244.3</ele>
        <time>2021-03-28T07:49:19Z</time>
      </trkpt>
      <trkpt lat="42.85828" lon="2.77227">
        <ele>244.3</ele>
        <time>2021-03-28T07:49:19Z</time>
      </trkpt>
      <trkpt lat="42.85834" lon="2.7723">
        <ele>244.8</ele>
        <time>2021-03-28T07:49:21Z</time>
      </trkpt>
      <trkpt lat="42.85834" lon="2.7723">
        <ele>244.8</ele>
        <time>2021-03-28T07:49:21Z</time>
      </trkpt>
      <trkpt lat="42.85838" lon="2.77232">
        <ele>244.9</ele>
        <time>2021-03-28T07:49:22Z</time>
      </trkpt>
      <trkpt lat="42.85838" lon="2.77232">
        <ele>244.9</ele>
        <time>2021-03-28T07:49:22Z</time>
      </trkpt>
      <trkpt lat="42.85843" lon="2.77233">
        <ele>245.3</ele>
        <time>2021-03-28T07:49:24Z</time>
      </trkpt>
      <trkpt lat="42.85843" lon="2.77233">
        <ele>245.3</ele>
        <time>2021-03-28T07:49:24Z</time>
      </trkpt>
      <trkpt lat="42.85847" lon="2.77235">
        <ele>245.7</ele>
        <time>2021-03-28T07:49:26Z</time>
      </trkpt>
      <trkpt lat="42.85847" lon="2.77235">
        <ele>245.7</ele>
        <time>2021-03-28T07:49:26Z</time>
      </trkpt>
      <trkpt lat="42.85852" lon="2.77236">
        <ele>246.1</ele>
        <time>2021-03-28T07:49:27Z</time>
      </trkpt>
      <trkpt lat="42.85852" lon="2.77236">
        <ele>246.1</ele>
        <time>2021-03-28T07:49:27Z</time>
      </trkpt>
      <trkpt lat="42.85855" lon="2.77236">
        <ele>246.5</ele>
        <time>2021-03-28T07:49:28Z</time>
      </trkpt>
      <trkpt lat="42.85855" lon="2.77236">
        <ele>246.5</ele>
        <time>2021-03-28T07:49:28Z</time>
      </trkpt>
      <trkpt lat="42.85858" lon="2.77237">
        <ele>246.8</ele>
        <time>2021-03-28T07:49:29Z</time>
      </trkpt>
      <trkpt lat="42.85858" lon="2.77237">
        <ele>246.8</ele>
        <time>2021-03-28T07:49:29Z</time>
      </trkpt>
      <trkpt lat="42.85863" lon="2.77238">
        <ele>247.3</ele>
        <time>2021-03-28T07:49:31Z</time>
      </trkpt>
      <trkpt lat="42.85863" lon="2.77238">
        <ele>247.3</ele>
        <time>2021-03-28T07:49:31Z</time>
      </trkpt>
      <trkpt lat="42.85866" lon="2.77239">
        <ele>247.7</ele>
        <time>2021-03-28T07:49:32Z</time>
      </trkpt>
      <trkpt lat="42.85866" lon="2.77239">
        <ele>247.7</ele>
        <time>2021-03-28T07:49:32Z</time>
      </trkpt>
      <trkpt lat="42.85871" lon="2.77241">
        <ele>248.2</ele>
        <time>2021-03-28T07:49:34Z</time>
      </trkpt>
      <trkpt lat="42.85871" lon="2.77241">
        <ele>248.2</ele>
        <time>2021-03-28T07:49:34Z</time>
      </trkpt>
      <trkpt lat="42.85874" lon="2.77243">
        <ele>248.4</ele>
        <time>2021-03-28T07:49:35Z</time>
      </trkpt>
      <trkpt lat="42.85874" lon="2.77243">
        <ele>248.4</ele>
        <time>2021-03-28T07:49:35Z</time>
      </trkpt>
      <trkpt lat="42.85879" lon="2.77246">
        <ele>248.7</ele>
        <time>2021-03-28T07:49:37Z</time>
      </trkpt>
      <trkpt lat="42.85879" lon="2.77246">
        <ele>248.7</ele>
        <time>2021-03-28T07:49:37Z</time>
      </trkpt>
      <trkpt lat="42.85883" lon="2.77248">
        <ele>249.2</ele>
        <time>2021-03-28T07:49:38Z</time>
      </trkpt>
      <trkpt lat="42.85883" lon="2.77248">
        <ele>249.2</ele>
        <time>2021-03-28T07:49:38Z</time>
      </trkpt>
      <trkpt lat="42.85888" lon="2.7725">
        <ele>249.7</ele>
        <time>2021-03-28T07:49:40Z</time>
      </trkpt>
      <trkpt lat="42.85888" lon="2.7725">
        <ele>249.7</ele>
        <time>2021-03-28T07:49:40Z</time>
      </trkpt>
      <trkpt lat="42.85893" lon="2.77252">
        <ele>249.9</ele>
        <time>2021-03-28T07:49:42Z</time>
      </trkpt>
      <trkpt lat="42.85893" lon="2.77252">
        <ele>249.9</ele>
        <time>2021-03-28T07:49:42Z</time>
      </trkpt>
      <trkpt lat="42.85897" lon="2.77254">
        <ele>250</ele>
        <time>2021-03-28T07:49:43Z</time>
      </trkpt>
      <trkpt lat="42.85897" lon="2.77254">
        <ele>250</ele>
        <time>2021-03-28T07:49:43Z</time>
      </trkpt>
      <trkpt lat="42.85901" lon="2.77257">
        <ele>250</ele>
        <time>2021-03-28T07:49:45Z</time>
      </trkpt>
      <trkpt lat="42.85901" lon="2.77257">
        <ele>250</ele>
        <time>2021-03-28T07:49:45Z</time>
      </trkpt>
      <trkpt lat="42.85905" lon="2.77259">
        <ele>250.1</ele>
        <time>2021-03-28T07:49:46Z</time>
      </trkpt>
      <trkpt lat="42.85905" lon="2.77259">
        <ele>250.1</ele>
        <time>2021-03-28T07:49:46Z</time>
      </trkpt>
      <trkpt lat="42.8591" lon="2.77262">
        <ele>250.3</ele>
        <time>2021-03-28T07:49:48Z</time>
      </trkpt>
      <trkpt lat="42.8591" lon="2.77262">
        <ele>250.3</ele>
        <time>2021-03-28T07:49:48Z</time>
      </trkpt>
      <trkpt lat="42.85914" lon="2.77265">
        <ele>250.6</ele>
        <time>2021-03-28T07:49:50Z</time>
      </trkpt>
      <trkpt lat="42.85914" lon="2.77265">
        <ele>250.6</ele>
        <time>2021-03-28T07:49:50Z</time>
      </trkpt>
      <trkpt lat="42.85918" lon="2.77269">
        <ele>250.8</ele>
        <time>2021-03-28T07:49:52Z</time>
      </trkpt>
      <trkpt lat="42.85918" lon="2.77269">
        <ele>250.8</ele>
        <time>2021-03-28T07:49:52Z</time>
      </trkpt>
      <trkpt lat="42.85922" lon="2.77272">
        <ele>250.8</ele>
        <time>2021-03-28T07:49:54Z</time>
      </trkpt>
      <trkpt lat="42.85922" lon="2.77272">
        <ele>250.8</ele>
        <time>2021-03-28T07:49:54Z</time>
      </trkpt>
      <trkpt lat="42.85926" lon="2.77274">
        <ele>250.7</ele>
        <time>2021-03-28T07:49:55Z</time>
      </trkpt>
      <trkpt lat="42.85926" lon="2.77274">
        <ele>250.7</ele>
        <time>2021-03-28T07:49:55Z</time>
      </trkpt>
      <trkpt lat="42.8593" lon="2.77276">
        <ele>250.9</ele>
        <time>2021-03-28T07:49:57Z</time>
      </trkpt>
      <trkpt lat="42.8593" lon="2.77276">
        <ele>250.9</ele>
        <time>2021-03-28T07:49:57Z</time>
      </trkpt>
      <trkpt lat="42.85935" lon="2.77277">
        <ele>251.1</ele>
        <time>2021-03-28T07:49:59Z</time>
      </trkpt>
      <trkpt lat="42.85935" lon="2.77277">
        <ele>251.1</ele>
        <time>2021-03-28T07:49:59Z</time>
      </trkpt>
      <trkpt lat="42.8594" lon="2.77278">
        <ele>251.5</ele>
        <time>2021-03-28T07:50:01Z</time>
      </trkpt>
      <trkpt lat="42.8594" lon="2.77278">
        <ele>251.5</ele>
        <time>2021-03-28T07:50:01Z</time>
      </trkpt>
      <trkpt lat="42.85945" lon="2.77279">
        <ele>251.8</ele>
        <time>2021-03-28T07:50:03Z</time>
      </trkpt>
      <trkpt lat="42.85945" lon="2.77279">
        <ele>251.8</ele>
        <time>2021-03-28T07:50:03Z</time>
      </trkpt>
      <trkpt lat="42.85949" lon="2.77279">
        <ele>252</ele>
        <time>2021-03-28T07:50:04Z</time>
      </trkpt>
      <trkpt lat="42.85949" lon="2.77279">
        <ele>252</ele>
        <time>2021-03-28T07:50:04Z</time>
      </trkpt>
      <trkpt lat="42.85953" lon="2.77279">
        <ele>252.3</ele>
        <time>2021-03-28T07:50:05Z</time>
      </trkpt>
      <trkpt lat="42.85953" lon="2.77279">
        <ele>252.3</ele>
        <time>2021-03-28T07:50:05Z</time>
      </trkpt>
      <trkpt lat="42.85957" lon="2.77279">
        <ele>252.6</ele>
        <time>2021-03-28T07:50:07Z</time>
      </trkpt>
      <trkpt lat="42.85957" lon="2.77279">
        <ele>252.6</ele>
        <time>2021-03-28T07:50:07Z</time>
      </trkpt>
      <trkpt lat="42.85962" lon="2.77279">
        <ele>253</ele>
        <time>2021-03-28T07:50:09Z</time>
      </trkpt>
      <trkpt lat="42.85962" lon="2.77279">
        <ele>253</ele>
        <time>2021-03-28T07:50:09Z</time>
      </trkpt>
      <trkpt lat="42.85967" lon="2.77278">
        <ele>253.6</ele>
        <time>2021-03-28T07:50:11Z</time>
      </trkpt>
      <trkpt lat="42.85967" lon="2.77278">
        <ele>253.6</ele>
        <time>2021-03-28T07:50:11Z</time>
      </trkpt>
      <trkpt lat="42.85972" lon="2.77276">
        <ele>254.3</ele>
        <time>2021-03-28T07:50:13Z</time>
      </trkpt>
      <trkpt lat="42.85972" lon="2.77276">
        <ele>254.3</ele>
        <time>2021-03-28T07:50:13Z</time>
      </trkpt>
      <trkpt lat="42.85976" lon="2.77275">
        <ele>254.2</ele>
        <time>2021-03-28T07:50:14Z</time>
      </trkpt>
      <trkpt lat="42.85976" lon="2.77275">
        <ele>254.2</ele>
        <time>2021-03-28T07:50:14Z</time>
      </trkpt>
      <trkpt lat="42.85981" lon="2.77274">
        <ele>254.1</ele>
        <time>2021-03-28T07:50:16Z</time>
      </trkpt>
      <trkpt lat="42.85981" lon="2.77274">
        <ele>254.1</ele>
        <time>2021-03-28T07:50:16Z</time>
      </trkpt>
      <trkpt lat="42.85984" lon="2.77273">
        <ele>253.9</ele>
        <time>2021-03-28T07:50:17Z</time>
      </trkpt>
      <trkpt lat="42.85984" lon="2.77273">
        <ele>253.9</ele>
        <time>2021-03-28T07:50:17Z</time>
      </trkpt>
      <trkpt lat="42.85987" lon="2.77272">
        <ele>253.9</ele>
        <time>2021-03-28T07:50:18Z</time>
      </trkpt>
      <trkpt lat="42.85987" lon="2.77272">
        <ele>253.9</ele>
        <time>2021-03-28T07:50:18Z</time>
      </trkpt>
      <trkpt lat="42.8599" lon="2.77271">
        <ele>253.8</ele>
        <time>2021-03-28T07:50:19Z</time>
      </trkpt>
      <trkpt lat="42.8599" lon="2.77271">
        <ele>253.8</ele>
        <time>2021-03-28T07:50:19Z</time>
      </trkpt>
      <trkpt lat="42.85993" lon="2.77269">
        <ele>253.9</ele>
        <time>2021-03-28T07:50:20Z</time>
      </trkpt>
      <trkpt lat="42.85993" lon="2.77269">
        <ele>253.9</ele>
        <time>2021-03-28T07:50:20Z</time>
      </trkpt>
      <trkpt lat="42.85997" lon="2.77268">
        <ele>253.8</ele>
        <time>2021-03-28T07:50:22Z</time>
      </trkpt>
      <trkpt lat="42.85997" lon="2.77268">
        <ele>253.8</ele>
        <time>2021-03-28T07:50:22Z</time>
      </trkpt>
      <trkpt lat="42.86" lon="2.77267">
        <ele>253.8</ele>
        <time>2021-03-28T07:50:23Z</time>
      </trkpt>
      <trkpt lat="42.86" lon="2.77267">
        <ele>253.8</ele>
        <time>2021-03-28T07:50:23Z</time>
      </trkpt>
      <trkpt lat="42.86003" lon="2.77265">
        <ele>253.9</ele>
        <time>2021-03-28T07:50:24Z</time>
      </trkpt>
      <trkpt lat="42.86003" lon="2.77265">
        <ele>253.9</ele>
        <time>2021-03-28T07:50:24Z</time>
      </trkpt>
      <trkpt lat="42.86006" lon="2.77263">
        <ele>254.3</ele>
        <time>2021-03-28T07:50:26Z</time>
      </trkpt>
      <trkpt lat="42.86006" lon="2.77263">
        <ele>254.3</ele>
        <time>2021-03-28T07:50:26Z</time>
      </trkpt>
      <trkpt lat="42.8601" lon="2.77261">
        <ele>254.7</ele>
        <time>2021-03-28T07:50:28Z</time>
      </trkpt>
      <trkpt lat="42.8601" lon="2.77261">
        <ele>254.7</ele>
        <time>2021-03-28T07:50:28Z</time>
      </trkpt>
      <trkpt lat="42.86013" lon="2.77258">
        <ele>255.1</ele>
        <time>2021-03-28T07:50:29Z</time>
      </trkpt>
      <trkpt lat="42.86013" lon="2.77258">
        <ele>255.1</ele>
        <time>2021-03-28T07:50:29Z</time>
      </trkpt>
      <trkpt lat="42.86016" lon="2.77254">
        <ele>255.7</ele>
        <time>2021-03-28T07:50:31Z</time>
      </trkpt>
      <trkpt lat="42.86016" lon="2.77254">
        <ele>255.7</ele>
        <time>2021-03-28T07:50:31Z</time>
      </trkpt>
      <trkpt lat="42.8602" lon="2.77251">
        <ele>256.2</ele>
        <time>2021-03-28T07:50:32Z</time>
      </trkpt>
      <trkpt lat="42.8602" lon="2.77251">
        <ele>256.2</ele>
        <time>2021-03-28T07:50:32Z</time>
      </trkpt>
      <trkpt lat="42.86023" lon="2.77249">
        <ele>256.7</ele>
        <time>2021-03-28T07:50:34Z</time>
      </trkpt>
      <trkpt lat="42.86023" lon="2.77249">
        <ele>256.7</ele>
        <time>2021-03-28T07:50:34Z</time>
      </trkpt>
      <trkpt lat="42.86026" lon="2.77246">
        <ele>257</ele>
        <time>2021-03-28T07:50:35Z</time>
      </trkpt>
      <trkpt lat="42.86026" lon="2.77246">
        <ele>257</ele>
        <time>2021-03-28T07:50:35Z</time>
      </trkpt>
      <trkpt lat="42.86029" lon="2.77243">
        <ele>257.3</ele>
        <time>2021-03-28T07:50:36Z</time>
      </trkpt>
      <trkpt lat="42.86029" lon="2.77243">
        <ele>257.3</ele>
        <time>2021-03-28T07:50:36Z</time>
      </trkpt>
      <trkpt lat="42.86031" lon="2.7724">
        <ele>257.5</ele>
        <time>2021-03-28T07:50:37Z</time>
      </trkpt>
      <trkpt lat="42.86031" lon="2.7724">
        <ele>257.5</ele>
        <time>2021-03-28T07:50:37Z</time>
      </trkpt>
      <trkpt lat="42.86034" lon="2.77238">
        <ele>257.6</ele>
        <time>2021-03-28T07:50:39Z</time>
      </trkpt>
      <trkpt lat="42.86034" lon="2.77238">
        <ele>257.6</ele>
        <time>2021-03-28T07:50:39Z</time>
      </trkpt>
      <trkpt lat="42.86037" lon="2.77234">
        <ele>257.8</ele>
        <time>2021-03-28T07:50:41Z</time>
      </trkpt>
      <trkpt lat="42.86037" lon="2.77234">
        <ele>257.8</ele>
        <time>2021-03-28T07:50:41Z</time>
      </trkpt>
      <trkpt lat="42.8604" lon="2.77231">
        <ele>258</ele>
        <time>2021-03-28T07:50:42Z</time>
      </trkpt>
      <trkpt lat="42.8604" lon="2.77231">
        <ele>258</ele>
        <time>2021-03-28T07:50:42Z</time>
      </trkpt>
      <trkpt lat="42.86043" lon="2.77228">
        <ele>258.2</ele>
        <time>2021-03-28T07:50:43Z</time>
      </trkpt>
      <trkpt lat="42.86043" lon="2.77228">
        <ele>258.2</ele>
        <time>2021-03-28T07:50:43Z</time>
      </trkpt>
      <trkpt lat="42.86045" lon="2.77224">
        <ele>258.4</ele>
        <time>2021-03-28T07:50:44Z</time>
      </trkpt>
      <trkpt lat="42.86045" lon="2.77224">
        <ele>258.4</ele>
        <time>2021-03-28T07:50:44Z</time>
      </trkpt>
      <trkpt lat="42.86048" lon="2.77221">
        <ele>258.7</ele>
        <time>2021-03-28T07:50:46Z</time>
      </trkpt>
      <trkpt lat="42.86048" lon="2.77221">
        <ele>258.7</ele>
        <time>2021-03-28T07:50:46Z</time>
      </trkpt>
      <trkpt lat="42.8605" lon="2.77218">
        <ele>258.8</ele>
        <time>2021-03-28T07:50:47Z</time>
      </trkpt>
      <trkpt lat="42.8605" lon="2.77218">
        <ele>258.8</ele>
        <time>2021-03-28T07:50:47Z</time>
      </trkpt>
      <trkpt lat="42.86052" lon="2.77216">
        <ele>258.9</ele>
        <time>2021-03-28T07:50:48Z</time>
      </trkpt>
      <trkpt lat="42.86052" lon="2.77216">
        <ele>258.9</ele>
        <time>2021-03-28T07:50:48Z</time>
      </trkpt>
      <trkpt lat="42.86055" lon="2.77213">
        <ele>259.1</ele>
        <time>2021-03-28T07:50:50Z</time>
      </trkpt>
      <trkpt lat="42.86055" lon="2.77213">
        <ele>259.1</ele>
        <time>2021-03-28T07:50:50Z</time>
      </trkpt>
      <trkpt lat="42.86059" lon="2.7721">
        <ele>259.2</ele>
        <time>2021-03-28T07:50:52Z</time>
      </trkpt>
      <trkpt lat="42.86059" lon="2.7721">
        <ele>259.2</ele>
        <time>2021-03-28T07:50:52Z</time>
      </trkpt>
      <trkpt lat="42.86062" lon="2.77207">
        <ele>259.4</ele>
        <time>2021-03-28T07:50:53Z</time>
      </trkpt>
      <trkpt lat="42.86062" lon="2.77207">
        <ele>259.4</ele>
        <time>2021-03-28T07:50:53Z</time>
      </trkpt>
      <trkpt lat="42.86065" lon="2.77204">
        <ele>259.7</ele>
        <time>2021-03-28T07:50:55Z</time>
      </trkpt>
      <trkpt lat="42.86065" lon="2.77204">
        <ele>259.7</ele>
        <time>2021-03-28T07:50:55Z</time>
      </trkpt>
      <trkpt lat="42.86067" lon="2.77202">
        <ele>259.7</ele>
        <time>2021-03-28T07:50:56Z</time>
      </trkpt>
      <trkpt lat="42.86067" lon="2.77202">
        <ele>259.7</ele>
        <time>2021-03-28T07:50:56Z</time>
      </trkpt>
      <trkpt lat="42.8607" lon="2.77199">
        <ele>259.9</ele>
        <time>2021-03-28T07:50:58Z</time>
      </trkpt>
      <trkpt lat="42.8607" lon="2.77199">
        <ele>259.9</ele>
        <time>2021-03-28T07:50:58Z</time>
      </trkpt>
      <trkpt lat="42.86074" lon="2.77196">
        <ele>260</ele>
        <time>2021-03-28T07:51:00Z</time>
      </trkpt>
      <trkpt lat="42.86074" lon="2.77196">
        <ele>260</ele>
        <time>2021-03-28T07:51:00Z</time>
      </trkpt>
      <trkpt lat="42.86077" lon="2.77194">
        <ele>260</ele>
        <time>2021-03-28T07:51:01Z</time>
      </trkpt>
      <trkpt lat="42.86077" lon="2.77194">
        <ele>260</ele>
        <time>2021-03-28T07:51:01Z</time>
      </trkpt>
      <trkpt lat="42.86079" lon="2.77191">
        <ele>260.1</ele>
        <time>2021-03-28T07:51:02Z</time>
      </trkpt>
      <trkpt lat="42.86079" lon="2.77191">
        <ele>260.1</ele>
        <time>2021-03-28T07:51:02Z</time>
      </trkpt>
      <trkpt lat="42.86082" lon="2.77188">
        <ele>260.1</ele>
        <time>2021-03-28T07:51:04Z</time>
      </trkpt>
      <trkpt lat="42.86082" lon="2.77188">
        <ele>260.1</ele>
        <time>2021-03-28T07:51:04Z</time>
      </trkpt>
      <trkpt lat="42.86085" lon="2.77185">
        <ele>260.2</ele>
        <time>2021-03-28T07:51:06Z</time>
      </trkpt>
      <trkpt lat="42.86085" lon="2.77185">
        <ele>260.2</ele>
        <time>2021-03-28T07:51:06Z</time>
      </trkpt>
      <trkpt lat="42.86087" lon="2.77182">
        <ele>260.3</ele>
        <time>2021-03-28T07:51:07Z</time>
      </trkpt>
      <trkpt lat="42.86087" lon="2.77182">
        <ele>260.3</ele>
        <time>2021-03-28T07:51:07Z</time>
      </trkpt>
      <trkpt lat="42.86089" lon="2.77179">
        <ele>260.4</ele>
        <time>2021-03-28T07:51:08Z</time>
      </trkpt>
      <trkpt lat="42.86089" lon="2.77179">
        <ele>260.4</ele>
        <time>2021-03-28T07:51:08Z</time>
      </trkpt>
      <trkpt lat="42.86091" lon="2.77176">
        <ele>260.6</ele>
        <time>2021-03-28T07:51:09Z</time>
      </trkpt>
      <trkpt lat="42.86091" lon="2.77176">
        <ele>260.6</ele>
        <time>2021-03-28T07:51:09Z</time>
      </trkpt>
      <trkpt lat="42.86093" lon="2.77173">
        <ele>260.9</ele>
        <time>2021-03-28T07:51:11Z</time>
      </trkpt>
      <trkpt lat="42.86093" lon="2.77173">
        <ele>260.9</ele>
        <time>2021-03-28T07:51:11Z</time>
      </trkpt>
      <trkpt lat="42.86096" lon="2.77169">
        <ele>261.2</ele>
        <time>2021-03-28T07:51:12Z</time>
      </trkpt>
      <trkpt lat="42.86096" lon="2.77169">
        <ele>261.2</ele>
        <time>2021-03-28T07:51:12Z</time>
      </trkpt>
      <trkpt lat="42.86098" lon="2.77165">
        <ele>261.6</ele>
        <time>2021-03-28T07:51:14Z</time>
      </trkpt>
      <trkpt lat="42.86098" lon="2.77165">
        <ele>261.6</ele>
        <time>2021-03-28T07:51:14Z</time>
      </trkpt>
      <trkpt lat="42.86101" lon="2.77161">
        <ele>261.8</ele>
        <time>2021-03-28T07:51:16Z</time>
      </trkpt>
      <trkpt lat="42.86101" lon="2.77161">
        <ele>261.8</ele>
        <time>2021-03-28T07:51:16Z</time>
      </trkpt>
      <trkpt lat="42.86105" lon="2.77157">
        <ele>262.1</ele>
        <time>2021-03-28T07:51:18Z</time>
      </trkpt>
      <trkpt lat="42.86105" lon="2.77157">
        <ele>262.1</ele>
        <time>2021-03-28T07:51:18Z</time>
      </trkpt>
      <trkpt lat="42.86108" lon="2.77152">
        <ele>262.4</ele>
        <time>2021-03-28T07:51:20Z</time>
      </trkpt>
      <trkpt lat="42.86108" lon="2.77152">
        <ele>262.4</ele>
        <time>2021-03-28T07:51:20Z</time>
      </trkpt>
      <trkpt lat="42.86112" lon="2.77147">
        <ele>262.7</ele>
        <time>2021-03-28T07:51:22Z</time>
      </trkpt>
      <trkpt lat="42.86112" lon="2.77147">
        <ele>262.7</ele>
        <time>2021-03-28T07:51:22Z</time>
      </trkpt>
      <trkpt lat="42.86116" lon="2.77143">
        <ele>262.9</ele>
        <time>2021-03-28T07:51:24Z</time>
      </trkpt>
      <trkpt lat="42.86116" lon="2.77143">
        <ele>262.9</ele>
        <time>2021-03-28T07:51:24Z</time>
      </trkpt>
      <trkpt lat="42.86119" lon="2.77139">
        <ele>263.1</ele>
        <time>2021-03-28T07:51:25Z</time>
      </trkpt>
      <trkpt lat="42.86119" lon="2.77139">
        <ele>263.1</ele>
        <time>2021-03-28T07:51:25Z</time>
      </trkpt>
      <trkpt lat="42.86122" lon="2.77136">
        <ele>263.3</ele>
        <time>2021-03-28T07:51:26Z</time>
      </trkpt>
      <trkpt lat="42.86122" lon="2.77136">
        <ele>263.3</ele>
        <time>2021-03-28T07:51:26Z</time>
      </trkpt>
      <trkpt lat="42.86126" lon="2.77133">
        <ele>263.4</ele>
        <time>2021-03-28T07:51:28Z</time>
      </trkpt>
      <trkpt lat="42.86126" lon="2.77133">
        <ele>263.4</ele>
        <time>2021-03-28T07:51:28Z</time>
      </trkpt>
      <trkpt lat="42.8613" lon="2.7713">
        <ele>263.6</ele>
        <time>2021-03-28T07:51:30Z</time>
      </trkpt>
      <trkpt lat="42.8613" lon="2.7713">
        <ele>263.6</ele>
        <time>2021-03-28T07:51:30Z</time>
      </trkpt>
      <trkpt lat="42.86134" lon="2.77127">
        <ele>263.7</ele>
        <time>2021-03-28T07:51:32Z</time>
      </trkpt>
      <trkpt lat="42.86134" lon="2.77127">
        <ele>263.7</ele>
        <time>2021-03-28T07:51:32Z</time>
      </trkpt>
      <trkpt lat="42.86137" lon="2.77124">
        <ele>263.8</ele>
        <time>2021-03-28T07:51:33Z</time>
      </trkpt>
      <trkpt lat="42.86137" lon="2.77124">
        <ele>263.8</ele>
        <time>2021-03-28T07:51:33Z</time>
      </trkpt>
      <trkpt lat="42.8614" lon="2.77123">
        <ele>263.9</ele>
        <time>2021-03-28T07:51:34Z</time>
      </trkpt>
      <trkpt lat="42.8614" lon="2.77123">
        <ele>263.9</ele>
        <time>2021-03-28T07:51:34Z</time>
      </trkpt>
      <trkpt lat="42.86143" lon="2.77121">
        <ele>264.2</ele>
        <time>2021-03-28T07:51:35Z</time>
      </trkpt>
      <trkpt lat="42.86143" lon="2.77121">
        <ele>264.2</ele>
        <time>2021-03-28T07:51:35Z</time>
      </trkpt>
      <trkpt lat="42.86146" lon="2.7712">
        <ele>264.4</ele>
        <time>2021-03-28T07:51:36Z</time>
      </trkpt>
      <trkpt lat="42.86146" lon="2.7712">
        <ele>264.4</ele>
        <time>2021-03-28T07:51:36Z</time>
      </trkpt>
      <trkpt lat="42.86148" lon="2.77119">
        <ele>264.6</ele>
        <time>2021-03-28T07:51:37Z</time>
      </trkpt>
      <trkpt lat="42.86148" lon="2.77119">
        <ele>264.6</ele>
        <time>2021-03-28T07:51:37Z</time>
      </trkpt>
      <trkpt lat="42.86151" lon="2.77118">
        <ele>264.9</ele>
        <time>2021-03-28T07:51:39Z</time>
      </trkpt>
      <trkpt lat="42.86151" lon="2.77118">
        <ele>264.9</ele>
        <time>2021-03-28T07:51:39Z</time>
      </trkpt>
      <trkpt lat="42.86155" lon="2.77116">
        <ele>265</ele>
        <time>2021-03-28T07:51:40Z</time>
      </trkpt>
      <trkpt lat="42.86155" lon="2.77116">
        <ele>265</ele>
        <time>2021-03-28T07:51:40Z</time>
      </trkpt>
      <trkpt lat="42.86158" lon="2.77115">
        <ele>265.2</ele>
        <time>2021-03-28T07:51:41Z</time>
      </trkpt>
      <trkpt lat="42.86158" lon="2.77115">
        <ele>265.2</ele>
        <time>2021-03-28T07:51:41Z</time>
      </trkpt>
      <trkpt lat="42.8616" lon="2.77114">
        <ele>265.5</ele>
        <time>2021-03-28T07:51:42Z</time>
      </trkpt>
      <trkpt lat="42.8616" lon="2.77114">
        <ele>265.5</ele>
        <time>2021-03-28T07:51:42Z</time>
      </trkpt>
      <trkpt lat="42.86163" lon="2.77113">
        <ele>265.7</ele>
        <time>2021-03-28T07:51:43Z</time>
      </trkpt>
      <trkpt lat="42.86163" lon="2.77113">
        <ele>265.7</ele>
        <time>2021-03-28T07:51:43Z</time>
      </trkpt>
      <trkpt lat="42.86167" lon="2.77111">
        <ele>266</ele>
        <time>2021-03-28T07:51:45Z</time>
      </trkpt>
      <trkpt lat="42.86167" lon="2.77111">
        <ele>266</ele>
        <time>2021-03-28T07:51:45Z</time>
      </trkpt>
      <trkpt lat="42.86171" lon="2.77109">
        <ele>266.2</ele>
        <time>2021-03-28T07:51:47Z</time>
      </trkpt>
      <trkpt lat="42.86171" lon="2.77109">
        <ele>266.2</ele>
        <time>2021-03-28T07:51:47Z</time>
      </trkpt>
      <trkpt lat="42.86175" lon="2.77107">
        <ele>266.4</ele>
        <time>2021-03-28T07:51:48Z</time>
      </trkpt>
      <trkpt lat="42.86175" lon="2.77107">
        <ele>266.4</ele>
        <time>2021-03-28T07:51:48Z</time>
      </trkpt>
      <trkpt lat="42.86179" lon="2.77104">
        <ele>266.7</ele>
        <time>2021-03-28T07:51:50Z</time>
      </trkpt>
      <trkpt lat="42.86179" lon="2.77104">
        <ele>266.7</ele>
        <time>2021-03-28T07:51:50Z</time>
      </trkpt>
      <trkpt lat="42.86183" lon="2.77101">
        <ele>267</ele>
        <time>2021-03-28T07:51:52Z</time>
      </trkpt>
      <trkpt lat="42.86183" lon="2.77101">
        <ele>267</ele>
        <time>2021-03-28T07:51:52Z</time>
      </trkpt>
      <trkpt lat="42.86187" lon="2.77098">
        <ele>267.3</ele>
        <time>2021-03-28T07:51:53Z</time>
      </trkpt>
      <trkpt lat="42.86187" lon="2.77098">
        <ele>267.3</ele>
        <time>2021-03-28T07:51:53Z</time>
      </trkpt>
      <trkpt lat="42.8619" lon="2.77094">
        <ele>267.7</ele>
        <time>2021-03-28T07:51:55Z</time>
      </trkpt>
      <trkpt lat="42.8619" lon="2.77094">
        <ele>267.7</ele>
        <time>2021-03-28T07:51:55Z</time>
      </trkpt>
      <trkpt lat="42.86194" lon="2.77091">
        <ele>268</ele>
        <time>2021-03-28T07:51:57Z</time>
      </trkpt>
      <trkpt lat="42.86194" lon="2.77091">
        <ele>268</ele>
        <time>2021-03-28T07:51:57Z</time>
      </trkpt>
      <trkpt lat="42.86198" lon="2.77087">
        <ele>268.3</ele>
        <time>2021-03-28T07:51:59Z</time>
      </trkpt>
      <trkpt lat="42.86198" lon="2.77087">
        <ele>268.3</ele>
        <time>2021-03-28T07:51:59Z</time>
      </trkpt>
      <trkpt lat="42.86201" lon="2.77084">
        <ele>268.5</ele>
        <time>2021-03-28T07:52:00Z</time>
      </trkpt>
      <trkpt lat="42.86201" lon="2.77084">
        <ele>268.5</ele>
        <time>2021-03-28T07:52:00Z</time>
      </trkpt>
      <trkpt lat="42.86204" lon="2.7708">
        <ele>268.7</ele>
        <time>2021-03-28T07:52:02Z</time>
      </trkpt>
      <trkpt lat="42.86204" lon="2.7708">
        <ele>268.7</ele>
        <time>2021-03-28T07:52:02Z</time>
      </trkpt>
      <trkpt lat="42.86208" lon="2.77076">
        <ele>268.9</ele>
        <time>2021-03-28T07:52:04Z</time>
      </trkpt>
      <trkpt lat="42.86208" lon="2.77076">
        <ele>268.9</ele>
        <time>2021-03-28T07:52:04Z</time>
      </trkpt>
      <trkpt lat="42.86211" lon="2.77073">
        <ele>269.2</ele>
        <time>2021-03-28T07:52:05Z</time>
      </trkpt>
      <trkpt lat="42.86211" lon="2.77073">
        <ele>269.2</ele>
        <time>2021-03-28T07:52:05Z</time>
      </trkpt>
      <trkpt lat="42.86215" lon="2.77069">
        <ele>269.5</ele>
        <time>2021-03-28T07:52:07Z</time>
      </trkpt>
      <trkpt lat="42.86215" lon="2.77069">
        <ele>269.5</ele>
        <time>2021-03-28T07:52:07Z</time>
      </trkpt>
      <trkpt lat="42.86218" lon="2.77065">
        <ele>269.8</ele>
        <time>2021-03-28T07:52:08Z</time>
      </trkpt>
      <trkpt lat="42.86218" lon="2.77065">
        <ele>269.8</ele>
        <time>2021-03-28T07:52:08Z</time>
      </trkpt>
      <trkpt lat="42.86221" lon="2.77061">
        <ele>270.2</ele>
        <time>2021-03-28T07:52:10Z</time>
      </trkpt>
      <trkpt lat="42.86221" lon="2.77061">
        <ele>270.2</ele>
        <time>2021-03-28T07:52:10Z</time>
      </trkpt>
      <trkpt lat="42.86224" lon="2.77057">
        <ele>270.6</ele>
        <time>2021-03-28T07:52:12Z</time>
      </trkpt>
      <trkpt lat="42.86224" lon="2.77057">
        <ele>270.6</ele>
        <time>2021-03-28T07:52:12Z</time>
      </trkpt>
      <trkpt lat="42.86228" lon="2.77053">
        <ele>270.7</ele>
        <time>2021-03-28T07:52:14Z</time>
      </trkpt>
      <trkpt lat="42.86228" lon="2.77053">
        <ele>270.7</ele>
        <time>2021-03-28T07:52:14Z</time>
      </trkpt>
      <trkpt lat="42.86231" lon="2.77049">
        <ele>270.7</ele>
        <time>2021-03-28T07:52:15Z</time>
      </trkpt>
      <trkpt lat="42.86231" lon="2.77049">
        <ele>270.7</ele>
        <time>2021-03-28T07:52:15Z</time>
      </trkpt>
      <trkpt lat="42.86233" lon="2.77045">
        <ele>270.8</ele>
        <time>2021-03-28T07:52:16Z</time>
      </trkpt>
      <trkpt lat="42.86233" lon="2.77045">
        <ele>270.8</ele>
        <time>2021-03-28T07:52:16Z</time>
      </trkpt>
      <trkpt lat="42.86236" lon="2.77042">
        <ele>271</ele>
        <time>2021-03-28T07:52:18Z</time>
      </trkpt>
      <trkpt lat="42.86236" lon="2.77042">
        <ele>271</ele>
        <time>2021-03-28T07:52:18Z</time>
      </trkpt>
      <trkpt lat="42.86239" lon="2.77039">
        <ele>271.1</ele>
        <time>2021-03-28T07:52:19Z</time>
      </trkpt>
      <trkpt lat="42.86239" lon="2.77039">
        <ele>271.1</ele>
        <time>2021-03-28T07:52:19Z</time>
      </trkpt>
      <trkpt lat="42.86242" lon="2.77036">
        <ele>271.3</ele>
        <time>2021-03-28T07:52:20Z</time>
      </trkpt>
      <trkpt lat="42.86242" lon="2.77036">
        <ele>271.3</ele>
        <time>2021-03-28T07:52:20Z</time>
      </trkpt>
      <trkpt lat="42.86245" lon="2.77033">
        <ele>271.5</ele>
        <time>2021-03-28T07:52:22Z</time>
      </trkpt>
      <trkpt lat="42.86245" lon="2.77033">
        <ele>271.5</ele>
        <time>2021-03-28T07:52:22Z</time>
      </trkpt>
      <trkpt lat="42.86248" lon="2.77029">
        <ele>271.9</ele>
        <time>2021-03-28T07:52:24Z</time>
      </trkpt>
      <trkpt lat="42.86248" lon="2.77029">
        <ele>271.9</ele>
        <time>2021-03-28T07:52:24Z</time>
      </trkpt>
      <trkpt lat="42.86251" lon="2.77026">
        <ele>272.2</ele>
        <time>2021-03-28T07:52:26Z</time>
      </trkpt>
      <trkpt lat="42.86251" lon="2.77026">
        <ele>272.2</ele>
        <time>2021-03-28T07:52:26Z</time>
      </trkpt>
      <trkpt lat="42.86255" lon="2.77022">
        <ele>272.5</ele>
        <time>2021-03-28T07:52:28Z</time>
      </trkpt>
      <trkpt lat="42.86255" lon="2.77022">
        <ele>272.5</ele>
        <time>2021-03-28T07:52:28Z</time>
      </trkpt>
      <trkpt lat="42.86259" lon="2.77018">
        <ele>272.8</ele>
        <time>2021-03-28T07:52:30Z</time>
      </trkpt>
      <trkpt lat="42.86259" lon="2.77018">
        <ele>272.8</ele>
        <time>2021-03-28T07:52:30Z</time>
      </trkpt>
      <trkpt lat="42.86263" lon="2.77015">
        <ele>273.1</ele>
        <time>2021-03-28T07:52:32Z</time>
      </trkpt>
      <trkpt lat="42.86263" lon="2.77015">
        <ele>273.1</ele>
        <time>2021-03-28T07:52:32Z</time>
      </trkpt>
      <trkpt lat="42.86267" lon="2.77012">
        <ele>273.4</ele>
        <time>2021-03-28T07:52:34Z</time>
      </trkpt>
      <trkpt lat="42.86267" lon="2.77012">
        <ele>273.4</ele>
        <time>2021-03-28T07:52:34Z</time>
      </trkpt>
      <trkpt lat="42.86271" lon="2.77009">
        <ele>273.8</ele>
        <time>2021-03-28T07:52:35Z</time>
      </trkpt>
      <trkpt lat="42.86271" lon="2.77009">
        <ele>273.8</ele>
        <time>2021-03-28T07:52:35Z</time>
      </trkpt>
      <trkpt lat="42.86275" lon="2.77006">
        <ele>274.2</ele>
        <time>2021-03-28T07:52:37Z</time>
      </trkpt>
      <trkpt lat="42.86275" lon="2.77006">
        <ele>274.2</ele>
        <time>2021-03-28T07:52:37Z</time>
      </trkpt>
      <trkpt lat="42.8628" lon="2.77003">
        <ele>274.6</ele>
        <time>2021-03-28T07:52:39Z</time>
      </trkpt>
      <trkpt lat="42.8628" lon="2.77003">
        <ele>274.6</ele>
        <time>2021-03-28T07:52:39Z</time>
      </trkpt>
      <trkpt lat="42.86283" lon="2.77">
        <ele>275</ele>
        <time>2021-03-28T07:52:40Z</time>
      </trkpt>
      <trkpt lat="42.86283" lon="2.77">
        <ele>275</ele>
        <time>2021-03-28T07:52:40Z</time>
      </trkpt>
      <trkpt lat="42.86287" lon="2.76998">
        <ele>275.2</ele>
        <time>2021-03-28T07:52:42Z</time>
      </trkpt>
      <trkpt lat="42.86287" lon="2.76998">
        <ele>275.2</ele>
        <time>2021-03-28T07:52:42Z</time>
      </trkpt>
      <trkpt lat="42.86291" lon="2.76995">
        <ele>275.4</ele>
        <time>2021-03-28T07:52:43Z</time>
      </trkpt>
      <trkpt lat="42.86291" lon="2.76995">
        <ele>275.4</ele>
        <time>2021-03-28T07:52:43Z</time>
      </trkpt>
      <trkpt lat="42.86294" lon="2.76993">
        <ele>275.5</ele>
        <time>2021-03-28T07:52:45Z</time>
      </trkpt>
      <trkpt lat="42.86294" lon="2.76993">
        <ele>275.5</ele>
        <time>2021-03-28T07:52:45Z</time>
      </trkpt>
      <trkpt lat="42.86297" lon="2.7699">
        <ele>275.7</ele>
        <time>2021-03-28T07:52:46Z</time>
      </trkpt>
      <trkpt lat="42.86297" lon="2.7699">
        <ele>275.7</ele>
        <time>2021-03-28T07:52:46Z</time>
      </trkpt>
      <trkpt lat="42.86301" lon="2.76988">
        <ele>275.9</ele>
        <time>2021-03-28T07:52:48Z</time>
      </trkpt>
      <trkpt lat="42.86301" lon="2.76988">
        <ele>275.9</ele>
        <time>2021-03-28T07:52:48Z</time>
      </trkpt>
      <trkpt lat="42.86304" lon="2.76985">
        <ele>276.1</ele>
        <time>2021-03-28T07:52:49Z</time>
      </trkpt>
      <trkpt lat="42.86304" lon="2.76985">
        <ele>276.1</ele>
        <time>2021-03-28T07:52:49Z</time>
      </trkpt>
      <trkpt lat="42.86308" lon="2.76983">
        <ele>276.3</ele>
        <time>2021-03-28T07:52:51Z</time>
      </trkpt>
      <trkpt lat="42.86308" lon="2.76983">
        <ele>276.3</ele>
        <time>2021-03-28T07:52:51Z</time>
      </trkpt>
      <trkpt lat="42.86312" lon="2.7698">
        <ele>276.5</ele>
        <time>2021-03-28T07:52:53Z</time>
      </trkpt>
      <trkpt lat="42.86312" lon="2.7698">
        <ele>276.5</ele>
        <time>2021-03-28T07:52:53Z</time>
      </trkpt>
      <trkpt lat="42.86315" lon="2.76978">
        <ele>276.7</ele>
        <time>2021-03-28T07:52:54Z</time>
      </trkpt>
      <trkpt lat="42.86315" lon="2.76978">
        <ele>276.7</ele>
        <time>2021-03-28T07:52:54Z</time>
      </trkpt>
      <trkpt lat="42.86319" lon="2.76977">
        <ele>276.8</ele>
        <time>2021-03-28T07:52:55Z</time>
      </trkpt>
      <trkpt lat="42.86319" lon="2.76977">
        <ele>276.8</ele>
        <time>2021-03-28T07:52:55Z</time>
      </trkpt>
      <trkpt lat="42.86323" lon="2.76975">
        <ele>276.9</ele>
        <time>2021-03-28T07:52:57Z</time>
      </trkpt>
      <trkpt lat="42.86323" lon="2.76975">
        <ele>276.9</ele>
        <time>2021-03-28T07:52:57Z</time>
      </trkpt>
      <trkpt lat="42.86326" lon="2.76973">
        <ele>277</ele>
        <time>2021-03-28T07:52:58Z</time>
      </trkpt>
      <trkpt lat="42.86326" lon="2.76973">
        <ele>277</ele>
        <time>2021-03-28T07:52:58Z</time>
      </trkpt>
      <trkpt lat="42.86329" lon="2.76972">
        <ele>277</ele>
        <time>2021-03-28T07:52:59Z</time>
      </trkpt>
      <trkpt lat="42.86329" lon="2.76972">
        <ele>277</ele>
        <time>2021-03-28T07:52:59Z</time>
      </trkpt>
      <trkpt lat="42.86332" lon="2.76971">
        <ele>277.1</ele>
        <time>2021-03-28T07:53:00Z</time>
      </trkpt>
      <trkpt lat="42.86332" lon="2.76971">
        <ele>277.1</ele>
        <time>2021-03-28T07:53:00Z</time>
      </trkpt>
      <trkpt lat="42.86335" lon="2.7697">
        <ele>277.3</ele>
        <time>2021-03-28T07:53:01Z</time>
      </trkpt>
      <trkpt lat="42.86335" lon="2.7697">
        <ele>277.3</ele>
        <time>2021-03-28T07:53:01Z</time>
      </trkpt>
      <trkpt lat="42.86339" lon="2.76969">
        <ele>277.6</ele>
        <time>2021-03-28T07:53:03Z</time>
      </trkpt>
      <trkpt lat="42.86339" lon="2.76969">
        <ele>277.6</ele>
        <time>2021-03-28T07:53:03Z</time>
      </trkpt>
      <trkpt lat="42.86342" lon="2.76968">
        <ele>277.9</ele>
        <time>2021-03-28T07:53:04Z</time>
      </trkpt>
      <trkpt lat="42.86342" lon="2.76968">
        <ele>277.9</ele>
        <time>2021-03-28T07:53:04Z</time>
      </trkpt>
      <trkpt lat="42.86346" lon="2.76967">
        <ele>278.2</ele>
        <time>2021-03-28T07:53:06Z</time>
      </trkpt>
      <trkpt lat="42.86346" lon="2.76967">
        <ele>278.2</ele>
        <time>2021-03-28T07:53:06Z</time>
      </trkpt>
      <trkpt lat="42.86349" lon="2.76966">
        <ele>278.5</ele>
        <time>2021-03-28T07:53:07Z</time>
      </trkpt>
      <trkpt lat="42.86349" lon="2.76966">
        <ele>278.5</ele>
        <time>2021-03-28T07:53:07Z</time>
      </trkpt>
      <trkpt lat="42.86353" lon="2.76966">
        <ele>278.7</ele>
        <time>2021-03-28T07:53:09Z</time>
      </trkpt>
      <trkpt lat="42.86353" lon="2.76966">
        <ele>278.7</ele>
        <time>2021-03-28T07:53:09Z</time>
      </trkpt>
      <trkpt lat="42.86358" lon="2.76966">
        <ele>279</ele>
        <time>2021-03-28T07:53:11Z</time>
      </trkpt>
      <trkpt lat="42.86358" lon="2.76966">
        <ele>279</ele>
        <time>2021-03-28T07:53:11Z</time>
      </trkpt>
      <trkpt lat="42.86362" lon="2.76966">
        <ele>279.3</ele>
        <time>2021-03-28T07:53:13Z</time>
      </trkpt>
      <trkpt lat="42.86362" lon="2.76966">
        <ele>279.3</ele>
        <time>2021-03-28T07:53:13Z</time>
      </trkpt>
      <trkpt lat="42.86367" lon="2.76966">
        <ele>279.4</ele>
        <time>2021-03-28T07:53:14Z</time>
      </trkpt>
      <trkpt lat="42.86367" lon="2.76966">
        <ele>279.4</ele>
        <time>2021-03-28T07:53:14Z</time>
      </trkpt>
      <trkpt lat="42.86371" lon="2.76966">
        <ele>279.6</ele>
        <time>2021-03-28T07:53:16Z</time>
      </trkpt>
      <trkpt lat="42.86371" lon="2.76966">
        <ele>279.6</ele>
        <time>2021-03-28T07:53:16Z</time>
      </trkpt>
      <trkpt lat="42.86375" lon="2.76967">
        <ele>279.7</ele>
        <time>2021-03-28T07:53:17Z</time>
      </trkpt>
      <trkpt lat="42.86375" lon="2.76967">
        <ele>279.7</ele>
        <time>2021-03-28T07:53:17Z</time>
      </trkpt>
      <trkpt lat="42.86379" lon="2.76967">
        <ele>279.8</ele>
        <time>2021-03-28T07:53:19Z</time>
      </trkpt>
      <trkpt lat="42.86379" lon="2.76967">
        <ele>279.8</ele>
        <time>2021-03-28T07:53:19Z</time>
      </trkpt>
      <trkpt lat="42.86383" lon="2.76967">
        <ele>280</ele>
        <time>2021-03-28T07:53:20Z</time>
      </trkpt>
      <trkpt lat="42.86383" lon="2.76967">
        <ele>280</ele>
        <time>2021-03-28T07:53:20Z</time>
      </trkpt>
      <trkpt lat="42.86387" lon="2.76967">
        <ele>280.1</ele>
        <time>2021-03-28T07:53:21Z</time>
      </trkpt>
      <trkpt lat="42.86387" lon="2.76967">
        <ele>280.1</ele>
        <time>2021-03-28T07:53:21Z</time>
      </trkpt>
      <trkpt lat="42.8639" lon="2.76967">
        <ele>280.2</ele>
        <time>2021-03-28T07:53:22Z</time>
      </trkpt>
      <trkpt lat="42.8639" lon="2.76967">
        <ele>280.2</ele>
        <time>2021-03-28T07:53:22Z</time>
      </trkpt>
      <trkpt lat="42.86394" lon="2.76967">
        <ele>280.4</ele>
        <time>2021-03-28T07:53:24Z</time>
      </trkpt>
      <trkpt lat="42.86394" lon="2.76967">
        <ele>280.4</ele>
        <time>2021-03-28T07:53:24Z</time>
      </trkpt>
      <trkpt lat="42.86399" lon="2.76967">
        <ele>280.6</ele>
        <time>2021-03-28T07:53:26Z</time>
      </trkpt>
      <trkpt lat="42.86399" lon="2.76967">
        <ele>280.6</ele>
        <time>2021-03-28T07:53:26Z</time>
      </trkpt>
      <trkpt lat="42.86405" lon="2.76967">
        <ele>280.8</ele>
        <time>2021-03-28T07:53:28Z</time>
      </trkpt>
      <trkpt lat="42.86405" lon="2.76967">
        <ele>280.8</ele>
        <time>2021-03-28T07:53:28Z</time>
      </trkpt>
      <trkpt lat="42.86409" lon="2.76967">
        <ele>280.9</ele>
        <time>2021-03-28T07:53:29Z</time>
      </trkpt>
      <trkpt lat="42.86409" lon="2.76967">
        <ele>280.9</ele>
        <time>2021-03-28T07:53:29Z</time>
      </trkpt>
      <trkpt lat="42.86415" lon="2.76967">
        <ele>281.1</ele>
        <time>2021-03-28T07:53:31Z</time>
      </trkpt>
      <trkpt lat="42.86415" lon="2.76967">
        <ele>281.1</ele>
        <time>2021-03-28T07:53:31Z</time>
      </trkpt>
      <trkpt lat="42.8642" lon="2.76967">
        <ele>281.3</ele>
        <time>2021-03-28T07:53:33Z</time>
      </trkpt>
      <trkpt lat="42.8642" lon="2.76967">
        <ele>281.3</ele>
        <time>2021-03-28T07:53:33Z</time>
      </trkpt>
      <trkpt lat="42.86426" lon="2.76967">
        <ele>281.5</ele>
        <time>2021-03-28T07:53:35Z</time>
      </trkpt>
      <trkpt lat="42.86426" lon="2.76967">
        <ele>281.5</ele>
        <time>2021-03-28T07:53:35Z</time>
      </trkpt>
      <trkpt lat="42.86431" lon="2.76967">
        <ele>281.7</ele>
        <time>2021-03-28T07:53:36Z</time>
      </trkpt>
      <trkpt lat="42.86431" lon="2.76967">
        <ele>281.7</ele>
        <time>2021-03-28T07:53:36Z</time>
      </trkpt>
      <trkpt lat="42.86437" lon="2.76967">
        <ele>281.9</ele>
        <time>2021-03-28T07:53:38Z</time>
      </trkpt>
      <trkpt lat="42.86437" lon="2.76967">
        <ele>281.9</ele>
        <time>2021-03-28T07:53:38Z</time>
      </trkpt>
      <trkpt lat="42.86443" lon="2.76967">
        <ele>282.2</ele>
        <time>2021-03-28T07:53:40Z</time>
      </trkpt>
      <trkpt lat="42.86443" lon="2.76967">
        <ele>282.2</ele>
        <time>2021-03-28T07:53:40Z</time>
      </trkpt>
      <trkpt lat="42.86448" lon="2.76966">
        <ele>282.2</ele>
        <time>2021-03-28T07:53:41Z</time>
      </trkpt>
      <trkpt lat="42.86448" lon="2.76966">
        <ele>282.2</ele>
        <time>2021-03-28T07:53:41Z</time>
      </trkpt>
      <trkpt lat="42.86454" lon="2.76967">
        <ele>282.2</ele>
        <time>2021-03-28T07:53:43Z</time>
      </trkpt>
      <trkpt lat="42.86454" lon="2.76967">
        <ele>282.2</ele>
        <time>2021-03-28T07:53:43Z</time>
      </trkpt>
      <trkpt lat="42.86461" lon="2.76966">
        <ele>282.2</ele>
        <time>2021-03-28T07:53:45Z</time>
      </trkpt>
      <trkpt lat="42.86461" lon="2.76966">
        <ele>282.2</ele>
        <time>2021-03-28T07:53:45Z</time>
      </trkpt>
      <trkpt lat="42.86466" lon="2.76966">
        <ele>282.2</ele>
        <time>2021-03-28T07:53:46Z</time>
      </trkpt>
      <trkpt lat="42.86466" lon="2.76966">
        <ele>282.2</ele>
        <time>2021-03-28T07:53:46Z</time>
      </trkpt>
      <trkpt lat="42.86473" lon="2.76967">
        <ele>282.2</ele>
        <time>2021-03-28T07:53:48Z</time>
      </trkpt>
      <trkpt lat="42.86473" lon="2.76967">
        <ele>282.2</ele>
        <time>2021-03-28T07:53:48Z</time>
      </trkpt>
      <trkpt lat="42.86478" lon="2.76967">
        <ele>282.2</ele>
        <time>2021-03-28T07:53:49Z</time>
      </trkpt>
      <trkpt lat="42.86478" lon="2.76967">
        <ele>282.2</ele>
        <time>2021-03-28T07:53:49Z</time>
      </trkpt>
      <trkpt lat="42.86484" lon="2.76967">
        <ele>282.2</ele>
        <time>2021-03-28T07:53:51Z</time>
      </trkpt>
      <trkpt lat="42.86484" lon="2.76967">
        <ele>282.2</ele>
        <time>2021-03-28T07:53:51Z</time>
      </trkpt>
      <trkpt lat="42.86491" lon="2.76967">
        <ele>282.2</ele>
        <time>2021-03-28T07:53:53Z</time>
      </trkpt>
      <trkpt lat="42.86491" lon="2.76967">
        <ele>282.2</ele>
        <time>2021-03-28T07:53:53Z</time>
      </trkpt>
      <trkpt lat="42.86498" lon="2.76967">
        <ele>282.2</ele>
        <time>2021-03-28T07:53:55Z</time>
      </trkpt>
      <trkpt lat="42.86498" lon="2.76967">
        <ele>282.2</ele>
        <time>2021-03-28T07:53:55Z</time>
      </trkpt>
      <trkpt lat="42.86504" lon="2.76967">
        <ele>282.3</ele>
        <time>2021-03-28T07:53:56Z</time>
      </trkpt>
      <trkpt lat="42.86504" lon="2.76967">
        <ele>282.3</ele>
        <time>2021-03-28T07:53:56Z</time>
      </trkpt>
      <trkpt lat="42.86509" lon="2.76967">
        <ele>282.4</ele>
        <time>2021-03-28T07:53:57Z</time>
      </trkpt>
      <trkpt lat="42.86509" lon="2.76967">
        <ele>282.4</ele>
        <time>2021-03-28T07:53:57Z</time>
      </trkpt>
      <trkpt lat="42.86515" lon="2.76967">
        <ele>282.6</ele>
        <time>2021-03-28T07:53:59Z</time>
      </trkpt>
      <trkpt lat="42.86515" lon="2.76967">
        <ele>282.6</ele>
        <time>2021-03-28T07:53:59Z</time>
      </trkpt>
      <trkpt lat="42.86522" lon="2.76967">
        <ele>282.8</ele>
        <time>2021-03-28T07:54:01Z</time>
      </trkpt>
      <trkpt lat="42.86522" lon="2.76967">
        <ele>282.8</ele>
        <time>2021-03-28T07:54:01Z</time>
      </trkpt>
      <trkpt lat="42.8653" lon="2.76968">
        <ele>283</ele>
        <time>2021-03-28T07:54:03Z</time>
      </trkpt>
      <trkpt lat="42.8653" lon="2.76968">
        <ele>283</ele>
        <time>2021-03-28T07:54:03Z</time>
      </trkpt>
      <trkpt lat="42.86536" lon="2.76968">
        <ele>283</ele>
        <time>2021-03-28T07:54:04Z</time>
      </trkpt>
      <trkpt lat="42.86536" lon="2.76968">
        <ele>283</ele>
        <time>2021-03-28T07:54:04Z</time>
      </trkpt>
      <trkpt lat="42.86542" lon="2.76968">
        <ele>283.1</ele>
        <time>2021-03-28T07:54:05Z</time>
      </trkpt>
      <trkpt lat="42.86542" lon="2.76968">
        <ele>283.1</ele>
        <time>2021-03-28T07:54:05Z</time>
      </trkpt>
      <trkpt lat="42.8655" lon="2.76968">
        <ele>283.1</ele>
        <time>2021-03-28T07:54:07Z</time>
      </trkpt>
      <trkpt lat="42.8655" lon="2.76968">
        <ele>283.1</ele>
        <time>2021-03-28T07:54:07Z</time>
      </trkpt>
      <trkpt lat="42.86556" lon="2.76968">
        <ele>283.1</ele>
        <time>2021-03-28T07:54:08Z</time>
      </trkpt>
      <trkpt lat="42.86556" lon="2.76968">
        <ele>283.1</ele>
        <time>2021-03-28T07:54:08Z</time>
      </trkpt>
      <trkpt lat="42.86561" lon="2.76969">
        <ele>283.3</ele>
        <time>2021-03-28T07:54:09Z</time>
      </trkpt>
      <trkpt lat="42.86561" lon="2.76969">
        <ele>283.3</ele>
        <time>2021-03-28T07:54:09Z</time>
      </trkpt>
      <trkpt lat="42.86568" lon="2.7697">
        <ele>283.5</ele>
        <time>2021-03-28T07:54:11Z</time>
      </trkpt>
      <trkpt lat="42.86568" lon="2.7697">
        <ele>283.5</ele>
        <time>2021-03-28T07:54:11Z</time>
      </trkpt>
      <trkpt lat="42.86575" lon="2.76971">
        <ele>283.7</ele>
        <time>2021-03-28T07:54:13Z</time>
      </trkpt>
      <trkpt lat="42.86575" lon="2.76971">
        <ele>283.7</ele>
        <time>2021-03-28T07:54:13Z</time>
      </trkpt>
      <trkpt lat="42.8658" lon="2.76972">
        <ele>283.9</ele>
        <time>2021-03-28T07:54:14Z</time>
      </trkpt>
      <trkpt lat="42.8658" lon="2.76972">
        <ele>283.9</ele>
        <time>2021-03-28T07:54:14Z</time>
      </trkpt>
      <trkpt lat="42.86585" lon="2.76973">
        <ele>284.1</ele>
        <time>2021-03-28T07:54:15Z</time>
      </trkpt>
      <trkpt lat="42.86585" lon="2.76973">
        <ele>284.1</ele>
        <time>2021-03-28T07:54:15Z</time>
      </trkpt>
      <trkpt lat="42.86591" lon="2.76973">
        <ele>284.2</ele>
        <time>2021-03-28T07:54:17Z</time>
      </trkpt>
      <trkpt lat="42.86591" lon="2.76973">
        <ele>284.2</ele>
        <time>2021-03-28T07:54:17Z</time>
      </trkpt>
      <trkpt lat="42.86598" lon="2.76975">
        <ele>284.4</ele>
        <time>2021-03-28T07:54:19Z</time>
      </trkpt>
      <trkpt lat="42.86598" lon="2.76975">
        <ele>284.4</ele>
        <time>2021-03-28T07:54:19Z</time>
      </trkpt>
      <trkpt lat="42.86605" lon="2.76977">
        <ele>284.6</ele>
        <time>2021-03-28T07:54:21Z</time>
      </trkpt>
      <trkpt lat="42.86605" lon="2.76977">
        <ele>284.6</ele>
        <time>2021-03-28T07:54:21Z</time>
      </trkpt>
      <trkpt lat="42.86613" lon="2.76979">
        <ele>284.8</ele>
        <time>2021-03-28T07:54:23Z</time>
      </trkpt>
      <trkpt lat="42.86613" lon="2.76979">
        <ele>284.8</ele>
        <time>2021-03-28T07:54:23Z</time>
      </trkpt>
      <trkpt lat="42.86621" lon="2.76981">
        <ele>285</ele>
        <time>2021-03-28T07:54:25Z</time>
      </trkpt>
      <trkpt lat="42.86621" lon="2.76981">
        <ele>285</ele>
        <time>2021-03-28T07:54:25Z</time>
      </trkpt>
      <trkpt lat="42.86627" lon="2.76983">
        <ele>285.2</ele>
        <time>2021-03-28T07:54:26Z</time>
      </trkpt>
      <trkpt lat="42.86627" lon="2.76983">
        <ele>285.2</ele>
        <time>2021-03-28T07:54:26Z</time>
      </trkpt>
      <trkpt lat="42.86633" lon="2.76985">
        <ele>285.3</ele>
        <time>2021-03-28T07:54:27Z</time>
      </trkpt>
      <trkpt lat="42.86633" lon="2.76985">
        <ele>285.3</ele>
        <time>2021-03-28T07:54:27Z</time>
      </trkpt>
      <trkpt lat="42.86638" lon="2.76987">
        <ele>285.4</ele>
        <time>2021-03-28T07:54:28Z</time>
      </trkpt>
      <trkpt lat="42.86638" lon="2.76987">
        <ele>285.4</ele>
        <time>2021-03-28T07:54:28Z</time>
      </trkpt>
      <trkpt lat="42.86644" lon="2.76989">
        <ele>285.4</ele>
        <time>2021-03-28T07:54:30Z</time>
      </trkpt>
      <trkpt lat="42.86644" lon="2.76989">
        <ele>285.4</ele>
        <time>2021-03-28T07:54:30Z</time>
      </trkpt>
      <trkpt lat="42.86649" lon="2.76991">
        <ele>285.3</ele>
        <time>2021-03-28T07:54:31Z</time>
      </trkpt>
      <trkpt lat="42.86649" lon="2.76991">
        <ele>285.3</ele>
        <time>2021-03-28T07:54:31Z</time>
      </trkpt>
      <trkpt lat="42.86657" lon="2.76992">
        <ele>285.3</ele>
        <time>2021-03-28T07:54:33Z</time>
      </trkpt>
      <trkpt lat="42.86657" lon="2.76992">
        <ele>285.3</ele>
        <time>2021-03-28T07:54:33Z</time>
      </trkpt>
      <trkpt lat="42.86665" lon="2.76994">
        <ele>285.2</ele>
        <time>2021-03-28T07:54:35Z</time>
      </trkpt>
      <trkpt lat="42.86665" lon="2.76994">
        <ele>285.2</ele>
        <time>2021-03-28T07:54:35Z</time>
      </trkpt>
      <trkpt lat="42.86672" lon="2.76996">
        <ele>285.3</ele>
        <time>2021-03-28T07:54:36Z</time>
      </trkpt>
      <trkpt lat="42.86672" lon="2.76996">
        <ele>285.3</ele>
        <time>2021-03-28T07:54:36Z</time>
      </trkpt>
      <trkpt lat="42.8668" lon="2.76999">
        <ele>285.5</ele>
        <time>2021-03-28T07:54:38Z</time>
      </trkpt>
      <trkpt lat="42.8668" lon="2.76999">
        <ele>285.5</ele>
        <time>2021-03-28T07:54:38Z</time>
      </trkpt>
      <trkpt lat="42.86686" lon="2.77001">
        <ele>285.7</ele>
        <time>2021-03-28T07:54:39Z</time>
      </trkpt>
      <trkpt lat="42.86686" lon="2.77001">
        <ele>285.7</ele>
        <time>2021-03-28T07:54:39Z</time>
      </trkpt>
      <trkpt lat="42.86694" lon="2.77004">
        <ele>285.9</ele>
        <time>2021-03-28T07:54:41Z</time>
      </trkpt>
      <trkpt lat="42.86694" lon="2.77004">
        <ele>285.9</ele>
        <time>2021-03-28T07:54:41Z</time>
      </trkpt>
      <trkpt lat="42.86703" lon="2.77006">
        <ele>285.8</ele>
        <time>2021-03-28T07:54:43Z</time>
      </trkpt>
      <trkpt lat="42.86703" lon="2.77006">
        <ele>285.8</ele>
        <time>2021-03-28T07:54:43Z</time>
      </trkpt>
      <trkpt lat="42.86712" lon="2.77009">
        <ele>285.7</ele>
        <time>2021-03-28T07:54:45Z</time>
      </trkpt>
      <trkpt lat="42.86712" lon="2.77009">
        <ele>285.7</ele>
        <time>2021-03-28T07:54:45Z</time>
      </trkpt>
      <trkpt lat="42.86722" lon="2.77012">
        <ele>285.6</ele>
        <time>2021-03-28T07:54:47Z</time>
      </trkpt>
      <trkpt lat="42.86722" lon="2.77012">
        <ele>285.6</ele>
        <time>2021-03-28T07:54:47Z</time>
      </trkpt>
      <trkpt lat="42.8673" lon="2.77014">
        <ele>285.5</ele>
        <time>2021-03-28T07:54:48Z</time>
      </trkpt>
      <trkpt lat="42.8673" lon="2.77014">
        <ele>285.5</ele>
        <time>2021-03-28T07:54:48Z</time>
      </trkpt>
      <trkpt lat="42.86739" lon="2.77016">
        <ele>285.4</ele>
        <time>2021-03-28T07:54:50Z</time>
      </trkpt>
      <trkpt lat="42.86739" lon="2.77016">
        <ele>285.4</ele>
        <time>2021-03-28T07:54:50Z</time>
      </trkpt>
      <trkpt lat="42.86749" lon="2.77018">
        <ele>285.4</ele>
        <time>2021-03-28T07:54:52Z</time>
      </trkpt>
      <trkpt lat="42.86749" lon="2.77018">
        <ele>285.4</ele>
        <time>2021-03-28T07:54:52Z</time>
      </trkpt>
      <trkpt lat="42.86758" lon="2.7702">
        <ele>285.6</ele>
        <time>2021-03-28T07:54:54Z</time>
      </trkpt>
      <trkpt lat="42.86758" lon="2.7702">
        <ele>285.6</ele>
        <time>2021-03-28T07:54:54Z</time>
      </trkpt>
      <trkpt lat="42.86767" lon="2.77022">
        <ele>285.8</ele>
        <time>2021-03-28T07:54:55Z</time>
      </trkpt>
      <trkpt lat="42.86767" lon="2.77022">
        <ele>285.8</ele>
        <time>2021-03-28T07:54:55Z</time>
      </trkpt>
      <trkpt lat="42.86776" lon="2.77024">
        <ele>286.1</ele>
        <time>2021-03-28T07:54:57Z</time>
      </trkpt>
      <trkpt lat="42.86776" lon="2.77024">
        <ele>286.1</ele>
        <time>2021-03-28T07:54:57Z</time>
      </trkpt>
      <trkpt lat="42.86786" lon="2.77027">
        <ele>286.3</ele>
        <time>2021-03-28T07:54:59Z</time>
      </trkpt>
      <trkpt lat="42.86786" lon="2.77027">
        <ele>286.3</ele>
        <time>2021-03-28T07:54:59Z</time>
      </trkpt>
      <trkpt lat="42.86796" lon="2.77028">
        <ele>286.6</ele>
        <time>2021-03-28T07:55:01Z</time>
      </trkpt>
      <trkpt lat="42.86796" lon="2.77028">
        <ele>286.6</ele>
        <time>2021-03-28T07:55:01Z</time>
      </trkpt>
      <trkpt lat="42.86804" lon="2.77029">
        <ele>286.9</ele>
        <time>2021-03-28T07:55:02Z</time>
      </trkpt>
      <trkpt lat="42.86804" lon="2.77029">
        <ele>286.9</ele>
        <time>2021-03-28T07:55:02Z</time>
      </trkpt>
      <trkpt lat="42.86813" lon="2.7703">
        <ele>287.2</ele>
        <time>2021-03-28T07:55:04Z</time>
      </trkpt>
      <trkpt lat="42.86813" lon="2.7703">
        <ele>287.2</ele>
        <time>2021-03-28T07:55:04Z</time>
      </trkpt>
      <trkpt lat="42.86823" lon="2.77029">
        <ele>287.5</ele>
        <time>2021-03-28T07:55:06Z</time>
      </trkpt>
      <trkpt lat="42.86823" lon="2.77029">
        <ele>287.5</ele>
        <time>2021-03-28T07:55:06Z</time>
      </trkpt>
      <trkpt lat="42.86831" lon="2.77029">
        <ele>287.9</ele>
        <time>2021-03-28T07:55:07Z</time>
      </trkpt>
      <trkpt lat="42.86831" lon="2.77029">
        <ele>287.9</ele>
        <time>2021-03-28T07:55:07Z</time>
      </trkpt>
      <trkpt lat="42.86841" lon="2.77027">
        <ele>287.8</ele>
        <time>2021-03-28T07:55:09Z</time>
      </trkpt>
      <trkpt lat="42.86841" lon="2.77027">
        <ele>287.8</ele>
        <time>2021-03-28T07:55:09Z</time>
      </trkpt>
      <trkpt lat="42.86848" lon="2.77026">
        <ele>287.6</ele>
        <time>2021-03-28T07:55:10Z</time>
      </trkpt>
      <trkpt lat="42.86848" lon="2.77026">
        <ele>287.6</ele>
        <time>2021-03-28T07:55:10Z</time>
      </trkpt>
      <trkpt lat="42.86857" lon="2.77024">
        <ele>287.4</ele>
        <time>2021-03-28T07:55:12Z</time>
      </trkpt>
      <trkpt lat="42.86857" lon="2.77024">
        <ele>287.4</ele>
        <time>2021-03-28T07:55:12Z</time>
      </trkpt>
      <trkpt lat="42.86866" lon="2.77021">
        <ele>287.7</ele>
        <time>2021-03-28T07:55:14Z</time>
      </trkpt>
      <trkpt lat="42.86866" lon="2.77021">
        <ele>287.7</ele>
        <time>2021-03-28T07:55:14Z</time>
      </trkpt>
      <trkpt lat="42.86875" lon="2.77019">
        <ele>288.3</ele>
        <time>2021-03-28T07:55:15Z</time>
      </trkpt>
      <trkpt lat="42.86875" lon="2.77019">
        <ele>288.3</ele>
        <time>2021-03-28T07:55:15Z</time>
      </trkpt>
      <trkpt lat="42.86884" lon="2.77017">
        <ele>288.8</ele>
        <time>2021-03-28T07:55:17Z</time>
      </trkpt>
      <trkpt lat="42.86884" lon="2.77017">
        <ele>288.8</ele>
        <time>2021-03-28T07:55:17Z</time>
      </trkpt>
      <trkpt lat="42.86893" lon="2.77015">
        <ele>289</ele>
        <time>2021-03-28T07:55:19Z</time>
      </trkpt>
      <trkpt lat="42.86893" lon="2.77015">
        <ele>289</ele>
        <time>2021-03-28T07:55:19Z</time>
      </trkpt>
      <trkpt lat="42.86903" lon="2.77013">
        <ele>289</ele>
        <time>2021-03-28T07:55:21Z</time>
      </trkpt>
      <trkpt lat="42.86903" lon="2.77013">
        <ele>289</ele>
        <time>2021-03-28T07:55:21Z</time>
      </trkpt>
      <trkpt lat="42.86913" lon="2.7701">
        <ele>289.2</ele>
        <time>2021-03-28T07:55:23Z</time>
      </trkpt>
      <trkpt lat="42.86913" lon="2.7701">
        <ele>289.2</ele>
        <time>2021-03-28T07:55:23Z</time>
      </trkpt>
      <trkpt lat="42.86921" lon="2.77008">
        <ele>289.4</ele>
        <time>2021-03-28T07:55:24Z</time>
      </trkpt>
      <trkpt lat="42.86921" lon="2.77008">
        <ele>289.4</ele>
        <time>2021-03-28T07:55:24Z</time>
      </trkpt>
      <trkpt lat="42.8693" lon="2.77005">
        <ele>289.3</ele>
        <time>2021-03-28T07:55:26Z</time>
      </trkpt>
      <trkpt lat="42.8693" lon="2.77005">
        <ele>289.3</ele>
        <time>2021-03-28T07:55:26Z</time>
      </trkpt>
      <trkpt lat="42.8694" lon="2.77">
        <ele>289.2</ele>
        <time>2021-03-28T07:55:28Z</time>
      </trkpt>
      <trkpt lat="42.8694" lon="2.77">
        <ele>289.2</ele>
        <time>2021-03-28T07:55:28Z</time>
      </trkpt>
      <trkpt lat="42.86948" lon="2.76996">
        <ele>289.3</ele>
        <time>2021-03-28T07:55:29Z</time>
      </trkpt>
      <trkpt lat="42.86948" lon="2.76996">
        <ele>289.3</ele>
        <time>2021-03-28T07:55:29Z</time>
      </trkpt>
      <trkpt lat="42.86956" lon="2.7699">
        <ele>289.6</ele>
        <time>2021-03-28T07:55:31Z</time>
      </trkpt>
      <trkpt lat="42.86956" lon="2.7699">
        <ele>289.6</ele>
        <time>2021-03-28T07:55:31Z</time>
      </trkpt>
      <trkpt lat="42.86964" lon="2.76984">
        <ele>289.8</ele>
        <time>2021-03-28T07:55:33Z</time>
      </trkpt>
      <trkpt lat="42.86964" lon="2.76984">
        <ele>289.8</ele>
        <time>2021-03-28T07:55:33Z</time>
      </trkpt>
      <trkpt lat="42.86972" lon="2.76977">
        <ele>289.8</ele>
        <time>2021-03-28T07:55:35Z</time>
      </trkpt>
      <trkpt lat="42.86972" lon="2.76977">
        <ele>289.8</ele>
        <time>2021-03-28T07:55:35Z</time>
      </trkpt>
      <trkpt lat="42.86981" lon="2.76969">
        <ele>290.4</ele>
        <time>2021-03-28T07:55:37Z</time>
      </trkpt>
      <trkpt lat="42.86981" lon="2.76969">
        <ele>290.4</ele>
        <time>2021-03-28T07:55:37Z</time>
      </trkpt>
      <trkpt lat="42.86989" lon="2.76961">
        <ele>290.8</ele>
        <time>2021-03-28T07:55:39Z</time>
      </trkpt>
      <trkpt lat="42.86989" lon="2.76961">
        <ele>290.8</ele>
        <time>2021-03-28T07:55:39Z</time>
      </trkpt>
      <trkpt lat="42.86997" lon="2.76952">
        <ele>291</ele>
        <time>2021-03-28T07:55:41Z</time>
      </trkpt>
      <trkpt lat="42.86997" lon="2.76952">
        <ele>291</ele>
        <time>2021-03-28T07:55:41Z</time>
      </trkpt>
      <trkpt lat="42.87004" lon="2.76945">
        <ele>291</ele>
        <time>2021-03-28T07:55:42Z</time>
      </trkpt>
      <trkpt lat="42.87004" lon="2.76945">
        <ele>291</ele>
        <time>2021-03-28T07:55:42Z</time>
      </trkpt>
      <trkpt lat="42.87012" lon="2.76937">
        <ele>291.3</ele>
        <time>2021-03-28T07:55:44Z</time>
      </trkpt>
      <trkpt lat="42.87012" lon="2.76937">
        <ele>291.3</ele>
        <time>2021-03-28T07:55:44Z</time>
      </trkpt>
      <trkpt lat="42.87018" lon="2.76929">
        <ele>291.6</ele>
        <time>2021-03-28T07:55:45Z</time>
      </trkpt>
      <trkpt lat="42.87018" lon="2.76929">
        <ele>291.6</ele>
        <time>2021-03-28T07:55:45Z</time>
      </trkpt>
      <trkpt lat="42.87024" lon="2.7692">
        <ele>291.9</ele>
        <time>2021-03-28T07:55:47Z</time>
      </trkpt>
      <trkpt lat="42.87024" lon="2.7692">
        <ele>291.9</ele>
        <time>2021-03-28T07:55:47Z</time>
      </trkpt>
      <trkpt lat="42.8703" lon="2.76912">
        <ele>291.9</ele>
        <time>2021-03-28T07:55:48Z</time>
      </trkpt>
      <trkpt lat="42.8703" lon="2.76912">
        <ele>291.9</ele>
        <time>2021-03-28T07:55:48Z</time>
      </trkpt>
      <trkpt lat="42.87035" lon="2.76904">
        <ele>291.7</ele>
        <time>2021-03-28T07:55:50Z</time>
      </trkpt>
      <trkpt lat="42.87035" lon="2.76904">
        <ele>291.7</ele>
        <time>2021-03-28T07:55:50Z</time>
      </trkpt>
      <trkpt lat="42.87041" lon="2.76895">
        <ele>291.5</ele>
        <time>2021-03-28T07:55:52Z</time>
      </trkpt>
      <trkpt lat="42.87041" lon="2.76895">
        <ele>291.5</ele>
        <time>2021-03-28T07:55:52Z</time>
      </trkpt>
      <trkpt lat="42.87045" lon="2.76887">
        <ele>291.4</ele>
        <time>2021-03-28T07:55:53Z</time>
      </trkpt>
      <trkpt lat="42.87045" lon="2.76887">
        <ele>291.4</ele>
        <time>2021-03-28T07:55:53Z</time>
      </trkpt>
      <trkpt lat="42.8705" lon="2.76878">
        <ele>291.6</ele>
        <time>2021-03-28T07:55:55Z</time>
      </trkpt>
      <trkpt lat="42.8705" lon="2.76878">
        <ele>291.6</ele>
        <time>2021-03-28T07:55:55Z</time>
      </trkpt>
      <trkpt lat="42.87055" lon="2.76868">
        <ele>291.8</ele>
        <time>2021-03-28T07:55:57Z</time>
      </trkpt>
      <trkpt lat="42.87055" lon="2.76868">
        <ele>291.8</ele>
        <time>2021-03-28T07:55:57Z</time>
      </trkpt>
      <trkpt lat="42.8706" lon="2.7686">
        <ele>291.9</ele>
        <time>2021-03-28T07:55:58Z</time>
      </trkpt>
      <trkpt lat="42.8706" lon="2.7686">
        <ele>291.9</ele>
        <time>2021-03-28T07:55:58Z</time>
      </trkpt>
      <trkpt lat="42.87065" lon="2.76851">
        <ele>292</ele>
        <time>2021-03-28T07:56:00Z</time>
      </trkpt>
      <trkpt lat="42.87065" lon="2.76851">
        <ele>292</ele>
        <time>2021-03-28T07:56:00Z</time>
      </trkpt>
      <trkpt lat="42.87069" lon="2.76844">
        <ele>292.1</ele>
        <time>2021-03-28T07:56:01Z</time>
      </trkpt>
      <trkpt lat="42.87069" lon="2.76844">
        <ele>292.1</ele>
        <time>2021-03-28T07:56:01Z</time>
      </trkpt>
      <trkpt lat="42.87072" lon="2.76837">
        <ele>292.3</ele>
        <time>2021-03-28T07:56:02Z</time>
      </trkpt>
      <trkpt lat="42.87072" lon="2.76837">
        <ele>292.3</ele>
        <time>2021-03-28T07:56:02Z</time>
      </trkpt>
      <trkpt lat="42.87076" lon="2.7683">
        <ele>292.4</ele>
        <time>2021-03-28T07:56:04Z</time>
      </trkpt>
      <trkpt lat="42.87076" lon="2.7683">
        <ele>292.4</ele>
        <time>2021-03-28T07:56:04Z</time>
      </trkpt>
      <trkpt lat="42.87081" lon="2.76823">
        <ele>292.5</ele>
        <time>2021-03-28T07:56:06Z</time>
      </trkpt>
      <trkpt lat="42.87081" lon="2.76823">
        <ele>292.5</ele>
        <time>2021-03-28T07:56:06Z</time>
      </trkpt>
      <trkpt lat="42.87086" lon="2.76815">
        <ele>292.7</ele>
        <time>2021-03-28T07:56:08Z</time>
      </trkpt>
      <trkpt lat="42.87086" lon="2.76815">
        <ele>292.7</ele>
        <time>2021-03-28T07:56:08Z</time>
      </trkpt>
      <trkpt lat="42.87091" lon="2.76807">
        <ele>293</ele>
        <time>2021-03-28T07:56:10Z</time>
      </trkpt>
      <trkpt lat="42.87091" lon="2.76807">
        <ele>293</ele>
        <time>2021-03-28T07:56:10Z</time>
      </trkpt>
      <trkpt lat="42.87096" lon="2.76798">
        <ele>293</ele>
        <time>2021-03-28T07:56:12Z</time>
      </trkpt>
      <trkpt lat="42.87096" lon="2.76798">
        <ele>293</ele>
        <time>2021-03-28T07:56:12Z</time>
      </trkpt>
      <trkpt lat="42.87101" lon="2.7679">
        <ele>293</ele>
        <time>2021-03-28T07:56:13Z</time>
      </trkpt>
      <trkpt lat="42.87101" lon="2.7679">
        <ele>293</ele>
        <time>2021-03-28T07:56:13Z</time>
      </trkpt>
      <trkpt lat="42.87106" lon="2.76782">
        <ele>293</ele>
        <time>2021-03-28T07:56:15Z</time>
      </trkpt>
      <trkpt lat="42.87106" lon="2.76782">
        <ele>293</ele>
        <time>2021-03-28T07:56:15Z</time>
      </trkpt>
      <trkpt lat="42.87111" lon="2.76774">
        <ele>293</ele>
        <time>2021-03-28T07:56:17Z</time>
      </trkpt>
      <trkpt lat="42.87111" lon="2.76774">
        <ele>293</ele>
        <time>2021-03-28T07:56:17Z</time>
      </trkpt>
      <trkpt lat="42.87117" lon="2.76765">
        <ele>293.2</ele>
        <time>2021-03-28T07:56:19Z</time>
      </trkpt>
      <trkpt lat="42.87117" lon="2.76765">
        <ele>293.2</ele>
        <time>2021-03-28T07:56:19Z</time>
      </trkpt>
      <trkpt lat="42.87122" lon="2.76756">
        <ele>293.4</ele>
        <time>2021-03-28T07:56:21Z</time>
      </trkpt>
      <trkpt lat="42.87122" lon="2.76756">
        <ele>293.4</ele>
        <time>2021-03-28T07:56:21Z</time>
      </trkpt>
      <trkpt lat="42.87128" lon="2.76746">
        <ele>293.6</ele>
        <time>2021-03-28T07:56:23Z</time>
      </trkpt>
      <trkpt lat="42.87128" lon="2.76746">
        <ele>293.6</ele>
        <time>2021-03-28T07:56:23Z</time>
      </trkpt>
      <trkpt lat="42.87133" lon="2.76737">
        <ele>293.8</ele>
        <time>2021-03-28T07:56:25Z</time>
      </trkpt>
      <trkpt lat="42.87133" lon="2.76737">
        <ele>293.8</ele>
        <time>2021-03-28T07:56:25Z</time>
      </trkpt>
      <trkpt lat="42.87139" lon="2.76727">
        <ele>294</ele>
        <time>2021-03-28T07:56:27Z</time>
      </trkpt>
      <trkpt lat="42.87139" lon="2.76727">
        <ele>294</ele>
        <time>2021-03-28T07:56:27Z</time>
      </trkpt>
      <trkpt lat="42.87144" lon="2.76719">
        <ele>294.1</ele>
        <time>2021-03-28T07:56:28Z</time>
      </trkpt>
      <trkpt lat="42.87144" lon="2.76719">
        <ele>294.1</ele>
        <time>2021-03-28T07:56:28Z</time>
      </trkpt>
      <trkpt lat="42.8715" lon="2.7671">
        <ele>293.9</ele>
        <time>2021-03-28T07:56:30Z</time>
      </trkpt>
      <trkpt lat="42.8715" lon="2.7671">
        <ele>293.9</ele>
        <time>2021-03-28T07:56:30Z</time>
      </trkpt>
      <trkpt lat="42.87154" lon="2.76702">
        <ele>293.8</ele>
        <time>2021-03-28T07:56:31Z</time>
      </trkpt>
      <trkpt lat="42.87154" lon="2.76702">
        <ele>293.8</ele>
        <time>2021-03-28T07:56:31Z</time>
      </trkpt>
      <trkpt lat="42.87159" lon="2.76693">
        <ele>293.7</ele>
        <time>2021-03-28T07:56:33Z</time>
      </trkpt>
      <trkpt lat="42.87159" lon="2.76693">
        <ele>293.7</ele>
        <time>2021-03-28T07:56:33Z</time>
      </trkpt>
      <trkpt lat="42.87164" lon="2.76685">
        <ele>293.9</ele>
        <time>2021-03-28T07:56:34Z</time>
      </trkpt>
      <trkpt lat="42.87164" lon="2.76685">
        <ele>293.9</ele>
        <time>2021-03-28T07:56:34Z</time>
      </trkpt>
      <trkpt lat="42.87168" lon="2.76677">
        <ele>294</ele>
        <time>2021-03-28T07:56:36Z</time>
      </trkpt>
      <trkpt lat="42.87168" lon="2.76677">
        <ele>294</ele>
        <time>2021-03-28T07:56:36Z</time>
      </trkpt>
      <trkpt lat="42.87173" lon="2.76668">
        <ele>294</ele>
        <time>2021-03-28T07:56:38Z</time>
      </trkpt>
      <trkpt lat="42.87173" lon="2.76668">
        <ele>294</ele>
        <time>2021-03-28T07:56:38Z</time>
      </trkpt>
      <trkpt lat="42.87179" lon="2.76659">
        <ele>294</ele>
        <time>2021-03-28T07:56:40Z</time>
      </trkpt>
      <trkpt lat="42.87179" lon="2.76659">
        <ele>294</ele>
        <time>2021-03-28T07:56:40Z</time>
      </trkpt>
      <trkpt lat="42.87183" lon="2.7665">
        <ele>294</ele>
        <time>2021-03-28T07:56:41Z</time>
      </trkpt>
      <trkpt lat="42.87183" lon="2.7665">
        <ele>294</ele>
        <time>2021-03-28T07:56:41Z</time>
      </trkpt>
      <trkpt lat="42.87188" lon="2.76643">
        <ele>294</ele>
        <time>2021-03-28T07:56:42Z</time>
      </trkpt>
      <trkpt lat="42.87188" lon="2.76643">
        <ele>294</ele>
        <time>2021-03-28T07:56:42Z</time>
      </trkpt>
      <trkpt lat="42.87192" lon="2.76637">
        <ele>294.1</ele>
        <time>2021-03-28T07:56:43Z</time>
      </trkpt>
      <trkpt lat="42.87192" lon="2.76637">
        <ele>294.1</ele>
        <time>2021-03-28T07:56:43Z</time>
      </trkpt>
      <trkpt lat="42.87195" lon="2.76631">
        <ele>294.3</ele>
        <time>2021-03-28T07:56:44Z</time>
      </trkpt>
      <trkpt lat="42.87195" lon="2.76631">
        <ele>294.3</ele>
        <time>2021-03-28T07:56:44Z</time>
      </trkpt>
      <trkpt lat="42.87199" lon="2.76624">
        <ele>294.6</ele>
        <time>2021-03-28T07:56:46Z</time>
      </trkpt>
      <trkpt lat="42.87199" lon="2.76624">
        <ele>294.6</ele>
        <time>2021-03-28T07:56:46Z</time>
      </trkpt>
      <trkpt lat="42.87204" lon="2.76616">
        <ele>294.9</ele>
        <time>2021-03-28T07:56:48Z</time>
      </trkpt>
      <trkpt lat="42.87204" lon="2.76616">
        <ele>294.9</ele>
        <time>2021-03-28T07:56:48Z</time>
      </trkpt>
      <trkpt lat="42.87208" lon="2.7661">
        <ele>295</ele>
        <time>2021-03-28T07:56:49Z</time>
      </trkpt>
      <trkpt lat="42.87208" lon="2.7661">
        <ele>295</ele>
        <time>2021-03-28T07:56:49Z</time>
      </trkpt>
      <trkpt lat="42.87213" lon="2.76602">
        <ele>295</ele>
        <time>2021-03-28T07:56:51Z</time>
      </trkpt>
      <trkpt lat="42.87213" lon="2.76602">
        <ele>295</ele>
        <time>2021-03-28T07:56:51Z</time>
      </trkpt>
      <trkpt lat="42.87217" lon="2.76595">
        <ele>295</ele>
        <time>2021-03-28T07:56:52Z</time>
      </trkpt>
      <trkpt lat="42.87217" lon="2.76595">
        <ele>295</ele>
        <time>2021-03-28T07:56:52Z</time>
      </trkpt>
      <trkpt lat="42.8722" lon="2.76588">
        <ele>295</ele>
        <time>2021-03-28T07:56:53Z</time>
      </trkpt>
      <trkpt lat="42.8722" lon="2.76588">
        <ele>295</ele>
        <time>2021-03-28T07:56:53Z</time>
      </trkpt>
      <trkpt lat="42.87225" lon="2.7658">
        <ele>295</ele>
        <time>2021-03-28T07:56:55Z</time>
      </trkpt>
      <trkpt lat="42.87225" lon="2.7658">
        <ele>295</ele>
        <time>2021-03-28T07:56:55Z</time>
      </trkpt>
      <trkpt lat="42.8723" lon="2.76572">
        <ele>295.1</ele>
        <time>2021-03-28T07:56:57Z</time>
      </trkpt>
      <trkpt lat="42.8723" lon="2.76572">
        <ele>295.1</ele>
        <time>2021-03-28T07:56:57Z</time>
      </trkpt>
      <trkpt lat="42.87235" lon="2.76564">
        <ele>295.3</ele>
        <time>2021-03-28T07:56:59Z</time>
      </trkpt>
      <trkpt lat="42.87235" lon="2.76564">
        <ele>295.3</ele>
        <time>2021-03-28T07:56:59Z</time>
      </trkpt>
      <trkpt lat="42.87239" lon="2.76557">
        <ele>295.6</ele>
        <time>2021-03-28T07:57:00Z</time>
      </trkpt>
      <trkpt lat="42.87239" lon="2.76557">
        <ele>295.6</ele>
        <time>2021-03-28T07:57:00Z</time>
      </trkpt>
      <trkpt lat="42.87243" lon="2.7655">
        <ele>295.8</ele>
        <time>2021-03-28T07:57:01Z</time>
      </trkpt>
      <trkpt lat="42.87243" lon="2.7655">
        <ele>295.8</ele>
        <time>2021-03-28T07:57:01Z</time>
      </trkpt>
      <trkpt lat="42.87247" lon="2.76544">
        <ele>295.9</ele>
        <time>2021-03-28T07:57:02Z</time>
      </trkpt>
      <trkpt lat="42.87247" lon="2.76544">
        <ele>295.9</ele>
        <time>2021-03-28T07:57:02Z</time>
      </trkpt>
      <trkpt lat="42.87251" lon="2.76538">
        <ele>296</ele>
        <time>2021-03-28T07:57:03Z</time>
      </trkpt>
      <trkpt lat="42.87251" lon="2.76538">
        <ele>296</ele>
        <time>2021-03-28T07:57:03Z</time>
      </trkpt>
      <trkpt lat="42.87255" lon="2.76531">
        <ele>296.2</ele>
        <time>2021-03-28T07:57:05Z</time>
      </trkpt>
      <trkpt lat="42.87255" lon="2.76531">
        <ele>296.2</ele>
        <time>2021-03-28T07:57:05Z</time>
      </trkpt>
      <trkpt lat="42.8726" lon="2.76523">
        <ele>296.3</ele>
        <time>2021-03-28T07:57:07Z</time>
      </trkpt>
      <trkpt lat="42.8726" lon="2.76523">
        <ele>296.3</ele>
        <time>2021-03-28T07:57:07Z</time>
      </trkpt>
      <trkpt lat="42.87264" lon="2.76516">
        <ele>296.5</ele>
        <time>2021-03-28T07:57:08Z</time>
      </trkpt>
      <trkpt lat="42.87264" lon="2.76516">
        <ele>296.5</ele>
        <time>2021-03-28T07:57:08Z</time>
      </trkpt>
      <trkpt lat="42.87268" lon="2.76509">
        <ele>296.6</ele>
        <time>2021-03-28T07:57:09Z</time>
      </trkpt>
      <trkpt lat="42.87268" lon="2.76509">
        <ele>296.6</ele>
        <time>2021-03-28T07:57:09Z</time>
      </trkpt>
      <trkpt lat="42.87273" lon="2.76502">
        <ele>296.8</ele>
        <time>2021-03-28T07:57:11Z</time>
      </trkpt>
      <trkpt lat="42.87273" lon="2.76502">
        <ele>296.8</ele>
        <time>2021-03-28T07:57:11Z</time>
      </trkpt>
      <trkpt lat="42.87277" lon="2.76494">
        <ele>296.8</ele>
        <time>2021-03-28T07:57:12Z</time>
      </trkpt>
      <trkpt lat="42.87277" lon="2.76494">
        <ele>296.8</ele>
        <time>2021-03-28T07:57:12Z</time>
      </trkpt>
      <trkpt lat="42.87282" lon="2.76486">
        <ele>296.6</ele>
        <time>2021-03-28T07:57:14Z</time>
      </trkpt>
      <trkpt lat="42.87282" lon="2.76486">
        <ele>296.6</ele>
        <time>2021-03-28T07:57:14Z</time>
      </trkpt>
      <trkpt lat="42.87288" lon="2.76477">
        <ele>296.5</ele>
        <time>2021-03-28T07:57:16Z</time>
      </trkpt>
      <trkpt lat="42.87288" lon="2.76477">
        <ele>296.5</ele>
        <time>2021-03-28T07:57:16Z</time>
      </trkpt>
      <trkpt lat="42.87293" lon="2.76467">
        <ele>296.6</ele>
        <time>2021-03-28T07:57:18Z</time>
      </trkpt>
      <trkpt lat="42.87293" lon="2.76467">
        <ele>296.6</ele>
        <time>2021-03-28T07:57:18Z</time>
      </trkpt>
      <trkpt lat="42.87298" lon="2.76459">
        <ele>296.7</ele>
        <time>2021-03-28T07:57:19Z</time>
      </trkpt>
      <trkpt lat="42.87298" lon="2.76459">
        <ele>296.7</ele>
        <time>2021-03-28T07:57:19Z</time>
      </trkpt>
      <trkpt lat="42.87303" lon="2.7645">
        <ele>296.9</ele>
        <time>2021-03-28T07:57:21Z</time>
      </trkpt>
      <trkpt lat="42.87303" lon="2.7645">
        <ele>296.9</ele>
        <time>2021-03-28T07:57:21Z</time>
      </trkpt>
      <trkpt lat="42.87309" lon="2.76441">
        <ele>296.9</ele>
        <time>2021-03-28T07:57:23Z</time>
      </trkpt>
      <trkpt lat="42.87309" lon="2.76441">
        <ele>296.9</ele>
        <time>2021-03-28T07:57:23Z</time>
      </trkpt>
      <trkpt lat="42.87314" lon="2.76433">
        <ele>296.8</ele>
        <time>2021-03-28T07:57:24Z</time>
      </trkpt>
      <trkpt lat="42.87314" lon="2.76433">
        <ele>296.8</ele>
        <time>2021-03-28T07:57:24Z</time>
      </trkpt>
      <trkpt lat="42.87318" lon="2.76426">
        <ele>296.9</ele>
        <time>2021-03-28T07:57:25Z</time>
      </trkpt>
      <trkpt lat="42.87318" lon="2.76426">
        <ele>296.9</ele>
        <time>2021-03-28T07:57:25Z</time>
      </trkpt>
      <trkpt lat="42.87322" lon="2.76419">
        <ele>297.2</ele>
        <time>2021-03-28T07:57:27Z</time>
      </trkpt>
      <trkpt lat="42.87322" lon="2.76419">
        <ele>297.2</ele>
        <time>2021-03-28T07:57:27Z</time>
      </trkpt>
      <trkpt lat="42.87326" lon="2.7641">
        <ele>297.3</ele>
        <time>2021-03-28T07:57:29Z</time>
      </trkpt>
      <trkpt lat="42.87326" lon="2.7641">
        <ele>297.3</ele>
        <time>2021-03-28T07:57:29Z</time>
      </trkpt>
      <trkpt lat="42.87331" lon="2.76401">
        <ele>297.3</ele>
        <time>2021-03-28T07:57:31Z</time>
      </trkpt>
      <trkpt lat="42.87331" lon="2.76401">
        <ele>297.3</ele>
        <time>2021-03-28T07:57:31Z</time>
      </trkpt>
      <trkpt lat="42.87335" lon="2.76393">
        <ele>297.3</ele>
        <time>2021-03-28T07:57:32Z</time>
      </trkpt>
      <trkpt lat="42.87335" lon="2.76393">
        <ele>297.3</ele>
        <time>2021-03-28T07:57:32Z</time>
      </trkpt>
      <trkpt lat="42.8734" lon="2.76384">
        <ele>297.5</ele>
        <time>2021-03-28T07:57:34Z</time>
      </trkpt>
      <trkpt lat="42.8734" lon="2.76384">
        <ele>297.5</ele>
        <time>2021-03-28T07:57:34Z</time>
      </trkpt>
      <trkpt lat="42.87344" lon="2.76377">
        <ele>297.9</ele>
        <time>2021-03-28T07:57:35Z</time>
      </trkpt>
      <trkpt lat="42.87344" lon="2.76377">
        <ele>297.9</ele>
        <time>2021-03-28T07:57:35Z</time>
      </trkpt>
      <trkpt lat="42.87348" lon="2.76369">
        <ele>298.5</ele>
        <time>2021-03-28T07:57:37Z</time>
      </trkpt>
      <trkpt lat="42.87348" lon="2.76369">
        <ele>298.5</ele>
        <time>2021-03-28T07:57:37Z</time>
      </trkpt>
      <trkpt lat="42.87353" lon="2.7636">
        <ele>299.1</ele>
        <time>2021-03-28T07:57:39Z</time>
      </trkpt>
      <trkpt lat="42.87353" lon="2.7636">
        <ele>299.1</ele>
        <time>2021-03-28T07:57:39Z</time>
      </trkpt>
      <trkpt lat="42.87357" lon="2.76353">
        <ele>299.4</ele>
        <time>2021-03-28T07:57:40Z</time>
      </trkpt>
      <trkpt lat="42.87357" lon="2.76353">
        <ele>299.4</ele>
        <time>2021-03-28T07:57:40Z</time>
      </trkpt>
      <trkpt lat="42.87362" lon="2.76345">
        <ele>299.5</ele>
        <time>2021-03-28T07:57:42Z</time>
      </trkpt>
      <trkpt lat="42.87362" lon="2.76345">
        <ele>299.5</ele>
        <time>2021-03-28T07:57:42Z</time>
      </trkpt>
      <trkpt lat="42.87368" lon="2.76335">
        <ele>299.5</ele>
        <time>2021-03-28T07:57:44Z</time>
      </trkpt>
      <trkpt lat="42.87368" lon="2.76335">
        <ele>299.5</ele>
        <time>2021-03-28T07:57:44Z</time>
      </trkpt>
      <trkpt lat="42.87372" lon="2.76327">
        <ele>299.7</ele>
        <time>2021-03-28T07:57:45Z</time>
      </trkpt>
      <trkpt lat="42.87372" lon="2.76327">
        <ele>299.7</ele>
        <time>2021-03-28T07:57:45Z</time>
      </trkpt>
      <trkpt lat="42.87376" lon="2.7632">
        <ele>299.8</ele>
        <time>2021-03-28T07:57:46Z</time>
      </trkpt>
      <trkpt lat="42.87376" lon="2.7632">
        <ele>299.8</ele>
        <time>2021-03-28T07:57:46Z</time>
      </trkpt>
      <trkpt lat="42.8738" lon="2.76314">
        <ele>299.9</ele>
        <time>2021-03-28T07:57:47Z</time>
      </trkpt>
      <trkpt lat="42.8738" lon="2.76314">
        <ele>299.9</ele>
        <time>2021-03-28T07:57:47Z</time>
      </trkpt>
      <trkpt lat="42.87385" lon="2.76307">
        <ele>299.9</ele>
        <time>2021-03-28T07:57:49Z</time>
      </trkpt>
      <trkpt lat="42.87385" lon="2.76307">
        <ele>299.9</ele>
        <time>2021-03-28T07:57:49Z</time>
      </trkpt>
      <trkpt lat="42.8739" lon="2.76299">
        <ele>300.1</ele>
        <time>2021-03-28T07:57:51Z</time>
      </trkpt>
      <trkpt lat="42.8739" lon="2.76299">
        <ele>300.1</ele>
        <time>2021-03-28T07:57:51Z</time>
      </trkpt>
      <trkpt lat="42.87396" lon="2.7629">
        <ele>300.5</ele>
        <time>2021-03-28T07:57:53Z</time>
      </trkpt>
      <trkpt lat="42.87396" lon="2.7629">
        <ele>300.5</ele>
        <time>2021-03-28T07:57:53Z</time>
      </trkpt>
      <trkpt lat="42.87402" lon="2.76282">
        <ele>300.9</ele>
        <time>2021-03-28T07:57:55Z</time>
      </trkpt>
      <trkpt lat="42.87402" lon="2.76282">
        <ele>300.9</ele>
        <time>2021-03-28T07:57:55Z</time>
      </trkpt>
      <trkpt lat="42.87408" lon="2.76273">
        <ele>301.4</ele>
        <time>2021-03-28T07:57:57Z</time>
      </trkpt>
      <trkpt lat="42.87408" lon="2.76273">
        <ele>301.4</ele>
        <time>2021-03-28T07:57:57Z</time>
      </trkpt>
      <trkpt lat="42.87415" lon="2.76266">
        <ele>301.8</ele>
        <time>2021-03-28T07:57:59Z</time>
      </trkpt>
      <trkpt lat="42.87415" lon="2.76266">
        <ele>301.8</ele>
        <time>2021-03-28T07:57:59Z</time>
      </trkpt>
      <trkpt lat="42.8742" lon="2.76259">
        <ele>302</ele>
        <time>2021-03-28T07:58:00Z</time>
      </trkpt>
      <trkpt lat="42.8742" lon="2.76259">
        <ele>302</ele>
        <time>2021-03-28T07:58:00Z</time>
      </trkpt>
      <trkpt lat="42.87425" lon="2.76254">
        <ele>302</ele>
        <time>2021-03-28T07:58:01Z</time>
      </trkpt>
      <trkpt lat="42.87425" lon="2.76254">
        <ele>302</ele>
        <time>2021-03-28T07:58:01Z</time>
      </trkpt>
      <trkpt lat="42.87431" lon="2.76247">
        <ele>302.1</ele>
        <time>2021-03-28T07:58:03Z</time>
      </trkpt>
      <trkpt lat="42.87431" lon="2.76247">
        <ele>302.1</ele>
        <time>2021-03-28T07:58:03Z</time>
      </trkpt>
      <trkpt lat="42.87435" lon="2.76241">
        <ele>302.2</ele>
        <time>2021-03-28T07:58:04Z</time>
      </trkpt>
      <trkpt lat="42.87435" lon="2.76241">
        <ele>302.2</ele>
        <time>2021-03-28T07:58:04Z</time>
      </trkpt>
      <trkpt lat="42.87441" lon="2.76235">
        <ele>302.5</ele>
        <time>2021-03-28T07:58:06Z</time>
      </trkpt>
      <trkpt lat="42.87441" lon="2.76235">
        <ele>302.5</ele>
        <time>2021-03-28T07:58:06Z</time>
      </trkpt>
      <trkpt lat="42.87447" lon="2.76228">
        <ele>302.8</ele>
        <time>2021-03-28T07:58:08Z</time>
      </trkpt>
      <trkpt lat="42.87447" lon="2.76228">
        <ele>302.8</ele>
        <time>2021-03-28T07:58:08Z</time>
      </trkpt>
      <trkpt lat="42.87453" lon="2.76221">
        <ele>302.9</ele>
        <time>2021-03-28T07:58:10Z</time>
      </trkpt>
      <trkpt lat="42.87453" lon="2.76221">
        <ele>302.9</ele>
        <time>2021-03-28T07:58:10Z</time>
      </trkpt>
      <trkpt lat="42.87458" lon="2.76215">
        <ele>302.6</ele>
        <time>2021-03-28T07:58:11Z</time>
      </trkpt>
      <trkpt lat="42.87458" lon="2.76215">
        <ele>302.6</ele>
        <time>2021-03-28T07:58:11Z</time>
      </trkpt>
      <trkpt lat="42.87464" lon="2.76209">
        <ele>302.4</ele>
        <time>2021-03-28T07:58:13Z</time>
      </trkpt>
      <trkpt lat="42.87464" lon="2.76209">
        <ele>302.4</ele>
        <time>2021-03-28T07:58:13Z</time>
      </trkpt>
      <trkpt lat="42.87469" lon="2.76203">
        <ele>302.2</ele>
        <time>2021-03-28T07:58:15Z</time>
      </trkpt>
      <trkpt lat="42.87469" lon="2.76203">
        <ele>302.2</ele>
        <time>2021-03-28T07:58:15Z</time>
      </trkpt>
      <trkpt lat="42.87474" lon="2.76198">
        <ele>302.2</ele>
        <time>2021-03-28T07:58:16Z</time>
      </trkpt>
      <trkpt lat="42.87474" lon="2.76198">
        <ele>302.2</ele>
        <time>2021-03-28T07:58:16Z</time>
      </trkpt>
      <trkpt lat="42.87478" lon="2.76193">
        <ele>302.4</ele>
        <time>2021-03-28T07:58:17Z</time>
      </trkpt>
      <trkpt lat="42.87478" lon="2.76193">
        <ele>302.4</ele>
        <time>2021-03-28T07:58:17Z</time>
      </trkpt>
      <trkpt lat="42.87484" lon="2.76188">
        <ele>302.6</ele>
        <time>2021-03-28T07:58:19Z</time>
      </trkpt>
      <trkpt lat="42.87484" lon="2.76188">
        <ele>302.6</ele>
        <time>2021-03-28T07:58:19Z</time>
      </trkpt>
      <trkpt lat="42.87488" lon="2.76183">
        <ele>302.7</ele>
        <time>2021-03-28T07:58:20Z</time>
      </trkpt>
      <trkpt lat="42.87488" lon="2.76183">
        <ele>302.7</ele>
        <time>2021-03-28T07:58:20Z</time>
      </trkpt>
      <trkpt lat="42.87494" lon="2.76177">
        <ele>302.9</ele>
        <time>2021-03-28T07:58:22Z</time>
      </trkpt>
      <trkpt lat="42.87494" lon="2.76177">
        <ele>302.9</ele>
        <time>2021-03-28T07:58:22Z</time>
      </trkpt>
      <trkpt lat="42.87498" lon="2.76172">
        <ele>303.1</ele>
        <time>2021-03-28T07:58:23Z</time>
      </trkpt>
      <trkpt lat="42.87498" lon="2.76172">
        <ele>303.1</ele>
        <time>2021-03-28T07:58:23Z</time>
      </trkpt>
      <trkpt lat="42.87502" lon="2.76167">
        <ele>303.2</ele>
        <time>2021-03-28T07:58:24Z</time>
      </trkpt>
      <trkpt lat="42.87502" lon="2.76167">
        <ele>303.2</ele>
        <time>2021-03-28T07:58:24Z</time>
      </trkpt>
      <trkpt lat="42.87507" lon="2.76163">
        <ele>303.2</ele>
        <time>2021-03-28T07:58:25Z</time>
      </trkpt>
      <trkpt lat="42.87507" lon="2.76163">
        <ele>303.2</ele>
        <time>2021-03-28T07:58:25Z</time>
      </trkpt>
      <trkpt lat="42.87512" lon="2.76157">
        <ele>303.3</ele>
        <time>2021-03-28T07:58:27Z</time>
      </trkpt>
      <trkpt lat="42.87512" lon="2.76157">
        <ele>303.3</ele>
        <time>2021-03-28T07:58:27Z</time>
      </trkpt>
      <trkpt lat="42.87518" lon="2.7615">
        <ele>303.5</ele>
        <time>2021-03-28T07:58:29Z</time>
      </trkpt>
      <trkpt lat="42.87518" lon="2.7615">
        <ele>303.5</ele>
        <time>2021-03-28T07:58:29Z</time>
      </trkpt>
      <trkpt lat="42.87525" lon="2.76142">
        <ele>303.8</ele>
        <time>2021-03-28T07:58:31Z</time>
      </trkpt>
      <trkpt lat="42.87525" lon="2.76142">
        <ele>303.8</ele>
        <time>2021-03-28T07:58:31Z</time>
      </trkpt>
      <trkpt lat="42.87532" lon="2.76134">
        <ele>304.1</ele>
        <time>2021-03-28T07:58:33Z</time>
      </trkpt>
      <trkpt lat="42.87532" lon="2.76134">
        <ele>304.1</ele>
        <time>2021-03-28T07:58:33Z</time>
      </trkpt>
      <trkpt lat="42.87538" lon="2.76127">
        <ele>304.3</ele>
        <time>2021-03-28T07:58:34Z</time>
      </trkpt>
      <trkpt lat="42.87538" lon="2.76127">
        <ele>304.3</ele>
        <time>2021-03-28T07:58:34Z</time>
      </trkpt>
      <trkpt lat="42.87544" lon="2.76122">
        <ele>304.5</ele>
        <time>2021-03-28T07:58:35Z</time>
      </trkpt>
      <trkpt lat="42.87544" lon="2.76122">
        <ele>304.5</ele>
        <time>2021-03-28T07:58:35Z</time>
      </trkpt>
      <trkpt lat="42.8755" lon="2.76115">
        <ele>304.7</ele>
        <time>2021-03-28T07:58:37Z</time>
      </trkpt>
      <trkpt lat="42.8755" lon="2.76115">
        <ele>304.7</ele>
        <time>2021-03-28T07:58:37Z</time>
      </trkpt>
      <trkpt lat="42.87557" lon="2.76107">
        <ele>304.7</ele>
        <time>2021-03-28T07:58:39Z</time>
      </trkpt>
      <trkpt lat="42.87557" lon="2.76107">
        <ele>304.7</ele>
        <time>2021-03-28T07:58:39Z</time>
      </trkpt>
      <trkpt lat="42.87563" lon="2.761">
        <ele>304.6</ele>
        <time>2021-03-28T07:58:40Z</time>
      </trkpt>
      <trkpt lat="42.87563" lon="2.761">
        <ele>304.6</ele>
        <time>2021-03-28T07:58:40Z</time>
      </trkpt>
      <trkpt lat="42.8757" lon="2.76093">
        <ele>304.5</ele>
        <time>2021-03-28T07:58:42Z</time>
      </trkpt>
      <trkpt lat="42.8757" lon="2.76093">
        <ele>304.5</ele>
        <time>2021-03-28T07:58:42Z</time>
      </trkpt>
      <trkpt lat="42.87577" lon="2.76086">
        <ele>304.6</ele>
        <time>2021-03-28T07:58:44Z</time>
      </trkpt>
      <trkpt lat="42.87577" lon="2.76086">
        <ele>304.6</ele>
        <time>2021-03-28T07:58:44Z</time>
      </trkpt>
      <trkpt lat="42.87585" lon="2.76079">
        <ele>304.9</ele>
        <time>2021-03-28T07:58:46Z</time>
      </trkpt>
      <trkpt lat="42.87585" lon="2.76079">
        <ele>304.9</ele>
        <time>2021-03-28T07:58:46Z</time>
      </trkpt>
      <trkpt lat="42.87591" lon="2.76073">
        <ele>305.2</ele>
        <time>2021-03-28T07:58:47Z</time>
      </trkpt>
      <trkpt lat="42.87591" lon="2.76073">
        <ele>305.2</ele>
        <time>2021-03-28T07:58:47Z</time>
      </trkpt>
      <trkpt lat="42.87596" lon="2.76067">
        <ele>305.6</ele>
        <time>2021-03-28T07:58:48Z</time>
      </trkpt>
      <trkpt lat="42.87596" lon="2.76067">
        <ele>305.6</ele>
        <time>2021-03-28T07:58:48Z</time>
      </trkpt>
      <trkpt lat="42.87602" lon="2.76061">
        <ele>306.1</ele>
        <time>2021-03-28T07:58:50Z</time>
      </trkpt>
      <trkpt lat="42.87602" lon="2.76061">
        <ele>306.1</ele>
        <time>2021-03-28T07:58:50Z</time>
      </trkpt>
      <trkpt lat="42.87607" lon="2.76056">
        <ele>306.5</ele>
        <time>2021-03-28T07:58:51Z</time>
      </trkpt>
      <trkpt lat="42.87607" lon="2.76056">
        <ele>306.5</ele>
        <time>2021-03-28T07:58:51Z</time>
      </trkpt>
      <trkpt lat="42.87612" lon="2.7605">
        <ele>306.8</ele>
        <time>2021-03-28T07:58:53Z</time>
      </trkpt>
      <trkpt lat="42.87612" lon="2.7605">
        <ele>306.8</ele>
        <time>2021-03-28T07:58:53Z</time>
      </trkpt>
      <trkpt lat="42.87617" lon="2.76045">
        <ele>306.7</ele>
        <time>2021-03-28T07:58:54Z</time>
      </trkpt>
      <trkpt lat="42.87617" lon="2.76045">
        <ele>306.7</ele>
        <time>2021-03-28T07:58:54Z</time>
      </trkpt>
      <trkpt lat="42.87622" lon="2.7604">
        <ele>306.7</ele>
        <time>2021-03-28T07:58:55Z</time>
      </trkpt>
      <trkpt lat="42.87622" lon="2.7604">
        <ele>306.7</ele>
        <time>2021-03-28T07:58:55Z</time>
      </trkpt>
      <trkpt lat="42.87626" lon="2.76036">
        <ele>306.7</ele>
        <time>2021-03-28T07:58:56Z</time>
      </trkpt>
      <trkpt lat="42.87626" lon="2.76036">
        <ele>306.7</ele>
        <time>2021-03-28T07:58:56Z</time>
      </trkpt>
      <trkpt lat="42.8763" lon="2.76031">
        <ele>306.7</ele>
        <time>2021-03-28T07:58:58Z</time>
      </trkpt>
      <trkpt lat="42.8763" lon="2.76031">
        <ele>306.7</ele>
        <time>2021-03-28T07:58:58Z</time>
      </trkpt>
      <trkpt lat="42.87634" lon="2.76026">
        <ele>306.8</ele>
        <time>2021-03-28T07:58:59Z</time>
      </trkpt>
      <trkpt lat="42.87634" lon="2.76026">
        <ele>306.8</ele>
        <time>2021-03-28T07:58:59Z</time>
      </trkpt>
      <trkpt lat="42.87638" lon="2.76021">
        <ele>307.2</ele>
        <time>2021-03-28T07:59:01Z</time>
      </trkpt>
      <trkpt lat="42.87638" lon="2.76021">
        <ele>307.2</ele>
        <time>2021-03-28T07:59:01Z</time>
      </trkpt>
      <trkpt lat="42.87643" lon="2.76016">
        <ele>307.4</ele>
        <time>2021-03-28T07:59:02Z</time>
      </trkpt>
      <trkpt lat="42.87643" lon="2.76016">
        <ele>307.4</ele>
        <time>2021-03-28T07:59:02Z</time>
      </trkpt>
      <trkpt lat="42.87649" lon="2.7601">
        <ele>307.4</ele>
        <time>2021-03-28T07:59:04Z</time>
      </trkpt>
      <trkpt lat="42.87649" lon="2.7601">
        <ele>307.4</ele>
        <time>2021-03-28T07:59:04Z</time>
      </trkpt>
      <trkpt lat="42.87654" lon="2.76005">
        <ele>307.4</ele>
        <time>2021-03-28T07:59:05Z</time>
      </trkpt>
      <trkpt lat="42.87654" lon="2.76005">
        <ele>307.4</ele>
        <time>2021-03-28T07:59:05Z</time>
      </trkpt>
      <trkpt lat="42.8766" lon="2.75999">
        <ele>307.3</ele>
        <time>2021-03-28T07:59:07Z</time>
      </trkpt>
      <trkpt lat="42.8766" lon="2.75999">
        <ele>307.3</ele>
        <time>2021-03-28T07:59:07Z</time>
      </trkpt>
      <trkpt lat="42.87664" lon="2.75994">
        <ele>307.1</ele>
        <time>2021-03-28T07:59:08Z</time>
      </trkpt>
      <trkpt lat="42.87664" lon="2.75994">
        <ele>307.1</ele>
        <time>2021-03-28T07:59:08Z</time>
      </trkpt>
      <trkpt lat="42.87669" lon="2.75989">
        <ele>307</ele>
        <time>2021-03-28T07:59:09Z</time>
      </trkpt>
      <trkpt lat="42.87669" lon="2.75989">
        <ele>307</ele>
        <time>2021-03-28T07:59:09Z</time>
      </trkpt>
      <trkpt lat="42.87673" lon="2.75983">
        <ele>307</ele>
        <time>2021-03-28T07:59:10Z</time>
      </trkpt>
      <trkpt lat="42.87673" lon="2.75983">
        <ele>307</ele>
        <time>2021-03-28T07:59:10Z</time>
      </trkpt>
      <trkpt lat="42.87678" lon="2.75978">
        <ele>307</ele>
        <time>2021-03-28T07:59:12Z</time>
      </trkpt>
      <trkpt lat="42.87678" lon="2.75978">
        <ele>307</ele>
        <time>2021-03-28T07:59:12Z</time>
      </trkpt>
      <trkpt lat="42.87682" lon="2.75972">
        <ele>307</ele>
        <time>2021-03-28T07:59:13Z</time>
      </trkpt>
      <trkpt lat="42.87682" lon="2.75972">
        <ele>307</ele>
        <time>2021-03-28T07:59:13Z</time>
      </trkpt>
      <trkpt lat="42.87686" lon="2.75968">
        <ele>306.9</ele>
        <time>2021-03-28T07:59:14Z</time>
      </trkpt>
      <trkpt lat="42.87686" lon="2.75968">
        <ele>306.9</ele>
        <time>2021-03-28T07:59:14Z</time>
      </trkpt>
      <trkpt lat="42.87691" lon="2.75963">
        <ele>306.7</ele>
        <time>2021-03-28T07:59:16Z</time>
      </trkpt>
      <trkpt lat="42.87691" lon="2.75963">
        <ele>306.7</ele>
        <time>2021-03-28T07:59:16Z</time>
      </trkpt>
      <trkpt lat="42.87695" lon="2.75959">
        <ele>306.5</ele>
        <time>2021-03-28T07:59:17Z</time>
      </trkpt>
      <trkpt lat="42.87695" lon="2.75959">
        <ele>306.5</ele>
        <time>2021-03-28T07:59:17Z</time>
      </trkpt>
      <trkpt lat="42.877" lon="2.75954">
        <ele>306.1</ele>
        <time>2021-03-28T07:59:19Z</time>
      </trkpt>
      <trkpt lat="42.877" lon="2.75954">
        <ele>306.1</ele>
        <time>2021-03-28T07:59:19Z</time>
      </trkpt>
      <trkpt lat="42.87707" lon="2.7595">
        <ele>305.8</ele>
        <time>2021-03-28T07:59:21Z</time>
      </trkpt>
      <trkpt lat="42.87707" lon="2.7595">
        <ele>305.8</ele>
        <time>2021-03-28T07:59:21Z</time>
      </trkpt>
      <trkpt lat="42.87713" lon="2.75948">
        <ele>305.5</ele>
        <time>2021-03-28T07:59:22Z</time>
      </trkpt>
      <trkpt lat="42.87713" lon="2.75948">
        <ele>305.5</ele>
        <time>2021-03-28T07:59:22Z</time>
      </trkpt>
      <trkpt lat="42.87721" lon="2.75947">
        <ele>305.1</ele>
        <time>2021-03-28T07:59:24Z</time>
      </trkpt>
      <trkpt lat="42.87721" lon="2.75947">
        <ele>305.1</ele>
        <time>2021-03-28T07:59:24Z</time>
      </trkpt>
      <trkpt lat="42.87729" lon="2.75947">
        <ele>304.5</ele>
        <time>2021-03-28T07:59:25Z</time>
      </trkpt>
      <trkpt lat="42.87729" lon="2.75947">
        <ele>304.5</ele>
        <time>2021-03-28T07:59:25Z</time>
      </trkpt>
      <trkpt lat="42.87738" lon="2.75948">
        <ele>303.7</ele>
        <time>2021-03-28T07:59:27Z</time>
      </trkpt>
      <trkpt lat="42.87738" lon="2.75948">
        <ele>303.7</ele>
        <time>2021-03-28T07:59:27Z</time>
      </trkpt>
      <trkpt lat="42.87748" lon="2.75949">
        <ele>302.9</ele>
        <time>2021-03-28T07:59:29Z</time>
      </trkpt>
      <trkpt lat="42.87748" lon="2.75949">
        <ele>302.9</ele>
        <time>2021-03-28T07:59:29Z</time>
      </trkpt>
      <trkpt lat="42.8776" lon="2.7595">
        <ele>302.3</ele>
        <time>2021-03-28T07:59:31Z</time>
      </trkpt>
      <trkpt lat="42.8776" lon="2.7595">
        <ele>302.3</ele>
        <time>2021-03-28T07:59:31Z</time>
      </trkpt>
      <trkpt lat="42.87772" lon="2.75954">
        <ele>302.3</ele>
        <time>2021-03-28T07:59:33Z</time>
      </trkpt>
      <trkpt lat="42.87772" lon="2.75954">
        <ele>302.3</ele>
        <time>2021-03-28T07:59:33Z</time>
      </trkpt>
      <trkpt lat="42.87783" lon="2.75959">
        <ele>302.1</ele>
        <time>2021-03-28T07:59:34Z</time>
      </trkpt>
      <trkpt lat="42.87783" lon="2.75959">
        <ele>302.1</ele>
        <time>2021-03-28T07:59:34Z</time>
      </trkpt>
      <trkpt lat="42.87793" lon="2.7597">
        <ele>301.6</ele>
        <time>2021-03-28T07:59:36Z</time>
      </trkpt>
      <trkpt lat="42.87793" lon="2.7597">
        <ele>301.6</ele>
        <time>2021-03-28T07:59:36Z</time>
      </trkpt>
      <trkpt lat="42.87805" lon="2.75981">
        <ele>299.9</ele>
        <time>2021-03-28T07:59:38Z</time>
      </trkpt>
      <trkpt lat="42.87805" lon="2.75981">
        <ele>299.9</ele>
        <time>2021-03-28T07:59:38Z</time>
      </trkpt>
      <trkpt lat="42.87818" lon="2.75992">
        <ele>296.1</ele>
        <time>2021-03-28T07:59:40Z</time>
      </trkpt>
      <trkpt lat="42.87818" lon="2.75992">
        <ele>296.1</ele>
        <time>2021-03-28T07:59:40Z</time>
      </trkpt>
      <trkpt lat="42.87833" lon="2.75999">
        <ele>293.7</ele>
        <time>2021-03-28T07:59:42Z</time>
      </trkpt>
      <trkpt lat="42.87833" lon="2.75999">
        <ele>293.7</ele>
        <time>2021-03-28T07:59:42Z</time>
      </trkpt>
      <trkpt lat="42.87849" lon="2.76004">
        <ele>294.1</ele>
        <time>2021-03-28T07:59:44Z</time>
      </trkpt>
      <trkpt lat="42.87849" lon="2.76004">
        <ele>294.1</ele>
        <time>2021-03-28T07:59:44Z</time>
      </trkpt>
      <trkpt lat="42.87867" lon="2.76007">
        <ele>294.2</ele>
        <time>2021-03-28T07:59:46Z</time>
      </trkpt>
      <trkpt lat="42.87867" lon="2.76007">
        <ele>294.2</ele>
        <time>2021-03-28T07:59:46Z</time>
      </trkpt>
      <trkpt lat="42.87884" lon="2.76009">
        <ele>295.5</ele>
        <time>2021-03-28T07:59:48Z</time>
      </trkpt>
      <trkpt lat="42.87884" lon="2.76009">
        <ele>295.5</ele>
        <time>2021-03-28T07:59:48Z</time>
      </trkpt>
      <trkpt lat="42.87899" lon="2.76012">
        <ele>295.3</ele>
        <time>2021-03-28T07:59:49Z</time>
      </trkpt>
      <trkpt lat="42.87899" lon="2.76012">
        <ele>295.3</ele>
        <time>2021-03-28T07:59:49Z</time>
      </trkpt>
      <trkpt lat="42.87916" lon="2.76014">
        <ele>294.6</ele>
        <time>2021-03-28T07:59:51Z</time>
      </trkpt>
      <trkpt lat="42.87916" lon="2.76014">
        <ele>294.6</ele>
        <time>2021-03-28T07:59:51Z</time>
      </trkpt>
      <trkpt lat="42.87932" lon="2.76019">
        <ele>293.1</ele>
        <time>2021-03-28T07:59:53Z</time>
      </trkpt>
      <trkpt lat="42.87932" lon="2.76019">
        <ele>293.1</ele>
        <time>2021-03-28T07:59:53Z</time>
      </trkpt>
      <trkpt lat="42.87946" lon="2.76022">
        <ele>291.7</ele>
        <time>2021-03-28T07:59:54Z</time>
      </trkpt>
      <trkpt lat="42.87946" lon="2.76022">
        <ele>291.7</ele>
        <time>2021-03-28T07:59:54Z</time>
      </trkpt>
      <trkpt lat="42.87961" lon="2.76021">
        <ele>289.9</ele>
        <time>2021-03-28T07:59:56Z</time>
      </trkpt>
      <trkpt lat="42.87961" lon="2.76021">
        <ele>289.9</ele>
        <time>2021-03-28T07:59:56Z</time>
      </trkpt>
      <trkpt lat="42.87974" lon="2.76013">
        <ele>287.5</ele>
        <time>2021-03-28T07:59:58Z</time>
      </trkpt>
      <trkpt lat="42.87974" lon="2.76013">
        <ele>287.5</ele>
        <time>2021-03-28T07:59:58Z</time>
      </trkpt>
      <trkpt lat="42.87982" lon="2.76004">
        <ele>287.1</ele>
        <time>2021-03-28T07:59:59Z</time>
      </trkpt>
      <trkpt lat="42.87982" lon="2.76004">
        <ele>287.1</ele>
        <time>2021-03-28T07:59:59Z</time>
      </trkpt>
      <trkpt lat="42.87987" lon="2.75995">
        <ele>287.2</ele>
        <time>2021-03-28T08:00:00Z</time>
      </trkpt>
      <trkpt lat="42.87987" lon="2.75995">
        <ele>287.2</ele>
        <time>2021-03-28T08:00:00Z</time>
      </trkpt>
      <trkpt lat="42.87985" lon="2.75984">
        <ele>287.5</ele>
        <time>2021-03-28T08:00:02Z</time>
      </trkpt>
      <trkpt lat="42.87985" lon="2.75984">
        <ele>287.5</ele>
        <time>2021-03-28T08:00:02Z</time>
      </trkpt>
      <trkpt lat="42.8798" lon="2.75973">
        <ele>288</ele>
        <time>2021-03-28T08:00:04Z</time>
      </trkpt>
      <trkpt lat="42.8798" lon="2.75973">
        <ele>288</ele>
        <time>2021-03-28T08:00:04Z</time>
      </trkpt>
      <trkpt lat="42.87974" lon="2.75963">
        <ele>289.3</ele>
        <time>2021-03-28T08:00:05Z</time>
      </trkpt>
      <trkpt lat="42.87974" lon="2.75963">
        <ele>289.3</ele>
        <time>2021-03-28T08:00:05Z</time>
      </trkpt>
      <trkpt lat="42.87966" lon="2.75953">
        <ele>289.7</ele>
        <time>2021-03-28T08:00:07Z</time>
      </trkpt>
      <trkpt lat="42.87966" lon="2.75953">
        <ele>289.7</ele>
        <time>2021-03-28T08:00:07Z</time>
      </trkpt>
      <trkpt lat="42.87958" lon="2.75944">
        <ele>289.5</ele>
        <time>2021-03-28T08:00:08Z</time>
      </trkpt>
      <trkpt lat="42.87958" lon="2.75944">
        <ele>289.5</ele>
        <time>2021-03-28T08:00:08Z</time>
      </trkpt>
      <trkpt lat="42.87948" lon="2.75937">
        <ele>289.6</ele>
        <time>2021-03-28T08:00:10Z</time>
      </trkpt>
      <trkpt lat="42.87948" lon="2.75937">
        <ele>289.6</ele>
        <time>2021-03-28T08:00:10Z</time>
      </trkpt>
      <trkpt lat="42.87939" lon="2.75932">
        <ele>289.3</ele>
        <time>2021-03-28T08:00:11Z</time>
      </trkpt>
      <trkpt lat="42.87939" lon="2.75932">
        <ele>289.3</ele>
        <time>2021-03-28T08:00:11Z</time>
      </trkpt>
      <trkpt lat="42.87929" lon="2.75929">
        <ele>288.7</ele>
        <time>2021-03-28T08:00:13Z</time>
      </trkpt>
      <trkpt lat="42.87929" lon="2.75929">
        <ele>288.7</ele>
        <time>2021-03-28T08:00:13Z</time>
      </trkpt>
      <trkpt lat="42.8792" lon="2.75927">
        <ele>288</ele>
        <time>2021-03-28T08:00:14Z</time>
      </trkpt>
      <trkpt lat="42.8792" lon="2.75927">
        <ele>288</ele>
        <time>2021-03-28T08:00:14Z</time>
      </trkpt>
      <trkpt lat="42.87912" lon="2.75925">
        <ele>287.7</ele>
        <time>2021-03-28T08:00:15Z</time>
      </trkpt>
      <trkpt lat="42.87912" lon="2.75925">
        <ele>287.7</ele>
        <time>2021-03-28T08:00:15Z</time>
      </trkpt>
      <trkpt lat="42.87903" lon="2.75924">
        <ele>287.7</ele>
        <time>2021-03-28T08:00:17Z</time>
      </trkpt>
      <trkpt lat="42.87903" lon="2.75924">
        <ele>287.7</ele>
        <time>2021-03-28T08:00:17Z</time>
      </trkpt>
      <trkpt lat="42.87894" lon="2.75922">
        <ele>287.8</ele>
        <time>2021-03-28T08:00:18Z</time>
      </trkpt>
      <trkpt lat="42.87894" lon="2.75922">
        <ele>287.8</ele>
        <time>2021-03-28T08:00:18Z</time>
      </trkpt>
      <trkpt lat="42.87886" lon="2.75917">
        <ele>288.4</ele>
        <time>2021-03-28T08:00:20Z</time>
      </trkpt>
      <trkpt lat="42.87886" lon="2.75917">
        <ele>288.4</ele>
        <time>2021-03-28T08:00:20Z</time>
      </trkpt>
      <trkpt lat="42.87879" lon="2.75909">
        <ele>288.8</ele>
        <time>2021-03-28T08:00:22Z</time>
      </trkpt>
      <trkpt lat="42.87879" lon="2.75909">
        <ele>288.8</ele>
        <time>2021-03-28T08:00:22Z</time>
      </trkpt>
      <trkpt lat="42.87873" lon="2.759">
        <ele>288.7</ele>
        <time>2021-03-28T08:00:23Z</time>
      </trkpt>
      <trkpt lat="42.87873" lon="2.759">
        <ele>288.7</ele>
        <time>2021-03-28T08:00:23Z</time>
      </trkpt>
      <trkpt lat="42.87867" lon="2.75888">
        <ele>288.2</ele>
        <time>2021-03-28T08:00:25Z</time>
      </trkpt>
      <trkpt lat="42.87867" lon="2.75888">
        <ele>288.2</ele>
        <time>2021-03-28T08:00:25Z</time>
      </trkpt>
      <trkpt lat="42.87862" lon="2.75877">
        <ele>287.6</ele>
        <time>2021-03-28T08:00:26Z</time>
      </trkpt>
      <trkpt lat="42.87862" lon="2.75877">
        <ele>287.6</ele>
        <time>2021-03-28T08:00:26Z</time>
      </trkpt>
      <trkpt lat="42.87857" lon="2.75864">
        <ele>287</ele>
        <time>2021-03-28T08:00:28Z</time>
      </trkpt>
      <trkpt lat="42.87857" lon="2.75864">
        <ele>287</ele>
        <time>2021-03-28T08:00:28Z</time>
      </trkpt>
      <trkpt lat="42.87852" lon="2.75853">
        <ele>286.7</ele>
        <time>2021-03-28T08:00:29Z</time>
      </trkpt>
      <trkpt lat="42.87852" lon="2.75853">
        <ele>286.7</ele>
        <time>2021-03-28T08:00:29Z</time>
      </trkpt>
      <trkpt lat="42.87846" lon="2.75844">
        <ele>286.2</ele>
        <time>2021-03-28T08:00:30Z</time>
      </trkpt>
      <trkpt lat="42.87846" lon="2.75844">
        <ele>286.2</ele>
        <time>2021-03-28T08:00:30Z</time>
      </trkpt>
      <trkpt lat="42.87838" lon="2.75834">
        <ele>284.5</ele>
        <time>2021-03-28T08:00:32Z</time>
      </trkpt>
      <trkpt lat="42.87838" lon="2.75834">
        <ele>284.5</ele>
        <time>2021-03-28T08:00:32Z</time>
      </trkpt>
      <trkpt lat="42.8783" lon="2.75827">
        <ele>284.3</ele>
        <time>2021-03-28T08:00:33Z</time>
      </trkpt>
      <trkpt lat="42.8783" lon="2.75827">
        <ele>284.3</ele>
        <time>2021-03-28T08:00:33Z</time>
      </trkpt>
      <trkpt lat="42.8782" lon="2.75818">
        <ele>285.1</ele>
        <time>2021-03-28T08:00:35Z</time>
      </trkpt>
      <trkpt lat="42.8782" lon="2.75818">
        <ele>285.1</ele>
        <time>2021-03-28T08:00:35Z</time>
      </trkpt>
      <trkpt lat="42.87813" lon="2.75804">
        <ele>285.9</ele>
        <time>2021-03-28T08:00:37Z</time>
      </trkpt>
      <trkpt lat="42.87813" lon="2.75804">
        <ele>285.9</ele>
        <time>2021-03-28T08:00:37Z</time>
      </trkpt>
      <trkpt lat="42.87809" lon="2.75788">
        <ele>285.2</ele>
        <time>2021-03-28T08:00:39Z</time>
      </trkpt>
      <trkpt lat="42.87809" lon="2.75788">
        <ele>285.2</ele>
        <time>2021-03-28T08:00:39Z</time>
      </trkpt>
      <trkpt lat="42.87807" lon="2.75768">
        <ele>283.9</ele>
        <time>2021-03-28T08:00:41Z</time>
      </trkpt>
      <trkpt lat="42.87807" lon="2.75768">
        <ele>283.9</ele>
        <time>2021-03-28T08:00:41Z</time>
      </trkpt>
      <trkpt lat="42.87807" lon="2.75747">
        <ele>282.5</ele>
        <time>2021-03-28T08:00:43Z</time>
      </trkpt>
      <trkpt lat="42.87807" lon="2.75747">
        <ele>282.5</ele>
        <time>2021-03-28T08:00:43Z</time>
      </trkpt>
      <trkpt lat="42.87807" lon="2.75728">
        <ele>281.8</ele>
        <time>2021-03-28T08:00:44Z</time>
      </trkpt>
      <trkpt lat="42.87807" lon="2.75728">
        <ele>281.8</ele>
        <time>2021-03-28T08:00:44Z</time>
      </trkpt>
      <trkpt lat="42.87805" lon="2.75708">
        <ele>279.9</ele>
        <time>2021-03-28T08:00:46Z</time>
      </trkpt>
      <trkpt lat="42.87805" lon="2.75708">
        <ele>279.9</ele>
        <time>2021-03-28T08:00:46Z</time>
      </trkpt>
      <trkpt lat="42.878" lon="2.75687">
        <ele>277.2</ele>
        <time>2021-03-28T08:00:48Z</time>
      </trkpt>
      <trkpt lat="42.878" lon="2.75687">
        <ele>277.2</ele>
        <time>2021-03-28T08:00:48Z</time>
      </trkpt>
      <trkpt lat="42.87795" lon="2.7567">
        <ele>276.1</ele>
        <time>2021-03-28T08:00:49Z</time>
      </trkpt>
      <trkpt lat="42.87795" lon="2.7567">
        <ele>276.1</ele>
        <time>2021-03-28T08:00:49Z</time>
      </trkpt>
      <trkpt lat="42.87788" lon="2.75651">
        <ele>277.1</ele>
        <time>2021-03-28T08:00:51Z</time>
      </trkpt>
      <trkpt lat="42.87788" lon="2.75651">
        <ele>277.1</ele>
        <time>2021-03-28T08:00:51Z</time>
      </trkpt>
      <trkpt lat="42.87784" lon="2.75629">
        <ele>277.9</ele>
        <time>2021-03-28T08:00:53Z</time>
      </trkpt>
      <trkpt lat="42.87784" lon="2.75629">
        <ele>277.9</ele>
        <time>2021-03-28T08:00:53Z</time>
      </trkpt>
      <trkpt lat="42.87783" lon="2.75612">
        <ele>277.6</ele>
        <time>2021-03-28T08:00:54Z</time>
      </trkpt>
      <trkpt lat="42.87783" lon="2.75612">
        <ele>277.6</ele>
        <time>2021-03-28T08:00:54Z</time>
      </trkpt>
      <trkpt lat="42.87786" lon="2.75594">
        <ele>277.4</ele>
        <time>2021-03-28T08:00:56Z</time>
      </trkpt>
      <trkpt lat="42.87786" lon="2.75594">
        <ele>277.4</ele>
        <time>2021-03-28T08:00:56Z</time>
      </trkpt>
      <trkpt lat="42.87792" lon="2.75577">
        <ele>277</ele>
        <time>2021-03-28T08:00:58Z</time>
      </trkpt>
      <trkpt lat="42.87792" lon="2.75577">
        <ele>277</ele>
        <time>2021-03-28T08:00:58Z</time>
      </trkpt>
      <trkpt lat="42.87801" lon="2.75562">
        <ele>276.3</ele>
        <time>2021-03-28T08:01:00Z</time>
      </trkpt>
      <trkpt lat="42.87801" lon="2.75562">
        <ele>276.3</ele>
        <time>2021-03-28T08:01:00Z</time>
      </trkpt>
      <trkpt lat="42.87814" lon="2.75549">
        <ele>275.9</ele>
        <time>2021-03-28T08:01:02Z</time>
      </trkpt>
      <trkpt lat="42.87814" lon="2.75549">
        <ele>275.9</ele>
        <time>2021-03-28T08:01:02Z</time>
      </trkpt>
      <trkpt lat="42.87825" lon="2.7554">
        <ele>275.3</ele>
        <time>2021-03-28T08:01:03Z</time>
      </trkpt>
      <trkpt lat="42.87825" lon="2.7554">
        <ele>275.3</ele>
        <time>2021-03-28T08:01:03Z</time>
      </trkpt>
      <trkpt lat="42.87836" lon="2.75533">
        <ele>274.4</ele>
        <time>2021-03-28T08:01:04Z</time>
      </trkpt>
      <trkpt lat="42.87836" lon="2.75533">
        <ele>274.4</ele>
        <time>2021-03-28T08:01:04Z</time>
      </trkpt>
      <trkpt lat="42.8785" lon="2.75527">
        <ele>273.5</ele>
        <time>2021-03-28T08:01:06Z</time>
      </trkpt>
      <trkpt lat="42.8785" lon="2.75527">
        <ele>273.5</ele>
        <time>2021-03-28T08:01:06Z</time>
      </trkpt>
      <trkpt lat="42.87863" lon="2.75522">
        <ele>272.6</ele>
        <time>2021-03-28T08:01:07Z</time>
      </trkpt>
      <trkpt lat="42.87863" lon="2.75522">
        <ele>272.6</ele>
        <time>2021-03-28T08:01:07Z</time>
      </trkpt>
      <trkpt lat="42.87875" lon="2.75514">
        <ele>271.4</ele>
        <time>2021-03-28T08:01:09Z</time>
      </trkpt>
      <trkpt lat="42.87875" lon="2.75514">
        <ele>271.4</ele>
        <time>2021-03-28T08:01:09Z</time>
      </trkpt>
      <trkpt lat="42.87884" lon="2.75501">
        <ele>268.7</ele>
        <time>2021-03-28T08:01:11Z</time>
      </trkpt>
      <trkpt lat="42.87884" lon="2.75501">
        <ele>268.7</ele>
        <time>2021-03-28T08:01:11Z</time>
      </trkpt>
      <trkpt lat="42.87889" lon="2.7549">
        <ele>268.6</ele>
        <time>2021-03-28T08:01:12Z</time>
      </trkpt>
      <trkpt lat="42.87889" lon="2.7549">
        <ele>268.6</ele>
        <time>2021-03-28T08:01:12Z</time>
      </trkpt>
      <trkpt lat="42.87889" lon="2.7548">
        <ele>268.3</ele>
        <time>2021-03-28T08:01:13Z</time>
      </trkpt>
      <trkpt lat="42.87889" lon="2.7548">
        <ele>268.3</ele>
        <time>2021-03-28T08:01:13Z</time>
      </trkpt>
      <trkpt lat="42.87884" lon="2.75473">
        <ele>267.8</ele>
        <time>2021-03-28T08:01:15Z</time>
      </trkpt>
      <trkpt lat="42.87884" lon="2.75473">
        <ele>267.8</ele>
        <time>2021-03-28T08:01:15Z</time>
      </trkpt>
      <trkpt lat="42.87876" lon="2.75467">
        <ele>268.3</ele>
        <time>2021-03-28T08:01:17Z</time>
      </trkpt>
      <trkpt lat="42.87876" lon="2.75467">
        <ele>268.3</ele>
        <time>2021-03-28T08:01:17Z</time>
      </trkpt>
      <trkpt lat="42.87867" lon="2.75464">
        <ele>268.7</ele>
        <time>2021-03-28T08:01:18Z</time>
      </trkpt>
      <trkpt lat="42.87867" lon="2.75464">
        <ele>268.7</ele>
        <time>2021-03-28T08:01:18Z</time>
      </trkpt>
      <trkpt lat="42.87857" lon="2.75461">
        <ele>269</ele>
        <time>2021-03-28T08:01:20Z</time>
      </trkpt>
      <trkpt lat="42.87857" lon="2.75461">
        <ele>269</ele>
        <time>2021-03-28T08:01:20Z</time>
      </trkpt>
      <trkpt lat="42.87846" lon="2.7546">
        <ele>269.5</ele>
        <time>2021-03-28T08:01:22Z</time>
      </trkpt>
      <trkpt lat="42.87846" lon="2.7546">
        <ele>269.5</ele>
        <time>2021-03-28T08:01:22Z</time>
      </trkpt>
      <trkpt lat="42.87834" lon="2.7546">
        <ele>269.7</ele>
        <time>2021-03-28T08:01:24Z</time>
      </trkpt>
      <trkpt lat="42.87834" lon="2.7546">
        <ele>269.7</ele>
        <time>2021-03-28T08:01:24Z</time>
      </trkpt>
      <trkpt lat="42.87823" lon="2.75461">
        <ele>269.8</ele>
        <time>2021-03-28T08:01:25Z</time>
      </trkpt>
      <trkpt lat="42.87823" lon="2.75461">
        <ele>269.8</ele>
        <time>2021-03-28T08:01:25Z</time>
      </trkpt>
      <trkpt lat="42.87812" lon="2.75463">
        <ele>269.4</ele>
        <time>2021-03-28T08:01:27Z</time>
      </trkpt>
      <trkpt lat="42.87812" lon="2.75463">
        <ele>269.4</ele>
        <time>2021-03-28T08:01:27Z</time>
      </trkpt>
      <trkpt lat="42.878" lon="2.75468">
        <ele>268.7</ele>
        <time>2021-03-28T08:01:29Z</time>
      </trkpt>
      <trkpt lat="42.878" lon="2.75468">
        <ele>268.7</ele>
        <time>2021-03-28T08:01:29Z</time>
      </trkpt>
      <trkpt lat="42.87788" lon="2.75474">
        <ele>268.5</ele>
        <time>2021-03-28T08:01:31Z</time>
      </trkpt>
      <trkpt lat="42.87788" lon="2.75474">
        <ele>268.5</ele>
        <time>2021-03-28T08:01:31Z</time>
      </trkpt>
      <trkpt lat="42.87778" lon="2.75479">
        <ele>268.2</ele>
        <time>2021-03-28T08:01:32Z</time>
      </trkpt>
      <trkpt lat="42.87778" lon="2.75479">
        <ele>268.2</ele>
        <time>2021-03-28T08:01:32Z</time>
      </trkpt>
      <trkpt lat="42.87767" lon="2.75485">
        <ele>268.8</ele>
        <time>2021-03-28T08:01:34Z</time>
      </trkpt>
      <trkpt lat="42.87767" lon="2.75485">
        <ele>268.8</ele>
        <time>2021-03-28T08:01:34Z</time>
      </trkpt>
      <trkpt lat="42.87758" lon="2.75491">
        <ele>269.4</ele>
        <time>2021-03-28T08:01:35Z</time>
      </trkpt>
      <trkpt lat="42.87758" lon="2.75491">
        <ele>269.4</ele>
        <time>2021-03-28T08:01:35Z</time>
      </trkpt>
      <trkpt lat="42.87748" lon="2.75496">
        <ele>270.2</ele>
        <time>2021-03-28T08:01:37Z</time>
      </trkpt>
      <trkpt lat="42.87748" lon="2.75496">
        <ele>270.2</ele>
        <time>2021-03-28T08:01:37Z</time>
      </trkpt>
      <trkpt lat="42.87738" lon="2.75498">
        <ele>270.7</ele>
        <time>2021-03-28T08:01:38Z</time>
      </trkpt>
      <trkpt lat="42.87738" lon="2.75498">
        <ele>270.7</ele>
        <time>2021-03-28T08:01:38Z</time>
      </trkpt>
      <trkpt lat="42.87728" lon="2.75496">
        <ele>272.1</ele>
        <time>2021-03-28T08:01:40Z</time>
      </trkpt>
      <trkpt lat="42.87728" lon="2.75496">
        <ele>272.1</ele>
        <time>2021-03-28T08:01:40Z</time>
      </trkpt>
      <trkpt lat="42.87719" lon="2.75493">
        <ele>272.7</ele>
        <time>2021-03-28T08:01:41Z</time>
      </trkpt>
      <trkpt lat="42.87719" lon="2.75493">
        <ele>272.7</ele>
        <time>2021-03-28T08:01:41Z</time>
      </trkpt>
      <trkpt lat="42.87711" lon="2.75487">
        <ele>272.1</ele>
        <time>2021-03-28T08:01:43Z</time>
      </trkpt>
      <trkpt lat="42.87711" lon="2.75487">
        <ele>272.1</ele>
        <time>2021-03-28T08:01:43Z</time>
      </trkpt>
      <trkpt lat="42.87703" lon="2.75481">
        <ele>271.9</ele>
        <time>2021-03-28T08:01:44Z</time>
      </trkpt>
      <trkpt lat="42.87703" lon="2.75481">
        <ele>271.9</ele>
        <time>2021-03-28T08:01:44Z</time>
      </trkpt>
      <trkpt lat="42.87695" lon="2.75473">
        <ele>272.1</ele>
        <time>2021-03-28T08:01:46Z</time>
      </trkpt>
      <trkpt lat="42.87695" lon="2.75473">
        <ele>272.1</ele>
        <time>2021-03-28T08:01:46Z</time>
      </trkpt>
      <trkpt lat="42.87688" lon="2.75463">
        <ele>272.1</ele>
        <time>2021-03-28T08:01:48Z</time>
      </trkpt>
      <trkpt lat="42.87688" lon="2.75463">
        <ele>272.1</ele>
        <time>2021-03-28T08:01:48Z</time>
      </trkpt>
      <trkpt lat="42.8768" lon="2.75453">
        <ele>272.9</ele>
        <time>2021-03-28T08:01:50Z</time>
      </trkpt>
      <trkpt lat="42.8768" lon="2.75453">
        <ele>272.9</ele>
        <time>2021-03-28T08:01:50Z</time>
      </trkpt>
      <trkpt lat="42.87674" lon="2.75445">
        <ele>273.9</ele>
        <time>2021-03-28T08:01:51Z</time>
      </trkpt>
      <trkpt lat="42.87674" lon="2.75445">
        <ele>273.9</ele>
        <time>2021-03-28T08:01:51Z</time>
      </trkpt>
      <trkpt lat="42.87667" lon="2.75438">
        <ele>274.3</ele>
        <time>2021-03-28T08:01:53Z</time>
      </trkpt>
      <trkpt lat="42.87667" lon="2.75438">
        <ele>274.3</ele>
        <time>2021-03-28T08:01:53Z</time>
      </trkpt>
      <trkpt lat="42.87662" lon="2.75432">
        <ele>274.4</ele>
        <time>2021-03-28T08:01:54Z</time>
      </trkpt>
      <trkpt lat="42.87662" lon="2.75432">
        <ele>274.4</ele>
        <time>2021-03-28T08:01:54Z</time>
      </trkpt>
      <trkpt lat="42.87655" lon="2.75426">
        <ele>274.4</ele>
        <time>2021-03-28T08:01:56Z</time>
      </trkpt>
      <trkpt lat="42.87655" lon="2.75426">
        <ele>274.4</ele>
        <time>2021-03-28T08:01:56Z</time>
      </trkpt>
      <trkpt lat="42.87648" lon="2.75418">
        <ele>275</ele>
        <time>2021-03-28T08:01:58Z</time>
      </trkpt>
      <trkpt lat="42.87648" lon="2.75418">
        <ele>275</ele>
        <time>2021-03-28T08:01:58Z</time>
      </trkpt>
      <trkpt lat="42.87643" lon="2.75411">
        <ele>274.9</ele>
        <time>2021-03-28T08:01:59Z</time>
      </trkpt>
      <trkpt lat="42.87643" lon="2.75411">
        <ele>274.9</ele>
        <time>2021-03-28T08:01:59Z</time>
      </trkpt>
      <trkpt lat="42.87638" lon="2.75403">
        <ele>274.9</ele>
        <time>2021-03-28T08:02:01Z</time>
      </trkpt>
      <trkpt lat="42.87638" lon="2.75403">
        <ele>274.9</ele>
        <time>2021-03-28T08:02:01Z</time>
      </trkpt>
      <trkpt lat="42.87635" lon="2.75395">
        <ele>275.2</ele>
        <time>2021-03-28T08:02:02Z</time>
      </trkpt>
      <trkpt lat="42.87635" lon="2.75395">
        <ele>275.2</ele>
        <time>2021-03-28T08:02:02Z</time>
      </trkpt>
      <trkpt lat="42.87634" lon="2.75387">
        <ele>275.3</ele>
        <time>2021-03-28T08:02:04Z</time>
      </trkpt>
      <trkpt lat="42.87634" lon="2.75387">
        <ele>275.3</ele>
        <time>2021-03-28T08:02:04Z</time>
      </trkpt>
      <trkpt lat="42.87636" lon="2.7538">
        <ele>274.4</ele>
        <time>2021-03-28T08:02:05Z</time>
      </trkpt>
      <trkpt lat="42.87636" lon="2.7538">
        <ele>274.4</ele>
        <time>2021-03-28T08:02:05Z</time>
      </trkpt>
      <trkpt lat="42.87642" lon="2.75374">
        <ele>274</ele>
        <time>2021-03-28T08:02:07Z</time>
      </trkpt>
      <trkpt lat="42.87642" lon="2.75374">
        <ele>274</ele>
        <time>2021-03-28T08:02:07Z</time>
      </trkpt>
      <trkpt lat="42.87647" lon="2.75369">
        <ele>273.8</ele>
        <time>2021-03-28T08:02:08Z</time>
      </trkpt>
      <trkpt lat="42.87647" lon="2.75369">
        <ele>273.8</ele>
        <time>2021-03-28T08:02:08Z</time>
      </trkpt>
      <trkpt lat="42.87655" lon="2.75365">
        <ele>273.8</ele>
        <time>2021-03-28T08:02:10Z</time>
      </trkpt>
      <trkpt lat="42.87655" lon="2.75365">
        <ele>273.8</ele>
        <time>2021-03-28T08:02:10Z</time>
      </trkpt>
      <trkpt lat="42.87664" lon="2.75361">
        <ele>273.9</ele>
        <time>2021-03-28T08:02:12Z</time>
      </trkpt>
      <trkpt lat="42.87664" lon="2.75361">
        <ele>273.9</ele>
        <time>2021-03-28T08:02:12Z</time>
      </trkpt>
      <trkpt lat="42.87672" lon="2.75361">
        <ele>274.2</ele>
        <time>2021-03-28T08:02:13Z</time>
      </trkpt>
      <trkpt lat="42.87672" lon="2.75361">
        <ele>274.2</ele>
        <time>2021-03-28T08:02:13Z</time>
      </trkpt>
      <trkpt lat="42.87681" lon="2.75358">
        <ele>273.6</ele>
        <time>2021-03-28T08:02:15Z</time>
      </trkpt>
      <trkpt lat="42.87681" lon="2.75358">
        <ele>273.6</ele>
        <time>2021-03-28T08:02:15Z</time>
      </trkpt>
      <trkpt lat="42.87689" lon="2.75355">
        <ele>273.2</ele>
        <time>2021-03-28T08:02:17Z</time>
      </trkpt>
      <trkpt lat="42.87689" lon="2.75355">
        <ele>273.2</ele>
        <time>2021-03-28T08:02:17Z</time>
      </trkpt>
      <trkpt lat="42.87698" lon="2.75352">
        <ele>273.1</ele>
        <time>2021-03-28T08:02:19Z</time>
      </trkpt>
      <trkpt lat="42.87698" lon="2.75352">
        <ele>273.1</ele>
        <time>2021-03-28T08:02:19Z</time>
      </trkpt>
      <trkpt lat="42.87707" lon="2.75349">
        <ele>273.2</ele>
        <time>2021-03-28T08:02:21Z</time>
      </trkpt>
      <trkpt lat="42.87707" lon="2.75349">
        <ele>273.2</ele>
        <time>2021-03-28T08:02:21Z</time>
      </trkpt>
      <trkpt lat="42.87716" lon="2.75344">
        <ele>273.1</ele>
        <time>2021-03-28T08:02:23Z</time>
      </trkpt>
      <trkpt lat="42.87716" lon="2.75344">
        <ele>273.1</ele>
        <time>2021-03-28T08:02:23Z</time>
      </trkpt>
      <trkpt lat="42.87724" lon="2.7534">
        <ele>272.8</ele>
        <time>2021-03-28T08:02:25Z</time>
      </trkpt>
      <trkpt lat="42.87724" lon="2.7534">
        <ele>272.8</ele>
        <time>2021-03-28T08:02:25Z</time>
      </trkpt>
      <trkpt lat="42.8773" lon="2.75335">
        <ele>272.8</ele>
        <time>2021-03-28T08:02:26Z</time>
      </trkpt>
      <trkpt lat="42.8773" lon="2.75335">
        <ele>272.8</ele>
        <time>2021-03-28T08:02:26Z</time>
      </trkpt>
      <trkpt lat="42.87736" lon="2.7533">
        <ele>272.7</ele>
        <time>2021-03-28T08:02:28Z</time>
      </trkpt>
      <trkpt lat="42.87736" lon="2.7533">
        <ele>272.7</ele>
        <time>2021-03-28T08:02:28Z</time>
      </trkpt>
      <trkpt lat="42.87742" lon="2.75325">
        <ele>272.8</ele>
        <time>2021-03-28T08:02:30Z</time>
      </trkpt>
      <trkpt lat="42.87742" lon="2.75325">
        <ele>272.8</ele>
        <time>2021-03-28T08:02:30Z</time>
      </trkpt>
      <trkpt lat="42.87747" lon="2.75321">
        <ele>273</ele>
        <time>2021-03-28T08:02:31Z</time>
      </trkpt>
      <trkpt lat="42.87747" lon="2.75321">
        <ele>273</ele>
        <time>2021-03-28T08:02:31Z</time>
      </trkpt>
      <trkpt lat="42.87751" lon="2.75317">
        <ele>273.2</ele>
        <time>2021-03-28T08:02:32Z</time>
      </trkpt>
      <trkpt lat="42.87751" lon="2.75317">
        <ele>273.2</ele>
        <time>2021-03-28T08:02:32Z</time>
      </trkpt>
      <trkpt lat="42.87755" lon="2.75313">
        <ele>273.3</ele>
        <time>2021-03-28T08:02:34Z</time>
      </trkpt>
      <trkpt lat="42.87755" lon="2.75313">
        <ele>273.3</ele>
        <time>2021-03-28T08:02:34Z</time>
      </trkpt>
      <trkpt lat="42.87757" lon="2.75311">
        <ele>273.4</ele>
        <time>2021-03-28T08:02:35Z</time>
      </trkpt>
      <trkpt lat="42.87757" lon="2.75311">
        <ele>273.4</ele>
        <time>2021-03-28T08:02:35Z</time>
      </trkpt>
      <trkpt lat="42.87762" lon="2.75307">
        <ele>273.9</ele>
        <time>2021-03-28T08:02:38Z</time>
      </trkpt>
      <trkpt lat="42.87762" lon="2.75307">
        <ele>273.9</ele>
        <time>2021-03-28T08:02:38Z</time>
      </trkpt>
      <trkpt lat="42.87762" lon="2.75308">
        <ele>274</ele>
        <time>2021-03-28T08:02:39Z</time>
      </trkpt>
      <trkpt lat="42.87762" lon="2.75308">
        <ele>274</ele>
        <time>2021-03-28T08:02:39Z</time>
      </trkpt>
      <trkpt lat="42.87762" lon="2.75309">
        <ele>274.2</ele>
        <time>2021-03-28T08:02:40Z</time>
      </trkpt>
      <trkpt lat="42.87762" lon="2.75309">
        <ele>274.2</ele>
        <time>2021-03-28T08:02:40Z</time>
      </trkpt>
      <trkpt lat="42.87762" lon="2.75304">
        <ele>273.5</ele>
        <time>2021-03-28T08:03:42Z</time>
      </trkpt>
      <trkpt lat="42.87762" lon="2.75304">
        <ele>273.5</ele>
        <time>2021-03-28T08:03:42Z</time>
      </trkpt>
      <trkpt lat="42.87763" lon="2.75303">
        <ele>273.5</ele>
        <time>2021-03-28T08:03:44Z</time>
      </trkpt>
      <trkpt lat="42.87763" lon="2.75303">
        <ele>273.5</ele>
        <time>2021-03-28T08:03:44Z</time>
      </trkpt>
      <trkpt lat="42.87764" lon="2.753">
        <ele>273.5</ele>
        <time>2021-03-28T08:03:45Z</time>
      </trkpt>
      <trkpt lat="42.87764" lon="2.753">
        <ele>273.5</ele>
        <time>2021-03-28T08:03:45Z</time>
      </trkpt>
      <trkpt lat="42.87767" lon="2.75295">
        <ele>273.4</ele>
        <time>2021-03-28T08:03:47Z</time>
      </trkpt>
      <trkpt lat="42.87767" lon="2.75295">
        <ele>273.4</ele>
        <time>2021-03-28T08:03:47Z</time>
      </trkpt>
      <trkpt lat="42.87772" lon="2.7529">
        <ele>273.7</ele>
        <time>2021-03-28T08:03:49Z</time>
      </trkpt>
      <trkpt lat="42.87772" lon="2.7529">
        <ele>273.7</ele>
        <time>2021-03-28T08:03:49Z</time>
      </trkpt>
      <trkpt lat="42.87776" lon="2.75287">
        <ele>274.1</ele>
        <time>2021-03-28T08:03:50Z</time>
      </trkpt>
      <trkpt lat="42.87776" lon="2.75287">
        <ele>274.1</ele>
        <time>2021-03-28T08:03:50Z</time>
      </trkpt>
      <trkpt lat="42.87782" lon="2.75285">
        <ele>273.9</ele>
        <time>2021-03-28T08:03:51Z</time>
      </trkpt>
      <trkpt lat="42.87782" lon="2.75285">
        <ele>273.9</ele>
        <time>2021-03-28T08:03:51Z</time>
      </trkpt>
      <trkpt lat="42.87788" lon="2.75285">
        <ele>273.5</ele>
        <time>2021-03-28T08:03:53Z</time>
      </trkpt>
      <trkpt lat="42.87788" lon="2.75285">
        <ele>273.5</ele>
        <time>2021-03-28T08:03:53Z</time>
      </trkpt>
      <trkpt lat="42.87795" lon="2.75285">
        <ele>273.2</ele>
        <time>2021-03-28T08:03:54Z</time>
      </trkpt>
      <trkpt lat="42.87795" lon="2.75285">
        <ele>273.2</ele>
        <time>2021-03-28T08:03:54Z</time>
      </trkpt>
      <trkpt lat="42.87803" lon="2.75284">
        <ele>272.6</ele>
        <time>2021-03-28T08:03:56Z</time>
      </trkpt>
      <trkpt lat="42.87803" lon="2.75284">
        <ele>272.6</ele>
        <time>2021-03-28T08:03:56Z</time>
      </trkpt>
      <trkpt lat="42.87809" lon="2.75282">
        <ele>272.6</ele>
        <time>2021-03-28T08:03:57Z</time>
      </trkpt>
      <trkpt lat="42.87809" lon="2.75282">
        <ele>272.6</ele>
        <time>2021-03-28T08:03:57Z</time>
      </trkpt>
      <trkpt lat="42.87815" lon="2.75279">
        <ele>272.9</ele>
        <time>2021-03-28T08:03:58Z</time>
      </trkpt>
      <trkpt lat="42.87815" lon="2.75279">
        <ele>272.9</ele>
        <time>2021-03-28T08:03:58Z</time>
      </trkpt>
      <trkpt lat="42.87821" lon="2.75273">
        <ele>273</ele>
        <time>2021-03-28T08:04:00Z</time>
      </trkpt>
      <trkpt lat="42.87821" lon="2.75273">
        <ele>273</ele>
        <time>2021-03-28T08:04:00Z</time>
      </trkpt>
      <trkpt lat="42.87827" lon="2.75266">
        <ele>273</ele>
        <time>2021-03-28T08:04:02Z</time>
      </trkpt>
      <trkpt lat="42.87827" lon="2.75266">
        <ele>273</ele>
        <time>2021-03-28T08:04:02Z</time>
      </trkpt>
      <trkpt lat="42.87834" lon="2.75257">
        <ele>273</ele>
        <time>2021-03-28T08:04:04Z</time>
      </trkpt>
      <trkpt lat="42.87834" lon="2.75257">
        <ele>273</ele>
        <time>2021-03-28T08:04:04Z</time>
      </trkpt>
      <trkpt lat="42.87839" lon="2.75248">
        <ele>272.7</ele>
        <time>2021-03-28T08:04:06Z</time>
      </trkpt>
      <trkpt lat="42.87839" lon="2.75248">
        <ele>272.7</ele>
        <time>2021-03-28T08:04:06Z</time>
      </trkpt>
      <trkpt lat="42.87845" lon="2.75241">
        <ele>272.6</ele>
        <time>2021-03-28T08:04:07Z</time>
      </trkpt>
      <trkpt lat="42.87845" lon="2.75241">
        <ele>272.6</ele>
        <time>2021-03-28T08:04:07Z</time>
      </trkpt>
      <trkpt lat="42.8785" lon="2.75232">
        <ele>272.4</ele>
        <time>2021-03-28T08:04:09Z</time>
      </trkpt>
      <trkpt lat="42.8785" lon="2.75232">
        <ele>272.4</ele>
        <time>2021-03-28T08:04:09Z</time>
      </trkpt>
      <trkpt lat="42.87857" lon="2.75223">
        <ele>272.4</ele>
        <time>2021-03-28T08:04:11Z</time>
      </trkpt>
      <trkpt lat="42.87857" lon="2.75223">
        <ele>272.4</ele>
        <time>2021-03-28T08:04:11Z</time>
      </trkpt>
      <trkpt lat="42.87862" lon="2.75217">
        <ele>272.9</ele>
        <time>2021-03-28T08:04:12Z</time>
      </trkpt>
      <trkpt lat="42.87862" lon="2.75217">
        <ele>272.9</ele>
        <time>2021-03-28T08:04:12Z</time>
      </trkpt>
      <trkpt lat="42.87868" lon="2.75218">
        <ele>272.3</ele>
        <time>2021-03-28T08:04:14Z</time>
      </trkpt>
      <trkpt lat="42.87868" lon="2.75218">
        <ele>272.3</ele>
        <time>2021-03-28T08:04:14Z</time>
      </trkpt>
      <trkpt lat="42.87873" lon="2.75225">
        <ele>271.9</ele>
        <time>2021-03-28T08:04:16Z</time>
      </trkpt>
      <trkpt lat="42.87873" lon="2.75225">
        <ele>271.9</ele>
        <time>2021-03-28T08:04:16Z</time>
      </trkpt>
      <trkpt lat="42.87879" lon="2.75236">
        <ele>271.6</ele>
        <time>2021-03-28T08:04:18Z</time>
      </trkpt>
      <trkpt lat="42.87879" lon="2.75236">
        <ele>271.6</ele>
        <time>2021-03-28T08:04:18Z</time>
      </trkpt>
      <trkpt lat="42.87886" lon="2.7525">
        <ele>270.7</ele>
        <time>2021-03-28T08:04:20Z</time>
      </trkpt>
      <trkpt lat="42.87886" lon="2.7525">
        <ele>270.7</ele>
        <time>2021-03-28T08:04:20Z</time>
      </trkpt>
      <trkpt lat="42.87893" lon="2.75266">
        <ele>270</ele>
        <time>2021-03-28T08:04:22Z</time>
      </trkpt>
      <trkpt lat="42.87893" lon="2.75266">
        <ele>270</ele>
        <time>2021-03-28T08:04:22Z</time>
      </trkpt>
      <trkpt lat="42.87902" lon="2.75281">
        <ele>268.9</ele>
        <time>2021-03-28T08:04:24Z</time>
      </trkpt>
      <trkpt lat="42.87902" lon="2.75281">
        <ele>268.9</ele>
        <time>2021-03-28T08:04:24Z</time>
      </trkpt>
      <trkpt lat="42.8791" lon="2.75293">
        <ele>268.6</ele>
        <time>2021-03-28T08:04:25Z</time>
      </trkpt>
      <trkpt lat="42.8791" lon="2.75293">
        <ele>268.6</ele>
        <time>2021-03-28T08:04:25Z</time>
      </trkpt>
      <trkpt lat="42.8792" lon="2.75304">
        <ele>267.9</ele>
        <time>2021-03-28T08:04:27Z</time>
      </trkpt>
      <trkpt lat="42.8792" lon="2.75304">
        <ele>267.9</ele>
        <time>2021-03-28T08:04:27Z</time>
      </trkpt>
      <trkpt lat="42.87931" lon="2.75313">
        <ele>267.9</ele>
        <time>2021-03-28T08:04:29Z</time>
      </trkpt>
      <trkpt lat="42.87931" lon="2.75313">
        <ele>267.9</ele>
        <time>2021-03-28T08:04:29Z</time>
      </trkpt>
      <trkpt lat="42.87941" lon="2.75321">
        <ele>267.7</ele>
        <time>2021-03-28T08:04:30Z</time>
      </trkpt>
      <trkpt lat="42.87941" lon="2.75321">
        <ele>267.7</ele>
        <time>2021-03-28T08:04:30Z</time>
      </trkpt>
      <trkpt lat="42.8795" lon="2.75327">
        <ele>267.3</ele>
        <time>2021-03-28T08:04:31Z</time>
      </trkpt>
      <trkpt lat="42.8795" lon="2.75327">
        <ele>267.3</ele>
        <time>2021-03-28T08:04:31Z</time>
      </trkpt>
      <trkpt lat="42.87962" lon="2.75331">
        <ele>266.2</ele>
        <time>2021-03-28T08:04:33Z</time>
      </trkpt>
      <trkpt lat="42.87962" lon="2.75331">
        <ele>266.2</ele>
        <time>2021-03-28T08:04:33Z</time>
      </trkpt>
      <trkpt lat="42.87973" lon="2.75333">
        <ele>265</ele>
        <time>2021-03-28T08:04:34Z</time>
      </trkpt>
      <trkpt lat="42.87973" lon="2.75333">
        <ele>265</ele>
        <time>2021-03-28T08:04:34Z</time>
      </trkpt>
      <trkpt lat="42.87983" lon="2.75334">
        <ele>265.4</ele>
        <time>2021-03-28T08:04:35Z</time>
      </trkpt>
      <trkpt lat="42.87983" lon="2.75334">
        <ele>265.4</ele>
        <time>2021-03-28T08:04:35Z</time>
      </trkpt>
      <trkpt lat="42.87993" lon="2.75335">
        <ele>265.5</ele>
        <time>2021-03-28T08:04:36Z</time>
      </trkpt>
      <trkpt lat="42.87993" lon="2.75335">
        <ele>265.5</ele>
        <time>2021-03-28T08:04:36Z</time>
      </trkpt>
      <trkpt lat="42.88004" lon="2.75335">
        <ele>265.3</ele>
        <time>2021-03-28T08:04:38Z</time>
      </trkpt>
      <trkpt lat="42.88004" lon="2.75335">
        <ele>265.3</ele>
        <time>2021-03-28T08:04:38Z</time>
      </trkpt>
      <trkpt lat="42.88015" lon="2.75336">
        <ele>265.3</ele>
        <time>2021-03-28T08:04:39Z</time>
      </trkpt>
      <trkpt lat="42.88015" lon="2.75336">
        <ele>265.3</ele>
        <time>2021-03-28T08:04:39Z</time>
      </trkpt>
      <trkpt lat="42.88024" lon="2.75339">
        <ele>265.8</ele>
        <time>2021-03-28T08:04:40Z</time>
      </trkpt>
      <trkpt lat="42.88024" lon="2.75339">
        <ele>265.8</ele>
        <time>2021-03-28T08:04:40Z</time>
      </trkpt>
      <trkpt lat="42.88036" lon="2.75344">
        <ele>265.5</ele>
        <time>2021-03-28T08:04:42Z</time>
      </trkpt>
      <trkpt lat="42.88036" lon="2.75344">
        <ele>265.5</ele>
        <time>2021-03-28T08:04:42Z</time>
      </trkpt>
      <trkpt lat="42.88047" lon="2.75349">
        <ele>264.7</ele>
        <time>2021-03-28T08:04:43Z</time>
      </trkpt>
      <trkpt lat="42.88047" lon="2.75349">
        <ele>264.7</ele>
        <time>2021-03-28T08:04:43Z</time>
      </trkpt>
      <trkpt lat="42.8806" lon="2.75355">
        <ele>263.5</ele>
        <time>2021-03-28T08:04:45Z</time>
      </trkpt>
      <trkpt lat="42.8806" lon="2.75355">
        <ele>263.5</ele>
        <time>2021-03-28T08:04:45Z</time>
      </trkpt>
      <trkpt lat="42.88071" lon="2.75361">
        <ele>262.2</ele>
        <time>2021-03-28T08:04:46Z</time>
      </trkpt>
      <trkpt lat="42.88071" lon="2.75361">
        <ele>262.2</ele>
        <time>2021-03-28T08:04:46Z</time>
      </trkpt>
      <trkpt lat="42.88084" lon="2.75366">
        <ele>260.5</ele>
        <time>2021-03-28T08:04:48Z</time>
      </trkpt>
      <trkpt lat="42.88084" lon="2.75366">
        <ele>260.5</ele>
        <time>2021-03-28T08:04:48Z</time>
      </trkpt>
      <trkpt lat="42.88097" lon="2.75365">
        <ele>258.4</ele>
        <time>2021-03-28T08:04:50Z</time>
      </trkpt>
      <trkpt lat="42.88097" lon="2.75365">
        <ele>258.4</ele>
        <time>2021-03-28T08:04:50Z</time>
      </trkpt>
      <trkpt lat="42.8811" lon="2.75358">
        <ele>254.8</ele>
        <time>2021-03-28T08:04:52Z</time>
      </trkpt>
      <trkpt lat="42.8811" lon="2.75358">
        <ele>254.8</ele>
        <time>2021-03-28T08:04:52Z</time>
      </trkpt>
      <trkpt lat="42.88119" lon="2.75349">
        <ele>256.3</ele>
        <time>2021-03-28T08:04:53Z</time>
      </trkpt>
      <trkpt lat="42.88119" lon="2.75349">
        <ele>256.3</ele>
        <time>2021-03-28T08:04:53Z</time>
      </trkpt>
      <trkpt lat="42.88127" lon="2.7534">
        <ele>257.5</ele>
        <time>2021-03-28T08:04:54Z</time>
      </trkpt>
      <trkpt lat="42.88127" lon="2.7534">
        <ele>257.5</ele>
        <time>2021-03-28T08:04:54Z</time>
      </trkpt>
      <trkpt lat="42.88136" lon="2.7533">
        <ele>258.6</ele>
        <time>2021-03-28T08:04:56Z</time>
      </trkpt>
      <trkpt lat="42.88136" lon="2.7533">
        <ele>258.6</ele>
        <time>2021-03-28T08:04:56Z</time>
      </trkpt>
      <trkpt lat="42.88144" lon="2.75323">
        <ele>259.2</ele>
        <time>2021-03-28T08:04:57Z</time>
      </trkpt>
      <trkpt lat="42.88144" lon="2.75323">
        <ele>259.2</ele>
        <time>2021-03-28T08:04:57Z</time>
      </trkpt>
      <trkpt lat="42.88153" lon="2.75318">
        <ele>259.3</ele>
        <time>2021-03-28T08:04:58Z</time>
      </trkpt>
      <trkpt lat="42.88153" lon="2.75318">
        <ele>259.3</ele>
        <time>2021-03-28T08:04:58Z</time>
      </trkpt>
      <trkpt lat="42.88164" lon="2.75317">
        <ele>260.4</ele>
        <time>2021-03-28T08:05:00Z</time>
      </trkpt>
      <trkpt lat="42.88164" lon="2.75317">
        <ele>260.4</ele>
        <time>2021-03-28T08:05:00Z</time>
      </trkpt>
      <trkpt lat="42.88175" lon="2.75318">
        <ele>259.5</ele>
        <time>2021-03-28T08:05:01Z</time>
      </trkpt>
      <trkpt lat="42.88175" lon="2.75318">
        <ele>259.5</ele>
        <time>2021-03-28T08:05:01Z</time>
      </trkpt>
      <trkpt lat="42.88185" lon="2.75318">
        <ele>257.3</ele>
        <time>2021-03-28T08:05:02Z</time>
      </trkpt>
      <trkpt lat="42.88185" lon="2.75318">
        <ele>257.3</ele>
        <time>2021-03-28T08:05:02Z</time>
      </trkpt>
      <trkpt lat="42.88196" lon="2.75312">
        <ele>253.9</ele>
        <time>2021-03-28T08:05:04Z</time>
      </trkpt>
      <trkpt lat="42.88196" lon="2.75312">
        <ele>253.9</ele>
        <time>2021-03-28T08:05:04Z</time>
      </trkpt>
      <trkpt lat="42.88206" lon="2.75305">
        <ele>254.9</ele>
        <time>2021-03-28T08:05:05Z</time>
      </trkpt>
      <trkpt lat="42.88206" lon="2.75305">
        <ele>254.9</ele>
        <time>2021-03-28T08:05:05Z</time>
      </trkpt>
      <trkpt lat="42.88214" lon="2.75298">
        <ele>255.8</ele>
        <time>2021-03-28T08:05:06Z</time>
      </trkpt>
      <trkpt lat="42.88214" lon="2.75298">
        <ele>255.8</ele>
        <time>2021-03-28T08:05:06Z</time>
      </trkpt>
      <trkpt lat="42.88222" lon="2.75291">
        <ele>256.5</ele>
        <time>2021-03-28T08:05:07Z</time>
      </trkpt>
      <trkpt lat="42.88222" lon="2.75291">
        <ele>256.5</ele>
        <time>2021-03-28T08:05:07Z</time>
      </trkpt>
      <trkpt lat="42.88232" lon="2.75281">
        <ele>255.5</ele>
        <time>2021-03-28T08:05:09Z</time>
      </trkpt>
      <trkpt lat="42.88232" lon="2.75281">
        <ele>255.5</ele>
        <time>2021-03-28T08:05:09Z</time>
      </trkpt>
      <trkpt lat="42.8824" lon="2.75271">
        <ele>254.1</ele>
        <time>2021-03-28T08:05:10Z</time>
      </trkpt>
      <trkpt lat="42.8824" lon="2.75271">
        <ele>254.1</ele>
        <time>2021-03-28T08:05:10Z</time>
      </trkpt>
      <trkpt lat="42.88246" lon="2.75261">
        <ele>251.9</ele>
        <time>2021-03-28T08:05:11Z</time>
      </trkpt>
      <trkpt lat="42.88246" lon="2.75261">
        <ele>251.9</ele>
        <time>2021-03-28T08:05:11Z</time>
      </trkpt>
      <trkpt lat="42.88249" lon="2.75247">
        <ele>248.8</ele>
        <time>2021-03-28T08:05:13Z</time>
      </trkpt>
      <trkpt lat="42.88249" lon="2.75247">
        <ele>248.8</ele>
        <time>2021-03-28T08:05:13Z</time>
      </trkpt>
      <trkpt lat="42.88245" lon="2.75234">
        <ele>248</ele>
        <time>2021-03-28T08:05:15Z</time>
      </trkpt>
      <trkpt lat="42.88245" lon="2.75234">
        <ele>248</ele>
        <time>2021-03-28T08:05:15Z</time>
      </trkpt>
      <trkpt lat="42.88236" lon="2.75223">
        <ele>246.1</ele>
        <time>2021-03-28T08:05:17Z</time>
      </trkpt>
      <trkpt lat="42.88236" lon="2.75223">
        <ele>246.1</ele>
        <time>2021-03-28T08:05:17Z</time>
      </trkpt>
      <trkpt lat="42.88225" lon="2.75213">
        <ele>246.6</ele>
        <time>2021-03-28T08:05:19Z</time>
      </trkpt>
      <trkpt lat="42.88225" lon="2.75213">
        <ele>246.6</ele>
        <time>2021-03-28T08:05:19Z</time>
      </trkpt>
      <trkpt lat="42.88214" lon="2.75205">
        <ele>246.9</ele>
        <time>2021-03-28T08:05:20Z</time>
      </trkpt>
      <trkpt lat="42.88214" lon="2.75205">
        <ele>246.9</ele>
        <time>2021-03-28T08:05:20Z</time>
      </trkpt>
      <trkpt lat="42.88201" lon="2.75196">
        <ele>246.9</ele>
        <time>2021-03-28T08:05:22Z</time>
      </trkpt>
      <trkpt lat="42.88201" lon="2.75196">
        <ele>246.9</ele>
        <time>2021-03-28T08:05:22Z</time>
      </trkpt>
      <trkpt lat="42.88186" lon="2.75188">
        <ele>246.4</ele>
        <time>2021-03-28T08:05:24Z</time>
      </trkpt>
      <trkpt lat="42.88186" lon="2.75188">
        <ele>246.4</ele>
        <time>2021-03-28T08:05:24Z</time>
      </trkpt>
      <trkpt lat="42.88171" lon="2.7518">
        <ele>245.9</ele>
        <time>2021-03-28T08:05:26Z</time>
      </trkpt>
      <trkpt lat="42.88171" lon="2.7518">
        <ele>245.9</ele>
        <time>2021-03-28T08:05:26Z</time>
      </trkpt>
      <trkpt lat="42.88155" lon="2.75171">
        <ele>246.1</ele>
        <time>2021-03-28T08:05:28Z</time>
      </trkpt>
      <trkpt lat="42.88155" lon="2.75171">
        <ele>246.1</ele>
        <time>2021-03-28T08:05:28Z</time>
      </trkpt>
      <trkpt lat="42.88143" lon="2.75161">
        <ele>246.5</ele>
        <time>2021-03-28T08:05:29Z</time>
      </trkpt>
      <trkpt lat="42.88143" lon="2.75161">
        <ele>246.5</ele>
        <time>2021-03-28T08:05:29Z</time>
      </trkpt>
      <trkpt lat="42.88134" lon="2.75149">
        <ele>247.8</ele>
        <time>2021-03-28T08:05:31Z</time>
      </trkpt>
      <trkpt lat="42.88134" lon="2.75149">
        <ele>247.8</ele>
        <time>2021-03-28T08:05:31Z</time>
      </trkpt>
      <trkpt lat="42.88129" lon="2.75132">
        <ele>248.6</ele>
        <time>2021-03-28T08:05:33Z</time>
      </trkpt>
      <trkpt lat="42.88129" lon="2.75132">
        <ele>248.6</ele>
        <time>2021-03-28T08:05:33Z</time>
      </trkpt>
      <trkpt lat="42.88128" lon="2.75114">
        <ele>247.9</ele>
        <time>2021-03-28T08:05:35Z</time>
      </trkpt>
      <trkpt lat="42.88128" lon="2.75114">
        <ele>247.9</ele>
        <time>2021-03-28T08:05:35Z</time>
      </trkpt>
      <trkpt lat="42.8813" lon="2.75094">
        <ele>245.8</ele>
        <time>2021-03-28T08:05:37Z</time>
      </trkpt>
      <trkpt lat="42.8813" lon="2.75094">
        <ele>245.8</ele>
        <time>2021-03-28T08:05:37Z</time>
      </trkpt>
      <trkpt lat="42.88131" lon="2.75076">
        <ele>243.9</ele>
        <time>2021-03-28T08:05:38Z</time>
      </trkpt>
      <trkpt lat="42.88131" lon="2.75076">
        <ele>243.9</ele>
        <time>2021-03-28T08:05:38Z</time>
      </trkpt>
      <trkpt lat="42.88134" lon="2.75057">
        <ele>242</ele>
        <time>2021-03-28T08:05:40Z</time>
      </trkpt>
      <trkpt lat="42.88134" lon="2.75057">
        <ele>242</ele>
        <time>2021-03-28T08:05:40Z</time>
      </trkpt>
      <trkpt lat="42.88137" lon="2.75036">
        <ele>241</ele>
        <time>2021-03-28T08:05:42Z</time>
      </trkpt>
      <trkpt lat="42.88137" lon="2.75036">
        <ele>241</ele>
        <time>2021-03-28T08:05:42Z</time>
      </trkpt>
      <trkpt lat="42.8814" lon="2.75019">
        <ele>240.6</ele>
        <time>2021-03-28T08:05:43Z</time>
      </trkpt>
      <trkpt lat="42.8814" lon="2.75019">
        <ele>240.6</ele>
        <time>2021-03-28T08:05:43Z</time>
      </trkpt>
      <trkpt lat="42.88148" lon="2.75006">
        <ele>240.9</ele>
        <time>2021-03-28T08:05:45Z</time>
      </trkpt>
      <trkpt lat="42.88148" lon="2.75006">
        <ele>240.9</ele>
        <time>2021-03-28T08:05:45Z</time>
      </trkpt>
      <trkpt lat="42.88156" lon="2.74998">
        <ele>241</ele>
        <time>2021-03-28T08:05:46Z</time>
      </trkpt>
      <trkpt lat="42.88156" lon="2.74998">
        <ele>241</ele>
        <time>2021-03-28T08:05:46Z</time>
      </trkpt>
      <trkpt lat="42.88163" lon="2.74995">
        <ele>241.2</ele>
        <time>2021-03-28T08:05:47Z</time>
      </trkpt>
      <trkpt lat="42.88163" lon="2.74995">
        <ele>241.2</ele>
        <time>2021-03-28T08:05:47Z</time>
      </trkpt>
      <trkpt lat="42.88174" lon="2.74995">
        <ele>240.6</ele>
        <time>2021-03-28T08:05:49Z</time>
      </trkpt>
      <trkpt lat="42.88174" lon="2.74995">
        <ele>240.6</ele>
        <time>2021-03-28T08:05:49Z</time>
      </trkpt>
      <trkpt lat="42.88183" lon="2.74996">
        <ele>239.4</ele>
        <time>2021-03-28T08:05:50Z</time>
      </trkpt>
      <trkpt lat="42.88183" lon="2.74996">
        <ele>239.4</ele>
        <time>2021-03-28T08:05:50Z</time>
      </trkpt>
      <trkpt lat="42.88195" lon="2.74996">
        <ele>237.6</ele>
        <time>2021-03-28T08:05:52Z</time>
      </trkpt>
      <trkpt lat="42.88195" lon="2.74996">
        <ele>237.6</ele>
        <time>2021-03-28T08:05:52Z</time>
      </trkpt>
      <trkpt lat="42.88205" lon="2.74994">
        <ele>236.1</ele>
        <time>2021-03-28T08:05:53Z</time>
      </trkpt>
      <trkpt lat="42.88205" lon="2.74994">
        <ele>236.1</ele>
        <time>2021-03-28T08:05:53Z</time>
      </trkpt>
      <trkpt lat="42.88213" lon="2.74985">
        <ele>233.7</ele>
        <time>2021-03-28T08:05:55Z</time>
      </trkpt>
      <trkpt lat="42.88213" lon="2.74985">
        <ele>233.7</ele>
        <time>2021-03-28T08:05:55Z</time>
      </trkpt>
      <trkpt lat="42.88219" lon="2.74975">
        <ele>232.1</ele>
        <time>2021-03-28T08:05:56Z</time>
      </trkpt>
      <trkpt lat="42.88219" lon="2.74975">
        <ele>232.1</ele>
        <time>2021-03-28T08:05:56Z</time>
      </trkpt>
      <trkpt lat="42.88221" lon="2.7496">
        <ele>231.9</ele>
        <time>2021-03-28T08:05:58Z</time>
      </trkpt>
      <trkpt lat="42.88221" lon="2.7496">
        <ele>231.9</ele>
        <time>2021-03-28T08:05:58Z</time>
      </trkpt>
      <trkpt lat="42.8822" lon="2.74943">
        <ele>231.5</ele>
        <time>2021-03-28T08:06:00Z</time>
      </trkpt>
      <trkpt lat="42.8822" lon="2.74943">
        <ele>231.5</ele>
        <time>2021-03-28T08:06:00Z</time>
      </trkpt>
      <trkpt lat="42.88216" lon="2.74924">
        <ele>230</ele>
        <time>2021-03-28T08:06:02Z</time>
      </trkpt>
      <trkpt lat="42.88216" lon="2.74924">
        <ele>230</ele>
        <time>2021-03-28T08:06:02Z</time>
      </trkpt>
      <trkpt lat="42.88212" lon="2.74909">
        <ele>229.5</ele>
        <time>2021-03-28T08:06:03Z</time>
      </trkpt>
      <trkpt lat="42.88212" lon="2.74909">
        <ele>229.5</ele>
        <time>2021-03-28T08:06:03Z</time>
      </trkpt>
      <trkpt lat="42.88207" lon="2.74891">
        <ele>230.3</ele>
        <time>2021-03-28T08:06:05Z</time>
      </trkpt>
      <trkpt lat="42.88207" lon="2.74891">
        <ele>230.3</ele>
        <time>2021-03-28T08:06:05Z</time>
      </trkpt>
      <trkpt lat="42.88203" lon="2.74876">
        <ele>231</ele>
        <time>2021-03-28T08:06:06Z</time>
      </trkpt>
      <trkpt lat="42.88203" lon="2.74876">
        <ele>231</ele>
        <time>2021-03-28T08:06:06Z</time>
      </trkpt>
      <trkpt lat="42.882" lon="2.74859">
        <ele>231.9</ele>
        <time>2021-03-28T08:06:08Z</time>
      </trkpt>
      <trkpt lat="42.882" lon="2.74859">
        <ele>231.9</ele>
        <time>2021-03-28T08:06:08Z</time>
      </trkpt>
      <trkpt lat="42.882" lon="2.7484">
        <ele>233</ele>
        <time>2021-03-28T08:06:10Z</time>
      </trkpt>
      <trkpt lat="42.882" lon="2.7484">
        <ele>233</ele>
        <time>2021-03-28T08:06:10Z</time>
      </trkpt>
      <trkpt lat="42.88204" lon="2.74824">
        <ele>233.2</ele>
        <time>2021-03-28T08:06:12Z</time>
      </trkpt>
      <trkpt lat="42.88204" lon="2.74824">
        <ele>233.2</ele>
        <time>2021-03-28T08:06:12Z</time>
      </trkpt>
      <trkpt lat="42.88212" lon="2.74809">
        <ele>233.2</ele>
        <time>2021-03-28T08:06:14Z</time>
      </trkpt>
      <trkpt lat="42.88212" lon="2.74809">
        <ele>233.2</ele>
        <time>2021-03-28T08:06:14Z</time>
      </trkpt>
      <trkpt lat="42.8822" lon="2.748">
        <ele>232.8</ele>
        <time>2021-03-28T08:06:15Z</time>
      </trkpt>
      <trkpt lat="42.8822" lon="2.748">
        <ele>232.8</ele>
        <time>2021-03-28T08:06:15Z</time>
      </trkpt>
      <trkpt lat="42.88231" lon="2.74792">
        <ele>231.3</ele>
        <time>2021-03-28T08:06:17Z</time>
      </trkpt>
      <trkpt lat="42.88231" lon="2.74792">
        <ele>231.3</ele>
        <time>2021-03-28T08:06:17Z</time>
      </trkpt>
      <trkpt lat="42.88244" lon="2.74787">
        <ele>229.9</ele>
        <time>2021-03-28T08:06:19Z</time>
      </trkpt>
      <trkpt lat="42.88244" lon="2.74787">
        <ele>229.9</ele>
        <time>2021-03-28T08:06:19Z</time>
      </trkpt>
      <trkpt lat="42.88256" lon="2.74784">
        <ele>228.6</ele>
        <time>2021-03-28T08:06:20Z</time>
      </trkpt>
      <trkpt lat="42.88256" lon="2.74784">
        <ele>228.6</ele>
        <time>2021-03-28T08:06:20Z</time>
      </trkpt>
      <trkpt lat="42.8827" lon="2.74785">
        <ele>227.5</ele>
        <time>2021-03-28T08:06:22Z</time>
      </trkpt>
      <trkpt lat="42.8827" lon="2.74785">
        <ele>227.5</ele>
        <time>2021-03-28T08:06:22Z</time>
      </trkpt>
      <trkpt lat="42.88285" lon="2.74787">
        <ele>226.7</ele>
        <time>2021-03-28T08:06:24Z</time>
      </trkpt>
      <trkpt lat="42.88285" lon="2.74787">
        <ele>226.7</ele>
        <time>2021-03-28T08:06:24Z</time>
      </trkpt>
      <trkpt lat="42.88298" lon="2.7479">
        <ele>225.6</ele>
        <time>2021-03-28T08:06:25Z</time>
      </trkpt>
      <trkpt lat="42.88298" lon="2.7479">
        <ele>225.6</ele>
        <time>2021-03-28T08:06:25Z</time>
      </trkpt>
      <trkpt lat="42.88311" lon="2.7479">
        <ele>223.7</ele>
        <time>2021-03-28T08:06:27Z</time>
      </trkpt>
      <trkpt lat="42.88311" lon="2.7479">
        <ele>223.7</ele>
        <time>2021-03-28T08:06:27Z</time>
      </trkpt>
      <trkpt lat="42.88323" lon="2.74787">
        <ele>221.7</ele>
        <time>2021-03-28T08:06:28Z</time>
      </trkpt>
      <trkpt lat="42.88323" lon="2.74787">
        <ele>221.7</ele>
        <time>2021-03-28T08:06:28Z</time>
      </trkpt>
      <trkpt lat="42.8833" lon="2.74778">
        <ele>219.4</ele>
        <time>2021-03-28T08:06:30Z</time>
      </trkpt>
      <trkpt lat="42.8833" lon="2.74778">
        <ele>219.4</ele>
        <time>2021-03-28T08:06:30Z</time>
      </trkpt>
      <trkpt lat="42.88331" lon="2.74768">
        <ele>220</ele>
        <time>2021-03-28T08:06:32Z</time>
      </trkpt>
      <trkpt lat="42.88331" lon="2.74768">
        <ele>220</ele>
        <time>2021-03-28T08:06:32Z</time>
      </trkpt>
      <trkpt lat="42.88331" lon="2.74758">
        <ele>220.8</ele>
        <time>2021-03-28T08:06:33Z</time>
      </trkpt>
      <trkpt lat="42.88331" lon="2.74758">
        <ele>220.8</ele>
        <time>2021-03-28T08:06:33Z</time>
      </trkpt>
      <trkpt lat="42.8833" lon="2.74748">
        <ele>221.2</ele>
        <time>2021-03-28T08:06:34Z</time>
      </trkpt>
      <trkpt lat="42.8833" lon="2.74748">
        <ele>221.2</ele>
        <time>2021-03-28T08:06:34Z</time>
      </trkpt>
      <trkpt lat="42.88325" lon="2.74737">
        <ele>222.1</ele>
        <time>2021-03-28T08:06:36Z</time>
      </trkpt>
      <trkpt lat="42.88325" lon="2.74737">
        <ele>222.1</ele>
        <time>2021-03-28T08:06:36Z</time>
      </trkpt>
      <trkpt lat="42.8832" lon="2.74727">
        <ele>222.3</ele>
        <time>2021-03-28T08:06:37Z</time>
      </trkpt>
      <trkpt lat="42.8832" lon="2.74727">
        <ele>222.3</ele>
        <time>2021-03-28T08:06:37Z</time>
      </trkpt>
      <trkpt lat="42.88312" lon="2.74716">
        <ele>221.5</ele>
        <time>2021-03-28T08:06:39Z</time>
      </trkpt>
      <trkpt lat="42.88312" lon="2.74716">
        <ele>221.5</ele>
        <time>2021-03-28T08:06:39Z</time>
      </trkpt>
      <trkpt lat="42.88304" lon="2.74707">
        <ele>220.6</ele>
        <time>2021-03-28T08:06:40Z</time>
      </trkpt>
      <trkpt lat="42.88304" lon="2.74707">
        <ele>220.6</ele>
        <time>2021-03-28T08:06:40Z</time>
      </trkpt>
      <trkpt lat="42.88296" lon="2.747">
        <ele>220.2</ele>
        <time>2021-03-28T08:06:41Z</time>
      </trkpt>
      <trkpt lat="42.88296" lon="2.747">
        <ele>220.2</ele>
        <time>2021-03-28T08:06:41Z</time>
      </trkpt>
      <trkpt lat="42.88287" lon="2.74693">
        <ele>219.9</ele>
        <time>2021-03-28T08:06:42Z</time>
      </trkpt>
      <trkpt lat="42.88287" lon="2.74693">
        <ele>219.9</ele>
        <time>2021-03-28T08:06:42Z</time>
      </trkpt>
      <trkpt lat="42.88279" lon="2.74687">
        <ele>219.5</ele>
        <time>2021-03-28T08:06:43Z</time>
      </trkpt>
      <trkpt lat="42.88279" lon="2.74687">
        <ele>219.5</ele>
        <time>2021-03-28T08:06:43Z</time>
      </trkpt>
      <trkpt lat="42.88268" lon="2.7468">
        <ele>218.9</ele>
        <time>2021-03-28T08:06:45Z</time>
      </trkpt>
      <trkpt lat="42.88268" lon="2.7468">
        <ele>218.9</ele>
        <time>2021-03-28T08:06:45Z</time>
      </trkpt>
      <trkpt lat="42.88258" lon="2.74673">
        <ele>218.2</ele>
        <time>2021-03-28T08:06:46Z</time>
      </trkpt>
      <trkpt lat="42.88258" lon="2.74673">
        <ele>218.2</ele>
        <time>2021-03-28T08:06:46Z</time>
      </trkpt>
      <trkpt lat="42.88245" lon="2.74666">
        <ele>217.6</ele>
        <time>2021-03-28T08:06:48Z</time>
      </trkpt>
      <trkpt lat="42.88245" lon="2.74666">
        <ele>217.6</ele>
        <time>2021-03-28T08:06:48Z</time>
      </trkpt>
      <trkpt lat="42.88234" lon="2.7466">
        <ele>217.4</ele>
        <time>2021-03-28T08:06:49Z</time>
      </trkpt>
      <trkpt lat="42.88234" lon="2.7466">
        <ele>217.4</ele>
        <time>2021-03-28T08:06:49Z</time>
      </trkpt>
      <trkpt lat="42.8822" lon="2.74656">
        <ele>216.6</ele>
        <time>2021-03-28T08:06:51Z</time>
      </trkpt>
      <trkpt lat="42.8822" lon="2.74656">
        <ele>216.6</ele>
        <time>2021-03-28T08:06:51Z</time>
      </trkpt>
      <trkpt lat="42.88204" lon="2.74653">
        <ele>215.7</ele>
        <time>2021-03-28T08:06:53Z</time>
      </trkpt>
      <trkpt lat="42.88204" lon="2.74653">
        <ele>215.7</ele>
        <time>2021-03-28T08:06:53Z</time>
      </trkpt>
      <trkpt lat="42.8819" lon="2.74653">
        <ele>214.9</ele>
        <time>2021-03-28T08:06:54Z</time>
      </trkpt>
      <trkpt lat="42.8819" lon="2.74653">
        <ele>214.9</ele>
        <time>2021-03-28T08:06:54Z</time>
      </trkpt>
      <trkpt lat="42.88175" lon="2.74653">
        <ele>214.6</ele>
        <time>2021-03-28T08:06:56Z</time>
      </trkpt>
      <trkpt lat="42.88175" lon="2.74653">
        <ele>214.6</ele>
        <time>2021-03-28T08:06:56Z</time>
      </trkpt>
      <trkpt lat="42.8816" lon="2.74654">
        <ele>214.1</ele>
        <time>2021-03-28T08:06:58Z</time>
      </trkpt>
      <trkpt lat="42.8816" lon="2.74654">
        <ele>214.1</ele>
        <time>2021-03-28T08:06:58Z</time>
      </trkpt>
      <trkpt lat="42.88146" lon="2.74654">
        <ele>213.8</ele>
        <time>2021-03-28T08:06:59Z</time>
      </trkpt>
      <trkpt lat="42.88146" lon="2.74654">
        <ele>213.8</ele>
        <time>2021-03-28T08:06:59Z</time>
      </trkpt>
      <trkpt lat="42.88135" lon="2.74654">
        <ele>213.4</ele>
        <time>2021-03-28T08:07:00Z</time>
      </trkpt>
      <trkpt lat="42.88135" lon="2.74654">
        <ele>213.4</ele>
        <time>2021-03-28T08:07:00Z</time>
      </trkpt>
      <trkpt lat="42.88123" lon="2.74649">
        <ele>212.9</ele>
        <time>2021-03-28T08:07:02Z</time>
      </trkpt>
      <trkpt lat="42.88123" lon="2.74649">
        <ele>212.9</ele>
        <time>2021-03-28T08:07:02Z</time>
      </trkpt>
      <trkpt lat="42.88112" lon="2.74639">
        <ele>213.1</ele>
        <time>2021-03-28T08:07:04Z</time>
      </trkpt>
      <trkpt lat="42.88112" lon="2.74639">
        <ele>213.1</ele>
        <time>2021-03-28T08:07:04Z</time>
      </trkpt>
      <trkpt lat="42.88101" lon="2.74625">
        <ele>212.3</ele>
        <time>2021-03-28T08:07:06Z</time>
      </trkpt>
      <trkpt lat="42.88101" lon="2.74625">
        <ele>212.3</ele>
        <time>2021-03-28T08:07:06Z</time>
      </trkpt>
      <trkpt lat="42.88091" lon="2.74613">
        <ele>210.5</ele>
        <time>2021-03-28T08:07:07Z</time>
      </trkpt>
      <trkpt lat="42.88091" lon="2.74613">
        <ele>210.5</ele>
        <time>2021-03-28T08:07:07Z</time>
      </trkpt>
      <trkpt lat="42.88081" lon="2.74602">
        <ele>209.5</ele>
        <time>2021-03-28T08:07:08Z</time>
      </trkpt>
      <trkpt lat="42.88081" lon="2.74602">
        <ele>209.5</ele>
        <time>2021-03-28T08:07:08Z</time>
      </trkpt>
      <trkpt lat="42.88068" lon="2.7459">
        <ele>208</ele>
        <time>2021-03-28T08:07:10Z</time>
      </trkpt>
      <trkpt lat="42.88068" lon="2.7459">
        <ele>208</ele>
        <time>2021-03-28T08:07:10Z</time>
      </trkpt>
      <trkpt lat="42.88053" lon="2.74578">
        <ele>206</ele>
        <time>2021-03-28T08:07:12Z</time>
      </trkpt>
      <trkpt lat="42.88053" lon="2.74578">
        <ele>206</ele>
        <time>2021-03-28T08:07:12Z</time>
      </trkpt>
      <trkpt lat="42.88037" lon="2.74566">
        <ele>204.8</ele>
        <time>2021-03-28T08:07:14Z</time>
      </trkpt>
      <trkpt lat="42.88037" lon="2.74566">
        <ele>204.8</ele>
        <time>2021-03-28T08:07:14Z</time>
      </trkpt>
      <trkpt lat="42.8802" lon="2.74554">
        <ele>203</ele>
        <time>2021-03-28T08:07:16Z</time>
      </trkpt>
      <trkpt lat="42.8802" lon="2.74554">
        <ele>203</ele>
        <time>2021-03-28T08:07:16Z</time>
      </trkpt>
      <trkpt lat="42.88006" lon="2.74545">
        <ele>202.7</ele>
        <time>2021-03-28T08:07:17Z</time>
      </trkpt>
      <trkpt lat="42.88006" lon="2.74545">
        <ele>202.7</ele>
        <time>2021-03-28T08:07:17Z</time>
      </trkpt>
      <trkpt lat="42.87994" lon="2.74536">
        <ele>202.1</ele>
        <time>2021-03-28T08:07:18Z</time>
      </trkpt>
      <trkpt lat="42.87994" lon="2.74536">
        <ele>202.1</ele>
        <time>2021-03-28T08:07:18Z</time>
      </trkpt>
      <trkpt lat="42.87981" lon="2.74526">
        <ele>202</ele>
        <time>2021-03-28T08:07:20Z</time>
      </trkpt>
      <trkpt lat="42.87981" lon="2.74526">
        <ele>202</ele>
        <time>2021-03-28T08:07:20Z</time>
      </trkpt>
      <trkpt lat="42.87969" lon="2.74512">
        <ele>202.2</ele>
        <time>2021-03-28T08:07:22Z</time>
      </trkpt>
      <trkpt lat="42.87969" lon="2.74512">
        <ele>202.2</ele>
        <time>2021-03-28T08:07:22Z</time>
      </trkpt>
      <trkpt lat="42.8796" lon="2.74494">
        <ele>202.3</ele>
        <time>2021-03-28T08:07:24Z</time>
      </trkpt>
      <trkpt lat="42.8796" lon="2.74494">
        <ele>202.3</ele>
        <time>2021-03-28T08:07:24Z</time>
      </trkpt>
      <trkpt lat="42.87949" lon="2.74478">
        <ele>200.7</ele>
        <time>2021-03-28T08:07:26Z</time>
      </trkpt>
      <trkpt lat="42.87949" lon="2.74478">
        <ele>200.7</ele>
        <time>2021-03-28T08:07:26Z</time>
      </trkpt>
      <trkpt lat="42.87939" lon="2.74466">
        <ele>199</ele>
        <time>2021-03-28T08:07:27Z</time>
      </trkpt>
      <trkpt lat="42.87939" lon="2.74466">
        <ele>199</ele>
        <time>2021-03-28T08:07:27Z</time>
      </trkpt>
      <trkpt lat="42.87927" lon="2.74455">
        <ele>197.5</ele>
        <time>2021-03-28T08:07:29Z</time>
      </trkpt>
      <trkpt lat="42.87927" lon="2.74455">
        <ele>197.5</ele>
        <time>2021-03-28T08:07:29Z</time>
      </trkpt>
      <trkpt lat="42.87916" lon="2.74447">
        <ele>197.3</ele>
        <time>2021-03-28T08:07:30Z</time>
      </trkpt>
      <trkpt lat="42.87916" lon="2.74447">
        <ele>197.3</ele>
        <time>2021-03-28T08:07:30Z</time>
      </trkpt>
      <trkpt lat="42.87906" lon="2.74441">
        <ele>197.4</ele>
        <time>2021-03-28T08:07:31Z</time>
      </trkpt>
      <trkpt lat="42.87906" lon="2.74441">
        <ele>197.4</ele>
        <time>2021-03-28T08:07:31Z</time>
      </trkpt>
      <trkpt lat="42.87893" lon="2.74435">
        <ele>197.2</ele>
        <time>2021-03-28T08:07:33Z</time>
      </trkpt>
      <trkpt lat="42.87893" lon="2.74435">
        <ele>197.2</ele>
        <time>2021-03-28T08:07:33Z</time>
      </trkpt>
      <trkpt lat="42.87879" lon="2.74428">
        <ele>196.8</ele>
        <time>2021-03-28T08:07:35Z</time>
      </trkpt>
      <trkpt lat="42.87879" lon="2.74428">
        <ele>196.8</ele>
        <time>2021-03-28T08:07:35Z</time>
      </trkpt>
      <trkpt lat="42.87864" lon="2.74422">
        <ele>196.3</ele>
        <time>2021-03-28T08:07:37Z</time>
      </trkpt>
      <trkpt lat="42.87864" lon="2.74422">
        <ele>196.3</ele>
        <time>2021-03-28T08:07:37Z</time>
      </trkpt>
      <trkpt lat="42.87851" lon="2.74418">
        <ele>195.3</ele>
        <time>2021-03-28T08:07:38Z</time>
      </trkpt>
      <trkpt lat="42.87851" lon="2.74418">
        <ele>195.3</ele>
        <time>2021-03-28T08:07:38Z</time>
      </trkpt>
      <trkpt lat="42.87836" lon="2.74413">
        <ele>193.8</ele>
        <time>2021-03-28T08:07:40Z</time>
      </trkpt>
      <trkpt lat="42.87836" lon="2.74413">
        <ele>193.8</ele>
        <time>2021-03-28T08:07:40Z</time>
      </trkpt>
      <trkpt lat="42.87823" lon="2.74409">
        <ele>193.2</ele>
        <time>2021-03-28T08:07:41Z</time>
      </trkpt>
      <trkpt lat="42.87823" lon="2.74409">
        <ele>193.2</ele>
        <time>2021-03-28T08:07:41Z</time>
      </trkpt>
      <trkpt lat="42.87808" lon="2.74407">
        <ele>192.5</ele>
        <time>2021-03-28T08:07:43Z</time>
      </trkpt>
      <trkpt lat="42.87808" lon="2.74407">
        <ele>192.5</ele>
        <time>2021-03-28T08:07:43Z</time>
      </trkpt>
      <trkpt lat="42.87793" lon="2.74405">
        <ele>192.2</ele>
        <time>2021-03-28T08:07:45Z</time>
      </trkpt>
      <trkpt lat="42.87793" lon="2.74405">
        <ele>192.2</ele>
        <time>2021-03-28T08:07:45Z</time>
      </trkpt>
      <trkpt lat="42.87779" lon="2.74402">
        <ele>192.1</ele>
        <time>2021-03-28T08:07:46Z</time>
      </trkpt>
      <trkpt lat="42.87779" lon="2.74402">
        <ele>192.1</ele>
        <time>2021-03-28T08:07:46Z</time>
      </trkpt>
      <trkpt lat="42.87766" lon="2.74394">
        <ele>192.4</ele>
        <time>2021-03-28T08:07:48Z</time>
      </trkpt>
      <trkpt lat="42.87766" lon="2.74394">
        <ele>192.4</ele>
        <time>2021-03-28T08:07:48Z</time>
      </trkpt>
      <trkpt lat="42.87755" lon="2.74386">
        <ele>192.5</ele>
        <time>2021-03-28T08:07:49Z</time>
      </trkpt>
      <trkpt lat="42.87755" lon="2.74386">
        <ele>192.5</ele>
        <time>2021-03-28T08:07:49Z</time>
      </trkpt>
      <trkpt lat="42.87744" lon="2.74374">
        <ele>191.6</ele>
        <time>2021-03-28T08:07:51Z</time>
      </trkpt>
      <trkpt lat="42.87744" lon="2.74374">
        <ele>191.6</ele>
        <time>2021-03-28T08:07:51Z</time>
      </trkpt>
      <trkpt lat="42.87737" lon="2.74361">
        <ele>190.6</ele>
        <time>2021-03-28T08:07:52Z</time>
      </trkpt>
      <trkpt lat="42.87737" lon="2.74361">
        <ele>190.6</ele>
        <time>2021-03-28T08:07:52Z</time>
      </trkpt>
      <trkpt lat="42.87733" lon="2.74349">
        <ele>189.6</ele>
        <time>2021-03-28T08:07:53Z</time>
      </trkpt>
      <trkpt lat="42.87733" lon="2.74349">
        <ele>189.6</ele>
        <time>2021-03-28T08:07:53Z</time>
      </trkpt>
      <trkpt lat="42.87732" lon="2.74337">
        <ele>189.1</ele>
        <time>2021-03-28T08:07:54Z</time>
      </trkpt>
      <trkpt lat="42.87732" lon="2.74337">
        <ele>189.1</ele>
        <time>2021-03-28T08:07:54Z</time>
      </trkpt>
      <trkpt lat="42.87735" lon="2.74322">
        <ele>188.5</ele>
        <time>2021-03-28T08:07:56Z</time>
      </trkpt>
      <trkpt lat="42.87735" lon="2.74322">
        <ele>188.5</ele>
        <time>2021-03-28T08:07:56Z</time>
      </trkpt>
      <trkpt lat="42.8774" lon="2.74305">
        <ele>187.9</ele>
        <time>2021-03-28T08:07:58Z</time>
      </trkpt>
      <trkpt lat="42.8774" lon="2.74305">
        <ele>187.9</ele>
        <time>2021-03-28T08:07:58Z</time>
      </trkpt>
      <trkpt lat="42.87746" lon="2.7429">
        <ele>187</ele>
        <time>2021-03-28T08:07:59Z</time>
      </trkpt>
      <trkpt lat="42.87746" lon="2.7429">
        <ele>187</ele>
        <time>2021-03-28T08:07:59Z</time>
      </trkpt>
      <trkpt lat="42.87753" lon="2.74273">
        <ele>186</ele>
        <time>2021-03-28T08:08:01Z</time>
      </trkpt>
      <trkpt lat="42.87753" lon="2.74273">
        <ele>186</ele>
        <time>2021-03-28T08:08:01Z</time>
      </trkpt>
      <trkpt lat="42.87764" lon="2.74257">
        <ele>185.7</ele>
        <time>2021-03-28T08:08:03Z</time>
      </trkpt>
      <trkpt lat="42.87764" lon="2.74257">
        <ele>185.7</ele>
        <time>2021-03-28T08:08:03Z</time>
      </trkpt>
      <trkpt lat="42.87774" lon="2.74247">
        <ele>185.5</ele>
        <time>2021-03-28T08:08:04Z</time>
      </trkpt>
      <trkpt lat="42.87774" lon="2.74247">
        <ele>185.5</ele>
        <time>2021-03-28T08:08:04Z</time>
      </trkpt>
      <trkpt lat="42.87784" lon="2.74239">
        <ele>185.3</ele>
        <time>2021-03-28T08:08:05Z</time>
      </trkpt>
      <trkpt lat="42.87784" lon="2.74239">
        <ele>185.3</ele>
        <time>2021-03-28T08:08:05Z</time>
      </trkpt>
      <trkpt lat="42.87797" lon="2.74234">
        <ele>184.7</ele>
        <time>2021-03-28T08:08:07Z</time>
      </trkpt>
      <trkpt lat="42.87797" lon="2.74234">
        <ele>184.7</ele>
        <time>2021-03-28T08:08:07Z</time>
      </trkpt>
      <trkpt lat="42.87809" lon="2.7423">
        <ele>184</ele>
        <time>2021-03-28T08:08:08Z</time>
      </trkpt>
      <trkpt lat="42.87809" lon="2.7423">
        <ele>184</ele>
        <time>2021-03-28T08:08:08Z</time>
      </trkpt>
      <trkpt lat="42.87823" lon="2.74228">
        <ele>183.2</ele>
        <time>2021-03-28T08:08:10Z</time>
      </trkpt>
      <trkpt lat="42.87823" lon="2.74228">
        <ele>183.2</ele>
        <time>2021-03-28T08:08:10Z</time>
      </trkpt>
      <trkpt lat="42.87836" lon="2.74226">
        <ele>182.6</ele>
        <time>2021-03-28T08:08:11Z</time>
      </trkpt>
      <trkpt lat="42.87836" lon="2.74226">
        <ele>182.6</ele>
        <time>2021-03-28T08:08:11Z</time>
      </trkpt>
      <trkpt lat="42.8785" lon="2.74223">
        <ele>181.5</ele>
        <time>2021-03-28T08:08:13Z</time>
      </trkpt>
      <trkpt lat="42.8785" lon="2.74223">
        <ele>181.5</ele>
        <time>2021-03-28T08:08:13Z</time>
      </trkpt>
      <trkpt lat="42.87861" lon="2.74218">
        <ele>180.2</ele>
        <time>2021-03-28T08:08:14Z</time>
      </trkpt>
      <trkpt lat="42.87861" lon="2.74218">
        <ele>180.2</ele>
        <time>2021-03-28T08:08:14Z</time>
      </trkpt>
      <trkpt lat="42.87869" lon="2.74206">
        <ele>178.8</ele>
        <time>2021-03-28T08:08:16Z</time>
      </trkpt>
      <trkpt lat="42.87869" lon="2.74206">
        <ele>178.8</ele>
        <time>2021-03-28T08:08:16Z</time>
      </trkpt>
      <trkpt lat="42.87875" lon="2.7419">
        <ele>177.5</ele>
        <time>2021-03-28T08:08:18Z</time>
      </trkpt>
      <trkpt lat="42.87875" lon="2.7419">
        <ele>177.5</ele>
        <time>2021-03-28T08:08:18Z</time>
      </trkpt>
      <trkpt lat="42.8788" lon="2.74172">
        <ele>176.9</ele>
        <time>2021-03-28T08:08:20Z</time>
      </trkpt>
      <trkpt lat="42.8788" lon="2.74172">
        <ele>176.9</ele>
        <time>2021-03-28T08:08:20Z</time>
      </trkpt>
      <trkpt lat="42.87885" lon="2.74156">
        <ele>177.5</ele>
        <time>2021-03-28T08:08:21Z</time>
      </trkpt>
      <trkpt lat="42.87885" lon="2.74156">
        <ele>177.5</ele>
        <time>2021-03-28T08:08:21Z</time>
      </trkpt>
      <trkpt lat="42.87892" lon="2.74138">
        <ele>178.3</ele>
        <time>2021-03-28T08:08:23Z</time>
      </trkpt>
      <trkpt lat="42.87892" lon="2.74138">
        <ele>178.3</ele>
        <time>2021-03-28T08:08:23Z</time>
      </trkpt>
      <trkpt lat="42.87899" lon="2.74119">
        <ele>176.9</ele>
        <time>2021-03-28T08:08:25Z</time>
      </trkpt>
      <trkpt lat="42.87899" lon="2.74119">
        <ele>176.9</ele>
        <time>2021-03-28T08:08:25Z</time>
      </trkpt>
      <trkpt lat="42.87903" lon="2.74101">
        <ele>175.4</ele>
        <time>2021-03-28T08:08:26Z</time>
      </trkpt>
      <trkpt lat="42.87903" lon="2.74101">
        <ele>175.4</ele>
        <time>2021-03-28T08:08:26Z</time>
      </trkpt>
      <trkpt lat="42.87906" lon="2.74082">
        <ele>173.6</ele>
        <time>2021-03-28T08:08:28Z</time>
      </trkpt>
      <trkpt lat="42.87906" lon="2.74082">
        <ele>173.6</ele>
        <time>2021-03-28T08:08:28Z</time>
      </trkpt>
      <trkpt lat="42.87907" lon="2.74061">
        <ele>172.3</ele>
        <time>2021-03-28T08:08:30Z</time>
      </trkpt>
      <trkpt lat="42.87907" lon="2.74061">
        <ele>172.3</ele>
        <time>2021-03-28T08:08:30Z</time>
      </trkpt>
      <trkpt lat="42.87907" lon="2.7404">
        <ele>171.8</ele>
        <time>2021-03-28T08:08:32Z</time>
      </trkpt>
      <trkpt lat="42.87907" lon="2.7404">
        <ele>171.8</ele>
        <time>2021-03-28T08:08:32Z</time>
      </trkpt>
      <trkpt lat="42.8791" lon="2.74019">
        <ele>172.3</ele>
        <time>2021-03-28T08:08:34Z</time>
      </trkpt>
      <trkpt lat="42.8791" lon="2.74019">
        <ele>172.3</ele>
        <time>2021-03-28T08:08:34Z</time>
      </trkpt>
      <trkpt lat="42.87917" lon="2.74002">
        <ele>174</ele>
        <time>2021-03-28T08:08:36Z</time>
      </trkpt>
      <trkpt lat="42.87917" lon="2.74002">
        <ele>174</ele>
        <time>2021-03-28T08:08:36Z</time>
      </trkpt>
      <trkpt lat="42.87927" lon="2.73989">
        <ele>173.3</ele>
        <time>2021-03-28T08:08:38Z</time>
      </trkpt>
      <trkpt lat="42.87927" lon="2.73989">
        <ele>173.3</ele>
        <time>2021-03-28T08:08:38Z</time>
      </trkpt>
      <trkpt lat="42.87938" lon="2.73981">
        <ele>173.2</ele>
        <time>2021-03-28T08:08:40Z</time>
      </trkpt>
      <trkpt lat="42.87938" lon="2.73981">
        <ele>173.2</ele>
        <time>2021-03-28T08:08:40Z</time>
      </trkpt>
      <trkpt lat="42.87949" lon="2.73976">
        <ele>173</ele>
        <time>2021-03-28T08:08:41Z</time>
      </trkpt>
      <trkpt lat="42.87949" lon="2.73976">
        <ele>173</ele>
        <time>2021-03-28T08:08:41Z</time>
      </trkpt>
      <trkpt lat="42.87962" lon="2.73974">
        <ele>172</ele>
        <time>2021-03-28T08:08:43Z</time>
      </trkpt>
      <trkpt lat="42.87962" lon="2.73974">
        <ele>172</ele>
        <time>2021-03-28T08:08:43Z</time>
      </trkpt>
      <trkpt lat="42.87978" lon="2.73973">
        <ele>170</ele>
        <time>2021-03-28T08:08:45Z</time>
      </trkpt>
      <trkpt lat="42.87978" lon="2.73973">
        <ele>170</ele>
        <time>2021-03-28T08:08:45Z</time>
      </trkpt>
      <trkpt lat="42.87994" lon="2.73966">
        <ele>166</ele>
        <time>2021-03-28T08:08:47Z</time>
      </trkpt>
      <trkpt lat="42.87994" lon="2.73966">
        <ele>166</ele>
        <time>2021-03-28T08:08:47Z</time>
      </trkpt>
      <trkpt lat="42.88006" lon="2.73957">
        <ele>164</ele>
        <time>2021-03-28T08:08:48Z</time>
      </trkpt>
      <trkpt lat="42.88006" lon="2.73957">
        <ele>164</ele>
        <time>2021-03-28T08:08:48Z</time>
      </trkpt>
      <trkpt lat="42.88017" lon="2.73948">
        <ele>163.9</ele>
        <time>2021-03-28T08:08:49Z</time>
      </trkpt>
      <trkpt lat="42.88017" lon="2.73948">
        <ele>163.9</ele>
        <time>2021-03-28T08:08:49Z</time>
      </trkpt>
      <trkpt lat="42.88027" lon="2.73935">
        <ele>163.8</ele>
        <time>2021-03-28T08:08:51Z</time>
      </trkpt>
      <trkpt lat="42.88027" lon="2.73935">
        <ele>163.8</ele>
        <time>2021-03-28T08:08:51Z</time>
      </trkpt>
      <trkpt lat="42.88036" lon="2.73922">
        <ele>163.1</ele>
        <time>2021-03-28T08:08:52Z</time>
      </trkpt>
      <trkpt lat="42.88036" lon="2.73922">
        <ele>163.1</ele>
        <time>2021-03-28T08:08:52Z</time>
      </trkpt>
      <trkpt lat="42.88043" lon="2.7391">
        <ele>162.6</ele>
        <time>2021-03-28T08:08:53Z</time>
      </trkpt>
      <trkpt lat="42.88043" lon="2.7391">
        <ele>162.6</ele>
        <time>2021-03-28T08:08:53Z</time>
      </trkpt>
      <trkpt lat="42.88051" lon="2.73895">
        <ele>162.1</ele>
        <time>2021-03-28T08:08:55Z</time>
      </trkpt>
      <trkpt lat="42.88051" lon="2.73895">
        <ele>162.1</ele>
        <time>2021-03-28T08:08:55Z</time>
      </trkpt>
      <trkpt lat="42.88058" lon="2.7388">
        <ele>161.4</ele>
        <time>2021-03-28T08:08:56Z</time>
      </trkpt>
      <trkpt lat="42.88058" lon="2.7388">
        <ele>161.4</ele>
        <time>2021-03-28T08:08:56Z</time>
      </trkpt>
      <trkpt lat="42.88065" lon="2.73867">
        <ele>160.7</ele>
        <time>2021-03-28T08:08:57Z</time>
      </trkpt>
      <trkpt lat="42.88065" lon="2.73867">
        <ele>160.7</ele>
        <time>2021-03-28T08:08:57Z</time>
      </trkpt>
      <trkpt lat="42.88071" lon="2.73855">
        <ele>160.2</ele>
        <time>2021-03-28T08:08:58Z</time>
      </trkpt>
      <trkpt lat="42.88071" lon="2.73855">
        <ele>160.2</ele>
        <time>2021-03-28T08:08:58Z</time>
      </trkpt>
      <trkpt lat="42.88079" lon="2.7384">
        <ele>160</ele>
        <time>2021-03-28T08:09:00Z</time>
      </trkpt>
      <trkpt lat="42.88079" lon="2.7384">
        <ele>160</ele>
        <time>2021-03-28T08:09:00Z</time>
      </trkpt>
      <trkpt lat="42.8809" lon="2.73824">
        <ele>159.8</ele>
        <time>2021-03-28T08:09:02Z</time>
      </trkpt>
      <trkpt lat="42.8809" lon="2.73824">
        <ele>159.8</ele>
        <time>2021-03-28T08:09:02Z</time>
      </trkpt>
      <trkpt lat="42.88101" lon="2.7381">
        <ele>160.2</ele>
        <time>2021-03-28T08:09:04Z</time>
      </trkpt>
      <trkpt lat="42.88101" lon="2.7381">
        <ele>160.2</ele>
        <time>2021-03-28T08:09:04Z</time>
      </trkpt>
      <trkpt lat="42.88115" lon="2.73798">
        <ele>160</ele>
        <time>2021-03-28T08:09:06Z</time>
      </trkpt>
      <trkpt lat="42.88115" lon="2.73798">
        <ele>160</ele>
        <time>2021-03-28T08:09:06Z</time>
      </trkpt>
      <trkpt lat="42.8813" lon="2.73786">
        <ele>158.7</ele>
        <time>2021-03-28T08:09:08Z</time>
      </trkpt>
      <trkpt lat="42.8813" lon="2.73786">
        <ele>158.7</ele>
        <time>2021-03-28T08:09:08Z</time>
      </trkpt>
      <trkpt lat="42.88147" lon="2.73775">
        <ele>157.4</ele>
        <time>2021-03-28T08:09:10Z</time>
      </trkpt>
      <trkpt lat="42.88147" lon="2.73775">
        <ele>157.4</ele>
        <time>2021-03-28T08:09:10Z</time>
      </trkpt>
      <trkpt lat="42.88164" lon="2.73762">
        <ele>155.9</ele>
        <time>2021-03-28T08:09:12Z</time>
      </trkpt>
      <trkpt lat="42.88164" lon="2.73762">
        <ele>155.9</ele>
        <time>2021-03-28T08:09:12Z</time>
      </trkpt>
      <trkpt lat="42.8818" lon="2.73747">
        <ele>154.5</ele>
        <time>2021-03-28T08:09:14Z</time>
      </trkpt>
      <trkpt lat="42.8818" lon="2.73747">
        <ele>154.5</ele>
        <time>2021-03-28T08:09:14Z</time>
      </trkpt>
      <trkpt lat="42.88194" lon="2.73729">
        <ele>154</ele>
        <time>2021-03-28T08:09:16Z</time>
      </trkpt>
      <trkpt lat="42.88194" lon="2.73729">
        <ele>154</ele>
        <time>2021-03-28T08:09:16Z</time>
      </trkpt>
      <trkpt lat="42.88206" lon="2.73713">
        <ele>152.6</ele>
        <time>2021-03-28T08:09:17Z</time>
      </trkpt>
      <trkpt lat="42.88206" lon="2.73713">
        <ele>152.6</ele>
        <time>2021-03-28T08:09:17Z</time>
      </trkpt>
      <trkpt lat="42.88216" lon="2.73694">
        <ele>151.2</ele>
        <time>2021-03-28T08:09:19Z</time>
      </trkpt>
      <trkpt lat="42.88216" lon="2.73694">
        <ele>151.2</ele>
        <time>2021-03-28T08:09:19Z</time>
      </trkpt>
      <trkpt lat="42.88228" lon="2.73676">
        <ele>150.6</ele>
        <time>2021-03-28T08:09:21Z</time>
      </trkpt>
      <trkpt lat="42.88228" lon="2.73676">
        <ele>150.6</ele>
        <time>2021-03-28T08:09:21Z</time>
      </trkpt>
      <trkpt lat="42.88239" lon="2.73662">
        <ele>149.8</ele>
        <time>2021-03-28T08:09:22Z</time>
      </trkpt>
      <trkpt lat="42.88239" lon="2.73662">
        <ele>149.8</ele>
        <time>2021-03-28T08:09:22Z</time>
      </trkpt>
      <trkpt lat="42.88251" lon="2.7365">
        <ele>149.6</ele>
        <time>2021-03-28T08:09:24Z</time>
      </trkpt>
      <trkpt lat="42.88251" lon="2.7365">
        <ele>149.6</ele>
        <time>2021-03-28T08:09:24Z</time>
      </trkpt>
      <trkpt lat="42.88266" lon="2.73638">
        <ele>149.4</ele>
        <time>2021-03-28T08:09:26Z</time>
      </trkpt>
      <trkpt lat="42.88266" lon="2.73638">
        <ele>149.4</ele>
        <time>2021-03-28T08:09:26Z</time>
      </trkpt>
      <trkpt lat="42.88281" lon="2.73627">
        <ele>148.6</ele>
        <time>2021-03-28T08:09:28Z</time>
      </trkpt>
      <trkpt lat="42.88281" lon="2.73627">
        <ele>148.6</ele>
        <time>2021-03-28T08:09:28Z</time>
      </trkpt>
      <trkpt lat="42.88297" lon="2.73616">
        <ele>148.2</ele>
        <time>2021-03-28T08:09:30Z</time>
      </trkpt>
      <trkpt lat="42.88297" lon="2.73616">
        <ele>148.2</ele>
        <time>2021-03-28T08:09:30Z</time>
      </trkpt>
      <trkpt lat="42.88314" lon="2.73605">
        <ele>147.6</ele>
        <time>2021-03-28T08:09:32Z</time>
      </trkpt>
      <trkpt lat="42.88314" lon="2.73605">
        <ele>147.6</ele>
        <time>2021-03-28T08:09:32Z</time>
      </trkpt>
      <trkpt lat="42.88328" lon="2.73596">
        <ele>147.1</ele>
        <time>2021-03-28T08:09:33Z</time>
      </trkpt>
      <trkpt lat="42.88328" lon="2.73596">
        <ele>147.1</ele>
        <time>2021-03-28T08:09:33Z</time>
      </trkpt>
      <trkpt lat="42.88342" lon="2.73586">
        <ele>147</ele>
        <time>2021-03-28T08:09:35Z</time>
      </trkpt>
      <trkpt lat="42.88342" lon="2.73586">
        <ele>147</ele>
        <time>2021-03-28T08:09:35Z</time>
      </trkpt>
      <trkpt lat="42.88355" lon="2.73578">
        <ele>146.8</ele>
        <time>2021-03-28T08:09:36Z</time>
      </trkpt>
      <trkpt lat="42.88355" lon="2.73578">
        <ele>146.8</ele>
        <time>2021-03-28T08:09:36Z</time>
      </trkpt>
      <trkpt lat="42.88369" lon="2.73568">
        <ele>146.3</ele>
        <time>2021-03-28T08:09:38Z</time>
      </trkpt>
      <trkpt lat="42.88369" lon="2.73568">
        <ele>146.3</ele>
        <time>2021-03-28T08:09:38Z</time>
      </trkpt>
      <trkpt lat="42.88381" lon="2.7356">
        <ele>146</ele>
        <time>2021-03-28T08:09:39Z</time>
      </trkpt>
      <trkpt lat="42.88381" lon="2.7356">
        <ele>146</ele>
        <time>2021-03-28T08:09:39Z</time>
      </trkpt>
      <trkpt lat="42.88394" lon="2.73551">
        <ele>145.9</ele>
        <time>2021-03-28T08:09:41Z</time>
      </trkpt>
      <trkpt lat="42.88394" lon="2.73551">
        <ele>145.9</ele>
        <time>2021-03-28T08:09:41Z</time>
      </trkpt>
      <trkpt lat="42.88406" lon="2.73544">
        <ele>145.8</ele>
        <time>2021-03-28T08:09:42Z</time>
      </trkpt>
      <trkpt lat="42.88406" lon="2.73544">
        <ele>145.8</ele>
        <time>2021-03-28T08:09:42Z</time>
      </trkpt>
      <trkpt lat="42.88419" lon="2.73534">
        <ele>146.1</ele>
        <time>2021-03-28T08:09:44Z</time>
      </trkpt>
      <trkpt lat="42.88419" lon="2.73534">
        <ele>146.1</ele>
        <time>2021-03-28T08:09:44Z</time>
      </trkpt>
      <trkpt lat="42.88431" lon="2.73522">
        <ele>146.3</ele>
        <time>2021-03-28T08:09:46Z</time>
      </trkpt>
      <trkpt lat="42.88431" lon="2.73522">
        <ele>146.3</ele>
        <time>2021-03-28T08:09:46Z</time>
      </trkpt>
      <trkpt lat="42.8844" lon="2.73511">
        <ele>146.3</ele>
        <time>2021-03-28T08:09:47Z</time>
      </trkpt>
      <trkpt lat="42.8844" lon="2.73511">
        <ele>146.3</ele>
        <time>2021-03-28T08:09:47Z</time>
      </trkpt>
      <trkpt lat="42.88448" lon="2.73498">
        <ele>146.1</ele>
        <time>2021-03-28T08:09:49Z</time>
      </trkpt>
      <trkpt lat="42.88448" lon="2.73498">
        <ele>146.1</ele>
        <time>2021-03-28T08:09:49Z</time>
      </trkpt>
      <trkpt lat="42.88454" lon="2.73483">
        <ele>146.4</ele>
        <time>2021-03-28T08:09:51Z</time>
      </trkpt>
      <trkpt lat="42.88454" lon="2.73483">
        <ele>146.4</ele>
        <time>2021-03-28T08:09:51Z</time>
      </trkpt>
      <trkpt lat="42.88459" lon="2.73467">
        <ele>146.3</ele>
        <time>2021-03-28T08:09:53Z</time>
      </trkpt>
      <trkpt lat="42.88459" lon="2.73467">
        <ele>146.3</ele>
        <time>2021-03-28T08:09:53Z</time>
      </trkpt>
      <trkpt lat="42.88464" lon="2.7345">
        <ele>145.9</ele>
        <time>2021-03-28T08:09:55Z</time>
      </trkpt>
      <trkpt lat="42.88464" lon="2.7345">
        <ele>145.9</ele>
        <time>2021-03-28T08:09:55Z</time>
      </trkpt>
      <trkpt lat="42.88468" lon="2.73434">
        <ele>145.8</ele>
        <time>2021-03-28T08:09:57Z</time>
      </trkpt>
      <trkpt lat="42.88468" lon="2.73434">
        <ele>145.8</ele>
        <time>2021-03-28T08:09:57Z</time>
      </trkpt>
      <trkpt lat="42.88471" lon="2.73418">
        <ele>146</ele>
        <time>2021-03-28T08:09:59Z</time>
      </trkpt>
      <trkpt lat="42.88471" lon="2.73418">
        <ele>146</ele>
        <time>2021-03-28T08:09:59Z</time>
      </trkpt>
      <trkpt lat="42.88474" lon="2.73404">
        <ele>146.5</ele>
        <time>2021-03-28T08:10:00Z</time>
      </trkpt>
      <trkpt lat="42.88474" lon="2.73404">
        <ele>146.5</ele>
        <time>2021-03-28T08:10:00Z</time>
      </trkpt>
      <trkpt lat="42.88476" lon="2.7339">
        <ele>147</ele>
        <time>2021-03-28T08:10:02Z</time>
      </trkpt>
      <trkpt lat="42.88476" lon="2.7339">
        <ele>147</ele>
        <time>2021-03-28T08:10:02Z</time>
      </trkpt>
      <trkpt lat="42.88477" lon="2.73374">
        <ele>147</ele>
        <time>2021-03-28T08:10:04Z</time>
      </trkpt>
      <trkpt lat="42.88477" lon="2.73374">
        <ele>147</ele>
        <time>2021-03-28T08:10:04Z</time>
      </trkpt>
      <trkpt lat="42.88478" lon="2.73361">
        <ele>147</ele>
        <time>2021-03-28T08:10:05Z</time>
      </trkpt>
      <trkpt lat="42.88478" lon="2.73361">
        <ele>147</ele>
        <time>2021-03-28T08:10:05Z</time>
      </trkpt>
      <trkpt lat="42.88478" lon="2.73349">
        <ele>146.2</ele>
        <time>2021-03-28T08:10:06Z</time>
      </trkpt>
      <trkpt lat="42.88478" lon="2.73349">
        <ele>146.2</ele>
        <time>2021-03-28T08:10:06Z</time>
      </trkpt>
      <trkpt lat="42.88478" lon="2.73337">
        <ele>145.5</ele>
        <time>2021-03-28T08:10:07Z</time>
      </trkpt>
      <trkpt lat="42.88478" lon="2.73337">
        <ele>145.5</ele>
        <time>2021-03-28T08:10:07Z</time>
      </trkpt>
      <trkpt lat="42.88478" lon="2.73323">
        <ele>146.1</ele>
        <time>2021-03-28T08:10:09Z</time>
      </trkpt>
      <trkpt lat="42.88478" lon="2.73323">
        <ele>146.1</ele>
        <time>2021-03-28T08:10:09Z</time>
      </trkpt>
      <trkpt lat="42.88478" lon="2.7331">
        <ele>147.2</ele>
        <time>2021-03-28T08:10:10Z</time>
      </trkpt>
      <trkpt lat="42.88478" lon="2.7331">
        <ele>147.2</ele>
        <time>2021-03-28T08:10:10Z</time>
      </trkpt>
      <trkpt lat="42.88478" lon="2.73298">
        <ele>147.7</ele>
        <time>2021-03-28T08:10:11Z</time>
      </trkpt>
      <trkpt lat="42.88478" lon="2.73298">
        <ele>147.7</ele>
        <time>2021-03-28T08:10:11Z</time>
      </trkpt>
      <trkpt lat="42.88478" lon="2.73287">
        <ele>147.7</ele>
        <time>2021-03-28T08:10:12Z</time>
      </trkpt>
      <trkpt lat="42.88478" lon="2.73287">
        <ele>147.7</ele>
        <time>2021-03-28T08:10:12Z</time>
      </trkpt>
      <trkpt lat="42.88477" lon="2.73273">
        <ele>147.8</ele>
        <time>2021-03-28T08:10:14Z</time>
      </trkpt>
      <trkpt lat="42.88477" lon="2.73273">
        <ele>147.8</ele>
        <time>2021-03-28T08:10:14Z</time>
      </trkpt>
      <trkpt lat="42.88477" lon="2.73258">
        <ele>147.8</ele>
        <time>2021-03-28T08:10:16Z</time>
      </trkpt>
      <trkpt lat="42.88477" lon="2.73258">
        <ele>147.8</ele>
        <time>2021-03-28T08:10:16Z</time>
      </trkpt>
      <trkpt lat="42.88477" lon="2.73244">
        <ele>147.9</ele>
        <time>2021-03-28T08:10:17Z</time>
      </trkpt>
      <trkpt lat="42.88477" lon="2.73244">
        <ele>147.9</ele>
        <time>2021-03-28T08:10:17Z</time>
      </trkpt>
      <trkpt lat="42.88476" lon="2.73228">
        <ele>148</ele>
        <time>2021-03-28T08:10:19Z</time>
      </trkpt>
      <trkpt lat="42.88476" lon="2.73228">
        <ele>148</ele>
        <time>2021-03-28T08:10:19Z</time>
      </trkpt>
      <trkpt lat="42.88475" lon="2.73214">
        <ele>148</ele>
        <time>2021-03-28T08:10:20Z</time>
      </trkpt>
      <trkpt lat="42.88475" lon="2.73214">
        <ele>148</ele>
        <time>2021-03-28T08:10:20Z</time>
      </trkpt>
      <trkpt lat="42.88474" lon="2.73202">
        <ele>148</ele>
        <time>2021-03-28T08:10:21Z</time>
      </trkpt>
      <trkpt lat="42.88474" lon="2.73202">
        <ele>148</ele>
        <time>2021-03-28T08:10:21Z</time>
      </trkpt>
      <trkpt lat="42.88473" lon="2.73188">
        <ele>148</ele>
        <time>2021-03-28T08:10:23Z</time>
      </trkpt>
      <trkpt lat="42.88473" lon="2.73188">
        <ele>148</ele>
        <time>2021-03-28T08:10:23Z</time>
      </trkpt>
      <trkpt lat="42.88472" lon="2.73175">
        <ele>148</ele>
        <time>2021-03-28T08:10:24Z</time>
      </trkpt>
      <trkpt lat="42.88472" lon="2.73175">
        <ele>148</ele>
        <time>2021-03-28T08:10:24Z</time>
      </trkpt>
      <trkpt lat="42.88471" lon="2.73164">
        <ele>148</ele>
        <time>2021-03-28T08:10:25Z</time>
      </trkpt>
      <trkpt lat="42.88471" lon="2.73164">
        <ele>148</ele>
        <time>2021-03-28T08:10:25Z</time>
      </trkpt>
      <trkpt lat="42.8847" lon="2.73151">
        <ele>147.9</ele>
        <time>2021-03-28T08:10:27Z</time>
      </trkpt>
      <trkpt lat="42.8847" lon="2.73151">
        <ele>147.9</ele>
        <time>2021-03-28T08:10:27Z</time>
      </trkpt>
      <trkpt lat="42.88468" lon="2.73139">
        <ele>147.9</ele>
        <time>2021-03-28T08:10:28Z</time>
      </trkpt>
      <trkpt lat="42.88468" lon="2.73139">
        <ele>147.9</ele>
        <time>2021-03-28T08:10:28Z</time>
      </trkpt>
      <trkpt lat="42.88466" lon="2.73126">
        <ele>147.8</ele>
        <time>2021-03-28T08:10:30Z</time>
      </trkpt>
      <trkpt lat="42.88466" lon="2.73126">
        <ele>147.8</ele>
        <time>2021-03-28T08:10:30Z</time>
      </trkpt>
      <trkpt lat="42.88464" lon="2.73114">
        <ele>147.7</ele>
        <time>2021-03-28T08:10:31Z</time>
      </trkpt>
      <trkpt lat="42.88464" lon="2.73114">
        <ele>147.7</ele>
        <time>2021-03-28T08:10:31Z</time>
      </trkpt>
      <trkpt lat="42.88462" lon="2.73102">
        <ele>147.6</ele>
        <time>2021-03-28T08:10:32Z</time>
      </trkpt>
      <trkpt lat="42.88462" lon="2.73102">
        <ele>147.6</ele>
        <time>2021-03-28T08:10:32Z</time>
      </trkpt>
      <trkpt lat="42.8846" lon="2.73088">
        <ele>147.6</ele>
        <time>2021-03-28T08:10:34Z</time>
      </trkpt>
      <trkpt lat="42.8846" lon="2.73088">
        <ele>147.6</ele>
        <time>2021-03-28T08:10:34Z</time>
      </trkpt>
      <trkpt lat="42.88459" lon="2.73075">
        <ele>147.5</ele>
        <time>2021-03-28T08:10:35Z</time>
      </trkpt>
      <trkpt lat="42.88459" lon="2.73075">
        <ele>147.5</ele>
        <time>2021-03-28T08:10:35Z</time>
      </trkpt>
      <trkpt lat="42.88459" lon="2.73063">
        <ele>147.5</ele>
        <time>2021-03-28T08:10:36Z</time>
      </trkpt>
      <trkpt lat="42.88459" lon="2.73063">
        <ele>147.5</ele>
        <time>2021-03-28T08:10:36Z</time>
      </trkpt>
      <trkpt lat="42.8846" lon="2.73048">
        <ele>147.5</ele>
        <time>2021-03-28T08:10:38Z</time>
      </trkpt>
      <trkpt lat="42.8846" lon="2.73048">
        <ele>147.5</ele>
        <time>2021-03-28T08:10:38Z</time>
      </trkpt>
      <trkpt lat="42.88462" lon="2.73032">
        <ele>147.6</ele>
        <time>2021-03-28T08:10:40Z</time>
      </trkpt>
      <trkpt lat="42.88462" lon="2.73032">
        <ele>147.6</ele>
        <time>2021-03-28T08:10:40Z</time>
      </trkpt>
      <trkpt lat="42.88466" lon="2.73016">
        <ele>147.5</ele>
        <time>2021-03-28T08:10:42Z</time>
      </trkpt>
      <trkpt lat="42.88466" lon="2.73016">
        <ele>147.5</ele>
        <time>2021-03-28T08:10:42Z</time>
      </trkpt>
      <trkpt lat="42.88471" lon="2.73">
        <ele>147</ele>
        <time>2021-03-28T08:10:44Z</time>
      </trkpt>
      <trkpt lat="42.88471" lon="2.73">
        <ele>147</ele>
        <time>2021-03-28T08:10:44Z</time>
      </trkpt>
      <trkpt lat="42.88475" lon="2.72987">
        <ele>147.1</ele>
        <time>2021-03-28T08:10:45Z</time>
      </trkpt>
      <trkpt lat="42.88475" lon="2.72987">
        <ele>147.1</ele>
        <time>2021-03-28T08:10:45Z</time>
      </trkpt>
      <trkpt lat="42.88479" lon="2.72975">
        <ele>147.2</ele>
        <time>2021-03-28T08:10:46Z</time>
      </trkpt>
      <trkpt lat="42.88479" lon="2.72975">
        <ele>147.2</ele>
        <time>2021-03-28T08:10:46Z</time>
      </trkpt>
      <trkpt lat="42.88483" lon="2.72962">
        <ele>147.3</ele>
        <time>2021-03-28T08:10:48Z</time>
      </trkpt>
      <trkpt lat="42.88483" lon="2.72962">
        <ele>147.3</ele>
        <time>2021-03-28T08:10:48Z</time>
      </trkpt>
      <trkpt lat="42.88487" lon="2.72951">
        <ele>147.1</ele>
        <time>2021-03-28T08:10:49Z</time>
      </trkpt>
      <trkpt lat="42.88487" lon="2.72951">
        <ele>147.1</ele>
        <time>2021-03-28T08:10:49Z</time>
      </trkpt>
      <trkpt lat="42.88492" lon="2.72938">
        <ele>146.9</ele>
        <time>2021-03-28T08:10:51Z</time>
      </trkpt>
      <trkpt lat="42.88492" lon="2.72938">
        <ele>146.9</ele>
        <time>2021-03-28T08:10:51Z</time>
      </trkpt>
      <trkpt lat="42.88496" lon="2.72924">
        <ele>146.9</ele>
        <time>2021-03-28T08:10:53Z</time>
      </trkpt>
      <trkpt lat="42.88496" lon="2.72924">
        <ele>146.9</ele>
        <time>2021-03-28T08:10:53Z</time>
      </trkpt>
      <trkpt lat="42.88499" lon="2.72912">
        <ele>147</ele>
        <time>2021-03-28T08:10:54Z</time>
      </trkpt>
      <trkpt lat="42.88499" lon="2.72912">
        <ele>147</ele>
        <time>2021-03-28T08:10:54Z</time>
      </trkpt>
      <trkpt lat="42.88503" lon="2.72899">
        <ele>147</ele>
        <time>2021-03-28T08:10:56Z</time>
      </trkpt>
      <trkpt lat="42.88503" lon="2.72899">
        <ele>147</ele>
        <time>2021-03-28T08:10:56Z</time>
      </trkpt>
      <trkpt lat="42.88505" lon="2.72888">
        <ele>147</ele>
        <time>2021-03-28T08:10:57Z</time>
      </trkpt>
      <trkpt lat="42.88505" lon="2.72888">
        <ele>147</ele>
        <time>2021-03-28T08:10:57Z</time>
      </trkpt>
      <trkpt lat="42.88509" lon="2.72874">
        <ele>147</ele>
        <time>2021-03-28T08:10:59Z</time>
      </trkpt>
      <trkpt lat="42.88509" lon="2.72874">
        <ele>147</ele>
        <time>2021-03-28T08:10:59Z</time>
      </trkpt>
      <trkpt lat="42.88514" lon="2.72859">
        <ele>147.1</ele>
        <time>2021-03-28T08:11:01Z</time>
      </trkpt>
      <trkpt lat="42.88514" lon="2.72859">
        <ele>147.1</ele>
        <time>2021-03-28T08:11:01Z</time>
      </trkpt>
      <trkpt lat="42.8852" lon="2.72846">
        <ele>147.7</ele>
        <time>2021-03-28T08:11:03Z</time>
      </trkpt>
      <trkpt lat="42.8852" lon="2.72846">
        <ele>147.7</ele>
        <time>2021-03-28T08:11:03Z</time>
      </trkpt>
      <trkpt lat="42.88525" lon="2.72833">
        <ele>148.1</ele>
        <time>2021-03-28T08:11:05Z</time>
      </trkpt>
      <trkpt lat="42.88525" lon="2.72833">
        <ele>148.1</ele>
        <time>2021-03-28T08:11:05Z</time>
      </trkpt>
      <trkpt lat="42.8853" lon="2.72822">
        <ele>148</ele>
        <time>2021-03-28T08:11:06Z</time>
      </trkpt>
      <trkpt lat="42.8853" lon="2.72822">
        <ele>148</ele>
        <time>2021-03-28T08:11:06Z</time>
      </trkpt>
      <trkpt lat="42.88535" lon="2.72811">
        <ele>148</ele>
        <time>2021-03-28T08:11:08Z</time>
      </trkpt>
      <trkpt lat="42.88535" lon="2.72811">
        <ele>148</ele>
        <time>2021-03-28T08:11:08Z</time>
      </trkpt>
      <trkpt lat="42.8854" lon="2.72798">
        <ele>148</ele>
        <time>2021-03-28T08:11:10Z</time>
      </trkpt>
      <trkpt lat="42.8854" lon="2.72798">
        <ele>148</ele>
        <time>2021-03-28T08:11:10Z</time>
      </trkpt>
      <trkpt lat="42.88545" lon="2.72786">
        <ele>148</ele>
        <time>2021-03-28T08:11:12Z</time>
      </trkpt>
      <trkpt lat="42.88545" lon="2.72786">
        <ele>148</ele>
        <time>2021-03-28T08:11:12Z</time>
      </trkpt>
      <trkpt lat="42.8855" lon="2.72772">
        <ele>148</ele>
        <time>2021-03-28T08:11:14Z</time>
      </trkpt>
      <trkpt lat="42.8855" lon="2.72772">
        <ele>148</ele>
        <time>2021-03-28T08:11:14Z</time>
      </trkpt>
      <trkpt lat="42.88555" lon="2.72761">
        <ele>148</ele>
        <time>2021-03-28T08:11:15Z</time>
      </trkpt>
      <trkpt lat="42.88555" lon="2.72761">
        <ele>148</ele>
        <time>2021-03-28T08:11:15Z</time>
      </trkpt>
      <trkpt lat="42.88559" lon="2.72752">
        <ele>148</ele>
        <time>2021-03-28T08:11:16Z</time>
      </trkpt>
      <trkpt lat="42.88559" lon="2.72752">
        <ele>148</ele>
        <time>2021-03-28T08:11:16Z</time>
      </trkpt>
      <trkpt lat="42.88564" lon="2.72743">
        <ele>147.8</ele>
        <time>2021-03-28T08:11:17Z</time>
      </trkpt>
      <trkpt lat="42.88564" lon="2.72743">
        <ele>147.8</ele>
        <time>2021-03-28T08:11:17Z</time>
      </trkpt>
      <trkpt lat="42.8857" lon="2.72735">
        <ele>147.7</ele>
        <time>2021-03-28T08:11:19Z</time>
      </trkpt>
      <trkpt lat="42.8857" lon="2.72735">
        <ele>147.7</ele>
        <time>2021-03-28T08:11:19Z</time>
      </trkpt>
      <trkpt lat="42.88576" lon="2.72727">
        <ele>147.8</ele>
        <time>2021-03-28T08:11:20Z</time>
      </trkpt>
      <trkpt lat="42.88576" lon="2.72727">
        <ele>147.8</ele>
        <time>2021-03-28T08:11:20Z</time>
      </trkpt>
      <trkpt lat="42.88581" lon="2.72721">
        <ele>147.9</ele>
        <time>2021-03-28T08:11:21Z</time>
      </trkpt>
      <trkpt lat="42.88581" lon="2.72721">
        <ele>147.9</ele>
        <time>2021-03-28T08:11:21Z</time>
      </trkpt>
      <trkpt lat="42.88587" lon="2.72714">
        <ele>147.7</ele>
        <time>2021-03-28T08:11:23Z</time>
      </trkpt>
      <trkpt lat="42.88587" lon="2.72714">
        <ele>147.7</ele>
        <time>2021-03-28T08:11:23Z</time>
      </trkpt>
      <trkpt lat="42.88595" lon="2.72706">
        <ele>147.6</ele>
        <time>2021-03-28T08:11:25Z</time>
      </trkpt>
      <trkpt lat="42.88595" lon="2.72706">
        <ele>147.6</ele>
        <time>2021-03-28T08:11:25Z</time>
      </trkpt>
      <trkpt lat="42.88601" lon="2.72699">
        <ele>147.7</ele>
        <time>2021-03-28T08:11:26Z</time>
      </trkpt>
      <trkpt lat="42.88601" lon="2.72699">
        <ele>147.7</ele>
        <time>2021-03-28T08:11:26Z</time>
      </trkpt>
      <trkpt lat="42.88607" lon="2.72691">
        <ele>147.9</ele>
        <time>2021-03-28T08:11:28Z</time>
      </trkpt>
      <trkpt lat="42.88607" lon="2.72691">
        <ele>147.9</ele>
        <time>2021-03-28T08:11:28Z</time>
      </trkpt>
      <trkpt lat="42.88613" lon="2.72684">
        <ele>148</ele>
        <time>2021-03-28T08:11:29Z</time>
      </trkpt>
      <trkpt lat="42.88613" lon="2.72684">
        <ele>148</ele>
        <time>2021-03-28T08:11:29Z</time>
      </trkpt>
      <trkpt lat="42.88619" lon="2.72677">
        <ele>148</ele>
        <time>2021-03-28T08:11:31Z</time>
      </trkpt>
      <trkpt lat="42.88619" lon="2.72677">
        <ele>148</ele>
        <time>2021-03-28T08:11:31Z</time>
      </trkpt>
      <trkpt lat="42.88624" lon="2.7267">
        <ele>148</ele>
        <time>2021-03-28T08:11:32Z</time>
      </trkpt>
      <trkpt lat="42.88624" lon="2.7267">
        <ele>148</ele>
        <time>2021-03-28T08:11:32Z</time>
      </trkpt>
      <trkpt lat="42.8863" lon="2.72662">
        <ele>148</ele>
        <time>2021-03-28T08:11:34Z</time>
      </trkpt>
      <trkpt lat="42.8863" lon="2.72662">
        <ele>148</ele>
        <time>2021-03-28T08:11:34Z</time>
      </trkpt>
      <trkpt lat="42.88635" lon="2.72655">
        <ele>148</ele>
        <time>2021-03-28T08:11:35Z</time>
      </trkpt>
      <trkpt lat="42.88635" lon="2.72655">
        <ele>148</ele>
        <time>2021-03-28T08:11:35Z</time>
      </trkpt>
      <trkpt lat="42.8864" lon="2.72647">
        <ele>148</ele>
        <time>2021-03-28T08:11:37Z</time>
      </trkpt>
      <trkpt lat="42.8864" lon="2.72647">
        <ele>148</ele>
        <time>2021-03-28T08:11:37Z</time>
      </trkpt>
      <trkpt lat="42.88645" lon="2.72638">
        <ele>148.2</ele>
        <time>2021-03-28T08:11:39Z</time>
      </trkpt>
      <trkpt lat="42.88645" lon="2.72638">
        <ele>148.2</ele>
        <time>2021-03-28T08:11:39Z</time>
      </trkpt>
      <trkpt lat="42.88649" lon="2.72632">
        <ele>148.5</ele>
        <time>2021-03-28T08:11:40Z</time>
      </trkpt>
      <trkpt lat="42.88649" lon="2.72632">
        <ele>148.5</ele>
        <time>2021-03-28T08:11:40Z</time>
      </trkpt>
      <trkpt lat="42.88654" lon="2.72625">
        <ele>148.8</ele>
        <time>2021-03-28T08:11:42Z</time>
      </trkpt>
      <trkpt lat="42.88654" lon="2.72625">
        <ele>148.8</ele>
        <time>2021-03-28T08:11:42Z</time>
      </trkpt>
      <trkpt lat="42.88658" lon="2.7262">
        <ele>149.2</ele>
        <time>2021-03-28T08:11:43Z</time>
      </trkpt>
      <trkpt lat="42.88658" lon="2.7262">
        <ele>149.2</ele>
        <time>2021-03-28T08:11:43Z</time>
      </trkpt>
      <trkpt lat="42.88663" lon="2.72615">
        <ele>149.6</ele>
        <time>2021-03-28T08:11:45Z</time>
      </trkpt>
      <trkpt lat="42.88663" lon="2.72615">
        <ele>149.6</ele>
        <time>2021-03-28T08:11:45Z</time>
      </trkpt>
      <trkpt lat="42.88667" lon="2.72611">
        <ele>150</ele>
        <time>2021-03-28T08:11:46Z</time>
      </trkpt>
      <trkpt lat="42.88667" lon="2.72611">
        <ele>150</ele>
        <time>2021-03-28T08:11:46Z</time>
      </trkpt>
      <trkpt lat="42.8867" lon="2.72608">
        <ele>150</ele>
        <time>2021-03-28T08:11:48Z</time>
      </trkpt>
      <trkpt lat="42.8867" lon="2.72608">
        <ele>150</ele>
        <time>2021-03-28T08:11:48Z</time>
      </trkpt>
      <trkpt lat="42.88673" lon="2.72604">
        <ele>150</ele>
        <time>2021-03-28T08:11:49Z</time>
      </trkpt>
      <trkpt lat="42.88673" lon="2.72604">
        <ele>150</ele>
        <time>2021-03-28T08:11:49Z</time>
      </trkpt>
      <trkpt lat="42.88676" lon="2.72601">
        <ele>150</ele>
        <time>2021-03-28T08:11:50Z</time>
      </trkpt>
      <trkpt lat="42.88676" lon="2.72601">
        <ele>150</ele>
        <time>2021-03-28T08:11:50Z</time>
      </trkpt>
      <trkpt lat="42.88678" lon="2.72595">
        <ele>150</ele>
        <time>2021-03-28T08:11:52Z</time>
      </trkpt>
      <trkpt lat="42.88678" lon="2.72595">
        <ele>150</ele>
        <time>2021-03-28T08:11:52Z</time>
      </trkpt>
      <trkpt lat="42.8868" lon="2.72588">
        <ele>150</ele>
        <time>2021-03-28T08:11:54Z</time>
      </trkpt>
      <trkpt lat="42.8868" lon="2.72588">
        <ele>150</ele>
        <time>2021-03-28T08:11:54Z</time>
      </trkpt>
      <trkpt lat="42.88681" lon="2.7258">
        <ele>149.9</ele>
        <time>2021-03-28T08:11:56Z</time>
      </trkpt>
      <trkpt lat="42.88681" lon="2.7258">
        <ele>149.9</ele>
        <time>2021-03-28T08:11:56Z</time>
      </trkpt>
      <trkpt lat="42.88682" lon="2.72572">
        <ele>149.8</ele>
        <time>2021-03-28T08:11:57Z</time>
      </trkpt>
      <trkpt lat="42.88682" lon="2.72572">
        <ele>149.8</ele>
        <time>2021-03-28T08:11:57Z</time>
      </trkpt>
      <trkpt lat="42.88682" lon="2.72565">
        <ele>149.7</ele>
        <time>2021-03-28T08:11:58Z</time>
      </trkpt>
      <trkpt lat="42.88682" lon="2.72565">
        <ele>149.7</ele>
        <time>2021-03-28T08:11:58Z</time>
      </trkpt>
      <trkpt lat="42.88682" lon="2.72557">
        <ele>149.6</ele>
        <time>2021-03-28T08:12:00Z</time>
      </trkpt>
      <trkpt lat="42.88682" lon="2.72557">
        <ele>149.6</ele>
        <time>2021-03-28T08:12:00Z</time>
      </trkpt>
      <trkpt lat="42.88681" lon="2.72547">
        <ele>149.4</ele>
        <time>2021-03-28T08:12:02Z</time>
      </trkpt>
      <trkpt lat="42.88681" lon="2.72547">
        <ele>149.4</ele>
        <time>2021-03-28T08:12:02Z</time>
      </trkpt>
      <trkpt lat="42.88681" lon="2.72539">
        <ele>149.2</ele>
        <time>2021-03-28T08:12:03Z</time>
      </trkpt>
      <trkpt lat="42.88681" lon="2.72539">
        <ele>149.2</ele>
        <time>2021-03-28T08:12:03Z</time>
      </trkpt>
      <trkpt lat="42.8868" lon="2.72532">
        <ele>149.1</ele>
        <time>2021-03-28T08:12:04Z</time>
      </trkpt>
      <trkpt lat="42.8868" lon="2.72532">
        <ele>149.1</ele>
        <time>2021-03-28T08:12:04Z</time>
      </trkpt>
      <trkpt lat="42.8868" lon="2.72524">
        <ele>148.9</ele>
        <time>2021-03-28T08:12:06Z</time>
      </trkpt>
      <trkpt lat="42.8868" lon="2.72524">
        <ele>148.9</ele>
        <time>2021-03-28T08:12:06Z</time>
      </trkpt>
      <trkpt lat="42.8868" lon="2.72516">
        <ele>148.6</ele>
        <time>2021-03-28T08:12:07Z</time>
      </trkpt>
      <trkpt lat="42.8868" lon="2.72516">
        <ele>148.6</ele>
        <time>2021-03-28T08:12:07Z</time>
      </trkpt>
      <trkpt lat="42.8868" lon="2.72508">
        <ele>148.3</ele>
        <time>2021-03-28T08:12:09Z</time>
      </trkpt>
      <trkpt lat="42.8868" lon="2.72508">
        <ele>148.3</ele>
        <time>2021-03-28T08:12:09Z</time>
      </trkpt>
      <trkpt lat="42.8868" lon="2.72501">
        <ele>148</ele>
        <time>2021-03-28T08:12:10Z</time>
      </trkpt>
      <trkpt lat="42.8868" lon="2.72501">
        <ele>148</ele>
        <time>2021-03-28T08:12:10Z</time>
      </trkpt>
      <trkpt lat="42.8868" lon="2.72492">
        <ele>147.1</ele>
        <time>2021-03-28T08:12:12Z</time>
      </trkpt>
      <trkpt lat="42.8868" lon="2.72492">
        <ele>147.1</ele>
        <time>2021-03-28T08:12:12Z</time>
      </trkpt>
      <trkpt lat="42.8868" lon="2.72484">
        <ele>146.3</ele>
        <time>2021-03-28T08:12:13Z</time>
      </trkpt>
      <trkpt lat="42.8868" lon="2.72484">
        <ele>146.3</ele>
        <time>2021-03-28T08:12:13Z</time>
      </trkpt>
      <trkpt lat="42.8868" lon="2.72475">
        <ele>145.3</ele>
        <time>2021-03-28T08:12:15Z</time>
      </trkpt>
      <trkpt lat="42.8868" lon="2.72475">
        <ele>145.3</ele>
        <time>2021-03-28T08:12:15Z</time>
      </trkpt>
      <trkpt lat="42.8868" lon="2.72467">
        <ele>145.4</ele>
        <time>2021-03-28T08:12:16Z</time>
      </trkpt>
      <trkpt lat="42.8868" lon="2.72467">
        <ele>145.4</ele>
        <time>2021-03-28T08:12:16Z</time>
      </trkpt>
      <trkpt lat="42.8868" lon="2.7246">
        <ele>145.9</ele>
        <time>2021-03-28T08:12:17Z</time>
      </trkpt>
      <trkpt lat="42.8868" lon="2.7246">
        <ele>145.9</ele>
        <time>2021-03-28T08:12:17Z</time>
      </trkpt>
      <trkpt lat="42.8868" lon="2.72451">
        <ele>146.6</ele>
        <time>2021-03-28T08:12:19Z</time>
      </trkpt>
      <trkpt lat="42.8868" lon="2.72451">
        <ele>146.6</ele>
        <time>2021-03-28T08:12:19Z</time>
      </trkpt>
      <trkpt lat="42.8868" lon="2.7244">
        <ele>147.2</ele>
        <time>2021-03-28T08:12:21Z</time>
      </trkpt>
      <trkpt lat="42.8868" lon="2.7244">
        <ele>147.2</ele>
        <time>2021-03-28T08:12:21Z</time>
      </trkpt>
      <trkpt lat="42.8868" lon="2.72431">
        <ele>147.7</ele>
        <time>2021-03-28T08:12:22Z</time>
      </trkpt>
      <trkpt lat="42.8868" lon="2.72431">
        <ele>147.7</ele>
        <time>2021-03-28T08:12:22Z</time>
      </trkpt>
      <trkpt lat="42.8868" lon="2.72422">
        <ele>148.2</ele>
        <time>2021-03-28T08:12:23Z</time>
      </trkpt>
      <trkpt lat="42.8868" lon="2.72422">
        <ele>148.2</ele>
        <time>2021-03-28T08:12:23Z</time>
      </trkpt>
      <trkpt lat="42.8868" lon="2.72412">
        <ele>148.6</ele>
        <time>2021-03-28T08:12:25Z</time>
      </trkpt>
      <trkpt lat="42.8868" lon="2.72412">
        <ele>148.6</ele>
        <time>2021-03-28T08:12:25Z</time>
      </trkpt>
      <trkpt lat="42.8868" lon="2.72401">
        <ele>149</ele>
        <time>2021-03-28T08:12:27Z</time>
      </trkpt>
      <trkpt lat="42.8868" lon="2.72401">
        <ele>149</ele>
        <time>2021-03-28T08:12:27Z</time>
      </trkpt>
      <trkpt lat="42.8868" lon="2.72392">
        <ele>149.4</ele>
        <time>2021-03-28T08:12:28Z</time>
      </trkpt>
      <trkpt lat="42.8868" lon="2.72392">
        <ele>149.4</ele>
        <time>2021-03-28T08:12:28Z</time>
      </trkpt>
      <trkpt lat="42.8868" lon="2.72382">
        <ele>150.5</ele>
        <time>2021-03-28T08:12:30Z</time>
      </trkpt>
      <trkpt lat="42.8868" lon="2.72382">
        <ele>150.5</ele>
        <time>2021-03-28T08:12:30Z</time>
      </trkpt>
      <trkpt lat="42.88681" lon="2.72373">
        <ele>152.2</ele>
        <time>2021-03-28T08:12:32Z</time>
      </trkpt>
      <trkpt lat="42.88681" lon="2.72373">
        <ele>152.2</ele>
        <time>2021-03-28T08:12:32Z</time>
      </trkpt>
      <trkpt lat="42.88681" lon="2.72364">
        <ele>153.5</ele>
        <time>2021-03-28T08:12:33Z</time>
      </trkpt>
      <trkpt lat="42.88681" lon="2.72364">
        <ele>153.5</ele>
        <time>2021-03-28T08:12:33Z</time>
      </trkpt>
      <trkpt lat="42.88681" lon="2.72355">
        <ele>154.2</ele>
        <time>2021-03-28T08:12:35Z</time>
      </trkpt>
      <trkpt lat="42.88681" lon="2.72355">
        <ele>154.2</ele>
        <time>2021-03-28T08:12:35Z</time>
      </trkpt>
      <trkpt lat="42.88682" lon="2.72346">
        <ele>154.6</ele>
        <time>2021-03-28T08:12:37Z</time>
      </trkpt>
      <trkpt lat="42.88682" lon="2.72346">
        <ele>154.6</ele>
        <time>2021-03-28T08:12:37Z</time>
      </trkpt>
      <trkpt lat="42.88683" lon="2.72338">
        <ele>154.8</ele>
        <time>2021-03-28T08:12:38Z</time>
      </trkpt>
      <trkpt lat="42.88683" lon="2.72338">
        <ele>154.8</ele>
        <time>2021-03-28T08:12:38Z</time>
      </trkpt>
      <trkpt lat="42.88683" lon="2.72331">
        <ele>155</ele>
        <time>2021-03-28T08:12:39Z</time>
      </trkpt>
      <trkpt lat="42.88683" lon="2.72331">
        <ele>155</ele>
        <time>2021-03-28T08:12:39Z</time>
      </trkpt>
      <trkpt lat="42.88684" lon="2.72325">
        <ele>155</ele>
        <time>2021-03-28T08:12:41Z</time>
      </trkpt>
      <trkpt lat="42.88684" lon="2.72325">
        <ele>155</ele>
        <time>2021-03-28T08:12:41Z</time>
      </trkpt>
      <trkpt lat="42.88686" lon="2.72318">
        <ele>155</ele>
        <time>2021-03-28T08:12:43Z</time>
      </trkpt>
      <trkpt lat="42.88686" lon="2.72318">
        <ele>155</ele>
        <time>2021-03-28T08:12:43Z</time>
      </trkpt>
      <trkpt lat="42.88688" lon="2.72311">
        <ele>155</ele>
        <time>2021-03-28T08:12:45Z</time>
      </trkpt>
      <trkpt lat="42.88688" lon="2.72311">
        <ele>155</ele>
        <time>2021-03-28T08:12:45Z</time>
      </trkpt>
      <trkpt lat="42.88689" lon="2.72305">
        <ele>155</ele>
        <time>2021-03-28T08:12:46Z</time>
      </trkpt>
      <trkpt lat="42.88689" lon="2.72305">
        <ele>155</ele>
        <time>2021-03-28T08:12:46Z</time>
      </trkpt>
      <trkpt lat="42.8869" lon="2.72299">
        <ele>155.2</ele>
        <time>2021-03-28T08:12:47Z</time>
      </trkpt>
      <trkpt lat="42.8869" lon="2.72299">
        <ele>155.2</ele>
        <time>2021-03-28T08:12:47Z</time>
      </trkpt>
      <trkpt lat="42.88691" lon="2.72293">
        <ele>155.5</ele>
        <time>2021-03-28T08:12:49Z</time>
      </trkpt>
      <trkpt lat="42.88691" lon="2.72293">
        <ele>155.5</ele>
        <time>2021-03-28T08:12:49Z</time>
      </trkpt>
      <trkpt lat="42.88692" lon="2.72287">
        <ele>155.7</ele>
        <time>2021-03-28T08:12:50Z</time>
      </trkpt>
      <trkpt lat="42.88692" lon="2.72287">
        <ele>155.7</ele>
        <time>2021-03-28T08:12:50Z</time>
      </trkpt>
      <trkpt lat="42.88693" lon="2.72281">
        <ele>155.9</ele>
        <time>2021-03-28T08:12:51Z</time>
      </trkpt>
      <trkpt lat="42.88693" lon="2.72281">
        <ele>155.9</ele>
        <time>2021-03-28T08:12:51Z</time>
      </trkpt>
      <trkpt lat="42.88695" lon="2.72273">
        <ele>156.2</ele>
        <time>2021-03-28T08:12:53Z</time>
      </trkpt>
      <trkpt lat="42.88695" lon="2.72273">
        <ele>156.2</ele>
        <time>2021-03-28T08:12:53Z</time>
      </trkpt>
      <trkpt lat="42.88697" lon="2.72266">
        <ele>156.5</ele>
        <time>2021-03-28T08:12:54Z</time>
      </trkpt>
      <trkpt lat="42.88697" lon="2.72266">
        <ele>156.5</ele>
        <time>2021-03-28T08:12:54Z</time>
      </trkpt>
      <trkpt lat="42.88699" lon="2.72259">
        <ele>156.7</ele>
        <time>2021-03-28T08:12:55Z</time>
      </trkpt>
      <trkpt lat="42.88699" lon="2.72259">
        <ele>156.7</ele>
        <time>2021-03-28T08:12:55Z</time>
      </trkpt>
      <trkpt lat="42.88701" lon="2.72252">
        <ele>156.9</ele>
        <time>2021-03-28T08:12:57Z</time>
      </trkpt>
      <trkpt lat="42.88701" lon="2.72252">
        <ele>156.9</ele>
        <time>2021-03-28T08:12:57Z</time>
      </trkpt>
      <trkpt lat="42.88704" lon="2.72244">
        <ele>157.1</ele>
        <time>2021-03-28T08:12:59Z</time>
      </trkpt>
      <trkpt lat="42.88704" lon="2.72244">
        <ele>157.1</ele>
        <time>2021-03-28T08:12:59Z</time>
      </trkpt>
      <trkpt lat="42.88707" lon="2.72235">
        <ele>157.2</ele>
        <time>2021-03-28T08:13:01Z</time>
      </trkpt>
      <trkpt lat="42.88707" lon="2.72235">
        <ele>157.2</ele>
        <time>2021-03-28T08:13:01Z</time>
      </trkpt>
      <trkpt lat="42.8871" lon="2.72227">
        <ele>157.5</ele>
        <time>2021-03-28T08:13:02Z</time>
      </trkpt>
      <trkpt lat="42.8871" lon="2.72227">
        <ele>157.5</ele>
        <time>2021-03-28T08:13:02Z</time>
      </trkpt>
      <trkpt lat="42.88713" lon="2.7222">
        <ele>157.7</ele>
        <time>2021-03-28T08:13:04Z</time>
      </trkpt>
      <trkpt lat="42.88713" lon="2.7222">
        <ele>157.7</ele>
        <time>2021-03-28T08:13:04Z</time>
      </trkpt>
      <trkpt lat="42.88717" lon="2.72211">
        <ele>157.8</ele>
        <time>2021-03-28T08:13:06Z</time>
      </trkpt>
      <trkpt lat="42.88717" lon="2.72211">
        <ele>157.8</ele>
        <time>2021-03-28T08:13:06Z</time>
      </trkpt>
      <trkpt lat="42.88722" lon="2.72202">
        <ele>158</ele>
        <time>2021-03-28T08:13:08Z</time>
      </trkpt>
      <trkpt lat="42.88722" lon="2.72202">
        <ele>158</ele>
        <time>2021-03-28T08:13:08Z</time>
      </trkpt>
      <trkpt lat="42.88727" lon="2.72192">
        <ele>158.2</ele>
        <time>2021-03-28T08:13:10Z</time>
      </trkpt>
      <trkpt lat="42.88727" lon="2.72192">
        <ele>158.2</ele>
        <time>2021-03-28T08:13:10Z</time>
      </trkpt>
      <trkpt lat="42.88731" lon="2.72183">
        <ele>158.3</ele>
        <time>2021-03-28T08:13:12Z</time>
      </trkpt>
      <trkpt lat="42.88731" lon="2.72183">
        <ele>158.3</ele>
        <time>2021-03-28T08:13:12Z</time>
      </trkpt>
      <trkpt lat="42.88736" lon="2.72174">
        <ele>158.5</ele>
        <time>2021-03-28T08:13:14Z</time>
      </trkpt>
      <trkpt lat="42.88736" lon="2.72174">
        <ele>158.5</ele>
        <time>2021-03-28T08:13:14Z</time>
      </trkpt>
      <trkpt lat="42.88741" lon="2.72164">
        <ele>158.6</ele>
        <time>2021-03-28T08:13:16Z</time>
      </trkpt>
      <trkpt lat="42.88741" lon="2.72164">
        <ele>158.6</ele>
        <time>2021-03-28T08:13:16Z</time>
      </trkpt>
      <trkpt lat="42.88745" lon="2.72157">
        <ele>158.5</ele>
        <time>2021-03-28T08:13:17Z</time>
      </trkpt>
      <trkpt lat="42.88745" lon="2.72157">
        <ele>158.5</ele>
        <time>2021-03-28T08:13:17Z</time>
      </trkpt>
      <trkpt lat="42.8875" lon="2.72148">
        <ele>158.3</ele>
        <time>2021-03-28T08:13:19Z</time>
      </trkpt>
      <trkpt lat="42.8875" lon="2.72148">
        <ele>158.3</ele>
        <time>2021-03-28T08:13:19Z</time>
      </trkpt>
      <trkpt lat="42.88754" lon="2.72138">
        <ele>158.1</ele>
        <time>2021-03-28T08:13:21Z</time>
      </trkpt>
      <trkpt lat="42.88754" lon="2.72138">
        <ele>158.1</ele>
        <time>2021-03-28T08:13:21Z</time>
      </trkpt>
      <trkpt lat="42.88758" lon="2.72128">
        <ele>158.3</ele>
        <time>2021-03-28T08:13:23Z</time>
      </trkpt>
      <trkpt lat="42.88758" lon="2.72128">
        <ele>158.3</ele>
        <time>2021-03-28T08:13:23Z</time>
      </trkpt>
      <trkpt lat="42.88762" lon="2.7212">
        <ele>158.4</ele>
        <time>2021-03-28T08:13:24Z</time>
      </trkpt>
      <trkpt lat="42.88762" lon="2.7212">
        <ele>158.4</ele>
        <time>2021-03-28T08:13:24Z</time>
      </trkpt>
      <trkpt lat="42.88766" lon="2.72112">
        <ele>158.6</ele>
        <time>2021-03-28T08:13:26Z</time>
      </trkpt>
      <trkpt lat="42.88766" lon="2.72112">
        <ele>158.6</ele>
        <time>2021-03-28T08:13:26Z</time>
      </trkpt>
      <trkpt lat="42.88771" lon="2.72103">
        <ele>158.5</ele>
        <time>2021-03-28T08:13:28Z</time>
      </trkpt>
      <trkpt lat="42.88771" lon="2.72103">
        <ele>158.5</ele>
        <time>2021-03-28T08:13:28Z</time>
      </trkpt>
      <trkpt lat="42.88775" lon="2.72095">
        <ele>158.4</ele>
        <time>2021-03-28T08:13:29Z</time>
      </trkpt>
      <trkpt lat="42.88775" lon="2.72095">
        <ele>158.4</ele>
        <time>2021-03-28T08:13:29Z</time>
      </trkpt>
      <trkpt lat="42.88779" lon="2.72086">
        <ele>158.2</ele>
        <time>2021-03-28T08:13:31Z</time>
      </trkpt>
      <trkpt lat="42.88779" lon="2.72086">
        <ele>158.2</ele>
        <time>2021-03-28T08:13:31Z</time>
      </trkpt>
      <trkpt lat="42.88783" lon="2.72077">
        <ele>158.5</ele>
        <time>2021-03-28T08:13:33Z</time>
      </trkpt>
      <trkpt lat="42.88783" lon="2.72077">
        <ele>158.5</ele>
        <time>2021-03-28T08:13:33Z</time>
      </trkpt>
      <trkpt lat="42.88787" lon="2.72068">
        <ele>158.9</ele>
        <time>2021-03-28T08:13:35Z</time>
      </trkpt>
      <trkpt lat="42.88787" lon="2.72068">
        <ele>158.9</ele>
        <time>2021-03-28T08:13:35Z</time>
      </trkpt>
      <trkpt lat="42.88792" lon="2.72058">
        <ele>159</ele>
        <time>2021-03-28T08:13:37Z</time>
      </trkpt>
      <trkpt lat="42.88792" lon="2.72058">
        <ele>159</ele>
        <time>2021-03-28T08:13:37Z</time>
      </trkpt>
      <trkpt lat="42.88797" lon="2.72049">
        <ele>159</ele>
        <time>2021-03-28T08:13:39Z</time>
      </trkpt>
      <trkpt lat="42.88797" lon="2.72049">
        <ele>159</ele>
        <time>2021-03-28T08:13:39Z</time>
      </trkpt>
      <trkpt lat="42.88801" lon="2.7204">
        <ele>159</ele>
        <time>2021-03-28T08:13:40Z</time>
      </trkpt>
      <trkpt lat="42.88801" lon="2.7204">
        <ele>159</ele>
        <time>2021-03-28T08:13:40Z</time>
      </trkpt>
      <trkpt lat="42.88805" lon="2.72031">
        <ele>159</ele>
        <time>2021-03-28T08:13:42Z</time>
      </trkpt>
      <trkpt lat="42.88805" lon="2.72031">
        <ele>159</ele>
        <time>2021-03-28T08:13:42Z</time>
      </trkpt>
      <trkpt lat="42.88808" lon="2.72023">
        <ele>159.1</ele>
        <time>2021-03-28T08:13:43Z</time>
      </trkpt>
      <trkpt lat="42.88808" lon="2.72023">
        <ele>159.1</ele>
        <time>2021-03-28T08:13:43Z</time>
      </trkpt>
      <trkpt lat="42.88812" lon="2.72015">
        <ele>159.2</ele>
        <time>2021-03-28T08:13:44Z</time>
      </trkpt>
      <trkpt lat="42.88812" lon="2.72015">
        <ele>159.2</ele>
        <time>2021-03-28T08:13:44Z</time>
      </trkpt>
      <trkpt lat="42.88815" lon="2.72007">
        <ele>159.3</ele>
        <time>2021-03-28T08:13:46Z</time>
      </trkpt>
      <trkpt lat="42.88815" lon="2.72007">
        <ele>159.3</ele>
        <time>2021-03-28T08:13:46Z</time>
      </trkpt>
      <trkpt lat="42.88816" lon="2.71997">
        <ele>159.4</ele>
        <time>2021-03-28T08:13:48Z</time>
      </trkpt>
      <trkpt lat="42.88816" lon="2.71997">
        <ele>159.4</ele>
        <time>2021-03-28T08:13:48Z</time>
      </trkpt>
      <trkpt lat="42.88814" lon="2.71987">
        <ele>159.3</ele>
        <time>2021-03-28T08:13:50Z</time>
      </trkpt>
      <trkpt lat="42.88814" lon="2.71987">
        <ele>159.3</ele>
        <time>2021-03-28T08:13:50Z</time>
      </trkpt>
      <trkpt lat="42.88812" lon="2.71979">
        <ele>159.2</ele>
        <time>2021-03-28T08:13:51Z</time>
      </trkpt>
      <trkpt lat="42.88812" lon="2.71979">
        <ele>159.2</ele>
        <time>2021-03-28T08:13:51Z</time>
      </trkpt>
      <trkpt lat="42.88809" lon="2.71972">
        <ele>159.1</ele>
        <time>2021-03-28T08:13:52Z</time>
      </trkpt>
      <trkpt lat="42.88809" lon="2.71972">
        <ele>159.1</ele>
        <time>2021-03-28T08:13:52Z</time>
      </trkpt>
      <trkpt lat="42.88806" lon="2.71965">
        <ele>159</ele>
        <time>2021-03-28T08:13:53Z</time>
      </trkpt>
      <trkpt lat="42.88806" lon="2.71965">
        <ele>159</ele>
        <time>2021-03-28T08:13:53Z</time>
      </trkpt>
      <trkpt lat="42.88805" lon="2.71956">
        <ele>159</ele>
        <time>2021-03-28T08:13:55Z</time>
      </trkpt>
      <trkpt lat="42.88805" lon="2.71956">
        <ele>159</ele>
        <time>2021-03-28T08:13:55Z</time>
      </trkpt>
      <trkpt lat="42.88806" lon="2.71945">
        <ele>159</ele>
        <time>2021-03-28T08:13:57Z</time>
      </trkpt>
      <trkpt lat="42.88806" lon="2.71945">
        <ele>159</ele>
        <time>2021-03-28T08:13:57Z</time>
      </trkpt>
      <trkpt lat="42.88808" lon="2.71935">
        <ele>159.4</ele>
        <time>2021-03-28T08:13:59Z</time>
      </trkpt>
      <trkpt lat="42.88808" lon="2.71935">
        <ele>159.4</ele>
        <time>2021-03-28T08:13:59Z</time>
      </trkpt>
      <trkpt lat="42.88811" lon="2.71923">
        <ele>160</ele>
        <time>2021-03-28T08:14:01Z</time>
      </trkpt>
      <trkpt lat="42.88811" lon="2.71923">
        <ele>160</ele>
        <time>2021-03-28T08:14:01Z</time>
      </trkpt>
      <trkpt lat="42.88814" lon="2.71912">
        <ele>160.4</ele>
        <time>2021-03-28T08:14:03Z</time>
      </trkpt>
      <trkpt lat="42.88814" lon="2.71912">
        <ele>160.4</ele>
        <time>2021-03-28T08:14:03Z</time>
      </trkpt>
      <trkpt lat="42.88817" lon="2.71901">
        <ele>160.8</ele>
        <time>2021-03-28T08:14:05Z</time>
      </trkpt>
      <trkpt lat="42.88817" lon="2.71901">
        <ele>160.8</ele>
        <time>2021-03-28T08:14:05Z</time>
      </trkpt>
      <trkpt lat="42.8882" lon="2.7189">
        <ele>161</ele>
        <time>2021-03-28T08:14:07Z</time>
      </trkpt>
      <trkpt lat="42.8882" lon="2.7189">
        <ele>161</ele>
        <time>2021-03-28T08:14:07Z</time>
      </trkpt>
      <trkpt lat="42.88823" lon="2.71879">
        <ele>161.2</ele>
        <time>2021-03-28T08:14:09Z</time>
      </trkpt>
      <trkpt lat="42.88823" lon="2.71879">
        <ele>161.2</ele>
        <time>2021-03-28T08:14:09Z</time>
      </trkpt>
      <trkpt lat="42.88824" lon="2.7187">
        <ele>161.4</ele>
        <time>2021-03-28T08:14:10Z</time>
      </trkpt>
      <trkpt lat="42.88824" lon="2.7187">
        <ele>161.4</ele>
        <time>2021-03-28T08:14:10Z</time>
      </trkpt>
      <trkpt lat="42.88825" lon="2.71863">
        <ele>161.7</ele>
        <time>2021-03-28T08:14:11Z</time>
      </trkpt>
      <trkpt lat="42.88825" lon="2.71863">
        <ele>161.7</ele>
        <time>2021-03-28T08:14:11Z</time>
      </trkpt>
      <trkpt lat="42.88826" lon="2.71853">
        <ele>161.7</ele>
        <time>2021-03-28T08:14:13Z</time>
      </trkpt>
      <trkpt lat="42.88826" lon="2.71853">
        <ele>161.7</ele>
        <time>2021-03-28T08:14:13Z</time>
      </trkpt>
      <trkpt lat="42.88829" lon="2.71846">
        <ele>161.8</ele>
        <time>2021-03-28T08:14:15Z</time>
      </trkpt>
      <trkpt lat="42.88829" lon="2.71846">
        <ele>161.8</ele>
        <time>2021-03-28T08:14:15Z</time>
      </trkpt>
      <trkpt lat="42.88833" lon="2.71842">
        <ele>162</ele>
        <time>2021-03-28T08:14:17Z</time>
      </trkpt>
      <trkpt lat="42.88833" lon="2.71842">
        <ele>162</ele>
        <time>2021-03-28T08:14:17Z</time>
      </trkpt>
      <trkpt lat="42.88838" lon="2.71837">
        <ele>162.2</ele>
        <time>2021-03-28T08:14:19Z</time>
      </trkpt>
      <trkpt lat="42.88838" lon="2.71837">
        <ele>162.2</ele>
        <time>2021-03-28T08:14:19Z</time>
      </trkpt>
      <trkpt lat="42.88844" lon="2.71831">
        <ele>162.4</ele>
        <time>2021-03-28T08:14:21Z</time>
      </trkpt>
      <trkpt lat="42.88844" lon="2.71831">
        <ele>162.4</ele>
        <time>2021-03-28T08:14:21Z</time>
      </trkpt>
      <trkpt lat="42.88849" lon="2.71825">
        <ele>162.6</ele>
        <time>2021-03-28T08:14:22Z</time>
      </trkpt>
      <trkpt lat="42.88849" lon="2.71825">
        <ele>162.6</ele>
        <time>2021-03-28T08:14:22Z</time>
      </trkpt>
      <trkpt lat="42.88852" lon="2.71819">
        <ele>162.7</ele>
        <time>2021-03-28T08:14:23Z</time>
      </trkpt>
      <trkpt lat="42.88852" lon="2.71819">
        <ele>162.7</ele>
        <time>2021-03-28T08:14:23Z</time>
      </trkpt>
      <trkpt lat="42.88856" lon="2.71812">
        <ele>162.8</ele>
        <time>2021-03-28T08:14:25Z</time>
      </trkpt>
      <trkpt lat="42.88856" lon="2.71812">
        <ele>162.8</ele>
        <time>2021-03-28T08:14:25Z</time>
      </trkpt>
      <trkpt lat="42.88859" lon="2.71805">
        <ele>162.9</ele>
        <time>2021-03-28T08:14:26Z</time>
      </trkpt>
      <trkpt lat="42.88859" lon="2.71805">
        <ele>162.9</ele>
        <time>2021-03-28T08:14:26Z</time>
      </trkpt>
      <trkpt lat="42.88862" lon="2.71796">
        <ele>163</ele>
        <time>2021-03-28T08:14:28Z</time>
      </trkpt>
      <trkpt lat="42.88862" lon="2.71796">
        <ele>163</ele>
        <time>2021-03-28T08:14:28Z</time>
      </trkpt>
      <trkpt lat="42.88863" lon="2.71787">
        <ele>163</ele>
        <time>2021-03-28T08:14:30Z</time>
      </trkpt>
      <trkpt lat="42.88863" lon="2.71787">
        <ele>163</ele>
        <time>2021-03-28T08:14:30Z</time>
      </trkpt>
      <trkpt lat="42.88863" lon="2.7178">
        <ele>163.1</ele>
        <time>2021-03-28T08:14:31Z</time>
      </trkpt>
      <trkpt lat="42.88863" lon="2.7178">
        <ele>163.1</ele>
        <time>2021-03-28T08:14:31Z</time>
      </trkpt>
      <trkpt lat="42.88861" lon="2.71773">
        <ele>163.2</ele>
        <time>2021-03-28T08:14:32Z</time>
      </trkpt>
      <trkpt lat="42.88861" lon="2.71773">
        <ele>163.2</ele>
        <time>2021-03-28T08:14:32Z</time>
      </trkpt>
      <trkpt lat="42.88858" lon="2.71766">
        <ele>163.4</ele>
        <time>2021-03-28T08:14:34Z</time>
      </trkpt>
      <trkpt lat="42.88858" lon="2.71766">
        <ele>163.4</ele>
        <time>2021-03-28T08:14:34Z</time>
      </trkpt>
      <trkpt lat="42.88854" lon="2.71761">
        <ele>163.4</ele>
        <time>2021-03-28T08:14:35Z</time>
      </trkpt>
      <trkpt lat="42.88854" lon="2.71761">
        <ele>163.4</ele>
        <time>2021-03-28T08:14:35Z</time>
      </trkpt>
      <trkpt lat="42.88849" lon="2.71758">
        <ele>163.4</ele>
        <time>2021-03-28T08:14:37Z</time>
      </trkpt>
      <trkpt lat="42.88849" lon="2.71758">
        <ele>163.4</ele>
        <time>2021-03-28T08:14:37Z</time>
      </trkpt>
      <trkpt lat="42.88841" lon="2.71755">
        <ele>163.2</ele>
        <time>2021-03-28T08:14:39Z</time>
      </trkpt>
      <trkpt lat="42.88841" lon="2.71755">
        <ele>163.2</ele>
        <time>2021-03-28T08:14:39Z</time>
      </trkpt>
      <trkpt lat="42.88833" lon="2.71753">
        <ele>163</ele>
        <time>2021-03-28T08:14:41Z</time>
      </trkpt>
      <trkpt lat="42.88833" lon="2.71753">
        <ele>163</ele>
        <time>2021-03-28T08:14:41Z</time>
      </trkpt>
      <trkpt lat="42.88824" lon="2.71752">
        <ele>163</ele>
        <time>2021-03-28T08:14:43Z</time>
      </trkpt>
      <trkpt lat="42.88824" lon="2.71752">
        <ele>163</ele>
        <time>2021-03-28T08:14:43Z</time>
      </trkpt>
      <trkpt lat="42.88816" lon="2.71751">
        <ele>163</ele>
        <time>2021-03-28T08:14:44Z</time>
      </trkpt>
      <trkpt lat="42.88816" lon="2.71751">
        <ele>163</ele>
        <time>2021-03-28T08:14:44Z</time>
      </trkpt>
      <trkpt lat="42.88808" lon="2.71748">
        <ele>163.1</ele>
        <time>2021-03-28T08:14:46Z</time>
      </trkpt>
      <trkpt lat="42.88808" lon="2.71748">
        <ele>163.1</ele>
        <time>2021-03-28T08:14:46Z</time>
      </trkpt>
      <trkpt lat="42.888" lon="2.71746">
        <ele>163.1</ele>
        <time>2021-03-28T08:14:47Z</time>
      </trkpt>
      <trkpt lat="42.888" lon="2.71746">
        <ele>163.1</ele>
        <time>2021-03-28T08:14:47Z</time>
      </trkpt>
      <trkpt lat="42.88792" lon="2.71742">
        <ele>163.2</ele>
        <time>2021-03-28T08:14:49Z</time>
      </trkpt>
      <trkpt lat="42.88792" lon="2.71742">
        <ele>163.2</ele>
        <time>2021-03-28T08:14:49Z</time>
      </trkpt>
      <trkpt lat="42.88785" lon="2.71738">
        <ele>163.1</ele>
        <time>2021-03-28T08:14:50Z</time>
      </trkpt>
      <trkpt lat="42.88785" lon="2.71738">
        <ele>163.1</ele>
        <time>2021-03-28T08:14:50Z</time>
      </trkpt>
      <trkpt lat="42.88778" lon="2.71735">
        <ele>163</ele>
        <time>2021-03-28T08:14:51Z</time>
      </trkpt>
      <trkpt lat="42.88778" lon="2.71735">
        <ele>163</ele>
        <time>2021-03-28T08:14:51Z</time>
      </trkpt>
      <trkpt lat="42.8877" lon="2.71731">
        <ele>162.9</ele>
        <time>2021-03-28T08:14:53Z</time>
      </trkpt>
      <trkpt lat="42.8877" lon="2.71731">
        <ele>162.9</ele>
        <time>2021-03-28T08:14:53Z</time>
      </trkpt>
      <trkpt lat="42.8876" lon="2.71726">
        <ele>162.9</ele>
        <time>2021-03-28T08:14:55Z</time>
      </trkpt>
      <trkpt lat="42.8876" lon="2.71726">
        <ele>162.9</ele>
        <time>2021-03-28T08:14:55Z</time>
      </trkpt>
      <trkpt lat="42.8875" lon="2.71723">
        <ele>163</ele>
        <time>2021-03-28T08:14:57Z</time>
      </trkpt>
      <trkpt lat="42.8875" lon="2.71723">
        <ele>163</ele>
        <time>2021-03-28T08:14:57Z</time>
      </trkpt>
      <trkpt lat="42.8874" lon="2.7172">
        <ele>162.7</ele>
        <time>2021-03-28T08:14:58Z</time>
      </trkpt>
      <trkpt lat="42.8874" lon="2.7172">
        <ele>162.7</ele>
        <time>2021-03-28T08:14:58Z</time>
      </trkpt>
      <trkpt lat="42.88729" lon="2.71719">
        <ele>162.3</ele>
        <time>2021-03-28T08:15:00Z</time>
      </trkpt>
      <trkpt lat="42.88729" lon="2.71719">
        <ele>162.3</ele>
        <time>2021-03-28T08:15:00Z</time>
      </trkpt>
      <trkpt lat="42.88718" lon="2.71717">
        <ele>161.9</ele>
        <time>2021-03-28T08:15:02Z</time>
      </trkpt>
      <trkpt lat="42.88718" lon="2.71717">
        <ele>161.9</ele>
        <time>2021-03-28T08:15:02Z</time>
      </trkpt>
      <trkpt lat="42.88708" lon="2.71716">
        <ele>161.6</ele>
        <time>2021-03-28T08:15:03Z</time>
      </trkpt>
      <trkpt lat="42.88708" lon="2.71716">
        <ele>161.6</ele>
        <time>2021-03-28T08:15:03Z</time>
      </trkpt>
      <trkpt lat="42.88697" lon="2.71714">
        <ele>161.4</ele>
        <time>2021-03-28T08:15:05Z</time>
      </trkpt>
      <trkpt lat="42.88697" lon="2.71714">
        <ele>161.4</ele>
        <time>2021-03-28T08:15:05Z</time>
      </trkpt>
      <trkpt lat="42.88688" lon="2.71712">
        <ele>161.2</ele>
        <time>2021-03-28T08:15:06Z</time>
      </trkpt>
      <trkpt lat="42.88688" lon="2.71712">
        <ele>161.2</ele>
        <time>2021-03-28T08:15:06Z</time>
      </trkpt>
      <trkpt lat="42.8868" lon="2.71709">
        <ele>161.2</ele>
        <time>2021-03-28T08:15:07Z</time>
      </trkpt>
      <trkpt lat="42.8868" lon="2.71709">
        <ele>161.2</ele>
        <time>2021-03-28T08:15:07Z</time>
      </trkpt>
      <trkpt lat="42.88673" lon="2.71707">
        <ele>161.2</ele>
        <time>2021-03-28T08:15:08Z</time>
      </trkpt>
      <trkpt lat="42.88673" lon="2.71707">
        <ele>161.2</ele>
        <time>2021-03-28T08:15:08Z</time>
      </trkpt>
      <trkpt lat="42.88666" lon="2.71704">
        <ele>161.3</ele>
        <time>2021-03-28T08:15:09Z</time>
      </trkpt>
      <trkpt lat="42.88666" lon="2.71704">
        <ele>161.3</ele>
        <time>2021-03-28T08:15:09Z</time>
      </trkpt>
      <trkpt lat="42.8866" lon="2.71701">
        <ele>161.5</ele>
        <time>2021-03-28T08:15:10Z</time>
      </trkpt>
      <trkpt lat="42.8866" lon="2.71701">
        <ele>161.5</ele>
        <time>2021-03-28T08:15:10Z</time>
      </trkpt>
      <trkpt lat="42.88651" lon="2.71697">
        <ele>161.8</ele>
        <time>2021-03-28T08:15:12Z</time>
      </trkpt>
      <trkpt lat="42.88651" lon="2.71697">
        <ele>161.8</ele>
        <time>2021-03-28T08:15:12Z</time>
      </trkpt>
      <trkpt lat="42.88642" lon="2.71692">
        <ele>162.1</ele>
        <time>2021-03-28T08:15:14Z</time>
      </trkpt>
      <trkpt lat="42.88642" lon="2.71692">
        <ele>162.1</ele>
        <time>2021-03-28T08:15:14Z</time>
      </trkpt>
      <trkpt lat="42.88633" lon="2.71686">
        <ele>162</ele>
        <time>2021-03-28T08:15:16Z</time>
      </trkpt>
      <trkpt lat="42.88633" lon="2.71686">
        <ele>162</ele>
        <time>2021-03-28T08:15:16Z</time>
      </trkpt>
      <trkpt lat="42.88625" lon="2.7168">
        <ele>162</ele>
        <time>2021-03-28T08:15:17Z</time>
      </trkpt>
      <trkpt lat="42.88625" lon="2.7168">
        <ele>162</ele>
        <time>2021-03-28T08:15:17Z</time>
      </trkpt>
      <trkpt lat="42.88616" lon="2.71674">
        <ele>162.3</ele>
        <time>2021-03-28T08:15:19Z</time>
      </trkpt>
      <trkpt lat="42.88616" lon="2.71674">
        <ele>162.3</ele>
        <time>2021-03-28T08:15:19Z</time>
      </trkpt>
      <trkpt lat="42.88607" lon="2.71667">
        <ele>162.7</ele>
        <time>2021-03-28T08:15:21Z</time>
      </trkpt>
      <trkpt lat="42.88607" lon="2.71667">
        <ele>162.7</ele>
        <time>2021-03-28T08:15:21Z</time>
      </trkpt>
      <trkpt lat="42.88599" lon="2.71661">
        <ele>162.6</ele>
        <time>2021-03-28T08:15:22Z</time>
      </trkpt>
      <trkpt lat="42.88599" lon="2.71661">
        <ele>162.6</ele>
        <time>2021-03-28T08:15:22Z</time>
      </trkpt>
      <trkpt lat="42.88591" lon="2.71655">
        <ele>162.8</ele>
        <time>2021-03-28T08:15:24Z</time>
      </trkpt>
      <trkpt lat="42.88591" lon="2.71655">
        <ele>162.8</ele>
        <time>2021-03-28T08:15:24Z</time>
      </trkpt>
      <trkpt lat="42.88584" lon="2.71649">
        <ele>162.9</ele>
        <time>2021-03-28T08:15:25Z</time>
      </trkpt>
      <trkpt lat="42.88584" lon="2.71649">
        <ele>162.9</ele>
        <time>2021-03-28T08:15:25Z</time>
      </trkpt>
      <trkpt lat="42.88576" lon="2.71645">
        <ele>162.9</ele>
        <time>2021-03-28T08:15:27Z</time>
      </trkpt>
      <trkpt lat="42.88576" lon="2.71645">
        <ele>162.9</ele>
        <time>2021-03-28T08:15:27Z</time>
      </trkpt>
      <trkpt lat="42.88567" lon="2.71641">
        <ele>162.7</ele>
        <time>2021-03-28T08:15:29Z</time>
      </trkpt>
      <trkpt lat="42.88567" lon="2.71641">
        <ele>162.7</ele>
        <time>2021-03-28T08:15:29Z</time>
      </trkpt>
      <trkpt lat="42.88558" lon="2.71638">
        <ele>162.3</ele>
        <time>2021-03-28T08:15:31Z</time>
      </trkpt>
      <trkpt lat="42.88558" lon="2.71638">
        <ele>162.3</ele>
        <time>2021-03-28T08:15:31Z</time>
      </trkpt>
      <trkpt lat="42.88547" lon="2.71635">
        <ele>162.4</ele>
        <time>2021-03-28T08:15:33Z</time>
      </trkpt>
      <trkpt lat="42.88547" lon="2.71635">
        <ele>162.4</ele>
        <time>2021-03-28T08:15:33Z</time>
      </trkpt>
      <trkpt lat="42.88536" lon="2.71631">
        <ele>162.6</ele>
        <time>2021-03-28T08:15:35Z</time>
      </trkpt>
      <trkpt lat="42.88536" lon="2.71631">
        <ele>162.6</ele>
        <time>2021-03-28T08:15:35Z</time>
      </trkpt>
      <trkpt lat="42.88527" lon="2.71628">
        <ele>162.7</ele>
        <time>2021-03-28T08:15:36Z</time>
      </trkpt>
      <trkpt lat="42.88527" lon="2.71628">
        <ele>162.7</ele>
        <time>2021-03-28T08:15:36Z</time>
      </trkpt>
      <trkpt lat="42.88516" lon="2.71625">
        <ele>162.1</ele>
        <time>2021-03-28T08:15:38Z</time>
      </trkpt>
      <trkpt lat="42.88516" lon="2.71625">
        <ele>162.1</ele>
        <time>2021-03-28T08:15:38Z</time>
      </trkpt>
      <trkpt lat="42.88504" lon="2.71621">
        <ele>161.6</ele>
        <time>2021-03-28T08:15:40Z</time>
      </trkpt>
      <trkpt lat="42.88504" lon="2.71621">
        <ele>161.6</ele>
        <time>2021-03-28T08:15:40Z</time>
      </trkpt>
      <trkpt lat="42.88494" lon="2.71618">
        <ele>161.1</ele>
        <time>2021-03-28T08:15:41Z</time>
      </trkpt>
      <trkpt lat="42.88494" lon="2.71618">
        <ele>161.1</ele>
        <time>2021-03-28T08:15:41Z</time>
      </trkpt>
      <trkpt lat="42.88483" lon="2.71615">
        <ele>160.6</ele>
        <time>2021-03-28T08:15:43Z</time>
      </trkpt>
      <trkpt lat="42.88483" lon="2.71615">
        <ele>160.6</ele>
        <time>2021-03-28T08:15:43Z</time>
      </trkpt>
      <trkpt lat="42.88474" lon="2.71613">
        <ele>160</ele>
        <time>2021-03-28T08:15:44Z</time>
      </trkpt>
      <trkpt lat="42.88474" lon="2.71613">
        <ele>160</ele>
        <time>2021-03-28T08:15:44Z</time>
      </trkpt>
      <trkpt lat="42.88465" lon="2.7161">
        <ele>159.5</ele>
        <time>2021-03-28T08:15:45Z</time>
      </trkpt>
      <trkpt lat="42.88465" lon="2.7161">
        <ele>159.5</ele>
        <time>2021-03-28T08:15:45Z</time>
      </trkpt>
      <trkpt lat="42.88454" lon="2.71608">
        <ele>159</ele>
        <time>2021-03-28T08:15:47Z</time>
      </trkpt>
      <trkpt lat="42.88454" lon="2.71608">
        <ele>159</ele>
        <time>2021-03-28T08:15:47Z</time>
      </trkpt>
      <trkpt lat="42.88444" lon="2.71606">
        <ele>158.5</ele>
        <time>2021-03-28T08:15:48Z</time>
      </trkpt>
      <trkpt lat="42.88444" lon="2.71606">
        <ele>158.5</ele>
        <time>2021-03-28T08:15:48Z</time>
      </trkpt>
      <trkpt lat="42.88431" lon="2.71603">
        <ele>157.8</ele>
        <time>2021-03-28T08:15:50Z</time>
      </trkpt>
      <trkpt lat="42.88431" lon="2.71603">
        <ele>157.8</ele>
        <time>2021-03-28T08:15:50Z</time>
      </trkpt>
      <trkpt lat="42.8842" lon="2.71601">
        <ele>157</ele>
        <time>2021-03-28T08:15:51Z</time>
      </trkpt>
      <trkpt lat="42.8842" lon="2.71601">
        <ele>157</ele>
        <time>2021-03-28T08:15:51Z</time>
      </trkpt>
      <trkpt lat="42.88409" lon="2.71599">
        <ele>156.2</ele>
        <time>2021-03-28T08:15:52Z</time>
      </trkpt>
      <trkpt lat="42.88409" lon="2.71599">
        <ele>156.2</ele>
        <time>2021-03-28T08:15:52Z</time>
      </trkpt>
      <trkpt lat="42.88396" lon="2.71596">
        <ele>155.1</ele>
        <time>2021-03-28T08:15:54Z</time>
      </trkpt>
      <trkpt lat="42.88396" lon="2.71596">
        <ele>155.1</ele>
        <time>2021-03-28T08:15:54Z</time>
      </trkpt>
      <trkpt lat="42.88383" lon="2.71594">
        <ele>154.1</ele>
        <time>2021-03-28T08:15:55Z</time>
      </trkpt>
      <trkpt lat="42.88383" lon="2.71594">
        <ele>154.1</ele>
        <time>2021-03-28T08:15:55Z</time>
      </trkpt>
      <trkpt lat="42.88371" lon="2.71593">
        <ele>153.2</ele>
        <time>2021-03-28T08:15:56Z</time>
      </trkpt>
      <trkpt lat="42.88371" lon="2.71593">
        <ele>153.2</ele>
        <time>2021-03-28T08:15:56Z</time>
      </trkpt>
      <trkpt lat="42.88357" lon="2.71592">
        <ele>152.1</ele>
        <time>2021-03-28T08:15:58Z</time>
      </trkpt>
      <trkpt lat="42.88357" lon="2.71592">
        <ele>152.1</ele>
        <time>2021-03-28T08:15:58Z</time>
      </trkpt>
      <trkpt lat="42.88342" lon="2.71592">
        <ele>151.2</ele>
        <time>2021-03-28T08:16:00Z</time>
      </trkpt>
      <trkpt lat="42.88342" lon="2.71592">
        <ele>151.2</ele>
        <time>2021-03-28T08:16:00Z</time>
      </trkpt>
      <trkpt lat="42.88328" lon="2.71592">
        <ele>150.7</ele>
        <time>2021-03-28T08:16:01Z</time>
      </trkpt>
      <trkpt lat="42.88328" lon="2.71592">
        <ele>150.7</ele>
        <time>2021-03-28T08:16:01Z</time>
      </trkpt>
      <trkpt lat="42.88316" lon="2.71592">
        <ele>150.7</ele>
        <time>2021-03-28T08:16:02Z</time>
      </trkpt>
      <trkpt lat="42.88316" lon="2.71592">
        <ele>150.7</ele>
        <time>2021-03-28T08:16:02Z</time>
      </trkpt>
      <trkpt lat="42.88302" lon="2.71592">
        <ele>150.5</ele>
        <time>2021-03-28T08:16:04Z</time>
      </trkpt>
      <trkpt lat="42.88302" lon="2.71592">
        <ele>150.5</ele>
        <time>2021-03-28T08:16:04Z</time>
      </trkpt>
      <trkpt lat="42.88289" lon="2.71592">
        <ele>150.1</ele>
        <time>2021-03-28T08:16:05Z</time>
      </trkpt>
      <trkpt lat="42.88289" lon="2.71592">
        <ele>150.1</ele>
        <time>2021-03-28T08:16:05Z</time>
      </trkpt>
      <trkpt lat="42.88278" lon="2.71593">
        <ele>149.7</ele>
        <time>2021-03-28T08:16:06Z</time>
      </trkpt>
      <trkpt lat="42.88278" lon="2.71593">
        <ele>149.7</ele>
        <time>2021-03-28T08:16:06Z</time>
      </trkpt>
      <trkpt lat="42.88265" lon="2.71594">
        <ele>149.6</ele>
        <time>2021-03-28T08:16:08Z</time>
      </trkpt>
      <trkpt lat="42.88265" lon="2.71594">
        <ele>149.6</ele>
        <time>2021-03-28T08:16:08Z</time>
      </trkpt>
      <trkpt lat="42.88251" lon="2.71594">
        <ele>149.6</ele>
        <time>2021-03-28T08:16:10Z</time>
      </trkpt>
      <trkpt lat="42.88251" lon="2.71594">
        <ele>149.6</ele>
        <time>2021-03-28T08:16:10Z</time>
      </trkpt>
      <trkpt lat="42.88238" lon="2.71595">
        <ele>149.1</ele>
        <time>2021-03-28T08:16:11Z</time>
      </trkpt>
      <trkpt lat="42.88238" lon="2.71595">
        <ele>149.1</ele>
        <time>2021-03-28T08:16:11Z</time>
      </trkpt>
      <trkpt lat="42.88227" lon="2.71596">
        <ele>148.7</ele>
        <time>2021-03-28T08:16:12Z</time>
      </trkpt>
      <trkpt lat="42.88227" lon="2.71596">
        <ele>148.7</ele>
        <time>2021-03-28T08:16:12Z</time>
      </trkpt>
      <trkpt lat="42.88214" lon="2.71597">
        <ele>148.5</ele>
        <time>2021-03-28T08:16:14Z</time>
      </trkpt>
      <trkpt lat="42.88214" lon="2.71597">
        <ele>148.5</ele>
        <time>2021-03-28T08:16:14Z</time>
      </trkpt>
      <trkpt lat="42.882" lon="2.71598">
        <ele>148.5</ele>
        <time>2021-03-28T08:16:16Z</time>
      </trkpt>
      <trkpt lat="42.882" lon="2.71598">
        <ele>148.5</ele>
        <time>2021-03-28T08:16:16Z</time>
      </trkpt>
      <trkpt lat="42.88186" lon="2.71599">
        <ele>148.7</ele>
        <time>2021-03-28T08:16:18Z</time>
      </trkpt>
      <trkpt lat="42.88186" lon="2.71599">
        <ele>148.7</ele>
        <time>2021-03-28T08:16:18Z</time>
      </trkpt>
      <trkpt lat="42.88172" lon="2.71599">
        <ele>149.3</ele>
        <time>2021-03-28T08:16:20Z</time>
      </trkpt>
      <trkpt lat="42.88172" lon="2.71599">
        <ele>149.3</ele>
        <time>2021-03-28T08:16:20Z</time>
      </trkpt>
      <trkpt lat="42.88157" lon="2.71597">
        <ele>149.5</ele>
        <time>2021-03-28T08:16:22Z</time>
      </trkpt>
      <trkpt lat="42.88157" lon="2.71597">
        <ele>149.5</ele>
        <time>2021-03-28T08:16:22Z</time>
      </trkpt>
      <trkpt lat="42.88143" lon="2.71593">
        <ele>149.7</ele>
        <time>2021-03-28T08:16:24Z</time>
      </trkpt>
      <trkpt lat="42.88143" lon="2.71593">
        <ele>149.7</ele>
        <time>2021-03-28T08:16:24Z</time>
      </trkpt>
      <trkpt lat="42.8813" lon="2.71586">
        <ele>149.6</ele>
        <time>2021-03-28T08:16:26Z</time>
      </trkpt>
      <trkpt lat="42.8813" lon="2.71586">
        <ele>149.6</ele>
        <time>2021-03-28T08:16:26Z</time>
      </trkpt>
      <trkpt lat="42.88119" lon="2.71579">
        <ele>149.4</ele>
        <time>2021-03-28T08:16:27Z</time>
      </trkpt>
      <trkpt lat="42.88119" lon="2.71579">
        <ele>149.4</ele>
        <time>2021-03-28T08:16:27Z</time>
      </trkpt>
      <trkpt lat="42.88111" lon="2.71573">
        <ele>149.3</ele>
        <time>2021-03-28T08:16:28Z</time>
      </trkpt>
      <trkpt lat="42.88111" lon="2.71573">
        <ele>149.3</ele>
        <time>2021-03-28T08:16:28Z</time>
      </trkpt>
      <trkpt lat="42.88101" lon="2.71565">
        <ele>148.8</ele>
        <time>2021-03-28T08:16:30Z</time>
      </trkpt>
      <trkpt lat="42.88101" lon="2.71565">
        <ele>148.8</ele>
        <time>2021-03-28T08:16:30Z</time>
      </trkpt>
      <trkpt lat="42.88092" lon="2.71555">
        <ele>148.6</ele>
        <time>2021-03-28T08:16:32Z</time>
      </trkpt>
      <trkpt lat="42.88092" lon="2.71555">
        <ele>148.6</ele>
        <time>2021-03-28T08:16:32Z</time>
      </trkpt>
      <trkpt lat="42.88083" lon="2.71547">
        <ele>148.6</ele>
        <time>2021-03-28T08:16:33Z</time>
      </trkpt>
      <trkpt lat="42.88083" lon="2.71547">
        <ele>148.6</ele>
        <time>2021-03-28T08:16:33Z</time>
      </trkpt>
      <trkpt lat="42.88074" lon="2.71539">
        <ele>148.7</ele>
        <time>2021-03-28T08:16:35Z</time>
      </trkpt>
      <trkpt lat="42.88074" lon="2.71539">
        <ele>148.7</ele>
        <time>2021-03-28T08:16:35Z</time>
      </trkpt>
      <trkpt lat="42.88064" lon="2.71531">
        <ele>148.5</ele>
        <time>2021-03-28T08:16:37Z</time>
      </trkpt>
      <trkpt lat="42.88064" lon="2.71531">
        <ele>148.5</ele>
        <time>2021-03-28T08:16:37Z</time>
      </trkpt>
      <trkpt lat="42.88054" lon="2.71523">
        <ele>148.3</ele>
        <time>2021-03-28T08:16:39Z</time>
      </trkpt>
      <trkpt lat="42.88054" lon="2.71523">
        <ele>148.3</ele>
        <time>2021-03-28T08:16:39Z</time>
      </trkpt>
      <trkpt lat="42.88043" lon="2.71516">
        <ele>148.8</ele>
        <time>2021-03-28T08:16:41Z</time>
      </trkpt>
      <trkpt lat="42.88043" lon="2.71516">
        <ele>148.8</ele>
        <time>2021-03-28T08:16:41Z</time>
      </trkpt>
      <trkpt lat="42.88034" lon="2.71511">
        <ele>149.2</ele>
        <time>2021-03-28T08:16:42Z</time>
      </trkpt>
      <trkpt lat="42.88034" lon="2.71511">
        <ele>149.2</ele>
        <time>2021-03-28T08:16:42Z</time>
      </trkpt>
      <trkpt lat="42.88024" lon="2.71506">
        <ele>149.6</ele>
        <time>2021-03-28T08:16:44Z</time>
      </trkpt>
      <trkpt lat="42.88024" lon="2.71506">
        <ele>149.6</ele>
        <time>2021-03-28T08:16:44Z</time>
      </trkpt>
      <trkpt lat="42.88015" lon="2.71502">
        <ele>149.8</ele>
        <time>2021-03-28T08:16:45Z</time>
      </trkpt>
      <trkpt lat="42.88015" lon="2.71502">
        <ele>149.8</ele>
        <time>2021-03-28T08:16:45Z</time>
      </trkpt>
      <trkpt lat="42.88006" lon="2.71499">
        <ele>150.1</ele>
        <time>2021-03-28T08:16:47Z</time>
      </trkpt>
      <trkpt lat="42.88006" lon="2.71499">
        <ele>150.1</ele>
        <time>2021-03-28T08:16:47Z</time>
      </trkpt>
      <trkpt lat="42.87995" lon="2.71496">
        <ele>150.3</ele>
        <time>2021-03-28T08:16:49Z</time>
      </trkpt>
      <trkpt lat="42.87995" lon="2.71496">
        <ele>150.3</ele>
        <time>2021-03-28T08:16:49Z</time>
      </trkpt>
      <trkpt lat="42.87986" lon="2.71494">
        <ele>150.4</ele>
        <time>2021-03-28T08:16:50Z</time>
      </trkpt>
      <trkpt lat="42.87986" lon="2.71494">
        <ele>150.4</ele>
        <time>2021-03-28T08:16:50Z</time>
      </trkpt>
      <trkpt lat="42.87976" lon="2.71492">
        <ele>150.6</ele>
        <time>2021-03-28T08:16:52Z</time>
      </trkpt>
      <trkpt lat="42.87976" lon="2.71492">
        <ele>150.6</ele>
        <time>2021-03-28T08:16:52Z</time>
      </trkpt>
      <trkpt lat="42.87966" lon="2.71491">
        <ele>150.8</ele>
        <time>2021-03-28T08:16:54Z</time>
      </trkpt>
      <trkpt lat="42.87966" lon="2.71491">
        <ele>150.8</ele>
        <time>2021-03-28T08:16:54Z</time>
      </trkpt>
      <trkpt lat="42.87957" lon="2.7149">
        <ele>151.1</ele>
        <time>2021-03-28T08:16:55Z</time>
      </trkpt>
      <trkpt lat="42.87957" lon="2.7149">
        <ele>151.1</ele>
        <time>2021-03-28T08:16:55Z</time>
      </trkpt>
      <trkpt lat="42.87948" lon="2.71488">
        <ele>151.4</ele>
        <time>2021-03-28T08:16:57Z</time>
      </trkpt>
      <trkpt lat="42.87948" lon="2.71488">
        <ele>151.4</ele>
        <time>2021-03-28T08:16:57Z</time>
      </trkpt>
      <trkpt lat="42.8794" lon="2.71487">
        <ele>151.5</ele>
        <time>2021-03-28T08:16:58Z</time>
      </trkpt>
      <trkpt lat="42.8794" lon="2.71487">
        <ele>151.5</ele>
        <time>2021-03-28T08:16:58Z</time>
      </trkpt>
      <trkpt lat="42.87931" lon="2.71485">
        <ele>151.5</ele>
        <time>2021-03-28T08:17:00Z</time>
      </trkpt>
      <trkpt lat="42.87931" lon="2.71485">
        <ele>151.5</ele>
        <time>2021-03-28T08:17:00Z</time>
      </trkpt>
      <trkpt lat="42.87924" lon="2.71484">
        <ele>151.6</ele>
        <time>2021-03-28T08:17:01Z</time>
      </trkpt>
      <trkpt lat="42.87924" lon="2.71484">
        <ele>151.6</ele>
        <time>2021-03-28T08:17:01Z</time>
      </trkpt>
      <trkpt lat="42.87916" lon="2.71482">
        <ele>151.6</ele>
        <time>2021-03-28T08:17:03Z</time>
      </trkpt>
      <trkpt lat="42.87916" lon="2.71482">
        <ele>151.6</ele>
        <time>2021-03-28T08:17:03Z</time>
      </trkpt>
      <trkpt lat="42.87909" lon="2.71481">
        <ele>151.7</ele>
        <time>2021-03-28T08:17:04Z</time>
      </trkpt>
      <trkpt lat="42.87909" lon="2.71481">
        <ele>151.7</ele>
        <time>2021-03-28T08:17:04Z</time>
      </trkpt>
      <trkpt lat="42.87903" lon="2.7148">
        <ele>151.7</ele>
        <time>2021-03-28T08:17:05Z</time>
      </trkpt>
      <trkpt lat="42.87903" lon="2.7148">
        <ele>151.7</ele>
        <time>2021-03-28T08:17:05Z</time>
      </trkpt>
      <trkpt lat="42.87896" lon="2.71478">
        <ele>151.8</ele>
        <time>2021-03-28T08:17:07Z</time>
      </trkpt>
      <trkpt lat="42.87896" lon="2.71478">
        <ele>151.8</ele>
        <time>2021-03-28T08:17:07Z</time>
      </trkpt>
      <trkpt lat="42.87887" lon="2.71476">
        <ele>151.8</ele>
        <time>2021-03-28T08:17:09Z</time>
      </trkpt>
      <trkpt lat="42.87887" lon="2.71476">
        <ele>151.8</ele>
        <time>2021-03-28T08:17:09Z</time>
      </trkpt>
      <trkpt lat="42.8788" lon="2.71475">
        <ele>151.9</ele>
        <time>2021-03-28T08:17:10Z</time>
      </trkpt>
      <trkpt lat="42.8788" lon="2.71475">
        <ele>151.9</ele>
        <time>2021-03-28T08:17:10Z</time>
      </trkpt>
      <trkpt lat="42.87873" lon="2.71473">
        <ele>152</ele>
        <time>2021-03-28T08:17:11Z</time>
      </trkpt>
      <trkpt lat="42.87873" lon="2.71473">
        <ele>152</ele>
        <time>2021-03-28T08:17:11Z</time>
      </trkpt>
      <trkpt lat="42.87865" lon="2.71472">
        <ele>152</ele>
        <time>2021-03-28T08:17:13Z</time>
      </trkpt>
      <trkpt lat="42.87865" lon="2.71472">
        <ele>152</ele>
        <time>2021-03-28T08:17:13Z</time>
      </trkpt>
      <trkpt lat="42.87856" lon="2.71471">
        <ele>152.1</ele>
        <time>2021-03-28T08:17:15Z</time>
      </trkpt>
      <trkpt lat="42.87856" lon="2.71471">
        <ele>152.1</ele>
        <time>2021-03-28T08:17:15Z</time>
      </trkpt>
      <trkpt lat="42.87847" lon="2.71469">
        <ele>152.1</ele>
        <time>2021-03-28T08:17:17Z</time>
      </trkpt>
      <trkpt lat="42.87847" lon="2.71469">
        <ele>152.1</ele>
        <time>2021-03-28T08:17:17Z</time>
      </trkpt>
      <trkpt lat="42.87838" lon="2.71467">
        <ele>152.2</ele>
        <time>2021-03-28T08:17:19Z</time>
      </trkpt>
      <trkpt lat="42.87838" lon="2.71467">
        <ele>152.2</ele>
        <time>2021-03-28T08:17:19Z</time>
      </trkpt>
      <trkpt lat="42.87829" lon="2.71465">
        <ele>152.1</ele>
        <time>2021-03-28T08:17:20Z</time>
      </trkpt>
      <trkpt lat="42.87829" lon="2.71465">
        <ele>152.1</ele>
        <time>2021-03-28T08:17:20Z</time>
      </trkpt>
      <trkpt lat="42.8782" lon="2.71463">
        <ele>152</ele>
        <time>2021-03-28T08:17:22Z</time>
      </trkpt>
      <trkpt lat="42.8782" lon="2.71463">
        <ele>152</ele>
        <time>2021-03-28T08:17:22Z</time>
      </trkpt>
      <trkpt lat="42.8781" lon="2.71462">
        <ele>151.8</ele>
        <time>2021-03-28T08:17:24Z</time>
      </trkpt>
      <trkpt lat="42.8781" lon="2.71462">
        <ele>151.8</ele>
        <time>2021-03-28T08:17:24Z</time>
      </trkpt>
      <trkpt lat="42.87801" lon="2.71461">
        <ele>151.7</ele>
        <time>2021-03-28T08:17:25Z</time>
      </trkpt>
      <trkpt lat="42.87801" lon="2.71461">
        <ele>151.7</ele>
        <time>2021-03-28T08:17:25Z</time>
      </trkpt>
      <trkpt lat="42.87793" lon="2.7146">
        <ele>151.7</ele>
        <time>2021-03-28T08:17:26Z</time>
      </trkpt>
      <trkpt lat="42.87793" lon="2.7146">
        <ele>151.7</ele>
        <time>2021-03-28T08:17:26Z</time>
      </trkpt>
      <trkpt lat="42.87786" lon="2.7146">
        <ele>151.6</ele>
        <time>2021-03-28T08:17:27Z</time>
      </trkpt>
      <trkpt lat="42.87786" lon="2.7146">
        <ele>151.6</ele>
        <time>2021-03-28T08:17:27Z</time>
      </trkpt>
      <trkpt lat="42.87778" lon="2.71458">
        <ele>151.5</ele>
        <time>2021-03-28T08:17:29Z</time>
      </trkpt>
      <trkpt lat="42.87778" lon="2.71458">
        <ele>151.5</ele>
        <time>2021-03-28T08:17:29Z</time>
      </trkpt>
      <trkpt lat="42.87771" lon="2.71457">
        <ele>151.6</ele>
        <time>2021-03-28T08:17:30Z</time>
      </trkpt>
      <trkpt lat="42.87771" lon="2.71457">
        <ele>151.6</ele>
        <time>2021-03-28T08:17:30Z</time>
      </trkpt>
      <trkpt lat="42.87762" lon="2.71455">
        <ele>151.6</ele>
        <time>2021-03-28T08:17:32Z</time>
      </trkpt>
      <trkpt lat="42.87762" lon="2.71455">
        <ele>151.6</ele>
        <time>2021-03-28T08:17:32Z</time>
      </trkpt>
      <trkpt lat="42.87755" lon="2.71453">
        <ele>151.7</ele>
        <time>2021-03-28T08:17:33Z</time>
      </trkpt>
      <trkpt lat="42.87755" lon="2.71453">
        <ele>151.7</ele>
        <time>2021-03-28T08:17:33Z</time>
      </trkpt>
      <trkpt lat="42.87746" lon="2.7145">
        <ele>151.8</ele>
        <time>2021-03-28T08:17:35Z</time>
      </trkpt>
      <trkpt lat="42.87746" lon="2.7145">
        <ele>151.8</ele>
        <time>2021-03-28T08:17:35Z</time>
      </trkpt>
      <trkpt lat="42.87738" lon="2.71447">
        <ele>151.9</ele>
        <time>2021-03-28T08:17:36Z</time>
      </trkpt>
      <trkpt lat="42.87738" lon="2.71447">
        <ele>151.9</ele>
        <time>2021-03-28T08:17:36Z</time>
      </trkpt>
      <trkpt lat="42.8773" lon="2.71444">
        <ele>152</ele>
        <time>2021-03-28T08:17:38Z</time>
      </trkpt>
      <trkpt lat="42.8773" lon="2.71444">
        <ele>152</ele>
        <time>2021-03-28T08:17:38Z</time>
      </trkpt>
      <trkpt lat="42.87722" lon="2.7144">
        <ele>152.1</ele>
        <time>2021-03-28T08:17:39Z</time>
      </trkpt>
      <trkpt lat="42.87722" lon="2.7144">
        <ele>152.1</ele>
        <time>2021-03-28T08:17:39Z</time>
      </trkpt>
      <trkpt lat="42.87716" lon="2.71437">
        <ele>152.3</ele>
        <time>2021-03-28T08:17:40Z</time>
      </trkpt>
      <trkpt lat="42.87716" lon="2.71437">
        <ele>152.3</ele>
        <time>2021-03-28T08:17:40Z</time>
      </trkpt>
      <trkpt lat="42.8771" lon="2.71434">
        <ele>152.4</ele>
        <time>2021-03-28T08:17:41Z</time>
      </trkpt>
      <trkpt lat="42.8771" lon="2.71434">
        <ele>152.4</ele>
        <time>2021-03-28T08:17:41Z</time>
      </trkpt>
      <trkpt lat="42.87704" lon="2.71431">
        <ele>152.5</ele>
        <time>2021-03-28T08:17:42Z</time>
      </trkpt>
      <trkpt lat="42.87704" lon="2.71431">
        <ele>152.5</ele>
        <time>2021-03-28T08:17:42Z</time>
      </trkpt>
      <trkpt lat="42.87697" lon="2.71426">
        <ele>152.7</ele>
        <time>2021-03-28T08:17:44Z</time>
      </trkpt>
      <trkpt lat="42.87697" lon="2.71426">
        <ele>152.7</ele>
        <time>2021-03-28T08:17:44Z</time>
      </trkpt>
      <trkpt lat="42.87691" lon="2.71423">
        <ele>152.7</ele>
        <time>2021-03-28T08:17:45Z</time>
      </trkpt>
      <trkpt lat="42.87691" lon="2.71423">
        <ele>152.7</ele>
        <time>2021-03-28T08:17:45Z</time>
      </trkpt>
      <trkpt lat="42.87684" lon="2.71424">
        <ele>152.5</ele>
        <time>2021-03-28T08:17:47Z</time>
      </trkpt>
      <trkpt lat="42.87684" lon="2.71424">
        <ele>152.5</ele>
        <time>2021-03-28T08:17:47Z</time>
      </trkpt>
      <trkpt lat="42.87676" lon="2.71427">
        <ele>152.2</ele>
        <time>2021-03-28T08:17:49Z</time>
      </trkpt>
      <trkpt lat="42.87676" lon="2.71427">
        <ele>152.2</ele>
        <time>2021-03-28T08:17:49Z</time>
      </trkpt>
      <trkpt lat="42.87669" lon="2.7143">
        <ele>152</ele>
        <time>2021-03-28T08:17:50Z</time>
      </trkpt>
      <trkpt lat="42.87669" lon="2.7143">
        <ele>152</ele>
        <time>2021-03-28T08:17:50Z</time>
      </trkpt>
      <trkpt lat="42.87663" lon="2.71433">
        <ele>151.9</ele>
        <time>2021-03-28T08:17:51Z</time>
      </trkpt>
      <trkpt lat="42.87663" lon="2.71433">
        <ele>151.9</ele>
        <time>2021-03-28T08:17:51Z</time>
      </trkpt>
      <trkpt lat="42.87655" lon="2.71436">
        <ele>151.7</ele>
        <time>2021-03-28T08:17:53Z</time>
      </trkpt>
      <trkpt lat="42.87655" lon="2.71436">
        <ele>151.7</ele>
        <time>2021-03-28T08:17:53Z</time>
      </trkpt>
      <trkpt lat="42.87645" lon="2.71439">
        <ele>151.4</ele>
        <time>2021-03-28T08:17:55Z</time>
      </trkpt>
      <trkpt lat="42.87645" lon="2.71439">
        <ele>151.4</ele>
        <time>2021-03-28T08:17:55Z</time>
      </trkpt>
      <trkpt lat="42.87638" lon="2.71441">
        <ele>151.1</ele>
        <time>2021-03-28T08:17:56Z</time>
      </trkpt>
      <trkpt lat="42.87638" lon="2.71441">
        <ele>151.1</ele>
        <time>2021-03-28T08:17:56Z</time>
      </trkpt>
      <trkpt lat="42.87628" lon="2.71444">
        <ele>150.6</ele>
        <time>2021-03-28T08:17:58Z</time>
      </trkpt>
      <trkpt lat="42.87628" lon="2.71444">
        <ele>150.6</ele>
        <time>2021-03-28T08:17:58Z</time>
      </trkpt>
      <trkpt lat="42.87618" lon="2.71445">
        <ele>150.2</ele>
        <time>2021-03-28T08:18:00Z</time>
      </trkpt>
      <trkpt lat="42.87618" lon="2.71445">
        <ele>150.2</ele>
        <time>2021-03-28T08:18:00Z</time>
      </trkpt>
      <trkpt lat="42.87607" lon="2.71446">
        <ele>150</ele>
        <time>2021-03-28T08:18:02Z</time>
      </trkpt>
      <trkpt lat="42.87607" lon="2.71446">
        <ele>150</ele>
        <time>2021-03-28T08:18:02Z</time>
      </trkpt>
      <trkpt lat="42.87597" lon="2.71447">
        <ele>150</ele>
        <time>2021-03-28T08:18:03Z</time>
      </trkpt>
      <trkpt lat="42.87597" lon="2.71447">
        <ele>150</ele>
        <time>2021-03-28T08:18:03Z</time>
      </trkpt>
      <trkpt lat="42.87587" lon="2.71447">
        <ele>150</ele>
        <time>2021-03-28T08:18:05Z</time>
      </trkpt>
      <trkpt lat="42.87587" lon="2.71447">
        <ele>150</ele>
        <time>2021-03-28T08:18:05Z</time>
      </trkpt>
      <trkpt lat="42.87578" lon="2.71447">
        <ele>149.8</ele>
        <time>2021-03-28T08:18:06Z</time>
      </trkpt>
      <trkpt lat="42.87578" lon="2.71447">
        <ele>149.8</ele>
        <time>2021-03-28T08:18:06Z</time>
      </trkpt>
      <trkpt lat="42.8757" lon="2.71446">
        <ele>149.5</ele>
        <time>2021-03-28T08:18:07Z</time>
      </trkpt>
      <trkpt lat="42.8757" lon="2.71446">
        <ele>149.5</ele>
        <time>2021-03-28T08:18:07Z</time>
      </trkpt>
      <trkpt lat="42.8756" lon="2.71446">
        <ele>149.2</ele>
        <time>2021-03-28T08:18:09Z</time>
      </trkpt>
      <trkpt lat="42.8756" lon="2.71446">
        <ele>149.2</ele>
        <time>2021-03-28T08:18:09Z</time>
      </trkpt>
      <trkpt lat="42.87549" lon="2.71445">
        <ele>149</ele>
        <time>2021-03-28T08:18:11Z</time>
      </trkpt>
      <trkpt lat="42.87549" lon="2.71445">
        <ele>149</ele>
        <time>2021-03-28T08:18:11Z</time>
      </trkpt>
      <trkpt lat="42.87539" lon="2.71444">
        <ele>149</ele>
        <time>2021-03-28T08:18:12Z</time>
      </trkpt>
      <trkpt lat="42.87539" lon="2.71444">
        <ele>149</ele>
        <time>2021-03-28T08:18:12Z</time>
      </trkpt>
      <trkpt lat="42.8753" lon="2.71443">
        <ele>149</ele>
        <time>2021-03-28T08:18:13Z</time>
      </trkpt>
      <trkpt lat="42.8753" lon="2.71443">
        <ele>149</ele>
        <time>2021-03-28T08:18:13Z</time>
      </trkpt>
      <trkpt lat="42.8752" lon="2.71442">
        <ele>149.1</ele>
        <time>2021-03-28T08:18:15Z</time>
      </trkpt>
      <trkpt lat="42.8752" lon="2.71442">
        <ele>149.1</ele>
        <time>2021-03-28T08:18:15Z</time>
      </trkpt>
      <trkpt lat="42.87511" lon="2.71441">
        <ele>149</ele>
        <time>2021-03-28T08:18:16Z</time>
      </trkpt>
      <trkpt lat="42.87511" lon="2.71441">
        <ele>149</ele>
        <time>2021-03-28T08:18:16Z</time>
      </trkpt>
      <trkpt lat="42.87501" lon="2.7144">
        <ele>149</ele>
        <time>2021-03-28T08:18:18Z</time>
      </trkpt>
      <trkpt lat="42.87501" lon="2.7144">
        <ele>149</ele>
        <time>2021-03-28T08:18:18Z</time>
      </trkpt>
      <trkpt lat="42.8749" lon="2.71439">
        <ele>148.7</ele>
        <time>2021-03-28T08:18:20Z</time>
      </trkpt>
      <trkpt lat="42.8749" lon="2.71439">
        <ele>148.7</ele>
        <time>2021-03-28T08:18:20Z</time>
      </trkpt>
      <trkpt lat="42.8748" lon="2.71438">
        <ele>148.4</ele>
        <time>2021-03-28T08:18:21Z</time>
      </trkpt>
      <trkpt lat="42.8748" lon="2.71438">
        <ele>148.4</ele>
        <time>2021-03-28T08:18:21Z</time>
      </trkpt>
      <trkpt lat="42.87469" lon="2.71437">
        <ele>148.3</ele>
        <time>2021-03-28T08:18:23Z</time>
      </trkpt>
      <trkpt lat="42.87469" lon="2.71437">
        <ele>148.3</ele>
        <time>2021-03-28T08:18:23Z</time>
      </trkpt>
      <trkpt lat="42.87459" lon="2.71436">
        <ele>148.5</ele>
        <time>2021-03-28T08:18:24Z</time>
      </trkpt>
      <trkpt lat="42.87459" lon="2.71436">
        <ele>148.5</ele>
        <time>2021-03-28T08:18:24Z</time>
      </trkpt>
      <trkpt lat="42.87448" lon="2.71435">
        <ele>148.6</ele>
        <time>2021-03-28T08:18:26Z</time>
      </trkpt>
      <trkpt lat="42.87448" lon="2.71435">
        <ele>148.6</ele>
        <time>2021-03-28T08:18:26Z</time>
      </trkpt>
      <trkpt lat="42.87436" lon="2.71434">
        <ele>148.4</ele>
        <time>2021-03-28T08:18:28Z</time>
      </trkpt>
      <trkpt lat="42.87436" lon="2.71434">
        <ele>148.4</ele>
        <time>2021-03-28T08:18:28Z</time>
      </trkpt>
      <trkpt lat="42.87426" lon="2.71433">
        <ele>148.2</ele>
        <time>2021-03-28T08:18:29Z</time>
      </trkpt>
      <trkpt lat="42.87426" lon="2.71433">
        <ele>148.2</ele>
        <time>2021-03-28T08:18:29Z</time>
      </trkpt>
      <trkpt lat="42.87414" lon="2.71432">
        <ele>148</ele>
        <time>2021-03-28T08:18:31Z</time>
      </trkpt>
      <trkpt lat="42.87414" lon="2.71432">
        <ele>148</ele>
        <time>2021-03-28T08:18:31Z</time>
      </trkpt>
      <trkpt lat="42.87402" lon="2.71431">
        <ele>147.7</ele>
        <time>2021-03-28T08:18:33Z</time>
      </trkpt>
      <trkpt lat="42.87402" lon="2.71431">
        <ele>147.7</ele>
        <time>2021-03-28T08:18:33Z</time>
      </trkpt>
      <trkpt lat="42.8739" lon="2.7143">
        <ele>147.5</ele>
        <time>2021-03-28T08:18:35Z</time>
      </trkpt>
      <trkpt lat="42.8739" lon="2.7143">
        <ele>147.5</ele>
        <time>2021-03-28T08:18:35Z</time>
      </trkpt>
      <trkpt lat="42.87379" lon="2.71429">
        <ele>147.4</ele>
        <time>2021-03-28T08:18:36Z</time>
      </trkpt>
      <trkpt lat="42.87379" lon="2.71429">
        <ele>147.4</ele>
        <time>2021-03-28T08:18:36Z</time>
      </trkpt>
      <trkpt lat="42.8737" lon="2.71428">
        <ele>147.2</ele>
        <time>2021-03-28T08:18:37Z</time>
      </trkpt>
      <trkpt lat="42.8737" lon="2.71428">
        <ele>147.2</ele>
        <time>2021-03-28T08:18:37Z</time>
      </trkpt>
      <trkpt lat="42.87359" lon="2.71427">
        <ele>147</ele>
        <time>2021-03-28T08:18:39Z</time>
      </trkpt>
      <trkpt lat="42.87359" lon="2.71427">
        <ele>147</ele>
        <time>2021-03-28T08:18:39Z</time>
      </trkpt>
      <trkpt lat="42.87347" lon="2.71426">
        <ele>147</ele>
        <time>2021-03-28T08:18:41Z</time>
      </trkpt>
      <trkpt lat="42.87347" lon="2.71426">
        <ele>147</ele>
        <time>2021-03-28T08:18:41Z</time>
      </trkpt>
      <trkpt lat="42.87337" lon="2.71425">
        <ele>147</ele>
        <time>2021-03-28T08:18:42Z</time>
      </trkpt>
      <trkpt lat="42.87337" lon="2.71425">
        <ele>147</ele>
        <time>2021-03-28T08:18:42Z</time>
      </trkpt>
      <trkpt lat="42.87328" lon="2.71424">
        <ele>147</ele>
        <time>2021-03-28T08:18:43Z</time>
      </trkpt>
      <trkpt lat="42.87328" lon="2.71424">
        <ele>147</ele>
        <time>2021-03-28T08:18:43Z</time>
      </trkpt>
      <trkpt lat="42.87318" lon="2.71423">
        <ele>146.9</ele>
        <time>2021-03-28T08:18:45Z</time>
      </trkpt>
      <trkpt lat="42.87318" lon="2.71423">
        <ele>146.9</ele>
        <time>2021-03-28T08:18:45Z</time>
      </trkpt>
      <trkpt lat="42.87307" lon="2.71422">
        <ele>146.8</ele>
        <time>2021-03-28T08:18:47Z</time>
      </trkpt>
      <trkpt lat="42.87307" lon="2.71422">
        <ele>146.8</ele>
        <time>2021-03-28T08:18:47Z</time>
      </trkpt>
      <trkpt lat="42.87296" lon="2.7142">
        <ele>146.9</ele>
        <time>2021-03-28T08:18:49Z</time>
      </trkpt>
      <trkpt lat="42.87296" lon="2.7142">
        <ele>146.9</ele>
        <time>2021-03-28T08:18:49Z</time>
      </trkpt>
      <trkpt lat="42.87284" lon="2.71419">
        <ele>146.9</ele>
        <time>2021-03-28T08:18:51Z</time>
      </trkpt>
      <trkpt lat="42.87284" lon="2.71419">
        <ele>146.9</ele>
        <time>2021-03-28T08:18:51Z</time>
      </trkpt>
      <trkpt lat="42.87275" lon="2.71419">
        <ele>147</ele>
        <time>2021-03-28T08:18:52Z</time>
      </trkpt>
      <trkpt lat="42.87275" lon="2.71419">
        <ele>147</ele>
        <time>2021-03-28T08:18:52Z</time>
      </trkpt>
      <trkpt lat="42.87267" lon="2.71418">
        <ele>147.3</ele>
        <time>2021-03-28T08:18:53Z</time>
      </trkpt>
      <trkpt lat="42.87267" lon="2.71418">
        <ele>147.3</ele>
        <time>2021-03-28T08:18:53Z</time>
      </trkpt>
      <trkpt lat="42.87257" lon="2.71417">
        <ele>147.7</ele>
        <time>2021-03-28T08:18:55Z</time>
      </trkpt>
      <trkpt lat="42.87257" lon="2.71417">
        <ele>147.7</ele>
        <time>2021-03-28T08:18:55Z</time>
      </trkpt>
      <trkpt lat="42.87247" lon="2.71415">
        <ele>148</ele>
        <time>2021-03-28T08:18:57Z</time>
      </trkpt>
      <trkpt lat="42.87247" lon="2.71415">
        <ele>148</ele>
        <time>2021-03-28T08:18:57Z</time>
      </trkpt>
      <trkpt lat="42.87236" lon="2.71415">
        <ele>148</ele>
        <time>2021-03-28T08:18:59Z</time>
      </trkpt>
      <trkpt lat="42.87236" lon="2.71415">
        <ele>148</ele>
        <time>2021-03-28T08:18:59Z</time>
      </trkpt>
      <trkpt lat="42.87225" lon="2.71414">
        <ele>148</ele>
        <time>2021-03-28T08:19:01Z</time>
      </trkpt>
      <trkpt lat="42.87225" lon="2.71414">
        <ele>148</ele>
        <time>2021-03-28T08:19:01Z</time>
      </trkpt>
      <trkpt lat="42.87214" lon="2.71413">
        <ele>148</ele>
        <time>2021-03-28T08:19:03Z</time>
      </trkpt>
      <trkpt lat="42.87214" lon="2.71413">
        <ele>148</ele>
        <time>2021-03-28T08:19:03Z</time>
      </trkpt>
      <trkpt lat="42.87205" lon="2.71412">
        <ele>148</ele>
        <time>2021-03-28T08:19:04Z</time>
      </trkpt>
      <trkpt lat="42.87205" lon="2.71412">
        <ele>148</ele>
        <time>2021-03-28T08:19:04Z</time>
      </trkpt>
      <trkpt lat="42.87196" lon="2.71412">
        <ele>148</ele>
        <time>2021-03-28T08:19:06Z</time>
      </trkpt>
      <trkpt lat="42.87196" lon="2.71412">
        <ele>148</ele>
        <time>2021-03-28T08:19:06Z</time>
      </trkpt>
      <trkpt lat="42.87188" lon="2.71411">
        <ele>148</ele>
        <time>2021-03-28T08:19:07Z</time>
      </trkpt>
      <trkpt lat="42.87188" lon="2.71411">
        <ele>148</ele>
        <time>2021-03-28T08:19:07Z</time>
      </trkpt>
      <trkpt lat="42.8718" lon="2.7141">
        <ele>148</ele>
        <time>2021-03-28T08:19:08Z</time>
      </trkpt>
      <trkpt lat="42.8718" lon="2.7141">
        <ele>148</ele>
        <time>2021-03-28T08:19:08Z</time>
      </trkpt>
      <trkpt lat="42.87174" lon="2.7141">
        <ele>148</ele>
        <time>2021-03-28T08:19:09Z</time>
      </trkpt>
      <trkpt lat="42.87174" lon="2.7141">
        <ele>148</ele>
        <time>2021-03-28T08:19:09Z</time>
      </trkpt>
      <trkpt lat="42.87165" lon="2.71409">
        <ele>148</ele>
        <time>2021-03-28T08:19:11Z</time>
      </trkpt>
      <trkpt lat="42.87165" lon="2.71409">
        <ele>148</ele>
        <time>2021-03-28T08:19:11Z</time>
      </trkpt>
      <trkpt lat="42.87155" lon="2.71408">
        <ele>148</ele>
        <time>2021-03-28T08:19:13Z</time>
      </trkpt>
      <trkpt lat="42.87155" lon="2.71408">
        <ele>148</ele>
        <time>2021-03-28T08:19:13Z</time>
      </trkpt>
      <trkpt lat="42.87145" lon="2.71407">
        <ele>148</ele>
        <time>2021-03-28T08:19:15Z</time>
      </trkpt>
      <trkpt lat="42.87145" lon="2.71407">
        <ele>148</ele>
        <time>2021-03-28T08:19:15Z</time>
      </trkpt>
      <trkpt lat="42.87134" lon="2.71407">
        <ele>147.9</ele>
        <time>2021-03-28T08:19:17Z</time>
      </trkpt>
      <trkpt lat="42.87134" lon="2.71407">
        <ele>147.9</ele>
        <time>2021-03-28T08:19:17Z</time>
      </trkpt>
      <trkpt lat="42.87125" lon="2.71407">
        <ele>147.7</ele>
        <time>2021-03-28T08:19:18Z</time>
      </trkpt>
      <trkpt lat="42.87125" lon="2.71407">
        <ele>147.7</ele>
        <time>2021-03-28T08:19:18Z</time>
      </trkpt>
      <trkpt lat="42.87115" lon="2.71407">
        <ele>147.4</ele>
        <time>2021-03-28T08:19:20Z</time>
      </trkpt>
      <trkpt lat="42.87115" lon="2.71407">
        <ele>147.4</ele>
        <time>2021-03-28T08:19:20Z</time>
      </trkpt>
      <trkpt lat="42.87104" lon="2.71407">
        <ele>147.4</ele>
        <time>2021-03-28T08:19:22Z</time>
      </trkpt>
      <trkpt lat="42.87104" lon="2.71407">
        <ele>147.4</ele>
        <time>2021-03-28T08:19:22Z</time>
      </trkpt>
      <trkpt lat="42.87092" lon="2.71406">
        <ele>147.4</ele>
        <time>2021-03-28T08:19:24Z</time>
      </trkpt>
      <trkpt lat="42.87092" lon="2.71406">
        <ele>147.4</ele>
        <time>2021-03-28T08:19:24Z</time>
      </trkpt>
      <trkpt lat="42.87082" lon="2.71406">
        <ele>147.4</ele>
        <time>2021-03-28T08:19:25Z</time>
      </trkpt>
      <trkpt lat="42.87082" lon="2.71406">
        <ele>147.4</ele>
        <time>2021-03-28T08:19:25Z</time>
      </trkpt>
      <trkpt lat="42.87073" lon="2.71405">
        <ele>147.3</ele>
        <time>2021-03-28T08:19:26Z</time>
      </trkpt>
      <trkpt lat="42.87073" lon="2.71405">
        <ele>147.3</ele>
        <time>2021-03-28T08:19:26Z</time>
      </trkpt>
      <trkpt lat="42.87064" lon="2.71405">
        <ele>147.1</ele>
        <time>2021-03-28T08:19:28Z</time>
      </trkpt>
      <trkpt lat="42.87064" lon="2.71405">
        <ele>147.1</ele>
        <time>2021-03-28T08:19:28Z</time>
      </trkpt>
      <trkpt lat="42.87054" lon="2.71407">
        <ele>147</ele>
        <time>2021-03-28T08:19:30Z</time>
      </trkpt>
      <trkpt lat="42.87054" lon="2.71407">
        <ele>147</ele>
        <time>2021-03-28T08:19:30Z</time>
      </trkpt>
      <trkpt lat="42.87043" lon="2.71409">
        <ele>147</ele>
        <time>2021-03-28T08:19:32Z</time>
      </trkpt>
      <trkpt lat="42.87043" lon="2.71409">
        <ele>147</ele>
        <time>2021-03-28T08:19:32Z</time>
      </trkpt>
      <trkpt lat="42.87031" lon="2.71414">
        <ele>147</ele>
        <time>2021-03-28T08:19:34Z</time>
      </trkpt>
      <trkpt lat="42.87031" lon="2.71414">
        <ele>147</ele>
        <time>2021-03-28T08:19:34Z</time>
      </trkpt>
      <trkpt lat="42.87021" lon="2.71417">
        <ele>146.7</ele>
        <time>2021-03-28T08:19:35Z</time>
      </trkpt>
      <trkpt lat="42.87021" lon="2.71417">
        <ele>146.7</ele>
        <time>2021-03-28T08:19:35Z</time>
      </trkpt>
      <trkpt lat="42.8701" lon="2.71422">
        <ele>146.3</ele>
        <time>2021-03-28T08:19:37Z</time>
      </trkpt>
      <trkpt lat="42.8701" lon="2.71422">
        <ele>146.3</ele>
        <time>2021-03-28T08:19:37Z</time>
      </trkpt>
      <trkpt lat="42.86997" lon="2.71427">
        <ele>145.9</ele>
        <time>2021-03-28T08:19:39Z</time>
      </trkpt>
      <trkpt lat="42.86997" lon="2.71427">
        <ele>145.9</ele>
        <time>2021-03-28T08:19:39Z</time>
      </trkpt>
      <trkpt lat="42.86987" lon="2.71431">
        <ele>145.5</ele>
        <time>2021-03-28T08:19:40Z</time>
      </trkpt>
      <trkpt lat="42.86987" lon="2.71431">
        <ele>145.5</ele>
        <time>2021-03-28T08:19:40Z</time>
      </trkpt>
      <trkpt lat="42.86975" lon="2.71434">
        <ele>145.1</ele>
        <time>2021-03-28T08:19:42Z</time>
      </trkpt>
      <trkpt lat="42.86975" lon="2.71434">
        <ele>145.1</ele>
        <time>2021-03-28T08:19:42Z</time>
      </trkpt>
      <trkpt lat="42.86965" lon="2.71436">
        <ele>145</ele>
        <time>2021-03-28T08:19:43Z</time>
      </trkpt>
      <trkpt lat="42.86965" lon="2.71436">
        <ele>145</ele>
        <time>2021-03-28T08:19:43Z</time>
      </trkpt>
      <trkpt lat="42.86954" lon="2.71437">
        <ele>145</ele>
        <time>2021-03-28T08:19:45Z</time>
      </trkpt>
      <trkpt lat="42.86954" lon="2.71437">
        <ele>145</ele>
        <time>2021-03-28T08:19:45Z</time>
      </trkpt>
      <trkpt lat="42.86942" lon="2.71437">
        <ele>144.9</ele>
        <time>2021-03-28T08:19:47Z</time>
      </trkpt>
      <trkpt lat="42.86942" lon="2.71437">
        <ele>144.9</ele>
        <time>2021-03-28T08:19:47Z</time>
      </trkpt>
      <trkpt lat="42.86929" lon="2.71435">
        <ele>144.6</ele>
        <time>2021-03-28T08:19:49Z</time>
      </trkpt>
      <trkpt lat="42.86929" lon="2.71435">
        <ele>144.6</ele>
        <time>2021-03-28T08:19:49Z</time>
      </trkpt>
      <trkpt lat="42.86919" lon="2.71433">
        <ele>144.4</ele>
        <time>2021-03-28T08:19:50Z</time>
      </trkpt>
      <trkpt lat="42.86919" lon="2.71433">
        <ele>144.4</ele>
        <time>2021-03-28T08:19:50Z</time>
      </trkpt>
      <trkpt lat="42.86907" lon="2.71431">
        <ele>144.3</ele>
        <time>2021-03-28T08:19:52Z</time>
      </trkpt>
      <trkpt lat="42.86907" lon="2.71431">
        <ele>144.3</ele>
        <time>2021-03-28T08:19:52Z</time>
      </trkpt>
      <trkpt lat="42.86895" lon="2.71428">
        <ele>144.3</ele>
        <time>2021-03-28T08:19:54Z</time>
      </trkpt>
      <trkpt lat="42.86895" lon="2.71428">
        <ele>144.3</ele>
        <time>2021-03-28T08:19:54Z</time>
      </trkpt>
      <trkpt lat="42.86885" lon="2.71426">
        <ele>144.2</ele>
        <time>2021-03-28T08:19:55Z</time>
      </trkpt>
      <trkpt lat="42.86885" lon="2.71426">
        <ele>144.2</ele>
        <time>2021-03-28T08:19:55Z</time>
      </trkpt>
      <trkpt lat="42.86874" lon="2.71424">
        <ele>144.1</ele>
        <time>2021-03-28T08:19:57Z</time>
      </trkpt>
      <trkpt lat="42.86874" lon="2.71424">
        <ele>144.1</ele>
        <time>2021-03-28T08:19:57Z</time>
      </trkpt>
      <trkpt lat="42.86862" lon="2.71422">
        <ele>143.8</ele>
        <time>2021-03-28T08:19:59Z</time>
      </trkpt>
      <trkpt lat="42.86862" lon="2.71422">
        <ele>143.8</ele>
        <time>2021-03-28T08:19:59Z</time>
      </trkpt>
      <trkpt lat="42.86852" lon="2.71421">
        <ele>144.2</ele>
        <time>2021-03-28T08:20:00Z</time>
      </trkpt>
      <trkpt lat="42.86852" lon="2.71421">
        <ele>144.2</ele>
        <time>2021-03-28T08:20:00Z</time>
      </trkpt>
      <trkpt lat="42.86843" lon="2.7142">
        <ele>144.5</ele>
        <time>2021-03-28T08:20:01Z</time>
      </trkpt>
      <trkpt lat="42.86843" lon="2.7142">
        <ele>144.5</ele>
        <time>2021-03-28T08:20:01Z</time>
      </trkpt>
      <trkpt lat="42.86833" lon="2.71421">
        <ele>144.8</ele>
        <time>2021-03-28T08:20:03Z</time>
      </trkpt>
      <trkpt lat="42.86833" lon="2.71421">
        <ele>144.8</ele>
        <time>2021-03-28T08:20:03Z</time>
      </trkpt>
      <trkpt lat="42.86825" lon="2.71423">
        <ele>144.8</ele>
        <time>2021-03-28T08:20:04Z</time>
      </trkpt>
      <trkpt lat="42.86825" lon="2.71423">
        <ele>144.8</ele>
        <time>2021-03-28T08:20:04Z</time>
      </trkpt>
      <trkpt lat="42.86817" lon="2.71426">
        <ele>144.7</ele>
        <time>2021-03-28T08:20:05Z</time>
      </trkpt>
      <trkpt lat="42.86817" lon="2.71426">
        <ele>144.7</ele>
        <time>2021-03-28T08:20:05Z</time>
      </trkpt>
      <trkpt lat="42.86809" lon="2.71432">
        <ele>144.4</ele>
        <time>2021-03-28T08:20:07Z</time>
      </trkpt>
      <trkpt lat="42.86809" lon="2.71432">
        <ele>144.4</ele>
        <time>2021-03-28T08:20:07Z</time>
      </trkpt>
      <trkpt lat="42.86802" lon="2.71441">
        <ele>144.2</ele>
        <time>2021-03-28T08:20:09Z</time>
      </trkpt>
      <trkpt lat="42.86802" lon="2.71441">
        <ele>144.2</ele>
        <time>2021-03-28T08:20:09Z</time>
      </trkpt>
      <trkpt lat="42.86795" lon="2.71452">
        <ele>144.4</ele>
        <time>2021-03-28T08:20:11Z</time>
      </trkpt>
      <trkpt lat="42.86795" lon="2.71452">
        <ele>144.4</ele>
        <time>2021-03-28T08:20:11Z</time>
      </trkpt>
      <trkpt lat="42.86789" lon="2.71465">
        <ele>144.6</ele>
        <time>2021-03-28T08:20:13Z</time>
      </trkpt>
      <trkpt lat="42.86789" lon="2.71465">
        <ele>144.6</ele>
        <time>2021-03-28T08:20:13Z</time>
      </trkpt>
      <trkpt lat="42.86784" lon="2.71477">
        <ele>144.8</ele>
        <time>2021-03-28T08:20:14Z</time>
      </trkpt>
      <trkpt lat="42.86784" lon="2.71477">
        <ele>144.8</ele>
        <time>2021-03-28T08:20:14Z</time>
      </trkpt>
      <trkpt lat="42.86779" lon="2.71491">
        <ele>145</ele>
        <time>2021-03-28T08:20:16Z</time>
      </trkpt>
      <trkpt lat="42.86779" lon="2.71491">
        <ele>145</ele>
        <time>2021-03-28T08:20:16Z</time>
      </trkpt>
      <trkpt lat="42.86773" lon="2.71506">
        <ele>144.7</ele>
        <time>2021-03-28T08:20:18Z</time>
      </trkpt>
      <trkpt lat="42.86773" lon="2.71506">
        <ele>144.7</ele>
        <time>2021-03-28T08:20:18Z</time>
      </trkpt>
      <trkpt lat="42.86768" lon="2.71523">
        <ele>144</ele>
        <time>2021-03-28T08:20:20Z</time>
      </trkpt>
      <trkpt lat="42.86768" lon="2.71523">
        <ele>144</ele>
        <time>2021-03-28T08:20:20Z</time>
      </trkpt>
      <trkpt lat="42.8676" lon="2.71539">
        <ele>143.1</ele>
        <time>2021-03-28T08:20:22Z</time>
      </trkpt>
      <trkpt lat="42.8676" lon="2.71539">
        <ele>143.1</ele>
        <time>2021-03-28T08:20:22Z</time>
      </trkpt>
      <trkpt lat="42.8675" lon="2.71555">
        <ele>142</ele>
        <time>2021-03-28T08:20:24Z</time>
      </trkpt>
      <trkpt lat="42.8675" lon="2.71555">
        <ele>142</ele>
        <time>2021-03-28T08:20:24Z</time>
      </trkpt>
      <trkpt lat="42.86742" lon="2.71567">
        <ele>141.4</ele>
        <time>2021-03-28T08:20:25Z</time>
      </trkpt>
      <trkpt lat="42.86742" lon="2.71567">
        <ele>141.4</ele>
        <time>2021-03-28T08:20:25Z</time>
      </trkpt>
      <trkpt lat="42.86733" lon="2.71577">
        <ele>140.8</ele>
        <time>2021-03-28T08:20:26Z</time>
      </trkpt>
      <trkpt lat="42.86733" lon="2.71577">
        <ele>140.8</ele>
        <time>2021-03-28T08:20:26Z</time>
      </trkpt>
      <trkpt lat="42.86725" lon="2.71585">
        <ele>140.2</ele>
        <time>2021-03-28T08:20:27Z</time>
      </trkpt>
      <trkpt lat="42.86725" lon="2.71585">
        <ele>140.2</ele>
        <time>2021-03-28T08:20:27Z</time>
      </trkpt>
      <trkpt lat="42.86717" lon="2.71594">
        <ele>139.9</ele>
        <time>2021-03-28T08:20:28Z</time>
      </trkpt>
      <trkpt lat="42.86717" lon="2.71594">
        <ele>139.9</ele>
        <time>2021-03-28T08:20:28Z</time>
      </trkpt>
      <trkpt lat="42.86707" lon="2.71603">
        <ele>139.6</ele>
        <time>2021-03-28T08:20:30Z</time>
      </trkpt>
      <trkpt lat="42.86707" lon="2.71603">
        <ele>139.6</ele>
        <time>2021-03-28T08:20:30Z</time>
      </trkpt>
      <trkpt lat="42.86696" lon="2.71614">
        <ele>139</ele>
        <time>2021-03-28T08:20:32Z</time>
      </trkpt>
      <trkpt lat="42.86696" lon="2.71614">
        <ele>139</ele>
        <time>2021-03-28T08:20:32Z</time>
      </trkpt>
      <trkpt lat="42.86686" lon="2.71622">
        <ele>138.9</ele>
        <time>2021-03-28T08:20:33Z</time>
      </trkpt>
      <trkpt lat="42.86686" lon="2.71622">
        <ele>138.9</ele>
        <time>2021-03-28T08:20:33Z</time>
      </trkpt>
      <trkpt lat="42.86677" lon="2.7163">
        <ele>138.9</ele>
        <time>2021-03-28T08:20:34Z</time>
      </trkpt>
      <trkpt lat="42.86677" lon="2.7163">
        <ele>138.9</ele>
        <time>2021-03-28T08:20:34Z</time>
      </trkpt>
      <trkpt lat="42.86667" lon="2.71638">
        <ele>139</ele>
        <time>2021-03-28T08:20:36Z</time>
      </trkpt>
      <trkpt lat="42.86667" lon="2.71638">
        <ele>139</ele>
        <time>2021-03-28T08:20:36Z</time>
      </trkpt>
      <trkpt lat="42.86658" lon="2.71644">
        <ele>139.1</ele>
        <time>2021-03-28T08:20:37Z</time>
      </trkpt>
      <trkpt lat="42.86658" lon="2.71644">
        <ele>139.1</ele>
        <time>2021-03-28T08:20:37Z</time>
      </trkpt>
      <trkpt lat="42.86649" lon="2.71649">
        <ele>139</ele>
        <time>2021-03-28T08:20:38Z</time>
      </trkpt>
      <trkpt lat="42.86649" lon="2.71649">
        <ele>139</ele>
        <time>2021-03-28T08:20:38Z</time>
      </trkpt>
      <trkpt lat="42.86639" lon="2.71652">
        <ele>139.1</ele>
        <time>2021-03-28T08:20:40Z</time>
      </trkpt>
      <trkpt lat="42.86639" lon="2.71652">
        <ele>139.1</ele>
        <time>2021-03-28T08:20:40Z</time>
      </trkpt>
      <trkpt lat="42.86628" lon="2.71653">
        <ele>138.8</ele>
        <time>2021-03-28T08:20:42Z</time>
      </trkpt>
      <trkpt lat="42.86628" lon="2.71653">
        <ele>138.8</ele>
        <time>2021-03-28T08:20:42Z</time>
      </trkpt>
      <trkpt lat="42.86616" lon="2.71653">
        <ele>138.6</ele>
        <time>2021-03-28T08:20:44Z</time>
      </trkpt>
      <trkpt lat="42.86616" lon="2.71653">
        <ele>138.6</ele>
        <time>2021-03-28T08:20:44Z</time>
      </trkpt>
      <trkpt lat="42.86604" lon="2.71652">
        <ele>138.3</ele>
        <time>2021-03-28T08:20:46Z</time>
      </trkpt>
      <trkpt lat="42.86604" lon="2.71652">
        <ele>138.3</ele>
        <time>2021-03-28T08:20:46Z</time>
      </trkpt>
      <trkpt lat="42.86593" lon="2.71651">
        <ele>137.9</ele>
        <time>2021-03-28T08:20:47Z</time>
      </trkpt>
      <trkpt lat="42.86593" lon="2.71651">
        <ele>137.9</ele>
        <time>2021-03-28T08:20:47Z</time>
      </trkpt>
      <trkpt lat="42.86582" lon="2.71649">
        <ele>137.7</ele>
        <time>2021-03-28T08:20:49Z</time>
      </trkpt>
      <trkpt lat="42.86582" lon="2.71649">
        <ele>137.7</ele>
        <time>2021-03-28T08:20:49Z</time>
      </trkpt>
      <trkpt lat="42.8657" lon="2.71646">
        <ele>137.7</ele>
        <time>2021-03-28T08:20:51Z</time>
      </trkpt>
      <trkpt lat="42.8657" lon="2.71646">
        <ele>137.7</ele>
        <time>2021-03-28T08:20:51Z</time>
      </trkpt>
      <trkpt lat="42.86559" lon="2.71644">
        <ele>137.8</ele>
        <time>2021-03-28T08:20:52Z</time>
      </trkpt>
      <trkpt lat="42.86559" lon="2.71644">
        <ele>137.8</ele>
        <time>2021-03-28T08:20:52Z</time>
      </trkpt>
      <trkpt lat="42.86548" lon="2.71641">
        <ele>137.9</ele>
        <time>2021-03-28T08:20:54Z</time>
      </trkpt>
      <trkpt lat="42.86548" lon="2.71641">
        <ele>137.9</ele>
        <time>2021-03-28T08:20:54Z</time>
      </trkpt>
      <trkpt lat="42.86537" lon="2.71638">
        <ele>138</ele>
        <time>2021-03-28T08:20:56Z</time>
      </trkpt>
      <trkpt lat="42.86537" lon="2.71638">
        <ele>138</ele>
        <time>2021-03-28T08:20:56Z</time>
      </trkpt>
      <trkpt lat="42.86525" lon="2.71637">
        <ele>138</ele>
        <time>2021-03-28T08:20:58Z</time>
      </trkpt>
      <trkpt lat="42.86525" lon="2.71637">
        <ele>138</ele>
        <time>2021-03-28T08:20:58Z</time>
      </trkpt>
      <trkpt lat="42.86513" lon="2.71637">
        <ele>138</ele>
        <time>2021-03-28T08:21:00Z</time>
      </trkpt>
      <trkpt lat="42.86513" lon="2.71637">
        <ele>138</ele>
        <time>2021-03-28T08:21:00Z</time>
      </trkpt>
      <trkpt lat="42.86502" lon="2.71637">
        <ele>138</ele>
        <time>2021-03-28T08:21:01Z</time>
      </trkpt>
      <trkpt lat="42.86502" lon="2.71637">
        <ele>138</ele>
        <time>2021-03-28T08:21:01Z</time>
      </trkpt>
      <trkpt lat="42.86491" lon="2.71639">
        <ele>138</ele>
        <time>2021-03-28T08:21:03Z</time>
      </trkpt>
      <trkpt lat="42.86491" lon="2.71639">
        <ele>138</ele>
        <time>2021-03-28T08:21:03Z</time>
      </trkpt>
      <trkpt lat="42.86482" lon="2.71641">
        <ele>138</ele>
        <time>2021-03-28T08:21:04Z</time>
      </trkpt>
      <trkpt lat="42.86482" lon="2.71641">
        <ele>138</ele>
        <time>2021-03-28T08:21:04Z</time>
      </trkpt>
      <trkpt lat="42.86473" lon="2.71643">
        <ele>138</ele>
        <time>2021-03-28T08:21:05Z</time>
      </trkpt>
      <trkpt lat="42.86473" lon="2.71643">
        <ele>138</ele>
        <time>2021-03-28T08:21:05Z</time>
      </trkpt>
      <trkpt lat="42.86464" lon="2.71646">
        <ele>138.1</ele>
        <time>2021-03-28T08:21:07Z</time>
      </trkpt>
      <trkpt lat="42.86464" lon="2.71646">
        <ele>138.1</ele>
        <time>2021-03-28T08:21:07Z</time>
      </trkpt>
      <trkpt lat="42.86454" lon="2.71652">
        <ele>138.3</ele>
        <time>2021-03-28T08:21:09Z</time>
      </trkpt>
      <trkpt lat="42.86454" lon="2.71652">
        <ele>138.3</ele>
        <time>2021-03-28T08:21:09Z</time>
      </trkpt>
      <trkpt lat="42.86446" lon="2.71658">
        <ele>138.6</ele>
        <time>2021-03-28T08:21:10Z</time>
      </trkpt>
      <trkpt lat="42.86446" lon="2.71658">
        <ele>138.6</ele>
        <time>2021-03-28T08:21:10Z</time>
      </trkpt>
      <trkpt lat="42.86439" lon="2.71664">
        <ele>138.9</ele>
        <time>2021-03-28T08:21:11Z</time>
      </trkpt>
      <trkpt lat="42.86439" lon="2.71664">
        <ele>138.9</ele>
        <time>2021-03-28T08:21:11Z</time>
      </trkpt>
      <trkpt lat="42.86431" lon="2.71671">
        <ele>139</ele>
        <time>2021-03-28T08:21:13Z</time>
      </trkpt>
      <trkpt lat="42.86431" lon="2.71671">
        <ele>139</ele>
        <time>2021-03-28T08:21:13Z</time>
      </trkpt>
      <trkpt lat="42.86425" lon="2.71678">
        <ele>139</ele>
        <time>2021-03-28T08:21:14Z</time>
      </trkpt>
      <trkpt lat="42.86425" lon="2.71678">
        <ele>139</ele>
        <time>2021-03-28T08:21:14Z</time>
      </trkpt>
      <trkpt lat="42.8642" lon="2.71685">
        <ele>139</ele>
        <time>2021-03-28T08:21:15Z</time>
      </trkpt>
      <trkpt lat="42.8642" lon="2.71685">
        <ele>139</ele>
        <time>2021-03-28T08:21:15Z</time>
      </trkpt>
      <trkpt lat="42.86413" lon="2.71694">
        <ele>138.5</ele>
        <time>2021-03-28T08:21:17Z</time>
      </trkpt>
      <trkpt lat="42.86413" lon="2.71694">
        <ele>138.5</ele>
        <time>2021-03-28T08:21:17Z</time>
      </trkpt>
      <trkpt lat="42.86406" lon="2.71704">
        <ele>138.1</ele>
        <time>2021-03-28T08:21:19Z</time>
      </trkpt>
      <trkpt lat="42.86406" lon="2.71704">
        <ele>138.1</ele>
        <time>2021-03-28T08:21:19Z</time>
      </trkpt>
      <trkpt lat="42.86399" lon="2.71714">
        <ele>138.1</ele>
        <time>2021-03-28T08:21:21Z</time>
      </trkpt>
      <trkpt lat="42.86399" lon="2.71714">
        <ele>138.1</ele>
        <time>2021-03-28T08:21:21Z</time>
      </trkpt>
      <trkpt lat="42.86394" lon="2.71722">
        <ele>138.3</ele>
        <time>2021-03-28T08:21:22Z</time>
      </trkpt>
      <trkpt lat="42.86394" lon="2.71722">
        <ele>138.3</ele>
        <time>2021-03-28T08:21:22Z</time>
      </trkpt>
      <trkpt lat="42.86389" lon="2.7173">
        <ele>138</ele>
        <time>2021-03-28T08:21:23Z</time>
      </trkpt>
      <trkpt lat="42.86389" lon="2.7173">
        <ele>138</ele>
        <time>2021-03-28T08:21:23Z</time>
      </trkpt>
      <trkpt lat="42.86383" lon="2.71741">
        <ele>137.3</ele>
        <time>2021-03-28T08:21:25Z</time>
      </trkpt>
      <trkpt lat="42.86383" lon="2.71741">
        <ele>137.3</ele>
        <time>2021-03-28T08:21:25Z</time>
      </trkpt>
      <trkpt lat="42.86377" lon="2.71754">
        <ele>137.1</ele>
        <time>2021-03-28T08:21:27Z</time>
      </trkpt>
      <trkpt lat="42.86377" lon="2.71754">
        <ele>137.1</ele>
        <time>2021-03-28T08:21:27Z</time>
      </trkpt>
      <trkpt lat="42.86372" lon="2.71766">
        <ele>136.5</ele>
        <time>2021-03-28T08:21:28Z</time>
      </trkpt>
      <trkpt lat="42.86372" lon="2.71766">
        <ele>136.5</ele>
        <time>2021-03-28T08:21:28Z</time>
      </trkpt>
      <trkpt lat="42.86365" lon="2.71778">
        <ele>136.1</ele>
        <time>2021-03-28T08:21:30Z</time>
      </trkpt>
      <trkpt lat="42.86365" lon="2.71778">
        <ele>136.1</ele>
        <time>2021-03-28T08:21:30Z</time>
      </trkpt>
      <trkpt lat="42.86359" lon="2.71789">
        <ele>136</ele>
        <time>2021-03-28T08:21:31Z</time>
      </trkpt>
      <trkpt lat="42.86359" lon="2.71789">
        <ele>136</ele>
        <time>2021-03-28T08:21:31Z</time>
      </trkpt>
      <trkpt lat="42.86352" lon="2.718">
        <ele>136</ele>
        <time>2021-03-28T08:21:33Z</time>
      </trkpt>
      <trkpt lat="42.86352" lon="2.718">
        <ele>136</ele>
        <time>2021-03-28T08:21:33Z</time>
      </trkpt>
      <trkpt lat="42.86344" lon="2.71809">
        <ele>136</ele>
        <time>2021-03-28T08:21:34Z</time>
      </trkpt>
      <trkpt lat="42.86344" lon="2.71809">
        <ele>136</ele>
        <time>2021-03-28T08:21:34Z</time>
      </trkpt>
      <trkpt lat="42.86338" lon="2.71817">
        <ele>136</ele>
        <time>2021-03-28T08:21:35Z</time>
      </trkpt>
      <trkpt lat="42.86338" lon="2.71817">
        <ele>136</ele>
        <time>2021-03-28T08:21:35Z</time>
      </trkpt>
      <trkpt lat="42.8633" lon="2.71828">
        <ele>135.9</ele>
        <time>2021-03-28T08:21:37Z</time>
      </trkpt>
      <trkpt lat="42.8633" lon="2.71828">
        <ele>135.9</ele>
        <time>2021-03-28T08:21:37Z</time>
      </trkpt>
      <trkpt lat="42.8632" lon="2.71839">
        <ele>135.5</ele>
        <time>2021-03-28T08:21:39Z</time>
      </trkpt>
      <trkpt lat="42.8632" lon="2.71839">
        <ele>135.5</ele>
        <time>2021-03-28T08:21:39Z</time>
      </trkpt>
      <trkpt lat="42.86309" lon="2.71848">
        <ele>135.1</ele>
        <time>2021-03-28T08:21:41Z</time>
      </trkpt>
      <trkpt lat="42.86309" lon="2.71848">
        <ele>135.1</ele>
        <time>2021-03-28T08:21:41Z</time>
      </trkpt>
      <trkpt lat="42.86299" lon="2.71855">
        <ele>134.8</ele>
        <time>2021-03-28T08:21:42Z</time>
      </trkpt>
      <trkpt lat="42.86299" lon="2.71855">
        <ele>134.8</ele>
        <time>2021-03-28T08:21:42Z</time>
      </trkpt>
      <trkpt lat="42.86287" lon="2.7186">
        <ele>134.3</ele>
        <time>2021-03-28T08:21:44Z</time>
      </trkpt>
      <trkpt lat="42.86287" lon="2.7186">
        <ele>134.3</ele>
        <time>2021-03-28T08:21:44Z</time>
      </trkpt>
      <trkpt lat="42.86277" lon="2.71865">
        <ele>134.1</ele>
        <time>2021-03-28T08:21:45Z</time>
      </trkpt>
      <trkpt lat="42.86277" lon="2.71865">
        <ele>134.1</ele>
        <time>2021-03-28T08:21:45Z</time>
      </trkpt>
      <trkpt lat="42.86268" lon="2.71868">
        <ele>134.3</ele>
        <time>2021-03-28T08:21:46Z</time>
      </trkpt>
      <trkpt lat="42.86268" lon="2.71868">
        <ele>134.3</ele>
        <time>2021-03-28T08:21:46Z</time>
      </trkpt>
      <trkpt lat="42.86257" lon="2.71871">
        <ele>134.4</ele>
        <time>2021-03-28T08:21:48Z</time>
      </trkpt>
      <trkpt lat="42.86257" lon="2.71871">
        <ele>134.4</ele>
        <time>2021-03-28T08:21:48Z</time>
      </trkpt>
      <trkpt lat="42.86247" lon="2.71873">
        <ele>134.3</ele>
        <time>2021-03-28T08:21:49Z</time>
      </trkpt>
      <trkpt lat="42.86247" lon="2.71873">
        <ele>134.3</ele>
        <time>2021-03-28T08:21:49Z</time>
      </trkpt>
      <trkpt lat="42.86236" lon="2.71874">
        <ele>134</ele>
        <time>2021-03-28T08:21:51Z</time>
      </trkpt>
      <trkpt lat="42.86236" lon="2.71874">
        <ele>134</ele>
        <time>2021-03-28T08:21:51Z</time>
      </trkpt>
      <trkpt lat="42.86223" lon="2.71876">
        <ele>133.6</ele>
        <time>2021-03-28T08:21:53Z</time>
      </trkpt>
      <trkpt lat="42.86223" lon="2.71876">
        <ele>133.6</ele>
        <time>2021-03-28T08:21:53Z</time>
      </trkpt>
      <trkpt lat="42.86213" lon="2.71877">
        <ele>133.2</ele>
        <time>2021-03-28T08:21:54Z</time>
      </trkpt>
      <trkpt lat="42.86213" lon="2.71877">
        <ele>133.2</ele>
        <time>2021-03-28T08:21:54Z</time>
      </trkpt>
      <trkpt lat="42.86204" lon="2.71877">
        <ele>132.9</ele>
        <time>2021-03-28T08:21:55Z</time>
      </trkpt>
      <trkpt lat="42.86204" lon="2.71877">
        <ele>132.9</ele>
        <time>2021-03-28T08:21:55Z</time>
      </trkpt>
      <trkpt lat="42.86194" lon="2.71878">
        <ele>132.6</ele>
        <time>2021-03-28T08:21:57Z</time>
      </trkpt>
      <trkpt lat="42.86194" lon="2.71878">
        <ele>132.6</ele>
        <time>2021-03-28T08:21:57Z</time>
      </trkpt>
      <trkpt lat="42.86185" lon="2.71879">
        <ele>132.4</ele>
        <time>2021-03-28T08:21:58Z</time>
      </trkpt>
      <trkpt lat="42.86185" lon="2.71879">
        <ele>132.4</ele>
        <time>2021-03-28T08:21:58Z</time>
      </trkpt>
      <trkpt lat="42.86174" lon="2.71879">
        <ele>132.2</ele>
        <time>2021-03-28T08:22:00Z</time>
      </trkpt>
      <trkpt lat="42.86174" lon="2.71879">
        <ele>132.2</ele>
        <time>2021-03-28T08:22:00Z</time>
      </trkpt>
      <trkpt lat="42.86166" lon="2.7188">
        <ele>132</ele>
        <time>2021-03-28T08:22:01Z</time>
      </trkpt>
      <trkpt lat="42.86166" lon="2.7188">
        <ele>132</ele>
        <time>2021-03-28T08:22:01Z</time>
      </trkpt>
      <trkpt lat="42.86156" lon="2.7188">
        <ele>131.9</ele>
        <time>2021-03-28T08:22:03Z</time>
      </trkpt>
      <trkpt lat="42.86156" lon="2.7188">
        <ele>131.9</ele>
        <time>2021-03-28T08:22:03Z</time>
      </trkpt>
      <trkpt lat="42.86147" lon="2.7188">
        <ele>131.8</ele>
        <time>2021-03-28T08:22:04Z</time>
      </trkpt>
      <trkpt lat="42.86147" lon="2.7188">
        <ele>131.8</ele>
        <time>2021-03-28T08:22:04Z</time>
      </trkpt>
      <trkpt lat="42.86136" lon="2.71879">
        <ele>131.7</ele>
        <time>2021-03-28T08:22:06Z</time>
      </trkpt>
      <trkpt lat="42.86136" lon="2.71879">
        <ele>131.7</ele>
        <time>2021-03-28T08:22:06Z</time>
      </trkpt>
      <trkpt lat="42.86126" lon="2.71878">
        <ele>131.8</ele>
        <time>2021-03-28T08:22:08Z</time>
      </trkpt>
      <trkpt lat="42.86126" lon="2.71878">
        <ele>131.8</ele>
        <time>2021-03-28T08:22:08Z</time>
      </trkpt>
      <trkpt lat="42.86114" lon="2.71877">
        <ele>132</ele>
        <time>2021-03-28T08:22:10Z</time>
      </trkpt>
      <trkpt lat="42.86114" lon="2.71877">
        <ele>132</ele>
        <time>2021-03-28T08:22:10Z</time>
      </trkpt>
      <trkpt lat="42.86103" lon="2.71877">
        <ele>132.2</ele>
        <time>2021-03-28T08:22:12Z</time>
      </trkpt>
      <trkpt lat="42.86103" lon="2.71877">
        <ele>132.2</ele>
        <time>2021-03-28T08:22:12Z</time>
      </trkpt>
      <trkpt lat="42.86093" lon="2.71878">
        <ele>132.4</ele>
        <time>2021-03-28T08:22:13Z</time>
      </trkpt>
      <trkpt lat="42.86093" lon="2.71878">
        <ele>132.4</ele>
        <time>2021-03-28T08:22:13Z</time>
      </trkpt>
      <trkpt lat="42.86083" lon="2.71878">
        <ele>132.6</ele>
        <time>2021-03-28T08:22:15Z</time>
      </trkpt>
      <trkpt lat="42.86083" lon="2.71878">
        <ele>132.6</ele>
        <time>2021-03-28T08:22:15Z</time>
      </trkpt>
      <trkpt lat="42.86072" lon="2.71878">
        <ele>132.9</ele>
        <time>2021-03-28T08:22:17Z</time>
      </trkpt>
      <trkpt lat="42.86072" lon="2.71878">
        <ele>132.9</ele>
        <time>2021-03-28T08:22:17Z</time>
      </trkpt>
      <trkpt lat="42.86064" lon="2.71878">
        <ele>133.1</ele>
        <time>2021-03-28T08:22:18Z</time>
      </trkpt>
      <trkpt lat="42.86064" lon="2.71878">
        <ele>133.1</ele>
        <time>2021-03-28T08:22:18Z</time>
      </trkpt>
      <trkpt lat="42.86055" lon="2.71879">
        <ele>133.2</ele>
        <time>2021-03-28T08:22:19Z</time>
      </trkpt>
      <trkpt lat="42.86055" lon="2.71879">
        <ele>133.2</ele>
        <time>2021-03-28T08:22:19Z</time>
      </trkpt>
      <trkpt lat="42.86048" lon="2.71879">
        <ele>132.3</ele>
        <time>2021-03-28T08:22:20Z</time>
      </trkpt>
      <trkpt lat="42.86048" lon="2.71879">
        <ele>132.3</ele>
        <time>2021-03-28T08:22:20Z</time>
      </trkpt>
      <trkpt lat="42.86042" lon="2.7188">
        <ele>131.5</ele>
        <time>2021-03-28T08:22:21Z</time>
      </trkpt>
      <trkpt lat="42.86042" lon="2.7188">
        <ele>131.5</ele>
        <time>2021-03-28T08:22:21Z</time>
      </trkpt>
      <trkpt lat="42.86034" lon="2.7188">
        <ele>130.5</ele>
        <time>2021-03-28T08:22:23Z</time>
      </trkpt>
      <trkpt lat="42.86034" lon="2.7188">
        <ele>130.5</ele>
        <time>2021-03-28T08:22:23Z</time>
      </trkpt>
      <trkpt lat="42.86026" lon="2.7188">
        <ele>129.7</ele>
        <time>2021-03-28T08:22:25Z</time>
      </trkpt>
      <trkpt lat="42.86026" lon="2.7188">
        <ele>129.7</ele>
        <time>2021-03-28T08:22:25Z</time>
      </trkpt>
      <trkpt lat="42.86019" lon="2.7188">
        <ele>129.7</ele>
        <time>2021-03-28T08:22:26Z</time>
      </trkpt>
      <trkpt lat="42.86019" lon="2.7188">
        <ele>129.7</ele>
        <time>2021-03-28T08:22:26Z</time>
      </trkpt>
      <trkpt lat="42.86012" lon="2.7188">
        <ele>129.7</ele>
        <time>2021-03-28T08:22:27Z</time>
      </trkpt>
      <trkpt lat="42.86012" lon="2.7188">
        <ele>129.7</ele>
        <time>2021-03-28T08:22:27Z</time>
      </trkpt>
      <trkpt lat="42.86005" lon="2.7188">
        <ele>129.7</ele>
        <time>2021-03-28T08:22:29Z</time>
      </trkpt>
      <trkpt lat="42.86005" lon="2.7188">
        <ele>129.7</ele>
        <time>2021-03-28T08:22:29Z</time>
      </trkpt>
      <trkpt lat="42.85996" lon="2.71881">
        <ele>130.2</ele>
        <time>2021-03-28T08:22:31Z</time>
      </trkpt>
      <trkpt lat="42.85996" lon="2.71881">
        <ele>130.2</ele>
        <time>2021-03-28T08:22:31Z</time>
      </trkpt>
      <trkpt lat="42.85987" lon="2.71882">
        <ele>131.2</ele>
        <time>2021-03-28T08:22:33Z</time>
      </trkpt>
      <trkpt lat="42.85987" lon="2.71882">
        <ele>131.2</ele>
        <time>2021-03-28T08:22:33Z</time>
      </trkpt>
      <trkpt lat="42.85979" lon="2.71883">
        <ele>132.1</ele>
        <time>2021-03-28T08:22:34Z</time>
      </trkpt>
      <trkpt lat="42.85979" lon="2.71883">
        <ele>132.1</ele>
        <time>2021-03-28T08:22:34Z</time>
      </trkpt>
      <trkpt lat="42.85972" lon="2.71883">
        <ele>132.8</ele>
        <time>2021-03-28T08:22:35Z</time>
      </trkpt>
      <trkpt lat="42.85972" lon="2.71883">
        <ele>132.8</ele>
        <time>2021-03-28T08:22:35Z</time>
      </trkpt>
      <trkpt lat="42.85963" lon="2.71884">
        <ele>133.1</ele>
        <time>2021-03-28T08:22:37Z</time>
      </trkpt>
      <trkpt lat="42.85963" lon="2.71884">
        <ele>133.1</ele>
        <time>2021-03-28T08:22:37Z</time>
      </trkpt>
      <trkpt lat="42.85956" lon="2.71884">
        <ele>133.3</ele>
        <time>2021-03-28T08:22:38Z</time>
      </trkpt>
      <trkpt lat="42.85956" lon="2.71884">
        <ele>133.3</ele>
        <time>2021-03-28T08:22:38Z</time>
      </trkpt>
      <trkpt lat="42.85947" lon="2.71884">
        <ele>133.6</ele>
        <time>2021-03-28T08:22:40Z</time>
      </trkpt>
      <trkpt lat="42.85947" lon="2.71884">
        <ele>133.6</ele>
        <time>2021-03-28T08:22:40Z</time>
      </trkpt>
      <trkpt lat="42.85938" lon="2.71884">
        <ele>133.5</ele>
        <time>2021-03-28T08:22:42Z</time>
      </trkpt>
      <trkpt lat="42.85938" lon="2.71884">
        <ele>133.5</ele>
        <time>2021-03-28T08:22:42Z</time>
      </trkpt>
      <trkpt lat="42.85929" lon="2.71885">
        <ele>133.3</ele>
        <time>2021-03-28T08:22:43Z</time>
      </trkpt>
      <trkpt lat="42.85929" lon="2.71885">
        <ele>133.3</ele>
        <time>2021-03-28T08:22:43Z</time>
      </trkpt>
      <trkpt lat="42.85921" lon="2.71886">
        <ele>133.1</ele>
        <time>2021-03-28T08:22:44Z</time>
      </trkpt>
      <trkpt lat="42.85921" lon="2.71886">
        <ele>133.1</ele>
        <time>2021-03-28T08:22:44Z</time>
      </trkpt>
      <trkpt lat="42.85913" lon="2.71886">
        <ele>133.2</ele>
        <time>2021-03-28T08:22:46Z</time>
      </trkpt>
      <trkpt lat="42.85913" lon="2.71886">
        <ele>133.2</ele>
        <time>2021-03-28T08:22:46Z</time>
      </trkpt>
      <trkpt lat="42.85905" lon="2.71887">
        <ele>133.4</ele>
        <time>2021-03-28T08:22:47Z</time>
      </trkpt>
      <trkpt lat="42.85905" lon="2.71887">
        <ele>133.4</ele>
        <time>2021-03-28T08:22:47Z</time>
      </trkpt>
      <trkpt lat="42.85899" lon="2.71889">
        <ele>133.6</ele>
        <time>2021-03-28T08:22:48Z</time>
      </trkpt>
      <trkpt lat="42.85899" lon="2.71889">
        <ele>133.6</ele>
        <time>2021-03-28T08:22:48Z</time>
      </trkpt>
      <trkpt lat="42.85894" lon="2.71893">
        <ele>133.7</ele>
        <time>2021-03-28T08:22:49Z</time>
      </trkpt>
      <trkpt lat="42.85894" lon="2.71893">
        <ele>133.7</ele>
        <time>2021-03-28T08:22:49Z</time>
      </trkpt>
      <trkpt lat="42.85889" lon="2.719">
        <ele>133.6</ele>
        <time>2021-03-28T08:22:51Z</time>
      </trkpt>
      <trkpt lat="42.85889" lon="2.719">
        <ele>133.6</ele>
        <time>2021-03-28T08:22:51Z</time>
      </trkpt>
      <trkpt lat="42.85884" lon="2.71911">
        <ele>133.3</ele>
        <time>2021-03-28T08:22:53Z</time>
      </trkpt>
      <trkpt lat="42.85884" lon="2.71911">
        <ele>133.3</ele>
        <time>2021-03-28T08:22:53Z</time>
      </trkpt>
      <trkpt lat="42.85879" lon="2.71923">
        <ele>133.1</ele>
        <time>2021-03-28T08:22:55Z</time>
      </trkpt>
      <trkpt lat="42.85879" lon="2.71923">
        <ele>133.1</ele>
        <time>2021-03-28T08:22:55Z</time>
      </trkpt>
      <trkpt lat="42.85875" lon="2.71937">
        <ele>132.8</ele>
        <time>2021-03-28T08:22:57Z</time>
      </trkpt>
      <trkpt lat="42.85875" lon="2.71937">
        <ele>132.8</ele>
        <time>2021-03-28T08:22:57Z</time>
      </trkpt>
      <trkpt lat="42.85871" lon="2.71952">
        <ele>132.5</ele>
        <time>2021-03-28T08:22:59Z</time>
      </trkpt>
      <trkpt lat="42.85871" lon="2.71952">
        <ele>132.5</ele>
        <time>2021-03-28T08:22:59Z</time>
      </trkpt>
      <trkpt lat="42.85869" lon="2.71967">
        <ele>132.1</ele>
        <time>2021-03-28T08:23:01Z</time>
      </trkpt>
      <trkpt lat="42.85869" lon="2.71967">
        <ele>132.1</ele>
        <time>2021-03-28T08:23:01Z</time>
      </trkpt>
      <trkpt lat="42.85867" lon="2.71983">
        <ele>132</ele>
        <time>2021-03-28T08:23:03Z</time>
      </trkpt>
      <trkpt lat="42.85867" lon="2.71983">
        <ele>132</ele>
        <time>2021-03-28T08:23:03Z</time>
      </trkpt>
      <trkpt lat="42.85864" lon="2.71997">
        <ele>132</ele>
        <time>2021-03-28T08:23:04Z</time>
      </trkpt>
      <trkpt lat="42.85864" lon="2.71997">
        <ele>132</ele>
        <time>2021-03-28T08:23:04Z</time>
      </trkpt>
      <trkpt lat="42.85862" lon="2.7201">
        <ele>132</ele>
        <time>2021-03-28T08:23:06Z</time>
      </trkpt>
      <trkpt lat="42.85862" lon="2.7201">
        <ele>132</ele>
        <time>2021-03-28T08:23:06Z</time>
      </trkpt>
      <trkpt lat="42.85859" lon="2.72024">
        <ele>132.1</ele>
        <time>2021-03-28T08:23:08Z</time>
      </trkpt>
      <trkpt lat="42.85859" lon="2.72024">
        <ele>132.1</ele>
        <time>2021-03-28T08:23:08Z</time>
      </trkpt>
      <trkpt lat="42.85856" lon="2.72036">
        <ele>132.1</ele>
        <time>2021-03-28T08:23:09Z</time>
      </trkpt>
      <trkpt lat="42.85856" lon="2.72036">
        <ele>132.1</ele>
        <time>2021-03-28T08:23:09Z</time>
      </trkpt>
      <trkpt lat="42.85854" lon="2.72049">
        <ele>132.1</ele>
        <time>2021-03-28T08:23:11Z</time>
      </trkpt>
      <trkpt lat="42.85854" lon="2.72049">
        <ele>132.1</ele>
        <time>2021-03-28T08:23:11Z</time>
      </trkpt>
      <trkpt lat="42.85851" lon="2.72064">
        <ele>131.8</ele>
        <time>2021-03-28T08:23:13Z</time>
      </trkpt>
      <trkpt lat="42.85851" lon="2.72064">
        <ele>131.8</ele>
        <time>2021-03-28T08:23:13Z</time>
      </trkpt>
      <trkpt lat="42.85849" lon="2.72076">
        <ele>131.6</ele>
        <time>2021-03-28T08:23:14Z</time>
      </trkpt>
      <trkpt lat="42.85849" lon="2.72076">
        <ele>131.6</ele>
        <time>2021-03-28T08:23:14Z</time>
      </trkpt>
      <trkpt lat="42.85846" lon="2.7209">
        <ele>131.6</ele>
        <time>2021-03-28T08:23:16Z</time>
      </trkpt>
      <trkpt lat="42.85846" lon="2.7209">
        <ele>131.6</ele>
        <time>2021-03-28T08:23:16Z</time>
      </trkpt>
      <trkpt lat="42.85845" lon="2.72102">
        <ele>131.9</ele>
        <time>2021-03-28T08:23:17Z</time>
      </trkpt>
      <trkpt lat="42.85845" lon="2.72102">
        <ele>131.9</ele>
        <time>2021-03-28T08:23:17Z</time>
      </trkpt>
      <trkpt lat="42.85842" lon="2.72116">
        <ele>131.9</ele>
        <time>2021-03-28T08:23:19Z</time>
      </trkpt>
      <trkpt lat="42.85842" lon="2.72116">
        <ele>131.9</ele>
        <time>2021-03-28T08:23:19Z</time>
      </trkpt>
      <trkpt lat="42.85839" lon="2.72131">
        <ele>131.8</ele>
        <time>2021-03-28T08:23:21Z</time>
      </trkpt>
      <trkpt lat="42.85839" lon="2.72131">
        <ele>131.8</ele>
        <time>2021-03-28T08:23:21Z</time>
      </trkpt>
      <trkpt lat="42.85837" lon="2.72143">
        <ele>131.7</ele>
        <time>2021-03-28T08:23:22Z</time>
      </trkpt>
      <trkpt lat="42.85837" lon="2.72143">
        <ele>131.7</ele>
        <time>2021-03-28T08:23:22Z</time>
      </trkpt>
      <trkpt lat="42.85835" lon="2.72155">
        <ele>131.4</ele>
        <time>2021-03-28T08:23:24Z</time>
      </trkpt>
      <trkpt lat="42.85835" lon="2.72155">
        <ele>131.4</ele>
        <time>2021-03-28T08:23:24Z</time>
      </trkpt>
      <trkpt lat="42.85833" lon="2.72169">
        <ele>131</ele>
        <time>2021-03-28T08:23:26Z</time>
      </trkpt>
      <trkpt lat="42.85833" lon="2.72169">
        <ele>131</ele>
        <time>2021-03-28T08:23:26Z</time>
      </trkpt>
      <trkpt lat="42.85831" lon="2.7218">
        <ele>131.1</ele>
        <time>2021-03-28T08:23:27Z</time>
      </trkpt>
      <trkpt lat="42.85831" lon="2.7218">
        <ele>131.1</ele>
        <time>2021-03-28T08:23:27Z</time>
      </trkpt>
      <trkpt lat="42.85828" lon="2.72193">
        <ele>131.2</ele>
        <time>2021-03-28T08:23:29Z</time>
      </trkpt>
      <trkpt lat="42.85828" lon="2.72193">
        <ele>131.2</ele>
        <time>2021-03-28T08:23:29Z</time>
      </trkpt>
      <trkpt lat="42.85826" lon="2.72203">
        <ele>131.3</ele>
        <time>2021-03-28T08:23:30Z</time>
      </trkpt>
      <trkpt lat="42.85826" lon="2.72203">
        <ele>131.3</ele>
        <time>2021-03-28T08:23:30Z</time>
      </trkpt>
      <trkpt lat="42.85824" lon="2.72213">
        <ele>131.3</ele>
        <time>2021-03-28T08:23:31Z</time>
      </trkpt>
      <trkpt lat="42.85824" lon="2.72213">
        <ele>131.3</ele>
        <time>2021-03-28T08:23:31Z</time>
      </trkpt>
      <trkpt lat="42.85821" lon="2.72226">
        <ele>131.4</ele>
        <time>2021-03-28T08:23:33Z</time>
      </trkpt>
      <trkpt lat="42.85821" lon="2.72226">
        <ele>131.4</ele>
        <time>2021-03-28T08:23:33Z</time>
      </trkpt>
      <trkpt lat="42.85817" lon="2.72239">
        <ele>131.2</ele>
        <time>2021-03-28T08:23:35Z</time>
      </trkpt>
      <trkpt lat="42.85817" lon="2.72239">
        <ele>131.2</ele>
        <time>2021-03-28T08:23:35Z</time>
      </trkpt>
      <trkpt lat="42.85813" lon="2.72251">
        <ele>131</ele>
        <time>2021-03-28T08:23:36Z</time>
      </trkpt>
      <trkpt lat="42.85813" lon="2.72251">
        <ele>131</ele>
        <time>2021-03-28T08:23:36Z</time>
      </trkpt>
      <trkpt lat="42.8581" lon="2.72261">
        <ele>130.9</ele>
        <time>2021-03-28T08:23:37Z</time>
      </trkpt>
      <trkpt lat="42.8581" lon="2.72261">
        <ele>130.9</ele>
        <time>2021-03-28T08:23:37Z</time>
      </trkpt>
      <trkpt lat="42.85808" lon="2.7227">
        <ele>130.9</ele>
        <time>2021-03-28T08:23:38Z</time>
      </trkpt>
      <trkpt lat="42.85808" lon="2.7227">
        <ele>130.9</ele>
        <time>2021-03-28T08:23:38Z</time>
      </trkpt>
      <trkpt lat="42.85804" lon="2.7228">
        <ele>131</ele>
        <time>2021-03-28T08:23:40Z</time>
      </trkpt>
      <trkpt lat="42.85804" lon="2.7228">
        <ele>131</ele>
        <time>2021-03-28T08:23:40Z</time>
      </trkpt>
      <trkpt lat="42.858" lon="2.72291">
        <ele>131.1</ele>
        <time>2021-03-28T08:23:42Z</time>
      </trkpt>
      <trkpt lat="42.858" lon="2.72291">
        <ele>131.1</ele>
        <time>2021-03-28T08:23:42Z</time>
      </trkpt>
      <trkpt lat="42.85796" lon="2.72301">
        <ele>131.1</ele>
        <time>2021-03-28T08:23:44Z</time>
      </trkpt>
      <trkpt lat="42.85796" lon="2.72301">
        <ele>131.1</ele>
        <time>2021-03-28T08:23:44Z</time>
      </trkpt>
      <trkpt lat="42.85792" lon="2.7231">
        <ele>130.9</ele>
        <time>2021-03-28T08:23:45Z</time>
      </trkpt>
      <trkpt lat="42.85792" lon="2.7231">
        <ele>130.9</ele>
        <time>2021-03-28T08:23:45Z</time>
      </trkpt>
      <trkpt lat="42.85788" lon="2.7232">
        <ele>130.8</ele>
        <time>2021-03-28T08:23:47Z</time>
      </trkpt>
      <trkpt lat="42.85788" lon="2.7232">
        <ele>130.8</ele>
        <time>2021-03-28T08:23:47Z</time>
      </trkpt>
      <trkpt lat="42.85784" lon="2.72333">
        <ele>130.8</ele>
        <time>2021-03-28T08:23:49Z</time>
      </trkpt>
      <trkpt lat="42.85784" lon="2.72333">
        <ele>130.8</ele>
        <time>2021-03-28T08:23:49Z</time>
      </trkpt>
      <trkpt lat="42.8578" lon="2.72343">
        <ele>130.9</ele>
        <time>2021-03-28T08:23:50Z</time>
      </trkpt>
      <trkpt lat="42.8578" lon="2.72343">
        <ele>130.9</ele>
        <time>2021-03-28T08:23:50Z</time>
      </trkpt>
      <trkpt lat="42.85776" lon="2.72355">
        <ele>131.1</ele>
        <time>2021-03-28T08:23:52Z</time>
      </trkpt>
      <trkpt lat="42.85776" lon="2.72355">
        <ele>131.1</ele>
        <time>2021-03-28T08:23:52Z</time>
      </trkpt>
      <trkpt lat="42.85772" lon="2.72365">
        <ele>131.3</ele>
        <time>2021-03-28T08:23:53Z</time>
      </trkpt>
      <trkpt lat="42.85772" lon="2.72365">
        <ele>131.3</ele>
        <time>2021-03-28T08:23:53Z</time>
      </trkpt>
      <trkpt lat="42.85769" lon="2.72373">
        <ele>131.6</ele>
        <time>2021-03-28T08:23:54Z</time>
      </trkpt>
      <trkpt lat="42.85769" lon="2.72373">
        <ele>131.6</ele>
        <time>2021-03-28T08:23:54Z</time>
      </trkpt>
      <trkpt lat="42.85766" lon="2.72382">
        <ele>131.8</ele>
        <time>2021-03-28T08:23:55Z</time>
      </trkpt>
      <trkpt lat="42.85766" lon="2.72382">
        <ele>131.8</ele>
        <time>2021-03-28T08:23:55Z</time>
      </trkpt>
      <trkpt lat="42.85763" lon="2.7239">
        <ele>131.9</ele>
        <time>2021-03-28T08:23:57Z</time>
      </trkpt>
      <trkpt lat="42.85763" lon="2.7239">
        <ele>131.9</ele>
        <time>2021-03-28T08:23:57Z</time>
      </trkpt>
      <trkpt lat="42.85761" lon="2.72398">
        <ele>131.7</ele>
        <time>2021-03-28T08:23:58Z</time>
      </trkpt>
      <trkpt lat="42.85761" lon="2.72398">
        <ele>131.7</ele>
        <time>2021-03-28T08:23:58Z</time>
      </trkpt>
      <trkpt lat="42.85759" lon="2.72405">
        <ele>131.4</ele>
        <time>2021-03-28T08:23:59Z</time>
      </trkpt>
      <trkpt lat="42.85759" lon="2.72405">
        <ele>131.4</ele>
        <time>2021-03-28T08:23:59Z</time>
      </trkpt>
      <trkpt lat="42.85757" lon="2.72413">
        <ele>131.1</ele>
        <time>2021-03-28T08:24:01Z</time>
      </trkpt>
      <trkpt lat="42.85757" lon="2.72413">
        <ele>131.1</ele>
        <time>2021-03-28T08:24:01Z</time>
      </trkpt>
      <trkpt lat="42.85756" lon="2.72421">
        <ele>131.2</ele>
        <time>2021-03-28T08:24:02Z</time>
      </trkpt>
      <trkpt lat="42.85756" lon="2.72421">
        <ele>131.2</ele>
        <time>2021-03-28T08:24:02Z</time>
      </trkpt>
      <trkpt lat="42.85754" lon="2.7243">
        <ele>131.7</ele>
        <time>2021-03-28T08:24:04Z</time>
      </trkpt>
      <trkpt lat="42.85754" lon="2.7243">
        <ele>131.7</ele>
        <time>2021-03-28T08:24:04Z</time>
      </trkpt>
      <trkpt lat="42.85753" lon="2.72439">
        <ele>132.3</ele>
        <time>2021-03-28T08:24:05Z</time>
      </trkpt>
      <trkpt lat="42.85753" lon="2.72439">
        <ele>132.3</ele>
        <time>2021-03-28T08:24:05Z</time>
      </trkpt>
      <trkpt lat="42.8575" lon="2.7245">
        <ele>133</ele>
        <time>2021-03-28T08:24:07Z</time>
      </trkpt>
      <trkpt lat="42.8575" lon="2.7245">
        <ele>133</ele>
        <time>2021-03-28T08:24:07Z</time>
      </trkpt>
      <trkpt lat="42.85748" lon="2.7246">
        <ele>133</ele>
        <time>2021-03-28T08:24:08Z</time>
      </trkpt>
      <trkpt lat="42.85748" lon="2.7246">
        <ele>133</ele>
        <time>2021-03-28T08:24:08Z</time>
      </trkpt>
      <trkpt lat="42.85746" lon="2.72468">
        <ele>133.1</ele>
        <time>2021-03-28T08:24:09Z</time>
      </trkpt>
      <trkpt lat="42.85746" lon="2.72468">
        <ele>133.1</ele>
        <time>2021-03-28T08:24:09Z</time>
      </trkpt>
      <trkpt lat="42.85744" lon="2.72475">
        <ele>133.2</ele>
        <time>2021-03-28T08:24:10Z</time>
      </trkpt>
      <trkpt lat="42.85744" lon="2.72475">
        <ele>133.2</ele>
        <time>2021-03-28T08:24:10Z</time>
      </trkpt>
      <trkpt lat="42.85741" lon="2.72483">
        <ele>133.1</ele>
        <time>2021-03-28T08:24:12Z</time>
      </trkpt>
      <trkpt lat="42.85741" lon="2.72483">
        <ele>133.1</ele>
        <time>2021-03-28T08:24:12Z</time>
      </trkpt>
      <trkpt lat="42.85739" lon="2.72491">
        <ele>133</ele>
        <time>2021-03-28T08:24:13Z</time>
      </trkpt>
      <trkpt lat="42.85739" lon="2.72491">
        <ele>133</ele>
        <time>2021-03-28T08:24:13Z</time>
      </trkpt>
      <trkpt lat="42.85736" lon="2.725">
        <ele>133</ele>
        <time>2021-03-28T08:24:15Z</time>
      </trkpt>
      <trkpt lat="42.85736" lon="2.725">
        <ele>133</ele>
        <time>2021-03-28T08:24:15Z</time>
      </trkpt>
      <trkpt lat="42.85733" lon="2.72509">
        <ele>133</ele>
        <time>2021-03-28T08:24:17Z</time>
      </trkpt>
      <trkpt lat="42.85733" lon="2.72509">
        <ele>133</ele>
        <time>2021-03-28T08:24:17Z</time>
      </trkpt>
      <trkpt lat="42.85729" lon="2.72517">
        <ele>133.3</ele>
        <time>2021-03-28T08:24:18Z</time>
      </trkpt>
      <trkpt lat="42.85729" lon="2.72517">
        <ele>133.3</ele>
        <time>2021-03-28T08:24:18Z</time>
      </trkpt>
      <trkpt lat="42.85726" lon="2.72525">
        <ele>134.1</ele>
        <time>2021-03-28T08:24:20Z</time>
      </trkpt>
      <trkpt lat="42.85726" lon="2.72525">
        <ele>134.1</ele>
        <time>2021-03-28T08:24:20Z</time>
      </trkpt>
      <trkpt lat="42.85722" lon="2.72532">
        <ele>134.9</ele>
        <time>2021-03-28T08:24:21Z</time>
      </trkpt>
      <trkpt lat="42.85722" lon="2.72532">
        <ele>134.9</ele>
        <time>2021-03-28T08:24:21Z</time>
      </trkpt>
      <trkpt lat="42.85719" lon="2.7254">
        <ele>135.1</ele>
        <time>2021-03-28T08:24:23Z</time>
      </trkpt>
      <trkpt lat="42.85719" lon="2.7254">
        <ele>135.1</ele>
        <time>2021-03-28T08:24:23Z</time>
      </trkpt>
      <trkpt lat="42.85716" lon="2.72547">
        <ele>135.7</ele>
        <time>2021-03-28T08:24:24Z</time>
      </trkpt>
      <trkpt lat="42.85716" lon="2.72547">
        <ele>135.7</ele>
        <time>2021-03-28T08:24:24Z</time>
      </trkpt>
      <trkpt lat="42.85713" lon="2.72554">
        <ele>136.8</ele>
        <time>2021-03-28T08:24:26Z</time>
      </trkpt>
      <trkpt lat="42.85713" lon="2.72554">
        <ele>136.8</ele>
        <time>2021-03-28T08:24:26Z</time>
      </trkpt>
      <trkpt lat="42.85711" lon="2.7256">
        <ele>137.3</ele>
        <time>2021-03-28T08:24:27Z</time>
      </trkpt>
      <trkpt lat="42.85711" lon="2.7256">
        <ele>137.3</ele>
        <time>2021-03-28T08:24:27Z</time>
      </trkpt>
      <trkpt lat="42.85708" lon="2.72566">
        <ele>137.6</ele>
        <time>2021-03-28T08:24:29Z</time>
      </trkpt>
      <trkpt lat="42.85708" lon="2.72566">
        <ele>137.6</ele>
        <time>2021-03-28T08:24:29Z</time>
      </trkpt>
      <trkpt lat="42.85705" lon="2.72571">
        <ele>138.1</ele>
        <time>2021-03-28T08:24:30Z</time>
      </trkpt>
      <trkpt lat="42.85705" lon="2.72571">
        <ele>138.1</ele>
        <time>2021-03-28T08:24:30Z</time>
      </trkpt>
      <trkpt lat="42.85702" lon="2.72575">
        <ele>138.6</ele>
        <time>2021-03-28T08:24:31Z</time>
      </trkpt>
      <trkpt lat="42.85702" lon="2.72575">
        <ele>138.6</ele>
        <time>2021-03-28T08:24:31Z</time>
      </trkpt>
      <trkpt lat="42.857" lon="2.72581">
        <ele>139.2</ele>
        <time>2021-03-28T08:24:33Z</time>
      </trkpt>
      <trkpt lat="42.857" lon="2.72581">
        <ele>139.2</ele>
        <time>2021-03-28T08:24:33Z</time>
      </trkpt>
      <trkpt lat="42.85697" lon="2.72586">
        <ele>139.7</ele>
        <time>2021-03-28T08:24:35Z</time>
      </trkpt>
      <trkpt lat="42.85697" lon="2.72586">
        <ele>139.7</ele>
        <time>2021-03-28T08:24:35Z</time>
      </trkpt>
      <trkpt lat="42.85694" lon="2.72592">
        <ele>139.9</ele>
        <time>2021-03-28T08:24:37Z</time>
      </trkpt>
      <trkpt lat="42.85694" lon="2.72592">
        <ele>139.9</ele>
        <time>2021-03-28T08:24:37Z</time>
      </trkpt>
      <trkpt lat="42.85691" lon="2.72597">
        <ele>139.6</ele>
        <time>2021-03-28T08:24:38Z</time>
      </trkpt>
      <trkpt lat="42.85691" lon="2.72597">
        <ele>139.6</ele>
        <time>2021-03-28T08:24:38Z</time>
      </trkpt>
      <trkpt lat="42.85688" lon="2.72603">
        <ele>139.3</ele>
        <time>2021-03-28T08:24:40Z</time>
      </trkpt>
      <trkpt lat="42.85688" lon="2.72603">
        <ele>139.3</ele>
        <time>2021-03-28T08:24:40Z</time>
      </trkpt>
      <trkpt lat="42.85686" lon="2.72609">
        <ele>139.1</ele>
        <time>2021-03-28T08:24:41Z</time>
      </trkpt>
      <trkpt lat="42.85686" lon="2.72609">
        <ele>139.1</ele>
        <time>2021-03-28T08:24:41Z</time>
      </trkpt>
      <trkpt lat="42.85683" lon="2.72614">
        <ele>139</ele>
        <time>2021-03-28T08:24:42Z</time>
      </trkpt>
      <trkpt lat="42.85683" lon="2.72614">
        <ele>139</ele>
        <time>2021-03-28T08:24:42Z</time>
      </trkpt>
      <trkpt lat="42.8568" lon="2.72619">
        <ele>138.9</ele>
        <time>2021-03-28T08:24:44Z</time>
      </trkpt>
      <trkpt lat="42.8568" lon="2.72619">
        <ele>138.9</ele>
        <time>2021-03-28T08:24:44Z</time>
      </trkpt>
      <trkpt lat="42.85677" lon="2.72624">
        <ele>139</ele>
        <time>2021-03-28T08:24:45Z</time>
      </trkpt>
      <trkpt lat="42.85677" lon="2.72624">
        <ele>139</ele>
        <time>2021-03-28T08:24:45Z</time>
      </trkpt>
      <trkpt lat="42.85674" lon="2.7263">
        <ele>139.4</ele>
        <time>2021-03-28T08:24:47Z</time>
      </trkpt>
      <trkpt lat="42.85674" lon="2.7263">
        <ele>139.4</ele>
        <time>2021-03-28T08:24:47Z</time>
      </trkpt>
      <trkpt lat="42.85671" lon="2.72635">
        <ele>139.9</ele>
        <time>2021-03-28T08:24:48Z</time>
      </trkpt>
      <trkpt lat="42.85671" lon="2.72635">
        <ele>139.9</ele>
        <time>2021-03-28T08:24:48Z</time>
      </trkpt>
      <trkpt lat="42.85667" lon="2.72639">
        <ele>140.9</ele>
        <time>2021-03-28T08:24:50Z</time>
      </trkpt>
      <trkpt lat="42.85667" lon="2.72639">
        <ele>140.9</ele>
        <time>2021-03-28T08:24:50Z</time>
      </trkpt>
      <trkpt lat="42.85663" lon="2.72643">
        <ele>141.2</ele>
        <time>2021-03-28T08:24:51Z</time>
      </trkpt>
      <trkpt lat="42.85663" lon="2.72643">
        <ele>141.2</ele>
        <time>2021-03-28T08:24:51Z</time>
      </trkpt>
      <trkpt lat="42.8566" lon="2.72645">
        <ele>141.4</ele>
        <time>2021-03-28T08:24:52Z</time>
      </trkpt>
      <trkpt lat="42.8566" lon="2.72645">
        <ele>141.4</ele>
        <time>2021-03-28T08:24:52Z</time>
      </trkpt>
      <trkpt lat="42.85655" lon="2.72647">
        <ele>141.7</ele>
        <time>2021-03-28T08:24:54Z</time>
      </trkpt>
      <trkpt lat="42.85655" lon="2.72647">
        <ele>141.7</ele>
        <time>2021-03-28T08:24:54Z</time>
      </trkpt>
      <trkpt lat="42.85652" lon="2.72649">
        <ele>141.9</ele>
        <time>2021-03-28T08:24:55Z</time>
      </trkpt>
      <trkpt lat="42.85652" lon="2.72649">
        <ele>141.9</ele>
        <time>2021-03-28T08:24:55Z</time>
      </trkpt>
      <trkpt lat="42.85647" lon="2.7265">
        <ele>142.1</ele>
        <time>2021-03-28T08:24:57Z</time>
      </trkpt>
      <trkpt lat="42.85647" lon="2.7265">
        <ele>142.1</ele>
        <time>2021-03-28T08:24:57Z</time>
      </trkpt>
      <trkpt lat="42.85643" lon="2.72651">
        <ele>142.4</ele>
        <time>2021-03-28T08:24:58Z</time>
      </trkpt>
      <trkpt lat="42.85643" lon="2.72651">
        <ele>142.4</ele>
        <time>2021-03-28T08:24:58Z</time>
      </trkpt>
      <trkpt lat="42.85639" lon="2.72651">
        <ele>142.6</ele>
        <time>2021-03-28T08:24:59Z</time>
      </trkpt>
      <trkpt lat="42.85639" lon="2.72651">
        <ele>142.6</ele>
        <time>2021-03-28T08:24:59Z</time>
      </trkpt>
      <trkpt lat="42.85635" lon="2.72651">
        <ele>142.8</ele>
        <time>2021-03-28T08:25:00Z</time>
      </trkpt>
      <trkpt lat="42.85635" lon="2.72651">
        <ele>142.8</ele>
        <time>2021-03-28T08:25:00Z</time>
      </trkpt>
      <trkpt lat="42.8563" lon="2.72651">
        <ele>143.1</ele>
        <time>2021-03-28T08:25:02Z</time>
      </trkpt>
      <trkpt lat="42.8563" lon="2.72651">
        <ele>143.1</ele>
        <time>2021-03-28T08:25:02Z</time>
      </trkpt>
      <trkpt lat="42.85625" lon="2.72651">
        <ele>143.4</ele>
        <time>2021-03-28T08:25:04Z</time>
      </trkpt>
      <trkpt lat="42.85625" lon="2.72651">
        <ele>143.4</ele>
        <time>2021-03-28T08:25:04Z</time>
      </trkpt>
      <trkpt lat="42.85621" lon="2.72651">
        <ele>143.6</ele>
        <time>2021-03-28T08:25:05Z</time>
      </trkpt>
      <trkpt lat="42.85621" lon="2.72651">
        <ele>143.6</ele>
        <time>2021-03-28T08:25:05Z</time>
      </trkpt>
      <trkpt lat="42.85616" lon="2.72651">
        <ele>143.9</ele>
        <time>2021-03-28T08:25:07Z</time>
      </trkpt>
      <trkpt lat="42.85616" lon="2.72651">
        <ele>143.9</ele>
        <time>2021-03-28T08:25:07Z</time>
      </trkpt>
      <trkpt lat="42.85612" lon="2.7265">
        <ele>144.1</ele>
        <time>2021-03-28T08:25:08Z</time>
      </trkpt>
      <trkpt lat="42.85612" lon="2.7265">
        <ele>144.1</ele>
        <time>2021-03-28T08:25:08Z</time>
      </trkpt>
      <trkpt lat="42.85608" lon="2.7265">
        <ele>144.4</ele>
        <time>2021-03-28T08:25:10Z</time>
      </trkpt>
      <trkpt lat="42.85608" lon="2.7265">
        <ele>144.4</ele>
        <time>2021-03-28T08:25:10Z</time>
      </trkpt>
      <trkpt lat="42.85603" lon="2.7265">
        <ele>144.7</ele>
        <time>2021-03-28T08:25:12Z</time>
      </trkpt>
      <trkpt lat="42.85603" lon="2.7265">
        <ele>144.7</ele>
        <time>2021-03-28T08:25:12Z</time>
      </trkpt>
      <trkpt lat="42.85599" lon="2.72651">
        <ele>145</ele>
        <time>2021-03-28T08:25:13Z</time>
      </trkpt>
      <trkpt lat="42.85599" lon="2.72651">
        <ele>145</ele>
        <time>2021-03-28T08:25:13Z</time>
      </trkpt>
      <trkpt lat="42.85596" lon="2.72652">
        <ele>145.2</ele>
        <time>2021-03-28T08:25:14Z</time>
      </trkpt>
      <trkpt lat="42.85596" lon="2.72652">
        <ele>145.2</ele>
        <time>2021-03-28T08:25:14Z</time>
      </trkpt>
      <trkpt lat="42.85592" lon="2.72654">
        <ele>145.3</ele>
        <time>2021-03-28T08:25:16Z</time>
      </trkpt>
      <trkpt lat="42.85592" lon="2.72654">
        <ele>145.3</ele>
        <time>2021-03-28T08:25:16Z</time>
      </trkpt>
      <trkpt lat="42.85588" lon="2.72657">
        <ele>145.4</ele>
        <time>2021-03-28T08:25:17Z</time>
      </trkpt>
      <trkpt lat="42.85588" lon="2.72657">
        <ele>145.4</ele>
        <time>2021-03-28T08:25:17Z</time>
      </trkpt>
      <trkpt lat="42.85584" lon="2.7266">
        <ele>145.5</ele>
        <time>2021-03-28T08:25:19Z</time>
      </trkpt>
      <trkpt lat="42.85584" lon="2.7266">
        <ele>145.5</ele>
        <time>2021-03-28T08:25:19Z</time>
      </trkpt>
      <trkpt lat="42.85579" lon="2.72662">
        <ele>145.9</ele>
        <time>2021-03-28T08:25:20Z</time>
      </trkpt>
      <trkpt lat="42.85579" lon="2.72662">
        <ele>145.9</ele>
        <time>2021-03-28T08:25:20Z</time>
      </trkpt>
      <trkpt lat="42.85575" lon="2.72666">
        <ele>146.2</ele>
        <time>2021-03-28T08:25:22Z</time>
      </trkpt>
      <trkpt lat="42.85575" lon="2.72666">
        <ele>146.2</ele>
        <time>2021-03-28T08:25:22Z</time>
      </trkpt>
      <trkpt lat="42.85571" lon="2.7267">
        <ele>146.6</ele>
        <time>2021-03-28T08:25:24Z</time>
      </trkpt>
      <trkpt lat="42.85571" lon="2.7267">
        <ele>146.6</ele>
        <time>2021-03-28T08:25:24Z</time>
      </trkpt>
      <trkpt lat="42.85567" lon="2.72674">
        <ele>146.9</ele>
        <time>2021-03-28T08:25:25Z</time>
      </trkpt>
      <trkpt lat="42.85567" lon="2.72674">
        <ele>146.9</ele>
        <time>2021-03-28T08:25:25Z</time>
      </trkpt>
      <trkpt lat="42.85563" lon="2.72677">
        <ele>147.1</ele>
        <time>2021-03-28T08:25:26Z</time>
      </trkpt>
      <trkpt lat="42.85563" lon="2.72677">
        <ele>147.1</ele>
        <time>2021-03-28T08:25:26Z</time>
      </trkpt>
      <trkpt lat="42.8556" lon="2.72681">
        <ele>147.3</ele>
        <time>2021-03-28T08:25:28Z</time>
      </trkpt>
      <trkpt lat="42.8556" lon="2.72681">
        <ele>147.3</ele>
        <time>2021-03-28T08:25:28Z</time>
      </trkpt>
      <trkpt lat="42.85557" lon="2.72685">
        <ele>147.5</ele>
        <time>2021-03-28T08:25:29Z</time>
      </trkpt>
      <trkpt lat="42.85557" lon="2.72685">
        <ele>147.5</ele>
        <time>2021-03-28T08:25:29Z</time>
      </trkpt>
      <trkpt lat="42.85554" lon="2.7269">
        <ele>147.8</ele>
        <time>2021-03-28T08:25:31Z</time>
      </trkpt>
      <trkpt lat="42.85554" lon="2.7269">
        <ele>147.8</ele>
        <time>2021-03-28T08:25:31Z</time>
      </trkpt>
      <trkpt lat="42.8555" lon="2.72695">
        <ele>148.3</ele>
        <time>2021-03-28T08:25:33Z</time>
      </trkpt>
      <trkpt lat="42.8555" lon="2.72695">
        <ele>148.3</ele>
        <time>2021-03-28T08:25:33Z</time>
      </trkpt>
      <trkpt lat="42.85546" lon="2.727">
        <ele>148.7</ele>
        <time>2021-03-28T08:25:35Z</time>
      </trkpt>
      <trkpt lat="42.85546" lon="2.727">
        <ele>148.7</ele>
        <time>2021-03-28T08:25:35Z</time>
      </trkpt>
      <trkpt lat="42.85543" lon="2.72706">
        <ele>148.9</ele>
        <time>2021-03-28T08:25:37Z</time>
      </trkpt>
      <trkpt lat="42.85543" lon="2.72706">
        <ele>148.9</ele>
        <time>2021-03-28T08:25:37Z</time>
      </trkpt>
      <trkpt lat="42.85539" lon="2.7271">
        <ele>149</ele>
        <time>2021-03-28T08:25:38Z</time>
      </trkpt>
      <trkpt lat="42.85539" lon="2.7271">
        <ele>149</ele>
        <time>2021-03-28T08:25:38Z</time>
      </trkpt>
      <trkpt lat="42.85535" lon="2.72715">
        <ele>149</ele>
        <time>2021-03-28T08:25:40Z</time>
      </trkpt>
      <trkpt lat="42.85535" lon="2.72715">
        <ele>149</ele>
        <time>2021-03-28T08:25:40Z</time>
      </trkpt>
      <trkpt lat="42.85532" lon="2.72719">
        <ele>148.8</ele>
        <time>2021-03-28T08:25:41Z</time>
      </trkpt>
      <trkpt lat="42.85532" lon="2.72719">
        <ele>148.8</ele>
        <time>2021-03-28T08:25:41Z</time>
      </trkpt>
      <trkpt lat="42.8553" lon="2.72723">
        <ele>148.7</ele>
        <time>2021-03-28T08:25:42Z</time>
      </trkpt>
      <trkpt lat="42.8553" lon="2.72723">
        <ele>148.7</ele>
        <time>2021-03-28T08:25:42Z</time>
      </trkpt>
      <trkpt lat="42.85526" lon="2.72728">
        <ele>149</ele>
        <time>2021-03-28T08:25:44Z</time>
      </trkpt>
      <trkpt lat="42.85526" lon="2.72728">
        <ele>149</ele>
        <time>2021-03-28T08:25:44Z</time>
      </trkpt>
      <trkpt lat="42.85524" lon="2.72732">
        <ele>149.4</ele>
        <time>2021-03-28T08:25:45Z</time>
      </trkpt>
      <trkpt lat="42.85524" lon="2.72732">
        <ele>149.4</ele>
        <time>2021-03-28T08:25:45Z</time>
      </trkpt>
      <trkpt lat="42.85521" lon="2.72736">
        <ele>149.8</ele>
        <time>2021-03-28T08:25:46Z</time>
      </trkpt>
      <trkpt lat="42.85521" lon="2.72736">
        <ele>149.8</ele>
        <time>2021-03-28T08:25:46Z</time>
      </trkpt>
      <trkpt lat="42.85518" lon="2.7274">
        <ele>150</ele>
        <time>2021-03-28T08:25:48Z</time>
      </trkpt>
      <trkpt lat="42.85518" lon="2.7274">
        <ele>150</ele>
        <time>2021-03-28T08:25:48Z</time>
      </trkpt>
      <trkpt lat="42.85515" lon="2.72744">
        <ele>150.3</ele>
        <time>2021-03-28T08:25:49Z</time>
      </trkpt>
      <trkpt lat="42.85515" lon="2.72744">
        <ele>150.3</ele>
        <time>2021-03-28T08:25:49Z</time>
      </trkpt>
      <trkpt lat="42.85513" lon="2.72749">
        <ele>150.4</ele>
        <time>2021-03-28T08:25:50Z</time>
      </trkpt>
      <trkpt lat="42.85513" lon="2.72749">
        <ele>150.4</ele>
        <time>2021-03-28T08:25:50Z</time>
      </trkpt>
      <trkpt lat="42.8551" lon="2.72753">
        <ele>150.5</ele>
        <time>2021-03-28T08:25:52Z</time>
      </trkpt>
      <trkpt lat="42.8551" lon="2.72753">
        <ele>150.5</ele>
        <time>2021-03-28T08:25:52Z</time>
      </trkpt>
      <trkpt lat="42.85506" lon="2.72758">
        <ele>150.7</ele>
        <time>2021-03-28T08:25:54Z</time>
      </trkpt>
      <trkpt lat="42.85506" lon="2.72758">
        <ele>150.7</ele>
        <time>2021-03-28T08:25:54Z</time>
      </trkpt>
      <trkpt lat="42.85502" lon="2.72764">
        <ele>151</ele>
        <time>2021-03-28T08:25:56Z</time>
      </trkpt>
      <trkpt lat="42.85502" lon="2.72764">
        <ele>151</ele>
        <time>2021-03-28T08:25:56Z</time>
      </trkpt>
      <trkpt lat="42.85499" lon="2.72768">
        <ele>151.3</ele>
        <time>2021-03-28T08:25:57Z</time>
      </trkpt>
      <trkpt lat="42.85499" lon="2.72768">
        <ele>151.3</ele>
        <time>2021-03-28T08:25:57Z</time>
      </trkpt>
      <trkpt lat="42.85495" lon="2.72774">
        <ele>151.6</ele>
        <time>2021-03-28T08:25:59Z</time>
      </trkpt>
      <trkpt lat="42.85495" lon="2.72774">
        <ele>151.6</ele>
        <time>2021-03-28T08:25:59Z</time>
      </trkpt>
      <trkpt lat="42.85491" lon="2.72779">
        <ele>151.8</ele>
        <time>2021-03-28T08:26:01Z</time>
      </trkpt>
      <trkpt lat="42.85491" lon="2.72779">
        <ele>151.8</ele>
        <time>2021-03-28T08:26:01Z</time>
      </trkpt>
      <trkpt lat="42.85488" lon="2.72784">
        <ele>151.9</ele>
        <time>2021-03-28T08:26:02Z</time>
      </trkpt>
      <trkpt lat="42.85488" lon="2.72784">
        <ele>151.9</ele>
        <time>2021-03-28T08:26:02Z</time>
      </trkpt>
      <trkpt lat="42.85486" lon="2.72788">
        <ele>152</ele>
        <time>2021-03-28T08:26:03Z</time>
      </trkpt>
      <trkpt lat="42.85486" lon="2.72788">
        <ele>152</ele>
        <time>2021-03-28T08:26:03Z</time>
      </trkpt>
      <trkpt lat="42.85483" lon="2.72793">
        <ele>152.1</ele>
        <time>2021-03-28T08:26:05Z</time>
      </trkpt>
      <trkpt lat="42.85483" lon="2.72793">
        <ele>152.1</ele>
        <time>2021-03-28T08:26:05Z</time>
      </trkpt>
      <trkpt lat="42.8548" lon="2.72797">
        <ele>152.3</ele>
        <time>2021-03-28T08:26:06Z</time>
      </trkpt>
      <trkpt lat="42.8548" lon="2.72797">
        <ele>152.3</ele>
        <time>2021-03-28T08:26:06Z</time>
      </trkpt>
      <trkpt lat="42.85477" lon="2.72801">
        <ele>152.6</ele>
        <time>2021-03-28T08:26:08Z</time>
      </trkpt>
      <trkpt lat="42.85477" lon="2.72801">
        <ele>152.6</ele>
        <time>2021-03-28T08:26:08Z</time>
      </trkpt>
      <trkpt lat="42.85473" lon="2.72806">
        <ele>152.9</ele>
        <time>2021-03-28T08:26:10Z</time>
      </trkpt>
      <trkpt lat="42.85473" lon="2.72806">
        <ele>152.9</ele>
        <time>2021-03-28T08:26:10Z</time>
      </trkpt>
      <trkpt lat="42.85469" lon="2.7281">
        <ele>153.2</ele>
        <time>2021-03-28T08:26:12Z</time>
      </trkpt>
      <trkpt lat="42.85469" lon="2.7281">
        <ele>153.2</ele>
        <time>2021-03-28T08:26:12Z</time>
      </trkpt>
      <trkpt lat="42.85465" lon="2.72815">
        <ele>153.5</ele>
        <time>2021-03-28T08:26:14Z</time>
      </trkpt>
      <trkpt lat="42.85465" lon="2.72815">
        <ele>153.5</ele>
        <time>2021-03-28T08:26:14Z</time>
      </trkpt>
      <trkpt lat="42.85461" lon="2.7282">
        <ele>153.6</ele>
        <time>2021-03-28T08:26:15Z</time>
      </trkpt>
      <trkpt lat="42.85461" lon="2.7282">
        <ele>153.6</ele>
        <time>2021-03-28T08:26:15Z</time>
      </trkpt>
      <trkpt lat="42.85457" lon="2.72825">
        <ele>153.8</ele>
        <time>2021-03-28T08:26:17Z</time>
      </trkpt>
      <trkpt lat="42.85457" lon="2.72825">
        <ele>153.8</ele>
        <time>2021-03-28T08:26:17Z</time>
      </trkpt>
      <trkpt lat="42.85454" lon="2.7283">
        <ele>153.9</ele>
        <time>2021-03-28T08:26:18Z</time>
      </trkpt>
      <trkpt lat="42.85454" lon="2.7283">
        <ele>153.9</ele>
        <time>2021-03-28T08:26:18Z</time>
      </trkpt>
      <trkpt lat="42.85451" lon="2.72833">
        <ele>153.9</ele>
        <time>2021-03-28T08:26:19Z</time>
      </trkpt>
      <trkpt lat="42.85451" lon="2.72833">
        <ele>153.9</ele>
        <time>2021-03-28T08:26:19Z</time>
      </trkpt>
      <trkpt lat="42.85448" lon="2.72837">
        <ele>154.2</ele>
        <time>2021-03-28T08:26:20Z</time>
      </trkpt>
      <trkpt lat="42.85448" lon="2.72837">
        <ele>154.2</ele>
        <time>2021-03-28T08:26:20Z</time>
      </trkpt>
      <trkpt lat="42.85445" lon="2.7284">
        <ele>154.7</ele>
        <time>2021-03-28T08:26:22Z</time>
      </trkpt>
      <trkpt lat="42.85445" lon="2.7284">
        <ele>154.7</ele>
        <time>2021-03-28T08:26:22Z</time>
      </trkpt>
      <trkpt lat="42.85442" lon="2.72844">
        <ele>155.1</ele>
        <time>2021-03-28T08:26:23Z</time>
      </trkpt>
      <trkpt lat="42.85442" lon="2.72844">
        <ele>155.1</ele>
        <time>2021-03-28T08:26:23Z</time>
      </trkpt>
      <trkpt lat="42.85439" lon="2.72849">
        <ele>155.6</ele>
        <time>2021-03-28T08:26:25Z</time>
      </trkpt>
      <trkpt lat="42.85439" lon="2.72849">
        <ele>155.6</ele>
        <time>2021-03-28T08:26:25Z</time>
      </trkpt>
      <trkpt lat="42.85436" lon="2.72853">
        <ele>156</ele>
        <time>2021-03-28T08:26:27Z</time>
      </trkpt>
      <trkpt lat="42.85436" lon="2.72853">
        <ele>156</ele>
        <time>2021-03-28T08:26:27Z</time>
      </trkpt>
      <trkpt lat="42.85432" lon="2.72858">
        <ele>156.4</ele>
        <time>2021-03-28T08:26:29Z</time>
      </trkpt>
      <trkpt lat="42.85432" lon="2.72858">
        <ele>156.4</ele>
        <time>2021-03-28T08:26:29Z</time>
      </trkpt>
      <trkpt lat="42.85429" lon="2.72864">
        <ele>156.6</ele>
        <time>2021-03-28T08:26:31Z</time>
      </trkpt>
      <trkpt lat="42.85429" lon="2.72864">
        <ele>156.6</ele>
        <time>2021-03-28T08:26:31Z</time>
      </trkpt>
      <trkpt lat="42.85425" lon="2.72869">
        <ele>156.7</ele>
        <time>2021-03-28T08:26:33Z</time>
      </trkpt>
      <trkpt lat="42.85425" lon="2.72869">
        <ele>156.7</ele>
        <time>2021-03-28T08:26:33Z</time>
      </trkpt>
      <trkpt lat="42.85421" lon="2.72875">
        <ele>156.8</ele>
        <time>2021-03-28T08:26:35Z</time>
      </trkpt>
      <trkpt lat="42.85421" lon="2.72875">
        <ele>156.8</ele>
        <time>2021-03-28T08:26:35Z</time>
      </trkpt>
      <trkpt lat="42.85418" lon="2.72879">
        <ele>156.9</ele>
        <time>2021-03-28T08:26:36Z</time>
      </trkpt>
      <trkpt lat="42.85418" lon="2.72879">
        <ele>156.9</ele>
        <time>2021-03-28T08:26:36Z</time>
      </trkpt>
      <trkpt lat="42.85414" lon="2.72884">
        <ele>157.1</ele>
        <time>2021-03-28T08:26:38Z</time>
      </trkpt>
      <trkpt lat="42.85414" lon="2.72884">
        <ele>157.1</ele>
        <time>2021-03-28T08:26:38Z</time>
      </trkpt>
      <trkpt lat="42.85409" lon="2.7289">
        <ele>157.3</ele>
        <time>2021-03-28T08:26:40Z</time>
      </trkpt>
      <trkpt lat="42.85409" lon="2.7289">
        <ele>157.3</ele>
        <time>2021-03-28T08:26:40Z</time>
      </trkpt>
      <trkpt lat="42.85405" lon="2.72895">
        <ele>157.4</ele>
        <time>2021-03-28T08:26:42Z</time>
      </trkpt>
      <trkpt lat="42.85405" lon="2.72895">
        <ele>157.4</ele>
        <time>2021-03-28T08:26:42Z</time>
      </trkpt>
      <trkpt lat="42.85401" lon="2.72899">
        <ele>157.6</ele>
        <time>2021-03-28T08:26:43Z</time>
      </trkpt>
      <trkpt lat="42.85401" lon="2.72899">
        <ele>157.6</ele>
        <time>2021-03-28T08:26:43Z</time>
      </trkpt>
      <trkpt lat="42.85397" lon="2.72903">
        <ele>157.9</ele>
        <time>2021-03-28T08:26:45Z</time>
      </trkpt>
      <trkpt lat="42.85397" lon="2.72903">
        <ele>157.9</ele>
        <time>2021-03-28T08:26:45Z</time>
      </trkpt>
      <trkpt lat="42.85393" lon="2.72907">
        <ele>158.2</ele>
        <time>2021-03-28T08:26:46Z</time>
      </trkpt>
      <trkpt lat="42.85393" lon="2.72907">
        <ele>158.2</ele>
        <time>2021-03-28T08:26:46Z</time>
      </trkpt>
      <trkpt lat="42.85389" lon="2.72912">
        <ele>158.6</ele>
        <time>2021-03-28T08:26:48Z</time>
      </trkpt>
      <trkpt lat="42.85389" lon="2.72912">
        <ele>158.6</ele>
        <time>2021-03-28T08:26:48Z</time>
      </trkpt>
      <trkpt lat="42.85384" lon="2.72916">
        <ele>158.9</ele>
        <time>2021-03-28T08:26:50Z</time>
      </trkpt>
      <trkpt lat="42.85384" lon="2.72916">
        <ele>158.9</ele>
        <time>2021-03-28T08:26:50Z</time>
      </trkpt>
      <trkpt lat="42.85379" lon="2.7292">
        <ele>159.1</ele>
        <time>2021-03-28T08:26:52Z</time>
      </trkpt>
      <trkpt lat="42.85379" lon="2.7292">
        <ele>159.1</ele>
        <time>2021-03-28T08:26:52Z</time>
      </trkpt>
      <trkpt lat="42.85375" lon="2.72924">
        <ele>159.4</ele>
        <time>2021-03-28T08:26:53Z</time>
      </trkpt>
      <trkpt lat="42.85375" lon="2.72924">
        <ele>159.4</ele>
        <time>2021-03-28T08:26:53Z</time>
      </trkpt>
      <trkpt lat="42.8537" lon="2.72927">
        <ele>159.7</ele>
        <time>2021-03-28T08:26:55Z</time>
      </trkpt>
      <trkpt lat="42.8537" lon="2.72927">
        <ele>159.7</ele>
        <time>2021-03-28T08:26:55Z</time>
      </trkpt>
      <trkpt lat="42.85366" lon="2.72931">
        <ele>160</ele>
        <time>2021-03-28T08:26:56Z</time>
      </trkpt>
      <trkpt lat="42.85366" lon="2.72931">
        <ele>160</ele>
        <time>2021-03-28T08:26:56Z</time>
      </trkpt>
      <trkpt lat="42.85362" lon="2.72935">
        <ele>160.2</ele>
        <time>2021-03-28T08:26:58Z</time>
      </trkpt>
      <trkpt lat="42.85362" lon="2.72935">
        <ele>160.2</ele>
        <time>2021-03-28T08:26:58Z</time>
      </trkpt>
      <trkpt lat="42.85358" lon="2.72937">
        <ele>160.4</ele>
        <time>2021-03-28T08:26:59Z</time>
      </trkpt>
      <trkpt lat="42.85358" lon="2.72937">
        <ele>160.4</ele>
        <time>2021-03-28T08:26:59Z</time>
      </trkpt>
      <trkpt lat="42.85354" lon="2.7294">
        <ele>160.5</ele>
        <time>2021-03-28T08:27:01Z</time>
      </trkpt>
      <trkpt lat="42.85354" lon="2.7294">
        <ele>160.5</ele>
        <time>2021-03-28T08:27:01Z</time>
      </trkpt>
      <trkpt lat="42.8535" lon="2.72943">
        <ele>160.5</ele>
        <time>2021-03-28T08:27:02Z</time>
      </trkpt>
      <trkpt lat="42.8535" lon="2.72943">
        <ele>160.5</ele>
        <time>2021-03-28T08:27:02Z</time>
      </trkpt>
      <trkpt lat="42.85346" lon="2.72945">
        <ele>160.5</ele>
        <time>2021-03-28T08:27:04Z</time>
      </trkpt>
      <trkpt lat="42.85346" lon="2.72945">
        <ele>160.5</ele>
        <time>2021-03-28T08:27:04Z</time>
      </trkpt>
      <trkpt lat="42.85343" lon="2.72947">
        <ele>160.6</ele>
        <time>2021-03-28T08:27:05Z</time>
      </trkpt>
      <trkpt lat="42.85343" lon="2.72947">
        <ele>160.6</ele>
        <time>2021-03-28T08:27:05Z</time>
      </trkpt>
      <trkpt lat="42.85338" lon="2.7295">
        <ele>160.8</ele>
        <time>2021-03-28T08:27:07Z</time>
      </trkpt>
      <trkpt lat="42.85338" lon="2.7295">
        <ele>160.8</ele>
        <time>2021-03-28T08:27:07Z</time>
      </trkpt>
      <trkpt lat="42.85333" lon="2.72954">
        <ele>161</ele>
        <time>2021-03-28T08:27:09Z</time>
      </trkpt>
      <trkpt lat="42.85333" lon="2.72954">
        <ele>161</ele>
        <time>2021-03-28T08:27:09Z</time>
      </trkpt>
      <trkpt lat="42.85329" lon="2.72956">
        <ele>161.6</ele>
        <time>2021-03-28T08:27:10Z</time>
      </trkpt>
      <trkpt lat="42.85329" lon="2.72956">
        <ele>161.6</ele>
        <time>2021-03-28T08:27:10Z</time>
      </trkpt>
      <trkpt lat="42.85325" lon="2.72958">
        <ele>162.2</ele>
        <time>2021-03-28T08:27:11Z</time>
      </trkpt>
      <trkpt lat="42.85325" lon="2.72958">
        <ele>162.2</ele>
        <time>2021-03-28T08:27:11Z</time>
      </trkpt>
      <trkpt lat="42.8532" lon="2.72961">
        <ele>162.7</ele>
        <time>2021-03-28T08:27:13Z</time>
      </trkpt>
      <trkpt lat="42.8532" lon="2.72961">
        <ele>162.7</ele>
        <time>2021-03-28T08:27:13Z</time>
      </trkpt>
      <trkpt lat="42.85317" lon="2.72964">
        <ele>162.9</ele>
        <time>2021-03-28T08:27:14Z</time>
      </trkpt>
      <trkpt lat="42.85317" lon="2.72964">
        <ele>162.9</ele>
        <time>2021-03-28T08:27:14Z</time>
      </trkpt>
      <trkpt lat="42.85314" lon="2.72968">
        <ele>163.1</ele>
        <time>2021-03-28T08:27:16Z</time>
      </trkpt>
      <trkpt lat="42.85314" lon="2.72968">
        <ele>163.1</ele>
        <time>2021-03-28T08:27:16Z</time>
      </trkpt>
      <trkpt lat="42.8531" lon="2.72972">
        <ele>163.1</ele>
        <time>2021-03-28T08:27:18Z</time>
      </trkpt>
      <trkpt lat="42.8531" lon="2.72972">
        <ele>163.1</ele>
        <time>2021-03-28T08:27:18Z</time>
      </trkpt>
      <trkpt lat="42.85307" lon="2.72977">
        <ele>163</ele>
        <time>2021-03-28T08:27:20Z</time>
      </trkpt>
      <trkpt lat="42.85307" lon="2.72977">
        <ele>163</ele>
        <time>2021-03-28T08:27:20Z</time>
      </trkpt>
      <trkpt lat="42.85303" lon="2.72981">
        <ele>162.8</ele>
        <time>2021-03-28T08:27:22Z</time>
      </trkpt>
      <trkpt lat="42.85303" lon="2.72981">
        <ele>162.8</ele>
        <time>2021-03-28T08:27:22Z</time>
      </trkpt>
      <trkpt lat="42.85299" lon="2.72984">
        <ele>162.8</ele>
        <time>2021-03-28T08:27:23Z</time>
      </trkpt>
      <trkpt lat="42.85299" lon="2.72984">
        <ele>162.8</ele>
        <time>2021-03-28T08:27:23Z</time>
      </trkpt>
      <trkpt lat="42.85295" lon="2.72987">
        <ele>162.9</ele>
        <time>2021-03-28T08:27:25Z</time>
      </trkpt>
      <trkpt lat="42.85295" lon="2.72987">
        <ele>162.9</ele>
        <time>2021-03-28T08:27:25Z</time>
      </trkpt>
      <trkpt lat="42.8529" lon="2.72992">
        <ele>163.2</ele>
        <time>2021-03-28T08:27:27Z</time>
      </trkpt>
      <trkpt lat="42.8529" lon="2.72992">
        <ele>163.2</ele>
        <time>2021-03-28T08:27:27Z</time>
      </trkpt>
      <trkpt lat="42.85285" lon="2.72996">
        <ele>163.8</ele>
        <time>2021-03-28T08:27:29Z</time>
      </trkpt>
      <trkpt lat="42.85285" lon="2.72996">
        <ele>163.8</ele>
        <time>2021-03-28T08:27:29Z</time>
      </trkpt>
      <trkpt lat="42.85281" lon="2.73">
        <ele>164.4</ele>
        <time>2021-03-28T08:27:30Z</time>
      </trkpt>
      <trkpt lat="42.85281" lon="2.73">
        <ele>164.4</ele>
        <time>2021-03-28T08:27:30Z</time>
      </trkpt>
      <trkpt lat="42.85277" lon="2.73003">
        <ele>164.8</ele>
        <time>2021-03-28T08:27:31Z</time>
      </trkpt>
      <trkpt lat="42.85277" lon="2.73003">
        <ele>164.8</ele>
        <time>2021-03-28T08:27:31Z</time>
      </trkpt>
      <trkpt lat="42.85274" lon="2.73006">
        <ele>165.2</ele>
        <time>2021-03-28T08:27:33Z</time>
      </trkpt>
      <trkpt lat="42.85274" lon="2.73006">
        <ele>165.2</ele>
        <time>2021-03-28T08:27:33Z</time>
      </trkpt>
      <trkpt lat="42.85271" lon="2.73009">
        <ele>165.6</ele>
        <time>2021-03-28T08:27:34Z</time>
      </trkpt>
      <trkpt lat="42.85271" lon="2.73009">
        <ele>165.6</ele>
        <time>2021-03-28T08:27:34Z</time>
      </trkpt>
      <trkpt lat="42.85268" lon="2.73011">
        <ele>166</ele>
        <time>2021-03-28T08:27:35Z</time>
      </trkpt>
      <trkpt lat="42.85268" lon="2.73011">
        <ele>166</ele>
        <time>2021-03-28T08:27:35Z</time>
      </trkpt>
      <trkpt lat="42.85265" lon="2.73014">
        <ele>166.4</ele>
        <time>2021-03-28T08:27:36Z</time>
      </trkpt>
      <trkpt lat="42.85265" lon="2.73014">
        <ele>166.4</ele>
        <time>2021-03-28T08:27:36Z</time>
      </trkpt>
      <trkpt lat="42.85262" lon="2.73016">
        <ele>166.7</ele>
        <time>2021-03-28T08:27:37Z</time>
      </trkpt>
      <trkpt lat="42.85262" lon="2.73016">
        <ele>166.7</ele>
        <time>2021-03-28T08:27:37Z</time>
      </trkpt>
      <trkpt lat="42.85259" lon="2.73018">
        <ele>166.9</ele>
        <time>2021-03-28T08:27:38Z</time>
      </trkpt>
      <trkpt lat="42.85259" lon="2.73018">
        <ele>166.9</ele>
        <time>2021-03-28T08:27:38Z</time>
      </trkpt>
      <trkpt lat="42.85256" lon="2.7302">
        <ele>167.2</ele>
        <time>2021-03-28T08:27:40Z</time>
      </trkpt>
      <trkpt lat="42.85256" lon="2.7302">
        <ele>167.2</ele>
        <time>2021-03-28T08:27:40Z</time>
      </trkpt>
      <trkpt lat="42.85252" lon="2.73023">
        <ele>167.5</ele>
        <time>2021-03-28T08:27:42Z</time>
      </trkpt>
      <trkpt lat="42.85252" lon="2.73023">
        <ele>167.5</ele>
        <time>2021-03-28T08:27:42Z</time>
      </trkpt>
      <trkpt lat="42.85249" lon="2.73025">
        <ele>167.6</ele>
        <time>2021-03-28T08:27:43Z</time>
      </trkpt>
      <trkpt lat="42.85249" lon="2.73025">
        <ele>167.6</ele>
        <time>2021-03-28T08:27:43Z</time>
      </trkpt>
      <trkpt lat="42.85246" lon="2.73027">
        <ele>167.7</ele>
        <time>2021-03-28T08:27:44Z</time>
      </trkpt>
      <trkpt lat="42.85246" lon="2.73027">
        <ele>167.7</ele>
        <time>2021-03-28T08:27:44Z</time>
      </trkpt>
      <trkpt lat="42.85243" lon="2.73029">
        <ele>167.8</ele>
        <time>2021-03-28T08:27:45Z</time>
      </trkpt>
      <trkpt lat="42.85243" lon="2.73029">
        <ele>167.8</ele>
        <time>2021-03-28T08:27:45Z</time>
      </trkpt>
      <trkpt lat="42.85239" lon="2.73032">
        <ele>167.9</ele>
        <time>2021-03-28T08:27:47Z</time>
      </trkpt>
      <trkpt lat="42.85239" lon="2.73032">
        <ele>167.9</ele>
        <time>2021-03-28T08:27:47Z</time>
      </trkpt>
      <trkpt lat="42.85235" lon="2.73034">
        <ele>168.1</ele>
        <time>2021-03-28T08:27:49Z</time>
      </trkpt>
      <trkpt lat="42.85235" lon="2.73034">
        <ele>168.1</ele>
        <time>2021-03-28T08:27:49Z</time>
      </trkpt>
      <trkpt lat="42.85231" lon="2.73036">
        <ele>168.3</ele>
        <time>2021-03-28T08:27:50Z</time>
      </trkpt>
      <trkpt lat="42.85231" lon="2.73036">
        <ele>168.3</ele>
        <time>2021-03-28T08:27:50Z</time>
      </trkpt>
      <trkpt lat="42.85227" lon="2.73038">
        <ele>168.4</ele>
        <time>2021-03-28T08:27:52Z</time>
      </trkpt>
      <trkpt lat="42.85227" lon="2.73038">
        <ele>168.4</ele>
        <time>2021-03-28T08:27:52Z</time>
      </trkpt>
      <trkpt lat="42.85224" lon="2.7304">
        <ele>168.6</ele>
        <time>2021-03-28T08:27:53Z</time>
      </trkpt>
      <trkpt lat="42.85224" lon="2.7304">
        <ele>168.6</ele>
        <time>2021-03-28T08:27:53Z</time>
      </trkpt>
      <trkpt lat="42.85221" lon="2.73043">
        <ele>168.5</ele>
        <time>2021-03-28T08:27:55Z</time>
      </trkpt>
      <trkpt lat="42.85221" lon="2.73043">
        <ele>168.5</ele>
        <time>2021-03-28T08:27:55Z</time>
      </trkpt>
      <trkpt lat="42.85217" lon="2.73046">
        <ele>168.4</ele>
        <time>2021-03-28T08:27:57Z</time>
      </trkpt>
      <trkpt lat="42.85217" lon="2.73046">
        <ele>168.4</ele>
        <time>2021-03-28T08:27:57Z</time>
      </trkpt>
      <trkpt lat="42.85213" lon="2.73049">
        <ele>168.5</ele>
        <time>2021-03-28T08:27:59Z</time>
      </trkpt>
      <trkpt lat="42.85213" lon="2.73049">
        <ele>168.5</ele>
        <time>2021-03-28T08:27:59Z</time>
      </trkpt>
      <trkpt lat="42.8521" lon="2.73051">
        <ele>168.5</ele>
        <time>2021-03-28T08:28:01Z</time>
      </trkpt>
      <trkpt lat="42.8521" lon="2.73051">
        <ele>168.5</ele>
        <time>2021-03-28T08:28:01Z</time>
      </trkpt>
      <trkpt lat="42.85206" lon="2.73054">
        <ele>168.6</ele>
        <time>2021-03-28T08:28:02Z</time>
      </trkpt>
      <trkpt lat="42.85206" lon="2.73054">
        <ele>168.6</ele>
        <time>2021-03-28T08:28:02Z</time>
      </trkpt>
      <trkpt lat="42.85203" lon="2.73056">
        <ele>168.7</ele>
        <time>2021-03-28T08:28:03Z</time>
      </trkpt>
      <trkpt lat="42.85203" lon="2.73056">
        <ele>168.7</ele>
        <time>2021-03-28T08:28:03Z</time>
      </trkpt>
      <trkpt lat="42.852" lon="2.73058">
        <ele>168.9</ele>
        <time>2021-03-28T08:28:05Z</time>
      </trkpt>
      <trkpt lat="42.852" lon="2.73058">
        <ele>168.9</ele>
        <time>2021-03-28T08:28:05Z</time>
      </trkpt>
      <trkpt lat="42.85198" lon="2.7306">
        <ele>169.1</ele>
        <time>2021-03-28T08:28:06Z</time>
      </trkpt>
      <trkpt lat="42.85198" lon="2.7306">
        <ele>169.1</ele>
        <time>2021-03-28T08:28:06Z</time>
      </trkpt>
      <trkpt lat="42.85195" lon="2.73062">
        <ele>169.4</ele>
        <time>2021-03-28T08:28:08Z</time>
      </trkpt>
      <trkpt lat="42.85195" lon="2.73062">
        <ele>169.4</ele>
        <time>2021-03-28T08:28:08Z</time>
      </trkpt>
      <trkpt lat="42.85193" lon="2.73063">
        <ele>169.6</ele>
        <time>2021-03-28T08:28:09Z</time>
      </trkpt>
      <trkpt lat="42.85193" lon="2.73063">
        <ele>169.6</ele>
        <time>2021-03-28T08:28:09Z</time>
      </trkpt>
      <trkpt lat="42.8519" lon="2.73065">
        <ele>169.8</ele>
        <time>2021-03-28T08:28:10Z</time>
      </trkpt>
      <trkpt lat="42.8519" lon="2.73065">
        <ele>169.8</ele>
        <time>2021-03-28T08:28:10Z</time>
      </trkpt>
      <trkpt lat="42.85187" lon="2.73066">
        <ele>169.9</ele>
        <time>2021-03-28T08:28:12Z</time>
      </trkpt>
      <trkpt lat="42.85187" lon="2.73066">
        <ele>169.9</ele>
        <time>2021-03-28T08:28:12Z</time>
      </trkpt>
      <trkpt lat="42.85184" lon="2.73067">
        <ele>170.1</ele>
        <time>2021-03-28T08:28:14Z</time>
      </trkpt>
      <trkpt lat="42.85184" lon="2.73067">
        <ele>170.1</ele>
        <time>2021-03-28T08:28:14Z</time>
      </trkpt>
      <trkpt lat="42.8518" lon="2.73068">
        <ele>170.2</ele>
        <time>2021-03-28T08:28:16Z</time>
      </trkpt>
      <trkpt lat="42.8518" lon="2.73068">
        <ele>170.2</ele>
        <time>2021-03-28T08:28:16Z</time>
      </trkpt>
      <trkpt lat="42.85177" lon="2.73069">
        <ele>170.4</ele>
        <time>2021-03-28T08:28:17Z</time>
      </trkpt>
      <trkpt lat="42.85177" lon="2.73069">
        <ele>170.4</ele>
        <time>2021-03-28T08:28:17Z</time>
      </trkpt>
      <trkpt lat="42.85173" lon="2.73069">
        <ele>170.7</ele>
        <time>2021-03-28T08:28:19Z</time>
      </trkpt>
      <trkpt lat="42.85173" lon="2.73069">
        <ele>170.7</ele>
        <time>2021-03-28T08:28:19Z</time>
      </trkpt>
      <trkpt lat="42.8517" lon="2.73068">
        <ele>171</ele>
        <time>2021-03-28T08:28:20Z</time>
      </trkpt>
      <trkpt lat="42.8517" lon="2.73068">
        <ele>171</ele>
        <time>2021-03-28T08:28:20Z</time>
      </trkpt>
      <trkpt lat="42.85166" lon="2.73068">
        <ele>171.4</ele>
        <time>2021-03-28T08:28:22Z</time>
      </trkpt>
      <trkpt lat="42.85166" lon="2.73068">
        <ele>171.4</ele>
        <time>2021-03-28T08:28:22Z</time>
      </trkpt>
      <trkpt lat="42.85162" lon="2.73066">
        <ele>171.5</ele>
        <time>2021-03-28T08:28:24Z</time>
      </trkpt>
      <trkpt lat="42.85162" lon="2.73066">
        <ele>171.5</ele>
        <time>2021-03-28T08:28:24Z</time>
      </trkpt>
      <trkpt lat="42.85158" lon="2.73065">
        <ele>171.7</ele>
        <time>2021-03-28T08:28:26Z</time>
      </trkpt>
      <trkpt lat="42.85158" lon="2.73065">
        <ele>171.7</ele>
        <time>2021-03-28T08:28:26Z</time>
      </trkpt>
      <trkpt lat="42.85155" lon="2.73063">
        <ele>171.9</ele>
        <time>2021-03-28T08:28:27Z</time>
      </trkpt>
      <trkpt lat="42.85155" lon="2.73063">
        <ele>171.9</ele>
        <time>2021-03-28T08:28:27Z</time>
      </trkpt>
      <trkpt lat="42.85151" lon="2.73061">
        <ele>172.3</ele>
        <time>2021-03-28T08:28:29Z</time>
      </trkpt>
      <trkpt lat="42.85151" lon="2.73061">
        <ele>172.3</ele>
        <time>2021-03-28T08:28:29Z</time>
      </trkpt>
      <trkpt lat="42.85146" lon="2.73059">
        <ele>172.6</ele>
        <time>2021-03-28T08:28:31Z</time>
      </trkpt>
      <trkpt lat="42.85146" lon="2.73059">
        <ele>172.6</ele>
        <time>2021-03-28T08:28:31Z</time>
      </trkpt>
      <trkpt lat="42.85142" lon="2.73057">
        <ele>172.9</ele>
        <time>2021-03-28T08:28:32Z</time>
      </trkpt>
      <trkpt lat="42.85142" lon="2.73057">
        <ele>172.9</ele>
        <time>2021-03-28T08:28:32Z</time>
      </trkpt>
      <trkpt lat="42.85139" lon="2.73055">
        <ele>173.2</ele>
        <time>2021-03-28T08:28:33Z</time>
      </trkpt>
      <trkpt lat="42.85139" lon="2.73055">
        <ele>173.2</ele>
        <time>2021-03-28T08:28:33Z</time>
      </trkpt>
      <trkpt lat="42.85135" lon="2.73053">
        <ele>173.7</ele>
        <time>2021-03-28T08:28:34Z</time>
      </trkpt>
      <trkpt lat="42.85135" lon="2.73053">
        <ele>173.7</ele>
        <time>2021-03-28T08:28:34Z</time>
      </trkpt>
      <trkpt lat="42.85131" lon="2.73051">
        <ele>174.2</ele>
        <time>2021-03-28T08:28:36Z</time>
      </trkpt>
      <trkpt lat="42.85131" lon="2.73051">
        <ele>174.2</ele>
        <time>2021-03-28T08:28:36Z</time>
      </trkpt>
      <trkpt lat="42.85128" lon="2.73049">
        <ele>174.7</ele>
        <time>2021-03-28T08:28:37Z</time>
      </trkpt>
      <trkpt lat="42.85128" lon="2.73049">
        <ele>174.7</ele>
        <time>2021-03-28T08:28:37Z</time>
      </trkpt>
      <trkpt lat="42.85124" lon="2.73048">
        <ele>175</ele>
        <time>2021-03-28T08:28:38Z</time>
      </trkpt>
      <trkpt lat="42.85124" lon="2.73048">
        <ele>175</ele>
        <time>2021-03-28T08:28:38Z</time>
      </trkpt>
      <trkpt lat="42.85121" lon="2.73047">
        <ele>175.3</ele>
        <time>2021-03-28T08:28:39Z</time>
      </trkpt>
      <trkpt lat="42.85121" lon="2.73047">
        <ele>175.3</ele>
        <time>2021-03-28T08:28:39Z</time>
      </trkpt>
      <trkpt lat="42.85118" lon="2.73046">
        <ele>175.6</ele>
        <time>2021-03-28T08:28:40Z</time>
      </trkpt>
      <trkpt lat="42.85118" lon="2.73046">
        <ele>175.6</ele>
        <time>2021-03-28T08:28:40Z</time>
      </trkpt>
      <trkpt lat="42.85115" lon="2.73045">
        <ele>175.7</ele>
        <time>2021-03-28T08:28:41Z</time>
      </trkpt>
      <trkpt lat="42.85115" lon="2.73045">
        <ele>175.7</ele>
        <time>2021-03-28T08:28:41Z</time>
      </trkpt>
      <trkpt lat="42.85111" lon="2.73045">
        <ele>175.6</ele>
        <time>2021-03-28T08:28:43Z</time>
      </trkpt>
      <trkpt lat="42.85111" lon="2.73045">
        <ele>175.6</ele>
        <time>2021-03-28T08:28:43Z</time>
      </trkpt>
      <trkpt lat="42.85107" lon="2.73047">
        <ele>175.4</ele>
        <time>2021-03-28T08:28:45Z</time>
      </trkpt>
      <trkpt lat="42.85107" lon="2.73047">
        <ele>175.4</ele>
        <time>2021-03-28T08:28:45Z</time>
      </trkpt>
      <trkpt lat="42.85102" lon="2.73049">
        <ele>175</ele>
        <time>2021-03-28T08:28:47Z</time>
      </trkpt>
      <trkpt lat="42.85102" lon="2.73049">
        <ele>175</ele>
        <time>2021-03-28T08:28:47Z</time>
      </trkpt>
      <trkpt lat="42.85099" lon="2.73052">
        <ele>174.6</ele>
        <time>2021-03-28T08:28:48Z</time>
      </trkpt>
      <trkpt lat="42.85099" lon="2.73052">
        <ele>174.6</ele>
        <time>2021-03-28T08:28:48Z</time>
      </trkpt>
      <trkpt lat="42.85096" lon="2.73057">
        <ele>174.2</ele>
        <time>2021-03-28T08:28:50Z</time>
      </trkpt>
      <trkpt lat="42.85096" lon="2.73057">
        <ele>174.2</ele>
        <time>2021-03-28T08:28:50Z</time>
      </trkpt>
      <trkpt lat="42.85094" lon="2.73061">
        <ele>175</ele>
        <time>2021-03-28T08:28:51Z</time>
      </trkpt>
      <trkpt lat="42.85094" lon="2.73061">
        <ele>175</ele>
        <time>2021-03-28T08:28:51Z</time>
      </trkpt>
      <trkpt lat="42.85093" lon="2.73066">
        <ele>175.8</ele>
        <time>2021-03-28T08:28:53Z</time>
      </trkpt>
      <trkpt lat="42.85093" lon="2.73066">
        <ele>175.8</ele>
        <time>2021-03-28T08:28:53Z</time>
      </trkpt>
      <trkpt lat="42.85093" lon="2.73071">
        <ele>176.5</ele>
        <time>2021-03-28T08:28:54Z</time>
      </trkpt>
      <trkpt lat="42.85093" lon="2.73071">
        <ele>176.5</ele>
        <time>2021-03-28T08:28:54Z</time>
      </trkpt>
      <trkpt lat="42.85094" lon="2.73077">
        <ele>176.9</ele>
        <time>2021-03-28T08:28:56Z</time>
      </trkpt>
      <trkpt lat="42.85094" lon="2.73077">
        <ele>176.9</ele>
        <time>2021-03-28T08:28:56Z</time>
      </trkpt>
      <trkpt lat="42.85096" lon="2.73083">
        <ele>177.1</ele>
        <time>2021-03-28T08:28:58Z</time>
      </trkpt>
      <trkpt lat="42.85096" lon="2.73083">
        <ele>177.1</ele>
        <time>2021-03-28T08:28:58Z</time>
      </trkpt>
      <trkpt lat="42.85098" lon="2.7309">
        <ele>177.4</ele>
        <time>2021-03-28T08:29:00Z</time>
      </trkpt>
      <trkpt lat="42.85098" lon="2.7309">
        <ele>177.4</ele>
        <time>2021-03-28T08:29:00Z</time>
      </trkpt>
      <trkpt lat="42.85101" lon="2.73096">
        <ele>177.6</ele>
        <time>2021-03-28T08:29:02Z</time>
      </trkpt>
      <trkpt lat="42.85101" lon="2.73096">
        <ele>177.6</ele>
        <time>2021-03-28T08:29:02Z</time>
      </trkpt>
      <trkpt lat="42.85104" lon="2.73102">
        <ele>177.7</ele>
        <time>2021-03-28T08:29:03Z</time>
      </trkpt>
      <trkpt lat="42.85104" lon="2.73102">
        <ele>177.7</ele>
        <time>2021-03-28T08:29:03Z</time>
      </trkpt>
      <trkpt lat="42.85107" lon="2.73108">
        <ele>177.9</ele>
        <time>2021-03-28T08:29:05Z</time>
      </trkpt>
      <trkpt lat="42.85107" lon="2.73108">
        <ele>177.9</ele>
        <time>2021-03-28T08:29:05Z</time>
      </trkpt>
      <trkpt lat="42.8511" lon="2.73114">
        <ele>178</ele>
        <time>2021-03-28T08:29:06Z</time>
      </trkpt>
      <trkpt lat="42.8511" lon="2.73114">
        <ele>178</ele>
        <time>2021-03-28T08:29:06Z</time>
      </trkpt>
      <trkpt lat="42.85112" lon="2.7312">
        <ele>178.2</ele>
        <time>2021-03-28T08:29:08Z</time>
      </trkpt>
      <trkpt lat="42.85112" lon="2.7312">
        <ele>178.2</ele>
        <time>2021-03-28T08:29:08Z</time>
      </trkpt>
      <trkpt lat="42.85115" lon="2.73125">
        <ele>178.4</ele>
        <time>2021-03-28T08:29:09Z</time>
      </trkpt>
      <trkpt lat="42.85115" lon="2.73125">
        <ele>178.4</ele>
        <time>2021-03-28T08:29:09Z</time>
      </trkpt>
      <trkpt lat="42.85117" lon="2.73131">
        <ele>178.8</ele>
        <time>2021-03-28T08:29:11Z</time>
      </trkpt>
      <trkpt lat="42.85117" lon="2.73131">
        <ele>178.8</ele>
        <time>2021-03-28T08:29:11Z</time>
      </trkpt>
      <trkpt lat="42.85119" lon="2.73138">
        <ele>179.6</ele>
        <time>2021-03-28T08:29:13Z</time>
      </trkpt>
      <trkpt lat="42.85119" lon="2.73138">
        <ele>179.6</ele>
        <time>2021-03-28T08:29:13Z</time>
      </trkpt>
      <trkpt lat="42.85121" lon="2.73144">
        <ele>179.5</ele>
        <time>2021-03-28T08:29:14Z</time>
      </trkpt>
      <trkpt lat="42.85121" lon="2.73144">
        <ele>179.5</ele>
        <time>2021-03-28T08:29:14Z</time>
      </trkpt>
      <trkpt lat="42.85122" lon="2.7315">
        <ele>179.4</ele>
        <time>2021-03-28T08:29:16Z</time>
      </trkpt>
      <trkpt lat="42.85122" lon="2.7315">
        <ele>179.4</ele>
        <time>2021-03-28T08:29:16Z</time>
      </trkpt>
      <trkpt lat="42.85123" lon="2.73157">
        <ele>179.5</ele>
        <time>2021-03-28T08:29:18Z</time>
      </trkpt>
      <trkpt lat="42.85123" lon="2.73157">
        <ele>179.5</ele>
        <time>2021-03-28T08:29:18Z</time>
      </trkpt>
      <trkpt lat="42.85123" lon="2.73163">
        <ele>179.8</ele>
        <time>2021-03-28T08:29:19Z</time>
      </trkpt>
      <trkpt lat="42.85123" lon="2.73163">
        <ele>179.8</ele>
        <time>2021-03-28T08:29:19Z</time>
      </trkpt>
      <trkpt lat="42.85122" lon="2.73169">
        <ele>180.2</ele>
        <time>2021-03-28T08:29:21Z</time>
      </trkpt>
      <trkpt lat="42.85122" lon="2.73169">
        <ele>180.2</ele>
        <time>2021-03-28T08:29:21Z</time>
      </trkpt>
      <trkpt lat="42.8512" lon="2.73175">
        <ele>180.1</ele>
        <time>2021-03-28T08:29:23Z</time>
      </trkpt>
      <trkpt lat="42.8512" lon="2.73175">
        <ele>180.1</ele>
        <time>2021-03-28T08:29:23Z</time>
      </trkpt>
      <trkpt lat="42.85118" lon="2.7318">
        <ele>180.2</ele>
        <time>2021-03-28T08:29:24Z</time>
      </trkpt>
      <trkpt lat="42.85118" lon="2.7318">
        <ele>180.2</ele>
        <time>2021-03-28T08:29:24Z</time>
      </trkpt>
      <trkpt lat="42.85115" lon="2.73185">
        <ele>180.3</ele>
        <time>2021-03-28T08:29:26Z</time>
      </trkpt>
      <trkpt lat="42.85115" lon="2.73185">
        <ele>180.3</ele>
        <time>2021-03-28T08:29:26Z</time>
      </trkpt>
      <trkpt lat="42.85112" lon="2.73189">
        <ele>180.5</ele>
        <time>2021-03-28T08:29:28Z</time>
      </trkpt>
      <trkpt lat="42.85112" lon="2.73189">
        <ele>180.5</ele>
        <time>2021-03-28T08:29:28Z</time>
      </trkpt>
      <trkpt lat="42.85108" lon="2.73192">
        <ele>180.5</ele>
        <time>2021-03-28T08:29:29Z</time>
      </trkpt>
      <trkpt lat="42.85108" lon="2.73192">
        <ele>180.5</ele>
        <time>2021-03-28T08:29:29Z</time>
      </trkpt>
      <trkpt lat="42.85105" lon="2.73195">
        <ele>180.3</ele>
        <time>2021-03-28T08:29:30Z</time>
      </trkpt>
      <trkpt lat="42.85105" lon="2.73195">
        <ele>180.3</ele>
        <time>2021-03-28T08:29:30Z</time>
      </trkpt>
      <trkpt lat="42.85102" lon="2.73198">
        <ele>180.2</ele>
        <time>2021-03-28T08:29:31Z</time>
      </trkpt>
      <trkpt lat="42.85102" lon="2.73198">
        <ele>180.2</ele>
        <time>2021-03-28T08:29:31Z</time>
      </trkpt>
      <trkpt lat="42.85098" lon="2.73202">
        <ele>180.1</ele>
        <time>2021-03-28T08:29:33Z</time>
      </trkpt>
      <trkpt lat="42.85098" lon="2.73202">
        <ele>180.1</ele>
        <time>2021-03-28T08:29:33Z</time>
      </trkpt>
      <trkpt lat="42.85095" lon="2.73206">
        <ele>180.2</ele>
        <time>2021-03-28T08:29:35Z</time>
      </trkpt>
      <trkpt lat="42.85095" lon="2.73206">
        <ele>180.2</ele>
        <time>2021-03-28T08:29:35Z</time>
      </trkpt>
      <trkpt lat="42.85092" lon="2.7321">
        <ele>180.3</ele>
        <time>2021-03-28T08:29:36Z</time>
      </trkpt>
      <trkpt lat="42.85092" lon="2.7321">
        <ele>180.3</ele>
        <time>2021-03-28T08:29:36Z</time>
      </trkpt>
      <trkpt lat="42.8509" lon="2.73215">
        <ele>180.5</ele>
        <time>2021-03-28T08:29:38Z</time>
      </trkpt>
      <trkpt lat="42.8509" lon="2.73215">
        <ele>180.5</ele>
        <time>2021-03-28T08:29:38Z</time>
      </trkpt>
      <trkpt lat="42.85088" lon="2.73219">
        <ele>180.7</ele>
        <time>2021-03-28T08:29:39Z</time>
      </trkpt>
      <trkpt lat="42.85088" lon="2.73219">
        <ele>180.7</ele>
        <time>2021-03-28T08:29:39Z</time>
      </trkpt>
      <trkpt lat="42.85088" lon="2.73224">
        <ele>181</ele>
        <time>2021-03-28T08:29:41Z</time>
      </trkpt>
      <trkpt lat="42.85088" lon="2.73224">
        <ele>181</ele>
        <time>2021-03-28T08:29:41Z</time>
      </trkpt>
      <trkpt lat="42.85088" lon="2.7323">
        <ele>181.5</ele>
        <time>2021-03-28T08:29:43Z</time>
      </trkpt>
      <trkpt lat="42.85088" lon="2.7323">
        <ele>181.5</ele>
        <time>2021-03-28T08:29:43Z</time>
      </trkpt>
      <trkpt lat="42.8509" lon="2.73237">
        <ele>181.8</ele>
        <time>2021-03-28T08:29:45Z</time>
      </trkpt>
      <trkpt lat="42.8509" lon="2.73237">
        <ele>181.8</ele>
        <time>2021-03-28T08:29:45Z</time>
      </trkpt>
      <trkpt lat="42.85092" lon="2.73243">
        <ele>182</ele>
        <time>2021-03-28T08:29:47Z</time>
      </trkpt>
      <trkpt lat="42.85092" lon="2.73243">
        <ele>182</ele>
        <time>2021-03-28T08:29:47Z</time>
      </trkpt>
      <trkpt lat="42.85094" lon="2.73249">
        <ele>182.2</ele>
        <time>2021-03-28T08:29:48Z</time>
      </trkpt>
      <trkpt lat="42.85094" lon="2.73249">
        <ele>182.2</ele>
        <time>2021-03-28T08:29:48Z</time>
      </trkpt>
      <trkpt lat="42.85096" lon="2.73255">
        <ele>182.7</ele>
        <time>2021-03-28T08:29:50Z</time>
      </trkpt>
      <trkpt lat="42.85096" lon="2.73255">
        <ele>182.7</ele>
        <time>2021-03-28T08:29:50Z</time>
      </trkpt>
      <trkpt lat="42.85098" lon="2.7326">
        <ele>183.2</ele>
        <time>2021-03-28T08:29:51Z</time>
      </trkpt>
      <trkpt lat="42.85098" lon="2.7326">
        <ele>183.2</ele>
        <time>2021-03-28T08:29:51Z</time>
      </trkpt>
      <trkpt lat="42.851" lon="2.73265">
        <ele>183.6</ele>
        <time>2021-03-28T08:29:52Z</time>
      </trkpt>
      <trkpt lat="42.851" lon="2.73265">
        <ele>183.6</ele>
        <time>2021-03-28T08:29:52Z</time>
      </trkpt>
      <trkpt lat="42.85103" lon="2.7327">
        <ele>184</ele>
        <time>2021-03-28T08:29:54Z</time>
      </trkpt>
      <trkpt lat="42.85103" lon="2.7327">
        <ele>184</ele>
        <time>2021-03-28T08:29:54Z</time>
      </trkpt>
      <trkpt lat="42.85105" lon="2.73276">
        <ele>184.4</ele>
        <time>2021-03-28T08:29:56Z</time>
      </trkpt>
      <trkpt lat="42.85105" lon="2.73276">
        <ele>184.4</ele>
        <time>2021-03-28T08:29:56Z</time>
      </trkpt>
      <trkpt lat="42.85108" lon="2.73281">
        <ele>184.6</ele>
        <time>2021-03-28T08:29:58Z</time>
      </trkpt>
      <trkpt lat="42.85108" lon="2.73281">
        <ele>184.6</ele>
        <time>2021-03-28T08:29:58Z</time>
      </trkpt>
      <trkpt lat="42.85111" lon="2.73288">
        <ele>184.8</ele>
        <time>2021-03-28T08:30:00Z</time>
      </trkpt>
      <trkpt lat="42.85111" lon="2.73288">
        <ele>184.8</ele>
        <time>2021-03-28T08:30:00Z</time>
      </trkpt>
      <trkpt lat="42.85114" lon="2.73294">
        <ele>185.1</ele>
        <time>2021-03-28T08:30:02Z</time>
      </trkpt>
      <trkpt lat="42.85114" lon="2.73294">
        <ele>185.1</ele>
        <time>2021-03-28T08:30:02Z</time>
      </trkpt>
      <trkpt lat="42.85117" lon="2.73301">
        <ele>185.3</ele>
        <time>2021-03-28T08:30:04Z</time>
      </trkpt>
      <trkpt lat="42.85117" lon="2.73301">
        <ele>185.3</ele>
        <time>2021-03-28T08:30:04Z</time>
      </trkpt>
      <trkpt lat="42.8512" lon="2.73307">
        <ele>185.3</ele>
        <time>2021-03-28T08:30:06Z</time>
      </trkpt>
      <trkpt lat="42.8512" lon="2.73307">
        <ele>185.3</ele>
        <time>2021-03-28T08:30:06Z</time>
      </trkpt>
      <trkpt lat="42.85124" lon="2.73314">
        <ele>185.6</ele>
        <time>2021-03-28T08:30:08Z</time>
      </trkpt>
      <trkpt lat="42.85124" lon="2.73314">
        <ele>185.6</ele>
        <time>2021-03-28T08:30:08Z</time>
      </trkpt>
      <trkpt lat="42.85126" lon="2.7332">
        <ele>185.9</ele>
        <time>2021-03-28T08:30:09Z</time>
      </trkpt>
      <trkpt lat="42.85126" lon="2.7332">
        <ele>185.9</ele>
        <time>2021-03-28T08:30:09Z</time>
      </trkpt>
      <trkpt lat="42.8513" lon="2.73326">
        <ele>186.1</ele>
        <time>2021-03-28T08:30:11Z</time>
      </trkpt>
      <trkpt lat="42.8513" lon="2.73326">
        <ele>186.1</ele>
        <time>2021-03-28T08:30:11Z</time>
      </trkpt>
      <trkpt lat="42.85132" lon="2.73331">
        <ele>186.3</ele>
        <time>2021-03-28T08:30:12Z</time>
      </trkpt>
      <trkpt lat="42.85132" lon="2.73331">
        <ele>186.3</ele>
        <time>2021-03-28T08:30:12Z</time>
      </trkpt>
      <trkpt lat="42.85135" lon="2.73335">
        <ele>186.4</ele>
        <time>2021-03-28T08:30:13Z</time>
      </trkpt>
      <trkpt lat="42.85135" lon="2.73335">
        <ele>186.4</ele>
        <time>2021-03-28T08:30:13Z</time>
      </trkpt>
      <trkpt lat="42.85137" lon="2.73339">
        <ele>186.4</ele>
        <time>2021-03-28T08:30:14Z</time>
      </trkpt>
      <trkpt lat="42.85137" lon="2.73339">
        <ele>186.4</ele>
        <time>2021-03-28T08:30:14Z</time>
      </trkpt>
      <trkpt lat="42.85139" lon="2.73344">
        <ele>186.5</ele>
        <time>2021-03-28T08:30:16Z</time>
      </trkpt>
      <trkpt lat="42.85139" lon="2.73344">
        <ele>186.5</ele>
        <time>2021-03-28T08:30:16Z</time>
      </trkpt>
      <trkpt lat="42.85142" lon="2.7335">
        <ele>186.6</ele>
        <time>2021-03-28T08:30:18Z</time>
      </trkpt>
      <trkpt lat="42.85142" lon="2.7335">
        <ele>186.6</ele>
        <time>2021-03-28T08:30:18Z</time>
      </trkpt>
      <trkpt lat="42.85144" lon="2.73355">
        <ele>186.7</ele>
        <time>2021-03-28T08:30:19Z</time>
      </trkpt>
      <trkpt lat="42.85144" lon="2.73355">
        <ele>186.7</ele>
        <time>2021-03-28T08:30:19Z</time>
      </trkpt>
      <trkpt lat="42.85146" lon="2.73361">
        <ele>186.9</ele>
        <time>2021-03-28T08:30:21Z</time>
      </trkpt>
      <trkpt lat="42.85146" lon="2.73361">
        <ele>186.9</ele>
        <time>2021-03-28T08:30:21Z</time>
      </trkpt>
      <trkpt lat="42.85148" lon="2.73366">
        <ele>186.9</ele>
        <time>2021-03-28T08:30:22Z</time>
      </trkpt>
      <trkpt lat="42.85148" lon="2.73366">
        <ele>186.9</ele>
        <time>2021-03-28T08:30:22Z</time>
      </trkpt>
      <trkpt lat="42.8515" lon="2.73373">
        <ele>187</ele>
        <time>2021-03-28T08:30:24Z</time>
      </trkpt>
      <trkpt lat="42.8515" lon="2.73373">
        <ele>187</ele>
        <time>2021-03-28T08:30:24Z</time>
      </trkpt>
      <trkpt lat="42.85152" lon="2.7338">
        <ele>187.3</ele>
        <time>2021-03-28T08:30:26Z</time>
      </trkpt>
      <trkpt lat="42.85152" lon="2.7338">
        <ele>187.3</ele>
        <time>2021-03-28T08:30:26Z</time>
      </trkpt>
      <trkpt lat="42.85153" lon="2.73387">
        <ele>187.7</ele>
        <time>2021-03-28T08:30:28Z</time>
      </trkpt>
      <trkpt lat="42.85153" lon="2.73387">
        <ele>187.7</ele>
        <time>2021-03-28T08:30:28Z</time>
      </trkpt>
      <trkpt lat="42.85154" lon="2.73395">
        <ele>188.1</ele>
        <time>2021-03-28T08:30:30Z</time>
      </trkpt>
      <trkpt lat="42.85154" lon="2.73395">
        <ele>188.1</ele>
        <time>2021-03-28T08:30:30Z</time>
      </trkpt>
      <trkpt lat="42.85156" lon="2.73401">
        <ele>188.5</ele>
        <time>2021-03-28T08:30:31Z</time>
      </trkpt>
      <trkpt lat="42.85156" lon="2.73401">
        <ele>188.5</ele>
        <time>2021-03-28T08:30:31Z</time>
      </trkpt>
      <trkpt lat="42.85157" lon="2.73407">
        <ele>188.7</ele>
        <time>2021-03-28T08:30:32Z</time>
      </trkpt>
      <trkpt lat="42.85157" lon="2.73407">
        <ele>188.7</ele>
        <time>2021-03-28T08:30:32Z</time>
      </trkpt>
      <trkpt lat="42.85158" lon="2.73413">
        <ele>189</ele>
        <time>2021-03-28T08:30:34Z</time>
      </trkpt>
      <trkpt lat="42.85158" lon="2.73413">
        <ele>189</ele>
        <time>2021-03-28T08:30:34Z</time>
      </trkpt>
      <trkpt lat="42.8516" lon="2.73419">
        <ele>189.3</ele>
        <time>2021-03-28T08:30:36Z</time>
      </trkpt>
      <trkpt lat="42.8516" lon="2.73419">
        <ele>189.3</ele>
        <time>2021-03-28T08:30:36Z</time>
      </trkpt>
      <trkpt lat="42.85161" lon="2.73426">
        <ele>189.6</ele>
        <time>2021-03-28T08:30:38Z</time>
      </trkpt>
      <trkpt lat="42.85161" lon="2.73426">
        <ele>189.6</ele>
        <time>2021-03-28T08:30:38Z</time>
      </trkpt>
      <trkpt lat="42.85162" lon="2.73433">
        <ele>190</ele>
        <time>2021-03-28T08:30:40Z</time>
      </trkpt>
      <trkpt lat="42.85162" lon="2.73433">
        <ele>190</ele>
        <time>2021-03-28T08:30:40Z</time>
      </trkpt>
      <trkpt lat="42.85163" lon="2.7344">
        <ele>190.4</ele>
        <time>2021-03-28T08:30:41Z</time>
      </trkpt>
      <trkpt lat="42.85163" lon="2.7344">
        <ele>190.4</ele>
        <time>2021-03-28T08:30:41Z</time>
      </trkpt>
      <trkpt lat="42.85164" lon="2.73447">
        <ele>190.9</ele>
        <time>2021-03-28T08:30:43Z</time>
      </trkpt>
      <trkpt lat="42.85164" lon="2.73447">
        <ele>190.9</ele>
        <time>2021-03-28T08:30:43Z</time>
      </trkpt>
      <trkpt lat="42.85164" lon="2.73454">
        <ele>191</ele>
        <time>2021-03-28T08:30:45Z</time>
      </trkpt>
      <trkpt lat="42.85164" lon="2.73454">
        <ele>191</ele>
        <time>2021-03-28T08:30:45Z</time>
      </trkpt>
      <trkpt lat="42.85164" lon="2.7346">
        <ele>191.2</ele>
        <time>2021-03-28T08:30:46Z</time>
      </trkpt>
      <trkpt lat="42.85164" lon="2.7346">
        <ele>191.2</ele>
        <time>2021-03-28T08:30:46Z</time>
      </trkpt>
      <trkpt lat="42.85163" lon="2.73466">
        <ele>191.5</ele>
        <time>2021-03-28T08:30:48Z</time>
      </trkpt>
      <trkpt lat="42.85163" lon="2.73466">
        <ele>191.5</ele>
        <time>2021-03-28T08:30:48Z</time>
      </trkpt>
      <trkpt lat="42.85162" lon="2.73471">
        <ele>191.9</ele>
        <time>2021-03-28T08:30:49Z</time>
      </trkpt>
      <trkpt lat="42.85162" lon="2.73471">
        <ele>191.9</ele>
        <time>2021-03-28T08:30:49Z</time>
      </trkpt>
      <trkpt lat="42.8516" lon="2.73475">
        <ele>191.8</ele>
        <time>2021-03-28T08:30:51Z</time>
      </trkpt>
      <trkpt lat="42.8516" lon="2.73475">
        <ele>191.8</ele>
        <time>2021-03-28T08:30:51Z</time>
      </trkpt>
      <trkpt lat="42.85158" lon="2.7348">
        <ele>191.3</ele>
        <time>2021-03-28T08:30:52Z</time>
      </trkpt>
      <trkpt lat="42.85158" lon="2.7348">
        <ele>191.3</ele>
        <time>2021-03-28T08:30:52Z</time>
      </trkpt>
      <trkpt lat="42.85155" lon="2.73483">
        <ele>191</ele>
        <time>2021-03-28T08:30:53Z</time>
      </trkpt>
      <trkpt lat="42.85155" lon="2.73483">
        <ele>191</ele>
        <time>2021-03-28T08:30:53Z</time>
      </trkpt>
      <trkpt lat="42.85153" lon="2.73487">
        <ele>190.8</ele>
        <time>2021-03-28T08:30:55Z</time>
      </trkpt>
      <trkpt lat="42.85153" lon="2.73487">
        <ele>190.8</ele>
        <time>2021-03-28T08:30:55Z</time>
      </trkpt>
      <trkpt lat="42.8515" lon="2.7349">
        <ele>190.8</ele>
        <time>2021-03-28T08:30:56Z</time>
      </trkpt>
      <trkpt lat="42.8515" lon="2.7349">
        <ele>190.8</ele>
        <time>2021-03-28T08:30:56Z</time>
      </trkpt>
      <trkpt lat="42.85146" lon="2.73493">
        <ele>191</ele>
        <time>2021-03-28T08:30:58Z</time>
      </trkpt>
      <trkpt lat="42.85146" lon="2.73493">
        <ele>191</ele>
        <time>2021-03-28T08:30:58Z</time>
      </trkpt>
      <trkpt lat="42.85142" lon="2.73495">
        <ele>191.3</ele>
        <time>2021-03-28T08:31:00Z</time>
      </trkpt>
      <trkpt lat="42.85142" lon="2.73495">
        <ele>191.3</ele>
        <time>2021-03-28T08:31:00Z</time>
      </trkpt>
      <trkpt lat="42.85138" lon="2.73498">
        <ele>191.7</ele>
        <time>2021-03-28T08:31:01Z</time>
      </trkpt>
      <trkpt lat="42.85138" lon="2.73498">
        <ele>191.7</ele>
        <time>2021-03-28T08:31:01Z</time>
      </trkpt>
      <trkpt lat="42.85134" lon="2.735">
        <ele>191.8</ele>
        <time>2021-03-28T08:31:03Z</time>
      </trkpt>
      <trkpt lat="42.85134" lon="2.735">
        <ele>191.8</ele>
        <time>2021-03-28T08:31:03Z</time>
      </trkpt>
      <trkpt lat="42.8513" lon="2.73502">
        <ele>191.8</ele>
        <time>2021-03-28T08:31:04Z</time>
      </trkpt>
      <trkpt lat="42.8513" lon="2.73502">
        <ele>191.8</ele>
        <time>2021-03-28T08:31:04Z</time>
      </trkpt>
      <trkpt lat="42.85126" lon="2.73503">
        <ele>192</ele>
        <time>2021-03-28T08:31:06Z</time>
      </trkpt>
      <trkpt lat="42.85126" lon="2.73503">
        <ele>192</ele>
        <time>2021-03-28T08:31:06Z</time>
      </trkpt>
      <trkpt lat="42.85121" lon="2.73505">
        <ele>192.4</ele>
        <time>2021-03-28T08:31:08Z</time>
      </trkpt>
      <trkpt lat="42.85121" lon="2.73505">
        <ele>192.4</ele>
        <time>2021-03-28T08:31:08Z</time>
      </trkpt>
      <trkpt lat="42.85117" lon="2.73507">
        <ele>192.7</ele>
        <time>2021-03-28T08:31:10Z</time>
      </trkpt>
      <trkpt lat="42.85117" lon="2.73507">
        <ele>192.7</ele>
        <time>2021-03-28T08:31:10Z</time>
      </trkpt>
      <trkpt lat="42.85113" lon="2.73508">
        <ele>193</ele>
        <time>2021-03-28T08:31:11Z</time>
      </trkpt>
      <trkpt lat="42.85113" lon="2.73508">
        <ele>193</ele>
        <time>2021-03-28T08:31:11Z</time>
      </trkpt>
      <trkpt lat="42.85108" lon="2.7351">
        <ele>193.4</ele>
        <time>2021-03-28T08:31:13Z</time>
      </trkpt>
      <trkpt lat="42.85108" lon="2.7351">
        <ele>193.4</ele>
        <time>2021-03-28T08:31:13Z</time>
      </trkpt>
      <trkpt lat="42.85104" lon="2.73511">
        <ele>193.7</ele>
        <time>2021-03-28T08:31:14Z</time>
      </trkpt>
      <trkpt lat="42.85104" lon="2.73511">
        <ele>193.7</ele>
        <time>2021-03-28T08:31:14Z</time>
      </trkpt>
      <trkpt lat="42.85101" lon="2.73513">
        <ele>194</ele>
        <time>2021-03-28T08:31:15Z</time>
      </trkpt>
      <trkpt lat="42.85101" lon="2.73513">
        <ele>194</ele>
        <time>2021-03-28T08:31:15Z</time>
      </trkpt>
      <trkpt lat="42.85097" lon="2.73514">
        <ele>194.4</ele>
        <time>2021-03-28T08:31:17Z</time>
      </trkpt>
      <trkpt lat="42.85097" lon="2.73514">
        <ele>194.4</ele>
        <time>2021-03-28T08:31:17Z</time>
      </trkpt>
      <trkpt lat="42.85092" lon="2.73515">
        <ele>194.8</ele>
        <time>2021-03-28T08:31:19Z</time>
      </trkpt>
      <trkpt lat="42.85092" lon="2.73515">
        <ele>194.8</ele>
        <time>2021-03-28T08:31:19Z</time>
      </trkpt>
      <trkpt lat="42.85087" lon="2.73517">
        <ele>195.1</ele>
        <time>2021-03-28T08:31:21Z</time>
      </trkpt>
      <trkpt lat="42.85087" lon="2.73517">
        <ele>195.1</ele>
        <time>2021-03-28T08:31:21Z</time>
      </trkpt>
      <trkpt lat="42.85082" lon="2.73519">
        <ele>195.4</ele>
        <time>2021-03-28T08:31:23Z</time>
      </trkpt>
      <trkpt lat="42.85082" lon="2.73519">
        <ele>195.4</ele>
        <time>2021-03-28T08:31:23Z</time>
      </trkpt>
      <trkpt lat="42.85077" lon="2.73521">
        <ele>195.6</ele>
        <time>2021-03-28T08:31:25Z</time>
      </trkpt>
      <trkpt lat="42.85077" lon="2.73521">
        <ele>195.6</ele>
        <time>2021-03-28T08:31:25Z</time>
      </trkpt>
      <trkpt lat="42.85072" lon="2.73523">
        <ele>195.9</ele>
        <time>2021-03-28T08:31:27Z</time>
      </trkpt>
      <trkpt lat="42.85072" lon="2.73523">
        <ele>195.9</ele>
        <time>2021-03-28T08:31:27Z</time>
      </trkpt>
      <trkpt lat="42.85068" lon="2.73524">
        <ele>196.2</ele>
        <time>2021-03-28T08:31:28Z</time>
      </trkpt>
      <trkpt lat="42.85068" lon="2.73524">
        <ele>196.2</ele>
        <time>2021-03-28T08:31:28Z</time>
      </trkpt>
      <trkpt lat="42.85064" lon="2.73525">
        <ele>196.5</ele>
        <time>2021-03-28T08:31:29Z</time>
      </trkpt>
      <trkpt lat="42.85064" lon="2.73525">
        <ele>196.5</ele>
        <time>2021-03-28T08:31:29Z</time>
      </trkpt>
      <trkpt lat="42.85059" lon="2.73526">
        <ele>196.9</ele>
        <time>2021-03-28T08:31:31Z</time>
      </trkpt>
      <trkpt lat="42.85059" lon="2.73526">
        <ele>196.9</ele>
        <time>2021-03-28T08:31:31Z</time>
      </trkpt>
      <trkpt lat="42.85054" lon="2.73527">
        <ele>197.1</ele>
        <time>2021-03-28T08:31:33Z</time>
      </trkpt>
      <trkpt lat="42.85054" lon="2.73527">
        <ele>197.1</ele>
        <time>2021-03-28T08:31:33Z</time>
      </trkpt>
      <trkpt lat="42.85049" lon="2.73526">
        <ele>196.6</ele>
        <time>2021-03-28T08:31:35Z</time>
      </trkpt>
      <trkpt lat="42.85049" lon="2.73526">
        <ele>196.6</ele>
        <time>2021-03-28T08:31:35Z</time>
      </trkpt>
      <trkpt lat="42.85044" lon="2.73524">
        <ele>196.5</ele>
        <time>2021-03-28T08:31:37Z</time>
      </trkpt>
      <trkpt lat="42.85044" lon="2.73524">
        <ele>196.5</ele>
        <time>2021-03-28T08:31:37Z</time>
      </trkpt>
      <trkpt lat="42.85039" lon="2.73521">
        <ele>196.8</ele>
        <time>2021-03-28T08:31:39Z</time>
      </trkpt>
      <trkpt lat="42.85039" lon="2.73521">
        <ele>196.8</ele>
        <time>2021-03-28T08:31:39Z</time>
      </trkpt>
      <trkpt lat="42.85036" lon="2.73518">
        <ele>197.1</ele>
        <time>2021-03-28T08:31:40Z</time>
      </trkpt>
      <trkpt lat="42.85036" lon="2.73518">
        <ele>197.1</ele>
        <time>2021-03-28T08:31:40Z</time>
      </trkpt>
      <trkpt lat="42.85032" lon="2.73515">
        <ele>197.7</ele>
        <time>2021-03-28T08:31:42Z</time>
      </trkpt>
      <trkpt lat="42.85032" lon="2.73515">
        <ele>197.7</ele>
        <time>2021-03-28T08:31:42Z</time>
      </trkpt>
      <trkpt lat="42.85029" lon="2.73511">
        <ele>198.2</ele>
        <time>2021-03-28T08:31:43Z</time>
      </trkpt>
      <trkpt lat="42.85029" lon="2.73511">
        <ele>198.2</ele>
        <time>2021-03-28T08:31:43Z</time>
      </trkpt>
      <trkpt lat="42.85026" lon="2.73509">
        <ele>198.7</ele>
        <time>2021-03-28T08:31:44Z</time>
      </trkpt>
      <trkpt lat="42.85026" lon="2.73509">
        <ele>198.7</ele>
        <time>2021-03-28T08:31:44Z</time>
      </trkpt>
      <trkpt lat="42.85023" lon="2.73505">
        <ele>199.4</ele>
        <time>2021-03-28T08:31:46Z</time>
      </trkpt>
      <trkpt lat="42.85023" lon="2.73505">
        <ele>199.4</ele>
        <time>2021-03-28T08:31:46Z</time>
      </trkpt>
      <trkpt lat="42.8502" lon="2.73502">
        <ele>199.9</ele>
        <time>2021-03-28T08:31:47Z</time>
      </trkpt>
      <trkpt lat="42.8502" lon="2.73502">
        <ele>199.9</ele>
        <time>2021-03-28T08:31:47Z</time>
      </trkpt>
      <trkpt lat="42.85017" lon="2.735">
        <ele>200.4</ele>
        <time>2021-03-28T08:31:48Z</time>
      </trkpt>
      <trkpt lat="42.85017" lon="2.735">
        <ele>200.4</ele>
        <time>2021-03-28T08:31:48Z</time>
      </trkpt>
      <trkpt lat="42.85014" lon="2.73498">
        <ele>201</ele>
        <time>2021-03-28T08:31:49Z</time>
      </trkpt>
      <trkpt lat="42.85014" lon="2.73498">
        <ele>201</ele>
        <time>2021-03-28T08:31:49Z</time>
      </trkpt>
      <trkpt lat="42.85012" lon="2.73496">
        <ele>201.5</ele>
        <time>2021-03-28T08:31:50Z</time>
      </trkpt>
      <trkpt lat="42.85012" lon="2.73496">
        <ele>201.5</ele>
        <time>2021-03-28T08:31:50Z</time>
      </trkpt>
      <trkpt lat="42.85009" lon="2.73495">
        <ele>201.8</ele>
        <time>2021-03-28T08:31:52Z</time>
      </trkpt>
      <trkpt lat="42.85009" lon="2.73495">
        <ele>201.8</ele>
        <time>2021-03-28T08:31:52Z</time>
      </trkpt>
      <trkpt lat="42.85004" lon="2.73494">
        <ele>202.1</ele>
        <time>2021-03-28T08:31:54Z</time>
      </trkpt>
      <trkpt lat="42.85004" lon="2.73494">
        <ele>202.1</ele>
        <time>2021-03-28T08:31:54Z</time>
      </trkpt>
      <trkpt lat="42.85001" lon="2.73493">
        <ele>202.4</ele>
        <time>2021-03-28T08:31:55Z</time>
      </trkpt>
      <trkpt lat="42.85001" lon="2.73493">
        <ele>202.4</ele>
        <time>2021-03-28T08:31:55Z</time>
      </trkpt>
      <trkpt lat="42.84996" lon="2.73491">
        <ele>202.5</ele>
        <time>2021-03-28T08:31:57Z</time>
      </trkpt>
      <trkpt lat="42.84996" lon="2.73491">
        <ele>202.5</ele>
        <time>2021-03-28T08:31:57Z</time>
      </trkpt>
      <trkpt lat="42.84992" lon="2.7349">
        <ele>202.5</ele>
        <time>2021-03-28T08:31:58Z</time>
      </trkpt>
      <trkpt lat="42.84992" lon="2.7349">
        <ele>202.5</ele>
        <time>2021-03-28T08:31:58Z</time>
      </trkpt>
      <trkpt lat="42.84987" lon="2.73488">
        <ele>202.5</ele>
        <time>2021-03-28T08:32:00Z</time>
      </trkpt>
      <trkpt lat="42.84987" lon="2.73488">
        <ele>202.5</ele>
        <time>2021-03-28T08:32:00Z</time>
      </trkpt>
      <trkpt lat="42.84981" lon="2.73485">
        <ele>202.4</ele>
        <time>2021-03-28T08:32:02Z</time>
      </trkpt>
      <trkpt lat="42.84981" lon="2.73485">
        <ele>202.4</ele>
        <time>2021-03-28T08:32:02Z</time>
      </trkpt>
      <trkpt lat="42.84977" lon="2.73483">
        <ele>202.2</ele>
        <time>2021-03-28T08:32:03Z</time>
      </trkpt>
      <trkpt lat="42.84977" lon="2.73483">
        <ele>202.2</ele>
        <time>2021-03-28T08:32:03Z</time>
      </trkpt>
      <trkpt lat="42.84973" lon="2.73481">
        <ele>201.8</ele>
        <time>2021-03-28T08:32:04Z</time>
      </trkpt>
      <trkpt lat="42.84973" lon="2.73481">
        <ele>201.8</ele>
        <time>2021-03-28T08:32:04Z</time>
      </trkpt>
      <trkpt lat="42.84969" lon="2.73479">
        <ele>201.8</ele>
        <time>2021-03-28T08:32:05Z</time>
      </trkpt>
      <trkpt lat="42.84969" lon="2.73479">
        <ele>201.8</ele>
        <time>2021-03-28T08:32:05Z</time>
      </trkpt>
      <trkpt lat="42.84964" lon="2.73477">
        <ele>201.8</ele>
        <time>2021-03-28T08:32:07Z</time>
      </trkpt>
      <trkpt lat="42.84964" lon="2.73477">
        <ele>201.8</ele>
        <time>2021-03-28T08:32:07Z</time>
      </trkpt>
      <trkpt lat="42.84959" lon="2.73474">
        <ele>201.7</ele>
        <time>2021-03-28T08:32:09Z</time>
      </trkpt>
      <trkpt lat="42.84959" lon="2.73474">
        <ele>201.7</ele>
        <time>2021-03-28T08:32:09Z</time>
      </trkpt>
      <trkpt lat="42.84955" lon="2.73472">
        <ele>201.5</ele>
        <time>2021-03-28T08:32:10Z</time>
      </trkpt>
      <trkpt lat="42.84955" lon="2.73472">
        <ele>201.5</ele>
        <time>2021-03-28T08:32:10Z</time>
      </trkpt>
      <trkpt lat="42.8495" lon="2.73471">
        <ele>201.2</ele>
        <time>2021-03-28T08:32:12Z</time>
      </trkpt>
      <trkpt lat="42.8495" lon="2.73471">
        <ele>201.2</ele>
        <time>2021-03-28T08:32:12Z</time>
      </trkpt>
      <trkpt lat="42.84945" lon="2.7347">
        <ele>200.7</ele>
        <time>2021-03-28T08:32:13Z</time>
      </trkpt>
      <trkpt lat="42.84945" lon="2.7347">
        <ele>200.7</ele>
        <time>2021-03-28T08:32:13Z</time>
      </trkpt>
      <trkpt lat="42.84941" lon="2.7347">
        <ele>200.6</ele>
        <time>2021-03-28T08:32:14Z</time>
      </trkpt>
      <trkpt lat="42.84941" lon="2.7347">
        <ele>200.6</ele>
        <time>2021-03-28T08:32:14Z</time>
      </trkpt>
      <trkpt lat="42.84937" lon="2.73473">
        <ele>200.3</ele>
        <time>2021-03-28T08:32:16Z</time>
      </trkpt>
      <trkpt lat="42.84937" lon="2.73473">
        <ele>200.3</ele>
        <time>2021-03-28T08:32:16Z</time>
      </trkpt>
      <trkpt lat="42.84933" lon="2.73476">
        <ele>200.6</ele>
        <time>2021-03-28T08:32:17Z</time>
      </trkpt>
      <trkpt lat="42.84933" lon="2.73476">
        <ele>200.6</ele>
        <time>2021-03-28T08:32:17Z</time>
      </trkpt>
      <trkpt lat="42.8493" lon="2.73481">
        <ele>201.3</ele>
        <time>2021-03-28T08:32:19Z</time>
      </trkpt>
      <trkpt lat="42.8493" lon="2.73481">
        <ele>201.3</ele>
        <time>2021-03-28T08:32:19Z</time>
      </trkpt>
      <trkpt lat="42.84929" lon="2.73486">
        <ele>202.1</ele>
        <time>2021-03-28T08:32:20Z</time>
      </trkpt>
      <trkpt lat="42.84929" lon="2.73486">
        <ele>202.1</ele>
        <time>2021-03-28T08:32:20Z</time>
      </trkpt>
      <trkpt lat="42.84928" lon="2.73492">
        <ele>203.1</ele>
        <time>2021-03-28T08:32:22Z</time>
      </trkpt>
      <trkpt lat="42.84928" lon="2.73492">
        <ele>203.1</ele>
        <time>2021-03-28T08:32:22Z</time>
      </trkpt>
      <trkpt lat="42.84929" lon="2.735">
        <ele>203.9</ele>
        <time>2021-03-28T08:32:24Z</time>
      </trkpt>
      <trkpt lat="42.84929" lon="2.735">
        <ele>203.9</ele>
        <time>2021-03-28T08:32:24Z</time>
      </trkpt>
      <trkpt lat="42.84929" lon="2.73506">
        <ele>204.2</ele>
        <time>2021-03-28T08:32:25Z</time>
      </trkpt>
      <trkpt lat="42.84929" lon="2.73506">
        <ele>204.2</ele>
        <time>2021-03-28T08:32:25Z</time>
      </trkpt>
      <trkpt lat="42.8493" lon="2.73513">
        <ele>204.4</ele>
        <time>2021-03-28T08:32:27Z</time>
      </trkpt>
      <trkpt lat="42.8493" lon="2.73513">
        <ele>204.4</ele>
        <time>2021-03-28T08:32:27Z</time>
      </trkpt>
      <trkpt lat="42.8493" lon="2.73519">
        <ele>204.5</ele>
        <time>2021-03-28T08:32:28Z</time>
      </trkpt>
      <trkpt lat="42.8493" lon="2.73519">
        <ele>204.5</ele>
        <time>2021-03-28T08:32:28Z</time>
      </trkpt>
      <trkpt lat="42.84931" lon="2.73524">
        <ele>204.4</ele>
        <time>2021-03-28T08:32:29Z</time>
      </trkpt>
      <trkpt lat="42.84931" lon="2.73524">
        <ele>204.4</ele>
        <time>2021-03-28T08:32:29Z</time>
      </trkpt>
      <trkpt lat="42.84933" lon="2.73531">
        <ele>204.3</ele>
        <time>2021-03-28T08:32:31Z</time>
      </trkpt>
      <trkpt lat="42.84933" lon="2.73531">
        <ele>204.3</ele>
        <time>2021-03-28T08:32:31Z</time>
      </trkpt>
      <trkpt lat="42.84934" lon="2.73537">
        <ele>204.4</ele>
        <time>2021-03-28T08:32:32Z</time>
      </trkpt>
      <trkpt lat="42.84934" lon="2.73537">
        <ele>204.4</ele>
        <time>2021-03-28T08:32:32Z</time>
      </trkpt>
      <trkpt lat="42.84936" lon="2.73543">
        <ele>204.4</ele>
        <time>2021-03-28T08:32:34Z</time>
      </trkpt>
      <trkpt lat="42.84936" lon="2.73543">
        <ele>204.4</ele>
        <time>2021-03-28T08:32:34Z</time>
      </trkpt>
      <trkpt lat="42.84939" lon="2.7355">
        <ele>204.3</ele>
        <time>2021-03-28T08:32:36Z</time>
      </trkpt>
      <trkpt lat="42.84939" lon="2.7355">
        <ele>204.3</ele>
        <time>2021-03-28T08:32:36Z</time>
      </trkpt>
      <trkpt lat="42.84941" lon="2.73556">
        <ele>204.3</ele>
        <time>2021-03-28T08:32:37Z</time>
      </trkpt>
      <trkpt lat="42.84941" lon="2.73556">
        <ele>204.3</ele>
        <time>2021-03-28T08:32:37Z</time>
      </trkpt>
      <trkpt lat="42.84944" lon="2.73562">
        <ele>204.9</ele>
        <time>2021-03-28T08:32:39Z</time>
      </trkpt>
      <trkpt lat="42.84944" lon="2.73562">
        <ele>204.9</ele>
        <time>2021-03-28T08:32:39Z</time>
      </trkpt>
      <trkpt lat="42.84947" lon="2.73567">
        <ele>205.3</ele>
        <time>2021-03-28T08:32:40Z</time>
      </trkpt>
      <trkpt lat="42.84947" lon="2.73567">
        <ele>205.3</ele>
        <time>2021-03-28T08:32:40Z</time>
      </trkpt>
      <trkpt lat="42.8495" lon="2.73572">
        <ele>205.5</ele>
        <time>2021-03-28T08:32:42Z</time>
      </trkpt>
      <trkpt lat="42.8495" lon="2.73572">
        <ele>205.5</ele>
        <time>2021-03-28T08:32:42Z</time>
      </trkpt>
      <trkpt lat="42.84952" lon="2.73577">
        <ele>205.8</ele>
        <time>2021-03-28T08:32:43Z</time>
      </trkpt>
      <trkpt lat="42.84952" lon="2.73577">
        <ele>205.8</ele>
        <time>2021-03-28T08:32:43Z</time>
      </trkpt>
      <trkpt lat="42.84955" lon="2.73582">
        <ele>206.1</ele>
        <time>2021-03-28T08:32:44Z</time>
      </trkpt>
      <trkpt lat="42.84955" lon="2.73582">
        <ele>206.1</ele>
        <time>2021-03-28T08:32:44Z</time>
      </trkpt>
      <trkpt lat="42.84958" lon="2.73588">
        <ele>205.9</ele>
        <time>2021-03-28T08:32:46Z</time>
      </trkpt>
      <trkpt lat="42.84958" lon="2.73588">
        <ele>205.9</ele>
        <time>2021-03-28T08:32:46Z</time>
      </trkpt>
      <trkpt lat="42.8496" lon="2.73593">
        <ele>205.6</ele>
        <time>2021-03-28T08:32:47Z</time>
      </trkpt>
      <trkpt lat="42.8496" lon="2.73593">
        <ele>205.6</ele>
        <time>2021-03-28T08:32:47Z</time>
      </trkpt>
      <trkpt lat="42.84962" lon="2.736">
        <ele>205.7</ele>
        <time>2021-03-28T08:32:49Z</time>
      </trkpt>
      <trkpt lat="42.84962" lon="2.736">
        <ele>205.7</ele>
        <time>2021-03-28T08:32:49Z</time>
      </trkpt>
      <trkpt lat="42.84964" lon="2.73606">
        <ele>206.1</ele>
        <time>2021-03-28T08:32:50Z</time>
      </trkpt>
      <trkpt lat="42.84964" lon="2.73606">
        <ele>206.1</ele>
        <time>2021-03-28T08:32:50Z</time>
      </trkpt>
      <trkpt lat="42.84966" lon="2.73613">
        <ele>206.6</ele>
        <time>2021-03-28T08:32:52Z</time>
      </trkpt>
      <trkpt lat="42.84966" lon="2.73613">
        <ele>206.6</ele>
        <time>2021-03-28T08:32:52Z</time>
      </trkpt>
      <trkpt lat="42.84967" lon="2.73619">
        <ele>206.4</ele>
        <time>2021-03-28T08:32:53Z</time>
      </trkpt>
      <trkpt lat="42.84967" lon="2.73619">
        <ele>206.4</ele>
        <time>2021-03-28T08:32:53Z</time>
      </trkpt>
      <trkpt lat="42.84967" lon="2.73626">
        <ele>206.2</ele>
        <time>2021-03-28T08:32:55Z</time>
      </trkpt>
      <trkpt lat="42.84967" lon="2.73626">
        <ele>206.2</ele>
        <time>2021-03-28T08:32:55Z</time>
      </trkpt>
      <trkpt lat="42.84968" lon="2.73632">
        <ele>206.1</ele>
        <time>2021-03-28T08:32:56Z</time>
      </trkpt>
      <trkpt lat="42.84968" lon="2.73632">
        <ele>206.1</ele>
        <time>2021-03-28T08:32:56Z</time>
      </trkpt>
      <trkpt lat="42.84968" lon="2.73638">
        <ele>206</ele>
        <time>2021-03-28T08:32:57Z</time>
      </trkpt>
      <trkpt lat="42.84968" lon="2.73638">
        <ele>206</ele>
        <time>2021-03-28T08:32:57Z</time>
      </trkpt>
      <trkpt lat="42.84968" lon="2.73643">
        <ele>206.1</ele>
        <time>2021-03-28T08:32:58Z</time>
      </trkpt>
      <trkpt lat="42.84968" lon="2.73643">
        <ele>206.1</ele>
        <time>2021-03-28T08:32:58Z</time>
      </trkpt>
      <trkpt lat="42.84968" lon="2.7365">
        <ele>206.3</ele>
        <time>2021-03-28T08:33:00Z</time>
      </trkpt>
      <trkpt lat="42.84968" lon="2.7365">
        <ele>206.3</ele>
        <time>2021-03-28T08:33:00Z</time>
      </trkpt>
      <trkpt lat="42.84968" lon="2.73657">
        <ele>206.6</ele>
        <time>2021-03-28T08:33:02Z</time>
      </trkpt>
      <trkpt lat="42.84968" lon="2.73657">
        <ele>206.6</ele>
        <time>2021-03-28T08:33:02Z</time>
      </trkpt>
      <trkpt lat="42.84968" lon="2.73663">
        <ele>206.8</ele>
        <time>2021-03-28T08:33:03Z</time>
      </trkpt>
      <trkpt lat="42.84968" lon="2.73663">
        <ele>206.8</ele>
        <time>2021-03-28T08:33:03Z</time>
      </trkpt>
      <trkpt lat="42.84968" lon="2.7367">
        <ele>207</ele>
        <time>2021-03-28T08:33:05Z</time>
      </trkpt>
      <trkpt lat="42.84968" lon="2.7367">
        <ele>207</ele>
        <time>2021-03-28T08:33:05Z</time>
      </trkpt>
      <trkpt lat="42.84967" lon="2.73675">
        <ele>207.1</ele>
        <time>2021-03-28T08:33:06Z</time>
      </trkpt>
      <trkpt lat="42.84967" lon="2.73675">
        <ele>207.1</ele>
        <time>2021-03-28T08:33:06Z</time>
      </trkpt>
      <trkpt lat="42.84967" lon="2.73682">
        <ele>207.1</ele>
        <time>2021-03-28T08:33:08Z</time>
      </trkpt>
      <trkpt lat="42.84967" lon="2.73682">
        <ele>207.1</ele>
        <time>2021-03-28T08:33:08Z</time>
      </trkpt>
      <trkpt lat="42.84967" lon="2.7369">
        <ele>207.2</ele>
        <time>2021-03-28T08:33:10Z</time>
      </trkpt>
      <trkpt lat="42.84967" lon="2.7369">
        <ele>207.2</ele>
        <time>2021-03-28T08:33:10Z</time>
      </trkpt>
      <trkpt lat="42.84966" lon="2.73698">
        <ele>207.3</ele>
        <time>2021-03-28T08:33:12Z</time>
      </trkpt>
      <trkpt lat="42.84966" lon="2.73698">
        <ele>207.3</ele>
        <time>2021-03-28T08:33:12Z</time>
      </trkpt>
      <trkpt lat="42.84966" lon="2.73704">
        <ele>207.4</ele>
        <time>2021-03-28T08:33:13Z</time>
      </trkpt>
      <trkpt lat="42.84966" lon="2.73704">
        <ele>207.4</ele>
        <time>2021-03-28T08:33:13Z</time>
      </trkpt>
      <trkpt lat="42.84965" lon="2.73711">
        <ele>207.5</ele>
        <time>2021-03-28T08:33:15Z</time>
      </trkpt>
      <trkpt lat="42.84965" lon="2.73711">
        <ele>207.5</ele>
        <time>2021-03-28T08:33:15Z</time>
      </trkpt>
      <trkpt lat="42.84965" lon="2.73719">
        <ele>207.5</ele>
        <time>2021-03-28T08:33:17Z</time>
      </trkpt>
      <trkpt lat="42.84965" lon="2.73719">
        <ele>207.5</ele>
        <time>2021-03-28T08:33:17Z</time>
      </trkpt>
      <trkpt lat="42.84965" lon="2.73726">
        <ele>207.6</ele>
        <time>2021-03-28T08:33:18Z</time>
      </trkpt>
      <trkpt lat="42.84965" lon="2.73726">
        <ele>207.6</ele>
        <time>2021-03-28T08:33:18Z</time>
      </trkpt>
      <trkpt lat="42.84965" lon="2.73734">
        <ele>207.6</ele>
        <time>2021-03-28T08:33:20Z</time>
      </trkpt>
      <trkpt lat="42.84965" lon="2.73734">
        <ele>207.6</ele>
        <time>2021-03-28T08:33:20Z</time>
      </trkpt>
      <trkpt lat="42.84964" lon="2.73743">
        <ele>207.6</ele>
        <time>2021-03-28T08:33:22Z</time>
      </trkpt>
      <trkpt lat="42.84964" lon="2.73743">
        <ele>207.6</ele>
        <time>2021-03-28T08:33:22Z</time>
      </trkpt>
      <trkpt lat="42.84963" lon="2.73752">
        <ele>207.6</ele>
        <time>2021-03-28T08:33:24Z</time>
      </trkpt>
      <trkpt lat="42.84963" lon="2.73752">
        <ele>207.6</ele>
        <time>2021-03-28T08:33:24Z</time>
      </trkpt>
      <trkpt lat="42.84962" lon="2.7376">
        <ele>207.7</ele>
        <time>2021-03-28T08:33:25Z</time>
      </trkpt>
      <trkpt lat="42.84962" lon="2.7376">
        <ele>207.7</ele>
        <time>2021-03-28T08:33:25Z</time>
      </trkpt>
      <trkpt lat="42.84961" lon="2.73766">
        <ele>207.8</ele>
        <time>2021-03-28T08:33:26Z</time>
      </trkpt>
      <trkpt lat="42.84961" lon="2.73766">
        <ele>207.8</ele>
        <time>2021-03-28T08:33:26Z</time>
      </trkpt>
      <trkpt lat="42.84959" lon="2.73773">
        <ele>208</ele>
        <time>2021-03-28T08:33:28Z</time>
      </trkpt>
      <trkpt lat="42.84959" lon="2.73773">
        <ele>208</ele>
        <time>2021-03-28T08:33:28Z</time>
      </trkpt>
      <trkpt lat="42.84957" lon="2.73779">
        <ele>208.2</ele>
        <time>2021-03-28T08:33:29Z</time>
      </trkpt>
      <trkpt lat="42.84957" lon="2.73779">
        <ele>208.2</ele>
        <time>2021-03-28T08:33:29Z</time>
      </trkpt>
      <trkpt lat="42.84952" lon="2.73784">
        <ele>208.8</ele>
        <time>2021-03-28T08:33:31Z</time>
      </trkpt>
      <trkpt lat="42.84952" lon="2.73784">
        <ele>208.8</ele>
        <time>2021-03-28T08:33:31Z</time>
      </trkpt>
      <trkpt lat="42.84947" lon="2.73785">
        <ele>209.7</ele>
        <time>2021-03-28T08:33:33Z</time>
      </trkpt>
      <trkpt lat="42.84947" lon="2.73785">
        <ele>209.7</ele>
        <time>2021-03-28T08:33:33Z</time>
      </trkpt>
      <trkpt lat="42.84941" lon="2.73781">
        <ele>209.6</ele>
        <time>2021-03-28T08:33:35Z</time>
      </trkpt>
      <trkpt lat="42.84941" lon="2.73781">
        <ele>209.6</ele>
        <time>2021-03-28T08:33:35Z</time>
      </trkpt>
      <trkpt lat="42.84936" lon="2.73776">
        <ele>209.1</ele>
        <time>2021-03-28T08:33:36Z</time>
      </trkpt>
      <trkpt lat="42.84936" lon="2.73776">
        <ele>209.1</ele>
        <time>2021-03-28T08:33:36Z</time>
      </trkpt>
      <trkpt lat="42.84932" lon="2.73769">
        <ele>208.6</ele>
        <time>2021-03-28T08:33:37Z</time>
      </trkpt>
      <trkpt lat="42.84932" lon="2.73769">
        <ele>208.6</ele>
        <time>2021-03-28T08:33:37Z</time>
      </trkpt>
      <trkpt lat="42.84927" lon="2.73759">
        <ele>207.9</ele>
        <time>2021-03-28T08:33:39Z</time>
      </trkpt>
      <trkpt lat="42.84927" lon="2.73759">
        <ele>207.9</ele>
        <time>2021-03-28T08:33:39Z</time>
      </trkpt>
      <trkpt lat="42.84922" lon="2.73749">
        <ele>207</ele>
        <time>2021-03-28T08:33:40Z</time>
      </trkpt>
      <trkpt lat="42.84922" lon="2.73749">
        <ele>207</ele>
        <time>2021-03-28T08:33:40Z</time>
      </trkpt>
      <trkpt lat="42.84916" lon="2.7374">
        <ele>206.7</ele>
        <time>2021-03-28T08:33:41Z</time>
      </trkpt>
      <trkpt lat="42.84916" lon="2.7374">
        <ele>206.7</ele>
        <time>2021-03-28T08:33:41Z</time>
      </trkpt>
      <trkpt lat="42.84911" lon="2.73732">
        <ele>206.3</ele>
        <time>2021-03-28T08:33:42Z</time>
      </trkpt>
      <trkpt lat="42.84911" lon="2.73732">
        <ele>206.3</ele>
        <time>2021-03-28T08:33:42Z</time>
      </trkpt>
      <trkpt lat="42.84905" lon="2.73727">
        <ele>205.8</ele>
        <time>2021-03-28T08:33:43Z</time>
      </trkpt>
      <trkpt lat="42.84905" lon="2.73727">
        <ele>205.8</ele>
        <time>2021-03-28T08:33:43Z</time>
      </trkpt>
      <trkpt lat="42.84896" lon="2.73724">
        <ele>204.7</ele>
        <time>2021-03-28T08:33:45Z</time>
      </trkpt>
      <trkpt lat="42.84896" lon="2.73724">
        <ele>204.7</ele>
        <time>2021-03-28T08:33:45Z</time>
      </trkpt>
      <trkpt lat="42.84888" lon="2.73725">
        <ele>203.7</ele>
        <time>2021-03-28T08:33:46Z</time>
      </trkpt>
      <trkpt lat="42.84888" lon="2.73725">
        <ele>203.7</ele>
        <time>2021-03-28T08:33:46Z</time>
      </trkpt>
      <trkpt lat="42.84882" lon="2.73729">
        <ele>204.4</ele>
        <time>2021-03-28T08:33:47Z</time>
      </trkpt>
      <trkpt lat="42.84882" lon="2.73729">
        <ele>204.4</ele>
        <time>2021-03-28T08:33:47Z</time>
      </trkpt>
      <trkpt lat="42.84878" lon="2.7374">
        <ele>204.5</ele>
        <time>2021-03-28T08:33:49Z</time>
      </trkpt>
      <trkpt lat="42.84878" lon="2.7374">
        <ele>204.5</ele>
        <time>2021-03-28T08:33:49Z</time>
      </trkpt>
      <trkpt lat="42.84874" lon="2.73754">
        <ele>204.6</ele>
        <time>2021-03-28T08:33:51Z</time>
      </trkpt>
      <trkpt lat="42.84874" lon="2.73754">
        <ele>204.6</ele>
        <time>2021-03-28T08:33:51Z</time>
      </trkpt>
      <trkpt lat="42.84872" lon="2.73767">
        <ele>204.6</ele>
        <time>2021-03-28T08:33:52Z</time>
      </trkpt>
      <trkpt lat="42.84872" lon="2.73767">
        <ele>204.6</ele>
        <time>2021-03-28T08:33:52Z</time>
      </trkpt>
      <trkpt lat="42.84869" lon="2.73783">
        <ele>204.6</ele>
        <time>2021-03-28T08:33:54Z</time>
      </trkpt>
      <trkpt lat="42.84869" lon="2.73783">
        <ele>204.6</ele>
        <time>2021-03-28T08:33:54Z</time>
      </trkpt>
      <trkpt lat="42.84866" lon="2.738">
        <ele>204.7</ele>
        <time>2021-03-28T08:33:56Z</time>
      </trkpt>
      <trkpt lat="42.84866" lon="2.738">
        <ele>204.7</ele>
        <time>2021-03-28T08:33:56Z</time>
      </trkpt>
      <trkpt lat="42.84864" lon="2.73815">
        <ele>204.6</ele>
        <time>2021-03-28T08:33:57Z</time>
      </trkpt>
      <trkpt lat="42.84864" lon="2.73815">
        <ele>204.6</ele>
        <time>2021-03-28T08:33:57Z</time>
      </trkpt>
      <trkpt lat="42.84862" lon="2.73828">
        <ele>204.2</ele>
        <time>2021-03-28T08:33:58Z</time>
      </trkpt>
      <trkpt lat="42.84862" lon="2.73828">
        <ele>204.2</ele>
        <time>2021-03-28T08:33:58Z</time>
      </trkpt>
      <trkpt lat="42.84859" lon="2.73843">
        <ele>203.8</ele>
        <time>2021-03-28T08:34:00Z</time>
      </trkpt>
      <trkpt lat="42.84859" lon="2.73843">
        <ele>203.8</ele>
        <time>2021-03-28T08:34:00Z</time>
      </trkpt>
      <trkpt lat="42.84855" lon="2.73859">
        <ele>203.6</ele>
        <time>2021-03-28T08:34:02Z</time>
      </trkpt>
      <trkpt lat="42.84855" lon="2.73859">
        <ele>203.6</ele>
        <time>2021-03-28T08:34:02Z</time>
      </trkpt>
      <trkpt lat="42.84851" lon="2.73875">
        <ele>203.9</ele>
        <time>2021-03-28T08:34:04Z</time>
      </trkpt>
      <trkpt lat="42.84851" lon="2.73875">
        <ele>203.9</ele>
        <time>2021-03-28T08:34:04Z</time>
      </trkpt>
      <trkpt lat="42.84845" lon="2.73892">
        <ele>204.2</ele>
        <time>2021-03-28T08:34:06Z</time>
      </trkpt>
      <trkpt lat="42.84845" lon="2.73892">
        <ele>204.2</ele>
        <time>2021-03-28T08:34:06Z</time>
      </trkpt>
      <trkpt lat="42.84841" lon="2.73906">
        <ele>203.6</ele>
        <time>2021-03-28T08:34:07Z</time>
      </trkpt>
      <trkpt lat="42.84841" lon="2.73906">
        <ele>203.6</ele>
        <time>2021-03-28T08:34:07Z</time>
      </trkpt>
      <trkpt lat="42.84836" lon="2.73918">
        <ele>203.1</ele>
        <time>2021-03-28T08:34:08Z</time>
      </trkpt>
      <trkpt lat="42.84836" lon="2.73918">
        <ele>203.1</ele>
        <time>2021-03-28T08:34:08Z</time>
      </trkpt>
      <trkpt lat="42.84832" lon="2.73929">
        <ele>203.2</ele>
        <time>2021-03-28T08:34:09Z</time>
      </trkpt>
      <trkpt lat="42.84832" lon="2.73929">
        <ele>203.2</ele>
        <time>2021-03-28T08:34:09Z</time>
      </trkpt>
      <trkpt lat="42.84826" lon="2.73942">
        <ele>202.7</ele>
        <time>2021-03-28T08:34:11Z</time>
      </trkpt>
      <trkpt lat="42.84826" lon="2.73942">
        <ele>202.7</ele>
        <time>2021-03-28T08:34:11Z</time>
      </trkpt>
      <trkpt lat="42.84822" lon="2.73957">
        <ele>201.6</ele>
        <time>2021-03-28T08:34:13Z</time>
      </trkpt>
      <trkpt lat="42.84822" lon="2.73957">
        <ele>201.6</ele>
        <time>2021-03-28T08:34:13Z</time>
      </trkpt>
      <trkpt lat="42.8482" lon="2.7397">
        <ele>200.7</ele>
        <time>2021-03-28T08:34:14Z</time>
      </trkpt>
      <trkpt lat="42.8482" lon="2.7397">
        <ele>200.7</ele>
        <time>2021-03-28T08:34:14Z</time>
      </trkpt>
      <trkpt lat="42.84818" lon="2.73985">
        <ele>201.2</ele>
        <time>2021-03-28T08:34:16Z</time>
      </trkpt>
      <trkpt lat="42.84818" lon="2.73985">
        <ele>201.2</ele>
        <time>2021-03-28T08:34:16Z</time>
      </trkpt>
      <trkpt lat="42.84815" lon="2.74002">
        <ele>202.2</ele>
        <time>2021-03-28T08:34:18Z</time>
      </trkpt>
      <trkpt lat="42.84815" lon="2.74002">
        <ele>202.2</ele>
        <time>2021-03-28T08:34:18Z</time>
      </trkpt>
      <trkpt lat="42.84813" lon="2.74016">
        <ele>202.8</ele>
        <time>2021-03-28T08:34:19Z</time>
      </trkpt>
      <trkpt lat="42.84813" lon="2.74016">
        <ele>202.8</ele>
        <time>2021-03-28T08:34:19Z</time>
      </trkpt>
      <trkpt lat="42.84811" lon="2.74032">
        <ele>203.2</ele>
        <time>2021-03-28T08:34:21Z</time>
      </trkpt>
      <trkpt lat="42.84811" lon="2.74032">
        <ele>203.2</ele>
        <time>2021-03-28T08:34:21Z</time>
      </trkpt>
      <trkpt lat="42.84809" lon="2.74045">
        <ele>202.7</ele>
        <time>2021-03-28T08:34:22Z</time>
      </trkpt>
      <trkpt lat="42.84809" lon="2.74045">
        <ele>202.7</ele>
        <time>2021-03-28T08:34:22Z</time>
      </trkpt>
      <trkpt lat="42.84806" lon="2.7406">
        <ele>202.4</ele>
        <time>2021-03-28T08:34:24Z</time>
      </trkpt>
      <trkpt lat="42.84806" lon="2.7406">
        <ele>202.4</ele>
        <time>2021-03-28T08:34:24Z</time>
      </trkpt>
      <trkpt lat="42.84802" lon="2.74076">
        <ele>201.9</ele>
        <time>2021-03-28T08:34:26Z</time>
      </trkpt>
      <trkpt lat="42.84802" lon="2.74076">
        <ele>201.9</ele>
        <time>2021-03-28T08:34:26Z</time>
      </trkpt>
      <trkpt lat="42.84799" lon="2.74092">
        <ele>201.7</ele>
        <time>2021-03-28T08:34:28Z</time>
      </trkpt>
      <trkpt lat="42.84799" lon="2.74092">
        <ele>201.7</ele>
        <time>2021-03-28T08:34:28Z</time>
      </trkpt>
      <trkpt lat="42.84796" lon="2.74106">
        <ele>201.7</ele>
        <time>2021-03-28T08:34:29Z</time>
      </trkpt>
      <trkpt lat="42.84796" lon="2.74106">
        <ele>201.7</ele>
        <time>2021-03-28T08:34:29Z</time>
      </trkpt>
      <trkpt lat="42.84792" lon="2.7412">
        <ele>201.6</ele>
        <time>2021-03-28T08:34:31Z</time>
      </trkpt>
      <trkpt lat="42.84792" lon="2.7412">
        <ele>201.6</ele>
        <time>2021-03-28T08:34:31Z</time>
      </trkpt>
      <trkpt lat="42.84787" lon="2.74131">
        <ele>201.7</ele>
        <time>2021-03-28T08:34:32Z</time>
      </trkpt>
      <trkpt lat="42.84787" lon="2.74131">
        <ele>201.7</ele>
        <time>2021-03-28T08:34:32Z</time>
      </trkpt>
      <trkpt lat="42.84782" lon="2.74143">
        <ele>202</ele>
        <time>2021-03-28T08:34:34Z</time>
      </trkpt>
      <trkpt lat="42.84782" lon="2.74143">
        <ele>202</ele>
        <time>2021-03-28T08:34:34Z</time>
      </trkpt>
      <trkpt lat="42.84777" lon="2.74153">
        <ele>201.8</ele>
        <time>2021-03-28T08:34:35Z</time>
      </trkpt>
      <trkpt lat="42.84777" lon="2.74153">
        <ele>201.8</ele>
        <time>2021-03-28T08:34:35Z</time>
      </trkpt>
      <trkpt lat="42.8477" lon="2.74164">
        <ele>201.6</ele>
        <time>2021-03-28T08:34:37Z</time>
      </trkpt>
      <trkpt lat="42.8477" lon="2.74164">
        <ele>201.6</ele>
        <time>2021-03-28T08:34:37Z</time>
      </trkpt>
      <trkpt lat="42.84765" lon="2.74174">
        <ele>200.7</ele>
        <time>2021-03-28T08:34:38Z</time>
      </trkpt>
      <trkpt lat="42.84765" lon="2.74174">
        <ele>200.7</ele>
        <time>2021-03-28T08:34:38Z</time>
      </trkpt>
      <trkpt lat="42.84758" lon="2.74184">
        <ele>200.1</ele>
        <time>2021-03-28T08:34:40Z</time>
      </trkpt>
      <trkpt lat="42.84758" lon="2.74184">
        <ele>200.1</ele>
        <time>2021-03-28T08:34:40Z</time>
      </trkpt>
      <trkpt lat="42.84749" lon="2.74195">
        <ele>200.1</ele>
        <time>2021-03-28T08:34:42Z</time>
      </trkpt>
      <trkpt lat="42.84749" lon="2.74195">
        <ele>200.1</ele>
        <time>2021-03-28T08:34:42Z</time>
      </trkpt>
      <trkpt lat="42.84742" lon="2.74204">
        <ele>199.3</ele>
        <time>2021-03-28T08:34:43Z</time>
      </trkpt>
      <trkpt lat="42.84742" lon="2.74204">
        <ele>199.3</ele>
        <time>2021-03-28T08:34:43Z</time>
      </trkpt>
      <trkpt lat="42.84734" lon="2.74214">
        <ele>198.8</ele>
        <time>2021-03-28T08:34:45Z</time>
      </trkpt>
      <trkpt lat="42.84734" lon="2.74214">
        <ele>198.8</ele>
        <time>2021-03-28T08:34:45Z</time>
      </trkpt>
      <trkpt lat="42.84726" lon="2.74226">
        <ele>197.9</ele>
        <time>2021-03-28T08:34:47Z</time>
      </trkpt>
      <trkpt lat="42.84726" lon="2.74226">
        <ele>197.9</ele>
        <time>2021-03-28T08:34:47Z</time>
      </trkpt>
      <trkpt lat="42.84719" lon="2.74236">
        <ele>197.3</ele>
        <time>2021-03-28T08:34:48Z</time>
      </trkpt>
      <trkpt lat="42.84719" lon="2.74236">
        <ele>197.3</ele>
        <time>2021-03-28T08:34:48Z</time>
      </trkpt>
      <trkpt lat="42.84713" lon="2.74246">
        <ele>197.5</ele>
        <time>2021-03-28T08:34:49Z</time>
      </trkpt>
      <trkpt lat="42.84713" lon="2.74246">
        <ele>197.5</ele>
        <time>2021-03-28T08:34:49Z</time>
      </trkpt>
      <trkpt lat="42.84708" lon="2.74255">
        <ele>198.2</ele>
        <time>2021-03-28T08:34:50Z</time>
      </trkpt>
      <trkpt lat="42.84708" lon="2.74255">
        <ele>198.2</ele>
        <time>2021-03-28T08:34:50Z</time>
      </trkpt>
      <trkpt lat="42.84702" lon="2.74266">
        <ele>198.5</ele>
        <time>2021-03-28T08:34:52Z</time>
      </trkpt>
      <trkpt lat="42.84702" lon="2.74266">
        <ele>198.5</ele>
        <time>2021-03-28T08:34:52Z</time>
      </trkpt>
      <trkpt lat="42.84697" lon="2.74277">
        <ele>198</ele>
        <time>2021-03-28T08:34:53Z</time>
      </trkpt>
      <trkpt lat="42.84697" lon="2.74277">
        <ele>198</ele>
        <time>2021-03-28T08:34:53Z</time>
      </trkpt>
      <trkpt lat="42.84692" lon="2.7429">
        <ele>198.3</ele>
        <time>2021-03-28T08:34:55Z</time>
      </trkpt>
      <trkpt lat="42.84692" lon="2.7429">
        <ele>198.3</ele>
        <time>2021-03-28T08:34:55Z</time>
      </trkpt>
      <trkpt lat="42.84687" lon="2.74302">
        <ele>198.5</ele>
        <time>2021-03-28T08:34:56Z</time>
      </trkpt>
      <trkpt lat="42.84687" lon="2.74302">
        <ele>198.5</ele>
        <time>2021-03-28T08:34:56Z</time>
      </trkpt>
      <trkpt lat="42.84682" lon="2.74316">
        <ele>198.4</ele>
        <time>2021-03-28T08:34:58Z</time>
      </trkpt>
      <trkpt lat="42.84682" lon="2.74316">
        <ele>198.4</ele>
        <time>2021-03-28T08:34:58Z</time>
      </trkpt>
      <trkpt lat="42.84676" lon="2.74329">
        <ele>198.6</ele>
        <time>2021-03-28T08:34:59Z</time>
      </trkpt>
      <trkpt lat="42.84676" lon="2.74329">
        <ele>198.6</ele>
        <time>2021-03-28T08:34:59Z</time>
      </trkpt>
      <trkpt lat="42.84671" lon="2.74339">
        <ele>199.4</ele>
        <time>2021-03-28T08:35:00Z</time>
      </trkpt>
      <trkpt lat="42.84671" lon="2.74339">
        <ele>199.4</ele>
        <time>2021-03-28T08:35:00Z</time>
      </trkpt>
      <trkpt lat="42.84665" lon="2.74347">
        <ele>199.6</ele>
        <time>2021-03-28T08:35:01Z</time>
      </trkpt>
      <trkpt lat="42.84665" lon="2.74347">
        <ele>199.6</ele>
        <time>2021-03-28T08:35:01Z</time>
      </trkpt>
      <trkpt lat="42.84657" lon="2.74353">
        <ele>198.5</ele>
        <time>2021-03-28T08:35:03Z</time>
      </trkpt>
      <trkpt lat="42.84657" lon="2.74353">
        <ele>198.5</ele>
        <time>2021-03-28T08:35:03Z</time>
      </trkpt>
      <trkpt lat="42.84649" lon="2.74355">
        <ele>198</ele>
        <time>2021-03-28T08:35:04Z</time>
      </trkpt>
      <trkpt lat="42.84649" lon="2.74355">
        <ele>198</ele>
        <time>2021-03-28T08:35:04Z</time>
      </trkpt>
      <trkpt lat="42.84639" lon="2.74352">
        <ele>198.5</ele>
        <time>2021-03-28T08:35:06Z</time>
      </trkpt>
      <trkpt lat="42.84639" lon="2.74352">
        <ele>198.5</ele>
        <time>2021-03-28T08:35:06Z</time>
      </trkpt>
      <trkpt lat="42.84631" lon="2.74349">
        <ele>197</ele>
        <time>2021-03-28T08:35:07Z</time>
      </trkpt>
      <trkpt lat="42.84631" lon="2.74349">
        <ele>197</ele>
        <time>2021-03-28T08:35:07Z</time>
      </trkpt>
      <trkpt lat="42.84621" lon="2.74343">
        <ele>195.9</ele>
        <time>2021-03-28T08:35:09Z</time>
      </trkpt>
      <trkpt lat="42.84621" lon="2.74343">
        <ele>195.9</ele>
        <time>2021-03-28T08:35:09Z</time>
      </trkpt>
      <trkpt lat="42.8461" lon="2.74334">
        <ele>195.5</ele>
        <time>2021-03-28T08:35:11Z</time>
      </trkpt>
      <trkpt lat="42.8461" lon="2.74334">
        <ele>195.5</ele>
        <time>2021-03-28T08:35:11Z</time>
      </trkpt>
      <trkpt lat="42.84601" lon="2.74326">
        <ele>195</ele>
        <time>2021-03-28T08:35:12Z</time>
      </trkpt>
      <trkpt lat="42.84601" lon="2.74326">
        <ele>195</ele>
        <time>2021-03-28T08:35:12Z</time>
      </trkpt>
      <trkpt lat="42.8459" lon="2.74318">
        <ele>194.5</ele>
        <time>2021-03-28T08:35:14Z</time>
      </trkpt>
      <trkpt lat="42.8459" lon="2.74318">
        <ele>194.5</ele>
        <time>2021-03-28T08:35:14Z</time>
      </trkpt>
      <trkpt lat="42.84579" lon="2.7431">
        <ele>194.2</ele>
        <time>2021-03-28T08:35:16Z</time>
      </trkpt>
      <trkpt lat="42.84579" lon="2.7431">
        <ele>194.2</ele>
        <time>2021-03-28T08:35:16Z</time>
      </trkpt>
      <trkpt lat="42.84568" lon="2.74301">
        <ele>194.6</ele>
        <time>2021-03-28T08:35:18Z</time>
      </trkpt>
      <trkpt lat="42.84568" lon="2.74301">
        <ele>194.6</ele>
        <time>2021-03-28T08:35:18Z</time>
      </trkpt>
      <trkpt lat="42.84559" lon="2.74293">
        <ele>194.1</ele>
        <time>2021-03-28T08:35:19Z</time>
      </trkpt>
      <trkpt lat="42.84559" lon="2.74293">
        <ele>194.1</ele>
        <time>2021-03-28T08:35:19Z</time>
      </trkpt>
      <trkpt lat="42.84549" lon="2.74287">
        <ele>193.8</ele>
        <time>2021-03-28T08:35:21Z</time>
      </trkpt>
      <trkpt lat="42.84549" lon="2.74287">
        <ele>193.8</ele>
        <time>2021-03-28T08:35:21Z</time>
      </trkpt>
      <trkpt lat="42.8454" lon="2.74281">
        <ele>194.3</ele>
        <time>2021-03-28T08:35:22Z</time>
      </trkpt>
      <trkpt lat="42.8454" lon="2.74281">
        <ele>194.3</ele>
        <time>2021-03-28T08:35:22Z</time>
      </trkpt>
      <trkpt lat="42.84531" lon="2.74276">
        <ele>194.9</ele>
        <time>2021-03-28T08:35:24Z</time>
      </trkpt>
      <trkpt lat="42.84531" lon="2.74276">
        <ele>194.9</ele>
        <time>2021-03-28T08:35:24Z</time>
      </trkpt>
      <trkpt lat="42.84522" lon="2.74272">
        <ele>194.9</ele>
        <time>2021-03-28T08:35:25Z</time>
      </trkpt>
      <trkpt lat="42.84522" lon="2.74272">
        <ele>194.9</ele>
        <time>2021-03-28T08:35:25Z</time>
      </trkpt>
      <trkpt lat="42.84512" lon="2.74271">
        <ele>193.8</ele>
        <time>2021-03-28T08:35:27Z</time>
      </trkpt>
      <trkpt lat="42.84512" lon="2.74271">
        <ele>193.8</ele>
        <time>2021-03-28T08:35:27Z</time>
      </trkpt>
      <trkpt lat="42.84503" lon="2.74269">
        <ele>192.9</ele>
        <time>2021-03-28T08:35:28Z</time>
      </trkpt>
      <trkpt lat="42.84503" lon="2.74269">
        <ele>192.9</ele>
        <time>2021-03-28T08:35:28Z</time>
      </trkpt>
      <trkpt lat="42.84496" lon="2.74267">
        <ele>192.6</ele>
        <time>2021-03-28T08:35:29Z</time>
      </trkpt>
      <trkpt lat="42.84496" lon="2.74267">
        <ele>192.6</ele>
        <time>2021-03-28T08:35:29Z</time>
      </trkpt>
      <trkpt lat="42.84487" lon="2.74262">
        <ele>193.1</ele>
        <time>2021-03-28T08:35:31Z</time>
      </trkpt>
      <trkpt lat="42.84487" lon="2.74262">
        <ele>193.1</ele>
        <time>2021-03-28T08:35:31Z</time>
      </trkpt>
      <trkpt lat="42.84479" lon="2.74256">
        <ele>193.7</ele>
        <time>2021-03-28T08:35:33Z</time>
      </trkpt>
      <trkpt lat="42.84479" lon="2.74256">
        <ele>193.7</ele>
        <time>2021-03-28T08:35:33Z</time>
      </trkpt>
      <trkpt lat="42.84472" lon="2.74249">
        <ele>194.2</ele>
        <time>2021-03-28T08:35:34Z</time>
      </trkpt>
      <trkpt lat="42.84472" lon="2.74249">
        <ele>194.2</ele>
        <time>2021-03-28T08:35:34Z</time>
      </trkpt>
      <trkpt lat="42.84466" lon="2.74239">
        <ele>194.5</ele>
        <time>2021-03-28T08:35:36Z</time>
      </trkpt>
      <trkpt lat="42.84466" lon="2.74239">
        <ele>194.5</ele>
        <time>2021-03-28T08:35:36Z</time>
      </trkpt>
      <trkpt lat="42.84461" lon="2.7423">
        <ele>194.7</ele>
        <time>2021-03-28T08:35:37Z</time>
      </trkpt>
      <trkpt lat="42.84461" lon="2.7423">
        <ele>194.7</ele>
        <time>2021-03-28T08:35:37Z</time>
      </trkpt>
      <trkpt lat="42.84456" lon="2.74219">
        <ele>194.5</ele>
        <time>2021-03-28T08:35:39Z</time>
      </trkpt>
      <trkpt lat="42.84456" lon="2.74219">
        <ele>194.5</ele>
        <time>2021-03-28T08:35:39Z</time>
      </trkpt>
      <trkpt lat="42.84452" lon="2.7421">
        <ele>193.9</ele>
        <time>2021-03-28T08:35:40Z</time>
      </trkpt>
      <trkpt lat="42.84452" lon="2.7421">
        <ele>193.9</ele>
        <time>2021-03-28T08:35:40Z</time>
      </trkpt>
      <trkpt lat="42.84448" lon="2.74199">
        <ele>193.1</ele>
        <time>2021-03-28T08:35:42Z</time>
      </trkpt>
      <trkpt lat="42.84448" lon="2.74199">
        <ele>193.1</ele>
        <time>2021-03-28T08:35:42Z</time>
      </trkpt>
      <trkpt lat="42.84444" lon="2.74189">
        <ele>192.5</ele>
        <time>2021-03-28T08:35:43Z</time>
      </trkpt>
      <trkpt lat="42.84444" lon="2.74189">
        <ele>192.5</ele>
        <time>2021-03-28T08:35:43Z</time>
      </trkpt>
      <trkpt lat="42.8444" lon="2.74178">
        <ele>191.9</ele>
        <time>2021-03-28T08:35:45Z</time>
      </trkpt>
      <trkpt lat="42.8444" lon="2.74178">
        <ele>191.9</ele>
        <time>2021-03-28T08:35:45Z</time>
      </trkpt>
      <trkpt lat="42.84436" lon="2.74168">
        <ele>191.4</ele>
        <time>2021-03-28T08:35:46Z</time>
      </trkpt>
      <trkpt lat="42.84436" lon="2.74168">
        <ele>191.4</ele>
        <time>2021-03-28T08:35:46Z</time>
      </trkpt>
      <trkpt lat="42.84431" lon="2.74157">
        <ele>191.7</ele>
        <time>2021-03-28T08:35:48Z</time>
      </trkpt>
      <trkpt lat="42.84431" lon="2.74157">
        <ele>191.7</ele>
        <time>2021-03-28T08:35:48Z</time>
      </trkpt>
      <trkpt lat="42.84425" lon="2.74147">
        <ele>191.9</ele>
        <time>2021-03-28T08:35:50Z</time>
      </trkpt>
      <trkpt lat="42.84425" lon="2.74147">
        <ele>191.9</ele>
        <time>2021-03-28T08:35:50Z</time>
      </trkpt>
      <trkpt lat="42.8442" lon="2.74138">
        <ele>192.3</ele>
        <time>2021-03-28T08:35:51Z</time>
      </trkpt>
      <trkpt lat="42.8442" lon="2.74138">
        <ele>192.3</ele>
        <time>2021-03-28T08:35:51Z</time>
      </trkpt>
      <trkpt lat="42.84415" lon="2.7413">
        <ele>192.8</ele>
        <time>2021-03-28T08:35:52Z</time>
      </trkpt>
      <trkpt lat="42.84415" lon="2.7413">
        <ele>192.8</ele>
        <time>2021-03-28T08:35:52Z</time>
      </trkpt>
      <trkpt lat="42.8441" lon="2.74121">
        <ele>193.1</ele>
        <time>2021-03-28T08:35:54Z</time>
      </trkpt>
      <trkpt lat="42.8441" lon="2.74121">
        <ele>193.1</ele>
        <time>2021-03-28T08:35:54Z</time>
      </trkpt>
      <trkpt lat="42.84405" lon="2.74112">
        <ele>193.3</ele>
        <time>2021-03-28T08:35:55Z</time>
      </trkpt>
      <trkpt lat="42.84405" lon="2.74112">
        <ele>193.3</ele>
        <time>2021-03-28T08:35:55Z</time>
      </trkpt>
      <trkpt lat="42.84399" lon="2.74102">
        <ele>193.1</ele>
        <time>2021-03-28T08:35:57Z</time>
      </trkpt>
      <trkpt lat="42.84399" lon="2.74102">
        <ele>193.1</ele>
        <time>2021-03-28T08:35:57Z</time>
      </trkpt>
      <trkpt lat="42.84393" lon="2.74093">
        <ele>192.3</ele>
        <time>2021-03-28T08:35:58Z</time>
      </trkpt>
      <trkpt lat="42.84393" lon="2.74093">
        <ele>192.3</ele>
        <time>2021-03-28T08:35:58Z</time>
      </trkpt>
      <trkpt lat="42.84388" lon="2.74085">
        <ele>191.4</ele>
        <time>2021-03-28T08:35:59Z</time>
      </trkpt>
      <trkpt lat="42.84388" lon="2.74085">
        <ele>191.4</ele>
        <time>2021-03-28T08:35:59Z</time>
      </trkpt>
      <trkpt lat="42.84384" lon="2.74077">
        <ele>190.7</ele>
        <time>2021-03-28T08:36:00Z</time>
      </trkpt>
      <trkpt lat="42.84384" lon="2.74077">
        <ele>190.7</ele>
        <time>2021-03-28T08:36:00Z</time>
      </trkpt>
      <trkpt lat="42.8438" lon="2.74065">
        <ele>190.6</ele>
        <time>2021-03-28T08:36:02Z</time>
      </trkpt>
      <trkpt lat="42.8438" lon="2.74065">
        <ele>190.6</ele>
        <time>2021-03-28T08:36:02Z</time>
      </trkpt>
      <trkpt lat="42.84376" lon="2.74052">
        <ele>190.7</ele>
        <time>2021-03-28T08:36:04Z</time>
      </trkpt>
      <trkpt lat="42.84376" lon="2.74052">
        <ele>190.7</ele>
        <time>2021-03-28T08:36:04Z</time>
      </trkpt>
      <trkpt lat="42.8437" lon="2.74038">
        <ele>189.9</ele>
        <time>2021-03-28T08:36:06Z</time>
      </trkpt>
      <trkpt lat="42.8437" lon="2.74038">
        <ele>189.9</ele>
        <time>2021-03-28T08:36:06Z</time>
      </trkpt>
      <trkpt lat="42.84365" lon="2.74027">
        <ele>188.5</ele>
        <time>2021-03-28T08:36:07Z</time>
      </trkpt>
      <trkpt lat="42.84365" lon="2.74027">
        <ele>188.5</ele>
        <time>2021-03-28T08:36:07Z</time>
      </trkpt>
      <trkpt lat="42.84357" lon="2.74017">
        <ele>187.2</ele>
        <time>2021-03-28T08:36:09Z</time>
      </trkpt>
      <trkpt lat="42.84357" lon="2.74017">
        <ele>187.2</ele>
        <time>2021-03-28T08:36:09Z</time>
      </trkpt>
      <trkpt lat="42.84349" lon="2.74009">
        <ele>187.1</ele>
        <time>2021-03-28T08:36:10Z</time>
      </trkpt>
      <trkpt lat="42.84349" lon="2.74009">
        <ele>187.1</ele>
        <time>2021-03-28T08:36:10Z</time>
      </trkpt>
      <trkpt lat="42.84342" lon="2.74003">
        <ele>187.3</ele>
        <time>2021-03-28T08:36:11Z</time>
      </trkpt>
      <trkpt lat="42.84342" lon="2.74003">
        <ele>187.3</ele>
        <time>2021-03-28T08:36:11Z</time>
      </trkpt>
      <trkpt lat="42.84333" lon="2.73996">
        <ele>188.2</ele>
        <time>2021-03-28T08:36:13Z</time>
      </trkpt>
      <trkpt lat="42.84333" lon="2.73996">
        <ele>188.2</ele>
        <time>2021-03-28T08:36:13Z</time>
      </trkpt>
      <trkpt lat="42.84326" lon="2.73989">
        <ele>188.4</ele>
        <time>2021-03-28T08:36:14Z</time>
      </trkpt>
      <trkpt lat="42.84326" lon="2.73989">
        <ele>188.4</ele>
        <time>2021-03-28T08:36:14Z</time>
      </trkpt>
      <trkpt lat="42.84317" lon="2.73981">
        <ele>188.3</ele>
        <time>2021-03-28T08:36:16Z</time>
      </trkpt>
      <trkpt lat="42.84317" lon="2.73981">
        <ele>188.3</ele>
        <time>2021-03-28T08:36:16Z</time>
      </trkpt>
      <trkpt lat="42.8431" lon="2.73974">
        <ele>187.8</ele>
        <time>2021-03-28T08:36:17Z</time>
      </trkpt>
      <trkpt lat="42.8431" lon="2.73974">
        <ele>187.8</ele>
        <time>2021-03-28T08:36:17Z</time>
      </trkpt>
      <trkpt lat="42.84302" lon="2.73966">
        <ele>187.9</ele>
        <time>2021-03-28T08:36:19Z</time>
      </trkpt>
      <trkpt lat="42.84302" lon="2.73966">
        <ele>187.9</ele>
        <time>2021-03-28T08:36:19Z</time>
      </trkpt>
      <trkpt lat="42.84294" lon="2.73958">
        <ele>188.1</ele>
        <time>2021-03-28T08:36:20Z</time>
      </trkpt>
      <trkpt lat="42.84294" lon="2.73958">
        <ele>188.1</ele>
        <time>2021-03-28T08:36:20Z</time>
      </trkpt>
      <trkpt lat="42.84287" lon="2.73949">
        <ele>188.4</ele>
        <time>2021-03-28T08:36:22Z</time>
      </trkpt>
      <trkpt lat="42.84287" lon="2.73949">
        <ele>188.4</ele>
        <time>2021-03-28T08:36:22Z</time>
      </trkpt>
      <trkpt lat="42.8428" lon="2.73941">
        <ele>188.3</ele>
        <time>2021-03-28T08:36:23Z</time>
      </trkpt>
      <trkpt lat="42.8428" lon="2.73941">
        <ele>188.3</ele>
        <time>2021-03-28T08:36:23Z</time>
      </trkpt>
      <trkpt lat="42.84272" lon="2.73932">
        <ele>187.8</ele>
        <time>2021-03-28T08:36:25Z</time>
      </trkpt>
      <trkpt lat="42.84272" lon="2.73932">
        <ele>187.8</ele>
        <time>2021-03-28T08:36:25Z</time>
      </trkpt>
      <trkpt lat="42.84263" lon="2.73922">
        <ele>187.4</ele>
        <time>2021-03-28T08:36:27Z</time>
      </trkpt>
      <trkpt lat="42.84263" lon="2.73922">
        <ele>187.4</ele>
        <time>2021-03-28T08:36:27Z</time>
      </trkpt>
      <trkpt lat="42.84255" lon="2.73914">
        <ele>187.1</ele>
        <time>2021-03-28T08:36:28Z</time>
      </trkpt>
      <trkpt lat="42.84255" lon="2.73914">
        <ele>187.1</ele>
        <time>2021-03-28T08:36:28Z</time>
      </trkpt>
      <trkpt lat="42.84247" lon="2.73905">
        <ele>186.6</ele>
        <time>2021-03-28T08:36:30Z</time>
      </trkpt>
      <trkpt lat="42.84247" lon="2.73905">
        <ele>186.6</ele>
        <time>2021-03-28T08:36:30Z</time>
      </trkpt>
      <trkpt lat="42.84239" lon="2.73897">
        <ele>186.3</ele>
        <time>2021-03-28T08:36:31Z</time>
      </trkpt>
      <trkpt lat="42.84239" lon="2.73897">
        <ele>186.3</ele>
        <time>2021-03-28T08:36:31Z</time>
      </trkpt>
      <trkpt lat="42.84231" lon="2.73888">
        <ele>186.3</ele>
        <time>2021-03-28T08:36:33Z</time>
      </trkpt>
      <trkpt lat="42.84231" lon="2.73888">
        <ele>186.3</ele>
        <time>2021-03-28T08:36:33Z</time>
      </trkpt>
      <trkpt lat="42.84223" lon="2.7388">
        <ele>186.4</ele>
        <time>2021-03-28T08:36:34Z</time>
      </trkpt>
      <trkpt lat="42.84223" lon="2.7388">
        <ele>186.4</ele>
        <time>2021-03-28T08:36:34Z</time>
      </trkpt>
      <trkpt lat="42.84215" lon="2.73871">
        <ele>186.4</ele>
        <time>2021-03-28T08:36:36Z</time>
      </trkpt>
      <trkpt lat="42.84215" lon="2.73871">
        <ele>186.4</ele>
        <time>2021-03-28T08:36:36Z</time>
      </trkpt>
      <trkpt lat="42.84207" lon="2.73863">
        <ele>186.2</ele>
        <time>2021-03-28T08:36:37Z</time>
      </trkpt>
      <trkpt lat="42.84207" lon="2.73863">
        <ele>186.2</ele>
        <time>2021-03-28T08:36:37Z</time>
      </trkpt>
      <trkpt lat="42.84201" lon="2.73856">
        <ele>186.1</ele>
        <time>2021-03-28T08:36:38Z</time>
      </trkpt>
      <trkpt lat="42.84201" lon="2.73856">
        <ele>186.1</ele>
        <time>2021-03-28T08:36:38Z</time>
      </trkpt>
      <trkpt lat="42.84194" lon="2.73849">
        <ele>186</ele>
        <time>2021-03-28T08:36:39Z</time>
      </trkpt>
      <trkpt lat="42.84194" lon="2.73849">
        <ele>186</ele>
        <time>2021-03-28T08:36:39Z</time>
      </trkpt>
      <trkpt lat="42.84189" lon="2.73842">
        <ele>186.1</ele>
        <time>2021-03-28T08:36:40Z</time>
      </trkpt>
      <trkpt lat="42.84189" lon="2.73842">
        <ele>186.1</ele>
        <time>2021-03-28T08:36:40Z</time>
      </trkpt>
      <trkpt lat="42.84183" lon="2.73836">
        <ele>186.2</ele>
        <time>2021-03-28T08:36:41Z</time>
      </trkpt>
      <trkpt lat="42.84183" lon="2.73836">
        <ele>186.2</ele>
        <time>2021-03-28T08:36:41Z</time>
      </trkpt>
      <trkpt lat="42.84177" lon="2.73828">
        <ele>186.1</ele>
        <time>2021-03-28T08:36:43Z</time>
      </trkpt>
      <trkpt lat="42.84177" lon="2.73828">
        <ele>186.1</ele>
        <time>2021-03-28T08:36:43Z</time>
      </trkpt>
      <trkpt lat="42.84169" lon="2.73818">
        <ele>186</ele>
        <time>2021-03-28T08:36:45Z</time>
      </trkpt>
      <trkpt lat="42.84169" lon="2.73818">
        <ele>186</ele>
        <time>2021-03-28T08:36:45Z</time>
      </trkpt>
      <trkpt lat="42.84162" lon="2.7381">
        <ele>185.8</ele>
        <time>2021-03-28T08:36:46Z</time>
      </trkpt>
      <trkpt lat="42.84162" lon="2.7381">
        <ele>185.8</ele>
        <time>2021-03-28T08:36:46Z</time>
      </trkpt>
      <trkpt lat="42.84156" lon="2.73802">
        <ele>185.7</ele>
        <time>2021-03-28T08:36:47Z</time>
      </trkpt>
      <trkpt lat="42.84156" lon="2.73802">
        <ele>185.7</ele>
        <time>2021-03-28T08:36:47Z</time>
      </trkpt>
      <trkpt lat="42.84149" lon="2.73793">
        <ele>185.2</ele>
        <time>2021-03-28T08:36:49Z</time>
      </trkpt>
      <trkpt lat="42.84149" lon="2.73793">
        <ele>185.2</ele>
        <time>2021-03-28T08:36:49Z</time>
      </trkpt>
      <trkpt lat="42.84143" lon="2.73786">
        <ele>184.3</ele>
        <time>2021-03-28T08:36:50Z</time>
      </trkpt>
      <trkpt lat="42.84143" lon="2.73786">
        <ele>184.3</ele>
        <time>2021-03-28T08:36:50Z</time>
      </trkpt>
      <trkpt lat="42.84137" lon="2.73778">
        <ele>183.4</ele>
        <time>2021-03-28T08:36:51Z</time>
      </trkpt>
      <trkpt lat="42.84137" lon="2.73778">
        <ele>183.4</ele>
        <time>2021-03-28T08:36:51Z</time>
      </trkpt>
      <trkpt lat="42.84132" lon="2.73772">
        <ele>184</ele>
        <time>2021-03-28T08:36:52Z</time>
      </trkpt>
      <trkpt lat="42.84132" lon="2.73772">
        <ele>184</ele>
        <time>2021-03-28T08:36:52Z</time>
      </trkpt>
      <trkpt lat="42.84125" lon="2.73764">
        <ele>184.4</ele>
        <time>2021-03-28T08:36:54Z</time>
      </trkpt>
      <trkpt lat="42.84125" lon="2.73764">
        <ele>184.4</ele>
        <time>2021-03-28T08:36:54Z</time>
      </trkpt>
      <trkpt lat="42.84117" lon="2.73755">
        <ele>184.4</ele>
        <time>2021-03-28T08:36:56Z</time>
      </trkpt>
      <trkpt lat="42.84117" lon="2.73755">
        <ele>184.4</ele>
        <time>2021-03-28T08:36:56Z</time>
      </trkpt>
      <trkpt lat="42.84108" lon="2.73746">
        <ele>184.1</ele>
        <time>2021-03-28T08:36:58Z</time>
      </trkpt>
      <trkpt lat="42.84108" lon="2.73746">
        <ele>184.1</ele>
        <time>2021-03-28T08:36:58Z</time>
      </trkpt>
      <trkpt lat="42.84099" lon="2.73735">
        <ele>183.9</ele>
        <time>2021-03-28T08:37:00Z</time>
      </trkpt>
      <trkpt lat="42.84099" lon="2.73735">
        <ele>183.9</ele>
        <time>2021-03-28T08:37:00Z</time>
      </trkpt>
      <trkpt lat="42.8409" lon="2.73724">
        <ele>183.9</ele>
        <time>2021-03-28T08:37:02Z</time>
      </trkpt>
      <trkpt lat="42.8409" lon="2.73724">
        <ele>183.9</ele>
        <time>2021-03-28T08:37:02Z</time>
      </trkpt>
      <trkpt lat="42.84082" lon="2.73712">
        <ele>184.2</ele>
        <time>2021-03-28T08:37:04Z</time>
      </trkpt>
      <trkpt lat="42.84082" lon="2.73712">
        <ele>184.2</ele>
        <time>2021-03-28T08:37:04Z</time>
      </trkpt>
      <trkpt lat="42.84074" lon="2.73699">
        <ele>185</ele>
        <time>2021-03-28T08:37:06Z</time>
      </trkpt>
      <trkpt lat="42.84074" lon="2.73699">
        <ele>185</ele>
        <time>2021-03-28T08:37:06Z</time>
      </trkpt>
      <trkpt lat="42.84068" lon="2.73688">
        <ele>184.9</ele>
        <time>2021-03-28T08:37:07Z</time>
      </trkpt>
      <trkpt lat="42.84068" lon="2.73688">
        <ele>184.9</ele>
        <time>2021-03-28T08:37:07Z</time>
      </trkpt>
      <trkpt lat="42.84062" lon="2.73675">
        <ele>184.1</ele>
        <time>2021-03-28T08:37:09Z</time>
      </trkpt>
      <trkpt lat="42.84062" lon="2.73675">
        <ele>184.1</ele>
        <time>2021-03-28T08:37:09Z</time>
      </trkpt>
      <trkpt lat="42.84057" lon="2.73664">
        <ele>183</ele>
        <time>2021-03-28T08:37:10Z</time>
      </trkpt>
      <trkpt lat="42.84057" lon="2.73664">
        <ele>183</ele>
        <time>2021-03-28T08:37:10Z</time>
      </trkpt>
      <trkpt lat="42.84051" lon="2.73652">
        <ele>183</ele>
        <time>2021-03-28T08:37:12Z</time>
      </trkpt>
      <trkpt lat="42.84051" lon="2.73652">
        <ele>183</ele>
        <time>2021-03-28T08:37:12Z</time>
      </trkpt>
      <trkpt lat="42.84045" lon="2.7364">
        <ele>182.9</ele>
        <time>2021-03-28T08:37:14Z</time>
      </trkpt>
      <trkpt lat="42.84045" lon="2.7364">
        <ele>182.9</ele>
        <time>2021-03-28T08:37:14Z</time>
      </trkpt>
      <trkpt lat="42.8404" lon="2.73627">
        <ele>182.8</ele>
        <time>2021-03-28T08:37:16Z</time>
      </trkpt>
      <trkpt lat="42.8404" lon="2.73627">
        <ele>182.8</ele>
        <time>2021-03-28T08:37:16Z</time>
      </trkpt>
      <trkpt lat="42.84035" lon="2.73615">
        <ele>182.9</ele>
        <time>2021-03-28T08:37:17Z</time>
      </trkpt>
      <trkpt lat="42.84035" lon="2.73615">
        <ele>182.9</ele>
        <time>2021-03-28T08:37:17Z</time>
      </trkpt>
      <trkpt lat="42.8403" lon="2.73603">
        <ele>182.9</ele>
        <time>2021-03-28T08:37:19Z</time>
      </trkpt>
      <trkpt lat="42.8403" lon="2.73603">
        <ele>182.9</ele>
        <time>2021-03-28T08:37:19Z</time>
      </trkpt>
      <trkpt lat="42.84026" lon="2.73592">
        <ele>182.4</ele>
        <time>2021-03-28T08:37:20Z</time>
      </trkpt>
      <trkpt lat="42.84026" lon="2.73592">
        <ele>182.4</ele>
        <time>2021-03-28T08:37:20Z</time>
      </trkpt>
      <trkpt lat="42.84021" lon="2.7358">
        <ele>182.5</ele>
        <time>2021-03-28T08:37:22Z</time>
      </trkpt>
      <trkpt lat="42.84021" lon="2.7358">
        <ele>182.5</ele>
        <time>2021-03-28T08:37:22Z</time>
      </trkpt>
      <trkpt lat="42.84017" lon="2.7357">
        <ele>183.3</ele>
        <time>2021-03-28T08:37:23Z</time>
      </trkpt>
      <trkpt lat="42.84017" lon="2.7357">
        <ele>183.3</ele>
        <time>2021-03-28T08:37:23Z</time>
      </trkpt>
      <trkpt lat="42.84011" lon="2.73559">
        <ele>183.7</ele>
        <time>2021-03-28T08:37:25Z</time>
      </trkpt>
      <trkpt lat="42.84011" lon="2.73559">
        <ele>183.7</ele>
        <time>2021-03-28T08:37:25Z</time>
      </trkpt>
      <trkpt lat="42.84006" lon="2.7355">
        <ele>183.2</ele>
        <time>2021-03-28T08:37:26Z</time>
      </trkpt>
      <trkpt lat="42.84006" lon="2.7355">
        <ele>183.2</ele>
        <time>2021-03-28T08:37:26Z</time>
      </trkpt>
      <trkpt lat="42.84002" lon="2.73542">
        <ele>182.7</ele>
        <time>2021-03-28T08:37:27Z</time>
      </trkpt>
      <trkpt lat="42.84002" lon="2.73542">
        <ele>182.7</ele>
        <time>2021-03-28T08:37:27Z</time>
      </trkpt>
      <trkpt lat="42.83998" lon="2.73532">
        <ele>182.9</ele>
        <time>2021-03-28T08:37:29Z</time>
      </trkpt>
      <trkpt lat="42.83998" lon="2.73532">
        <ele>182.9</ele>
        <time>2021-03-28T08:37:29Z</time>
      </trkpt>
      <trkpt lat="42.83994" lon="2.7352">
        <ele>183.7</ele>
        <time>2021-03-28T08:37:31Z</time>
      </trkpt>
      <trkpt lat="42.83994" lon="2.7352">
        <ele>183.7</ele>
        <time>2021-03-28T08:37:31Z</time>
      </trkpt>
      <trkpt lat="42.8399" lon="2.73509">
        <ele>184.2</ele>
        <time>2021-03-28T08:37:32Z</time>
      </trkpt>
      <trkpt lat="42.8399" lon="2.73509">
        <ele>184.2</ele>
        <time>2021-03-28T08:37:32Z</time>
      </trkpt>
      <trkpt lat="42.83988" lon="2.73499">
        <ele>184.5</ele>
        <time>2021-03-28T08:37:33Z</time>
      </trkpt>
      <trkpt lat="42.83988" lon="2.73499">
        <ele>184.5</ele>
        <time>2021-03-28T08:37:33Z</time>
      </trkpt>
      <trkpt lat="42.83985" lon="2.73489">
        <ele>184.4</ele>
        <time>2021-03-28T08:37:34Z</time>
      </trkpt>
      <trkpt lat="42.83985" lon="2.73489">
        <ele>184.4</ele>
        <time>2021-03-28T08:37:34Z</time>
      </trkpt>
      <trkpt lat="42.83983" lon="2.73478">
        <ele>184.1</ele>
        <time>2021-03-28T08:37:36Z</time>
      </trkpt>
      <trkpt lat="42.83983" lon="2.73478">
        <ele>184.1</ele>
        <time>2021-03-28T08:37:36Z</time>
      </trkpt>
      <trkpt lat="42.83981" lon="2.73465">
        <ele>183.9</ele>
        <time>2021-03-28T08:37:38Z</time>
      </trkpt>
      <trkpt lat="42.83981" lon="2.73465">
        <ele>183.9</ele>
        <time>2021-03-28T08:37:38Z</time>
      </trkpt>
      <trkpt lat="42.83979" lon="2.73453">
        <ele>184.1</ele>
        <time>2021-03-28T08:37:39Z</time>
      </trkpt>
      <trkpt lat="42.83979" lon="2.73453">
        <ele>184.1</ele>
        <time>2021-03-28T08:37:39Z</time>
      </trkpt>
      <trkpt lat="42.83977" lon="2.7344">
        <ele>184.3</ele>
        <time>2021-03-28T08:37:41Z</time>
      </trkpt>
      <trkpt lat="42.83977" lon="2.7344">
        <ele>184.3</ele>
        <time>2021-03-28T08:37:41Z</time>
      </trkpt>
      <trkpt lat="42.83975" lon="2.73426">
        <ele>184.6</ele>
        <time>2021-03-28T08:37:43Z</time>
      </trkpt>
      <trkpt lat="42.83975" lon="2.73426">
        <ele>184.6</ele>
        <time>2021-03-28T08:37:43Z</time>
      </trkpt>
      <trkpt lat="42.83974" lon="2.73413">
        <ele>184.7</ele>
        <time>2021-03-28T08:37:44Z</time>
      </trkpt>
      <trkpt lat="42.83974" lon="2.73413">
        <ele>184.7</ele>
        <time>2021-03-28T08:37:44Z</time>
      </trkpt>
      <trkpt lat="42.83972" lon="2.734">
        <ele>184.5</ele>
        <time>2021-03-28T08:37:46Z</time>
      </trkpt>
      <trkpt lat="42.83972" lon="2.734">
        <ele>184.5</ele>
        <time>2021-03-28T08:37:46Z</time>
      </trkpt>
      <trkpt lat="42.8397" lon="2.73386">
        <ele>184.3</ele>
        <time>2021-03-28T08:37:48Z</time>
      </trkpt>
      <trkpt lat="42.8397" lon="2.73386">
        <ele>184.3</ele>
        <time>2021-03-28T08:37:48Z</time>
      </trkpt>
      <trkpt lat="42.83969" lon="2.7337">
        <ele>183.6</ele>
        <time>2021-03-28T08:37:50Z</time>
      </trkpt>
      <trkpt lat="42.83969" lon="2.7337">
        <ele>183.6</ele>
        <time>2021-03-28T08:37:50Z</time>
      </trkpt>
      <trkpt lat="42.83967" lon="2.73354">
        <ele>182.5</ele>
        <time>2021-03-28T08:37:52Z</time>
      </trkpt>
      <trkpt lat="42.83967" lon="2.73354">
        <ele>182.5</ele>
        <time>2021-03-28T08:37:52Z</time>
      </trkpt>
      <trkpt lat="42.83963" lon="2.73338">
        <ele>180.8</ele>
        <time>2021-03-28T08:37:54Z</time>
      </trkpt>
      <trkpt lat="42.83963" lon="2.73338">
        <ele>180.8</ele>
        <time>2021-03-28T08:37:54Z</time>
      </trkpt>
      <trkpt lat="42.83958" lon="2.73324">
        <ele>180.5</ele>
        <time>2021-03-28T08:37:56Z</time>
      </trkpt>
      <trkpt lat="42.83958" lon="2.73324">
        <ele>180.5</ele>
        <time>2021-03-28T08:37:56Z</time>
      </trkpt>
      <trkpt lat="42.83954" lon="2.73312">
        <ele>180.6</ele>
        <time>2021-03-28T08:37:57Z</time>
      </trkpt>
      <trkpt lat="42.83954" lon="2.73312">
        <ele>180.6</ele>
        <time>2021-03-28T08:37:57Z</time>
      </trkpt>
      <trkpt lat="42.83948" lon="2.733">
        <ele>181</ele>
        <time>2021-03-28T08:37:59Z</time>
      </trkpt>
      <trkpt lat="42.83948" lon="2.733">
        <ele>181</ele>
        <time>2021-03-28T08:37:59Z</time>
      </trkpt>
      <trkpt lat="42.83942" lon="2.73289">
        <ele>181.5</ele>
        <time>2021-03-28T08:38:01Z</time>
      </trkpt>
      <trkpt lat="42.83942" lon="2.73289">
        <ele>181.5</ele>
        <time>2021-03-28T08:38:01Z</time>
      </trkpt>
      <trkpt lat="42.83936" lon="2.73277">
        <ele>181.8</ele>
        <time>2021-03-28T08:38:03Z</time>
      </trkpt>
      <trkpt lat="42.83936" lon="2.73277">
        <ele>181.8</ele>
        <time>2021-03-28T08:38:03Z</time>
      </trkpt>
      <trkpt lat="42.83929" lon="2.73265">
        <ele>181.6</ele>
        <time>2021-03-28T08:38:05Z</time>
      </trkpt>
      <trkpt lat="42.83929" lon="2.73265">
        <ele>181.6</ele>
        <time>2021-03-28T08:38:05Z</time>
      </trkpt>
      <trkpt lat="42.83923" lon="2.73255">
        <ele>181.2</ele>
        <time>2021-03-28T08:38:06Z</time>
      </trkpt>
      <trkpt lat="42.83923" lon="2.73255">
        <ele>181.2</ele>
        <time>2021-03-28T08:38:06Z</time>
      </trkpt>
      <trkpt lat="42.83918" lon="2.73246">
        <ele>180.6</ele>
        <time>2021-03-28T08:38:07Z</time>
      </trkpt>
      <trkpt lat="42.83918" lon="2.73246">
        <ele>180.6</ele>
        <time>2021-03-28T08:38:07Z</time>
      </trkpt>
      <trkpt lat="42.83914" lon="2.73235">
        <ele>179.9</ele>
        <time>2021-03-28T08:38:09Z</time>
      </trkpt>
      <trkpt lat="42.83914" lon="2.73235">
        <ele>179.9</ele>
        <time>2021-03-28T08:38:09Z</time>
      </trkpt>
      <trkpt lat="42.83909" lon="2.73224">
        <ele>179.4</ele>
        <time>2021-03-28T08:38:11Z</time>
      </trkpt>
      <trkpt lat="42.83909" lon="2.73224">
        <ele>179.4</ele>
        <time>2021-03-28T08:38:11Z</time>
      </trkpt>
      <trkpt lat="42.83905" lon="2.73211">
        <ele>179.5</ele>
        <time>2021-03-28T08:38:13Z</time>
      </trkpt>
      <trkpt lat="42.83905" lon="2.73211">
        <ele>179.5</ele>
        <time>2021-03-28T08:38:13Z</time>
      </trkpt>
      <trkpt lat="42.83902" lon="2.73199">
        <ele>179.5</ele>
        <time>2021-03-28T08:38:14Z</time>
      </trkpt>
      <trkpt lat="42.83902" lon="2.73199">
        <ele>179.5</ele>
        <time>2021-03-28T08:38:14Z</time>
      </trkpt>
      <trkpt lat="42.83899" lon="2.73186">
        <ele>179.4</ele>
        <time>2021-03-28T08:38:16Z</time>
      </trkpt>
      <trkpt lat="42.83899" lon="2.73186">
        <ele>179.4</ele>
        <time>2021-03-28T08:38:16Z</time>
      </trkpt>
      <trkpt lat="42.83896" lon="2.73175">
        <ele>178.9</ele>
        <time>2021-03-28T08:38:17Z</time>
      </trkpt>
      <trkpt lat="42.83896" lon="2.73175">
        <ele>178.9</ele>
        <time>2021-03-28T08:38:17Z</time>
      </trkpt>
      <trkpt lat="42.8389" lon="2.73163">
        <ele>177.8</ele>
        <time>2021-03-28T08:38:19Z</time>
      </trkpt>
      <trkpt lat="42.8389" lon="2.73163">
        <ele>177.8</ele>
        <time>2021-03-28T08:38:19Z</time>
      </trkpt>
      <trkpt lat="42.83885" lon="2.73154">
        <ele>177.9</ele>
        <time>2021-03-28T08:38:20Z</time>
      </trkpt>
      <trkpt lat="42.83885" lon="2.73154">
        <ele>177.9</ele>
        <time>2021-03-28T08:38:20Z</time>
      </trkpt>
      <trkpt lat="42.83879" lon="2.73148">
        <ele>178</ele>
        <time>2021-03-28T08:38:21Z</time>
      </trkpt>
      <trkpt lat="42.83879" lon="2.73148">
        <ele>178</ele>
        <time>2021-03-28T08:38:21Z</time>
      </trkpt>
      <trkpt lat="42.83873" lon="2.73142">
        <ele>177.9</ele>
        <time>2021-03-28T08:38:22Z</time>
      </trkpt>
      <trkpt lat="42.83873" lon="2.73142">
        <ele>177.9</ele>
        <time>2021-03-28T08:38:22Z</time>
      </trkpt>
      <trkpt lat="42.83865" lon="2.73138">
        <ele>177.5</ele>
        <time>2021-03-28T08:38:24Z</time>
      </trkpt>
      <trkpt lat="42.83865" lon="2.73138">
        <ele>177.5</ele>
        <time>2021-03-28T08:38:24Z</time>
      </trkpt>
      <trkpt lat="42.83856" lon="2.73132">
        <ele>177.2</ele>
        <time>2021-03-28T08:38:26Z</time>
      </trkpt>
      <trkpt lat="42.83856" lon="2.73132">
        <ele>177.2</ele>
        <time>2021-03-28T08:38:26Z</time>
      </trkpt>
      <trkpt lat="42.83847" lon="2.73125">
        <ele>177.2</ele>
        <time>2021-03-28T08:38:28Z</time>
      </trkpt>
      <trkpt lat="42.83847" lon="2.73125">
        <ele>177.2</ele>
        <time>2021-03-28T08:38:28Z</time>
      </trkpt>
      <trkpt lat="42.8384" lon="2.73119">
        <ele>177.4</ele>
        <time>2021-03-28T08:38:29Z</time>
      </trkpt>
      <trkpt lat="42.8384" lon="2.73119">
        <ele>177.4</ele>
        <time>2021-03-28T08:38:29Z</time>
      </trkpt>
      <trkpt lat="42.83831" lon="2.73112">
        <ele>177.6</ele>
        <time>2021-03-28T08:38:31Z</time>
      </trkpt>
      <trkpt lat="42.83831" lon="2.73112">
        <ele>177.6</ele>
        <time>2021-03-28T08:38:31Z</time>
      </trkpt>
      <trkpt lat="42.83821" lon="2.73103">
        <ele>177</ele>
        <time>2021-03-28T08:38:33Z</time>
      </trkpt>
      <trkpt lat="42.83821" lon="2.73103">
        <ele>177</ele>
        <time>2021-03-28T08:38:33Z</time>
      </trkpt>
      <trkpt lat="42.83813" lon="2.73095">
        <ele>176.7</ele>
        <time>2021-03-28T08:38:34Z</time>
      </trkpt>
      <trkpt lat="42.83813" lon="2.73095">
        <ele>176.7</ele>
        <time>2021-03-28T08:38:34Z</time>
      </trkpt>
      <trkpt lat="42.83806" lon="2.73087">
        <ele>176.6</ele>
        <time>2021-03-28T08:38:35Z</time>
      </trkpt>
      <trkpt lat="42.83806" lon="2.73087">
        <ele>176.6</ele>
        <time>2021-03-28T08:38:35Z</time>
      </trkpt>
      <trkpt lat="42.83798" lon="2.73079">
        <ele>176.2</ele>
        <time>2021-03-28T08:38:37Z</time>
      </trkpt>
      <trkpt lat="42.83798" lon="2.73079">
        <ele>176.2</ele>
        <time>2021-03-28T08:38:37Z</time>
      </trkpt>
      <trkpt lat="42.83792" lon="2.73072">
        <ele>175.9</ele>
        <time>2021-03-28T08:38:38Z</time>
      </trkpt>
      <trkpt lat="42.83792" lon="2.73072">
        <ele>175.9</ele>
        <time>2021-03-28T08:38:38Z</time>
      </trkpt>
      <trkpt lat="42.83784" lon="2.73063">
        <ele>175.9</ele>
        <time>2021-03-28T08:38:40Z</time>
      </trkpt>
      <trkpt lat="42.83784" lon="2.73063">
        <ele>175.9</ele>
        <time>2021-03-28T08:38:40Z</time>
      </trkpt>
      <trkpt lat="42.83776" lon="2.73054">
        <ele>176</ele>
        <time>2021-03-28T08:38:42Z</time>
      </trkpt>
      <trkpt lat="42.83776" lon="2.73054">
        <ele>176</ele>
        <time>2021-03-28T08:38:42Z</time>
      </trkpt>
      <trkpt lat="42.83769" lon="2.73044">
        <ele>176</ele>
        <time>2021-03-28T08:38:44Z</time>
      </trkpt>
      <trkpt lat="42.83769" lon="2.73044">
        <ele>176</ele>
        <time>2021-03-28T08:38:44Z</time>
      </trkpt>
      <trkpt lat="42.83761" lon="2.73033">
        <ele>176.1</ele>
        <time>2021-03-28T08:38:46Z</time>
      </trkpt>
      <trkpt lat="42.83761" lon="2.73033">
        <ele>176.1</ele>
        <time>2021-03-28T08:38:46Z</time>
      </trkpt>
      <trkpt lat="42.83754" lon="2.73022">
        <ele>176.1</ele>
        <time>2021-03-28T08:38:48Z</time>
      </trkpt>
      <trkpt lat="42.83754" lon="2.73022">
        <ele>176.1</ele>
        <time>2021-03-28T08:38:48Z</time>
      </trkpt>
      <trkpt lat="42.83748" lon="2.73012">
        <ele>175.8</ele>
        <time>2021-03-28T08:38:49Z</time>
      </trkpt>
      <trkpt lat="42.83748" lon="2.73012">
        <ele>175.8</ele>
        <time>2021-03-28T08:38:49Z</time>
      </trkpt>
      <trkpt lat="42.83742" lon="2.73001">
        <ele>175.8</ele>
        <time>2021-03-28T08:38:51Z</time>
      </trkpt>
      <trkpt lat="42.83742" lon="2.73001">
        <ele>175.8</ele>
        <time>2021-03-28T08:38:51Z</time>
      </trkpt>
      <trkpt lat="42.83737" lon="2.72991">
        <ele>175.8</ele>
        <time>2021-03-28T08:38:52Z</time>
      </trkpt>
      <trkpt lat="42.83737" lon="2.72991">
        <ele>175.8</ele>
        <time>2021-03-28T08:38:52Z</time>
      </trkpt>
      <trkpt lat="42.83731" lon="2.72979">
        <ele>175.8</ele>
        <time>2021-03-28T08:38:54Z</time>
      </trkpt>
      <trkpt lat="42.83731" lon="2.72979">
        <ele>175.8</ele>
        <time>2021-03-28T08:38:54Z</time>
      </trkpt>
      <trkpt lat="42.83725" lon="2.72967">
        <ele>175.8</ele>
        <time>2021-03-28T08:38:56Z</time>
      </trkpt>
      <trkpt lat="42.83725" lon="2.72967">
        <ele>175.8</ele>
        <time>2021-03-28T08:38:56Z</time>
      </trkpt>
      <trkpt lat="42.83719" lon="2.72954">
        <ele>175.8</ele>
        <time>2021-03-28T08:38:58Z</time>
      </trkpt>
      <trkpt lat="42.83719" lon="2.72954">
        <ele>175.8</ele>
        <time>2021-03-28T08:38:58Z</time>
      </trkpt>
      <trkpt lat="42.83714" lon="2.72943">
        <ele>175.6</ele>
        <time>2021-03-28T08:38:59Z</time>
      </trkpt>
      <trkpt lat="42.83714" lon="2.72943">
        <ele>175.6</ele>
        <time>2021-03-28T08:38:59Z</time>
      </trkpt>
      <trkpt lat="42.83709" lon="2.72932">
        <ele>175.2</ele>
        <time>2021-03-28T08:39:01Z</time>
      </trkpt>
      <trkpt lat="42.83709" lon="2.72932">
        <ele>175.2</ele>
        <time>2021-03-28T08:39:01Z</time>
      </trkpt>
      <trkpt lat="42.83703" lon="2.72919">
        <ele>175</ele>
        <time>2021-03-28T08:39:03Z</time>
      </trkpt>
      <trkpt lat="42.83703" lon="2.72919">
        <ele>175</ele>
        <time>2021-03-28T08:39:03Z</time>
      </trkpt>
      <trkpt lat="42.83697" lon="2.72906">
        <ele>175.1</ele>
        <time>2021-03-28T08:39:05Z</time>
      </trkpt>
      <trkpt lat="42.83697" lon="2.72906">
        <ele>175.1</ele>
        <time>2021-03-28T08:39:05Z</time>
      </trkpt>
      <trkpt lat="42.83692" lon="2.72895">
        <ele>175.3</ele>
        <time>2021-03-28T08:39:06Z</time>
      </trkpt>
      <trkpt lat="42.83692" lon="2.72895">
        <ele>175.3</ele>
        <time>2021-03-28T08:39:06Z</time>
      </trkpt>
      <trkpt lat="42.83689" lon="2.72882">
        <ele>175.5</ele>
        <time>2021-03-28T08:39:08Z</time>
      </trkpt>
      <trkpt lat="42.83689" lon="2.72882">
        <ele>175.5</ele>
        <time>2021-03-28T08:39:08Z</time>
      </trkpt>
      <trkpt lat="42.83687" lon="2.72867">
        <ele>175.7</ele>
        <time>2021-03-28T08:39:10Z</time>
      </trkpt>
      <trkpt lat="42.83687" lon="2.72867">
        <ele>175.7</ele>
        <time>2021-03-28T08:39:10Z</time>
      </trkpt>
      <trkpt lat="42.83684" lon="2.72851">
        <ele>175.3</ele>
        <time>2021-03-28T08:39:12Z</time>
      </trkpt>
      <trkpt lat="42.83684" lon="2.72851">
        <ele>175.3</ele>
        <time>2021-03-28T08:39:12Z</time>
      </trkpt>
      <trkpt lat="42.83683" lon="2.72837">
        <ele>174.8</ele>
        <time>2021-03-28T08:39:13Z</time>
      </trkpt>
      <trkpt lat="42.83683" lon="2.72837">
        <ele>174.8</ele>
        <time>2021-03-28T08:39:13Z</time>
      </trkpt>
      <trkpt lat="42.83682" lon="2.72824">
        <ele>174.6</ele>
        <time>2021-03-28T08:39:14Z</time>
      </trkpt>
      <trkpt lat="42.83682" lon="2.72824">
        <ele>174.6</ele>
        <time>2021-03-28T08:39:14Z</time>
      </trkpt>
      <trkpt lat="42.83681" lon="2.72812">
        <ele>174.5</ele>
        <time>2021-03-28T08:39:15Z</time>
      </trkpt>
      <trkpt lat="42.83681" lon="2.72812">
        <ele>174.5</ele>
        <time>2021-03-28T08:39:15Z</time>
      </trkpt>
      <trkpt lat="42.8368" lon="2.72801">
        <ele>174.5</ele>
        <time>2021-03-28T08:39:16Z</time>
      </trkpt>
      <trkpt lat="42.8368" lon="2.72801">
        <ele>174.5</ele>
        <time>2021-03-28T08:39:16Z</time>
      </trkpt>
      <trkpt lat="42.8368" lon="2.72787">
        <ele>174.3</ele>
        <time>2021-03-28T08:39:18Z</time>
      </trkpt>
      <trkpt lat="42.8368" lon="2.72787">
        <ele>174.3</ele>
        <time>2021-03-28T08:39:18Z</time>
      </trkpt>
      <trkpt lat="42.83679" lon="2.72776">
        <ele>174.2</ele>
        <time>2021-03-28T08:39:19Z</time>
      </trkpt>
      <trkpt lat="42.83679" lon="2.72776">
        <ele>174.2</ele>
        <time>2021-03-28T08:39:19Z</time>
      </trkpt>
      <trkpt lat="42.83679" lon="2.72765">
        <ele>174</ele>
        <time>2021-03-28T08:39:20Z</time>
      </trkpt>
      <trkpt lat="42.83679" lon="2.72765">
        <ele>174</ele>
        <time>2021-03-28T08:39:20Z</time>
      </trkpt>
      <trkpt lat="42.83678" lon="2.72752">
        <ele>173.7</ele>
        <time>2021-03-28T08:39:22Z</time>
      </trkpt>
      <trkpt lat="42.83678" lon="2.72752">
        <ele>173.7</ele>
        <time>2021-03-28T08:39:22Z</time>
      </trkpt>
      <trkpt lat="42.83677" lon="2.72738">
        <ele>173.3</ele>
        <time>2021-03-28T08:39:24Z</time>
      </trkpt>
      <trkpt lat="42.83677" lon="2.72738">
        <ele>173.3</ele>
        <time>2021-03-28T08:39:24Z</time>
      </trkpt>
      <trkpt lat="42.83674" lon="2.72724">
        <ele>172.5</ele>
        <time>2021-03-28T08:39:26Z</time>
      </trkpt>
      <trkpt lat="42.83674" lon="2.72724">
        <ele>172.5</ele>
        <time>2021-03-28T08:39:26Z</time>
      </trkpt>
      <trkpt lat="42.8367" lon="2.7271">
        <ele>170.5</ele>
        <time>2021-03-28T08:39:28Z</time>
      </trkpt>
      <trkpt lat="42.8367" lon="2.7271">
        <ele>170.5</ele>
        <time>2021-03-28T08:39:28Z</time>
      </trkpt>
      <trkpt lat="42.83666" lon="2.727">
        <ele>169.3</ele>
        <time>2021-03-28T08:39:29Z</time>
      </trkpt>
      <trkpt lat="42.83666" lon="2.727">
        <ele>169.3</ele>
        <time>2021-03-28T08:39:29Z</time>
      </trkpt>
      <trkpt lat="42.83659" lon="2.7269">
        <ele>170.4</ele>
        <time>2021-03-28T08:39:31Z</time>
      </trkpt>
      <trkpt lat="42.83659" lon="2.7269">
        <ele>170.4</ele>
        <time>2021-03-28T08:39:31Z</time>
      </trkpt>
      <trkpt lat="42.83652" lon="2.72681">
        <ele>171.8</ele>
        <time>2021-03-28T08:39:33Z</time>
      </trkpt>
      <trkpt lat="42.83652" lon="2.72681">
        <ele>171.8</ele>
        <time>2021-03-28T08:39:33Z</time>
      </trkpt>
      <trkpt lat="42.83645" lon="2.72674">
        <ele>172.6</ele>
        <time>2021-03-28T08:39:34Z</time>
      </trkpt>
      <trkpt lat="42.83645" lon="2.72674">
        <ele>172.6</ele>
        <time>2021-03-28T08:39:34Z</time>
      </trkpt>
      <trkpt lat="42.83638" lon="2.72668">
        <ele>172.9</ele>
        <time>2021-03-28T08:39:35Z</time>
      </trkpt>
      <trkpt lat="42.83638" lon="2.72668">
        <ele>172.9</ele>
        <time>2021-03-28T08:39:35Z</time>
      </trkpt>
      <trkpt lat="42.83631" lon="2.72662">
        <ele>173.7</ele>
        <time>2021-03-28T08:39:37Z</time>
      </trkpt>
      <trkpt lat="42.83631" lon="2.72662">
        <ele>173.7</ele>
        <time>2021-03-28T08:39:37Z</time>
      </trkpt>
      <trkpt lat="42.83623" lon="2.72657">
        <ele>174.6</ele>
        <time>2021-03-28T08:39:39Z</time>
      </trkpt>
      <trkpt lat="42.83623" lon="2.72657">
        <ele>174.6</ele>
        <time>2021-03-28T08:39:39Z</time>
      </trkpt>
      <trkpt lat="42.83614" lon="2.72652">
        <ele>175.2</ele>
        <time>2021-03-28T08:39:41Z</time>
      </trkpt>
      <trkpt lat="42.83614" lon="2.72652">
        <ele>175.2</ele>
        <time>2021-03-28T08:39:41Z</time>
      </trkpt>
      <trkpt lat="42.83607" lon="2.72647">
        <ele>175.5</ele>
        <time>2021-03-28T08:39:42Z</time>
      </trkpt>
      <trkpt lat="42.83607" lon="2.72647">
        <ele>175.5</ele>
        <time>2021-03-28T08:39:42Z</time>
      </trkpt>
      <trkpt lat="42.836" lon="2.72643">
        <ele>175.6</ele>
        <time>2021-03-28T08:39:44Z</time>
      </trkpt>
      <trkpt lat="42.836" lon="2.72643">
        <ele>175.6</ele>
        <time>2021-03-28T08:39:44Z</time>
      </trkpt>
      <trkpt lat="42.83591" lon="2.7264">
        <ele>175.4</ele>
        <time>2021-03-28T08:39:46Z</time>
      </trkpt>
      <trkpt lat="42.83591" lon="2.7264">
        <ele>175.4</ele>
        <time>2021-03-28T08:39:46Z</time>
      </trkpt>
      <trkpt lat="42.83582" lon="2.72638">
        <ele>175.2</ele>
        <time>2021-03-28T08:39:48Z</time>
      </trkpt>
      <trkpt lat="42.83582" lon="2.72638">
        <ele>175.2</ele>
        <time>2021-03-28T08:39:48Z</time>
      </trkpt>
      <trkpt lat="42.83573" lon="2.72637">
        <ele>175.6</ele>
        <time>2021-03-28T08:39:49Z</time>
      </trkpt>
      <trkpt lat="42.83573" lon="2.72637">
        <ele>175.6</ele>
        <time>2021-03-28T08:39:49Z</time>
      </trkpt>
      <trkpt lat="42.83566" lon="2.72635">
        <ele>176</ele>
        <time>2021-03-28T08:39:50Z</time>
      </trkpt>
      <trkpt lat="42.83566" lon="2.72635">
        <ele>176</ele>
        <time>2021-03-28T08:39:50Z</time>
      </trkpt>
      <trkpt lat="42.83558" lon="2.72635">
        <ele>176.3</ele>
        <time>2021-03-28T08:39:52Z</time>
      </trkpt>
      <trkpt lat="42.83558" lon="2.72635">
        <ele>176.3</ele>
        <time>2021-03-28T08:39:52Z</time>
      </trkpt>
      <trkpt lat="42.83549" lon="2.72634">
        <ele>176.4</ele>
        <time>2021-03-28T08:39:54Z</time>
      </trkpt>
      <trkpt lat="42.83549" lon="2.72634">
        <ele>176.4</ele>
        <time>2021-03-28T08:39:54Z</time>
      </trkpt>
      <trkpt lat="42.83541" lon="2.72633">
        <ele>176.4</ele>
        <time>2021-03-28T08:39:55Z</time>
      </trkpt>
      <trkpt lat="42.83541" lon="2.72633">
        <ele>176.4</ele>
        <time>2021-03-28T08:39:55Z</time>
      </trkpt>
      <trkpt lat="42.83535" lon="2.72632">
        <ele>176.5</ele>
        <time>2021-03-28T08:39:56Z</time>
      </trkpt>
      <trkpt lat="42.83535" lon="2.72632">
        <ele>176.5</ele>
        <time>2021-03-28T08:39:56Z</time>
      </trkpt>
      <trkpt lat="42.83527" lon="2.72631">
        <ele>176.5</ele>
        <time>2021-03-28T08:39:58Z</time>
      </trkpt>
      <trkpt lat="42.83527" lon="2.72631">
        <ele>176.5</ele>
        <time>2021-03-28T08:39:58Z</time>
      </trkpt>
      <trkpt lat="42.8352" lon="2.72631">
        <ele>176.5</ele>
        <time>2021-03-28T08:39:59Z</time>
      </trkpt>
      <trkpt lat="42.8352" lon="2.72631">
        <ele>176.5</ele>
        <time>2021-03-28T08:39:59Z</time>
      </trkpt>
      <trkpt lat="42.83513" lon="2.72629">
        <ele>176.5</ele>
        <time>2021-03-28T08:40:01Z</time>
      </trkpt>
      <trkpt lat="42.83513" lon="2.72629">
        <ele>176.5</ele>
        <time>2021-03-28T08:40:01Z</time>
      </trkpt>
      <trkpt lat="42.83506" lon="2.72628">
        <ele>176.5</ele>
        <time>2021-03-28T08:40:02Z</time>
      </trkpt>
      <trkpt lat="42.83506" lon="2.72628">
        <ele>176.5</ele>
        <time>2021-03-28T08:40:02Z</time>
      </trkpt>
      <trkpt lat="42.83499" lon="2.72626">
        <ele>176.5</ele>
        <time>2021-03-28T08:40:04Z</time>
      </trkpt>
      <trkpt lat="42.83499" lon="2.72626">
        <ele>176.5</ele>
        <time>2021-03-28T08:40:04Z</time>
      </trkpt>
      <trkpt lat="42.8349" lon="2.72623">
        <ele>176.6</ele>
        <time>2021-03-28T08:40:06Z</time>
      </trkpt>
      <trkpt lat="42.8349" lon="2.72623">
        <ele>176.6</ele>
        <time>2021-03-28T08:40:06Z</time>
      </trkpt>
      <trkpt lat="42.83482" lon="2.7262">
        <ele>176.7</ele>
        <time>2021-03-28T08:40:08Z</time>
      </trkpt>
      <trkpt lat="42.83482" lon="2.7262">
        <ele>176.7</ele>
        <time>2021-03-28T08:40:08Z</time>
      </trkpt>
      <trkpt lat="42.83474" lon="2.72615">
        <ele>176.8</ele>
        <time>2021-03-28T08:40:10Z</time>
      </trkpt>
      <trkpt lat="42.83474" lon="2.72615">
        <ele>176.8</ele>
        <time>2021-03-28T08:40:10Z</time>
      </trkpt>
      <trkpt lat="42.83467" lon="2.72611">
        <ele>176.8</ele>
        <time>2021-03-28T08:40:11Z</time>
      </trkpt>
      <trkpt lat="42.83467" lon="2.72611">
        <ele>176.8</ele>
        <time>2021-03-28T08:40:11Z</time>
      </trkpt>
      <trkpt lat="42.83461" lon="2.72608">
        <ele>176.7</ele>
        <time>2021-03-28T08:40:12Z</time>
      </trkpt>
      <trkpt lat="42.83461" lon="2.72608">
        <ele>176.7</ele>
        <time>2021-03-28T08:40:12Z</time>
      </trkpt>
      <trkpt lat="42.83454" lon="2.72603">
        <ele>176.6</ele>
        <time>2021-03-28T08:40:14Z</time>
      </trkpt>
      <trkpt lat="42.83454" lon="2.72603">
        <ele>176.6</ele>
        <time>2021-03-28T08:40:14Z</time>
      </trkpt>
      <trkpt lat="42.83447" lon="2.72599">
        <ele>176.5</ele>
        <time>2021-03-28T08:40:15Z</time>
      </trkpt>
      <trkpt lat="42.83447" lon="2.72599">
        <ele>176.5</ele>
        <time>2021-03-28T08:40:15Z</time>
      </trkpt>
      <trkpt lat="42.8344" lon="2.72594">
        <ele>176.5</ele>
        <time>2021-03-28T08:40:17Z</time>
      </trkpt>
      <trkpt lat="42.8344" lon="2.72594">
        <ele>176.5</ele>
        <time>2021-03-28T08:40:17Z</time>
      </trkpt>
      <trkpt lat="42.83432" lon="2.7259">
        <ele>176.7</ele>
        <time>2021-03-28T08:40:19Z</time>
      </trkpt>
      <trkpt lat="42.83432" lon="2.7259">
        <ele>176.7</ele>
        <time>2021-03-28T08:40:19Z</time>
      </trkpt>
      <trkpt lat="42.83425" lon="2.72584">
        <ele>176.9</ele>
        <time>2021-03-28T08:40:21Z</time>
      </trkpt>
      <trkpt lat="42.83425" lon="2.72584">
        <ele>176.9</ele>
        <time>2021-03-28T08:40:21Z</time>
      </trkpt>
      <trkpt lat="42.83417" lon="2.72579">
        <ele>177</ele>
        <time>2021-03-28T08:40:23Z</time>
      </trkpt>
      <trkpt lat="42.83417" lon="2.72579">
        <ele>177</ele>
        <time>2021-03-28T08:40:23Z</time>
      </trkpt>
      <trkpt lat="42.83409" lon="2.72573">
        <ele>176.6</ele>
        <time>2021-03-28T08:40:25Z</time>
      </trkpt>
      <trkpt lat="42.83409" lon="2.72573">
        <ele>176.6</ele>
        <time>2021-03-28T08:40:25Z</time>
      </trkpt>
      <trkpt lat="42.83403" lon="2.72569">
        <ele>176.2</ele>
        <time>2021-03-28T08:40:26Z</time>
      </trkpt>
      <trkpt lat="42.83403" lon="2.72569">
        <ele>176.2</ele>
        <time>2021-03-28T08:40:26Z</time>
      </trkpt>
      <trkpt lat="42.83396" lon="2.72564">
        <ele>175.8</ele>
        <time>2021-03-28T08:40:28Z</time>
      </trkpt>
      <trkpt lat="42.83396" lon="2.72564">
        <ele>175.8</ele>
        <time>2021-03-28T08:40:28Z</time>
      </trkpt>
      <trkpt lat="42.83391" lon="2.7256">
        <ele>175.3</ele>
        <time>2021-03-28T08:40:29Z</time>
      </trkpt>
      <trkpt lat="42.83391" lon="2.7256">
        <ele>175.3</ele>
        <time>2021-03-28T08:40:29Z</time>
      </trkpt>
      <trkpt lat="42.83384" lon="2.72556">
        <ele>175.6</ele>
        <time>2021-03-28T08:40:31Z</time>
      </trkpt>
      <trkpt lat="42.83384" lon="2.72556">
        <ele>175.6</ele>
        <time>2021-03-28T08:40:31Z</time>
      </trkpt>
      <trkpt lat="42.83378" lon="2.72552">
        <ele>176.3</ele>
        <time>2021-03-28T08:40:32Z</time>
      </trkpt>
      <trkpt lat="42.83378" lon="2.72552">
        <ele>176.3</ele>
        <time>2021-03-28T08:40:32Z</time>
      </trkpt>
      <trkpt lat="42.83371" lon="2.72548">
        <ele>177.4</ele>
        <time>2021-03-28T08:40:34Z</time>
      </trkpt>
      <trkpt lat="42.83371" lon="2.72548">
        <ele>177.4</ele>
        <time>2021-03-28T08:40:34Z</time>
      </trkpt>
      <trkpt lat="42.83366" lon="2.72545">
        <ele>178.5</ele>
        <time>2021-03-28T08:40:35Z</time>
      </trkpt>
      <trkpt lat="42.83366" lon="2.72545">
        <ele>178.5</ele>
        <time>2021-03-28T08:40:35Z</time>
      </trkpt>
      <trkpt lat="42.83361" lon="2.72542">
        <ele>179.5</ele>
        <time>2021-03-28T08:40:36Z</time>
      </trkpt>
      <trkpt lat="42.83361" lon="2.72542">
        <ele>179.5</ele>
        <time>2021-03-28T08:40:36Z</time>
      </trkpt>
      <trkpt lat="42.83357" lon="2.72539">
        <ele>180.7</ele>
        <time>2021-03-28T08:40:37Z</time>
      </trkpt>
      <trkpt lat="42.83357" lon="2.72539">
        <ele>180.7</ele>
        <time>2021-03-28T08:40:37Z</time>
      </trkpt>
      <trkpt lat="42.83353" lon="2.72539">
        <ele>181.6</ele>
        <time>2021-03-28T08:40:38Z</time>
      </trkpt>
      <trkpt lat="42.83353" lon="2.72539">
        <ele>181.6</ele>
        <time>2021-03-28T08:40:38Z</time>
      </trkpt>
      <trkpt lat="42.83349" lon="2.72539">
        <ele>182.4</ele>
        <time>2021-03-28T08:40:39Z</time>
      </trkpt>
      <trkpt lat="42.83349" lon="2.72539">
        <ele>182.4</ele>
        <time>2021-03-28T08:40:39Z</time>
      </trkpt>
      <trkpt lat="42.83346" lon="2.72541">
        <ele>183</ele>
        <time>2021-03-28T08:40:40Z</time>
      </trkpt>
      <trkpt lat="42.83346" lon="2.72541">
        <ele>183</ele>
        <time>2021-03-28T08:40:40Z</time>
      </trkpt>
      <trkpt lat="42.83342" lon="2.72544">
        <ele>183.3</ele>
        <time>2021-03-28T08:40:42Z</time>
      </trkpt>
      <trkpt lat="42.83342" lon="2.72544">
        <ele>183.3</ele>
        <time>2021-03-28T08:40:42Z</time>
      </trkpt>
      <trkpt lat="42.83339" lon="2.7255">
        <ele>183.5</ele>
        <time>2021-03-28T08:40:44Z</time>
      </trkpt>
      <trkpt lat="42.83339" lon="2.7255">
        <ele>183.5</ele>
        <time>2021-03-28T08:40:44Z</time>
      </trkpt>
      <trkpt lat="42.83335" lon="2.72555">
        <ele>183.7</ele>
        <time>2021-03-28T08:40:45Z</time>
      </trkpt>
      <trkpt lat="42.83335" lon="2.72555">
        <ele>183.7</ele>
        <time>2021-03-28T08:40:45Z</time>
      </trkpt>
      <trkpt lat="42.8333" lon="2.72561">
        <ele>183.9</ele>
        <time>2021-03-28T08:40:47Z</time>
      </trkpt>
      <trkpt lat="42.8333" lon="2.72561">
        <ele>183.9</ele>
        <time>2021-03-28T08:40:47Z</time>
      </trkpt>
      <trkpt lat="42.83325" lon="2.72568">
        <ele>183.7</ele>
        <time>2021-03-28T08:40:49Z</time>
      </trkpt>
      <trkpt lat="42.83325" lon="2.72568">
        <ele>183.7</ele>
        <time>2021-03-28T08:40:49Z</time>
      </trkpt>
      <trkpt lat="42.83321" lon="2.72574">
        <ele>183.3</ele>
        <time>2021-03-28T08:40:50Z</time>
      </trkpt>
      <trkpt lat="42.83321" lon="2.72574">
        <ele>183.3</ele>
        <time>2021-03-28T08:40:50Z</time>
      </trkpt>
      <trkpt lat="42.83316" lon="2.72578">
        <ele>182.9</ele>
        <time>2021-03-28T08:40:51Z</time>
      </trkpt>
      <trkpt lat="42.83316" lon="2.72578">
        <ele>182.9</ele>
        <time>2021-03-28T08:40:51Z</time>
      </trkpt>
      <trkpt lat="42.83313" lon="2.72582">
        <ele>182.4</ele>
        <time>2021-03-28T08:40:52Z</time>
      </trkpt>
      <trkpt lat="42.83313" lon="2.72582">
        <ele>182.4</ele>
        <time>2021-03-28T08:40:52Z</time>
      </trkpt>
      <trkpt lat="42.83308" lon="2.72585">
        <ele>181.9</ele>
        <time>2021-03-28T08:40:54Z</time>
      </trkpt>
      <trkpt lat="42.83308" lon="2.72585">
        <ele>181.9</ele>
        <time>2021-03-28T08:40:54Z</time>
      </trkpt>
      <trkpt lat="42.83303" lon="2.72587">
        <ele>181.7</ele>
        <time>2021-03-28T08:40:56Z</time>
      </trkpt>
      <trkpt lat="42.83303" lon="2.72587">
        <ele>181.7</ele>
        <time>2021-03-28T08:40:56Z</time>
      </trkpt>
      <trkpt lat="42.83298" lon="2.72589">
        <ele>181.9</ele>
        <time>2021-03-28T08:40:57Z</time>
      </trkpt>
      <trkpt lat="42.83298" lon="2.72589">
        <ele>181.9</ele>
        <time>2021-03-28T08:40:57Z</time>
      </trkpt>
      <trkpt lat="42.83293" lon="2.7259">
        <ele>182.2</ele>
        <time>2021-03-28T08:40:58Z</time>
      </trkpt>
      <trkpt lat="42.83293" lon="2.7259">
        <ele>182.2</ele>
        <time>2021-03-28T08:40:58Z</time>
      </trkpt>
      <trkpt lat="42.83287" lon="2.72592">
        <ele>182.5</ele>
        <time>2021-03-28T08:41:00Z</time>
      </trkpt>
      <trkpt lat="42.83287" lon="2.72592">
        <ele>182.5</ele>
        <time>2021-03-28T08:41:00Z</time>
      </trkpt>
      <trkpt lat="42.83281" lon="2.72593">
        <ele>182.9</ele>
        <time>2021-03-28T08:41:01Z</time>
      </trkpt>
      <trkpt lat="42.83281" lon="2.72593">
        <ele>182.9</ele>
        <time>2021-03-28T08:41:01Z</time>
      </trkpt>
      <trkpt lat="42.83275" lon="2.72596">
        <ele>183.3</ele>
        <time>2021-03-28T08:41:03Z</time>
      </trkpt>
      <trkpt lat="42.83275" lon="2.72596">
        <ele>183.3</ele>
        <time>2021-03-28T08:41:03Z</time>
      </trkpt>
      <trkpt lat="42.83269" lon="2.72598">
        <ele>183.5</ele>
        <time>2021-03-28T08:41:05Z</time>
      </trkpt>
      <trkpt lat="42.83269" lon="2.72598">
        <ele>183.5</ele>
        <time>2021-03-28T08:41:05Z</time>
      </trkpt>
      <trkpt lat="42.83261" lon="2.726">
        <ele>183.7</ele>
        <time>2021-03-28T08:41:07Z</time>
      </trkpt>
      <trkpt lat="42.83261" lon="2.726">
        <ele>183.7</ele>
        <time>2021-03-28T08:41:07Z</time>
      </trkpt>
      <trkpt lat="42.83255" lon="2.72601">
        <ele>184.1</ele>
        <time>2021-03-28T08:41:08Z</time>
      </trkpt>
      <trkpt lat="42.83255" lon="2.72601">
        <ele>184.1</ele>
        <time>2021-03-28T08:41:08Z</time>
      </trkpt>
      <trkpt lat="42.8325" lon="2.72602">
        <ele>184.3</ele>
        <time>2021-03-28T08:41:09Z</time>
      </trkpt>
      <trkpt lat="42.8325" lon="2.72602">
        <ele>184.3</ele>
        <time>2021-03-28T08:41:09Z</time>
      </trkpt>
      <trkpt lat="42.83243" lon="2.726">
        <ele>183.8</ele>
        <time>2021-03-28T08:41:11Z</time>
      </trkpt>
      <trkpt lat="42.83243" lon="2.726">
        <ele>183.8</ele>
        <time>2021-03-28T08:41:11Z</time>
      </trkpt>
      <trkpt lat="42.83237" lon="2.72596">
        <ele>183.7</ele>
        <time>2021-03-28T08:41:13Z</time>
      </trkpt>
      <trkpt lat="42.83237" lon="2.72596">
        <ele>183.7</ele>
        <time>2021-03-28T08:41:13Z</time>
      </trkpt>
      <trkpt lat="42.83232" lon="2.72592">
        <ele>183.8</ele>
        <time>2021-03-28T08:41:14Z</time>
      </trkpt>
      <trkpt lat="42.83232" lon="2.72592">
        <ele>183.8</ele>
        <time>2021-03-28T08:41:14Z</time>
      </trkpt>
      <trkpt lat="42.83226" lon="2.72586">
        <ele>184.6</ele>
        <time>2021-03-28T08:41:16Z</time>
      </trkpt>
      <trkpt lat="42.83226" lon="2.72586">
        <ele>184.6</ele>
        <time>2021-03-28T08:41:16Z</time>
      </trkpt>
      <trkpt lat="42.83219" lon="2.72579">
        <ele>184.9</ele>
        <time>2021-03-28T08:41:18Z</time>
      </trkpt>
      <trkpt lat="42.83219" lon="2.72579">
        <ele>184.9</ele>
        <time>2021-03-28T08:41:18Z</time>
      </trkpt>
      <trkpt lat="42.83213" lon="2.7257">
        <ele>184.6</ele>
        <time>2021-03-28T08:41:20Z</time>
      </trkpt>
      <trkpt lat="42.83213" lon="2.7257">
        <ele>184.6</ele>
        <time>2021-03-28T08:41:20Z</time>
      </trkpt>
      <trkpt lat="42.83206" lon="2.7256">
        <ele>184.6</ele>
        <time>2021-03-28T08:41:22Z</time>
      </trkpt>
      <trkpt lat="42.83206" lon="2.7256">
        <ele>184.6</ele>
        <time>2021-03-28T08:41:22Z</time>
      </trkpt>
      <trkpt lat="42.832" lon="2.7255">
        <ele>184.6</ele>
        <time>2021-03-28T08:41:24Z</time>
      </trkpt>
      <trkpt lat="42.832" lon="2.7255">
        <ele>184.6</ele>
        <time>2021-03-28T08:41:24Z</time>
      </trkpt>
      <trkpt lat="42.83195" lon="2.72541">
        <ele>184.6</ele>
        <time>2021-03-28T08:41:25Z</time>
      </trkpt>
      <trkpt lat="42.83195" lon="2.72541">
        <ele>184.6</ele>
        <time>2021-03-28T08:41:25Z</time>
      </trkpt>
      <trkpt lat="42.83191" lon="2.72534">
        <ele>184.7</ele>
        <time>2021-03-28T08:41:26Z</time>
      </trkpt>
      <trkpt lat="42.83191" lon="2.72534">
        <ele>184.7</ele>
        <time>2021-03-28T08:41:26Z</time>
      </trkpt>
      <trkpt lat="42.83187" lon="2.72527">
        <ele>184.7</ele>
        <time>2021-03-28T08:41:27Z</time>
      </trkpt>
      <trkpt lat="42.83187" lon="2.72527">
        <ele>184.7</ele>
        <time>2021-03-28T08:41:27Z</time>
      </trkpt>
      <trkpt lat="42.83183" lon="2.7252">
        <ele>184.9</ele>
        <time>2021-03-28T08:41:28Z</time>
      </trkpt>
      <trkpt lat="42.83183" lon="2.7252">
        <ele>184.9</ele>
        <time>2021-03-28T08:41:28Z</time>
      </trkpt>
      <trkpt lat="42.83179" lon="2.72513">
        <ele>185</ele>
        <time>2021-03-28T08:41:30Z</time>
      </trkpt>
      <trkpt lat="42.83179" lon="2.72513">
        <ele>185</ele>
        <time>2021-03-28T08:41:30Z</time>
      </trkpt>
      <trkpt lat="42.83175" lon="2.72506">
        <ele>185</ele>
        <time>2021-03-28T08:41:31Z</time>
      </trkpt>
      <trkpt lat="42.83175" lon="2.72506">
        <ele>185</ele>
        <time>2021-03-28T08:41:31Z</time>
      </trkpt>
      <trkpt lat="42.8317" lon="2.72497">
        <ele>185</ele>
        <time>2021-03-28T08:41:33Z</time>
      </trkpt>
      <trkpt lat="42.8317" lon="2.72497">
        <ele>185</ele>
        <time>2021-03-28T08:41:33Z</time>
      </trkpt>
      <trkpt lat="42.83165" lon="2.72488">
        <ele>185.2</ele>
        <time>2021-03-28T08:41:35Z</time>
      </trkpt>
      <trkpt lat="42.83165" lon="2.72488">
        <ele>185.2</ele>
        <time>2021-03-28T08:41:35Z</time>
      </trkpt>
      <trkpt lat="42.8316" lon="2.7248">
        <ele>185.4</ele>
        <time>2021-03-28T08:41:36Z</time>
      </trkpt>
      <trkpt lat="42.8316" lon="2.7248">
        <ele>185.4</ele>
        <time>2021-03-28T08:41:36Z</time>
      </trkpt>
      <trkpt lat="42.83157" lon="2.72471">
        <ele>185.5</ele>
        <time>2021-03-28T08:41:38Z</time>
      </trkpt>
      <trkpt lat="42.83157" lon="2.72471">
        <ele>185.5</ele>
        <time>2021-03-28T08:41:38Z</time>
      </trkpt>
      <trkpt lat="42.83154" lon="2.72463">
        <ele>185.4</ele>
        <time>2021-03-28T08:41:39Z</time>
      </trkpt>
      <trkpt lat="42.83154" lon="2.72463">
        <ele>185.4</ele>
        <time>2021-03-28T08:41:39Z</time>
      </trkpt>
      <trkpt lat="42.83154" lon="2.72454">
        <ele>185.7</ele>
        <time>2021-03-28T08:41:41Z</time>
      </trkpt>
      <trkpt lat="42.83154" lon="2.72454">
        <ele>185.7</ele>
        <time>2021-03-28T08:41:41Z</time>
      </trkpt>
      <trkpt lat="42.83154" lon="2.72443">
        <ele>186.4</ele>
        <time>2021-03-28T08:41:43Z</time>
      </trkpt>
      <trkpt lat="42.83154" lon="2.72443">
        <ele>186.4</ele>
        <time>2021-03-28T08:41:43Z</time>
      </trkpt>
      <trkpt lat="42.83153" lon="2.72431">
        <ele>186.9</ele>
        <time>2021-03-28T08:41:45Z</time>
      </trkpt>
      <trkpt lat="42.83153" lon="2.72431">
        <ele>186.9</ele>
        <time>2021-03-28T08:41:45Z</time>
      </trkpt>
      <trkpt lat="42.83151" lon="2.7242">
        <ele>186.9</ele>
        <time>2021-03-28T08:41:47Z</time>
      </trkpt>
      <trkpt lat="42.83151" lon="2.7242">
        <ele>186.9</ele>
        <time>2021-03-28T08:41:47Z</time>
      </trkpt>
      <trkpt lat="42.83146" lon="2.72411">
        <ele>186.7</ele>
        <time>2021-03-28T08:41:49Z</time>
      </trkpt>
      <trkpt lat="42.83146" lon="2.72411">
        <ele>186.7</ele>
        <time>2021-03-28T08:41:49Z</time>
      </trkpt>
      <trkpt lat="42.83141" lon="2.72403">
        <ele>186.7</ele>
        <time>2021-03-28T08:41:51Z</time>
      </trkpt>
      <trkpt lat="42.83141" lon="2.72403">
        <ele>186.7</ele>
        <time>2021-03-28T08:41:51Z</time>
      </trkpt>
      <trkpt lat="42.83133" lon="2.72396">
        <ele>187.4</ele>
        <time>2021-03-28T08:41:53Z</time>
      </trkpt>
      <trkpt lat="42.83133" lon="2.72396">
        <ele>187.4</ele>
        <time>2021-03-28T08:41:53Z</time>
      </trkpt>
      <trkpt lat="42.83125" lon="2.7239">
        <ele>187.9</ele>
        <time>2021-03-28T08:41:55Z</time>
      </trkpt>
      <trkpt lat="42.83125" lon="2.7239">
        <ele>187.9</ele>
        <time>2021-03-28T08:41:55Z</time>
      </trkpt>
      <trkpt lat="42.83118" lon="2.72385">
        <ele>187.9</ele>
        <time>2021-03-28T08:41:56Z</time>
      </trkpt>
      <trkpt lat="42.83118" lon="2.72385">
        <ele>187.9</ele>
        <time>2021-03-28T08:41:56Z</time>
      </trkpt>
      <trkpt lat="42.8311" lon="2.72379">
        <ele>187.9</ele>
        <time>2021-03-28T08:41:58Z</time>
      </trkpt>
      <trkpt lat="42.8311" lon="2.72379">
        <ele>187.9</ele>
        <time>2021-03-28T08:41:58Z</time>
      </trkpt>
      <trkpt lat="42.83103" lon="2.72373">
        <ele>187.6</ele>
        <time>2021-03-28T08:41:59Z</time>
      </trkpt>
      <trkpt lat="42.83103" lon="2.72373">
        <ele>187.6</ele>
        <time>2021-03-28T08:41:59Z</time>
      </trkpt>
      <trkpt lat="42.83098" lon="2.72367">
        <ele>187.5</ele>
        <time>2021-03-28T08:42:00Z</time>
      </trkpt>
      <trkpt lat="42.83098" lon="2.72367">
        <ele>187.5</ele>
        <time>2021-03-28T08:42:00Z</time>
      </trkpt>
      <trkpt lat="42.83094" lon="2.7236">
        <ele>187.5</ele>
        <time>2021-03-28T08:42:01Z</time>
      </trkpt>
      <trkpt lat="42.83094" lon="2.7236">
        <ele>187.5</ele>
        <time>2021-03-28T08:42:01Z</time>
      </trkpt>
      <trkpt lat="42.83091" lon="2.72351">
        <ele>187.4</ele>
        <time>2021-03-28T08:42:03Z</time>
      </trkpt>
      <trkpt lat="42.83091" lon="2.72351">
        <ele>187.4</ele>
        <time>2021-03-28T08:42:03Z</time>
      </trkpt>
      <trkpt lat="42.83089" lon="2.72343">
        <ele>187.5</ele>
        <time>2021-03-28T08:42:04Z</time>
      </trkpt>
      <trkpt lat="42.83089" lon="2.72343">
        <ele>187.5</ele>
        <time>2021-03-28T08:42:04Z</time>
      </trkpt>
      <trkpt lat="42.83087" lon="2.72332">
        <ele>187.6</ele>
        <time>2021-03-28T08:42:06Z</time>
      </trkpt>
      <trkpt lat="42.83087" lon="2.72332">
        <ele>187.6</ele>
        <time>2021-03-28T08:42:06Z</time>
      </trkpt>
      <trkpt lat="42.83086" lon="2.7232">
        <ele>187.4</ele>
        <time>2021-03-28T08:42:08Z</time>
      </trkpt>
      <trkpt lat="42.83086" lon="2.7232">
        <ele>187.4</ele>
        <time>2021-03-28T08:42:08Z</time>
      </trkpt>
      <trkpt lat="42.83084" lon="2.72308">
        <ele>187.1</ele>
        <time>2021-03-28T08:42:10Z</time>
      </trkpt>
      <trkpt lat="42.83084" lon="2.72308">
        <ele>187.1</ele>
        <time>2021-03-28T08:42:10Z</time>
      </trkpt>
      <trkpt lat="42.83082" lon="2.72298">
        <ele>187.4</ele>
        <time>2021-03-28T08:42:11Z</time>
      </trkpt>
      <trkpt lat="42.83082" lon="2.72298">
        <ele>187.4</ele>
        <time>2021-03-28T08:42:11Z</time>
      </trkpt>
      <trkpt lat="42.83079" lon="2.72288">
        <ele>187.7</ele>
        <time>2021-03-28T08:42:13Z</time>
      </trkpt>
      <trkpt lat="42.83079" lon="2.72288">
        <ele>187.7</ele>
        <time>2021-03-28T08:42:13Z</time>
      </trkpt>
      <trkpt lat="42.83076" lon="2.72277">
        <ele>187.9</ele>
        <time>2021-03-28T08:42:15Z</time>
      </trkpt>
      <trkpt lat="42.83076" lon="2.72277">
        <ele>187.9</ele>
        <time>2021-03-28T08:42:15Z</time>
      </trkpt>
      <trkpt lat="42.83072" lon="2.72269">
        <ele>188.5</ele>
        <time>2021-03-28T08:42:16Z</time>
      </trkpt>
      <trkpt lat="42.83072" lon="2.72269">
        <ele>188.5</ele>
        <time>2021-03-28T08:42:16Z</time>
      </trkpt>
      <trkpt lat="42.83067" lon="2.7226">
        <ele>189</ele>
        <time>2021-03-28T08:42:18Z</time>
      </trkpt>
      <trkpt lat="42.83067" lon="2.7226">
        <ele>189</ele>
        <time>2021-03-28T08:42:18Z</time>
      </trkpt>
      <trkpt lat="42.83063" lon="2.72251">
        <ele>189.2</ele>
        <time>2021-03-28T08:42:19Z</time>
      </trkpt>
      <trkpt lat="42.83063" lon="2.72251">
        <ele>189.2</ele>
        <time>2021-03-28T08:42:19Z</time>
      </trkpt>
      <trkpt lat="42.8306" lon="2.72244">
        <ele>189.2</ele>
        <time>2021-03-28T08:42:20Z</time>
      </trkpt>
      <trkpt lat="42.8306" lon="2.72244">
        <ele>189.2</ele>
        <time>2021-03-28T08:42:20Z</time>
      </trkpt>
      <trkpt lat="42.83055" lon="2.72236">
        <ele>189</ele>
        <time>2021-03-28T08:42:22Z</time>
      </trkpt>
      <trkpt lat="42.83055" lon="2.72236">
        <ele>189</ele>
        <time>2021-03-28T08:42:22Z</time>
      </trkpt>
      <trkpt lat="42.83052" lon="2.72228">
        <ele>189.3</ele>
        <time>2021-03-28T08:42:23Z</time>
      </trkpt>
      <trkpt lat="42.83052" lon="2.72228">
        <ele>189.3</ele>
        <time>2021-03-28T08:42:23Z</time>
      </trkpt>
      <trkpt lat="42.83047" lon="2.7222">
        <ele>189.6</ele>
        <time>2021-03-28T08:42:25Z</time>
      </trkpt>
      <trkpt lat="42.83047" lon="2.7222">
        <ele>189.6</ele>
        <time>2021-03-28T08:42:25Z</time>
      </trkpt>
      <trkpt lat="42.83043" lon="2.72213">
        <ele>189.8</ele>
        <time>2021-03-28T08:42:26Z</time>
      </trkpt>
      <trkpt lat="42.83043" lon="2.72213">
        <ele>189.8</ele>
        <time>2021-03-28T08:42:26Z</time>
      </trkpt>
      <trkpt lat="42.83038" lon="2.72205">
        <ele>189.9</ele>
        <time>2021-03-28T08:42:28Z</time>
      </trkpt>
      <trkpt lat="42.83038" lon="2.72205">
        <ele>189.9</ele>
        <time>2021-03-28T08:42:28Z</time>
      </trkpt>
      <trkpt lat="42.83034" lon="2.72197">
        <ele>189.7</ele>
        <time>2021-03-28T08:42:29Z</time>
      </trkpt>
      <trkpt lat="42.83034" lon="2.72197">
        <ele>189.7</ele>
        <time>2021-03-28T08:42:29Z</time>
      </trkpt>
      <trkpt lat="42.83029" lon="2.72189">
        <ele>189.6</ele>
        <time>2021-03-28T08:42:31Z</time>
      </trkpt>
      <trkpt lat="42.83029" lon="2.72189">
        <ele>189.6</ele>
        <time>2021-03-28T08:42:31Z</time>
      </trkpt>
      <trkpt lat="42.83025" lon="2.72182">
        <ele>189.8</ele>
        <time>2021-03-28T08:42:32Z</time>
      </trkpt>
      <trkpt lat="42.83025" lon="2.72182">
        <ele>189.8</ele>
        <time>2021-03-28T08:42:32Z</time>
      </trkpt>
      <trkpt lat="42.83022" lon="2.72175">
        <ele>190.1</ele>
        <time>2021-03-28T08:42:33Z</time>
      </trkpt>
      <trkpt lat="42.83022" lon="2.72175">
        <ele>190.1</ele>
        <time>2021-03-28T08:42:33Z</time>
      </trkpt>
      <trkpt lat="42.83018" lon="2.72168">
        <ele>190.6</ele>
        <time>2021-03-28T08:42:35Z</time>
      </trkpt>
      <trkpt lat="42.83018" lon="2.72168">
        <ele>190.6</ele>
        <time>2021-03-28T08:42:35Z</time>
      </trkpt>
      <trkpt lat="42.83013" lon="2.72158">
        <ele>190.8</ele>
        <time>2021-03-28T08:42:37Z</time>
      </trkpt>
      <trkpt lat="42.83013" lon="2.72158">
        <ele>190.8</ele>
        <time>2021-03-28T08:42:37Z</time>
      </trkpt>
      <trkpt lat="42.83009" lon="2.7215">
        <ele>190.9</ele>
        <time>2021-03-28T08:42:38Z</time>
      </trkpt>
      <trkpt lat="42.83009" lon="2.7215">
        <ele>190.9</ele>
        <time>2021-03-28T08:42:38Z</time>
      </trkpt>
      <trkpt lat="42.83004" lon="2.72141">
        <ele>191.1</ele>
        <time>2021-03-28T08:42:40Z</time>
      </trkpt>
      <trkpt lat="42.83004" lon="2.72141">
        <ele>191.1</ele>
        <time>2021-03-28T08:42:40Z</time>
      </trkpt>
      <trkpt lat="42.83" lon="2.72133">
        <ele>191.4</ele>
        <time>2021-03-28T08:42:41Z</time>
      </trkpt>
      <trkpt lat="42.83" lon="2.72133">
        <ele>191.4</ele>
        <time>2021-03-28T08:42:41Z</time>
      </trkpt>
      <trkpt lat="42.82995" lon="2.72124">
        <ele>191.7</ele>
        <time>2021-03-28T08:42:43Z</time>
      </trkpt>
      <trkpt lat="42.82995" lon="2.72124">
        <ele>191.7</ele>
        <time>2021-03-28T08:42:43Z</time>
      </trkpt>
      <trkpt lat="42.82991" lon="2.72116">
        <ele>192</ele>
        <time>2021-03-28T08:42:44Z</time>
      </trkpt>
      <trkpt lat="42.82991" lon="2.72116">
        <ele>192</ele>
        <time>2021-03-28T08:42:44Z</time>
      </trkpt>
      <trkpt lat="42.82986" lon="2.72108">
        <ele>192.2</ele>
        <time>2021-03-28T08:42:46Z</time>
      </trkpt>
      <trkpt lat="42.82986" lon="2.72108">
        <ele>192.2</ele>
        <time>2021-03-28T08:42:46Z</time>
      </trkpt>
      <trkpt lat="42.82981" lon="2.72099">
        <ele>192.5</ele>
        <time>2021-03-28T08:42:48Z</time>
      </trkpt>
      <trkpt lat="42.82981" lon="2.72099">
        <ele>192.5</ele>
        <time>2021-03-28T08:42:48Z</time>
      </trkpt>
      <trkpt lat="42.82975" lon="2.72089">
        <ele>192.8</ele>
        <time>2021-03-28T08:42:50Z</time>
      </trkpt>
      <trkpt lat="42.82975" lon="2.72089">
        <ele>192.8</ele>
        <time>2021-03-28T08:42:50Z</time>
      </trkpt>
      <trkpt lat="42.8297" lon="2.7208">
        <ele>193.1</ele>
        <time>2021-03-28T08:42:52Z</time>
      </trkpt>
      <trkpt lat="42.8297" lon="2.7208">
        <ele>193.1</ele>
        <time>2021-03-28T08:42:52Z</time>
      </trkpt>
      <trkpt lat="42.82965" lon="2.72072">
        <ele>193.5</ele>
        <time>2021-03-28T08:42:53Z</time>
      </trkpt>
      <trkpt lat="42.82965" lon="2.72072">
        <ele>193.5</ele>
        <time>2021-03-28T08:42:53Z</time>
      </trkpt>
      <trkpt lat="42.8296" lon="2.72063">
        <ele>193.7</ele>
        <time>2021-03-28T08:42:55Z</time>
      </trkpt>
      <trkpt lat="42.8296" lon="2.72063">
        <ele>193.7</ele>
        <time>2021-03-28T08:42:55Z</time>
      </trkpt>
      <trkpt lat="42.82956" lon="2.72054">
        <ele>193.9</ele>
        <time>2021-03-28T08:42:57Z</time>
      </trkpt>
      <trkpt lat="42.82956" lon="2.72054">
        <ele>193.9</ele>
        <time>2021-03-28T08:42:57Z</time>
      </trkpt>
      <trkpt lat="42.8295" lon="2.72045">
        <ele>193.8</ele>
        <time>2021-03-28T08:42:59Z</time>
      </trkpt>
      <trkpt lat="42.8295" lon="2.72045">
        <ele>193.8</ele>
        <time>2021-03-28T08:42:59Z</time>
      </trkpt>
      <trkpt lat="42.82946" lon="2.72037">
        <ele>193.8</ele>
        <time>2021-03-28T08:43:00Z</time>
      </trkpt>
      <trkpt lat="42.82946" lon="2.72037">
        <ele>193.8</ele>
        <time>2021-03-28T08:43:00Z</time>
      </trkpt>
      <trkpt lat="42.82942" lon="2.72031">
        <ele>194.1</ele>
        <time>2021-03-28T08:43:01Z</time>
      </trkpt>
      <trkpt lat="42.82942" lon="2.72031">
        <ele>194.1</ele>
        <time>2021-03-28T08:43:01Z</time>
      </trkpt>
      <trkpt lat="42.82939" lon="2.72025">
        <ele>194.6</ele>
        <time>2021-03-28T08:43:02Z</time>
      </trkpt>
      <trkpt lat="42.82939" lon="2.72025">
        <ele>194.6</ele>
        <time>2021-03-28T08:43:02Z</time>
      </trkpt>
      <trkpt lat="42.82935" lon="2.72019">
        <ele>195.1</ele>
        <time>2021-03-28T08:43:03Z</time>
      </trkpt>
      <trkpt lat="42.82935" lon="2.72019">
        <ele>195.1</ele>
        <time>2021-03-28T08:43:03Z</time>
      </trkpt>
      <trkpt lat="42.82932" lon="2.72013">
        <ele>195.5</ele>
        <time>2021-03-28T08:43:04Z</time>
      </trkpt>
      <trkpt lat="42.82932" lon="2.72013">
        <ele>195.5</ele>
        <time>2021-03-28T08:43:04Z</time>
      </trkpt>
      <trkpt lat="42.82928" lon="2.72006">
        <ele>195.8</ele>
        <time>2021-03-28T08:43:06Z</time>
      </trkpt>
      <trkpt lat="42.82928" lon="2.72006">
        <ele>195.8</ele>
        <time>2021-03-28T08:43:06Z</time>
      </trkpt>
      <trkpt lat="42.82925" lon="2.72">
        <ele>196</ele>
        <time>2021-03-28T08:43:07Z</time>
      </trkpt>
      <trkpt lat="42.82925" lon="2.72">
        <ele>196</ele>
        <time>2021-03-28T08:43:07Z</time>
      </trkpt>
      <trkpt lat="42.82922" lon="2.71993">
        <ele>195.8</ele>
        <time>2021-03-28T08:43:08Z</time>
      </trkpt>
      <trkpt lat="42.82922" lon="2.71993">
        <ele>195.8</ele>
        <time>2021-03-28T08:43:08Z</time>
      </trkpt>
      <trkpt lat="42.82919" lon="2.71987">
        <ele>195.6</ele>
        <time>2021-03-28T08:43:09Z</time>
      </trkpt>
      <trkpt lat="42.82919" lon="2.71987">
        <ele>195.6</ele>
        <time>2021-03-28T08:43:09Z</time>
      </trkpt>
      <trkpt lat="42.82917" lon="2.71981">
        <ele>195.3</ele>
        <time>2021-03-28T08:43:10Z</time>
      </trkpt>
      <trkpt lat="42.82917" lon="2.71981">
        <ele>195.3</ele>
        <time>2021-03-28T08:43:10Z</time>
      </trkpt>
      <trkpt lat="42.82914" lon="2.71976">
        <ele>195.2</ele>
        <time>2021-03-28T08:43:11Z</time>
      </trkpt>
      <trkpt lat="42.82914" lon="2.71976">
        <ele>195.2</ele>
        <time>2021-03-28T08:43:11Z</time>
      </trkpt>
      <trkpt lat="42.82912" lon="2.71967">
        <ele>195</ele>
        <time>2021-03-28T08:43:13Z</time>
      </trkpt>
      <trkpt lat="42.82912" lon="2.71967">
        <ele>195</ele>
        <time>2021-03-28T08:43:13Z</time>
      </trkpt>
      <trkpt lat="42.82909" lon="2.71959">
        <ele>194.7</ele>
        <time>2021-03-28T08:43:14Z</time>
      </trkpt>
      <trkpt lat="42.82909" lon="2.71959">
        <ele>194.7</ele>
        <time>2021-03-28T08:43:14Z</time>
      </trkpt>
      <trkpt lat="42.82906" lon="2.71949">
        <ele>194.2</ele>
        <time>2021-03-28T08:43:16Z</time>
      </trkpt>
      <trkpt lat="42.82906" lon="2.71949">
        <ele>194.2</ele>
        <time>2021-03-28T08:43:16Z</time>
      </trkpt>
      <trkpt lat="42.82903" lon="2.7194">
        <ele>193.9</ele>
        <time>2021-03-28T08:43:17Z</time>
      </trkpt>
      <trkpt lat="42.82903" lon="2.7194">
        <ele>193.9</ele>
        <time>2021-03-28T08:43:17Z</time>
      </trkpt>
      <trkpt lat="42.82899" lon="2.71927">
        <ele>193.6</ele>
        <time>2021-03-28T08:43:19Z</time>
      </trkpt>
      <trkpt lat="42.82899" lon="2.71927">
        <ele>193.6</ele>
        <time>2021-03-28T08:43:19Z</time>
      </trkpt>
      <trkpt lat="42.82896" lon="2.71916">
        <ele>193.2</ele>
        <time>2021-03-28T08:43:20Z</time>
      </trkpt>
      <trkpt lat="42.82896" lon="2.71916">
        <ele>193.2</ele>
        <time>2021-03-28T08:43:20Z</time>
      </trkpt>
      <trkpt lat="42.82892" lon="2.71903">
        <ele>192.6</ele>
        <time>2021-03-28T08:43:22Z</time>
      </trkpt>
      <trkpt lat="42.82892" lon="2.71903">
        <ele>192.6</ele>
        <time>2021-03-28T08:43:22Z</time>
      </trkpt>
      <trkpt lat="42.82888" lon="2.7189">
        <ele>192.1</ele>
        <time>2021-03-28T08:43:23Z</time>
      </trkpt>
      <trkpt lat="42.82888" lon="2.7189">
        <ele>192.1</ele>
        <time>2021-03-28T08:43:23Z</time>
      </trkpt>
      <trkpt lat="42.82885" lon="2.71879">
        <ele>191.8</ele>
        <time>2021-03-28T08:43:24Z</time>
      </trkpt>
      <trkpt lat="42.82885" lon="2.71879">
        <ele>191.8</ele>
        <time>2021-03-28T08:43:24Z</time>
      </trkpt>
      <trkpt lat="42.82883" lon="2.71868">
        <ele>191.5</ele>
        <time>2021-03-28T08:43:25Z</time>
      </trkpt>
      <trkpt lat="42.82883" lon="2.71868">
        <ele>191.5</ele>
        <time>2021-03-28T08:43:25Z</time>
      </trkpt>
      <trkpt lat="42.82879" lon="2.71855">
        <ele>191.1</ele>
        <time>2021-03-28T08:43:27Z</time>
      </trkpt>
      <trkpt lat="42.82879" lon="2.71855">
        <ele>191.1</ele>
        <time>2021-03-28T08:43:27Z</time>
      </trkpt>
      <trkpt lat="42.82875" lon="2.71843">
        <ele>190.8</ele>
        <time>2021-03-28T08:43:28Z</time>
      </trkpt>
      <trkpt lat="42.82875" lon="2.71843">
        <ele>190.8</ele>
        <time>2021-03-28T08:43:28Z</time>
      </trkpt>
      <trkpt lat="42.82872" lon="2.71831">
        <ele>190.6</ele>
        <time>2021-03-28T08:43:29Z</time>
      </trkpt>
      <trkpt lat="42.82872" lon="2.71831">
        <ele>190.6</ele>
        <time>2021-03-28T08:43:29Z</time>
      </trkpt>
      <trkpt lat="42.82868" lon="2.71816">
        <ele>190.3</ele>
        <time>2021-03-28T08:43:31Z</time>
      </trkpt>
      <trkpt lat="42.82868" lon="2.71816">
        <ele>190.3</ele>
        <time>2021-03-28T08:43:31Z</time>
      </trkpt>
      <trkpt lat="42.82863" lon="2.718">
        <ele>189.6</ele>
        <time>2021-03-28T08:43:33Z</time>
      </trkpt>
      <trkpt lat="42.82863" lon="2.718">
        <ele>189.6</ele>
        <time>2021-03-28T08:43:33Z</time>
      </trkpt>
      <trkpt lat="42.82858" lon="2.71783">
        <ele>188.7</ele>
        <time>2021-03-28T08:43:35Z</time>
      </trkpt>
      <trkpt lat="42.82858" lon="2.71783">
        <ele>188.7</ele>
        <time>2021-03-28T08:43:35Z</time>
      </trkpt>
      <trkpt lat="42.82852" lon="2.71764">
        <ele>187.4</ele>
        <time>2021-03-28T08:43:37Z</time>
      </trkpt>
      <trkpt lat="42.82852" lon="2.71764">
        <ele>187.4</ele>
        <time>2021-03-28T08:43:37Z</time>
      </trkpt>
      <trkpt lat="42.82847" lon="2.71748">
        <ele>186.3</ele>
        <time>2021-03-28T08:43:38Z</time>
      </trkpt>
      <trkpt lat="42.82847" lon="2.71748">
        <ele>186.3</ele>
        <time>2021-03-28T08:43:38Z</time>
      </trkpt>
      <trkpt lat="42.82841" lon="2.71731">
        <ele>185.7</ele>
        <time>2021-03-28T08:43:40Z</time>
      </trkpt>
      <trkpt lat="42.82841" lon="2.71731">
        <ele>185.7</ele>
        <time>2021-03-28T08:43:40Z</time>
      </trkpt>
      <trkpt lat="42.82833" lon="2.71714">
        <ele>184.8</ele>
        <time>2021-03-28T08:43:42Z</time>
      </trkpt>
      <trkpt lat="42.82833" lon="2.71714">
        <ele>184.8</ele>
        <time>2021-03-28T08:43:42Z</time>
      </trkpt>
      <trkpt lat="42.82826" lon="2.717">
        <ele>184.5</ele>
        <time>2021-03-28T08:43:43Z</time>
      </trkpt>
      <trkpt lat="42.82826" lon="2.717">
        <ele>184.5</ele>
        <time>2021-03-28T08:43:43Z</time>
      </trkpt>
      <trkpt lat="42.82817" lon="2.71684">
        <ele>184.5</ele>
        <time>2021-03-28T08:43:45Z</time>
      </trkpt>
      <trkpt lat="42.82817" lon="2.71684">
        <ele>184.5</ele>
        <time>2021-03-28T08:43:45Z</time>
      </trkpt>
      <trkpt lat="42.82807" lon="2.71668">
        <ele>182.3</ele>
        <time>2021-03-28T08:43:47Z</time>
      </trkpt>
      <trkpt lat="42.82807" lon="2.71668">
        <ele>182.3</ele>
        <time>2021-03-28T08:43:47Z</time>
      </trkpt>
      <trkpt lat="42.82795" lon="2.71654">
        <ele>184.1</ele>
        <time>2021-03-28T08:43:49Z</time>
      </trkpt>
      <trkpt lat="42.82795" lon="2.71654">
        <ele>184.1</ele>
        <time>2021-03-28T08:43:49Z</time>
      </trkpt>
      <trkpt lat="42.82784" lon="2.71643">
        <ele>183.6</ele>
        <time>2021-03-28T08:43:50Z</time>
      </trkpt>
      <trkpt lat="42.82784" lon="2.71643">
        <ele>183.6</ele>
        <time>2021-03-28T08:43:50Z</time>
      </trkpt>
      <trkpt lat="42.82773" lon="2.71634">
        <ele>182.6</ele>
        <time>2021-03-28T08:43:51Z</time>
      </trkpt>
      <trkpt lat="42.82773" lon="2.71634">
        <ele>182.6</ele>
        <time>2021-03-28T08:43:51Z</time>
      </trkpt>
      <trkpt lat="42.82761" lon="2.71626">
        <ele>182</ele>
        <time>2021-03-28T08:43:53Z</time>
      </trkpt>
      <trkpt lat="42.82761" lon="2.71626">
        <ele>182</ele>
        <time>2021-03-28T08:43:53Z</time>
      </trkpt>
      <trkpt lat="42.82746" lon="2.71619">
        <ele>180.6</ele>
        <time>2021-03-28T08:43:55Z</time>
      </trkpt>
      <trkpt lat="42.82746" lon="2.71619">
        <ele>180.6</ele>
        <time>2021-03-28T08:43:55Z</time>
      </trkpt>
      <trkpt lat="42.82734" lon="2.71614">
        <ele>178.4</ele>
        <time>2021-03-28T08:43:56Z</time>
      </trkpt>
      <trkpt lat="42.82734" lon="2.71614">
        <ele>178.4</ele>
        <time>2021-03-28T08:43:56Z</time>
      </trkpt>
      <trkpt lat="42.8272" lon="2.71609">
        <ele>176.8</ele>
        <time>2021-03-28T08:43:58Z</time>
      </trkpt>
      <trkpt lat="42.8272" lon="2.71609">
        <ele>176.8</ele>
        <time>2021-03-28T08:43:58Z</time>
      </trkpt>
      <trkpt lat="42.82704" lon="2.71605">
        <ele>176</ele>
        <time>2021-03-28T08:44:00Z</time>
      </trkpt>
      <trkpt lat="42.82704" lon="2.71605">
        <ele>176</ele>
        <time>2021-03-28T08:44:00Z</time>
      </trkpt>
      <trkpt lat="42.82687" lon="2.71601">
        <ele>175.4</ele>
        <time>2021-03-28T08:44:02Z</time>
      </trkpt>
      <trkpt lat="42.82687" lon="2.71601">
        <ele>175.4</ele>
        <time>2021-03-28T08:44:02Z</time>
      </trkpt>
      <trkpt lat="42.82673" lon="2.71596">
        <ele>175.3</ele>
        <time>2021-03-28T08:44:03Z</time>
      </trkpt>
      <trkpt lat="42.82673" lon="2.71596">
        <ele>175.3</ele>
        <time>2021-03-28T08:44:03Z</time>
      </trkpt>
      <trkpt lat="42.8266" lon="2.71592">
        <ele>174.8</ele>
        <time>2021-03-28T08:44:04Z</time>
      </trkpt>
      <trkpt lat="42.8266" lon="2.71592">
        <ele>174.8</ele>
        <time>2021-03-28T08:44:04Z</time>
      </trkpt>
      <trkpt lat="42.82647" lon="2.71585">
        <ele>173</ele>
        <time>2021-03-28T08:44:06Z</time>
      </trkpt>
      <trkpt lat="42.82647" lon="2.71585">
        <ele>173</ele>
        <time>2021-03-28T08:44:06Z</time>
      </trkpt>
      <trkpt lat="42.82632" lon="2.71576">
        <ele>172.2</ele>
        <time>2021-03-28T08:44:08Z</time>
      </trkpt>
      <trkpt lat="42.82632" lon="2.71576">
        <ele>172.2</ele>
        <time>2021-03-28T08:44:08Z</time>
      </trkpt>
      <trkpt lat="42.82617" lon="2.71566">
        <ele>171.6</ele>
        <time>2021-03-28T08:44:10Z</time>
      </trkpt>
      <trkpt lat="42.82617" lon="2.71566">
        <ele>171.6</ele>
        <time>2021-03-28T08:44:10Z</time>
      </trkpt>
      <trkpt lat="42.82605" lon="2.71555">
        <ele>169.8</ele>
        <time>2021-03-28T08:44:11Z</time>
      </trkpt>
      <trkpt lat="42.82605" lon="2.71555">
        <ele>169.8</ele>
        <time>2021-03-28T08:44:11Z</time>
      </trkpt>
      <trkpt lat="42.82594" lon="2.71541">
        <ele>169.6</ele>
        <time>2021-03-28T08:44:13Z</time>
      </trkpt>
      <trkpt lat="42.82594" lon="2.71541">
        <ele>169.6</ele>
        <time>2021-03-28T08:44:13Z</time>
      </trkpt>
      <trkpt lat="42.82585" lon="2.71528">
        <ele>169.1</ele>
        <time>2021-03-28T08:44:14Z</time>
      </trkpt>
      <trkpt lat="42.82585" lon="2.71528">
        <ele>169.1</ele>
        <time>2021-03-28T08:44:14Z</time>
      </trkpt>
      <trkpt lat="42.82574" lon="2.71513">
        <ele>167.8</ele>
        <time>2021-03-28T08:44:16Z</time>
      </trkpt>
      <trkpt lat="42.82574" lon="2.71513">
        <ele>167.8</ele>
        <time>2021-03-28T08:44:16Z</time>
      </trkpt>
      <trkpt lat="42.82565" lon="2.715">
        <ele>166.7</ele>
        <time>2021-03-28T08:44:17Z</time>
      </trkpt>
      <trkpt lat="42.82565" lon="2.715">
        <ele>166.7</ele>
        <time>2021-03-28T08:44:17Z</time>
      </trkpt>
      <trkpt lat="42.82554" lon="2.71485">
        <ele>167.1</ele>
        <time>2021-03-28T08:44:19Z</time>
      </trkpt>
      <trkpt lat="42.82554" lon="2.71485">
        <ele>167.1</ele>
        <time>2021-03-28T08:44:19Z</time>
      </trkpt>
      <trkpt lat="42.82545" lon="2.71472">
        <ele>166.9</ele>
        <time>2021-03-28T08:44:20Z</time>
      </trkpt>
      <trkpt lat="42.82545" lon="2.71472">
        <ele>166.9</ele>
        <time>2021-03-28T08:44:20Z</time>
      </trkpt>
      <trkpt lat="42.82538" lon="2.7146">
        <ele>167</ele>
        <time>2021-03-28T08:44:21Z</time>
      </trkpt>
      <trkpt lat="42.82538" lon="2.7146">
        <ele>167</ele>
        <time>2021-03-28T08:44:21Z</time>
      </trkpt>
      <trkpt lat="42.82531" lon="2.71445">
        <ele>166.6</ele>
        <time>2021-03-28T08:44:23Z</time>
      </trkpt>
      <trkpt lat="42.82531" lon="2.71445">
        <ele>166.6</ele>
        <time>2021-03-28T08:44:23Z</time>
      </trkpt>
      <trkpt lat="42.82523" lon="2.71427">
        <ele>166</ele>
        <time>2021-03-28T08:44:25Z</time>
      </trkpt>
      <trkpt lat="42.82523" lon="2.71427">
        <ele>166</ele>
        <time>2021-03-28T08:44:25Z</time>
      </trkpt>
      <trkpt lat="42.82517" lon="2.71411">
        <ele>165.2</ele>
        <time>2021-03-28T08:44:26Z</time>
      </trkpt>
      <trkpt lat="42.82517" lon="2.71411">
        <ele>165.2</ele>
        <time>2021-03-28T08:44:26Z</time>
      </trkpt>
      <trkpt lat="42.82509" lon="2.71395">
        <ele>163.8</ele>
        <time>2021-03-28T08:44:28Z</time>
      </trkpt>
      <trkpt lat="42.82509" lon="2.71395">
        <ele>163.8</ele>
        <time>2021-03-28T08:44:28Z</time>
      </trkpt>
      <trkpt lat="42.82498" lon="2.71381">
        <ele>162.7</ele>
        <time>2021-03-28T08:44:30Z</time>
      </trkpt>
      <trkpt lat="42.82498" lon="2.71381">
        <ele>162.7</ele>
        <time>2021-03-28T08:44:30Z</time>
      </trkpt>
      <trkpt lat="42.82485" lon="2.7137">
        <ele>162.6</ele>
        <time>2021-03-28T08:44:32Z</time>
      </trkpt>
      <trkpt lat="42.82485" lon="2.7137">
        <ele>162.6</ele>
        <time>2021-03-28T08:44:32Z</time>
      </trkpt>
      <trkpt lat="42.82472" lon="2.71361">
        <ele>160.1</ele>
        <time>2021-03-28T08:44:34Z</time>
      </trkpt>
      <trkpt lat="42.82472" lon="2.71361">
        <ele>160.1</ele>
        <time>2021-03-28T08:44:34Z</time>
      </trkpt>
      <trkpt lat="42.82459" lon="2.71352">
        <ele>163.2</ele>
        <time>2021-03-28T08:44:36Z</time>
      </trkpt>
      <trkpt lat="42.82459" lon="2.71352">
        <ele>163.2</ele>
        <time>2021-03-28T08:44:36Z</time>
      </trkpt>
      <trkpt lat="42.82447" lon="2.71341">
        <ele>166.9</ele>
        <time>2021-03-28T08:44:38Z</time>
      </trkpt>
      <trkpt lat="42.82447" lon="2.71341">
        <ele>166.9</ele>
        <time>2021-03-28T08:44:38Z</time>
      </trkpt>
      <trkpt lat="42.82434" lon="2.7133">
        <ele>166.1</ele>
        <time>2021-03-28T08:44:40Z</time>
      </trkpt>
      <trkpt lat="42.82434" lon="2.7133">
        <ele>166.1</ele>
        <time>2021-03-28T08:44:40Z</time>
      </trkpt>
      <trkpt lat="42.82423" lon="2.71322">
        <ele>162.9</ele>
        <time>2021-03-28T08:44:41Z</time>
      </trkpt>
      <trkpt lat="42.82423" lon="2.71322">
        <ele>162.9</ele>
        <time>2021-03-28T08:44:41Z</time>
      </trkpt>
      <trkpt lat="42.8241" lon="2.71316">
        <ele>160.9</ele>
        <time>2021-03-28T08:44:43Z</time>
      </trkpt>
      <trkpt lat="42.8241" lon="2.71316">
        <ele>160.9</ele>
        <time>2021-03-28T08:44:43Z</time>
      </trkpt>
      <trkpt lat="42.82396" lon="2.71312">
        <ele>160.5</ele>
        <time>2021-03-28T08:44:45Z</time>
      </trkpt>
      <trkpt lat="42.82396" lon="2.71312">
        <ele>160.5</ele>
        <time>2021-03-28T08:44:45Z</time>
      </trkpt>
      <trkpt lat="42.82383" lon="2.7131">
        <ele>159.4</ele>
        <time>2021-03-28T08:44:47Z</time>
      </trkpt>
      <trkpt lat="42.82383" lon="2.7131">
        <ele>159.4</ele>
        <time>2021-03-28T08:44:47Z</time>
      </trkpt>
      <trkpt lat="42.8237" lon="2.7131">
        <ele>158.5</ele>
        <time>2021-03-28T08:44:49Z</time>
      </trkpt>
      <trkpt lat="42.8237" lon="2.7131">
        <ele>158.5</ele>
        <time>2021-03-28T08:44:49Z</time>
      </trkpt>
      <trkpt lat="42.82359" lon="2.7131">
        <ele>158</ele>
        <time>2021-03-28T08:44:50Z</time>
      </trkpt>
      <trkpt lat="42.82359" lon="2.7131">
        <ele>158</ele>
        <time>2021-03-28T08:44:50Z</time>
      </trkpt>
      <trkpt lat="42.82348" lon="2.71309">
        <ele>157.8</ele>
        <time>2021-03-28T08:44:52Z</time>
      </trkpt>
      <trkpt lat="42.82348" lon="2.71309">
        <ele>157.8</ele>
        <time>2021-03-28T08:44:52Z</time>
      </trkpt>
      <trkpt lat="42.82337" lon="2.71309">
        <ele>157.7</ele>
        <time>2021-03-28T08:44:54Z</time>
      </trkpt>
      <trkpt lat="42.82337" lon="2.71309">
        <ele>157.7</ele>
        <time>2021-03-28T08:44:54Z</time>
      </trkpt>
      <trkpt lat="42.82327" lon="2.71308">
        <ele>157.5</ele>
        <time>2021-03-28T08:44:56Z</time>
      </trkpt>
      <trkpt lat="42.82327" lon="2.71308">
        <ele>157.5</ele>
        <time>2021-03-28T08:44:56Z</time>
      </trkpt>
      <trkpt lat="42.82319" lon="2.71308">
        <ele>157.2</ele>
        <time>2021-03-28T08:44:57Z</time>
      </trkpt>
      <trkpt lat="42.82319" lon="2.71308">
        <ele>157.2</ele>
        <time>2021-03-28T08:44:57Z</time>
      </trkpt>
      <trkpt lat="42.82311" lon="2.71307">
        <ele>157.1</ele>
        <time>2021-03-28T08:44:59Z</time>
      </trkpt>
      <trkpt lat="42.82311" lon="2.71307">
        <ele>157.1</ele>
        <time>2021-03-28T08:44:59Z</time>
      </trkpt>
      <trkpt lat="42.82306" lon="2.71306">
        <ele>157</ele>
        <time>2021-03-28T08:45:00Z</time>
      </trkpt>
      <trkpt lat="42.82306" lon="2.71306">
        <ele>157</ele>
        <time>2021-03-28T08:45:00Z</time>
      </trkpt>
      <trkpt lat="42.82301" lon="2.71305">
        <ele>157.1</ele>
        <time>2021-03-28T08:45:01Z</time>
      </trkpt>
      <trkpt lat="42.82301" lon="2.71305">
        <ele>157.1</ele>
        <time>2021-03-28T08:45:01Z</time>
      </trkpt>
      <trkpt lat="42.82296" lon="2.71304">
        <ele>157.4</ele>
        <time>2021-03-28T08:45:03Z</time>
      </trkpt>
      <trkpt lat="42.82296" lon="2.71304">
        <ele>157.4</ele>
        <time>2021-03-28T08:45:03Z</time>
      </trkpt>
      <trkpt lat="42.82293" lon="2.71303">
        <ele>157.6</ele>
        <time>2021-03-28T08:45:04Z</time>
      </trkpt>
      <trkpt lat="42.82293" lon="2.71303">
        <ele>157.6</ele>
        <time>2021-03-28T08:45:04Z</time>
      </trkpt>
      <trkpt lat="42.8229" lon="2.71302">
        <ele>157.7</ele>
        <time>2021-03-28T08:45:05Z</time>
      </trkpt>
      <trkpt lat="42.8229" lon="2.71302">
        <ele>157.7</ele>
        <time>2021-03-28T08:45:05Z</time>
      </trkpt>
      <trkpt lat="42.82288" lon="2.71301">
        <ele>157.8</ele>
        <time>2021-03-28T08:45:06Z</time>
      </trkpt>
      <trkpt lat="42.82288" lon="2.71301">
        <ele>157.8</ele>
        <time>2021-03-28T08:45:06Z</time>
      </trkpt>
      <trkpt lat="42.82286" lon="2.713">
        <ele>157.9</ele>
        <time>2021-03-28T08:45:08Z</time>
      </trkpt>
      <trkpt lat="42.82286" lon="2.713">
        <ele>157.9</ele>
        <time>2021-03-28T08:45:08Z</time>
      </trkpt>
      <trkpt lat="42.82284" lon="2.713">
        <ele>157.9</ele>
        <time>2021-03-28T08:45:10Z</time>
      </trkpt>
      <trkpt lat="42.82284" lon="2.713">
        <ele>157.9</ele>
        <time>2021-03-28T08:45:10Z</time>
      </trkpt>
      <trkpt lat="42.82284" lon="2.71299">
        <ele>157.9</ele>
        <time>2021-03-28T08:45:12Z</time>
      </trkpt>
      <trkpt lat="42.82284" lon="2.71299">
        <ele>157.9</ele>
        <time>2021-03-28T08:45:12Z</time>
      </trkpt>
      <trkpt lat="42.82281" lon="2.71299">
        <ele>157.9</ele>
        <time>2021-03-28T08:45:15Z</time>
      </trkpt>
      <trkpt lat="42.82281" lon="2.71299">
        <ele>157.9</ele>
        <time>2021-03-28T08:45:15Z</time>
      </trkpt>
      <trkpt lat="42.82279" lon="2.71298">
        <ele>157.9</ele>
        <time>2021-03-28T08:45:19Z</time>
      </trkpt>
      <trkpt lat="42.82279" lon="2.71298">
        <ele>157.9</ele>
        <time>2021-03-28T08:45:19Z</time>
      </trkpt>
      <trkpt lat="42.82279" lon="2.71298">
        <ele>157.9</ele>
        <time>2021-03-28T08:45:20Z</time>
      </trkpt>
      <trkpt lat="42.82279" lon="2.71298">
        <ele>157.9</ele>
        <time>2021-03-28T08:45:20Z</time>
      </trkpt>
      <trkpt lat="42.82279" lon="2.71297">
        <ele>157.9</ele>
        <time>2021-03-28T08:45:21Z</time>
      </trkpt>
      <trkpt lat="42.82279" lon="2.71297">
        <ele>157.9</ele>
        <time>2021-03-28T08:45:21Z</time>
      </trkpt>
      <trkpt lat="42.82278" lon="2.71297">
        <ele>157.9</ele>
        <time>2021-03-28T08:45:23Z</time>
      </trkpt>
      <trkpt lat="42.82278" lon="2.71297">
        <ele>157.9</ele>
        <time>2021-03-28T08:45:23Z</time>
      </trkpt>
      <trkpt lat="42.82277" lon="2.71297">
        <ele>157.9</ele>
        <time>2021-03-28T08:45:24Z</time>
      </trkpt>
      <trkpt lat="42.82277" lon="2.71297">
        <ele>157.9</ele>
        <time>2021-03-28T08:45:24Z</time>
      </trkpt>
      <trkpt lat="42.82276" lon="2.71297">
        <ele>158</ele>
        <time>2021-03-28T08:45:26Z</time>
      </trkpt>
      <trkpt lat="42.82276" lon="2.71297">
        <ele>158</ele>
        <time>2021-03-28T08:45:26Z</time>
      </trkpt>
      <trkpt lat="42.82273" lon="2.71295">
        <ele>158.1</ele>
        <time>2021-03-28T08:45:30Z</time>
      </trkpt>
      <trkpt lat="42.82273" lon="2.71295">
        <ele>158.1</ele>
        <time>2021-03-28T08:45:30Z</time>
      </trkpt>
      <trkpt lat="42.82273" lon="2.71295">
        <ele>158.1</ele>
        <time>2021-03-28T08:45:31Z</time>
      </trkpt>
      <trkpt lat="42.82273" lon="2.71295">
        <ele>158.1</ele>
        <time>2021-03-28T08:45:31Z</time>
      </trkpt>
      <trkpt lat="42.82272" lon="2.71295">
        <ele>158.1</ele>
        <time>2021-03-28T08:45:32Z</time>
      </trkpt>
      <trkpt lat="42.82272" lon="2.71295">
        <ele>158.1</ele>
        <time>2021-03-28T08:45:32Z</time>
      </trkpt>
      <trkpt lat="42.82271" lon="2.71294">
        <ele>158.1</ele>
        <time>2021-03-28T08:45:34Z</time>
      </trkpt>
      <trkpt lat="42.82271" lon="2.71294">
        <ele>158.1</ele>
        <time>2021-03-28T08:45:34Z</time>
      </trkpt>
      <trkpt lat="42.82271" lon="2.71294">
        <ele>158.1</ele>
        <time>2021-03-28T08:45:36Z</time>
      </trkpt>
      <trkpt lat="42.82271" lon="2.71294">
        <ele>158.1</ele>
        <time>2021-03-28T08:45:36Z</time>
      </trkpt>
      <trkpt lat="42.82258" lon="2.71327">
        <ele>155.4</ele>
        <time>2021-03-28T08:47:37Z</time>
      </trkpt>
      <trkpt lat="42.82258" lon="2.71327">
        <ele>155.4</ele>
        <time>2021-03-28T08:47:37Z</time>
      </trkpt>
      <trkpt lat="42.82258" lon="2.71328">
        <ele>155.4</ele>
        <time>2021-03-28T08:47:38Z</time>
      </trkpt>
      <trkpt lat="42.82258" lon="2.71328">
        <ele>155.4</ele>
        <time>2021-03-28T08:47:38Z</time>
      </trkpt>
      <trkpt lat="42.82258" lon="2.71332">
        <ele>155.1</ele>
        <time>2021-03-28T08:47:40Z</time>
      </trkpt>
      <trkpt lat="42.82258" lon="2.71332">
        <ele>155.1</ele>
        <time>2021-03-28T08:47:40Z</time>
      </trkpt>
      <trkpt lat="42.82258" lon="2.71339">
        <ele>154.4</ele>
        <time>2021-03-28T08:47:42Z</time>
      </trkpt>
      <trkpt lat="42.82258" lon="2.71339">
        <ele>154.4</ele>
        <time>2021-03-28T08:47:42Z</time>
      </trkpt>
      <trkpt lat="42.82258" lon="2.71348">
        <ele>153.4</ele>
        <time>2021-03-28T08:47:44Z</time>
      </trkpt>
      <trkpt lat="42.82258" lon="2.71348">
        <ele>153.4</ele>
        <time>2021-03-28T08:47:44Z</time>
      </trkpt>
      <trkpt lat="42.82258" lon="2.71359">
        <ele>152.2</ele>
        <time>2021-03-28T08:47:46Z</time>
      </trkpt>
      <trkpt lat="42.82258" lon="2.71359">
        <ele>152.2</ele>
        <time>2021-03-28T08:47:46Z</time>
      </trkpt>
      <trkpt lat="42.82258" lon="2.71369">
        <ele>152.2</ele>
        <time>2021-03-28T08:47:47Z</time>
      </trkpt>
      <trkpt lat="42.82258" lon="2.71369">
        <ele>152.2</ele>
        <time>2021-03-28T08:47:47Z</time>
      </trkpt>
      <trkpt lat="42.82258" lon="2.71382">
        <ele>152.4</ele>
        <time>2021-03-28T08:47:49Z</time>
      </trkpt>
      <trkpt lat="42.82258" lon="2.71382">
        <ele>152.4</ele>
        <time>2021-03-28T08:47:49Z</time>
      </trkpt>
      <trkpt lat="42.82259" lon="2.71395">
        <ele>152.7</ele>
        <time>2021-03-28T08:47:50Z</time>
      </trkpt>
      <trkpt lat="42.82259" lon="2.71395">
        <ele>152.7</ele>
        <time>2021-03-28T08:47:50Z</time>
      </trkpt>
      <trkpt lat="42.82259" lon="2.71406">
        <ele>152.9</ele>
        <time>2021-03-28T08:47:51Z</time>
      </trkpt>
      <trkpt lat="42.82259" lon="2.71406">
        <ele>152.9</ele>
        <time>2021-03-28T08:47:51Z</time>
      </trkpt>
      <trkpt lat="42.8226" lon="2.71418">
        <ele>153</ele>
        <time>2021-03-28T08:47:53Z</time>
      </trkpt>
      <trkpt lat="42.8226" lon="2.71418">
        <ele>153</ele>
        <time>2021-03-28T08:47:53Z</time>
      </trkpt>
      <trkpt lat="42.82261" lon="2.71432">
        <ele>153.1</ele>
        <time>2021-03-28T08:47:55Z</time>
      </trkpt>
      <trkpt lat="42.82261" lon="2.71432">
        <ele>153.1</ele>
        <time>2021-03-28T08:47:55Z</time>
      </trkpt>
      <trkpt lat="42.82261" lon="2.71444">
        <ele>153.2</ele>
        <time>2021-03-28T08:47:56Z</time>
      </trkpt>
      <trkpt lat="42.82261" lon="2.71444">
        <ele>153.2</ele>
        <time>2021-03-28T08:47:56Z</time>
      </trkpt>
      <trkpt lat="42.82262" lon="2.71457">
        <ele>153.8</ele>
        <time>2021-03-28T08:47:58Z</time>
      </trkpt>
      <trkpt lat="42.82262" lon="2.71457">
        <ele>153.8</ele>
        <time>2021-03-28T08:47:58Z</time>
      </trkpt>
      <trkpt lat="42.82263" lon="2.71467">
        <ele>154.2</ele>
        <time>2021-03-28T08:47:59Z</time>
      </trkpt>
      <trkpt lat="42.82263" lon="2.71467">
        <ele>154.2</ele>
        <time>2021-03-28T08:47:59Z</time>
      </trkpt>
      <trkpt lat="42.82264" lon="2.71479">
        <ele>154.8</ele>
        <time>2021-03-28T08:48:01Z</time>
      </trkpt>
      <trkpt lat="42.82264" lon="2.71479">
        <ele>154.8</ele>
        <time>2021-03-28T08:48:01Z</time>
      </trkpt>
      <trkpt lat="42.82266" lon="2.7149">
        <ele>155.3</ele>
        <time>2021-03-28T08:48:03Z</time>
      </trkpt>
      <trkpt lat="42.82266" lon="2.7149">
        <ele>155.3</ele>
        <time>2021-03-28T08:48:03Z</time>
      </trkpt>
      <trkpt lat="42.82267" lon="2.71501">
        <ele>155.9</ele>
        <time>2021-03-28T08:48:05Z</time>
      </trkpt>
      <trkpt lat="42.82267" lon="2.71501">
        <ele>155.9</ele>
        <time>2021-03-28T08:48:05Z</time>
      </trkpt>
      <trkpt lat="42.82269" lon="2.71512">
        <ele>156</ele>
        <time>2021-03-28T08:48:07Z</time>
      </trkpt>
      <trkpt lat="42.82269" lon="2.71512">
        <ele>156</ele>
        <time>2021-03-28T08:48:07Z</time>
      </trkpt>
      <trkpt lat="42.8227" lon="2.71523">
        <ele>156.1</ele>
        <time>2021-03-28T08:48:09Z</time>
      </trkpt>
      <trkpt lat="42.8227" lon="2.71523">
        <ele>156.1</ele>
        <time>2021-03-28T08:48:09Z</time>
      </trkpt>
      <trkpt lat="42.82271" lon="2.71535">
        <ele>156.5</ele>
        <time>2021-03-28T08:48:11Z</time>
      </trkpt>
      <trkpt lat="42.82271" lon="2.71535">
        <ele>156.5</ele>
        <time>2021-03-28T08:48:11Z</time>
      </trkpt>
      <trkpt lat="42.82272" lon="2.71546">
        <ele>157</ele>
        <time>2021-03-28T08:48:13Z</time>
      </trkpt>
      <trkpt lat="42.82272" lon="2.71546">
        <ele>157</ele>
        <time>2021-03-28T08:48:13Z</time>
      </trkpt>
      <trkpt lat="42.82272" lon="2.71558">
        <ele>157.5</ele>
        <time>2021-03-28T08:48:15Z</time>
      </trkpt>
      <trkpt lat="42.82272" lon="2.71558">
        <ele>157.5</ele>
        <time>2021-03-28T08:48:15Z</time>
      </trkpt>
      <trkpt lat="42.82272" lon="2.7157">
        <ele>157.7</ele>
        <time>2021-03-28T08:48:17Z</time>
      </trkpt>
      <trkpt lat="42.82272" lon="2.7157">
        <ele>157.7</ele>
        <time>2021-03-28T08:48:17Z</time>
      </trkpt>
      <trkpt lat="42.82271" lon="2.7158">
        <ele>157.9</ele>
        <time>2021-03-28T08:48:18Z</time>
      </trkpt>
      <trkpt lat="42.82271" lon="2.7158">
        <ele>157.9</ele>
        <time>2021-03-28T08:48:18Z</time>
      </trkpt>
      <trkpt lat="42.82269" lon="2.71591">
        <ele>158</ele>
        <time>2021-03-28T08:48:20Z</time>
      </trkpt>
      <trkpt lat="42.82269" lon="2.71591">
        <ele>158</ele>
        <time>2021-03-28T08:48:20Z</time>
      </trkpt>
      <trkpt lat="42.82266" lon="2.71602">
        <ele>158.2</ele>
        <time>2021-03-28T08:48:22Z</time>
      </trkpt>
      <trkpt lat="42.82266" lon="2.71602">
        <ele>158.2</ele>
        <time>2021-03-28T08:48:22Z</time>
      </trkpt>
      <trkpt lat="42.82264" lon="2.71614">
        <ele>158.5</ele>
        <time>2021-03-28T08:48:24Z</time>
      </trkpt>
      <trkpt lat="42.82264" lon="2.71614">
        <ele>158.5</ele>
        <time>2021-03-28T08:48:24Z</time>
      </trkpt>
      <trkpt lat="42.82262" lon="2.71626">
        <ele>158.4</ele>
        <time>2021-03-28T08:48:26Z</time>
      </trkpt>
      <trkpt lat="42.82262" lon="2.71626">
        <ele>158.4</ele>
        <time>2021-03-28T08:48:26Z</time>
      </trkpt>
      <trkpt lat="42.82261" lon="2.71637">
        <ele>158.4</ele>
        <time>2021-03-28T08:48:27Z</time>
      </trkpt>
      <trkpt lat="42.82261" lon="2.71637">
        <ele>158.4</ele>
        <time>2021-03-28T08:48:27Z</time>
      </trkpt>
      <trkpt lat="42.82259" lon="2.71645">
        <ele>158.5</ele>
        <time>2021-03-28T08:48:28Z</time>
      </trkpt>
      <trkpt lat="42.82259" lon="2.71645">
        <ele>158.5</ele>
        <time>2021-03-28T08:48:28Z</time>
      </trkpt>
      <trkpt lat="42.82259" lon="2.71656">
        <ele>158.7</ele>
        <time>2021-03-28T08:48:30Z</time>
      </trkpt>
      <trkpt lat="42.82259" lon="2.71656">
        <ele>158.7</ele>
        <time>2021-03-28T08:48:30Z</time>
      </trkpt>
      <trkpt lat="42.82258" lon="2.71667">
        <ele>159</ele>
        <time>2021-03-28T08:48:32Z</time>
      </trkpt>
      <trkpt lat="42.82258" lon="2.71667">
        <ele>159</ele>
        <time>2021-03-28T08:48:32Z</time>
      </trkpt>
      <trkpt lat="42.82258" lon="2.71676">
        <ele>159.3</ele>
        <time>2021-03-28T08:48:33Z</time>
      </trkpt>
      <trkpt lat="42.82258" lon="2.71676">
        <ele>159.3</ele>
        <time>2021-03-28T08:48:33Z</time>
      </trkpt>
      <trkpt lat="42.82258" lon="2.71687">
        <ele>159.5</ele>
        <time>2021-03-28T08:48:35Z</time>
      </trkpt>
      <trkpt lat="42.82258" lon="2.71687">
        <ele>159.5</ele>
        <time>2021-03-28T08:48:35Z</time>
      </trkpt>
      <trkpt lat="42.82259" lon="2.71696">
        <ele>159.7</ele>
        <time>2021-03-28T08:48:36Z</time>
      </trkpt>
      <trkpt lat="42.82259" lon="2.71696">
        <ele>159.7</ele>
        <time>2021-03-28T08:48:36Z</time>
      </trkpt>
      <trkpt lat="42.8226" lon="2.71706">
        <ele>159.4</ele>
        <time>2021-03-28T08:48:38Z</time>
      </trkpt>
      <trkpt lat="42.8226" lon="2.71706">
        <ele>159.4</ele>
        <time>2021-03-28T08:48:38Z</time>
      </trkpt>
      <trkpt lat="42.82262" lon="2.71719">
        <ele>159.1</ele>
        <time>2021-03-28T08:48:40Z</time>
      </trkpt>
      <trkpt lat="42.82262" lon="2.71719">
        <ele>159.1</ele>
        <time>2021-03-28T08:48:40Z</time>
      </trkpt>
      <trkpt lat="42.82263" lon="2.7173">
        <ele>158.7</ele>
        <time>2021-03-28T08:48:41Z</time>
      </trkpt>
      <trkpt lat="42.82263" lon="2.7173">
        <ele>158.7</ele>
        <time>2021-03-28T08:48:41Z</time>
      </trkpt>
      <trkpt lat="42.82264" lon="2.71742">
        <ele>158.3</ele>
        <time>2021-03-28T08:48:43Z</time>
      </trkpt>
      <trkpt lat="42.82264" lon="2.71742">
        <ele>158.3</ele>
        <time>2021-03-28T08:48:43Z</time>
      </trkpt>
      <trkpt lat="42.82265" lon="2.71755">
        <ele>157.8</ele>
        <time>2021-03-28T08:48:45Z</time>
      </trkpt>
      <trkpt lat="42.82265" lon="2.71755">
        <ele>157.8</ele>
        <time>2021-03-28T08:48:45Z</time>
      </trkpt>
      <trkpt lat="42.82267" lon="2.71769">
        <ele>157.5</ele>
        <time>2021-03-28T08:48:47Z</time>
      </trkpt>
      <trkpt lat="42.82267" lon="2.71769">
        <ele>157.5</ele>
        <time>2021-03-28T08:48:47Z</time>
      </trkpt>
      <trkpt lat="42.82268" lon="2.71783">
        <ele>157.3</ele>
        <time>2021-03-28T08:48:49Z</time>
      </trkpt>
      <trkpt lat="42.82268" lon="2.71783">
        <ele>157.3</ele>
        <time>2021-03-28T08:48:49Z</time>
      </trkpt>
      <trkpt lat="42.82269" lon="2.71794">
        <ele>157.2</ele>
        <time>2021-03-28T08:48:50Z</time>
      </trkpt>
      <trkpt lat="42.82269" lon="2.71794">
        <ele>157.2</ele>
        <time>2021-03-28T08:48:50Z</time>
      </trkpt>
      <trkpt lat="42.82269" lon="2.71804">
        <ele>157</ele>
        <time>2021-03-28T08:48:51Z</time>
      </trkpt>
      <trkpt lat="42.82269" lon="2.71804">
        <ele>157</ele>
        <time>2021-03-28T08:48:51Z</time>
      </trkpt>
      <trkpt lat="42.82267" lon="2.71815">
        <ele>156.6</ele>
        <time>2021-03-28T08:48:53Z</time>
      </trkpt>
      <trkpt lat="42.82267" lon="2.71815">
        <ele>156.6</ele>
        <time>2021-03-28T08:48:53Z</time>
      </trkpt>
      <trkpt lat="42.82265" lon="2.71828">
        <ele>156.2</ele>
        <time>2021-03-28T08:48:55Z</time>
      </trkpt>
      <trkpt lat="42.82265" lon="2.71828">
        <ele>156.2</ele>
        <time>2021-03-28T08:48:55Z</time>
      </trkpt>
      <trkpt lat="42.82264" lon="2.71838">
        <ele>156.1</ele>
        <time>2021-03-28T08:48:56Z</time>
      </trkpt>
      <trkpt lat="42.82264" lon="2.71838">
        <ele>156.1</ele>
        <time>2021-03-28T08:48:56Z</time>
      </trkpt>
      <trkpt lat="42.82261" lon="2.71851">
        <ele>156</ele>
        <time>2021-03-28T08:48:58Z</time>
      </trkpt>
      <trkpt lat="42.82261" lon="2.71851">
        <ele>156</ele>
        <time>2021-03-28T08:48:58Z</time>
      </trkpt>
      <trkpt lat="42.82258" lon="2.71865">
        <ele>155.7</ele>
        <time>2021-03-28T08:49:00Z</time>
      </trkpt>
      <trkpt lat="42.82258" lon="2.71865">
        <ele>155.7</ele>
        <time>2021-03-28T08:49:00Z</time>
      </trkpt>
      <trkpt lat="42.82255" lon="2.71876">
        <ele>155.1</ele>
        <time>2021-03-28T08:49:01Z</time>
      </trkpt>
      <trkpt lat="42.82255" lon="2.71876">
        <ele>155.1</ele>
        <time>2021-03-28T08:49:01Z</time>
      </trkpt>
      <trkpt lat="42.82251" lon="2.7189">
        <ele>154.2</ele>
        <time>2021-03-28T08:49:03Z</time>
      </trkpt>
      <trkpt lat="42.82251" lon="2.7189">
        <ele>154.2</ele>
        <time>2021-03-28T08:49:03Z</time>
      </trkpt>
      <trkpt lat="42.82248" lon="2.71902">
        <ele>154.4</ele>
        <time>2021-03-28T08:49:04Z</time>
      </trkpt>
      <trkpt lat="42.82248" lon="2.71902">
        <ele>154.4</ele>
        <time>2021-03-28T08:49:04Z</time>
      </trkpt>
      <trkpt lat="42.82244" lon="2.71915">
        <ele>154.5</ele>
        <time>2021-03-28T08:49:06Z</time>
      </trkpt>
      <trkpt lat="42.82244" lon="2.71915">
        <ele>154.5</ele>
        <time>2021-03-28T08:49:06Z</time>
      </trkpt>
      <trkpt lat="42.82241" lon="2.71927">
        <ele>154.2</ele>
        <time>2021-03-28T08:49:07Z</time>
      </trkpt>
      <trkpt lat="42.82241" lon="2.71927">
        <ele>154.2</ele>
        <time>2021-03-28T08:49:07Z</time>
      </trkpt>
      <trkpt lat="42.82236" lon="2.71941">
        <ele>153.5</ele>
        <time>2021-03-28T08:49:09Z</time>
      </trkpt>
      <trkpt lat="42.82236" lon="2.71941">
        <ele>153.5</ele>
        <time>2021-03-28T08:49:09Z</time>
      </trkpt>
      <trkpt lat="42.82232" lon="2.71953">
        <ele>153</ele>
        <time>2021-03-28T08:49:10Z</time>
      </trkpt>
      <trkpt lat="42.82232" lon="2.71953">
        <ele>153</ele>
        <time>2021-03-28T08:49:10Z</time>
      </trkpt>
      <trkpt lat="42.82227" lon="2.71967">
        <ele>152.5</ele>
        <time>2021-03-28T08:49:12Z</time>
      </trkpt>
      <trkpt lat="42.82227" lon="2.71967">
        <ele>152.5</ele>
        <time>2021-03-28T08:49:12Z</time>
      </trkpt>
      <trkpt lat="42.82221" lon="2.71981">
        <ele>151.9</ele>
        <time>2021-03-28T08:49:14Z</time>
      </trkpt>
      <trkpt lat="42.82221" lon="2.71981">
        <ele>151.9</ele>
        <time>2021-03-28T08:49:14Z</time>
      </trkpt>
      <trkpt lat="42.82215" lon="2.71997">
        <ele>151.5</ele>
        <time>2021-03-28T08:49:16Z</time>
      </trkpt>
      <trkpt lat="42.82215" lon="2.71997">
        <ele>151.5</ele>
        <time>2021-03-28T08:49:16Z</time>
      </trkpt>
      <trkpt lat="42.82208" lon="2.72012">
        <ele>151</ele>
        <time>2021-03-28T08:49:18Z</time>
      </trkpt>
      <trkpt lat="42.82208" lon="2.72012">
        <ele>151</ele>
        <time>2021-03-28T08:49:18Z</time>
      </trkpt>
      <trkpt lat="42.82203" lon="2.72026">
        <ele>150.6</ele>
        <time>2021-03-28T08:49:19Z</time>
      </trkpt>
      <trkpt lat="42.82203" lon="2.72026">
        <ele>150.6</ele>
        <time>2021-03-28T08:49:19Z</time>
      </trkpt>
      <trkpt lat="42.82197" lon="2.7204">
        <ele>150.2</ele>
        <time>2021-03-28T08:49:21Z</time>
      </trkpt>
      <trkpt lat="42.82197" lon="2.7204">
        <ele>150.2</ele>
        <time>2021-03-28T08:49:21Z</time>
      </trkpt>
      <trkpt lat="42.8219" lon="2.72056">
        <ele>149.7</ele>
        <time>2021-03-28T08:49:23Z</time>
      </trkpt>
      <trkpt lat="42.8219" lon="2.72056">
        <ele>149.7</ele>
        <time>2021-03-28T08:49:23Z</time>
      </trkpt>
      <trkpt lat="42.82184" lon="2.72072">
        <ele>149.2</ele>
        <time>2021-03-28T08:49:25Z</time>
      </trkpt>
      <trkpt lat="42.82184" lon="2.72072">
        <ele>149.2</ele>
        <time>2021-03-28T08:49:25Z</time>
      </trkpt>
      <trkpt lat="42.82178" lon="2.72086">
        <ele>148.8</ele>
        <time>2021-03-28T08:49:26Z</time>
      </trkpt>
      <trkpt lat="42.82178" lon="2.72086">
        <ele>148.8</ele>
        <time>2021-03-28T08:49:26Z</time>
      </trkpt>
      <trkpt lat="42.82171" lon="2.72101">
        <ele>148.3</ele>
        <time>2021-03-28T08:49:28Z</time>
      </trkpt>
      <trkpt lat="42.82171" lon="2.72101">
        <ele>148.3</ele>
        <time>2021-03-28T08:49:28Z</time>
      </trkpt>
      <trkpt lat="42.82165" lon="2.72115">
        <ele>148</ele>
        <time>2021-03-28T08:49:30Z</time>
      </trkpt>
      <trkpt lat="42.82165" lon="2.72115">
        <ele>148</ele>
        <time>2021-03-28T08:49:30Z</time>
      </trkpt>
      <trkpt lat="42.82159" lon="2.72128">
        <ele>147.9</ele>
        <time>2021-03-28T08:49:31Z</time>
      </trkpt>
      <trkpt lat="42.82159" lon="2.72128">
        <ele>147.9</ele>
        <time>2021-03-28T08:49:31Z</time>
      </trkpt>
      <trkpt lat="42.82154" lon="2.72142">
        <ele>147.3</ele>
        <time>2021-03-28T08:49:33Z</time>
      </trkpt>
      <trkpt lat="42.82154" lon="2.72142">
        <ele>147.3</ele>
        <time>2021-03-28T08:49:33Z</time>
      </trkpt>
      <trkpt lat="42.82148" lon="2.72158">
        <ele>146.8</ele>
        <time>2021-03-28T08:49:35Z</time>
      </trkpt>
      <trkpt lat="42.82148" lon="2.72158">
        <ele>146.8</ele>
        <time>2021-03-28T08:49:35Z</time>
      </trkpt>
      <trkpt lat="42.82142" lon="2.72175">
        <ele>145.8</ele>
        <time>2021-03-28T08:49:37Z</time>
      </trkpt>
      <trkpt lat="42.82142" lon="2.72175">
        <ele>145.8</ele>
        <time>2021-03-28T08:49:37Z</time>
      </trkpt>
      <trkpt lat="42.82137" lon="2.72191">
        <ele>144.8</ele>
        <time>2021-03-28T08:49:38Z</time>
      </trkpt>
      <trkpt lat="42.82137" lon="2.72191">
        <ele>144.8</ele>
        <time>2021-03-28T08:49:38Z</time>
      </trkpt>
      <trkpt lat="42.82133" lon="2.72205">
        <ele>144.4</ele>
        <time>2021-03-28T08:49:39Z</time>
      </trkpt>
      <trkpt lat="42.82133" lon="2.72205">
        <ele>144.4</ele>
        <time>2021-03-28T08:49:39Z</time>
      </trkpt>
      <trkpt lat="42.82129" lon="2.72222">
        <ele>143.9</ele>
        <time>2021-03-28T08:49:41Z</time>
      </trkpt>
      <trkpt lat="42.82129" lon="2.72222">
        <ele>143.9</ele>
        <time>2021-03-28T08:49:41Z</time>
      </trkpt>
      <trkpt lat="42.82126" lon="2.72238">
        <ele>142.6</ele>
        <time>2021-03-28T08:49:42Z</time>
      </trkpt>
      <trkpt lat="42.82126" lon="2.72238">
        <ele>142.6</ele>
        <time>2021-03-28T08:49:42Z</time>
      </trkpt>
      <trkpt lat="42.82123" lon="2.72256">
        <ele>141.4</ele>
        <time>2021-03-28T08:49:44Z</time>
      </trkpt>
      <trkpt lat="42.82123" lon="2.72256">
        <ele>141.4</ele>
        <time>2021-03-28T08:49:44Z</time>
      </trkpt>
      <trkpt lat="42.8212" lon="2.72277">
        <ele>140.6</ele>
        <time>2021-03-28T08:49:46Z</time>
      </trkpt>
      <trkpt lat="42.8212" lon="2.72277">
        <ele>140.6</ele>
        <time>2021-03-28T08:49:46Z</time>
      </trkpt>
      <trkpt lat="42.82118" lon="2.72295">
        <ele>139.9</ele>
        <time>2021-03-28T08:49:47Z</time>
      </trkpt>
      <trkpt lat="42.82118" lon="2.72295">
        <ele>139.9</ele>
        <time>2021-03-28T08:49:47Z</time>
      </trkpt>
      <trkpt lat="42.82116" lon="2.72316">
        <ele>138.7</ele>
        <time>2021-03-28T08:49:49Z</time>
      </trkpt>
      <trkpt lat="42.82116" lon="2.72316">
        <ele>138.7</ele>
        <time>2021-03-28T08:49:49Z</time>
      </trkpt>
      <trkpt lat="42.82114" lon="2.72338">
        <ele>137.6</ele>
        <time>2021-03-28T08:49:51Z</time>
      </trkpt>
      <trkpt lat="42.82114" lon="2.72338">
        <ele>137.6</ele>
        <time>2021-03-28T08:49:51Z</time>
      </trkpt>
      <trkpt lat="42.82112" lon="2.72357">
        <ele>137.3</ele>
        <time>2021-03-28T08:49:52Z</time>
      </trkpt>
      <trkpt lat="42.82112" lon="2.72357">
        <ele>137.3</ele>
        <time>2021-03-28T08:49:52Z</time>
      </trkpt>
      <trkpt lat="42.8211" lon="2.72378">
        <ele>137</ele>
        <time>2021-03-28T08:49:54Z</time>
      </trkpt>
      <trkpt lat="42.8211" lon="2.72378">
        <ele>137</ele>
        <time>2021-03-28T08:49:54Z</time>
      </trkpt>
      <trkpt lat="42.82108" lon="2.724">
        <ele>136.9</ele>
        <time>2021-03-28T08:49:56Z</time>
      </trkpt>
      <trkpt lat="42.82108" lon="2.724">
        <ele>136.9</ele>
        <time>2021-03-28T08:49:56Z</time>
      </trkpt>
      <trkpt lat="42.82106" lon="2.72422">
        <ele>136.6</ele>
        <time>2021-03-28T08:49:58Z</time>
      </trkpt>
      <trkpt lat="42.82106" lon="2.72422">
        <ele>136.6</ele>
        <time>2021-03-28T08:49:58Z</time>
      </trkpt>
      <trkpt lat="42.82104" lon="2.72442">
        <ele>135.6</ele>
        <time>2021-03-28T08:49:59Z</time>
      </trkpt>
      <trkpt lat="42.82104" lon="2.72442">
        <ele>135.6</ele>
        <time>2021-03-28T08:49:59Z</time>
      </trkpt>
      <trkpt lat="42.82103" lon="2.72462">
        <ele>135.7</ele>
        <time>2021-03-28T08:50:01Z</time>
      </trkpt>
      <trkpt lat="42.82103" lon="2.72462">
        <ele>135.7</ele>
        <time>2021-03-28T08:50:01Z</time>
      </trkpt>
      <trkpt lat="42.82103" lon="2.72483">
        <ele>135.5</ele>
        <time>2021-03-28T08:50:03Z</time>
      </trkpt>
      <trkpt lat="42.82103" lon="2.72483">
        <ele>135.5</ele>
        <time>2021-03-28T08:50:03Z</time>
      </trkpt>
      <trkpt lat="42.82105" lon="2.72504">
        <ele>134.8</ele>
        <time>2021-03-28T08:50:05Z</time>
      </trkpt>
      <trkpt lat="42.82105" lon="2.72504">
        <ele>134.8</ele>
        <time>2021-03-28T08:50:05Z</time>
      </trkpt>
      <trkpt lat="42.82106" lon="2.72522">
        <ele>133.7</ele>
        <time>2021-03-28T08:50:06Z</time>
      </trkpt>
      <trkpt lat="42.82106" lon="2.72522">
        <ele>133.7</ele>
        <time>2021-03-28T08:50:06Z</time>
      </trkpt>
      <trkpt lat="42.82109" lon="2.72541">
        <ele>133.2</ele>
        <time>2021-03-28T08:50:08Z</time>
      </trkpt>
      <trkpt lat="42.82109" lon="2.72541">
        <ele>133.2</ele>
        <time>2021-03-28T08:50:08Z</time>
      </trkpt>
      <trkpt lat="42.82111" lon="2.72561">
        <ele>132.8</ele>
        <time>2021-03-28T08:50:10Z</time>
      </trkpt>
      <trkpt lat="42.82111" lon="2.72561">
        <ele>132.8</ele>
        <time>2021-03-28T08:50:10Z</time>
      </trkpt>
      <trkpt lat="42.82113" lon="2.72578">
        <ele>132.6</ele>
        <time>2021-03-28T08:50:11Z</time>
      </trkpt>
      <trkpt lat="42.82113" lon="2.72578">
        <ele>132.6</ele>
        <time>2021-03-28T08:50:11Z</time>
      </trkpt>
      <trkpt lat="42.82116" lon="2.72596">
        <ele>132.8</ele>
        <time>2021-03-28T08:50:13Z</time>
      </trkpt>
      <trkpt lat="42.82116" lon="2.72596">
        <ele>132.8</ele>
        <time>2021-03-28T08:50:13Z</time>
      </trkpt>
      <trkpt lat="42.82118" lon="2.72613">
        <ele>132.8</ele>
        <time>2021-03-28T08:50:14Z</time>
      </trkpt>
      <trkpt lat="42.82118" lon="2.72613">
        <ele>132.8</ele>
        <time>2021-03-28T08:50:14Z</time>
      </trkpt>
      <trkpt lat="42.82118" lon="2.72631">
        <ele>131</ele>
        <time>2021-03-28T08:50:16Z</time>
      </trkpt>
      <trkpt lat="42.82118" lon="2.72631">
        <ele>131</ele>
        <time>2021-03-28T08:50:16Z</time>
      </trkpt>
      <trkpt lat="42.82117" lon="2.72651">
        <ele>130.3</ele>
        <time>2021-03-28T08:50:18Z</time>
      </trkpt>
      <trkpt lat="42.82117" lon="2.72651">
        <ele>130.3</ele>
        <time>2021-03-28T08:50:18Z</time>
      </trkpt>
      <trkpt lat="42.82116" lon="2.72668">
        <ele>130.4</ele>
        <time>2021-03-28T08:50:19Z</time>
      </trkpt>
      <trkpt lat="42.82116" lon="2.72668">
        <ele>130.4</ele>
        <time>2021-03-28T08:50:19Z</time>
      </trkpt>
      <trkpt lat="42.82115" lon="2.72688">
        <ele>129.5</ele>
        <time>2021-03-28T08:50:21Z</time>
      </trkpt>
      <trkpt lat="42.82115" lon="2.72688">
        <ele>129.5</ele>
        <time>2021-03-28T08:50:21Z</time>
      </trkpt>
      <trkpt lat="42.82114" lon="2.7271">
        <ele>128.6</ele>
        <time>2021-03-28T08:50:23Z</time>
      </trkpt>
      <trkpt lat="42.82114" lon="2.7271">
        <ele>128.6</ele>
        <time>2021-03-28T08:50:23Z</time>
      </trkpt>
      <trkpt lat="42.8211" lon="2.72731">
        <ele>127.3</ele>
        <time>2021-03-28T08:50:25Z</time>
      </trkpt>
      <trkpt lat="42.8211" lon="2.72731">
        <ele>127.3</ele>
        <time>2021-03-28T08:50:25Z</time>
      </trkpt>
      <trkpt lat="42.82105" lon="2.72748">
        <ele>125.9</ele>
        <time>2021-03-28T08:50:26Z</time>
      </trkpt>
      <trkpt lat="42.82105" lon="2.72748">
        <ele>125.9</ele>
        <time>2021-03-28T08:50:26Z</time>
      </trkpt>
      <trkpt lat="42.82099" lon="2.72762">
        <ele>125.6</ele>
        <time>2021-03-28T08:50:27Z</time>
      </trkpt>
      <trkpt lat="42.82099" lon="2.72762">
        <ele>125.6</ele>
        <time>2021-03-28T08:50:27Z</time>
      </trkpt>
      <trkpt lat="42.8209" lon="2.72777">
        <ele>124.7</ele>
        <time>2021-03-28T08:50:29Z</time>
      </trkpt>
      <trkpt lat="42.8209" lon="2.72777">
        <ele>124.7</ele>
        <time>2021-03-28T08:50:29Z</time>
      </trkpt>
      <trkpt lat="42.82079" lon="2.72792">
        <ele>124.3</ele>
        <time>2021-03-28T08:50:31Z</time>
      </trkpt>
      <trkpt lat="42.82079" lon="2.72792">
        <ele>124.3</ele>
        <time>2021-03-28T08:50:31Z</time>
      </trkpt>
      <trkpt lat="42.82067" lon="2.72809">
        <ele>123.8</ele>
        <time>2021-03-28T08:50:33Z</time>
      </trkpt>
      <trkpt lat="42.82067" lon="2.72809">
        <ele>123.8</ele>
        <time>2021-03-28T08:50:33Z</time>
      </trkpt>
      <trkpt lat="42.82055" lon="2.72826">
        <ele>122.2</ele>
        <time>2021-03-28T08:50:35Z</time>
      </trkpt>
      <trkpt lat="42.82055" lon="2.72826">
        <ele>122.2</ele>
        <time>2021-03-28T08:50:35Z</time>
      </trkpt>
      <trkpt lat="42.82045" lon="2.7284">
        <ele>120.9</ele>
        <time>2021-03-28T08:50:36Z</time>
      </trkpt>
      <trkpt lat="42.82045" lon="2.7284">
        <ele>120.9</ele>
        <time>2021-03-28T08:50:36Z</time>
      </trkpt>
      <trkpt lat="42.82036" lon="2.72854">
        <ele>120.7</ele>
        <time>2021-03-28T08:50:37Z</time>
      </trkpt>
      <trkpt lat="42.82036" lon="2.72854">
        <ele>120.7</ele>
        <time>2021-03-28T08:50:37Z</time>
      </trkpt>
      <trkpt lat="42.82028" lon="2.72871">
        <ele>120.7</ele>
        <time>2021-03-28T08:50:39Z</time>
      </trkpt>
      <trkpt lat="42.82028" lon="2.72871">
        <ele>120.7</ele>
        <time>2021-03-28T08:50:39Z</time>
      </trkpt>
      <trkpt lat="42.82021" lon="2.7289">
        <ele>120.8</ele>
        <time>2021-03-28T08:50:41Z</time>
      </trkpt>
      <trkpt lat="42.82021" lon="2.7289">
        <ele>120.8</ele>
        <time>2021-03-28T08:50:41Z</time>
      </trkpt>
      <trkpt lat="42.82015" lon="2.72911">
        <ele>122.6</ele>
        <time>2021-03-28T08:50:43Z</time>
      </trkpt>
      <trkpt lat="42.82015" lon="2.72911">
        <ele>122.6</ele>
        <time>2021-03-28T08:50:43Z</time>
      </trkpt>
      <trkpt lat="42.82009" lon="2.72928">
        <ele>122.5</ele>
        <time>2021-03-28T08:50:44Z</time>
      </trkpt>
      <trkpt lat="42.82009" lon="2.72928">
        <ele>122.5</ele>
        <time>2021-03-28T08:50:44Z</time>
      </trkpt>
      <trkpt lat="42.82003" lon="2.72947">
        <ele>121</ele>
        <time>2021-03-28T08:50:46Z</time>
      </trkpt>
      <trkpt lat="42.82003" lon="2.72947">
        <ele>121</ele>
        <time>2021-03-28T08:50:46Z</time>
      </trkpt>
      <trkpt lat="42.81998" lon="2.72963">
        <ele>120.5</ele>
        <time>2021-03-28T08:50:47Z</time>
      </trkpt>
      <trkpt lat="42.81998" lon="2.72963">
        <ele>120.5</ele>
        <time>2021-03-28T08:50:47Z</time>
      </trkpt>
      <trkpt lat="42.81992" lon="2.72979">
        <ele>120.4</ele>
        <time>2021-03-28T08:50:49Z</time>
      </trkpt>
      <trkpt lat="42.81992" lon="2.72979">
        <ele>120.4</ele>
        <time>2021-03-28T08:50:49Z</time>
      </trkpt>
      <trkpt lat="42.81987" lon="2.72995">
        <ele>120.2</ele>
        <time>2021-03-28T08:50:51Z</time>
      </trkpt>
      <trkpt lat="42.81987" lon="2.72995">
        <ele>120.2</ele>
        <time>2021-03-28T08:50:51Z</time>
      </trkpt>
      <trkpt lat="42.81982" lon="2.73009">
        <ele>119.7</ele>
        <time>2021-03-28T08:50:52Z</time>
      </trkpt>
      <trkpt lat="42.81982" lon="2.73009">
        <ele>119.7</ele>
        <time>2021-03-28T08:50:52Z</time>
      </trkpt>
      <trkpt lat="42.81979" lon="2.73022">
        <ele>119.2</ele>
        <time>2021-03-28T08:50:54Z</time>
      </trkpt>
      <trkpt lat="42.81979" lon="2.73022">
        <ele>119.2</ele>
        <time>2021-03-28T08:50:54Z</time>
      </trkpt>
      <trkpt lat="42.81976" lon="2.73034">
        <ele>118.8</ele>
        <time>2021-03-28T08:50:55Z</time>
      </trkpt>
      <trkpt lat="42.81976" lon="2.73034">
        <ele>118.8</ele>
        <time>2021-03-28T08:50:55Z</time>
      </trkpt>
      <trkpt lat="42.81973" lon="2.73047">
        <ele>118.3</ele>
        <time>2021-03-28T08:50:57Z</time>
      </trkpt>
      <trkpt lat="42.81973" lon="2.73047">
        <ele>118.3</ele>
        <time>2021-03-28T08:50:57Z</time>
      </trkpt>
      <trkpt lat="42.81969" lon="2.7306">
        <ele>118.1</ele>
        <time>2021-03-28T08:50:59Z</time>
      </trkpt>
      <trkpt lat="42.81969" lon="2.7306">
        <ele>118.1</ele>
        <time>2021-03-28T08:50:59Z</time>
      </trkpt>
      <trkpt lat="42.81967" lon="2.73071">
        <ele>118.2</ele>
        <time>2021-03-28T08:51:00Z</time>
      </trkpt>
      <trkpt lat="42.81967" lon="2.73071">
        <ele>118.2</ele>
        <time>2021-03-28T08:51:00Z</time>
      </trkpt>
      <trkpt lat="42.81965" lon="2.73083">
        <ele>118.3</ele>
        <time>2021-03-28T08:51:02Z</time>
      </trkpt>
      <trkpt lat="42.81965" lon="2.73083">
        <ele>118.3</ele>
        <time>2021-03-28T08:51:02Z</time>
      </trkpt>
      <trkpt lat="42.81963" lon="2.73096">
        <ele>118</ele>
        <time>2021-03-28T08:51:04Z</time>
      </trkpt>
      <trkpt lat="42.81963" lon="2.73096">
        <ele>118</ele>
        <time>2021-03-28T08:51:04Z</time>
      </trkpt>
      <trkpt lat="42.81961" lon="2.7311">
        <ele>117.9</ele>
        <time>2021-03-28T08:51:06Z</time>
      </trkpt>
      <trkpt lat="42.81961" lon="2.7311">
        <ele>117.9</ele>
        <time>2021-03-28T08:51:06Z</time>
      </trkpt>
      <trkpt lat="42.81959" lon="2.73122">
        <ele>118.6</ele>
        <time>2021-03-28T08:51:07Z</time>
      </trkpt>
      <trkpt lat="42.81959" lon="2.73122">
        <ele>118.6</ele>
        <time>2021-03-28T08:51:07Z</time>
      </trkpt>
      <trkpt lat="42.81956" lon="2.73134">
        <ele>119.5</ele>
        <time>2021-03-28T08:51:09Z</time>
      </trkpt>
      <trkpt lat="42.81956" lon="2.73134">
        <ele>119.5</ele>
        <time>2021-03-28T08:51:09Z</time>
      </trkpt>
      <trkpt lat="42.81954" lon="2.73145">
        <ele>119.8</ele>
        <time>2021-03-28T08:51:10Z</time>
      </trkpt>
      <trkpt lat="42.81954" lon="2.73145">
        <ele>119.8</ele>
        <time>2021-03-28T08:51:10Z</time>
      </trkpt>
      <trkpt lat="42.81952" lon="2.73156">
        <ele>119.7</ele>
        <time>2021-03-28T08:51:12Z</time>
      </trkpt>
      <trkpt lat="42.81952" lon="2.73156">
        <ele>119.7</ele>
        <time>2021-03-28T08:51:12Z</time>
      </trkpt>
      <trkpt lat="42.81951" lon="2.73168">
        <ele>119.5</ele>
        <time>2021-03-28T08:51:14Z</time>
      </trkpt>
      <trkpt lat="42.81951" lon="2.73168">
        <ele>119.5</ele>
        <time>2021-03-28T08:51:14Z</time>
      </trkpt>
      <trkpt lat="42.81948" lon="2.7318">
        <ele>119.3</ele>
        <time>2021-03-28T08:51:16Z</time>
      </trkpt>
      <trkpt lat="42.81948" lon="2.7318">
        <ele>119.3</ele>
        <time>2021-03-28T08:51:16Z</time>
      </trkpt>
      <trkpt lat="42.81945" lon="2.73193">
        <ele>119</ele>
        <time>2021-03-28T08:51:18Z</time>
      </trkpt>
      <trkpt lat="42.81945" lon="2.73193">
        <ele>119</ele>
        <time>2021-03-28T08:51:18Z</time>
      </trkpt>
      <trkpt lat="42.81942" lon="2.73204">
        <ele>118.8</ele>
        <time>2021-03-28T08:51:19Z</time>
      </trkpt>
      <trkpt lat="42.81942" lon="2.73204">
        <ele>118.8</ele>
        <time>2021-03-28T08:51:19Z</time>
      </trkpt>
      <trkpt lat="42.81939" lon="2.73214">
        <ele>118.7</ele>
        <time>2021-03-28T08:51:20Z</time>
      </trkpt>
      <trkpt lat="42.81939" lon="2.73214">
        <ele>118.7</ele>
        <time>2021-03-28T08:51:20Z</time>
      </trkpt>
      <trkpt lat="42.81936" lon="2.73226">
        <ele>118.4</ele>
        <time>2021-03-28T08:51:22Z</time>
      </trkpt>
      <trkpt lat="42.81936" lon="2.73226">
        <ele>118.4</ele>
        <time>2021-03-28T08:51:22Z</time>
      </trkpt>
      <trkpt lat="42.81933" lon="2.7324">
        <ele>118</ele>
        <time>2021-03-28T08:51:24Z</time>
      </trkpt>
      <trkpt lat="42.81933" lon="2.7324">
        <ele>118</ele>
        <time>2021-03-28T08:51:24Z</time>
      </trkpt>
      <trkpt lat="42.8193" lon="2.73251">
        <ele>117.5</ele>
        <time>2021-03-28T08:51:25Z</time>
      </trkpt>
      <trkpt lat="42.8193" lon="2.73251">
        <ele>117.5</ele>
        <time>2021-03-28T08:51:25Z</time>
      </trkpt>
      <trkpt lat="42.81926" lon="2.73263">
        <ele>117.2</ele>
        <time>2021-03-28T08:51:27Z</time>
      </trkpt>
      <trkpt lat="42.81926" lon="2.73263">
        <ele>117.2</ele>
        <time>2021-03-28T08:51:27Z</time>
      </trkpt>
      <trkpt lat="42.81923" lon="2.73275">
        <ele>116.9</ele>
        <time>2021-03-28T08:51:28Z</time>
      </trkpt>
      <trkpt lat="42.81923" lon="2.73275">
        <ele>116.9</ele>
        <time>2021-03-28T08:51:28Z</time>
      </trkpt>
      <trkpt lat="42.81921" lon="2.73285">
        <ele>116.6</ele>
        <time>2021-03-28T08:51:29Z</time>
      </trkpt>
      <trkpt lat="42.81921" lon="2.73285">
        <ele>116.6</ele>
        <time>2021-03-28T08:51:29Z</time>
      </trkpt>
      <trkpt lat="42.81918" lon="2.73298">
        <ele>116.3</ele>
        <time>2021-03-28T08:51:31Z</time>
      </trkpt>
      <trkpt lat="42.81918" lon="2.73298">
        <ele>116.3</ele>
        <time>2021-03-28T08:51:31Z</time>
      </trkpt>
      <trkpt lat="42.81915" lon="2.7331">
        <ele>115.9</ele>
        <time>2021-03-28T08:51:32Z</time>
      </trkpt>
      <trkpt lat="42.81915" lon="2.7331">
        <ele>115.9</ele>
        <time>2021-03-28T08:51:32Z</time>
      </trkpt>
      <trkpt lat="42.81913" lon="2.73321">
        <ele>115.5</ele>
        <time>2021-03-28T08:51:33Z</time>
      </trkpt>
      <trkpt lat="42.81913" lon="2.73321">
        <ele>115.5</ele>
        <time>2021-03-28T08:51:33Z</time>
      </trkpt>
      <trkpt lat="42.81909" lon="2.73333">
        <ele>115</ele>
        <time>2021-03-28T08:51:35Z</time>
      </trkpt>
      <trkpt lat="42.81909" lon="2.73333">
        <ele>115</ele>
        <time>2021-03-28T08:51:35Z</time>
      </trkpt>
      <trkpt lat="42.81906" lon="2.73347">
        <ele>114.5</ele>
        <time>2021-03-28T08:51:37Z</time>
      </trkpt>
      <trkpt lat="42.81906" lon="2.73347">
        <ele>114.5</ele>
        <time>2021-03-28T08:51:37Z</time>
      </trkpt>
      <trkpt lat="42.81902" lon="2.73362">
        <ele>114</ele>
        <time>2021-03-28T08:51:39Z</time>
      </trkpt>
      <trkpt lat="42.81902" lon="2.73362">
        <ele>114</ele>
        <time>2021-03-28T08:51:39Z</time>
      </trkpt>
      <trkpt lat="42.81898" lon="2.73378">
        <ele>114</ele>
        <time>2021-03-28T08:51:41Z</time>
      </trkpt>
      <trkpt lat="42.81898" lon="2.73378">
        <ele>114</ele>
        <time>2021-03-28T08:51:41Z</time>
      </trkpt>
      <trkpt lat="42.81894" lon="2.73394">
        <ele>113.9</ele>
        <time>2021-03-28T08:51:43Z</time>
      </trkpt>
      <trkpt lat="42.81894" lon="2.73394">
        <ele>113.9</ele>
        <time>2021-03-28T08:51:43Z</time>
      </trkpt>
      <trkpt lat="42.8189" lon="2.73408">
        <ele>113.4</ele>
        <time>2021-03-28T08:51:44Z</time>
      </trkpt>
      <trkpt lat="42.8189" lon="2.73408">
        <ele>113.4</ele>
        <time>2021-03-28T08:51:44Z</time>
      </trkpt>
      <trkpt lat="42.81887" lon="2.7342">
        <ele>113</ele>
        <time>2021-03-28T08:51:45Z</time>
      </trkpt>
      <trkpt lat="42.81887" lon="2.7342">
        <ele>113</ele>
        <time>2021-03-28T08:51:45Z</time>
      </trkpt>
      <trkpt lat="42.81883" lon="2.73433">
        <ele>112.9</ele>
        <time>2021-03-28T08:51:47Z</time>
      </trkpt>
      <trkpt lat="42.81883" lon="2.73433">
        <ele>112.9</ele>
        <time>2021-03-28T08:51:47Z</time>
      </trkpt>
      <trkpt lat="42.81879" lon="2.73445">
        <ele>112.6</ele>
        <time>2021-03-28T08:51:48Z</time>
      </trkpt>
      <trkpt lat="42.81879" lon="2.73445">
        <ele>112.6</ele>
        <time>2021-03-28T08:51:48Z</time>
      </trkpt>
      <trkpt lat="42.81875" lon="2.73457">
        <ele>112</ele>
        <time>2021-03-28T08:51:50Z</time>
      </trkpt>
      <trkpt lat="42.81875" lon="2.73457">
        <ele>112</ele>
        <time>2021-03-28T08:51:50Z</time>
      </trkpt>
      <trkpt lat="42.81871" lon="2.73468">
        <ele>111.8</ele>
        <time>2021-03-28T08:51:51Z</time>
      </trkpt>
      <trkpt lat="42.81871" lon="2.73468">
        <ele>111.8</ele>
        <time>2021-03-28T08:51:51Z</time>
      </trkpt>
      <trkpt lat="42.81866" lon="2.7348">
        <ele>111.8</ele>
        <time>2021-03-28T08:51:53Z</time>
      </trkpt>
      <trkpt lat="42.81866" lon="2.7348">
        <ele>111.8</ele>
        <time>2021-03-28T08:51:53Z</time>
      </trkpt>
      <trkpt lat="42.81862" lon="2.73491">
        <ele>111.9</ele>
        <time>2021-03-28T08:51:54Z</time>
      </trkpt>
      <trkpt lat="42.81862" lon="2.73491">
        <ele>111.9</ele>
        <time>2021-03-28T08:51:54Z</time>
      </trkpt>
      <trkpt lat="42.81858" lon="2.735">
        <ele>111.9</ele>
        <time>2021-03-28T08:51:55Z</time>
      </trkpt>
      <trkpt lat="42.81858" lon="2.735">
        <ele>111.9</ele>
        <time>2021-03-28T08:51:55Z</time>
      </trkpt>
      <trkpt lat="42.81853" lon="2.73511">
        <ele>111.4</ele>
        <time>2021-03-28T08:51:57Z</time>
      </trkpt>
      <trkpt lat="42.81853" lon="2.73511">
        <ele>111.4</ele>
        <time>2021-03-28T08:51:57Z</time>
      </trkpt>
      <trkpt lat="42.81848" lon="2.7352">
        <ele>111.1</ele>
        <time>2021-03-28T08:51:58Z</time>
      </trkpt>
      <trkpt lat="42.81848" lon="2.7352">
        <ele>111.1</ele>
        <time>2021-03-28T08:51:58Z</time>
      </trkpt>
      <trkpt lat="42.81843" lon="2.73528">
        <ele>111</ele>
        <time>2021-03-28T08:51:59Z</time>
      </trkpt>
      <trkpt lat="42.81843" lon="2.73528">
        <ele>111</ele>
        <time>2021-03-28T08:51:59Z</time>
      </trkpt>
      <trkpt lat="42.81837" lon="2.73537">
        <ele>110.3</ele>
        <time>2021-03-28T08:52:01Z</time>
      </trkpt>
      <trkpt lat="42.81837" lon="2.73537">
        <ele>110.3</ele>
        <time>2021-03-28T08:52:01Z</time>
      </trkpt>
      <trkpt lat="42.81829" lon="2.73547">
        <ele>109.7</ele>
        <time>2021-03-28T08:52:03Z</time>
      </trkpt>
      <trkpt lat="42.81829" lon="2.73547">
        <ele>109.7</ele>
        <time>2021-03-28T08:52:03Z</time>
      </trkpt>
      <trkpt lat="42.8182" lon="2.73557">
        <ele>109.4</ele>
        <time>2021-03-28T08:52:05Z</time>
      </trkpt>
      <trkpt lat="42.8182" lon="2.73557">
        <ele>109.4</ele>
        <time>2021-03-28T08:52:05Z</time>
      </trkpt>
      <trkpt lat="42.8181" lon="2.73568">
        <ele>109.2</ele>
        <time>2021-03-28T08:52:07Z</time>
      </trkpt>
      <trkpt lat="42.8181" lon="2.73568">
        <ele>109.2</ele>
        <time>2021-03-28T08:52:07Z</time>
      </trkpt>
      <trkpt lat="42.81801" lon="2.73577">
        <ele>109.2</ele>
        <time>2021-03-28T08:52:08Z</time>
      </trkpt>
      <trkpt lat="42.81801" lon="2.73577">
        <ele>109.2</ele>
        <time>2021-03-28T08:52:08Z</time>
      </trkpt>
      <trkpt lat="42.81791" lon="2.73587">
        <ele>108.8</ele>
        <time>2021-03-28T08:52:10Z</time>
      </trkpt>
      <trkpt lat="42.81791" lon="2.73587">
        <ele>108.8</ele>
        <time>2021-03-28T08:52:10Z</time>
      </trkpt>
      <trkpt lat="42.81783" lon="2.73595">
        <ele>108.8</ele>
        <time>2021-03-28T08:52:11Z</time>
      </trkpt>
      <trkpt lat="42.81783" lon="2.73595">
        <ele>108.8</ele>
        <time>2021-03-28T08:52:11Z</time>
      </trkpt>
      <trkpt lat="42.81774" lon="2.73606">
        <ele>108.9</ele>
        <time>2021-03-28T08:52:13Z</time>
      </trkpt>
      <trkpt lat="42.81774" lon="2.73606">
        <ele>108.9</ele>
        <time>2021-03-28T08:52:13Z</time>
      </trkpt>
      <trkpt lat="42.81765" lon="2.73618">
        <ele>108.4</ele>
        <time>2021-03-28T08:52:15Z</time>
      </trkpt>
      <trkpt lat="42.81765" lon="2.73618">
        <ele>108.4</ele>
        <time>2021-03-28T08:52:15Z</time>
      </trkpt>
      <trkpt lat="42.81756" lon="2.7363">
        <ele>108.1</ele>
        <time>2021-03-28T08:52:17Z</time>
      </trkpt>
      <trkpt lat="42.81756" lon="2.7363">
        <ele>108.1</ele>
        <time>2021-03-28T08:52:17Z</time>
      </trkpt>
      <trkpt lat="42.81746" lon="2.73642">
        <ele>107.8</ele>
        <time>2021-03-28T08:52:19Z</time>
      </trkpt>
      <trkpt lat="42.81746" lon="2.73642">
        <ele>107.8</ele>
        <time>2021-03-28T08:52:19Z</time>
      </trkpt>
      <trkpt lat="42.81738" lon="2.73653">
        <ele>107.3</ele>
        <time>2021-03-28T08:52:20Z</time>
      </trkpt>
      <trkpt lat="42.81738" lon="2.73653">
        <ele>107.3</ele>
        <time>2021-03-28T08:52:20Z</time>
      </trkpt>
      <trkpt lat="42.81732" lon="2.73662">
        <ele>107.1</ele>
        <time>2021-03-28T08:52:21Z</time>
      </trkpt>
      <trkpt lat="42.81732" lon="2.73662">
        <ele>107.1</ele>
        <time>2021-03-28T08:52:21Z</time>
      </trkpt>
      <trkpt lat="42.81724" lon="2.73671">
        <ele>107.1</ele>
        <time>2021-03-28T08:52:23Z</time>
      </trkpt>
      <trkpt lat="42.81724" lon="2.73671">
        <ele>107.1</ele>
        <time>2021-03-28T08:52:23Z</time>
      </trkpt>
      <trkpt lat="42.81717" lon="2.73682">
        <ele>107.3</ele>
        <time>2021-03-28T08:52:25Z</time>
      </trkpt>
      <trkpt lat="42.81717" lon="2.73682">
        <ele>107.3</ele>
        <time>2021-03-28T08:52:25Z</time>
      </trkpt>
      <trkpt lat="42.81709" lon="2.73695">
        <ele>107</ele>
        <time>2021-03-28T08:52:27Z</time>
      </trkpt>
      <trkpt lat="42.81709" lon="2.73695">
        <ele>107</ele>
        <time>2021-03-28T08:52:27Z</time>
      </trkpt>
      <trkpt lat="42.81702" lon="2.73705">
        <ele>106.5</ele>
        <time>2021-03-28T08:52:28Z</time>
      </trkpt>
      <trkpt lat="42.81702" lon="2.73705">
        <ele>106.5</ele>
        <time>2021-03-28T08:52:28Z</time>
      </trkpt>
      <trkpt lat="42.81695" lon="2.73717">
        <ele>106</ele>
        <time>2021-03-28T08:52:30Z</time>
      </trkpt>
      <trkpt lat="42.81695" lon="2.73717">
        <ele>106</ele>
        <time>2021-03-28T08:52:30Z</time>
      </trkpt>
      <trkpt lat="42.81688" lon="2.73727">
        <ele>105.6</ele>
        <time>2021-03-28T08:52:31Z</time>
      </trkpt>
      <trkpt lat="42.81688" lon="2.73727">
        <ele>105.6</ele>
        <time>2021-03-28T08:52:31Z</time>
      </trkpt>
      <trkpt lat="42.81681" lon="2.73738">
        <ele>105</ele>
        <time>2021-03-28T08:52:33Z</time>
      </trkpt>
      <trkpt lat="42.81681" lon="2.73738">
        <ele>105</ele>
        <time>2021-03-28T08:52:33Z</time>
      </trkpt>
      <trkpt lat="42.81675" lon="2.73748">
        <ele>104.6</ele>
        <time>2021-03-28T08:52:34Z</time>
      </trkpt>
      <trkpt lat="42.81675" lon="2.73748">
        <ele>104.6</ele>
        <time>2021-03-28T08:52:34Z</time>
      </trkpt>
      <trkpt lat="42.81669" lon="2.73757">
        <ele>104.2</ele>
        <time>2021-03-28T08:52:35Z</time>
      </trkpt>
      <trkpt lat="42.81669" lon="2.73757">
        <ele>104.2</ele>
        <time>2021-03-28T08:52:35Z</time>
      </trkpt>
      <trkpt lat="42.81662" lon="2.73767">
        <ele>104</ele>
        <time>2021-03-28T08:52:37Z</time>
      </trkpt>
      <trkpt lat="42.81662" lon="2.73767">
        <ele>104</ele>
        <time>2021-03-28T08:52:37Z</time>
      </trkpt>
      <trkpt lat="42.81655" lon="2.73777">
        <ele>104</ele>
        <time>2021-03-28T08:52:39Z</time>
      </trkpt>
      <trkpt lat="42.81655" lon="2.73777">
        <ele>104</ele>
        <time>2021-03-28T08:52:39Z</time>
      </trkpt>
      <trkpt lat="42.81648" lon="2.73786">
        <ele>103.8</ele>
        <time>2021-03-28T08:52:40Z</time>
      </trkpt>
      <trkpt lat="42.81648" lon="2.73786">
        <ele>103.8</ele>
        <time>2021-03-28T08:52:40Z</time>
      </trkpt>
      <trkpt lat="42.81642" lon="2.73794">
        <ele>103.5</ele>
        <time>2021-03-28T08:52:41Z</time>
      </trkpt>
      <trkpt lat="42.81642" lon="2.73794">
        <ele>103.5</ele>
        <time>2021-03-28T08:52:41Z</time>
      </trkpt>
      <trkpt lat="42.81635" lon="2.73803">
        <ele>103.4</ele>
        <time>2021-03-28T08:52:43Z</time>
      </trkpt>
      <trkpt lat="42.81635" lon="2.73803">
        <ele>103.4</ele>
        <time>2021-03-28T08:52:43Z</time>
      </trkpt>
      <trkpt lat="42.81629" lon="2.73811">
        <ele>103.6</ele>
        <time>2021-03-28T08:52:44Z</time>
      </trkpt>
      <trkpt lat="42.81629" lon="2.73811">
        <ele>103.6</ele>
        <time>2021-03-28T08:52:44Z</time>
      </trkpt>
      <trkpt lat="42.81622" lon="2.7382">
        <ele>103.6</ele>
        <time>2021-03-28T08:52:46Z</time>
      </trkpt>
      <trkpt lat="42.81622" lon="2.7382">
        <ele>103.6</ele>
        <time>2021-03-28T08:52:46Z</time>
      </trkpt>
      <trkpt lat="42.81615" lon="2.7383">
        <ele>103.2</ele>
        <time>2021-03-28T08:52:48Z</time>
      </trkpt>
      <trkpt lat="42.81615" lon="2.7383">
        <ele>103.2</ele>
        <time>2021-03-28T08:52:48Z</time>
      </trkpt>
      <trkpt lat="42.81608" lon="2.73839">
        <ele>103.2</ele>
        <time>2021-03-28T08:52:49Z</time>
      </trkpt>
      <trkpt lat="42.81608" lon="2.73839">
        <ele>103.2</ele>
        <time>2021-03-28T08:52:49Z</time>
      </trkpt>
      <trkpt lat="42.81601" lon="2.73849">
        <ele>103.5</ele>
        <time>2021-03-28T08:52:51Z</time>
      </trkpt>
      <trkpt lat="42.81601" lon="2.73849">
        <ele>103.5</ele>
        <time>2021-03-28T08:52:51Z</time>
      </trkpt>
      <trkpt lat="42.81594" lon="2.73857">
        <ele>103.7</ele>
        <time>2021-03-28T08:52:52Z</time>
      </trkpt>
      <trkpt lat="42.81594" lon="2.73857">
        <ele>103.7</ele>
        <time>2021-03-28T08:52:52Z</time>
      </trkpt>
      <trkpt lat="42.81587" lon="2.73867">
        <ele>103.5</ele>
        <time>2021-03-28T08:52:54Z</time>
      </trkpt>
      <trkpt lat="42.81587" lon="2.73867">
        <ele>103.5</ele>
        <time>2021-03-28T08:52:54Z</time>
      </trkpt>
      <trkpt lat="42.81578" lon="2.73878">
        <ele>102.8</ele>
        <time>2021-03-28T08:52:56Z</time>
      </trkpt>
      <trkpt lat="42.81578" lon="2.73878">
        <ele>102.8</ele>
        <time>2021-03-28T08:52:56Z</time>
      </trkpt>
      <trkpt lat="42.81571" lon="2.73889">
        <ele>102</ele>
        <time>2021-03-28T08:52:57Z</time>
      </trkpt>
      <trkpt lat="42.81571" lon="2.73889">
        <ele>102</ele>
        <time>2021-03-28T08:52:57Z</time>
      </trkpt>
      <trkpt lat="42.81565" lon="2.73898">
        <ele>101.6</ele>
        <time>2021-03-28T08:52:58Z</time>
      </trkpt>
      <trkpt lat="42.81565" lon="2.73898">
        <ele>101.6</ele>
        <time>2021-03-28T08:52:58Z</time>
      </trkpt>
      <trkpt lat="42.81558" lon="2.73908">
        <ele>101.2</ele>
        <time>2021-03-28T08:53:00Z</time>
      </trkpt>
      <trkpt lat="42.81558" lon="2.73908">
        <ele>101.2</ele>
        <time>2021-03-28T08:53:00Z</time>
      </trkpt>
      <trkpt lat="42.81552" lon="2.73917">
        <ele>101</ele>
        <time>2021-03-28T08:53:01Z</time>
      </trkpt>
      <trkpt lat="42.81552" lon="2.73917">
        <ele>101</ele>
        <time>2021-03-28T08:53:01Z</time>
      </trkpt>
      <trkpt lat="42.81544" lon="2.73925">
        <ele>100.6</ele>
        <time>2021-03-28T08:53:03Z</time>
      </trkpt>
      <trkpt lat="42.81544" lon="2.73925">
        <ele>100.6</ele>
        <time>2021-03-28T08:53:03Z</time>
      </trkpt>
      <trkpt lat="42.81537" lon="2.73933">
        <ele>100.6</ele>
        <time>2021-03-28T08:53:04Z</time>
      </trkpt>
      <trkpt lat="42.81537" lon="2.73933">
        <ele>100.6</ele>
        <time>2021-03-28T08:53:04Z</time>
      </trkpt>
      <trkpt lat="42.81531" lon="2.73939">
        <ele>100.8</ele>
        <time>2021-03-28T08:53:05Z</time>
      </trkpt>
      <trkpt lat="42.81531" lon="2.73939">
        <ele>100.8</ele>
        <time>2021-03-28T08:53:05Z</time>
      </trkpt>
      <trkpt lat="42.81525" lon="2.73946">
        <ele>100.9</ele>
        <time>2021-03-28T08:53:07Z</time>
      </trkpt>
      <trkpt lat="42.81525" lon="2.73946">
        <ele>100.9</ele>
        <time>2021-03-28T08:53:07Z</time>
      </trkpt>
      <trkpt lat="42.81519" lon="2.73951">
        <ele>100.4</ele>
        <time>2021-03-28T08:53:08Z</time>
      </trkpt>
      <trkpt lat="42.81519" lon="2.73951">
        <ele>100.4</ele>
        <time>2021-03-28T08:53:08Z</time>
      </trkpt>
      <trkpt lat="42.81515" lon="2.73955">
        <ele>100.2</ele>
        <time>2021-03-28T08:53:09Z</time>
      </trkpt>
      <trkpt lat="42.81515" lon="2.73955">
        <ele>100.2</ele>
        <time>2021-03-28T08:53:09Z</time>
      </trkpt>
      <trkpt lat="42.81511" lon="2.73958">
        <ele>100.2</ele>
        <time>2021-03-28T08:53:11Z</time>
      </trkpt>
      <trkpt lat="42.81511" lon="2.73958">
        <ele>100.2</ele>
        <time>2021-03-28T08:53:11Z</time>
      </trkpt>
      <trkpt lat="42.81507" lon="2.7396">
        <ele>100.2</ele>
        <time>2021-03-28T08:53:13Z</time>
      </trkpt>
      <trkpt lat="42.81507" lon="2.7396">
        <ele>100.2</ele>
        <time>2021-03-28T08:53:13Z</time>
      </trkpt>
      <trkpt lat="42.81504" lon="2.73962">
        <ele>100.2</ele>
        <time>2021-03-28T08:53:15Z</time>
      </trkpt>
      <trkpt lat="42.81504" lon="2.73962">
        <ele>100.2</ele>
        <time>2021-03-28T08:53:15Z</time>
      </trkpt>
      <trkpt lat="42.81501" lon="2.73964">
        <ele>100.3</ele>
        <time>2021-03-28T08:53:17Z</time>
      </trkpt>
      <trkpt lat="42.81501" lon="2.73964">
        <ele>100.3</ele>
        <time>2021-03-28T08:53:17Z</time>
      </trkpt>
      <trkpt lat="42.81499" lon="2.73968">
        <ele>100.2</ele>
        <time>2021-03-28T08:53:19Z</time>
      </trkpt>
      <trkpt lat="42.81499" lon="2.73968">
        <ele>100.2</ele>
        <time>2021-03-28T08:53:19Z</time>
      </trkpt>
      <trkpt lat="42.81498" lon="2.73971">
        <ele>100</ele>
        <time>2021-03-28T08:53:21Z</time>
      </trkpt>
      <trkpt lat="42.81498" lon="2.73971">
        <ele>100</ele>
        <time>2021-03-28T08:53:21Z</time>
      </trkpt>
      <trkpt lat="42.81497" lon="2.73975">
        <ele>99.9</ele>
        <time>2021-03-28T08:53:22Z</time>
      </trkpt>
      <trkpt lat="42.81497" lon="2.73975">
        <ele>99.9</ele>
        <time>2021-03-28T08:53:22Z</time>
      </trkpt>
      <trkpt lat="42.81497" lon="2.73977">
        <ele>99.8</ele>
        <time>2021-03-28T08:53:24Z</time>
      </trkpt>
      <trkpt lat="42.81497" lon="2.73977">
        <ele>99.8</ele>
        <time>2021-03-28T08:53:24Z</time>
      </trkpt>
      <trkpt lat="42.81497" lon="2.73979">
        <ele>99.7</ele>
        <time>2021-03-28T08:53:26Z</time>
      </trkpt>
      <trkpt lat="42.81497" lon="2.73979">
        <ele>99.7</ele>
        <time>2021-03-28T08:53:26Z</time>
      </trkpt>
      <trkpt lat="42.81497" lon="2.73995">
        <ele>99.1</ele>
        <time>2021-03-28T08:53:54Z</time>
      </trkpt>
      <trkpt lat="42.81497" lon="2.73995">
        <ele>99.1</ele>
        <time>2021-03-28T08:53:54Z</time>
      </trkpt>
      <trkpt lat="42.81497" lon="2.73996">
        <ele>99.1</ele>
        <time>2021-03-28T08:53:55Z</time>
      </trkpt>
      <trkpt lat="42.81497" lon="2.73996">
        <ele>99.1</ele>
        <time>2021-03-28T08:53:55Z</time>
      </trkpt>
      <trkpt lat="42.81497" lon="2.73999">
        <ele>99</ele>
        <time>2021-03-28T08:53:57Z</time>
      </trkpt>
      <trkpt lat="42.81497" lon="2.73999">
        <ele>99</ele>
        <time>2021-03-28T08:53:57Z</time>
      </trkpt>
      <trkpt lat="42.81498" lon="2.74003">
        <ele>98.8</ele>
        <time>2021-03-28T08:53:58Z</time>
      </trkpt>
      <trkpt lat="42.81498" lon="2.74003">
        <ele>98.8</ele>
        <time>2021-03-28T08:53:58Z</time>
      </trkpt>
      <trkpt lat="42.815" lon="2.74009">
        <ele>98.7</ele>
        <time>2021-03-28T08:54:00Z</time>
      </trkpt>
      <trkpt lat="42.815" lon="2.74009">
        <ele>98.7</ele>
        <time>2021-03-28T08:54:00Z</time>
      </trkpt>
      <trkpt lat="42.81501" lon="2.74015">
        <ele>98.4</ele>
        <time>2021-03-28T08:54:01Z</time>
      </trkpt>
      <trkpt lat="42.81501" lon="2.74015">
        <ele>98.4</ele>
        <time>2021-03-28T08:54:01Z</time>
      </trkpt>
      <trkpt lat="42.81502" lon="2.74022">
        <ele>98.1</ele>
        <time>2021-03-28T08:54:03Z</time>
      </trkpt>
      <trkpt lat="42.81502" lon="2.74022">
        <ele>98.1</ele>
        <time>2021-03-28T08:54:03Z</time>
      </trkpt>
      <trkpt lat="42.81504" lon="2.74032">
        <ele>97.6</ele>
        <time>2021-03-28T08:54:05Z</time>
      </trkpt>
      <trkpt lat="42.81504" lon="2.74032">
        <ele>97.6</ele>
        <time>2021-03-28T08:54:05Z</time>
      </trkpt>
      <trkpt lat="42.81506" lon="2.74041">
        <ele>97.1</ele>
        <time>2021-03-28T08:54:06Z</time>
      </trkpt>
      <trkpt lat="42.81506" lon="2.74041">
        <ele>97.1</ele>
        <time>2021-03-28T08:54:06Z</time>
      </trkpt>
      <trkpt lat="42.81508" lon="2.74048">
        <ele>96.7</ele>
        <time>2021-03-28T08:54:07Z</time>
      </trkpt>
      <trkpt lat="42.81508" lon="2.74048">
        <ele>96.7</ele>
        <time>2021-03-28T08:54:07Z</time>
      </trkpt>
      <trkpt lat="42.81509" lon="2.74058">
        <ele>96.4</ele>
        <time>2021-03-28T08:54:09Z</time>
      </trkpt>
      <trkpt lat="42.81509" lon="2.74058">
        <ele>96.4</ele>
        <time>2021-03-28T08:54:09Z</time>
      </trkpt>
      <trkpt lat="42.8151" lon="2.74067">
        <ele>96.8</ele>
        <time>2021-03-28T08:54:10Z</time>
      </trkpt>
      <trkpt lat="42.8151" lon="2.74067">
        <ele>96.8</ele>
        <time>2021-03-28T08:54:10Z</time>
      </trkpt>
      <trkpt lat="42.81511" lon="2.74075">
        <ele>97.1</ele>
        <time>2021-03-28T08:54:11Z</time>
      </trkpt>
      <trkpt lat="42.81511" lon="2.74075">
        <ele>97.1</ele>
        <time>2021-03-28T08:54:11Z</time>
      </trkpt>
      <trkpt lat="42.81512" lon="2.74085">
        <ele>97.4</ele>
        <time>2021-03-28T08:54:13Z</time>
      </trkpt>
      <trkpt lat="42.81512" lon="2.74085">
        <ele>97.4</ele>
        <time>2021-03-28T08:54:13Z</time>
      </trkpt>
      <trkpt lat="42.81513" lon="2.74094">
        <ele>97.5</ele>
        <time>2021-03-28T08:54:14Z</time>
      </trkpt>
      <trkpt lat="42.81513" lon="2.74094">
        <ele>97.5</ele>
        <time>2021-03-28T08:54:14Z</time>
      </trkpt>
      <trkpt lat="42.81514" lon="2.74104">
        <ele>97.5</ele>
        <time>2021-03-28T08:54:16Z</time>
      </trkpt>
      <trkpt lat="42.81514" lon="2.74104">
        <ele>97.5</ele>
        <time>2021-03-28T08:54:16Z</time>
      </trkpt>
      <trkpt lat="42.81515" lon="2.74117">
        <ele>97.5</ele>
        <time>2021-03-28T08:54:18Z</time>
      </trkpt>
      <trkpt lat="42.81515" lon="2.74117">
        <ele>97.5</ele>
        <time>2021-03-28T08:54:18Z</time>
      </trkpt>
      <trkpt lat="42.81516" lon="2.7413">
        <ele>97.6</ele>
        <time>2021-03-28T08:54:20Z</time>
      </trkpt>
      <trkpt lat="42.81516" lon="2.7413">
        <ele>97.6</ele>
        <time>2021-03-28T08:54:20Z</time>
      </trkpt>
      <trkpt lat="42.81516" lon="2.74141">
        <ele>97.6</ele>
        <time>2021-03-28T08:54:21Z</time>
      </trkpt>
      <trkpt lat="42.81516" lon="2.74141">
        <ele>97.6</ele>
        <time>2021-03-28T08:54:21Z</time>
      </trkpt>
      <trkpt lat="42.81517" lon="2.74153">
        <ele>97.6</ele>
        <time>2021-03-28T08:54:23Z</time>
      </trkpt>
      <trkpt lat="42.81517" lon="2.74153">
        <ele>97.6</ele>
        <time>2021-03-28T08:54:23Z</time>
      </trkpt>
      <trkpt lat="42.81518" lon="2.74163">
        <ele>97.7</ele>
        <time>2021-03-28T08:54:24Z</time>
      </trkpt>
      <trkpt lat="42.81518" lon="2.74163">
        <ele>97.7</ele>
        <time>2021-03-28T08:54:24Z</time>
      </trkpt>
      <trkpt lat="42.81519" lon="2.74172">
        <ele>97.6</ele>
        <time>2021-03-28T08:54:25Z</time>
      </trkpt>
      <trkpt lat="42.81519" lon="2.74172">
        <ele>97.6</ele>
        <time>2021-03-28T08:54:25Z</time>
      </trkpt>
      <trkpt lat="42.81519" lon="2.74181">
        <ele>97.5</ele>
        <time>2021-03-28T08:54:27Z</time>
      </trkpt>
      <trkpt lat="42.81519" lon="2.74181">
        <ele>97.5</ele>
        <time>2021-03-28T08:54:27Z</time>
      </trkpt>
      <trkpt lat="42.81518" lon="2.7419">
        <ele>97.3</ele>
        <time>2021-03-28T08:54:29Z</time>
      </trkpt>
      <trkpt lat="42.81518" lon="2.7419">
        <ele>97.3</ele>
        <time>2021-03-28T08:54:29Z</time>
      </trkpt>
      <trkpt lat="42.81517" lon="2.74201">
        <ele>97.2</ele>
        <time>2021-03-28T08:54:31Z</time>
      </trkpt>
      <trkpt lat="42.81517" lon="2.74201">
        <ele>97.2</ele>
        <time>2021-03-28T08:54:31Z</time>
      </trkpt>
      <trkpt lat="42.81515" lon="2.74212">
        <ele>97.1</ele>
        <time>2021-03-28T08:54:33Z</time>
      </trkpt>
      <trkpt lat="42.81515" lon="2.74212">
        <ele>97.1</ele>
        <time>2021-03-28T08:54:33Z</time>
      </trkpt>
      <trkpt lat="42.81513" lon="2.74223">
        <ele>96.8</ele>
        <time>2021-03-28T08:54:35Z</time>
      </trkpt>
      <trkpt lat="42.81513" lon="2.74223">
        <ele>96.8</ele>
        <time>2021-03-28T08:54:35Z</time>
      </trkpt>
      <trkpt lat="42.81511" lon="2.74232">
        <ele>95.2</ele>
        <time>2021-03-28T08:54:36Z</time>
      </trkpt>
      <trkpt lat="42.81511" lon="2.74232">
        <ele>95.2</ele>
        <time>2021-03-28T08:54:36Z</time>
      </trkpt>
      <trkpt lat="42.81509" lon="2.74243">
        <ele>93.5</ele>
        <time>2021-03-28T08:54:38Z</time>
      </trkpt>
      <trkpt lat="42.81509" lon="2.74243">
        <ele>93.5</ele>
        <time>2021-03-28T08:54:38Z</time>
      </trkpt>
      <trkpt lat="42.81506" lon="2.74254">
        <ele>92.3</ele>
        <time>2021-03-28T08:54:40Z</time>
      </trkpt>
      <trkpt lat="42.81506" lon="2.74254">
        <ele>92.3</ele>
        <time>2021-03-28T08:54:40Z</time>
      </trkpt>
      <trkpt lat="42.81503" lon="2.74266">
        <ele>92.6</ele>
        <time>2021-03-28T08:54:42Z</time>
      </trkpt>
      <trkpt lat="42.81503" lon="2.74266">
        <ele>92.6</ele>
        <time>2021-03-28T08:54:42Z</time>
      </trkpt>
      <trkpt lat="42.815" lon="2.74278">
        <ele>93</ele>
        <time>2021-03-28T08:54:44Z</time>
      </trkpt>
      <trkpt lat="42.815" lon="2.74278">
        <ele>93</ele>
        <time>2021-03-28T08:54:44Z</time>
      </trkpt>
      <trkpt lat="42.81497" lon="2.7429">
        <ele>93.9</ele>
        <time>2021-03-28T08:54:46Z</time>
      </trkpt>
      <trkpt lat="42.81497" lon="2.7429">
        <ele>93.9</ele>
        <time>2021-03-28T08:54:46Z</time>
      </trkpt>
      <trkpt lat="42.81495" lon="2.74299">
        <ele>94.7</ele>
        <time>2021-03-28T08:54:47Z</time>
      </trkpt>
      <trkpt lat="42.81495" lon="2.74299">
        <ele>94.7</ele>
        <time>2021-03-28T08:54:47Z</time>
      </trkpt>
      <trkpt lat="42.81492" lon="2.74309">
        <ele>95.4</ele>
        <time>2021-03-28T08:54:49Z</time>
      </trkpt>
      <trkpt lat="42.81492" lon="2.74309">
        <ele>95.4</ele>
        <time>2021-03-28T08:54:49Z</time>
      </trkpt>
      <trkpt lat="42.81489" lon="2.74316">
        <ele>95.8</ele>
        <time>2021-03-28T08:54:50Z</time>
      </trkpt>
      <trkpt lat="42.81489" lon="2.74316">
        <ele>95.8</ele>
        <time>2021-03-28T08:54:50Z</time>
      </trkpt>
      <trkpt lat="42.81486" lon="2.74325">
        <ele>96.2</ele>
        <time>2021-03-28T08:54:52Z</time>
      </trkpt>
      <trkpt lat="42.81486" lon="2.74325">
        <ele>96.2</ele>
        <time>2021-03-28T08:54:52Z</time>
      </trkpt>
      <trkpt lat="42.81482" lon="2.74333">
        <ele>96.6</ele>
        <time>2021-03-28T08:54:53Z</time>
      </trkpt>
      <trkpt lat="42.81482" lon="2.74333">
        <ele>96.6</ele>
        <time>2021-03-28T08:54:53Z</time>
      </trkpt>
      <trkpt lat="42.81478" lon="2.74342">
        <ele>97.1</ele>
        <time>2021-03-28T08:54:55Z</time>
      </trkpt>
      <trkpt lat="42.81478" lon="2.74342">
        <ele>97.1</ele>
        <time>2021-03-28T08:54:55Z</time>
      </trkpt>
      <trkpt lat="42.81473" lon="2.74352">
        <ele>97.6</ele>
        <time>2021-03-28T08:54:57Z</time>
      </trkpt>
      <trkpt lat="42.81473" lon="2.74352">
        <ele>97.6</ele>
        <time>2021-03-28T08:54:57Z</time>
      </trkpt>
      <trkpt lat="42.8147" lon="2.7436">
        <ele>97.8</ele>
        <time>2021-03-28T08:54:58Z</time>
      </trkpt>
      <trkpt lat="42.8147" lon="2.7436">
        <ele>97.8</ele>
        <time>2021-03-28T08:54:58Z</time>
      </trkpt>
      <trkpt lat="42.81466" lon="2.74368">
        <ele>97.3</ele>
        <time>2021-03-28T08:54:59Z</time>
      </trkpt>
      <trkpt lat="42.81466" lon="2.74368">
        <ele>97.3</ele>
        <time>2021-03-28T08:54:59Z</time>
      </trkpt>
      <trkpt lat="42.81461" lon="2.74377">
        <ele>96.8</ele>
        <time>2021-03-28T08:55:01Z</time>
      </trkpt>
      <trkpt lat="42.81461" lon="2.74377">
        <ele>96.8</ele>
        <time>2021-03-28T08:55:01Z</time>
      </trkpt>
      <trkpt lat="42.81456" lon="2.74385">
        <ele>96.5</ele>
        <time>2021-03-28T08:55:02Z</time>
      </trkpt>
      <trkpt lat="42.81456" lon="2.74385">
        <ele>96.5</ele>
        <time>2021-03-28T08:55:02Z</time>
      </trkpt>
      <trkpt lat="42.81452" lon="2.74392">
        <ele>96.3</ele>
        <time>2021-03-28T08:55:04Z</time>
      </trkpt>
      <trkpt lat="42.81452" lon="2.74392">
        <ele>96.3</ele>
        <time>2021-03-28T08:55:04Z</time>
      </trkpt>
      <trkpt lat="42.81447" lon="2.744">
        <ele>96.5</ele>
        <time>2021-03-28T08:55:06Z</time>
      </trkpt>
      <trkpt lat="42.81447" lon="2.744">
        <ele>96.5</ele>
        <time>2021-03-28T08:55:06Z</time>
      </trkpt>
      <trkpt lat="42.81442" lon="2.74408">
        <ele>96.6</ele>
        <time>2021-03-28T08:55:08Z</time>
      </trkpt>
      <trkpt lat="42.81442" lon="2.74408">
        <ele>96.6</ele>
        <time>2021-03-28T08:55:08Z</time>
      </trkpt>
      <trkpt lat="42.81437" lon="2.74416">
        <ele>96.7</ele>
        <time>2021-03-28T08:55:10Z</time>
      </trkpt>
      <trkpt lat="42.81437" lon="2.74416">
        <ele>96.7</ele>
        <time>2021-03-28T08:55:10Z</time>
      </trkpt>
      <trkpt lat="42.81432" lon="2.74424">
        <ele>97</ele>
        <time>2021-03-28T08:55:12Z</time>
      </trkpt>
      <trkpt lat="42.81432" lon="2.74424">
        <ele>97</ele>
        <time>2021-03-28T08:55:12Z</time>
      </trkpt>
      <trkpt lat="42.81427" lon="2.74434">
        <ele>97.4</ele>
        <time>2021-03-28T08:55:14Z</time>
      </trkpt>
      <trkpt lat="42.81427" lon="2.74434">
        <ele>97.4</ele>
        <time>2021-03-28T08:55:14Z</time>
      </trkpt>
      <trkpt lat="42.81423" lon="2.74441">
        <ele>97.8</ele>
        <time>2021-03-28T08:55:15Z</time>
      </trkpt>
      <trkpt lat="42.81423" lon="2.74441">
        <ele>97.8</ele>
        <time>2021-03-28T08:55:15Z</time>
      </trkpt>
      <trkpt lat="42.81419" lon="2.74448">
        <ele>98.1</ele>
        <time>2021-03-28T08:55:17Z</time>
      </trkpt>
      <trkpt lat="42.81419" lon="2.74448">
        <ele>98.1</ele>
        <time>2021-03-28T08:55:17Z</time>
      </trkpt>
      <trkpt lat="42.81416" lon="2.74454">
        <ele>98.3</ele>
        <time>2021-03-28T08:55:18Z</time>
      </trkpt>
      <trkpt lat="42.81416" lon="2.74454">
        <ele>98.3</ele>
        <time>2021-03-28T08:55:18Z</time>
      </trkpt>
      <trkpt lat="42.81413" lon="2.74459">
        <ele>98.4</ele>
        <time>2021-03-28T08:55:19Z</time>
      </trkpt>
      <trkpt lat="42.81413" lon="2.74459">
        <ele>98.4</ele>
        <time>2021-03-28T08:55:19Z</time>
      </trkpt>
      <trkpt lat="42.81411" lon="2.74463">
        <ele>98.5</ele>
        <time>2021-03-28T08:55:20Z</time>
      </trkpt>
      <trkpt lat="42.81411" lon="2.74463">
        <ele>98.5</ele>
        <time>2021-03-28T08:55:20Z</time>
      </trkpt>
      <trkpt lat="42.81408" lon="2.74468">
        <ele>98.5</ele>
        <time>2021-03-28T08:55:22Z</time>
      </trkpt>
      <trkpt lat="42.81408" lon="2.74468">
        <ele>98.5</ele>
        <time>2021-03-28T08:55:22Z</time>
      </trkpt>
      <trkpt lat="42.81404" lon="2.74474">
        <ele>98.6</ele>
        <time>2021-03-28T08:55:24Z</time>
      </trkpt>
      <trkpt lat="42.81404" lon="2.74474">
        <ele>98.6</ele>
        <time>2021-03-28T08:55:24Z</time>
      </trkpt>
      <trkpt lat="42.81401" lon="2.74479">
        <ele>98.7</ele>
        <time>2021-03-28T08:55:26Z</time>
      </trkpt>
      <trkpt lat="42.81401" lon="2.74479">
        <ele>98.7</ele>
        <time>2021-03-28T08:55:26Z</time>
      </trkpt>
      <trkpt lat="42.81397" lon="2.74485">
        <ele>98.9</ele>
        <time>2021-03-28T08:55:28Z</time>
      </trkpt>
      <trkpt lat="42.81397" lon="2.74485">
        <ele>98.9</ele>
        <time>2021-03-28T08:55:28Z</time>
      </trkpt>
      <trkpt lat="42.81392" lon="2.7449">
        <ele>99.2</ele>
        <time>2021-03-28T08:55:30Z</time>
      </trkpt>
      <trkpt lat="42.81392" lon="2.7449">
        <ele>99.2</ele>
        <time>2021-03-28T08:55:30Z</time>
      </trkpt>
      <trkpt lat="42.81389" lon="2.74494">
        <ele>99.6</ele>
        <time>2021-03-28T08:55:31Z</time>
      </trkpt>
      <trkpt lat="42.81389" lon="2.74494">
        <ele>99.6</ele>
        <time>2021-03-28T08:55:31Z</time>
      </trkpt>
      <trkpt lat="42.81386" lon="2.74498">
        <ele>99.8</ele>
        <time>2021-03-28T08:55:32Z</time>
      </trkpt>
      <trkpt lat="42.81386" lon="2.74498">
        <ele>99.8</ele>
        <time>2021-03-28T08:55:32Z</time>
      </trkpt>
      <trkpt lat="42.81383" lon="2.74502">
        <ele>100.1</ele>
        <time>2021-03-28T08:55:34Z</time>
      </trkpt>
      <trkpt lat="42.81383" lon="2.74502">
        <ele>100.1</ele>
        <time>2021-03-28T08:55:34Z</time>
      </trkpt>
      <trkpt lat="42.81381" lon="2.74507">
        <ele>100.3</ele>
        <time>2021-03-28T08:55:36Z</time>
      </trkpt>
      <trkpt lat="42.81381" lon="2.74507">
        <ele>100.3</ele>
        <time>2021-03-28T08:55:36Z</time>
      </trkpt>
      <trkpt lat="42.81379" lon="2.7451">
        <ele>100.5</ele>
        <time>2021-03-28T08:55:37Z</time>
      </trkpt>
      <trkpt lat="42.81379" lon="2.7451">
        <ele>100.5</ele>
        <time>2021-03-28T08:55:37Z</time>
      </trkpt>
      <trkpt lat="42.81377" lon="2.74512">
        <ele>100.6</ele>
        <time>2021-03-28T08:55:38Z</time>
      </trkpt>
      <trkpt lat="42.81377" lon="2.74512">
        <ele>100.6</ele>
        <time>2021-03-28T08:55:38Z</time>
      </trkpt>
      <trkpt lat="42.81375" lon="2.74512">
        <ele>100.7</ele>
        <time>2021-03-28T08:55:40Z</time>
      </trkpt>
      <trkpt lat="42.81375" lon="2.74512">
        <ele>100.7</ele>
        <time>2021-03-28T08:55:40Z</time>
      </trkpt>
      <trkpt lat="42.81372" lon="2.74511">
        <ele>100.6</ele>
        <time>2021-03-28T08:55:42Z</time>
      </trkpt>
      <trkpt lat="42.81372" lon="2.74511">
        <ele>100.6</ele>
        <time>2021-03-28T08:55:42Z</time>
      </trkpt>
      <trkpt lat="42.81368" lon="2.7451">
        <ele>100.6</ele>
        <time>2021-03-28T08:55:43Z</time>
      </trkpt>
      <trkpt lat="42.81368" lon="2.7451">
        <ele>100.6</ele>
        <time>2021-03-28T08:55:43Z</time>
      </trkpt>
      <trkpt lat="42.81364" lon="2.74508">
        <ele>100.5</ele>
        <time>2021-03-28T08:55:45Z</time>
      </trkpt>
      <trkpt lat="42.81364" lon="2.74508">
        <ele>100.5</ele>
        <time>2021-03-28T08:55:45Z</time>
      </trkpt>
      <trkpt lat="42.8136" lon="2.74505">
        <ele>100.4</ele>
        <time>2021-03-28T08:55:47Z</time>
      </trkpt>
      <trkpt lat="42.8136" lon="2.74505">
        <ele>100.4</ele>
        <time>2021-03-28T08:55:47Z</time>
      </trkpt>
      <trkpt lat="42.81355" lon="2.74502">
        <ele>100.3</ele>
        <time>2021-03-28T08:55:49Z</time>
      </trkpt>
      <trkpt lat="42.81355" lon="2.74502">
        <ele>100.3</ele>
        <time>2021-03-28T08:55:49Z</time>
      </trkpt>
      <trkpt lat="42.81351" lon="2.74498">
        <ele>100.2</ele>
        <time>2021-03-28T08:55:51Z</time>
      </trkpt>
      <trkpt lat="42.81351" lon="2.74498">
        <ele>100.2</ele>
        <time>2021-03-28T08:55:51Z</time>
      </trkpt>
      <trkpt lat="42.81346" lon="2.74494">
        <ele>100.1</ele>
        <time>2021-03-28T08:55:53Z</time>
      </trkpt>
      <trkpt lat="42.81346" lon="2.74494">
        <ele>100.1</ele>
        <time>2021-03-28T08:55:53Z</time>
      </trkpt>
      <trkpt lat="42.81341" lon="2.74491">
        <ele>100.1</ele>
        <time>2021-03-28T08:55:55Z</time>
      </trkpt>
      <trkpt lat="42.81341" lon="2.74491">
        <ele>100.1</ele>
        <time>2021-03-28T08:55:55Z</time>
      </trkpt>
      <trkpt lat="42.81335" lon="2.74488">
        <ele>100</ele>
        <time>2021-03-28T08:55:57Z</time>
      </trkpt>
      <trkpt lat="42.81335" lon="2.74488">
        <ele>100</ele>
        <time>2021-03-28T08:55:57Z</time>
      </trkpt>
      <trkpt lat="42.81331" lon="2.74485">
        <ele>100</ele>
        <time>2021-03-28T08:55:58Z</time>
      </trkpt>
      <trkpt lat="42.81331" lon="2.74485">
        <ele>100</ele>
        <time>2021-03-28T08:55:58Z</time>
      </trkpt>
      <trkpt lat="42.81326" lon="2.74483">
        <ele>100</ele>
        <time>2021-03-28T08:55:59Z</time>
      </trkpt>
      <trkpt lat="42.81326" lon="2.74483">
        <ele>100</ele>
        <time>2021-03-28T08:55:59Z</time>
      </trkpt>
      <trkpt lat="42.8132" lon="2.74479">
        <ele>100</ele>
        <time>2021-03-28T08:56:01Z</time>
      </trkpt>
      <trkpt lat="42.8132" lon="2.74479">
        <ele>100</ele>
        <time>2021-03-28T08:56:01Z</time>
      </trkpt>
      <trkpt lat="42.81314" lon="2.74476">
        <ele>100</ele>
        <time>2021-03-28T08:56:02Z</time>
      </trkpt>
      <trkpt lat="42.81314" lon="2.74476">
        <ele>100</ele>
        <time>2021-03-28T08:56:02Z</time>
      </trkpt>
      <trkpt lat="42.81308" lon="2.74472">
        <ele>99.9</ele>
        <time>2021-03-28T08:56:04Z</time>
      </trkpt>
      <trkpt lat="42.81308" lon="2.74472">
        <ele>99.9</ele>
        <time>2021-03-28T08:56:04Z</time>
      </trkpt>
      <trkpt lat="42.81302" lon="2.74469">
        <ele>99.7</ele>
        <time>2021-03-28T08:56:05Z</time>
      </trkpt>
      <trkpt lat="42.81302" lon="2.74469">
        <ele>99.7</ele>
        <time>2021-03-28T08:56:05Z</time>
      </trkpt>
      <trkpt lat="42.81295" lon="2.74467">
        <ele>99.5</ele>
        <time>2021-03-28T08:56:07Z</time>
      </trkpt>
      <trkpt lat="42.81295" lon="2.74467">
        <ele>99.5</ele>
        <time>2021-03-28T08:56:07Z</time>
      </trkpt>
      <trkpt lat="42.81287" lon="2.74465">
        <ele>99.4</ele>
        <time>2021-03-28T08:56:09Z</time>
      </trkpt>
      <trkpt lat="42.81287" lon="2.74465">
        <ele>99.4</ele>
        <time>2021-03-28T08:56:09Z</time>
      </trkpt>
      <trkpt lat="42.81281" lon="2.74463">
        <ele>99.3</ele>
        <time>2021-03-28T08:56:10Z</time>
      </trkpt>
      <trkpt lat="42.81281" lon="2.74463">
        <ele>99.3</ele>
        <time>2021-03-28T08:56:10Z</time>
      </trkpt>
      <trkpt lat="42.81274" lon="2.74462">
        <ele>99.3</ele>
        <time>2021-03-28T08:56:12Z</time>
      </trkpt>
      <trkpt lat="42.81274" lon="2.74462">
        <ele>99.3</ele>
        <time>2021-03-28T08:56:12Z</time>
      </trkpt>
      <trkpt lat="42.81267" lon="2.7446">
        <ele>99.3</ele>
        <time>2021-03-28T08:56:13Z</time>
      </trkpt>
      <trkpt lat="42.81267" lon="2.7446">
        <ele>99.3</ele>
        <time>2021-03-28T08:56:13Z</time>
      </trkpt>
      <trkpt lat="42.8126" lon="2.74458">
        <ele>99.3</ele>
        <time>2021-03-28T08:56:15Z</time>
      </trkpt>
      <trkpt lat="42.8126" lon="2.74458">
        <ele>99.3</ele>
        <time>2021-03-28T08:56:15Z</time>
      </trkpt>
      <trkpt lat="42.81253" lon="2.74456">
        <ele>99.2</ele>
        <time>2021-03-28T08:56:17Z</time>
      </trkpt>
      <trkpt lat="42.81253" lon="2.74456">
        <ele>99.2</ele>
        <time>2021-03-28T08:56:17Z</time>
      </trkpt>
      <trkpt lat="42.81245" lon="2.74454">
        <ele>99.2</ele>
        <time>2021-03-28T08:56:19Z</time>
      </trkpt>
      <trkpt lat="42.81245" lon="2.74454">
        <ele>99.2</ele>
        <time>2021-03-28T08:56:19Z</time>
      </trkpt>
      <trkpt lat="42.81239" lon="2.74453">
        <ele>99.3</ele>
        <time>2021-03-28T08:56:20Z</time>
      </trkpt>
      <trkpt lat="42.81239" lon="2.74453">
        <ele>99.3</ele>
        <time>2021-03-28T08:56:20Z</time>
      </trkpt>
      <trkpt lat="42.81231" lon="2.74452">
        <ele>99.5</ele>
        <time>2021-03-28T08:56:22Z</time>
      </trkpt>
      <trkpt lat="42.81231" lon="2.74452">
        <ele>99.5</ele>
        <time>2021-03-28T08:56:22Z</time>
      </trkpt>
      <trkpt lat="42.81225" lon="2.74452">
        <ele>99.7</ele>
        <time>2021-03-28T08:56:23Z</time>
      </trkpt>
      <trkpt lat="42.81225" lon="2.74452">
        <ele>99.7</ele>
        <time>2021-03-28T08:56:23Z</time>
      </trkpt>
      <trkpt lat="42.81218" lon="2.74451">
        <ele>99.9</ele>
        <time>2021-03-28T08:56:25Z</time>
      </trkpt>
      <trkpt lat="42.81218" lon="2.74451">
        <ele>99.9</ele>
        <time>2021-03-28T08:56:25Z</time>
      </trkpt>
      <trkpt lat="42.81211" lon="2.74449">
        <ele>100.2</ele>
        <time>2021-03-28T08:56:27Z</time>
      </trkpt>
      <trkpt lat="42.81211" lon="2.74449">
        <ele>100.2</ele>
        <time>2021-03-28T08:56:27Z</time>
      </trkpt>
      <trkpt lat="42.81205" lon="2.74448">
        <ele>100.3</ele>
        <time>2021-03-28T08:56:28Z</time>
      </trkpt>
      <trkpt lat="42.81205" lon="2.74448">
        <ele>100.3</ele>
        <time>2021-03-28T08:56:28Z</time>
      </trkpt>
      <trkpt lat="42.81199" lon="2.74447">
        <ele>100.3</ele>
        <time>2021-03-28T08:56:29Z</time>
      </trkpt>
      <trkpt lat="42.81199" lon="2.74447">
        <ele>100.3</ele>
        <time>2021-03-28T08:56:29Z</time>
      </trkpt>
      <trkpt lat="42.81193" lon="2.74446">
        <ele>100.4</ele>
        <time>2021-03-28T08:56:31Z</time>
      </trkpt>
      <trkpt lat="42.81193" lon="2.74446">
        <ele>100.4</ele>
        <time>2021-03-28T08:56:31Z</time>
      </trkpt>
      <trkpt lat="42.81186" lon="2.74444">
        <ele>100.5</ele>
        <time>2021-03-28T08:56:33Z</time>
      </trkpt>
      <trkpt lat="42.81186" lon="2.74444">
        <ele>100.5</ele>
        <time>2021-03-28T08:56:33Z</time>
      </trkpt>
      <trkpt lat="42.81179" lon="2.74442">
        <ele>100.8</ele>
        <time>2021-03-28T08:56:35Z</time>
      </trkpt>
      <trkpt lat="42.81179" lon="2.74442">
        <ele>100.8</ele>
        <time>2021-03-28T08:56:35Z</time>
      </trkpt>
      <trkpt lat="42.81172" lon="2.7444">
        <ele>101.1</ele>
        <time>2021-03-28T08:56:36Z</time>
      </trkpt>
      <trkpt lat="42.81172" lon="2.7444">
        <ele>101.1</ele>
        <time>2021-03-28T08:56:36Z</time>
      </trkpt>
      <trkpt lat="42.81167" lon="2.74438">
        <ele>101.3</ele>
        <time>2021-03-28T08:56:37Z</time>
      </trkpt>
      <trkpt lat="42.81167" lon="2.74438">
        <ele>101.3</ele>
        <time>2021-03-28T08:56:37Z</time>
      </trkpt>
      <trkpt lat="42.81162" lon="2.74437">
        <ele>101.4</ele>
        <time>2021-03-28T08:56:38Z</time>
      </trkpt>
      <trkpt lat="42.81162" lon="2.74437">
        <ele>101.4</ele>
        <time>2021-03-28T08:56:38Z</time>
      </trkpt>
      <trkpt lat="42.81156" lon="2.74435">
        <ele>101.4</ele>
        <time>2021-03-28T08:56:40Z</time>
      </trkpt>
      <trkpt lat="42.81156" lon="2.74435">
        <ele>101.4</ele>
        <time>2021-03-28T08:56:40Z</time>
      </trkpt>
      <trkpt lat="42.81151" lon="2.74433">
        <ele>101.2</ele>
        <time>2021-03-28T08:56:41Z</time>
      </trkpt>
      <trkpt lat="42.81151" lon="2.74433">
        <ele>101.2</ele>
        <time>2021-03-28T08:56:41Z</time>
      </trkpt>
      <trkpt lat="42.81145" lon="2.74432">
        <ele>101.1</ele>
        <time>2021-03-28T08:56:43Z</time>
      </trkpt>
      <trkpt lat="42.81145" lon="2.74432">
        <ele>101.1</ele>
        <time>2021-03-28T08:56:43Z</time>
      </trkpt>
      <trkpt lat="42.8114" lon="2.7443">
        <ele>100.9</ele>
        <time>2021-03-28T08:56:44Z</time>
      </trkpt>
      <trkpt lat="42.8114" lon="2.7443">
        <ele>100.9</ele>
        <time>2021-03-28T08:56:44Z</time>
      </trkpt>
      <trkpt lat="42.81135" lon="2.74428">
        <ele>100.5</ele>
        <time>2021-03-28T08:56:46Z</time>
      </trkpt>
      <trkpt lat="42.81135" lon="2.74428">
        <ele>100.5</ele>
        <time>2021-03-28T08:56:46Z</time>
      </trkpt>
      <trkpt lat="42.81131" lon="2.74427">
        <ele>100.1</ele>
        <time>2021-03-28T08:56:47Z</time>
      </trkpt>
      <trkpt lat="42.81131" lon="2.74427">
        <ele>100.1</ele>
        <time>2021-03-28T08:56:47Z</time>
      </trkpt>
      <trkpt lat="42.81127" lon="2.74425">
        <ele>99.8</ele>
        <time>2021-03-28T08:56:48Z</time>
      </trkpt>
      <trkpt lat="42.81127" lon="2.74425">
        <ele>99.8</ele>
        <time>2021-03-28T08:56:48Z</time>
      </trkpt>
      <trkpt lat="42.81125" lon="2.74424">
        <ele>99.4</ele>
        <time>2021-03-28T08:56:50Z</time>
      </trkpt>
      <trkpt lat="42.81125" lon="2.74424">
        <ele>99.4</ele>
        <time>2021-03-28T08:56:50Z</time>
      </trkpt>
      <trkpt lat="42.81124" lon="2.74422">
        <ele>99.1</ele>
        <time>2021-03-28T08:56:51Z</time>
      </trkpt>
      <trkpt lat="42.81124" lon="2.74422">
        <ele>99.1</ele>
        <time>2021-03-28T08:56:51Z</time>
      </trkpt>
      <trkpt lat="42.81123" lon="2.74421">
        <ele>98.9</ele>
        <time>2021-03-28T08:56:53Z</time>
      </trkpt>
      <trkpt lat="42.81123" lon="2.74421">
        <ele>98.9</ele>
        <time>2021-03-28T08:56:53Z</time>
      </trkpt>
      <trkpt lat="42.8112" lon="2.74425">
        <ele>99.5</ele>
        <time>2021-03-28T09:11:55Z</time>
      </trkpt>
      <trkpt lat="42.8112" lon="2.74425">
        <ele>99.5</ele>
        <time>2021-03-28T09:11:55Z</time>
      </trkpt>
      <trkpt lat="42.81119" lon="2.74425">
        <ele>99.6</ele>
        <time>2021-03-28T09:11:57Z</time>
      </trkpt>
      <trkpt lat="42.81119" lon="2.74425">
        <ele>99.6</ele>
        <time>2021-03-28T09:11:57Z</time>
      </trkpt>
      <trkpt lat="42.81116" lon="2.74425">
        <ele>99.6</ele>
        <time>2021-03-28T09:11:59Z</time>
      </trkpt>
      <trkpt lat="42.81116" lon="2.74425">
        <ele>99.6</ele>
        <time>2021-03-28T09:11:59Z</time>
      </trkpt>
      <trkpt lat="42.81112" lon="2.74426">
        <ele>99.6</ele>
        <time>2021-03-28T09:12:00Z</time>
      </trkpt>
      <trkpt lat="42.81112" lon="2.74426">
        <ele>99.6</ele>
        <time>2021-03-28T09:12:00Z</time>
      </trkpt>
      <trkpt lat="42.81107" lon="2.74428">
        <ele>99.8</ele>
        <time>2021-03-28T09:12:02Z</time>
      </trkpt>
      <trkpt lat="42.81107" lon="2.74428">
        <ele>25</ele>
        <time>2021-03-28T09:12:02Z</time>
      </trkpt>
      <trkpt lat="42.81102" lon="2.7443">
        <ele>100</ele>
        <time>2021-03-28T09:12:03Z</time>
      </trkpt>
      <trkpt lat="42.81102" lon="2.7443">
        <ele>25</ele>
        <time>2021-03-28T09:12:03Z</time>
      </trkpt>
      <trkpt lat="42.81097" lon="2.74432">
        <ele>100.3</ele>
        <time>2021-03-28T09:12:04Z</time>
      </trkpt>
      <trkpt lat="42.81097" lon="2.74432">
        <ele>25</ele>
        <time>2021-03-28T09:12:04Z</time>
      </trkpt>
      <trkpt lat="42.81092" lon="2.74434">
        <ele>100.6</ele>
        <time>2021-03-28T09:12:05Z</time>
      </trkpt>
      <trkpt lat="42.81092" lon="2.74434">
        <ele>25</ele>
        <time>2021-03-28T09:12:05Z</time>
      </trkpt>
      <trkpt lat="42.81086" lon="2.74436">
        <ele>101</ele>
        <time>2021-03-28T09:12:07Z</time>
      </trkpt>
      <trkpt lat="42.81086" lon="2.74436">
        <ele>25</ele>
        <time>2021-03-28T09:12:07Z</time>
      </trkpt>
      <trkpt lat="42.81081" lon="2.74438">
        <ele>101.3</ele>
        <time>2021-03-28T09:12:08Z</time>
      </trkpt>
      <trkpt lat="42.81081" lon="2.74438">
        <ele>25</ele>
        <time>2021-03-28T09:12:08Z</time>
      </trkpt>
      <trkpt lat="42.81076" lon="2.7444">
        <ele>101.3</ele>
        <time>2021-03-28T09:12:10Z</time>
      </trkpt>
      <trkpt lat="42.81076" lon="2.7444">
        <ele>25</ele>
        <time>2021-03-28T09:12:10Z</time>
      </trkpt>
      <trkpt lat="42.81071" lon="2.74442">
        <ele>101.2</ele>
        <time>2021-03-28T09:12:12Z</time>
      </trkpt>
      <trkpt lat="42.81071" lon="2.74442">
        <ele>25</ele>
        <time>2021-03-28T09:12:12Z</time>
      </trkpt>
      <trkpt lat="42.81066" lon="2.74444">
        <ele>101</ele>
        <time>2021-03-28T09:12:13Z</time>
      </trkpt>
      <trkpt lat="42.81066" lon="2.74444">
        <ele>25</ele>
        <time>2021-03-28T09:12:13Z</time>
      </trkpt>
      <trkpt lat="42.81063" lon="2.74445">
        <ele>100.9</ele>
        <time>2021-03-28T09:12:14Z</time>
      </trkpt>
      <trkpt lat="42.81063" lon="2.74445">
        <ele>25</ele>
        <time>2021-03-28T09:12:14Z</time>
      </trkpt>
      <trkpt lat="42.81059" lon="2.74447">
        <ele>101.1</ele>
        <time>2021-03-28T09:12:16Z</time>
      </trkpt>
      <trkpt lat="42.81059" lon="2.74447">
        <ele>25</ele>
        <time>2021-03-28T09:12:16Z</time>
      </trkpt>
      <trkpt lat="42.81055" lon="2.74449">
        <ele>101.2</ele>
        <time>2021-03-28T09:12:17Z</time>
      </trkpt>
      <trkpt lat="42.81055" lon="2.74449">
        <ele>25</ele>
        <time>2021-03-28T09:12:17Z</time>
      </trkpt>
      <trkpt lat="42.81051" lon="2.74451">
        <ele>101.3</ele>
        <time>2021-03-28T09:12:18Z</time>
      </trkpt>
      <trkpt lat="42.81051" lon="2.74451">
        <ele>25</ele>
        <time>2021-03-28T09:12:18Z</time>
      </trkpt>
      <trkpt lat="42.81045" lon="2.74452">
        <ele>101.3</ele>
        <time>2021-03-28T09:12:20Z</time>
      </trkpt>
      <trkpt lat="42.81045" lon="2.74452">
        <ele>25</ele>
        <time>2021-03-28T09:12:20Z</time>
      </trkpt>
      <trkpt lat="42.81039" lon="2.74454">
        <ele>101.2</ele>
        <time>2021-03-28T09:12:22Z</time>
      </trkpt>
      <trkpt lat="42.81039" lon="2.74454">
        <ele>25</ele>
        <time>2021-03-28T09:12:22Z</time>
      </trkpt>
      <trkpt lat="42.81032" lon="2.74457">
        <ele>101.3</ele>
        <time>2021-03-28T09:12:24Z</time>
      </trkpt>
      <trkpt lat="42.81032" lon="2.74457">
        <ele>25</ele>
        <time>2021-03-28T09:12:24Z</time>
      </trkpt>
      <trkpt lat="42.81023" lon="2.74458">
        <ele>101.3</ele>
        <time>2021-03-28T09:12:26Z</time>
      </trkpt>
      <trkpt lat="42.81023" lon="2.74458">
        <ele>25</ele>
        <time>2021-03-28T09:12:26Z</time>
      </trkpt>
      <trkpt lat="42.81013" lon="2.7446">
        <ele>101.1</ele>
        <time>2021-03-28T09:12:28Z</time>
      </trkpt>
      <trkpt lat="42.81013" lon="2.7446">
        <ele>25</ele>
        <time>2021-03-28T09:12:28Z</time>
      </trkpt>
      <trkpt lat="42.81003" lon="2.74459">
        <ele>100.3</ele>
        <time>2021-03-28T09:12:30Z</time>
      </trkpt>
      <trkpt lat="42.81003" lon="2.74459">
        <ele>25</ele>
        <time>2021-03-28T09:12:30Z</time>
      </trkpt>
      <trkpt lat="42.80991" lon="2.74457">
        <ele>100.9</ele>
        <time>2021-03-28T09:12:32Z</time>
      </trkpt>
      <trkpt lat="42.80991" lon="2.74457">
        <ele>25</ele>
        <time>2021-03-28T09:12:32Z</time>
      </trkpt>
      <trkpt lat="42.80979" lon="2.74455">
        <ele>101.5</ele>
        <time>2021-03-28T09:12:34Z</time>
      </trkpt>
      <trkpt lat="42.80979" lon="2.74455">
        <ele>25</ele>
        <time>2021-03-28T09:12:34Z</time>
      </trkpt>
      <trkpt lat="42.80969" lon="2.74453">
        <ele>100.7</ele>
        <time>2021-03-28T09:12:35Z</time>
      </trkpt>
      <trkpt lat="42.80969" lon="2.74453">
        <ele>25</ele>
        <time>2021-03-28T09:12:35Z</time>
      </trkpt>
      <trkpt lat="42.80957" lon="2.74454">
        <ele>98.8</ele>
        <time>2021-03-28T09:12:37Z</time>
      </trkpt>
      <trkpt lat="42.80957" lon="2.74454">
        <ele>25</ele>
        <time>2021-03-28T09:12:37Z</time>
      </trkpt>
      <trkpt lat="42.80947" lon="2.74457">
        <ele>97.1</ele>
        <time>2021-03-28T09:12:38Z</time>
      </trkpt>
      <trkpt lat="42.80947" lon="2.74457">
        <ele>25</ele>
        <time>2021-03-28T09:12:38Z</time>
      </trkpt>
      <trkpt lat="42.80938" lon="2.74459">
        <ele>96.4</ele>
        <time>2021-03-28T09:12:39Z</time>
      </trkpt>
      <trkpt lat="42.80938" lon="2.74459">
        <ele>25</ele>
        <time>2021-03-28T09:12:39Z</time>
      </trkpt>
      <trkpt lat="42.80927" lon="2.74463">
        <ele>95.9</ele>
        <time>2021-03-28T09:12:41Z</time>
      </trkpt>
      <trkpt lat="42.80927" lon="2.74463">
        <ele>25</ele>
        <time>2021-03-28T09:12:41Z</time>
      </trkpt>
      <trkpt lat="42.80918" lon="2.74467">
        <ele>95.4</ele>
        <time>2021-03-28T09:12:42Z</time>
      </trkpt>
      <trkpt lat="42.80918" lon="2.74467">
        <ele>25</ele>
        <time>2021-03-28T09:12:42Z</time>
      </trkpt>
      <trkpt lat="42.8091" lon="2.7447">
        <ele>95.1</ele>
        <time>2021-03-28T09:12:43Z</time>
      </trkpt>
      <trkpt lat="42.8091" lon="2.7447">
        <ele>25</ele>
        <time>2021-03-28T09:12:43Z</time>
      </trkpt>
      <trkpt lat="42.80899" lon="2.74473">
        <ele>95</ele>
        <time>2021-03-28T09:12:45Z</time>
      </trkpt>
      <trkpt lat="42.80899" lon="2.74473">
        <ele>25</ele>
        <time>2021-03-28T09:12:45Z</time>
      </trkpt>
      <trkpt lat="42.8089" lon="2.74477">
        <ele>94.9</ele>
        <time>2021-03-28T09:12:46Z</time>
      </trkpt>
      <trkpt lat="42.8089" lon="2.74477">
        <ele>25</ele>
        <time>2021-03-28T09:12:46Z</time>
      </trkpt>
      <trkpt lat="42.80882" lon="2.7448">
        <ele>94.5</ele>
        <time>2021-03-28T09:12:47Z</time>
      </trkpt>
      <trkpt lat="42.80882" lon="2.7448">
        <ele>25</ele>
        <time>2021-03-28T09:12:47Z</time>
      </trkpt>
      <trkpt lat="42.80873" lon="2.74483">
        <ele>93.7</ele>
        <time>2021-03-28T09:12:49Z</time>
      </trkpt>
      <trkpt lat="42.80873" lon="2.74483">
        <ele>25</ele>
        <time>2021-03-28T09:12:49Z</time>
      </trkpt>
      <trkpt lat="42.80864" lon="2.74485">
        <ele>92.8</ele>
        <time>2021-03-28T09:12:50Z</time>
      </trkpt>
      <trkpt lat="42.80864" lon="2.74485">
        <ele>25</ele>
        <time>2021-03-28T09:12:50Z</time>
      </trkpt>
      <trkpt lat="42.80855" lon="2.74487">
        <ele>92.7</ele>
        <time>2021-03-28T09:12:52Z</time>
      </trkpt>
      <trkpt lat="42.80855" lon="2.74487">
        <ele>25</ele>
        <time>2021-03-28T09:12:52Z</time>
      </trkpt>
      <trkpt lat="42.80846" lon="2.74489">
        <ele>93.2</ele>
        <time>2021-03-28T09:12:54Z</time>
      </trkpt>
      <trkpt lat="42.80846" lon="2.74489">
        <ele>25</ele>
        <time>2021-03-28T09:12:54Z</time>
      </trkpt>
      <trkpt lat="42.80837" lon="2.7449">
        <ele>93.7</ele>
        <time>2021-03-28T09:12:55Z</time>
      </trkpt>
      <trkpt lat="42.80837" lon="2.7449">
        <ele>25</ele>
        <time>2021-03-28T09:12:55Z</time>
      </trkpt>
      <trkpt lat="42.80828" lon="2.74491">
        <ele>94</ele>
        <time>2021-03-28T09:12:57Z</time>
      </trkpt>
      <trkpt lat="42.80828" lon="2.74491">
        <ele>25</ele>
        <time>2021-03-28T09:12:57Z</time>
      </trkpt>
      <trkpt lat="42.8082" lon="2.74491">
        <ele>94.2</ele>
        <time>2021-03-28T09:12:58Z</time>
      </trkpt>
      <trkpt lat="42.8082" lon="2.74491">
        <ele>25</ele>
        <time>2021-03-28T09:12:58Z</time>
      </trkpt>
      <trkpt lat="42.80813" lon="2.74491">
        <ele>94.3</ele>
        <time>2021-03-28T09:12:59Z</time>
      </trkpt>
      <trkpt lat="42.80813" lon="2.74491">
        <ele>25</ele>
        <time>2021-03-28T09:12:59Z</time>
      </trkpt>
      <trkpt lat="42.80807" lon="2.7449">
        <ele>94.2</ele>
        <time>2021-03-28T09:13:00Z</time>
      </trkpt>
      <trkpt lat="42.80807" lon="2.7449">
        <ele>25</ele>
        <time>2021-03-28T09:13:00Z</time>
      </trkpt>
      <trkpt lat="42.80802" lon="2.74489">
        <ele>94.5</ele>
        <time>2021-03-28T09:13:01Z</time>
      </trkpt>
      <trkpt lat="42.80802" lon="2.74489">
        <ele>25</ele>
        <time>2021-03-28T09:13:01Z</time>
      </trkpt>
      <trkpt lat="42.80795" lon="2.74487">
        <ele>95</ele>
        <time>2021-03-28T09:13:03Z</time>
      </trkpt>
      <trkpt lat="42.80795" lon="2.74487">
        <ele>25</ele>
        <time>2021-03-28T09:13:03Z</time>
      </trkpt>
      <trkpt lat="42.80788" lon="2.74485">
        <ele>95.6</ele>
        <time>2021-03-28T09:13:04Z</time>
      </trkpt>
      <trkpt lat="42.80788" lon="2.74485">
        <ele>25</ele>
        <time>2021-03-28T09:13:04Z</time>
      </trkpt>
      <trkpt lat="42.80779" lon="2.74482">
        <ele>96.2</ele>
        <time>2021-03-28T09:13:06Z</time>
      </trkpt>
      <trkpt lat="42.80779" lon="2.74482">
        <ele>25</ele>
        <time>2021-03-28T09:13:06Z</time>
      </trkpt>
      <trkpt lat="42.80772" lon="2.74479">
        <ele>96.5</ele>
        <time>2021-03-28T09:13:07Z</time>
      </trkpt>
      <trkpt lat="42.80772" lon="2.74479">
        <ele>25</ele>
        <time>2021-03-28T09:13:07Z</time>
      </trkpt>
      <trkpt lat="42.80764" lon="2.74475">
        <ele>96.5</ele>
        <time>2021-03-28T09:13:09Z</time>
      </trkpt>
      <trkpt lat="42.80764" lon="2.74475">
        <ele>25</ele>
        <time>2021-03-28T09:13:09Z</time>
      </trkpt>
      <trkpt lat="42.80756" lon="2.74472">
        <ele>96.5</ele>
        <time>2021-03-28T09:13:10Z</time>
      </trkpt>
      <trkpt lat="42.80756" lon="2.74472">
        <ele>25</ele>
        <time>2021-03-28T09:13:10Z</time>
      </trkpt>
      <trkpt lat="42.80748" lon="2.74467">
        <ele>96.5</ele>
        <time>2021-03-28T09:13:12Z</time>
      </trkpt>
      <trkpt lat="42.80748" lon="2.74467">
        <ele>25</ele>
        <time>2021-03-28T09:13:12Z</time>
      </trkpt>
      <trkpt lat="42.80741" lon="2.74463">
        <ele>97.5</ele>
        <time>2021-03-28T09:13:13Z</time>
      </trkpt>
      <trkpt lat="42.80741" lon="2.74463">
        <ele>25</ele>
        <time>2021-03-28T09:13:13Z</time>
      </trkpt>
      <trkpt lat="42.80735" lon="2.74459">
        <ele>98.4</ele>
        <time>2021-03-28T09:13:14Z</time>
      </trkpt>
      <trkpt lat="42.80735" lon="2.74459">
        <ele>25</ele>
        <time>2021-03-28T09:13:14Z</time>
      </trkpt>
      <trkpt lat="42.80729" lon="2.74455">
        <ele>99.1</ele>
        <time>2021-03-28T09:13:15Z</time>
      </trkpt>
      <trkpt lat="42.80729" lon="2.74455">
        <ele>25</ele>
        <time>2021-03-28T09:13:15Z</time>
      </trkpt>
      <trkpt lat="42.80724" lon="2.7445">
        <ele>99.6</ele>
        <time>2021-03-28T09:13:17Z</time>
      </trkpt>
      <trkpt lat="42.80724" lon="2.7445">
        <ele>25</ele>
        <time>2021-03-28T09:13:17Z</time>
      </trkpt>
      <trkpt lat="42.8072" lon="2.74444">
        <ele>100</ele>
        <time>2021-03-28T09:13:18Z</time>
      </trkpt>
      <trkpt lat="42.8072" lon="2.74444">
        <ele>25</ele>
        <time>2021-03-28T09:13:18Z</time>
      </trkpt>
      <trkpt lat="42.80717" lon="2.74439">
        <ele>100.5</ele>
        <time>2021-03-28T09:13:19Z</time>
      </trkpt>
      <trkpt lat="42.80717" lon="2.74439">
        <ele>25</ele>
        <time>2021-03-28T09:13:19Z</time>
      </trkpt>
      <trkpt lat="42.80715" lon="2.74432">
        <ele>101</ele>
        <time>2021-03-28T09:13:21Z</time>
      </trkpt>
      <trkpt lat="42.80715" lon="2.74432">
        <ele>25</ele>
        <time>2021-03-28T09:13:21Z</time>
      </trkpt>
      <trkpt lat="42.80712" lon="2.74424">
        <ele>101.5</ele>
        <time>2021-03-28T09:13:23Z</time>
      </trkpt>
      <trkpt lat="42.80712" lon="2.74424">
        <ele>25</ele>
        <time>2021-03-28T09:13:23Z</time>
      </trkpt>
      <trkpt lat="42.8071" lon="2.74416">
        <ele>102.2</ele>
        <time>2021-03-28T09:13:25Z</time>
      </trkpt>
      <trkpt lat="42.8071" lon="2.74416">
        <ele>25</ele>
        <time>2021-03-28T09:13:25Z</time>
      </trkpt>
      <trkpt lat="42.80708" lon="2.74409">
        <ele>102.8</ele>
        <time>2021-03-28T09:13:26Z</time>
      </trkpt>
      <trkpt lat="42.80708" lon="2.74409">
        <ele>25</ele>
        <time>2021-03-28T09:13:26Z</time>
      </trkpt>
      <trkpt lat="42.80706" lon="2.744">
        <ele>103.5</ele>
        <time>2021-03-28T09:13:28Z</time>
      </trkpt>
      <trkpt lat="42.80706" lon="2.744">
        <ele>25</ele>
        <time>2021-03-28T09:13:28Z</time>
      </trkpt>
      <trkpt lat="42.80704" lon="2.7439">
        <ele>104.5</ele>
        <time>2021-03-28T09:13:30Z</time>
      </trkpt>
      <trkpt lat="42.80704" lon="2.7439">
        <ele>25</ele>
        <time>2021-03-28T09:13:30Z</time>
      </trkpt>
      <trkpt lat="42.80702" lon="2.7438">
        <ele>108.4</ele>
        <time>2021-03-28T09:13:32Z</time>
      </trkpt>
      <trkpt lat="42.80702" lon="2.7438">
        <ele>25</ele>
        <time>2021-03-28T09:13:32Z</time>
      </trkpt>
      <trkpt lat="42.807" lon="2.7437">
        <ele>113.1</ele>
        <time>2021-03-28T09:13:34Z</time>
      </trkpt>
      <trkpt lat="42.807" lon="2.7437">
        <ele>25</ele>
        <time>2021-03-28T09:13:34Z</time>
      </trkpt>
      <trkpt lat="42.80699" lon="2.74362">
        <ele>117</ele>
        <time>2021-03-28T09:13:35Z</time>
      </trkpt>
      <trkpt lat="42.80699" lon="2.74362">
        <ele>25</ele>
        <time>2021-03-28T09:13:35Z</time>
      </trkpt>
      <trkpt lat="42.80699" lon="2.74353">
        <ele>115.6</ele>
        <time>2021-03-28T09:13:37Z</time>
      </trkpt>
      <trkpt lat="42.80699" lon="2.74353">
        <ele>25</ele>
        <time>2021-03-28T09:13:37Z</time>
      </trkpt>
      <trkpt lat="42.80698" lon="2.74344">
        <ele>113.6</ele>
        <time>2021-03-28T09:13:38Z</time>
      </trkpt>
      <trkpt lat="42.80698" lon="2.74344">
        <ele>25</ele>
        <time>2021-03-28T09:13:38Z</time>
      </trkpt>
      <trkpt lat="42.80698" lon="2.74337">
        <ele>112</ele>
        <time>2021-03-28T09:13:39Z</time>
      </trkpt>
      <trkpt lat="42.80698" lon="2.74337">
        <ele>25</ele>
        <time>2021-03-28T09:13:39Z</time>
      </trkpt>
      <trkpt lat="42.80697" lon="2.74331">
        <ele>112.8</ele>
        <time>2021-03-28T09:13:40Z</time>
      </trkpt>
      <trkpt lat="42.80697" lon="2.74331">
        <ele>25</ele>
        <time>2021-03-28T09:13:40Z</time>
      </trkpt>
      <trkpt lat="42.80697" lon="2.74323">
        <ele>117.6</ele>
        <time>2021-03-28T09:13:42Z</time>
      </trkpt>
      <trkpt lat="42.80697" lon="2.74323">
        <ele>25</ele>
        <time>2021-03-28T09:13:42Z</time>
      </trkpt>
      <trkpt lat="42.80697" lon="2.74317">
        <ele>121.2</ele>
        <time>2021-03-28T09:13:43Z</time>
      </trkpt>
      <trkpt lat="42.80697" lon="2.74317">
        <ele>25</ele>
        <time>2021-03-28T09:13:43Z</time>
      </trkpt>
      <trkpt lat="42.80697" lon="2.7431">
        <ele>125</ele>
        <time>2021-03-28T09:13:45Z</time>
      </trkpt>
      <trkpt lat="42.80697" lon="2.7431">
        <ele>25</ele>
        <time>2021-03-28T09:13:45Z</time>
      </trkpt>
      <trkpt lat="42.80697" lon="2.74304">
        <ele>126.3</ele>
        <time>2021-03-28T09:13:46Z</time>
      </trkpt>
      <trkpt lat="42.80697" lon="2.74304">
        <ele>25</ele>
        <time>2021-03-28T09:13:46Z</time>
      </trkpt>
      <trkpt lat="42.80698" lon="2.74296">
        <ele>122.6</ele>
        <time>2021-03-28T09:13:48Z</time>
      </trkpt>
      <trkpt lat="42.80698" lon="2.74296">
        <ele>25</ele>
        <time>2021-03-28T09:13:48Z</time>
      </trkpt>
      <trkpt lat="42.80698" lon="2.74289">
        <ele>119.7</ele>
        <time>2021-03-28T09:13:49Z</time>
      </trkpt>
      <trkpt lat="42.80698" lon="2.74289">
        <ele>25</ele>
        <time>2021-03-28T09:13:49Z</time>
      </trkpt>
      <trkpt lat="42.80699" lon="2.74282">
        <ele>116.7</ele>
        <time>2021-03-28T09:13:51Z</time>
      </trkpt>
      <trkpt lat="42.80699" lon="2.74282">
        <ele>25</ele>
        <time>2021-03-28T09:13:51Z</time>
      </trkpt>
      <trkpt lat="42.807" lon="2.74276">
        <ele>114.3</ele>
        <time>2021-03-28T09:13:52Z</time>
      </trkpt>
      <trkpt lat="42.807" lon="2.74276">
        <ele>25</ele>
        <time>2021-03-28T09:13:52Z</time>
      </trkpt>
      <trkpt lat="42.80701" lon="2.7427">
        <ele>112.5</ele>
        <time>2021-03-28T09:13:54Z</time>
      </trkpt>
      <trkpt lat="42.80701" lon="2.7427">
        <ele>25</ele>
        <time>2021-03-28T09:13:54Z</time>
      </trkpt>
      <trkpt lat="42.80702" lon="2.74264">
        <ele>110.1</ele>
        <time>2021-03-28T09:13:56Z</time>
      </trkpt>
      <trkpt lat="42.80702" lon="2.74264">
        <ele>25</ele>
        <time>2021-03-28T09:13:56Z</time>
      </trkpt>
      <trkpt lat="42.80704" lon="2.74257">
        <ele>108</ele>
        <time>2021-03-28T09:13:58Z</time>
      </trkpt>
      <trkpt lat="42.80704" lon="2.74257">
        <ele>25</ele>
        <time>2021-03-28T09:13:58Z</time>
      </trkpt>
      <trkpt lat="42.80706" lon="2.74252">
        <ele>106.4</ele>
        <time>2021-03-28T09:13:59Z</time>
      </trkpt>
      <trkpt lat="42.80706" lon="2.74252">
        <ele>25</ele>
        <time>2021-03-28T09:13:59Z</time>
      </trkpt>
      <trkpt lat="42.80707" lon="2.74246">
        <ele>105.1</ele>
        <time>2021-03-28T09:14:01Z</time>
      </trkpt>
      <trkpt lat="42.80707" lon="2.74246">
        <ele>25</ele>
        <time>2021-03-28T09:14:01Z</time>
      </trkpt>
      <trkpt lat="42.80708" lon="2.7424">
        <ele>104.4</ele>
        <time>2021-03-28T09:14:02Z</time>
      </trkpt>
      <trkpt lat="42.80708" lon="2.7424">
        <ele>25</ele>
        <time>2021-03-28T09:14:02Z</time>
      </trkpt>
      <trkpt lat="42.80709" lon="2.74235">
        <ele>103.8</ele>
        <time>2021-03-28T09:14:03Z</time>
      </trkpt>
      <trkpt lat="42.80709" lon="2.74235">
        <ele>25</ele>
        <time>2021-03-28T09:14:03Z</time>
      </trkpt>
      <trkpt lat="42.80709" lon="2.74229">
        <ele>103.4</ele>
        <time>2021-03-28T09:14:05Z</time>
      </trkpt>
      <trkpt lat="42.80709" lon="2.74229">
        <ele>25</ele>
        <time>2021-03-28T09:14:05Z</time>
      </trkpt>
      <trkpt lat="42.80711" lon="2.74222">
        <ele>102.8</ele>
        <time>2021-03-28T09:14:07Z</time>
      </trkpt>
      <trkpt lat="42.80711" lon="2.74222">
        <ele>25</ele>
        <time>2021-03-28T09:14:07Z</time>
      </trkpt>
      <trkpt lat="42.80712" lon="2.74216">
        <ele>103.5</ele>
        <time>2021-03-28T09:14:09Z</time>
      </trkpt>
      <trkpt lat="42.80712" lon="2.74216">
        <ele>25</ele>
        <time>2021-03-28T09:14:09Z</time>
      </trkpt>
      <trkpt lat="42.80714" lon="2.74209">
        <ele>103.9</ele>
        <time>2021-03-28T09:14:11Z</time>
      </trkpt>
      <trkpt lat="42.80714" lon="2.74209">
        <ele>25</ele>
        <time>2021-03-28T09:14:11Z</time>
      </trkpt>
      <trkpt lat="42.80717" lon="2.74201">
        <ele>104.4</ele>
        <time>2021-03-28T09:14:13Z</time>
      </trkpt>
      <trkpt lat="42.80717" lon="2.74201">
        <ele>25</ele>
        <time>2021-03-28T09:14:13Z</time>
      </trkpt>
      <trkpt lat="42.80719" lon="2.74195">
        <ele>104.8</ele>
        <time>2021-03-28T09:14:14Z</time>
      </trkpt>
      <trkpt lat="42.80719" lon="2.74195">
        <ele>25</ele>
        <time>2021-03-28T09:14:14Z</time>
      </trkpt>
      <trkpt lat="42.8072" lon="2.7419">
        <ele>104.8</ele>
        <time>2021-03-28T09:14:15Z</time>
      </trkpt>
      <trkpt lat="42.8072" lon="2.7419">
        <ele>25</ele>
        <time>2021-03-28T09:14:15Z</time>
      </trkpt>
      <trkpt lat="42.80722" lon="2.74184">
        <ele>104.7</ele>
        <time>2021-03-28T09:14:17Z</time>
      </trkpt>
      <trkpt lat="42.80722" lon="2.74184">
        <ele>25</ele>
        <time>2021-03-28T09:14:17Z</time>
      </trkpt>
      <trkpt lat="42.80724" lon="2.7418">
        <ele>104.7</ele>
        <time>2021-03-28T09:14:18Z</time>
      </trkpt>
      <trkpt lat="42.80724" lon="2.7418">
        <ele>25</ele>
        <time>2021-03-28T09:14:18Z</time>
      </trkpt>
      <trkpt lat="42.80726" lon="2.74176">
        <ele>104.6</ele>
        <time>2021-03-28T09:14:20Z</time>
      </trkpt>
      <trkpt lat="42.80726" lon="2.74176">
        <ele>25</ele>
        <time>2021-03-28T09:14:20Z</time>
      </trkpt>
      <trkpt lat="42.80728" lon="2.7417">
        <ele>104.4</ele>
        <time>2021-03-28T09:14:22Z</time>
      </trkpt>
      <trkpt lat="42.80728" lon="2.7417">
        <ele>25</ele>
        <time>2021-03-28T09:14:22Z</time>
      </trkpt>
      <trkpt lat="42.8073" lon="2.74165">
        <ele>104.1</ele>
        <time>2021-03-28T09:14:23Z</time>
      </trkpt>
      <trkpt lat="42.8073" lon="2.74165">
        <ele>25</ele>
        <time>2021-03-28T09:14:23Z</time>
      </trkpt>
      <trkpt lat="42.80733" lon="2.74159">
        <ele>104.3</ele>
        <time>2021-03-28T09:14:25Z</time>
      </trkpt>
      <trkpt lat="42.80733" lon="2.74159">
        <ele>25</ele>
        <time>2021-03-28T09:14:25Z</time>
      </trkpt>
      <trkpt lat="42.80736" lon="2.74153">
        <ele>104.3</ele>
        <time>2021-03-28T09:14:27Z</time>
      </trkpt>
      <trkpt lat="42.80736" lon="2.74153">
        <ele>25</ele>
        <time>2021-03-28T09:14:27Z</time>
      </trkpt>
      <trkpt lat="42.80739" lon="2.74147">
        <ele>104.6</ele>
        <time>2021-03-28T09:14:28Z</time>
      </trkpt>
      <trkpt lat="42.80739" lon="2.74147">
        <ele>25</ele>
        <time>2021-03-28T09:14:28Z</time>
      </trkpt>
      <trkpt lat="42.80741" lon="2.74141">
        <ele>105.1</ele>
        <time>2021-03-28T09:14:30Z</time>
      </trkpt>
      <trkpt lat="42.80741" lon="2.74141">
        <ele>25</ele>
        <time>2021-03-28T09:14:30Z</time>
      </trkpt>
      <trkpt lat="42.80744" lon="2.74135">
        <ele>105.4</ele>
        <time>2021-03-28T09:14:31Z</time>
      </trkpt>
      <trkpt lat="42.80744" lon="2.74135">
        <ele>25</ele>
        <time>2021-03-28T09:14:31Z</time>
      </trkpt>
      <trkpt lat="42.80746" lon="2.74129">
        <ele>105.8</ele>
        <time>2021-03-28T09:14:32Z</time>
      </trkpt>
      <trkpt lat="42.80746" lon="2.74129">
        <ele>25</ele>
        <time>2021-03-28T09:14:32Z</time>
      </trkpt>
      <trkpt lat="42.80748" lon="2.74121">
        <ele>106.7</ele>
        <time>2021-03-28T09:14:34Z</time>
      </trkpt>
      <trkpt lat="42.80748" lon="2.74121">
        <ele>25</ele>
        <time>2021-03-28T09:14:34Z</time>
      </trkpt>
      <trkpt lat="42.80749" lon="2.74114">
        <ele>107.9</ele>
        <time>2021-03-28T09:14:35Z</time>
      </trkpt>
      <trkpt lat="42.80749" lon="2.74114">
        <ele>25</ele>
        <time>2021-03-28T09:14:35Z</time>
      </trkpt>
      <trkpt lat="42.80749" lon="2.74105">
        <ele>107.5</ele>
        <time>2021-03-28T09:14:37Z</time>
      </trkpt>
      <trkpt lat="42.80749" lon="2.74105">
        <ele>25</ele>
        <time>2021-03-28T09:14:37Z</time>
      </trkpt>
      <trkpt lat="42.80747" lon="2.74096">
        <ele>106.6</ele>
        <time>2021-03-28T09:14:39Z</time>
      </trkpt>
      <trkpt lat="42.80747" lon="2.74096">
        <ele>25</ele>
        <time>2021-03-28T09:14:39Z</time>
      </trkpt>
      <trkpt lat="42.80745" lon="2.74087">
        <ele>106.2</ele>
        <time>2021-03-28T09:14:40Z</time>
      </trkpt>
      <trkpt lat="42.80745" lon="2.74087">
        <ele>25</ele>
        <time>2021-03-28T09:14:40Z</time>
      </trkpt>
      <trkpt lat="42.80743" lon="2.7408">
        <ele>106</ele>
        <time>2021-03-28T09:14:41Z</time>
      </trkpt>
      <trkpt lat="42.80743" lon="2.7408">
        <ele>25</ele>
        <time>2021-03-28T09:14:41Z</time>
      </trkpt>
      <trkpt lat="42.8074" lon="2.74071">
        <ele>105.9</ele>
        <time>2021-03-28T09:14:43Z</time>
      </trkpt>
      <trkpt lat="42.8074" lon="2.74071">
        <ele>25</ele>
        <time>2021-03-28T09:14:43Z</time>
      </trkpt>
      <trkpt lat="42.80736" lon="2.74061">
        <ele>106.6</ele>
        <time>2021-03-28T09:14:45Z</time>
      </trkpt>
      <trkpt lat="42.80736" lon="2.74061">
        <ele>25</ele>
        <time>2021-03-28T09:14:45Z</time>
      </trkpt>
      <trkpt lat="42.80732" lon="2.74053">
        <ele>107.7</ele>
        <time>2021-03-28T09:14:46Z</time>
      </trkpt>
      <trkpt lat="42.80732" lon="2.74053">
        <ele>25</ele>
        <time>2021-03-28T09:14:46Z</time>
      </trkpt>
      <trkpt lat="42.80728" lon="2.74043">
        <ele>107.5</ele>
        <time>2021-03-28T09:14:48Z</time>
      </trkpt>
      <trkpt lat="42.80728" lon="2.74043">
        <ele>25</ele>
        <time>2021-03-28T09:14:48Z</time>
      </trkpt>
      <trkpt lat="42.80724" lon="2.74034">
        <ele>106.8</ele>
        <time>2021-03-28T09:14:49Z</time>
      </trkpt>
      <trkpt lat="42.80724" lon="2.74034">
        <ele>25</ele>
        <time>2021-03-28T09:14:49Z</time>
      </trkpt>
      <trkpt lat="42.8072" lon="2.74024">
        <ele>105.6</ele>
        <time>2021-03-28T09:14:51Z</time>
      </trkpt>
      <trkpt lat="42.8072" lon="2.74024">
        <ele>25</ele>
        <time>2021-03-28T09:14:51Z</time>
      </trkpt>
      <trkpt lat="42.80717" lon="2.74015">
        <ele>105.4</ele>
        <time>2021-03-28T09:14:52Z</time>
      </trkpt>
      <trkpt lat="42.80717" lon="2.74015">
        <ele>25</ele>
        <time>2021-03-28T09:14:52Z</time>
      </trkpt>
      <trkpt lat="42.80713" lon="2.74006">
        <ele>104.5</ele>
        <time>2021-03-28T09:14:54Z</time>
      </trkpt>
      <trkpt lat="42.80713" lon="2.74006">
        <ele>25</ele>
        <time>2021-03-28T09:14:54Z</time>
      </trkpt>
      <trkpt lat="42.8071" lon="2.73998">
        <ele>103.9</ele>
        <time>2021-03-28T09:14:55Z</time>
      </trkpt>
      <trkpt lat="42.8071" lon="2.73998">
        <ele>25</ele>
        <time>2021-03-28T09:14:55Z</time>
      </trkpt>
      <trkpt lat="42.80706" lon="2.73988">
        <ele>103.8</ele>
        <time>2021-03-28T09:14:57Z</time>
      </trkpt>
      <trkpt lat="42.80706" lon="2.73988">
        <ele>25</ele>
        <time>2021-03-28T09:14:57Z</time>
      </trkpt>
      <trkpt lat="42.80702" lon="2.7398">
        <ele>103.8</ele>
        <time>2021-03-28T09:14:58Z</time>
      </trkpt>
      <trkpt lat="42.80702" lon="2.7398">
        <ele>25</ele>
        <time>2021-03-28T09:14:58Z</time>
      </trkpt>
      <trkpt lat="42.80697" lon="2.7397">
        <ele>104.2</ele>
        <time>2021-03-28T09:15:00Z</time>
      </trkpt>
      <trkpt lat="42.80697" lon="2.7397">
        <ele>25</ele>
        <time>2021-03-28T09:15:00Z</time>
      </trkpt>
      <trkpt lat="42.80692" lon="2.73961">
        <ele>104.6</ele>
        <time>2021-03-28T09:15:01Z</time>
      </trkpt>
      <trkpt lat="42.80692" lon="2.73961">
        <ele>25</ele>
        <time>2021-03-28T09:15:01Z</time>
      </trkpt>
      <trkpt lat="42.80686" lon="2.7395">
        <ele>104.3</ele>
        <time>2021-03-28T09:15:03Z</time>
      </trkpt>
      <trkpt lat="42.80686" lon="2.7395">
        <ele>25</ele>
        <time>2021-03-28T09:15:03Z</time>
      </trkpt>
      <trkpt lat="42.80678" lon="2.73938">
        <ele>104.1</ele>
        <time>2021-03-28T09:15:05Z</time>
      </trkpt>
      <trkpt lat="42.80678" lon="2.73938">
        <ele>25</ele>
        <time>2021-03-28T09:15:05Z</time>
      </trkpt>
      <trkpt lat="42.80672" lon="2.73927">
        <ele>104.3</ele>
        <time>2021-03-28T09:15:06Z</time>
      </trkpt>
      <trkpt lat="42.80672" lon="2.73927">
        <ele>25</ele>
        <time>2021-03-28T09:15:06Z</time>
      </trkpt>
      <trkpt lat="42.80667" lon="2.73917">
        <ele>104</ele>
        <time>2021-03-28T09:15:07Z</time>
      </trkpt>
      <trkpt lat="42.80667" lon="2.73917">
        <ele>25</ele>
        <time>2021-03-28T09:15:07Z</time>
      </trkpt>
      <trkpt lat="42.8066" lon="2.73904">
        <ele>104.1</ele>
        <time>2021-03-28T09:15:09Z</time>
      </trkpt>
      <trkpt lat="42.8066" lon="2.73904">
        <ele>25</ele>
        <time>2021-03-28T09:15:09Z</time>
      </trkpt>
      <trkpt lat="42.80652" lon="2.73892">
        <ele>102.9</ele>
        <time>2021-03-28T09:15:11Z</time>
      </trkpt>
      <trkpt lat="42.80652" lon="2.73892">
        <ele>25</ele>
        <time>2021-03-28T09:15:11Z</time>
      </trkpt>
      <trkpt lat="42.80643" lon="2.73878">
        <ele>102.2</ele>
        <time>2021-03-28T09:15:13Z</time>
      </trkpt>
      <trkpt lat="42.80643" lon="2.73878">
        <ele>25</ele>
        <time>2021-03-28T09:15:13Z</time>
      </trkpt>
      <trkpt lat="42.80634" lon="2.73864">
        <ele>102.5</ele>
        <time>2021-03-28T09:15:15Z</time>
      </trkpt>
      <trkpt lat="42.80634" lon="2.73864">
        <ele>25</ele>
        <time>2021-03-28T09:15:15Z</time>
      </trkpt>
      <trkpt lat="42.80624" lon="2.7385">
        <ele>102.7</ele>
        <time>2021-03-28T09:15:17Z</time>
      </trkpt>
      <trkpt lat="42.80624" lon="2.7385">
        <ele>25</ele>
        <time>2021-03-28T09:15:17Z</time>
      </trkpt>
      <trkpt lat="42.80614" lon="2.73835">
        <ele>100.9</ele>
        <time>2021-03-28T09:15:19Z</time>
      </trkpt>
      <trkpt lat="42.80614" lon="2.73835">
        <ele>25</ele>
        <time>2021-03-28T09:15:19Z</time>
      </trkpt>
      <trkpt lat="42.80604" lon="2.7382">
        <ele>100.1</ele>
        <time>2021-03-28T09:15:21Z</time>
      </trkpt>
      <trkpt lat="42.80604" lon="2.7382">
        <ele>25</ele>
        <time>2021-03-28T09:15:21Z</time>
      </trkpt>
      <trkpt lat="42.80594" lon="2.73805">
        <ele>98.4</ele>
        <time>2021-03-28T09:15:23Z</time>
      </trkpt>
      <trkpt lat="42.80594" lon="2.73805">
        <ele>25</ele>
        <time>2021-03-28T09:15:23Z</time>
      </trkpt>
      <trkpt lat="42.80584" lon="2.73788">
        <ele>97.4</ele>
        <time>2021-03-28T09:15:25Z</time>
      </trkpt>
      <trkpt lat="42.80584" lon="2.73788">
        <ele>25</ele>
        <time>2021-03-28T09:15:25Z</time>
      </trkpt>
      <trkpt lat="42.80575" lon="2.73775">
        <ele>97.6</ele>
        <time>2021-03-28T09:15:26Z</time>
      </trkpt>
      <trkpt lat="42.80575" lon="2.73775">
        <ele>25</ele>
        <time>2021-03-28T09:15:26Z</time>
      </trkpt>
      <trkpt lat="42.80565" lon="2.73762">
        <ele>98</ele>
        <time>2021-03-28T09:15:28Z</time>
      </trkpt>
      <trkpt lat="42.80565" lon="2.73762">
        <ele>25</ele>
        <time>2021-03-28T09:15:28Z</time>
      </trkpt>
      <trkpt lat="42.80555" lon="2.73748">
        <ele>96.8</ele>
        <time>2021-03-28T09:15:30Z</time>
      </trkpt>
      <trkpt lat="42.80555" lon="2.73748">
        <ele>25</ele>
        <time>2021-03-28T09:15:30Z</time>
      </trkpt>
      <trkpt lat="42.80547" lon="2.73735">
        <ele>98.1</ele>
        <time>2021-03-28T09:15:31Z</time>
      </trkpt>
      <trkpt lat="42.80547" lon="2.73735">
        <ele>25</ele>
        <time>2021-03-28T09:15:31Z</time>
      </trkpt>
      <trkpt lat="42.80539" lon="2.73722">
        <ele>97.9</ele>
        <time>2021-03-28T09:15:33Z</time>
      </trkpt>
      <trkpt lat="42.80539" lon="2.73722">
        <ele>25</ele>
        <time>2021-03-28T09:15:33Z</time>
      </trkpt>
      <trkpt lat="42.80531" lon="2.73708">
        <ele>97.4</ele>
        <time>2021-03-28T09:15:35Z</time>
      </trkpt>
      <trkpt lat="42.80531" lon="2.73708">
        <ele>25</ele>
        <time>2021-03-28T09:15:35Z</time>
      </trkpt>
      <trkpt lat="42.80524" lon="2.73697">
        <ele>98.1</ele>
        <time>2021-03-28T09:15:36Z</time>
      </trkpt>
      <trkpt lat="42.80524" lon="2.73697">
        <ele>25</ele>
        <time>2021-03-28T09:15:36Z</time>
      </trkpt>
      <trkpt lat="42.80518" lon="2.73688">
        <ele>100.3</ele>
        <time>2021-03-28T09:15:37Z</time>
      </trkpt>
      <trkpt lat="42.80518" lon="2.73688">
        <ele>25</ele>
        <time>2021-03-28T09:15:37Z</time>
      </trkpt>
      <trkpt lat="42.80512" lon="2.73677">
        <ele>100.3</ele>
        <time>2021-03-28T09:15:39Z</time>
      </trkpt>
      <trkpt lat="42.80512" lon="2.73677">
        <ele>25</ele>
        <time>2021-03-28T09:15:39Z</time>
      </trkpt>
      <trkpt lat="42.80504" lon="2.73667">
        <ele>98.1</ele>
        <time>2021-03-28T09:15:41Z</time>
      </trkpt>
      <trkpt lat="42.80504" lon="2.73667">
        <ele>25</ele>
        <time>2021-03-28T09:15:41Z</time>
      </trkpt>
      <trkpt lat="42.80494" lon="2.7366">
        <ele>99.6</ele>
        <time>2021-03-28T09:15:43Z</time>
      </trkpt>
      <trkpt lat="42.80494" lon="2.7366">
        <ele>25</ele>
        <time>2021-03-28T09:15:43Z</time>
      </trkpt>
      <trkpt lat="42.80485" lon="2.73653">
        <ele>100.4</ele>
        <time>2021-03-28T09:15:45Z</time>
      </trkpt>
      <trkpt lat="42.80485" lon="2.73653">
        <ele>25</ele>
        <time>2021-03-28T09:15:45Z</time>
      </trkpt>
      <trkpt lat="42.80476" lon="2.73646">
        <ele>100.3</ele>
        <time>2021-03-28T09:15:46Z</time>
      </trkpt>
      <trkpt lat="42.80476" lon="2.73646">
        <ele>25</ele>
        <time>2021-03-28T09:15:46Z</time>
      </trkpt>
      <trkpt lat="42.80469" lon="2.7364">
        <ele>100.1</ele>
        <time>2021-03-28T09:15:47Z</time>
      </trkpt>
      <trkpt lat="42.80469" lon="2.7364">
        <ele>25</ele>
        <time>2021-03-28T09:15:47Z</time>
      </trkpt>
      <trkpt lat="42.80462" lon="2.73634">
        <ele>101.1</ele>
        <time>2021-03-28T09:15:48Z</time>
      </trkpt>
      <trkpt lat="42.80462" lon="2.73634">
        <ele>25</ele>
        <time>2021-03-28T09:15:48Z</time>
      </trkpt>
      <trkpt lat="42.80455" lon="2.73626">
        <ele>101.1</ele>
        <time>2021-03-28T09:15:50Z</time>
      </trkpt>
      <trkpt lat="42.80455" lon="2.73626">
        <ele>25</ele>
        <time>2021-03-28T09:15:50Z</time>
      </trkpt>
      <trkpt lat="42.80451" lon="2.73619">
        <ele>100.2</ele>
        <time>2021-03-28T09:15:51Z</time>
      </trkpt>
      <trkpt lat="42.80451" lon="2.73619">
        <ele>25</ele>
        <time>2021-03-28T09:15:51Z</time>
      </trkpt>
      <trkpt lat="42.80446" lon="2.7361">
        <ele>98.3</ele>
        <time>2021-03-28T09:15:53Z</time>
      </trkpt>
      <trkpt lat="42.80446" lon="2.7361">
        <ele>25</ele>
        <time>2021-03-28T09:15:53Z</time>
      </trkpt>
      <trkpt lat="42.80442" lon="2.73602">
        <ele>98.2</ele>
        <time>2021-03-28T09:15:54Z</time>
      </trkpt>
      <trkpt lat="42.80442" lon="2.73602">
        <ele>25</ele>
        <time>2021-03-28T09:15:54Z</time>
      </trkpt>
      <trkpt lat="42.80436" lon="2.73591">
        <ele>98</ele>
        <time>2021-03-28T09:15:56Z</time>
      </trkpt>
      <trkpt lat="42.80436" lon="2.73591">
        <ele>25</ele>
        <time>2021-03-28T09:15:56Z</time>
      </trkpt>
      <trkpt lat="42.80432" lon="2.73582">
        <ele>97.9</ele>
        <time>2021-03-28T09:15:57Z</time>
      </trkpt>
      <trkpt lat="42.80432" lon="2.73582">
        <ele>25</ele>
        <time>2021-03-28T09:15:57Z</time>
      </trkpt>
      <trkpt lat="42.80428" lon="2.73573">
        <ele>98.3</ele>
        <time>2021-03-28T09:15:58Z</time>
      </trkpt>
      <trkpt lat="42.80428" lon="2.73573">
        <ele>25</ele>
        <time>2021-03-28T09:15:58Z</time>
      </trkpt>
      <trkpt lat="42.80424" lon="2.73565">
        <ele>98.5</ele>
        <time>2021-03-28T09:15:59Z</time>
      </trkpt>
      <trkpt lat="42.80424" lon="2.73565">
        <ele>25</ele>
        <time>2021-03-28T09:15:59Z</time>
      </trkpt>
      <trkpt lat="42.80421" lon="2.73557">
        <ele>98.7</ele>
        <time>2021-03-28T09:16:00Z</time>
      </trkpt>
      <trkpt lat="42.80421" lon="2.73557">
        <ele>25</ele>
        <time>2021-03-28T09:16:00Z</time>
      </trkpt>
      <trkpt lat="42.80416" lon="2.73548">
        <ele>99.2</ele>
        <time>2021-03-28T09:16:02Z</time>
      </trkpt>
      <trkpt lat="42.80416" lon="2.73548">
        <ele>25</ele>
        <time>2021-03-28T09:16:02Z</time>
      </trkpt>
      <trkpt lat="42.80412" lon="2.73541">
        <ele>99.4</ele>
        <time>2021-03-28T09:16:03Z</time>
      </trkpt>
      <trkpt lat="42.80412" lon="2.73541">
        <ele>25</ele>
        <time>2021-03-28T09:16:03Z</time>
      </trkpt>
      <trkpt lat="42.80407" lon="2.73533">
        <ele>99.9</ele>
        <time>2021-03-28T09:16:05Z</time>
      </trkpt>
      <trkpt lat="42.80407" lon="2.73533">
        <ele>25</ele>
        <time>2021-03-28T09:16:05Z</time>
      </trkpt>
      <trkpt lat="42.80403" lon="2.73526">
        <ele>100.1</ele>
        <time>2021-03-28T09:16:06Z</time>
      </trkpt>
      <trkpt lat="42.80403" lon="2.73526">
        <ele>25</ele>
        <time>2021-03-28T09:16:06Z</time>
      </trkpt>
      <trkpt lat="42.80398" lon="2.73521">
        <ele>100.1</ele>
        <time>2021-03-28T09:16:07Z</time>
      </trkpt>
      <trkpt lat="42.80398" lon="2.73521">
        <ele>25</ele>
        <time>2021-03-28T09:16:07Z</time>
      </trkpt>
      <trkpt lat="42.80393" lon="2.73515">
        <ele>100.4</ele>
        <time>2021-03-28T09:16:09Z</time>
      </trkpt>
      <trkpt lat="42.80393" lon="2.73515">
        <ele>25</ele>
        <time>2021-03-28T09:16:09Z</time>
      </trkpt>
      <trkpt lat="42.80386" lon="2.73508">
        <ele>100.9</ele>
        <time>2021-03-28T09:16:11Z</time>
      </trkpt>
      <trkpt lat="42.80386" lon="2.73508">
        <ele>25</ele>
        <time>2021-03-28T09:16:11Z</time>
      </trkpt>
      <trkpt lat="42.80379" lon="2.73502">
        <ele>101.1</ele>
        <time>2021-03-28T09:16:12Z</time>
      </trkpt>
      <trkpt lat="42.80379" lon="2.73502">
        <ele>25</ele>
        <time>2021-03-28T09:16:12Z</time>
      </trkpt>
      <trkpt lat="42.80372" lon="2.73496">
        <ele>101</ele>
        <time>2021-03-28T09:16:14Z</time>
      </trkpt>
      <trkpt lat="42.80372" lon="2.73496">
        <ele>25</ele>
        <time>2021-03-28T09:16:14Z</time>
      </trkpt>
      <trkpt lat="42.80365" lon="2.73488">
        <ele>100.6</ele>
        <time>2021-03-28T09:16:16Z</time>
      </trkpt>
      <trkpt lat="42.80365" lon="2.73488">
        <ele>25</ele>
        <time>2021-03-28T09:16:16Z</time>
      </trkpt>
      <trkpt lat="42.80358" lon="2.73481">
        <ele>100.8</ele>
        <time>2021-03-28T09:16:17Z</time>
      </trkpt>
      <trkpt lat="42.80358" lon="2.73481">
        <ele>25</ele>
        <time>2021-03-28T09:16:17Z</time>
      </trkpt>
      <trkpt lat="42.80353" lon="2.73473">
        <ele>100.8</ele>
        <time>2021-03-28T09:16:19Z</time>
      </trkpt>
      <trkpt lat="42.80353" lon="2.73473">
        <ele>25</ele>
        <time>2021-03-28T09:16:19Z</time>
      </trkpt>
      <trkpt lat="42.80349" lon="2.73463">
        <ele>100.9</ele>
        <time>2021-03-28T09:16:21Z</time>
      </trkpt>
      <trkpt lat="42.80349" lon="2.73463">
        <ele>25</ele>
        <time>2021-03-28T09:16:21Z</time>
      </trkpt>
      <trkpt lat="42.80345" lon="2.73452">
        <ele>101.2</ele>
        <time>2021-03-28T09:16:23Z</time>
      </trkpt>
      <trkpt lat="42.80345" lon="2.73452">
        <ele>25</ele>
        <time>2021-03-28T09:16:23Z</time>
      </trkpt>
      <trkpt lat="42.8034" lon="2.73441">
        <ele>101.8</ele>
        <time>2021-03-28T09:16:25Z</time>
      </trkpt>
      <trkpt lat="42.8034" lon="2.73441">
        <ele>25</ele>
        <time>2021-03-28T09:16:25Z</time>
      </trkpt>
      <trkpt lat="42.80336" lon="2.73432">
        <ele>101.9</ele>
        <time>2021-03-28T09:16:26Z</time>
      </trkpt>
      <trkpt lat="42.80336" lon="2.73432">
        <ele>25</ele>
        <time>2021-03-28T09:16:26Z</time>
      </trkpt>
      <trkpt lat="42.80331" lon="2.73425">
        <ele>103.3</ele>
        <time>2021-03-28T09:16:27Z</time>
      </trkpt>
      <trkpt lat="42.80331" lon="2.73425">
        <ele>25</ele>
        <time>2021-03-28T09:16:27Z</time>
      </trkpt>
      <trkpt lat="42.80327" lon="2.73418">
        <ele>104.7</ele>
        <time>2021-03-28T09:16:28Z</time>
      </trkpt>
      <trkpt lat="42.80327" lon="2.73418">
        <ele>25</ele>
        <time>2021-03-28T09:16:28Z</time>
      </trkpt>
      <trkpt lat="42.80323" lon="2.73409">
        <ele>104.4</ele>
        <time>2021-03-28T09:16:30Z</time>
      </trkpt>
      <trkpt lat="42.80323" lon="2.73409">
        <ele>25</ele>
        <time>2021-03-28T09:16:30Z</time>
      </trkpt>
      <trkpt lat="42.80318" lon="2.734">
        <ele>103.3</ele>
        <time>2021-03-28T09:16:32Z</time>
      </trkpt>
      <trkpt lat="42.80318" lon="2.734">
        <ele>25</ele>
        <time>2021-03-28T09:16:32Z</time>
      </trkpt>
      <trkpt lat="42.80314" lon="2.73392">
        <ele>101.6</ele>
        <time>2021-03-28T09:16:33Z</time>
      </trkpt>
      <trkpt lat="42.80314" lon="2.73392">
        <ele>25</ele>
        <time>2021-03-28T09:16:33Z</time>
      </trkpt>
      <trkpt lat="42.80309" lon="2.73385">
        <ele>101.1</ele>
        <time>2021-03-28T09:16:34Z</time>
      </trkpt>
      <trkpt lat="42.80309" lon="2.73385">
        <ele>25</ele>
        <time>2021-03-28T09:16:34Z</time>
      </trkpt>
      <trkpt lat="42.80304" lon="2.73377">
        <ele>102</ele>
        <time>2021-03-28T09:16:36Z</time>
      </trkpt>
      <trkpt lat="42.80304" lon="2.73377">
        <ele>25</ele>
        <time>2021-03-28T09:16:36Z</time>
      </trkpt>
      <trkpt lat="42.803" lon="2.73371">
        <ele>103.4</ele>
        <time>2021-03-28T09:16:37Z</time>
      </trkpt>
      <trkpt lat="42.803" lon="2.73371">
        <ele>25</ele>
        <time>2021-03-28T09:16:37Z</time>
      </trkpt>
      <trkpt lat="42.80296" lon="2.73364">
        <ele>104.2</ele>
        <time>2021-03-28T09:16:39Z</time>
      </trkpt>
      <trkpt lat="42.80296" lon="2.73364">
        <ele>25</ele>
        <time>2021-03-28T09:16:39Z</time>
      </trkpt>
      <trkpt lat="42.80291" lon="2.73357">
        <ele>104.9</ele>
        <time>2021-03-28T09:16:41Z</time>
      </trkpt>
      <trkpt lat="42.80291" lon="2.73357">
        <ele>25</ele>
        <time>2021-03-28T09:16:41Z</time>
      </trkpt>
      <trkpt lat="42.80287" lon="2.73352">
        <ele>105.6</ele>
        <time>2021-03-28T09:16:42Z</time>
      </trkpt>
      <trkpt lat="42.80287" lon="2.73352">
        <ele>25</ele>
        <time>2021-03-28T09:16:42Z</time>
      </trkpt>
      <trkpt lat="42.80283" lon="2.73347">
        <ele>106.2</ele>
        <time>2021-03-28T09:16:43Z</time>
      </trkpt>
      <trkpt lat="42.80283" lon="2.73347">
        <ele>25</ele>
        <time>2021-03-28T09:16:43Z</time>
      </trkpt>
      <trkpt lat="42.80279" lon="2.73341">
        <ele>107.2</ele>
        <time>2021-03-28T09:16:45Z</time>
      </trkpt>
      <trkpt lat="42.80279" lon="2.73341">
        <ele>25</ele>
        <time>2021-03-28T09:16:45Z</time>
      </trkpt>
      <trkpt lat="42.80274" lon="2.73337">
        <ele>107.5</ele>
        <time>2021-03-28T09:16:46Z</time>
      </trkpt>
      <trkpt lat="42.80274" lon="2.73337">
        <ele>25</ele>
        <time>2021-03-28T09:16:46Z</time>
      </trkpt>
      <trkpt lat="42.80269" lon="2.73331">
        <ele>107.2</ele>
        <time>2021-03-28T09:16:48Z</time>
      </trkpt>
      <trkpt lat="42.80269" lon="2.73331">
        <ele>25</ele>
        <time>2021-03-28T09:16:48Z</time>
      </trkpt>
      <trkpt lat="42.80264" lon="2.73326">
        <ele>107.2</ele>
        <time>2021-03-28T09:16:50Z</time>
      </trkpt>
      <trkpt lat="42.80264" lon="2.73326">
        <ele>25</ele>
        <time>2021-03-28T09:16:50Z</time>
      </trkpt>
      <trkpt lat="42.80259" lon="2.73321">
        <ele>107.6</ele>
        <time>2021-03-28T09:16:52Z</time>
      </trkpt>
      <trkpt lat="42.80259" lon="2.73321">
        <ele>25</ele>
        <time>2021-03-28T09:16:52Z</time>
      </trkpt>
      <trkpt lat="42.80255" lon="2.73317">
        <ele>108</ele>
        <time>2021-03-28T09:16:53Z</time>
      </trkpt>
      <trkpt lat="42.80255" lon="2.73317">
        <ele>25</ele>
        <time>2021-03-28T09:16:53Z</time>
      </trkpt>
      <trkpt lat="42.80251" lon="2.73313">
        <ele>108.7</ele>
        <time>2021-03-28T09:16:54Z</time>
      </trkpt>
      <trkpt lat="42.80251" lon="2.73313">
        <ele>25</ele>
        <time>2021-03-28T09:16:54Z</time>
      </trkpt>
      <trkpt lat="42.80247" lon="2.7331">
        <ele>109.8</ele>
        <time>2021-03-28T09:16:56Z</time>
      </trkpt>
      <trkpt lat="42.80247" lon="2.7331">
        <ele>25</ele>
        <time>2021-03-28T09:16:56Z</time>
      </trkpt>
      <trkpt lat="42.80243" lon="2.73306">
        <ele>110.8</ele>
        <time>2021-03-28T09:16:57Z</time>
      </trkpt>
      <trkpt lat="42.80243" lon="2.73306">
        <ele>25</ele>
        <time>2021-03-28T09:16:57Z</time>
      </trkpt>
      <trkpt lat="42.8024" lon="2.73302">
        <ele>110.8</ele>
        <time>2021-03-28T09:16:59Z</time>
      </trkpt>
      <trkpt lat="42.8024" lon="2.73302">
        <ele>25</ele>
        <time>2021-03-28T09:16:59Z</time>
      </trkpt>
      <trkpt lat="42.80237" lon="2.73297">
        <ele>110.5</ele>
        <time>2021-03-28T09:17:00Z</time>
      </trkpt>
      <trkpt lat="42.80237" lon="2.73297">
        <ele>25</ele>
        <time>2021-03-28T09:17:00Z</time>
      </trkpt>
      <trkpt lat="42.80234" lon="2.73292">
        <ele>110.1</ele>
        <time>2021-03-28T09:17:02Z</time>
      </trkpt>
      <trkpt lat="42.80234" lon="2.73292">
        <ele>25</ele>
        <time>2021-03-28T09:17:02Z</time>
      </trkpt>
      <trkpt lat="42.80231" lon="2.73288">
        <ele>110</ele>
        <time>2021-03-28T09:17:03Z</time>
      </trkpt>
      <trkpt lat="42.80231" lon="2.73288">
        <ele>25</ele>
        <time>2021-03-28T09:17:03Z</time>
      </trkpt>
      <trkpt lat="42.80227" lon="2.73282">
        <ele>109.9</ele>
        <time>2021-03-28T09:17:05Z</time>
      </trkpt>
      <trkpt lat="42.80227" lon="2.73282">
        <ele>25</ele>
        <time>2021-03-28T09:17:05Z</time>
      </trkpt>
      <trkpt lat="42.80224" lon="2.73277">
        <ele>109.9</ele>
        <time>2021-03-28T09:17:07Z</time>
      </trkpt>
      <trkpt lat="42.80224" lon="2.73277">
        <ele>25</ele>
        <time>2021-03-28T09:17:07Z</time>
      </trkpt>
      <trkpt lat="42.8022" lon="2.73272">
        <ele>109.7</ele>
        <time>2021-03-28T09:17:09Z</time>
      </trkpt>
      <trkpt lat="42.8022" lon="2.73272">
        <ele>25</ele>
        <time>2021-03-28T09:17:09Z</time>
      </trkpt>
      <trkpt lat="42.80215" lon="2.73268">
        <ele>109.7</ele>
        <time>2021-03-28T09:17:11Z</time>
      </trkpt>
      <trkpt lat="42.80215" lon="2.73268">
        <ele>25</ele>
        <time>2021-03-28T09:17:11Z</time>
      </trkpt>
      <trkpt lat="42.80211" lon="2.73265">
        <ele>110.1</ele>
        <time>2021-03-28T09:17:12Z</time>
      </trkpt>
      <trkpt lat="42.80211" lon="2.73265">
        <ele>25</ele>
        <time>2021-03-28T09:17:12Z</time>
      </trkpt>
      <trkpt lat="42.80206" lon="2.73262">
        <ele>110.7</ele>
        <time>2021-03-28T09:17:13Z</time>
      </trkpt>
      <trkpt lat="42.80206" lon="2.73262">
        <ele>25</ele>
        <time>2021-03-28T09:17:13Z</time>
      </trkpt>
      <trkpt lat="42.80201" lon="2.73261">
        <ele>111.8</ele>
        <time>2021-03-28T09:17:15Z</time>
      </trkpt>
      <trkpt lat="42.80201" lon="2.73261">
        <ele>25</ele>
        <time>2021-03-28T09:17:15Z</time>
      </trkpt>
      <trkpt lat="42.80197" lon="2.7326">
        <ele>112.9</ele>
        <time>2021-03-28T09:17:16Z</time>
      </trkpt>
      <trkpt lat="42.80197" lon="2.7326">
        <ele>25</ele>
        <time>2021-03-28T09:17:16Z</time>
      </trkpt>
      <trkpt lat="42.80192" lon="2.7326">
        <ele>114</ele>
        <time>2021-03-28T09:17:18Z</time>
      </trkpt>
      <trkpt lat="42.80192" lon="2.7326">
        <ele>25</ele>
        <time>2021-03-28T09:17:18Z</time>
      </trkpt>
      <trkpt lat="42.80188" lon="2.7326">
        <ele>114.4</ele>
        <time>2021-03-28T09:17:19Z</time>
      </trkpt>
      <trkpt lat="42.80188" lon="2.7326">
        <ele>25</ele>
        <time>2021-03-28T09:17:19Z</time>
      </trkpt>
      <trkpt lat="42.80184" lon="2.73258">
        <ele>114.6</ele>
        <time>2021-03-28T09:17:21Z</time>
      </trkpt>
      <trkpt lat="42.80184" lon="2.73258">
        <ele>25</ele>
        <time>2021-03-28T09:17:21Z</time>
      </trkpt>
      <trkpt lat="42.8018" lon="2.73256">
        <ele>114.5</ele>
        <time>2021-03-28T09:17:22Z</time>
      </trkpt>
      <trkpt lat="42.8018" lon="2.73256">
        <ele>25</ele>
        <time>2021-03-28T09:17:22Z</time>
      </trkpt>
      <trkpt lat="42.80176" lon="2.73254">
        <ele>114.1</ele>
        <time>2021-03-28T09:17:24Z</time>
      </trkpt>
      <trkpt lat="42.80176" lon="2.73254">
        <ele>25</ele>
        <time>2021-03-28T09:17:24Z</time>
      </trkpt>
      <trkpt lat="42.80172" lon="2.73251">
        <ele>113.4</ele>
        <time>2021-03-28T09:17:25Z</time>
      </trkpt>
      <trkpt lat="42.80172" lon="2.73251">
        <ele>25</ele>
        <time>2021-03-28T09:17:25Z</time>
      </trkpt>
      <trkpt lat="42.8017" lon="2.73246">
        <ele>113.5</ele>
        <time>2021-03-28T09:17:27Z</time>
      </trkpt>
      <trkpt lat="42.8017" lon="2.73246">
        <ele>25</ele>
        <time>2021-03-28T09:17:27Z</time>
      </trkpt>
      <trkpt lat="42.80168" lon="2.73239">
        <ele>113.7</ele>
        <time>2021-03-28T09:17:29Z</time>
      </trkpt>
      <trkpt lat="42.80168" lon="2.73239">
        <ele>25</ele>
        <time>2021-03-28T09:17:29Z</time>
      </trkpt>
      <trkpt lat="42.80167" lon="2.73232">
        <ele>114</ele>
        <time>2021-03-28T09:17:31Z</time>
      </trkpt>
      <trkpt lat="42.80167" lon="2.73232">
        <ele>25</ele>
        <time>2021-03-28T09:17:31Z</time>
      </trkpt>
      <trkpt lat="42.80166" lon="2.73226">
        <ele>114.2</ele>
        <time>2021-03-28T09:17:32Z</time>
      </trkpt>
      <trkpt lat="42.80166" lon="2.73226">
        <ele>25</ele>
        <time>2021-03-28T09:17:32Z</time>
      </trkpt>
      <trkpt lat="42.80167" lon="2.73219">
        <ele>114.3</ele>
        <time>2021-03-28T09:17:34Z</time>
      </trkpt>
      <trkpt lat="42.80167" lon="2.73219">
        <ele>25</ele>
        <time>2021-03-28T09:17:34Z</time>
      </trkpt>
      <trkpt lat="42.80167" lon="2.73211">
        <ele>114.7</ele>
        <time>2021-03-28T09:17:36Z</time>
      </trkpt>
      <trkpt lat="42.80167" lon="2.73211">
        <ele>25</ele>
        <time>2021-03-28T09:17:36Z</time>
      </trkpt>
      <trkpt lat="42.80167" lon="2.73202">
        <ele>115.3</ele>
        <time>2021-03-28T09:17:38Z</time>
      </trkpt>
      <trkpt lat="42.80167" lon="2.73202">
        <ele>25</ele>
        <time>2021-03-28T09:17:38Z</time>
      </trkpt>
      <trkpt lat="42.80167" lon="2.73193">
        <ele>115.9</ele>
        <time>2021-03-28T09:17:40Z</time>
      </trkpt>
      <trkpt lat="42.80167" lon="2.73193">
        <ele>25</ele>
        <time>2021-03-28T09:17:40Z</time>
      </trkpt>
      <trkpt lat="42.80166" lon="2.73184">
        <ele>116.2</ele>
        <time>2021-03-28T09:17:42Z</time>
      </trkpt>
      <trkpt lat="42.80166" lon="2.73184">
        <ele>25</ele>
        <time>2021-03-28T09:17:42Z</time>
      </trkpt>
      <trkpt lat="42.80165" lon="2.73176">
        <ele>116.8</ele>
        <time>2021-03-28T09:17:43Z</time>
      </trkpt>
      <trkpt lat="42.80165" lon="2.73176">
        <ele>25</ele>
        <time>2021-03-28T09:17:43Z</time>
      </trkpt>
      <trkpt lat="42.80164" lon="2.73168">
        <ele>117.9</ele>
        <time>2021-03-28T09:17:45Z</time>
      </trkpt>
      <trkpt lat="42.80164" lon="2.73168">
        <ele>25</ele>
        <time>2021-03-28T09:17:45Z</time>
      </trkpt>
      <trkpt lat="42.80162" lon="2.73161">
        <ele>118.4</ele>
        <time>2021-03-28T09:17:47Z</time>
      </trkpt>
      <trkpt lat="42.80162" lon="2.73161">
        <ele>25</ele>
        <time>2021-03-28T09:17:47Z</time>
      </trkpt>
      <trkpt lat="42.8016" lon="2.73152">
        <ele>119.1</ele>
        <time>2021-03-28T09:17:49Z</time>
      </trkpt>
      <trkpt lat="42.8016" lon="2.73152">
        <ele>25</ele>
        <time>2021-03-28T09:17:49Z</time>
      </trkpt>
      <trkpt lat="42.80158" lon="2.73145">
        <ele>120.1</ele>
        <time>2021-03-28T09:17:50Z</time>
      </trkpt>
      <trkpt lat="42.80158" lon="2.73145">
        <ele>25</ele>
        <time>2021-03-28T09:17:50Z</time>
      </trkpt>
      <trkpt lat="42.80156" lon="2.73139">
        <ele>121.3</ele>
        <time>2021-03-28T09:17:51Z</time>
      </trkpt>
      <trkpt lat="42.80156" lon="2.73139">
        <ele>25</ele>
        <time>2021-03-28T09:17:51Z</time>
      </trkpt>
      <trkpt lat="42.80155" lon="2.73134">
        <ele>121.5</ele>
        <time>2021-03-28T09:17:52Z</time>
      </trkpt>
      <trkpt lat="42.80155" lon="2.73134">
        <ele>25</ele>
        <time>2021-03-28T09:17:52Z</time>
      </trkpt>
      <trkpt lat="42.80153" lon="2.73128">
        <ele>121.6</ele>
        <time>2021-03-28T09:17:54Z</time>
      </trkpt>
      <trkpt lat="42.80153" lon="2.73128">
        <ele>25</ele>
        <time>2021-03-28T09:17:54Z</time>
      </trkpt>
      <trkpt lat="42.80151" lon="2.73121">
        <ele>121.6</ele>
        <time>2021-03-28T09:17:56Z</time>
      </trkpt>
      <trkpt lat="42.80151" lon="2.73121">
        <ele>25</ele>
        <time>2021-03-28T09:17:56Z</time>
      </trkpt>
      <trkpt lat="42.80149" lon="2.73113">
        <ele>121.3</ele>
        <time>2021-03-28T09:17:58Z</time>
      </trkpt>
      <trkpt lat="42.80149" lon="2.73113">
        <ele>25</ele>
        <time>2021-03-28T09:17:58Z</time>
      </trkpt>
      <trkpt lat="42.80146" lon="2.73105">
        <ele>121.9</ele>
        <time>2021-03-28T09:18:00Z</time>
      </trkpt>
      <trkpt lat="42.80146" lon="2.73105">
        <ele>25</ele>
        <time>2021-03-28T09:18:00Z</time>
      </trkpt>
      <trkpt lat="42.80144" lon="2.73099">
        <ele>122.5</ele>
        <time>2021-03-28T09:18:01Z</time>
      </trkpt>
      <trkpt lat="42.80144" lon="2.73099">
        <ele>25</ele>
        <time>2021-03-28T09:18:01Z</time>
      </trkpt>
      <trkpt lat="42.80142" lon="2.73093">
        <ele>123.4</ele>
        <time>2021-03-28T09:18:02Z</time>
      </trkpt>
      <trkpt lat="42.80142" lon="2.73093">
        <ele>25</ele>
        <time>2021-03-28T09:18:02Z</time>
      </trkpt>
      <trkpt lat="42.80141" lon="2.73086">
        <ele>124</ele>
        <time>2021-03-28T09:18:04Z</time>
      </trkpt>
      <trkpt lat="42.80141" lon="2.73086">
        <ele>25</ele>
        <time>2021-03-28T09:18:04Z</time>
      </trkpt>
      <trkpt lat="42.80139" lon="2.7308">
        <ele>123.8</ele>
        <time>2021-03-28T09:18:06Z</time>
      </trkpt>
      <trkpt lat="42.80139" lon="2.7308">
        <ele>25</ele>
        <time>2021-03-28T09:18:06Z</time>
      </trkpt>
      <trkpt lat="42.80138" lon="2.73073">
        <ele>123.7</ele>
        <time>2021-03-28T09:18:08Z</time>
      </trkpt>
      <trkpt lat="42.80138" lon="2.73073">
        <ele>25</ele>
        <time>2021-03-28T09:18:08Z</time>
      </trkpt>
      <trkpt lat="42.80136" lon="2.73066">
        <ele>123.9</ele>
        <time>2021-03-28T09:18:10Z</time>
      </trkpt>
      <trkpt lat="42.80136" lon="2.73066">
        <ele>25</ele>
        <time>2021-03-28T09:18:10Z</time>
      </trkpt>
      <trkpt lat="42.80133" lon="2.73061">
        <ele>124.5</ele>
        <time>2021-03-28T09:18:11Z</time>
      </trkpt>
      <trkpt lat="42.80133" lon="2.73061">
        <ele>25</ele>
        <time>2021-03-28T09:18:11Z</time>
      </trkpt>
      <trkpt lat="42.8013" lon="2.73054">
        <ele>125.1</ele>
        <time>2021-03-28T09:18:13Z</time>
      </trkpt>
      <trkpt lat="42.8013" lon="2.73054">
        <ele>25</ele>
        <time>2021-03-28T09:18:13Z</time>
      </trkpt>
      <trkpt lat="42.80127" lon="2.73048">
        <ele>126.4</ele>
        <time>2021-03-28T09:18:14Z</time>
      </trkpt>
      <trkpt lat="42.80127" lon="2.73048">
        <ele>25</ele>
        <time>2021-03-28T09:18:14Z</time>
      </trkpt>
      <trkpt lat="42.80126" lon="2.73043">
        <ele>127</ele>
        <time>2021-03-28T09:18:15Z</time>
      </trkpt>
      <trkpt lat="42.80126" lon="2.73043">
        <ele>25</ele>
        <time>2021-03-28T09:18:15Z</time>
      </trkpt>
      <trkpt lat="42.80124" lon="2.73038">
        <ele>127.8</ele>
        <time>2021-03-28T09:18:17Z</time>
      </trkpt>
      <trkpt lat="42.80124" lon="2.73038">
        <ele>25</ele>
        <time>2021-03-28T09:18:17Z</time>
      </trkpt>
      <trkpt lat="42.80122" lon="2.73031">
        <ele>128.4</ele>
        <time>2021-03-28T09:18:19Z</time>
      </trkpt>
      <trkpt lat="42.80122" lon="2.73031">
        <ele>25</ele>
        <time>2021-03-28T09:18:19Z</time>
      </trkpt>
      <trkpt lat="42.8012" lon="2.73024">
        <ele>128.4</ele>
        <time>2021-03-28T09:18:21Z</time>
      </trkpt>
      <trkpt lat="42.8012" lon="2.73024">
        <ele>25</ele>
        <time>2021-03-28T09:18:21Z</time>
      </trkpt>
      <trkpt lat="42.80119" lon="2.73016">
        <ele>128.1</ele>
        <time>2021-03-28T09:18:23Z</time>
      </trkpt>
      <trkpt lat="42.80119" lon="2.73016">
        <ele>25</ele>
        <time>2021-03-28T09:18:23Z</time>
      </trkpt>
      <trkpt lat="42.80117" lon="2.73008">
        <ele>128.1</ele>
        <time>2021-03-28T09:18:25Z</time>
      </trkpt>
      <trkpt lat="42.80117" lon="2.73008">
        <ele>25</ele>
        <time>2021-03-28T09:18:25Z</time>
      </trkpt>
      <trkpt lat="42.80116" lon="2.73002">
        <ele>128.3</ele>
        <time>2021-03-28T09:18:26Z</time>
      </trkpt>
      <trkpt lat="42.80116" lon="2.73002">
        <ele>25</ele>
        <time>2021-03-28T09:18:26Z</time>
      </trkpt>
      <trkpt lat="42.80114" lon="2.72996">
        <ele>128.3</ele>
        <time>2021-03-28T09:18:27Z</time>
      </trkpt>
      <trkpt lat="42.80114" lon="2.72996">
        <ele>25</ele>
        <time>2021-03-28T09:18:27Z</time>
      </trkpt>
      <trkpt lat="42.80112" lon="2.7299">
        <ele>128.6</ele>
        <time>2021-03-28T09:18:29Z</time>
      </trkpt>
      <trkpt lat="42.80112" lon="2.7299">
        <ele>25</ele>
        <time>2021-03-28T09:18:29Z</time>
      </trkpt>
      <trkpt lat="42.8011" lon="2.72983">
        <ele>129.1</ele>
        <time>2021-03-28T09:18:31Z</time>
      </trkpt>
      <trkpt lat="42.8011" lon="2.72983">
        <ele>25</ele>
        <time>2021-03-28T09:18:31Z</time>
      </trkpt>
      <trkpt lat="42.80109" lon="2.72977">
        <ele>129.6</ele>
        <time>2021-03-28T09:18:32Z</time>
      </trkpt>
      <trkpt lat="42.80109" lon="2.72977">
        <ele>25</ele>
        <time>2021-03-28T09:18:32Z</time>
      </trkpt>
      <trkpt lat="42.80108" lon="2.72972">
        <ele>129.7</ele>
        <time>2021-03-28T09:18:33Z</time>
      </trkpt>
      <trkpt lat="42.80108" lon="2.72972">
        <ele>25</ele>
        <time>2021-03-28T09:18:33Z</time>
      </trkpt>
      <trkpt lat="42.80107" lon="2.72966">
        <ele>130</ele>
        <time>2021-03-28T09:18:35Z</time>
      </trkpt>
      <trkpt lat="42.80107" lon="2.72966">
        <ele>25</ele>
        <time>2021-03-28T09:18:35Z</time>
      </trkpt>
      <trkpt lat="42.80106" lon="2.72961">
        <ele>130.4</ele>
        <time>2021-03-28T09:18:36Z</time>
      </trkpt>
      <trkpt lat="42.80106" lon="2.72961">
        <ele>25</ele>
        <time>2021-03-28T09:18:36Z</time>
      </trkpt>
      <trkpt lat="42.80105" lon="2.72956">
        <ele>130.8</ele>
        <time>2021-03-28T09:18:37Z</time>
      </trkpt>
      <trkpt lat="42.80105" lon="2.72956">
        <ele>25</ele>
        <time>2021-03-28T09:18:37Z</time>
      </trkpt>
      <trkpt lat="42.80105" lon="2.72951">
        <ele>131</ele>
        <time>2021-03-28T09:18:38Z</time>
      </trkpt>
      <trkpt lat="42.80105" lon="2.72951">
        <ele>25</ele>
        <time>2021-03-28T09:18:38Z</time>
      </trkpt>
      <trkpt lat="42.80104" lon="2.72947">
        <ele>131.1</ele>
        <time>2021-03-28T09:18:39Z</time>
      </trkpt>
      <trkpt lat="42.80104" lon="2.72947">
        <ele>25</ele>
        <time>2021-03-28T09:18:39Z</time>
      </trkpt>
      <trkpt lat="42.80104" lon="2.72941">
        <ele>130.8</ele>
        <time>2021-03-28T09:18:41Z</time>
      </trkpt>
      <trkpt lat="42.80104" lon="2.72941">
        <ele>25</ele>
        <time>2021-03-28T09:18:41Z</time>
      </trkpt>
      <trkpt lat="42.80103" lon="2.72935">
        <ele>131</ele>
        <time>2021-03-28T09:18:43Z</time>
      </trkpt>
      <trkpt lat="42.80103" lon="2.72935">
        <ele>25</ele>
        <time>2021-03-28T09:18:43Z</time>
      </trkpt>
      <trkpt lat="42.80102" lon="2.7293">
        <ele>131.6</ele>
        <time>2021-03-28T09:18:44Z</time>
      </trkpt>
      <trkpt lat="42.80102" lon="2.7293">
        <ele>25</ele>
        <time>2021-03-28T09:18:44Z</time>
      </trkpt>
      <trkpt lat="42.80101" lon="2.72923">
        <ele>132.9</ele>
        <time>2021-03-28T09:18:46Z</time>
      </trkpt>
      <trkpt lat="42.80101" lon="2.72923">
        <ele>25</ele>
        <time>2021-03-28T09:18:46Z</time>
      </trkpt>
      <trkpt lat="42.80099" lon="2.72918">
        <ele>134.8</ele>
        <time>2021-03-28T09:18:47Z</time>
      </trkpt>
      <trkpt lat="42.80099" lon="2.72918">
        <ele>25</ele>
        <time>2021-03-28T09:18:47Z</time>
      </trkpt>
      <trkpt lat="42.80097" lon="2.72913">
        <ele>135</ele>
        <time>2021-03-28T09:18:48Z</time>
      </trkpt>
      <trkpt lat="42.80097" lon="2.72913">
        <ele>25</ele>
        <time>2021-03-28T09:18:48Z</time>
      </trkpt>
      <trkpt lat="42.80095" lon="2.72909">
        <ele>134.8</ele>
        <time>2021-03-28T09:18:50Z</time>
      </trkpt>
      <trkpt lat="42.80095" lon="2.72909">
        <ele>25</ele>
        <time>2021-03-28T09:18:50Z</time>
      </trkpt>
      <trkpt lat="42.80093" lon="2.72905">
        <ele>135</ele>
        <time>2021-03-28T09:18:51Z</time>
      </trkpt>
      <trkpt lat="42.80093" lon="2.72905">
        <ele>25</ele>
        <time>2021-03-28T09:18:51Z</time>
      </trkpt>
      <trkpt lat="42.8009" lon="2.72901">
        <ele>135.1</ele>
        <time>2021-03-28T09:18:52Z</time>
      </trkpt>
      <trkpt lat="42.8009" lon="2.72901">
        <ele>25</ele>
        <time>2021-03-28T09:18:52Z</time>
      </trkpt>
      <trkpt lat="42.80088" lon="2.72897">
        <ele>134.7</ele>
        <time>2021-03-28T09:18:54Z</time>
      </trkpt>
      <trkpt lat="42.80088" lon="2.72897">
        <ele>25</ele>
        <time>2021-03-28T09:18:54Z</time>
      </trkpt>
      <trkpt lat="42.80085" lon="2.72893">
        <ele>133.2</ele>
        <time>2021-03-28T09:18:56Z</time>
      </trkpt>
      <trkpt lat="42.80085" lon="2.72893">
        <ele>25</ele>
        <time>2021-03-28T09:18:56Z</time>
      </trkpt>
      <trkpt lat="42.80082" lon="2.72888">
        <ele>132.2</ele>
        <time>2021-03-28T09:18:58Z</time>
      </trkpt>
      <trkpt lat="42.80082" lon="2.72888">
        <ele>25</ele>
        <time>2021-03-28T09:18:58Z</time>
      </trkpt>
      <trkpt lat="42.8008" lon="2.72884">
        <ele>133.8</ele>
        <time>2021-03-28T09:18:59Z</time>
      </trkpt>
      <trkpt lat="42.8008" lon="2.72884">
        <ele>25</ele>
        <time>2021-03-28T09:18:59Z</time>
      </trkpt>
      <trkpt lat="42.80078" lon="2.72879">
        <ele>135.2</ele>
        <time>2021-03-28T09:19:01Z</time>
      </trkpt>
      <trkpt lat="42.80078" lon="2.72879">
        <ele>25</ele>
        <time>2021-03-28T09:19:01Z</time>
      </trkpt>
      <trkpt lat="42.80076" lon="2.72875">
        <ele>136.6</ele>
        <time>2021-03-28T09:19:02Z</time>
      </trkpt>
      <trkpt lat="42.80076" lon="2.72875">
        <ele>25</ele>
        <time>2021-03-28T09:19:02Z</time>
      </trkpt>
      <trkpt lat="42.80074" lon="2.72869">
        <ele>138.2</ele>
        <time>2021-03-28T09:19:04Z</time>
      </trkpt>
      <trkpt lat="42.80074" lon="2.72869">
        <ele>25</ele>
        <time>2021-03-28T09:19:04Z</time>
      </trkpt>
      <trkpt lat="42.80073" lon="2.72863">
        <ele>139.2</ele>
        <time>2021-03-28T09:19:06Z</time>
      </trkpt>
      <trkpt lat="42.80073" lon="2.72863">
        <ele>25</ele>
        <time>2021-03-28T09:19:06Z</time>
      </trkpt>
      <trkpt lat="42.80071" lon="2.72856">
        <ele>138.7</ele>
        <time>2021-03-28T09:19:08Z</time>
      </trkpt>
      <trkpt lat="42.80071" lon="2.72856">
        <ele>25</ele>
        <time>2021-03-28T09:19:08Z</time>
      </trkpt>
      <trkpt lat="42.80069" lon="2.7285">
        <ele>137.9</ele>
        <time>2021-03-28T09:19:10Z</time>
      </trkpt>
      <trkpt lat="42.80069" lon="2.7285">
        <ele>25</ele>
        <time>2021-03-28T09:19:10Z</time>
      </trkpt>
      <trkpt lat="42.80067" lon="2.72844">
        <ele>137.5</ele>
        <time>2021-03-28T09:19:12Z</time>
      </trkpt>
      <trkpt lat="42.80067" lon="2.72844">
        <ele>25</ele>
        <time>2021-03-28T09:19:12Z</time>
      </trkpt>
      <trkpt lat="42.80064" lon="2.72837">
        <ele>137.1</ele>
        <time>2021-03-28T09:19:14Z</time>
      </trkpt>
      <trkpt lat="42.80064" lon="2.72837">
        <ele>25</ele>
        <time>2021-03-28T09:19:14Z</time>
      </trkpt>
      <trkpt lat="42.80062" lon="2.72832">
        <ele>137</ele>
        <time>2021-03-28T09:19:15Z</time>
      </trkpt>
      <trkpt lat="42.80062" lon="2.72832">
        <ele>25</ele>
        <time>2021-03-28T09:19:15Z</time>
      </trkpt>
      <trkpt lat="42.8006" lon="2.72826">
        <ele>137.5</ele>
        <time>2021-03-28T09:19:17Z</time>
      </trkpt>
      <trkpt lat="42.8006" lon="2.72826">
        <ele>25</ele>
        <time>2021-03-28T09:19:17Z</time>
      </trkpt>
      <trkpt lat="42.80058" lon="2.72819">
        <ele>138</ele>
        <time>2021-03-28T09:19:19Z</time>
      </trkpt>
      <trkpt lat="42.80058" lon="2.72819">
        <ele>25</ele>
        <time>2021-03-28T09:19:19Z</time>
      </trkpt>
      <trkpt lat="42.80056" lon="2.72812">
        <ele>138.5</ele>
        <time>2021-03-28T09:19:21Z</time>
      </trkpt>
      <trkpt lat="42.80056" lon="2.72812">
        <ele>25</ele>
        <time>2021-03-28T09:19:21Z</time>
      </trkpt>
      <trkpt lat="42.80053" lon="2.72805">
        <ele>139.3</ele>
        <time>2021-03-28T09:19:23Z</time>
      </trkpt>
      <trkpt lat="42.80053" lon="2.72805">
        <ele>25</ele>
        <time>2021-03-28T09:19:23Z</time>
      </trkpt>
      <trkpt lat="42.80051" lon="2.72799">
        <ele>138.8</ele>
        <time>2021-03-28T09:19:25Z</time>
      </trkpt>
      <trkpt lat="42.80051" lon="2.72799">
        <ele>25</ele>
        <time>2021-03-28T09:19:25Z</time>
      </trkpt>
      <trkpt lat="42.80048" lon="2.72794">
        <ele>139.2</ele>
        <time>2021-03-28T09:19:26Z</time>
      </trkpt>
      <trkpt lat="42.80048" lon="2.72794">
        <ele>25</ele>
        <time>2021-03-28T09:19:26Z</time>
      </trkpt>
      <trkpt lat="42.80046" lon="2.7279">
        <ele>139.8</ele>
        <time>2021-03-28T09:19:28Z</time>
      </trkpt>
      <trkpt lat="42.80046" lon="2.7279">
        <ele>25</ele>
        <time>2021-03-28T09:19:28Z</time>
      </trkpt>
      <trkpt lat="42.80043" lon="2.72786">
        <ele>139.9</ele>
        <time>2021-03-28T09:19:30Z</time>
      </trkpt>
      <trkpt lat="42.80043" lon="2.72786">
        <ele>25</ele>
        <time>2021-03-28T09:19:30Z</time>
      </trkpt>
      <trkpt lat="42.80041" lon="2.72782">
        <ele>139.9</ele>
        <time>2021-03-28T09:19:31Z</time>
      </trkpt>
      <trkpt lat="42.80041" lon="2.72782">
        <ele>25</ele>
        <time>2021-03-28T09:19:31Z</time>
      </trkpt>
      <trkpt lat="42.80039" lon="2.72779">
        <ele>139.4</ele>
        <time>2021-03-28T09:19:32Z</time>
      </trkpt>
      <trkpt lat="42.80039" lon="2.72779">
        <ele>25</ele>
        <time>2021-03-28T09:19:32Z</time>
      </trkpt>
      <trkpt lat="42.80037" lon="2.72774">
        <ele>139.4</ele>
        <time>2021-03-28T09:19:34Z</time>
      </trkpt>
      <trkpt lat="42.80037" lon="2.72774">
        <ele>25</ele>
        <time>2021-03-28T09:19:34Z</time>
      </trkpt>
      <trkpt lat="42.80035" lon="2.72769">
        <ele>139.5</ele>
        <time>2021-03-28T09:19:36Z</time>
      </trkpt>
      <trkpt lat="42.80035" lon="2.72769">
        <ele>25</ele>
        <time>2021-03-28T09:19:36Z</time>
      </trkpt>
      <trkpt lat="42.80034" lon="2.72763">
        <ele>138.7</ele>
        <time>2021-03-28T09:19:38Z</time>
      </trkpt>
      <trkpt lat="42.80034" lon="2.72763">
        <ele>25</ele>
        <time>2021-03-28T09:19:38Z</time>
      </trkpt>
      <trkpt lat="42.80033" lon="2.72757">
        <ele>138</ele>
        <time>2021-03-28T09:19:39Z</time>
      </trkpt>
      <trkpt lat="42.80033" lon="2.72757">
        <ele>25</ele>
        <time>2021-03-28T09:19:39Z</time>
      </trkpt>
      <trkpt lat="42.80033" lon="2.72752">
        <ele>137.3</ele>
        <time>2021-03-28T09:19:40Z</time>
      </trkpt>
      <trkpt lat="42.80033" lon="2.72752">
        <ele>25</ele>
        <time>2021-03-28T09:19:40Z</time>
      </trkpt>
      <trkpt lat="42.80033" lon="2.72748">
        <ele>137</ele>
        <time>2021-03-28T09:19:41Z</time>
      </trkpt>
      <trkpt lat="42.80033" lon="2.72748">
        <ele>25</ele>
        <time>2021-03-28T09:19:41Z</time>
      </trkpt>
      <trkpt lat="42.80033" lon="2.72743">
        <ele>137.2</ele>
        <time>2021-03-28T09:19:42Z</time>
      </trkpt>
      <trkpt lat="42.80033" lon="2.72743">
        <ele>25</ele>
        <time>2021-03-28T09:19:42Z</time>
      </trkpt>
      <trkpt lat="42.80033" lon="2.72739">
        <ele>137.2</ele>
        <time>2021-03-28T09:19:44Z</time>
      </trkpt>
      <trkpt lat="42.80033" lon="2.72739">
        <ele>25</ele>
        <time>2021-03-28T09:19:44Z</time>
      </trkpt>
      <trkpt lat="42.80033" lon="2.72733">
        <ele>137</ele>
        <time>2021-03-28T09:19:46Z</time>
      </trkpt>
      <trkpt lat="42.80033" lon="2.72733">
        <ele>25</ele>
        <time>2021-03-28T09:19:46Z</time>
      </trkpt>
      <trkpt lat="42.80033" lon="2.72727">
        <ele>136.8</ele>
        <time>2021-03-28T09:19:48Z</time>
      </trkpt>
      <trkpt lat="42.80033" lon="2.72727">
        <ele>136.8</ele>
        <time>2021-03-28T09:19:48Z</time>
      </trkpt>
      <trkpt lat="42.80034" lon="2.72721">
        <ele>136.5</ele>
        <time>2021-03-28T09:19:49Z</time>
      </trkpt>
      <trkpt lat="42.80034" lon="2.72721">
        <ele>136.5</ele>
        <time>2021-03-28T09:19:49Z</time>
      </trkpt>
      <trkpt lat="42.80034" lon="2.72717">
        <ele>136.2</ele>
        <time>2021-03-28T09:19:50Z</time>
      </trkpt>
      <trkpt lat="42.80034" lon="2.72717">
        <ele>136.2</ele>
        <time>2021-03-28T09:19:50Z</time>
      </trkpt>
      <trkpt lat="42.80033" lon="2.72711">
        <ele>136.3</ele>
        <time>2021-03-28T09:19:52Z</time>
      </trkpt>
      <trkpt lat="42.80033" lon="2.72711">
        <ele>136.3</ele>
        <time>2021-03-28T09:19:52Z</time>
      </trkpt>
      <trkpt lat="42.80033" lon="2.72706">
        <ele>136.3</ele>
        <time>2021-03-28T09:19:54Z</time>
      </trkpt>
      <trkpt lat="42.80033" lon="2.72706">
        <ele>136.3</ele>
        <time>2021-03-28T09:19:54Z</time>
      </trkpt>
      <trkpt lat="42.80032" lon="2.727">
        <ele>136.7</ele>
        <time>2021-03-28T09:19:56Z</time>
      </trkpt>
      <trkpt lat="42.80032" lon="2.727">
        <ele>136.7</ele>
        <time>2021-03-28T09:19:56Z</time>
      </trkpt>
      <trkpt lat="42.80031" lon="2.72695">
        <ele>136.9</ele>
        <time>2021-03-28T09:19:57Z</time>
      </trkpt>
      <trkpt lat="42.80031" lon="2.72695">
        <ele>136.9</ele>
        <time>2021-03-28T09:19:57Z</time>
      </trkpt>
      <trkpt lat="42.8003" lon="2.72689">
        <ele>136.9</ele>
        <time>2021-03-28T09:19:59Z</time>
      </trkpt>
      <trkpt lat="42.8003" lon="2.72689">
        <ele>136.9</ele>
        <time>2021-03-28T09:19:59Z</time>
      </trkpt>
      <trkpt lat="42.80029" lon="2.72684">
        <ele>136.7</ele>
        <time>2021-03-28T09:20:00Z</time>
      </trkpt>
      <trkpt lat="42.80029" lon="2.72684">
        <ele>136.7</ele>
        <time>2021-03-28T09:20:00Z</time>
      </trkpt>
      <trkpt lat="42.80029" lon="2.72678">
        <ele>136.5</ele>
        <time>2021-03-28T09:20:02Z</time>
      </trkpt>
      <trkpt lat="42.80029" lon="2.72678">
        <ele>136.5</ele>
        <time>2021-03-28T09:20:02Z</time>
      </trkpt>
      <trkpt lat="42.80027" lon="2.72672">
        <ele>136.9</ele>
        <time>2021-03-28T09:20:04Z</time>
      </trkpt>
      <trkpt lat="42.80027" lon="2.72672">
        <ele>136.9</ele>
        <time>2021-03-28T09:20:04Z</time>
      </trkpt>
      <trkpt lat="42.80027" lon="2.72666">
        <ele>137.1</ele>
        <time>2021-03-28T09:20:05Z</time>
      </trkpt>
      <trkpt lat="42.80027" lon="2.72666">
        <ele>137.1</ele>
        <time>2021-03-28T09:20:05Z</time>
      </trkpt>
      <trkpt lat="42.80026" lon="2.7266">
        <ele>137.7</ele>
        <time>2021-03-28T09:20:07Z</time>
      </trkpt>
      <trkpt lat="42.80026" lon="2.7266">
        <ele>137.7</ele>
        <time>2021-03-28T09:20:07Z</time>
      </trkpt>
      <trkpt lat="42.80025" lon="2.72654">
        <ele>138.2</ele>
        <time>2021-03-28T09:20:08Z</time>
      </trkpt>
      <trkpt lat="42.80025" lon="2.72654">
        <ele>138.2</ele>
        <time>2021-03-28T09:20:08Z</time>
      </trkpt>
      <trkpt lat="42.80024" lon="2.72648">
        <ele>139</ele>
        <time>2021-03-28T09:20:10Z</time>
      </trkpt>
      <trkpt lat="42.80024" lon="2.72648">
        <ele>139</ele>
        <time>2021-03-28T09:20:10Z</time>
      </trkpt>
      <trkpt lat="42.80024" lon="2.72643">
        <ele>139.7</ele>
        <time>2021-03-28T09:20:11Z</time>
      </trkpt>
      <trkpt lat="42.80024" lon="2.72643">
        <ele>139.7</ele>
        <time>2021-03-28T09:20:11Z</time>
      </trkpt>
      <trkpt lat="42.80022" lon="2.72637">
        <ele>140.8</ele>
        <time>2021-03-28T09:20:13Z</time>
      </trkpt>
      <trkpt lat="42.80022" lon="2.72637">
        <ele>140.8</ele>
        <time>2021-03-28T09:20:13Z</time>
      </trkpt>
      <trkpt lat="42.80021" lon="2.72633">
        <ele>141.2</ele>
        <time>2021-03-28T09:20:14Z</time>
      </trkpt>
      <trkpt lat="42.80021" lon="2.72633">
        <ele>141.2</ele>
        <time>2021-03-28T09:20:14Z</time>
      </trkpt>
      <trkpt lat="42.8002" lon="2.72628">
        <ele>141.8</ele>
        <time>2021-03-28T09:20:16Z</time>
      </trkpt>
      <trkpt lat="42.8002" lon="2.72628">
        <ele>141.8</ele>
        <time>2021-03-28T09:20:16Z</time>
      </trkpt>
      <trkpt lat="42.80018" lon="2.72622">
        <ele>142.4</ele>
        <time>2021-03-28T09:20:18Z</time>
      </trkpt>
      <trkpt lat="42.80018" lon="2.72622">
        <ele>142.4</ele>
        <time>2021-03-28T09:20:18Z</time>
      </trkpt>
      <trkpt lat="42.80016" lon="2.72617">
        <ele>143</ele>
        <time>2021-03-28T09:20:20Z</time>
      </trkpt>
      <trkpt lat="42.80016" lon="2.72617">
        <ele>143</ele>
        <time>2021-03-28T09:20:20Z</time>
      </trkpt>
      <trkpt lat="42.80014" lon="2.72612">
        <ele>143.4</ele>
        <time>2021-03-28T09:20:21Z</time>
      </trkpt>
      <trkpt lat="42.80014" lon="2.72612">
        <ele>143.4</ele>
        <time>2021-03-28T09:20:21Z</time>
      </trkpt>
      <trkpt lat="42.80013" lon="2.72608">
        <ele>143.5</ele>
        <time>2021-03-28T09:20:22Z</time>
      </trkpt>
      <trkpt lat="42.80013" lon="2.72608">
        <ele>143.5</ele>
        <time>2021-03-28T09:20:22Z</time>
      </trkpt>
      <trkpt lat="42.80011" lon="2.72603">
        <ele>143.6</ele>
        <time>2021-03-28T09:20:24Z</time>
      </trkpt>
      <trkpt lat="42.80011" lon="2.72603">
        <ele>143.6</ele>
        <time>2021-03-28T09:20:24Z</time>
      </trkpt>
      <trkpt lat="42.80008" lon="2.72597">
        <ele>143.7</ele>
        <time>2021-03-28T09:20:26Z</time>
      </trkpt>
      <trkpt lat="42.80008" lon="2.72597">
        <ele>143.7</ele>
        <time>2021-03-28T09:20:26Z</time>
      </trkpt>
      <trkpt lat="42.80006" lon="2.72592">
        <ele>143.6</ele>
        <time>2021-03-28T09:20:28Z</time>
      </trkpt>
      <trkpt lat="42.80006" lon="2.72592">
        <ele>143.6</ele>
        <time>2021-03-28T09:20:28Z</time>
      </trkpt>
      <trkpt lat="42.80004" lon="2.72586">
        <ele>143.4</ele>
        <time>2021-03-28T09:20:30Z</time>
      </trkpt>
      <trkpt lat="42.80004" lon="2.72586">
        <ele>143.4</ele>
        <time>2021-03-28T09:20:30Z</time>
      </trkpt>
      <trkpt lat="42.80003" lon="2.7258">
        <ele>143</ele>
        <time>2021-03-28T09:20:32Z</time>
      </trkpt>
      <trkpt lat="42.80003" lon="2.7258">
        <ele>143</ele>
        <time>2021-03-28T09:20:32Z</time>
      </trkpt>
      <trkpt lat="42.80001" lon="2.72575">
        <ele>143</ele>
        <time>2021-03-28T09:20:33Z</time>
      </trkpt>
      <trkpt lat="42.80001" lon="2.72575">
        <ele>143</ele>
        <time>2021-03-28T09:20:33Z</time>
      </trkpt>
      <trkpt lat="42.8" lon="2.72569">
        <ele>143</ele>
        <time>2021-03-28T09:20:35Z</time>
      </trkpt>
      <trkpt lat="42.8" lon="2.72569">
        <ele>143</ele>
        <time>2021-03-28T09:20:35Z</time>
      </trkpt>
      <trkpt lat="42.79998" lon="2.72563">
        <ele>143</ele>
        <time>2021-03-28T09:20:37Z</time>
      </trkpt>
      <trkpt lat="42.79998" lon="2.72563">
        <ele>143</ele>
        <time>2021-03-28T09:20:37Z</time>
      </trkpt>
      <trkpt lat="42.79995" lon="2.72558">
        <ele>142.9</ele>
        <time>2021-03-28T09:20:39Z</time>
      </trkpt>
      <trkpt lat="42.79995" lon="2.72558">
        <ele>142.9</ele>
        <time>2021-03-28T09:20:39Z</time>
      </trkpt>
      <trkpt lat="42.79993" lon="2.72554">
        <ele>142.8</ele>
        <time>2021-03-28T09:20:40Z</time>
      </trkpt>
      <trkpt lat="42.79993" lon="2.72554">
        <ele>142.8</ele>
        <time>2021-03-28T09:20:40Z</time>
      </trkpt>
      <trkpt lat="42.7999" lon="2.7255">
        <ele>142.7</ele>
        <time>2021-03-28T09:20:42Z</time>
      </trkpt>
      <trkpt lat="42.7999" lon="2.7255">
        <ele>142.7</ele>
        <time>2021-03-28T09:20:42Z</time>
      </trkpt>
      <trkpt lat="42.79986" lon="2.72546">
        <ele>143</ele>
        <time>2021-03-28T09:20:44Z</time>
      </trkpt>
      <trkpt lat="42.79986" lon="2.72546">
        <ele>143</ele>
        <time>2021-03-28T09:20:44Z</time>
      </trkpt>
      <trkpt lat="42.79981" lon="2.72545">
        <ele>144.1</ele>
        <time>2021-03-28T09:20:46Z</time>
      </trkpt>
      <trkpt lat="42.79981" lon="2.72545">
        <ele>144.1</ele>
        <time>2021-03-28T09:20:46Z</time>
      </trkpt>
      <trkpt lat="42.79977" lon="2.72544">
        <ele>145.1</ele>
        <time>2021-03-28T09:20:47Z</time>
      </trkpt>
      <trkpt lat="42.79977" lon="2.72544">
        <ele>145.1</ele>
        <time>2021-03-28T09:20:47Z</time>
      </trkpt>
      <trkpt lat="42.79973" lon="2.72544">
        <ele>146.5</ele>
        <time>2021-03-28T09:20:49Z</time>
      </trkpt>
      <trkpt lat="42.79973" lon="2.72544">
        <ele>146.5</ele>
        <time>2021-03-28T09:20:49Z</time>
      </trkpt>
      <trkpt lat="42.79969" lon="2.72544">
        <ele>146.4</ele>
        <time>2021-03-28T09:20:50Z</time>
      </trkpt>
      <trkpt lat="42.79969" lon="2.72544">
        <ele>146.4</ele>
        <time>2021-03-28T09:20:50Z</time>
      </trkpt>
      <trkpt lat="42.79965" lon="2.72546">
        <ele>146.4</ele>
        <time>2021-03-28T09:20:52Z</time>
      </trkpt>
      <trkpt lat="42.79965" lon="2.72546">
        <ele>146.4</ele>
        <time>2021-03-28T09:20:52Z</time>
      </trkpt>
      <trkpt lat="42.79961" lon="2.72548">
        <ele>146.6</ele>
        <time>2021-03-28T09:20:54Z</time>
      </trkpt>
      <trkpt lat="42.79961" lon="2.72548">
        <ele>146.6</ele>
        <time>2021-03-28T09:20:54Z</time>
      </trkpt>
      <trkpt lat="42.79957" lon="2.72549">
        <ele>146.7</ele>
        <time>2021-03-28T09:20:55Z</time>
      </trkpt>
      <trkpt lat="42.79957" lon="2.72549">
        <ele>146.7</ele>
        <time>2021-03-28T09:20:55Z</time>
      </trkpt>
      <trkpt lat="42.79953" lon="2.7255">
        <ele>146.7</ele>
        <time>2021-03-28T09:20:57Z</time>
      </trkpt>
      <trkpt lat="42.79953" lon="2.7255">
        <ele>146.7</ele>
        <time>2021-03-28T09:20:57Z</time>
      </trkpt>
      <trkpt lat="42.79949" lon="2.72551">
        <ele>146.6</ele>
        <time>2021-03-28T09:20:59Z</time>
      </trkpt>
      <trkpt lat="42.79949" lon="2.72551">
        <ele>146.6</ele>
        <time>2021-03-28T09:20:59Z</time>
      </trkpt>
      <trkpt lat="42.79945" lon="2.72552">
        <ele>146.8</ele>
        <time>2021-03-28T09:21:00Z</time>
      </trkpt>
      <trkpt lat="42.79945" lon="2.72552">
        <ele>146.8</ele>
        <time>2021-03-28T09:21:00Z</time>
      </trkpt>
      <trkpt lat="42.79942" lon="2.72553">
        <ele>146.9</ele>
        <time>2021-03-28T09:21:01Z</time>
      </trkpt>
      <trkpt lat="42.79942" lon="2.72553">
        <ele>146.9</ele>
        <time>2021-03-28T09:21:01Z</time>
      </trkpt>
      <trkpt lat="42.79939" lon="2.72554">
        <ele>147.1</ele>
        <time>2021-03-28T09:21:02Z</time>
      </trkpt>
      <trkpt lat="42.79939" lon="2.72554">
        <ele>147.1</ele>
        <time>2021-03-28T09:21:02Z</time>
      </trkpt>
      <trkpt lat="42.79935" lon="2.72555">
        <ele>147.5</ele>
        <time>2021-03-28T09:21:04Z</time>
      </trkpt>
      <trkpt lat="42.79935" lon="2.72555">
        <ele>147.5</ele>
        <time>2021-03-28T09:21:04Z</time>
      </trkpt>
      <trkpt lat="42.79931" lon="2.72557">
        <ele>147.9</ele>
        <time>2021-03-28T09:21:06Z</time>
      </trkpt>
      <trkpt lat="42.79931" lon="2.72557">
        <ele>147.9</ele>
        <time>2021-03-28T09:21:06Z</time>
      </trkpt>
      <trkpt lat="42.79927" lon="2.72558">
        <ele>148.2</ele>
        <time>2021-03-28T09:21:07Z</time>
      </trkpt>
      <trkpt lat="42.79927" lon="2.72558">
        <ele>148.2</ele>
        <time>2021-03-28T09:21:07Z</time>
      </trkpt>
      <trkpt lat="42.79924" lon="2.72559">
        <ele>148.5</ele>
        <time>2021-03-28T09:21:08Z</time>
      </trkpt>
      <trkpt lat="42.79924" lon="2.72559">
        <ele>148.5</ele>
        <time>2021-03-28T09:21:08Z</time>
      </trkpt>
      <trkpt lat="42.79922" lon="2.72561">
        <ele>148.7</ele>
        <time>2021-03-28T09:21:09Z</time>
      </trkpt>
      <trkpt lat="42.79922" lon="2.72561">
        <ele>148.7</ele>
        <time>2021-03-28T09:21:09Z</time>
      </trkpt>
      <trkpt lat="42.79918" lon="2.72562">
        <ele>148.9</ele>
        <time>2021-03-28T09:21:11Z</time>
      </trkpt>
      <trkpt lat="42.79918" lon="2.72562">
        <ele>148.9</ele>
        <time>2021-03-28T09:21:11Z</time>
      </trkpt>
      <trkpt lat="42.79913" lon="2.72563">
        <ele>149</ele>
        <time>2021-03-28T09:21:13Z</time>
      </trkpt>
      <trkpt lat="42.79913" lon="2.72563">
        <ele>149</ele>
        <time>2021-03-28T09:21:13Z</time>
      </trkpt>
      <trkpt lat="42.79909" lon="2.72565">
        <ele>149.1</ele>
        <time>2021-03-28T09:21:15Z</time>
      </trkpt>
      <trkpt lat="42.79909" lon="2.72565">
        <ele>149.1</ele>
        <time>2021-03-28T09:21:15Z</time>
      </trkpt>
      <trkpt lat="42.79904" lon="2.72566">
        <ele>149.1</ele>
        <time>2021-03-28T09:21:17Z</time>
      </trkpt>
      <trkpt lat="42.79904" lon="2.72566">
        <ele>149.1</ele>
        <time>2021-03-28T09:21:17Z</time>
      </trkpt>
      <trkpt lat="42.79899" lon="2.72567">
        <ele>148.9</ele>
        <time>2021-03-28T09:21:19Z</time>
      </trkpt>
      <trkpt lat="42.79899" lon="2.72567">
        <ele>148.9</ele>
        <time>2021-03-28T09:21:19Z</time>
      </trkpt>
      <trkpt lat="42.79893" lon="2.72566">
        <ele>148.4</ele>
        <time>2021-03-28T09:21:21Z</time>
      </trkpt>
      <trkpt lat="42.79893" lon="2.72566">
        <ele>148.4</ele>
        <time>2021-03-28T09:21:21Z</time>
      </trkpt>
      <trkpt lat="42.79888" lon="2.72563">
        <ele>148.1</ele>
        <time>2021-03-28T09:21:23Z</time>
      </trkpt>
      <trkpt lat="42.79888" lon="2.72563">
        <ele>148.1</ele>
        <time>2021-03-28T09:21:23Z</time>
      </trkpt>
      <trkpt lat="42.79884" lon="2.72558">
        <ele>149.1</ele>
        <time>2021-03-28T09:21:25Z</time>
      </trkpt>
      <trkpt lat="42.79884" lon="2.72558">
        <ele>149.1</ele>
        <time>2021-03-28T09:21:25Z</time>
      </trkpt>
      <trkpt lat="42.79881" lon="2.72554">
        <ele>149.8</ele>
        <time>2021-03-28T09:21:26Z</time>
      </trkpt>
      <trkpt lat="42.79881" lon="2.72554">
        <ele>149.8</ele>
        <time>2021-03-28T09:21:26Z</time>
      </trkpt>
      <trkpt lat="42.79879" lon="2.72549">
        <ele>150.5</ele>
        <time>2021-03-28T09:21:27Z</time>
      </trkpt>
      <trkpt lat="42.79879" lon="2.72549">
        <ele>150.5</ele>
        <time>2021-03-28T09:21:27Z</time>
      </trkpt>
      <trkpt lat="42.79878" lon="2.72543">
        <ele>150.9</ele>
        <time>2021-03-28T09:21:29Z</time>
      </trkpt>
      <trkpt lat="42.79878" lon="2.72543">
        <ele>150.9</ele>
        <time>2021-03-28T09:21:29Z</time>
      </trkpt>
      <trkpt lat="42.79878" lon="2.72538">
        <ele>151.1</ele>
        <time>2021-03-28T09:21:30Z</time>
      </trkpt>
      <trkpt lat="42.79878" lon="2.72538">
        <ele>151.1</ele>
        <time>2021-03-28T09:21:30Z</time>
      </trkpt>
      <trkpt lat="42.79878" lon="2.72532">
        <ele>150.9</ele>
        <time>2021-03-28T09:21:32Z</time>
      </trkpt>
      <trkpt lat="42.79878" lon="2.72532">
        <ele>150.9</ele>
        <time>2021-03-28T09:21:32Z</time>
      </trkpt>
      <trkpt lat="42.79879" lon="2.72527">
        <ele>150.8</ele>
        <time>2021-03-28T09:21:33Z</time>
      </trkpt>
      <trkpt lat="42.79879" lon="2.72527">
        <ele>150.8</ele>
        <time>2021-03-28T09:21:33Z</time>
      </trkpt>
      <trkpt lat="42.79881" lon="2.72521">
        <ele>151</ele>
        <time>2021-03-28T09:21:35Z</time>
      </trkpt>
      <trkpt lat="42.79881" lon="2.72521">
        <ele>151</ele>
        <time>2021-03-28T09:21:35Z</time>
      </trkpt>
      <trkpt lat="42.79883" lon="2.72516">
        <ele>151.3</ele>
        <time>2021-03-28T09:21:37Z</time>
      </trkpt>
      <trkpt lat="42.79883" lon="2.72516">
        <ele>151.3</ele>
        <time>2021-03-28T09:21:37Z</time>
      </trkpt>
      <trkpt lat="42.79886" lon="2.72511">
        <ele>151.4</ele>
        <time>2021-03-28T09:21:38Z</time>
      </trkpt>
      <trkpt lat="42.79886" lon="2.72511">
        <ele>151.4</ele>
        <time>2021-03-28T09:21:38Z</time>
      </trkpt>
      <trkpt lat="42.79889" lon="2.72506">
        <ele>151.9</ele>
        <time>2021-03-28T09:21:40Z</time>
      </trkpt>
      <trkpt lat="42.79889" lon="2.72506">
        <ele>151.9</ele>
        <time>2021-03-28T09:21:40Z</time>
      </trkpt>
      <trkpt lat="42.79892" lon="2.725">
        <ele>152.1</ele>
        <time>2021-03-28T09:21:42Z</time>
      </trkpt>
      <trkpt lat="42.79892" lon="2.725">
        <ele>152.1</ele>
        <time>2021-03-28T09:21:42Z</time>
      </trkpt>
      <trkpt lat="42.79895" lon="2.72496">
        <ele>152.1</ele>
        <time>2021-03-28T09:21:43Z</time>
      </trkpt>
      <trkpt lat="42.79895" lon="2.72496">
        <ele>152.1</ele>
        <time>2021-03-28T09:21:43Z</time>
      </trkpt>
      <trkpt lat="42.79897" lon="2.7249">
        <ele>152.3</ele>
        <time>2021-03-28T09:21:45Z</time>
      </trkpt>
      <trkpt lat="42.79897" lon="2.7249">
        <ele>152.3</ele>
        <time>2021-03-28T09:21:45Z</time>
      </trkpt>
      <trkpt lat="42.799" lon="2.72485">
        <ele>152.5</ele>
        <time>2021-03-28T09:21:47Z</time>
      </trkpt>
      <trkpt lat="42.799" lon="2.72485">
        <ele>152.5</ele>
        <time>2021-03-28T09:21:47Z</time>
      </trkpt>
      <trkpt lat="42.79903" lon="2.72479">
        <ele>152.6</ele>
        <time>2021-03-28T09:21:48Z</time>
      </trkpt>
      <trkpt lat="42.79903" lon="2.72479">
        <ele>152.6</ele>
        <time>2021-03-28T09:21:48Z</time>
      </trkpt>
      <trkpt lat="42.79906" lon="2.72474">
        <ele>152.9</ele>
        <time>2021-03-28T09:21:49Z</time>
      </trkpt>
      <trkpt lat="42.79906" lon="2.72474">
        <ele>152.9</ele>
        <time>2021-03-28T09:21:49Z</time>
      </trkpt>
      <trkpt lat="42.79908" lon="2.72469">
        <ele>153</ele>
        <time>2021-03-28T09:21:51Z</time>
      </trkpt>
      <trkpt lat="42.79908" lon="2.72469">
        <ele>153</ele>
        <time>2021-03-28T09:21:51Z</time>
      </trkpt>
      <trkpt lat="42.7991" lon="2.72463">
        <ele>153.1</ele>
        <time>2021-03-28T09:21:53Z</time>
      </trkpt>
      <trkpt lat="42.7991" lon="2.72463">
        <ele>153.1</ele>
        <time>2021-03-28T09:21:53Z</time>
      </trkpt>
      <trkpt lat="42.79912" lon="2.72457">
        <ele>153.2</ele>
        <time>2021-03-28T09:21:54Z</time>
      </trkpt>
      <trkpt lat="42.79912" lon="2.72457">
        <ele>153.2</ele>
        <time>2021-03-28T09:21:54Z</time>
      </trkpt>
      <trkpt lat="42.79913" lon="2.72453">
        <ele>153.4</ele>
        <time>2021-03-28T09:21:55Z</time>
      </trkpt>
      <trkpt lat="42.79913" lon="2.72453">
        <ele>153.4</ele>
        <time>2021-03-28T09:21:55Z</time>
      </trkpt>
      <trkpt lat="42.79914" lon="2.72448">
        <ele>153.7</ele>
        <time>2021-03-28T09:21:57Z</time>
      </trkpt>
      <trkpt lat="42.79914" lon="2.72448">
        <ele>153.7</ele>
        <time>2021-03-28T09:21:57Z</time>
      </trkpt>
      <trkpt lat="42.79914" lon="2.72443">
        <ele>153.8</ele>
        <time>2021-03-28T09:21:59Z</time>
      </trkpt>
      <trkpt lat="42.79914" lon="2.72443">
        <ele>153.8</ele>
        <time>2021-03-28T09:21:59Z</time>
      </trkpt>
      <trkpt lat="42.79914" lon="2.72438">
        <ele>153.6</ele>
        <time>2021-03-28T09:22:00Z</time>
      </trkpt>
      <trkpt lat="42.79914" lon="2.72438">
        <ele>153.6</ele>
        <time>2021-03-28T09:22:00Z</time>
      </trkpt>
      <trkpt lat="42.79913" lon="2.72433">
        <ele>153.5</ele>
        <time>2021-03-28T09:22:02Z</time>
      </trkpt>
      <trkpt lat="42.79913" lon="2.72433">
        <ele>153.5</ele>
        <time>2021-03-28T09:22:02Z</time>
      </trkpt>
      <trkpt lat="42.79912" lon="2.72427">
        <ele>153.7</ele>
        <time>2021-03-28T09:22:04Z</time>
      </trkpt>
      <trkpt lat="42.79912" lon="2.72427">
        <ele>153.7</ele>
        <time>2021-03-28T09:22:04Z</time>
      </trkpt>
      <trkpt lat="42.79911" lon="2.72422">
        <ele>153.9</ele>
        <time>2021-03-28T09:22:05Z</time>
      </trkpt>
      <trkpt lat="42.79911" lon="2.72422">
        <ele>153.9</ele>
        <time>2021-03-28T09:22:05Z</time>
      </trkpt>
      <trkpt lat="42.79909" lon="2.72416">
        <ele>154.2</ele>
        <time>2021-03-28T09:22:07Z</time>
      </trkpt>
      <trkpt lat="42.79909" lon="2.72416">
        <ele>154.2</ele>
        <time>2021-03-28T09:22:07Z</time>
      </trkpt>
      <trkpt lat="42.79908" lon="2.72412">
        <ele>154.5</ele>
        <time>2021-03-28T09:22:08Z</time>
      </trkpt>
      <trkpt lat="42.79908" lon="2.72412">
        <ele>154.5</ele>
        <time>2021-03-28T09:22:08Z</time>
      </trkpt>
      <trkpt lat="42.79906" lon="2.72408">
        <ele>154.8</ele>
        <time>2021-03-28T09:22:09Z</time>
      </trkpt>
      <trkpt lat="42.79906" lon="2.72408">
        <ele>154.8</ele>
        <time>2021-03-28T09:22:09Z</time>
      </trkpt>
      <trkpt lat="42.79905" lon="2.72403">
        <ele>155.1</ele>
        <time>2021-03-28T09:22:11Z</time>
      </trkpt>
      <trkpt lat="42.79905" lon="2.72403">
        <ele>155.1</ele>
        <time>2021-03-28T09:22:11Z</time>
      </trkpt>
      <trkpt lat="42.79903" lon="2.72398">
        <ele>155.4</ele>
        <time>2021-03-28T09:22:13Z</time>
      </trkpt>
      <trkpt lat="42.79903" lon="2.72398">
        <ele>155.4</ele>
        <time>2021-03-28T09:22:13Z</time>
      </trkpt>
      <trkpt lat="42.79901" lon="2.72392">
        <ele>155.9</ele>
        <time>2021-03-28T09:22:14Z</time>
      </trkpt>
      <trkpt lat="42.79901" lon="2.72392">
        <ele>155.9</ele>
        <time>2021-03-28T09:22:14Z</time>
      </trkpt>
      <trkpt lat="42.79899" lon="2.72387">
        <ele>156.2</ele>
        <time>2021-03-28T09:22:16Z</time>
      </trkpt>
      <trkpt lat="42.79899" lon="2.72387">
        <ele>156.2</ele>
        <time>2021-03-28T09:22:16Z</time>
      </trkpt>
      <trkpt lat="42.79896" lon="2.72383">
        <ele>156.3</ele>
        <time>2021-03-28T09:22:18Z</time>
      </trkpt>
      <trkpt lat="42.79896" lon="2.72383">
        <ele>156.3</ele>
        <time>2021-03-28T09:22:18Z</time>
      </trkpt>
      <trkpt lat="42.79893" lon="2.72379">
        <ele>156.6</ele>
        <time>2021-03-28T09:22:19Z</time>
      </trkpt>
      <trkpt lat="42.79893" lon="2.72379">
        <ele>156.6</ele>
        <time>2021-03-28T09:22:19Z</time>
      </trkpt>
      <trkpt lat="42.79891" lon="2.72376">
        <ele>157.3</ele>
        <time>2021-03-28T09:22:20Z</time>
      </trkpt>
      <trkpt lat="42.79891" lon="2.72376">
        <ele>157.3</ele>
        <time>2021-03-28T09:22:20Z</time>
      </trkpt>
      <trkpt lat="42.79888" lon="2.72374">
        <ele>157.9</ele>
        <time>2021-03-28T09:22:22Z</time>
      </trkpt>
      <trkpt lat="42.79888" lon="2.72374">
        <ele>157.9</ele>
        <time>2021-03-28T09:22:22Z</time>
      </trkpt>
      <trkpt lat="42.79884" lon="2.72373">
        <ele>157.7</ele>
        <time>2021-03-28T09:22:24Z</time>
      </trkpt>
      <trkpt lat="42.79884" lon="2.72373">
        <ele>157.7</ele>
        <time>2021-03-28T09:22:24Z</time>
      </trkpt>
      <trkpt lat="42.79881" lon="2.72373">
        <ele>157.6</ele>
        <time>2021-03-28T09:22:25Z</time>
      </trkpt>
      <trkpt lat="42.79881" lon="2.72373">
        <ele>157.6</ele>
        <time>2021-03-28T09:22:25Z</time>
      </trkpt>
      <trkpt lat="42.79878" lon="2.72373">
        <ele>157.7</ele>
        <time>2021-03-28T09:22:27Z</time>
      </trkpt>
      <trkpt lat="42.79878" lon="2.72373">
        <ele>157.7</ele>
        <time>2021-03-28T09:22:27Z</time>
      </trkpt>
      <trkpt lat="42.79875" lon="2.72375">
        <ele>158</ele>
        <time>2021-03-28T09:22:28Z</time>
      </trkpt>
      <trkpt lat="42.79875" lon="2.72375">
        <ele>158</ele>
        <time>2021-03-28T09:22:28Z</time>
      </trkpt>
      <trkpt lat="42.79872" lon="2.72377">
        <ele>158.2</ele>
        <time>2021-03-28T09:22:29Z</time>
      </trkpt>
      <trkpt lat="42.79872" lon="2.72377">
        <ele>158.2</ele>
        <time>2021-03-28T09:22:29Z</time>
      </trkpt>
      <trkpt lat="42.7987" lon="2.72379">
        <ele>158.5</ele>
        <time>2021-03-28T09:22:30Z</time>
      </trkpt>
      <trkpt lat="42.7987" lon="2.72379">
        <ele>158.5</ele>
        <time>2021-03-28T09:22:30Z</time>
      </trkpt>
      <trkpt lat="42.79869" lon="2.72382">
        <ele>158.8</ele>
        <time>2021-03-28T09:22:31Z</time>
      </trkpt>
      <trkpt lat="42.79869" lon="2.72382">
        <ele>25</ele>
        <time>2021-03-28T09:22:31Z</time>
      </trkpt>
      <trkpt lat="42.79867" lon="2.72386">
        <ele>159.1</ele>
        <time>2021-03-28T09:22:33Z</time>
      </trkpt>
      <trkpt lat="42.79867" lon="2.72386">
        <ele>25</ele>
        <time>2021-03-28T09:22:33Z</time>
      </trkpt>
      <trkpt lat="42.79866" lon="2.7239">
        <ele>159.4</ele>
        <time>2021-03-28T09:22:34Z</time>
      </trkpt>
      <trkpt lat="42.79866" lon="2.7239">
        <ele>25</ele>
        <time>2021-03-28T09:22:34Z</time>
      </trkpt>
      <trkpt lat="42.79866" lon="2.72393">
        <ele>159.6</ele>
        <time>2021-03-28T09:22:35Z</time>
      </trkpt>
      <trkpt lat="42.79866" lon="2.72393">
        <ele>25</ele>
        <time>2021-03-28T09:22:35Z</time>
      </trkpt>
      <trkpt lat="42.79865" lon="2.72398">
        <ele>159.9</ele>
        <time>2021-03-28T09:22:37Z</time>
      </trkpt>
      <trkpt lat="42.79865" lon="2.72398">
        <ele>25</ele>
        <time>2021-03-28T09:22:37Z</time>
      </trkpt>
      <trkpt lat="42.79864" lon="2.72403">
        <ele>160.2</ele>
        <time>2021-03-28T09:22:39Z</time>
      </trkpt>
      <trkpt lat="42.79864" lon="2.72403">
        <ele>25</ele>
        <time>2021-03-28T09:22:39Z</time>
      </trkpt>
      <trkpt lat="42.79863" lon="2.72408">
        <ele>160.5</ele>
        <time>2021-03-28T09:22:40Z</time>
      </trkpt>
      <trkpt lat="42.79863" lon="2.72408">
        <ele>25</ele>
        <time>2021-03-28T09:22:40Z</time>
      </trkpt>
      <trkpt lat="42.79863" lon="2.72412">
        <ele>160.8</ele>
        <time>2021-03-28T09:22:41Z</time>
      </trkpt>
      <trkpt lat="42.79863" lon="2.72412">
        <ele>25</ele>
        <time>2021-03-28T09:22:41Z</time>
      </trkpt>
      <trkpt lat="42.79862" lon="2.72417">
        <ele>161</ele>
        <time>2021-03-28T09:22:43Z</time>
      </trkpt>
      <trkpt lat="42.79862" lon="2.72417">
        <ele>25</ele>
        <time>2021-03-28T09:22:43Z</time>
      </trkpt>
      <trkpt lat="42.79861" lon="2.72422">
        <ele>160.9</ele>
        <time>2021-03-28T09:22:44Z</time>
      </trkpt>
      <trkpt lat="42.79861" lon="2.72422">
        <ele>25</ele>
        <time>2021-03-28T09:22:44Z</time>
      </trkpt>
      <trkpt lat="42.79859" lon="2.72427">
        <ele>160.6</ele>
        <time>2021-03-28T09:22:46Z</time>
      </trkpt>
      <trkpt lat="42.79859" lon="2.72427">
        <ele>25</ele>
        <time>2021-03-28T09:22:46Z</time>
      </trkpt>
      <trkpt lat="42.79858" lon="2.72431">
        <ele>160.3</ele>
        <time>2021-03-28T09:22:47Z</time>
      </trkpt>
      <trkpt lat="42.79858" lon="2.72431">
        <ele>25</ele>
        <time>2021-03-28T09:22:47Z</time>
      </trkpt>
      <trkpt lat="42.79856" lon="2.72436">
        <ele>160</ele>
        <time>2021-03-28T09:22:49Z</time>
      </trkpt>
      <trkpt lat="42.79856" lon="2.72436">
        <ele>25</ele>
        <time>2021-03-28T09:22:49Z</time>
      </trkpt>
      <trkpt lat="42.79854" lon="2.72441">
        <ele>159.8</ele>
        <time>2021-03-28T09:22:51Z</time>
      </trkpt>
      <trkpt lat="42.79854" lon="2.72441">
        <ele>25</ele>
        <time>2021-03-28T09:22:51Z</time>
      </trkpt>
      <trkpt lat="42.79852" lon="2.72445">
        <ele>159.7</ele>
        <time>2021-03-28T09:22:52Z</time>
      </trkpt>
      <trkpt lat="42.79852" lon="2.72445">
        <ele>25</ele>
        <time>2021-03-28T09:22:52Z</time>
      </trkpt>
      <trkpt lat="42.79849" lon="2.72449">
        <ele>159.7</ele>
        <time>2021-03-28T09:22:54Z</time>
      </trkpt>
      <trkpt lat="42.79849" lon="2.72449">
        <ele>25</ele>
        <time>2021-03-28T09:22:54Z</time>
      </trkpt>
      <trkpt lat="42.79847" lon="2.72454">
        <ele>159.8</ele>
        <time>2021-03-28T09:22:56Z</time>
      </trkpt>
      <trkpt lat="42.79847" lon="2.72454">
        <ele>25</ele>
        <time>2021-03-28T09:22:56Z</time>
      </trkpt>
      <trkpt lat="42.79844" lon="2.72459">
        <ele>160.1</ele>
        <time>2021-03-28T09:22:58Z</time>
      </trkpt>
      <trkpt lat="42.79844" lon="2.72459">
        <ele>25</ele>
        <time>2021-03-28T09:22:58Z</time>
      </trkpt>
      <trkpt lat="42.79842" lon="2.72463">
        <ele>160.5</ele>
        <time>2021-03-28T09:22:59Z</time>
      </trkpt>
      <trkpt lat="42.79842" lon="2.72463">
        <ele>25</ele>
        <time>2021-03-28T09:22:59Z</time>
      </trkpt>
      <trkpt lat="42.7984" lon="2.72466">
        <ele>160.9</ele>
        <time>2021-03-28T09:23:00Z</time>
      </trkpt>
      <trkpt lat="42.7984" lon="2.72466">
        <ele>25</ele>
        <time>2021-03-28T09:23:00Z</time>
      </trkpt>
      <trkpt lat="42.79838" lon="2.7247">
        <ele>161.4</ele>
        <time>2021-03-28T09:23:01Z</time>
      </trkpt>
      <trkpt lat="42.79838" lon="2.7247">
        <ele>25</ele>
        <time>2021-03-28T09:23:01Z</time>
      </trkpt>
      <trkpt lat="42.79836" lon="2.72473">
        <ele>161.9</ele>
        <time>2021-03-28T09:23:02Z</time>
      </trkpt>
      <trkpt lat="42.79836" lon="2.72473">
        <ele>25</ele>
        <time>2021-03-28T09:23:02Z</time>
      </trkpt>
      <trkpt lat="42.79834" lon="2.72476">
        <ele>162.1</ele>
        <time>2021-03-28T09:23:04Z</time>
      </trkpt>
      <trkpt lat="42.79834" lon="2.72476">
        <ele>25</ele>
        <time>2021-03-28T09:23:04Z</time>
      </trkpt>
      <trkpt lat="42.79832" lon="2.7248">
        <ele>162.2</ele>
        <time>2021-03-28T09:23:06Z</time>
      </trkpt>
      <trkpt lat="42.79832" lon="2.7248">
        <ele>25</ele>
        <time>2021-03-28T09:23:06Z</time>
      </trkpt>
      <trkpt lat="42.7983" lon="2.72484">
        <ele>162.4</ele>
        <time>2021-03-28T09:23:07Z</time>
      </trkpt>
      <trkpt lat="42.7983" lon="2.72484">
        <ele>25</ele>
        <time>2021-03-28T09:23:07Z</time>
      </trkpt>
      <trkpt lat="42.79827" lon="2.72488">
        <ele>162.6</ele>
        <time>2021-03-28T09:23:09Z</time>
      </trkpt>
      <trkpt lat="42.79827" lon="2.72488">
        <ele>25</ele>
        <time>2021-03-28T09:23:09Z</time>
      </trkpt>
      <trkpt lat="42.79824" lon="2.72491">
        <ele>162.9</ele>
        <time>2021-03-28T09:23:11Z</time>
      </trkpt>
      <trkpt lat="42.79824" lon="2.72491">
        <ele>25</ele>
        <time>2021-03-28T09:23:11Z</time>
      </trkpt>
      <trkpt lat="42.79821" lon="2.72495">
        <ele>163.4</ele>
        <time>2021-03-28T09:23:13Z</time>
      </trkpt>
      <trkpt lat="42.79821" lon="2.72495">
        <ele>25</ele>
        <time>2021-03-28T09:23:13Z</time>
      </trkpt>
      <trkpt lat="42.79818" lon="2.72499">
        <ele>164</ele>
        <time>2021-03-28T09:23:15Z</time>
      </trkpt>
      <trkpt lat="42.79818" lon="2.72499">
        <ele>25</ele>
        <time>2021-03-28T09:23:15Z</time>
      </trkpt>
      <trkpt lat="42.79814" lon="2.72502">
        <ele>164.8</ele>
        <time>2021-03-28T09:23:17Z</time>
      </trkpt>
      <trkpt lat="42.79814" lon="2.72502">
        <ele>25</ele>
        <time>2021-03-28T09:23:17Z</time>
      </trkpt>
      <trkpt lat="42.79811" lon="2.72505">
        <ele>165.5</ele>
        <time>2021-03-28T09:23:18Z</time>
      </trkpt>
      <trkpt lat="42.79811" lon="2.72505">
        <ele>25</ele>
        <time>2021-03-28T09:23:18Z</time>
      </trkpt>
      <trkpt lat="42.79808" lon="2.72507">
        <ele>166.2</ele>
        <time>2021-03-28T09:23:19Z</time>
      </trkpt>
      <trkpt lat="42.79808" lon="2.72507">
        <ele>25</ele>
        <time>2021-03-28T09:23:19Z</time>
      </trkpt>
      <trkpt lat="42.79804" lon="2.72509">
        <ele>166.9</ele>
        <time>2021-03-28T09:23:21Z</time>
      </trkpt>
      <trkpt lat="42.79804" lon="2.72509">
        <ele>25</ele>
        <time>2021-03-28T09:23:21Z</time>
      </trkpt>
      <trkpt lat="42.798" lon="2.7251">
        <ele>167.5</ele>
        <time>2021-03-28T09:23:23Z</time>
      </trkpt>
      <trkpt lat="42.798" lon="2.7251">
        <ele>25</ele>
        <time>2021-03-28T09:23:23Z</time>
      </trkpt>
      <trkpt lat="42.79796" lon="2.72511">
        <ele>167.9</ele>
        <time>2021-03-28T09:23:25Z</time>
      </trkpt>
      <trkpt lat="42.79796" lon="2.72511">
        <ele>25</ele>
        <time>2021-03-28T09:23:25Z</time>
      </trkpt>
      <trkpt lat="42.79791" lon="2.72512">
        <ele>168.1</ele>
        <time>2021-03-28T09:23:27Z</time>
      </trkpt>
      <trkpt lat="42.79791" lon="2.72512">
        <ele>25</ele>
        <time>2021-03-28T09:23:27Z</time>
      </trkpt>
      <trkpt lat="42.79787" lon="2.72511">
        <ele>168.1</ele>
        <time>2021-03-28T09:23:29Z</time>
      </trkpt>
      <trkpt lat="42.79787" lon="2.72511">
        <ele>25</ele>
        <time>2021-03-28T09:23:29Z</time>
      </trkpt>
      <trkpt lat="42.79783" lon="2.72509">
        <ele>168</ele>
        <time>2021-03-28T09:23:31Z</time>
      </trkpt>
      <trkpt lat="42.79783" lon="2.72509">
        <ele>25</ele>
        <time>2021-03-28T09:23:31Z</time>
      </trkpt>
      <trkpt lat="42.79779" lon="2.72507">
        <ele>167.9</ele>
        <time>2021-03-28T09:23:32Z</time>
      </trkpt>
      <trkpt lat="42.79779" lon="2.72507">
        <ele>25</ele>
        <time>2021-03-28T09:23:32Z</time>
      </trkpt>
      <trkpt lat="42.79776" lon="2.72505">
        <ele>168</ele>
        <time>2021-03-28T09:23:33Z</time>
      </trkpt>
      <trkpt lat="42.79776" lon="2.72505">
        <ele>25</ele>
        <time>2021-03-28T09:23:33Z</time>
      </trkpt>
      <trkpt lat="42.79773" lon="2.72502">
        <ele>168.3</ele>
        <time>2021-03-28T09:23:35Z</time>
      </trkpt>
      <trkpt lat="42.79773" lon="2.72502">
        <ele>25</ele>
        <time>2021-03-28T09:23:35Z</time>
      </trkpt>
      <trkpt lat="42.7977" lon="2.72499">
        <ele>168.6</ele>
        <time>2021-03-28T09:23:37Z</time>
      </trkpt>
      <trkpt lat="42.7977" lon="2.72499">
        <ele>25</ele>
        <time>2021-03-28T09:23:37Z</time>
      </trkpt>
      <trkpt lat="42.79766" lon="2.72496">
        <ele>168.9</ele>
        <time>2021-03-28T09:23:39Z</time>
      </trkpt>
      <trkpt lat="42.79766" lon="2.72496">
        <ele>25</ele>
        <time>2021-03-28T09:23:39Z</time>
      </trkpt>
      <trkpt lat="42.79762" lon="2.72493">
        <ele>169.3</ele>
        <time>2021-03-28T09:23:41Z</time>
      </trkpt>
      <trkpt lat="42.79762" lon="2.72493">
        <ele>25</ele>
        <time>2021-03-28T09:23:41Z</time>
      </trkpt>
      <trkpt lat="42.79758" lon="2.72492">
        <ele>169.7</ele>
        <time>2021-03-28T09:23:42Z</time>
      </trkpt>
      <trkpt lat="42.79758" lon="2.72492">
        <ele>25</ele>
        <time>2021-03-28T09:23:42Z</time>
      </trkpt>
      <trkpt lat="42.79754" lon="2.72491">
        <ele>170.2</ele>
        <time>2021-03-28T09:23:44Z</time>
      </trkpt>
      <trkpt lat="42.79754" lon="2.72491">
        <ele>25</ele>
        <time>2021-03-28T09:23:44Z</time>
      </trkpt>
      <trkpt lat="42.79749" lon="2.72491">
        <ele>170.9</ele>
        <time>2021-03-28T09:23:46Z</time>
      </trkpt>
      <trkpt lat="42.79749" lon="2.72491">
        <ele>25</ele>
        <time>2021-03-28T09:23:46Z</time>
      </trkpt>
      <trkpt lat="42.79746" lon="2.72492">
        <ele>171.2</ele>
        <time>2021-03-28T09:23:47Z</time>
      </trkpt>
      <trkpt lat="42.79746" lon="2.72492">
        <ele>25</ele>
        <time>2021-03-28T09:23:47Z</time>
      </trkpt>
      <trkpt lat="42.79742" lon="2.72492">
        <ele>171.5</ele>
        <time>2021-03-28T09:23:48Z</time>
      </trkpt>
      <trkpt lat="42.79742" lon="2.72492">
        <ele>25</ele>
        <time>2021-03-28T09:23:48Z</time>
      </trkpt>
      <trkpt lat="42.79739" lon="2.72492">
        <ele>171.7</ele>
        <time>2021-03-28T09:23:50Z</time>
      </trkpt>
      <trkpt lat="42.79739" lon="2.72492">
        <ele>25</ele>
        <time>2021-03-28T09:23:50Z</time>
      </trkpt>
      <trkpt lat="42.79734" lon="2.72491">
        <ele>171.8</ele>
        <time>2021-03-28T09:23:52Z</time>
      </trkpt>
      <trkpt lat="42.79734" lon="2.72491">
        <ele>25</ele>
        <time>2021-03-28T09:23:52Z</time>
      </trkpt>
      <trkpt lat="42.7973" lon="2.72489">
        <ele>171.8</ele>
        <time>2021-03-28T09:23:54Z</time>
      </trkpt>
      <trkpt lat="42.7973" lon="2.72489">
        <ele>25</ele>
        <time>2021-03-28T09:23:54Z</time>
      </trkpt>
      <trkpt lat="42.79727" lon="2.72487">
        <ele>171.7</ele>
        <time>2021-03-28T09:23:55Z</time>
      </trkpt>
      <trkpt lat="42.79727" lon="2.72487">
        <ele>25</ele>
        <time>2021-03-28T09:23:55Z</time>
      </trkpt>
      <trkpt lat="42.79724" lon="2.72484">
        <ele>171.5</ele>
        <time>2021-03-28T09:23:57Z</time>
      </trkpt>
      <trkpt lat="42.79724" lon="2.72484">
        <ele>25</ele>
        <time>2021-03-28T09:23:57Z</time>
      </trkpt>
      <trkpt lat="42.79722" lon="2.7248">
        <ele>171.3</ele>
        <time>2021-03-28T09:23:59Z</time>
      </trkpt>
      <trkpt lat="42.79722" lon="2.7248">
        <ele>25</ele>
        <time>2021-03-28T09:23:59Z</time>
      </trkpt>
      <trkpt lat="42.7972" lon="2.72474">
        <ele>171.3</ele>
        <time>2021-03-28T09:24:01Z</time>
      </trkpt>
      <trkpt lat="42.7972" lon="2.72474">
        <ele>25</ele>
        <time>2021-03-28T09:24:01Z</time>
      </trkpt>
      <trkpt lat="42.79719" lon="2.72468">
        <ele>171.7</ele>
        <time>2021-03-28T09:24:03Z</time>
      </trkpt>
      <trkpt lat="42.79719" lon="2.72468">
        <ele>25</ele>
        <time>2021-03-28T09:24:03Z</time>
      </trkpt>
      <trkpt lat="42.79718" lon="2.72462">
        <ele>172</ele>
        <time>2021-03-28T09:24:05Z</time>
      </trkpt>
      <trkpt lat="42.79718" lon="2.72462">
        <ele>25</ele>
        <time>2021-03-28T09:24:05Z</time>
      </trkpt>
      <trkpt lat="42.79718" lon="2.72456">
        <ele>172.1</ele>
        <time>2021-03-28T09:24:07Z</time>
      </trkpt>
      <trkpt lat="42.79718" lon="2.72456">
        <ele>25</ele>
        <time>2021-03-28T09:24:07Z</time>
      </trkpt>
      <trkpt lat="42.79719" lon="2.7245">
        <ele>172.2</ele>
        <time>2021-03-28T09:24:09Z</time>
      </trkpt>
      <trkpt lat="42.79719" lon="2.7245">
        <ele>25</ele>
        <time>2021-03-28T09:24:09Z</time>
      </trkpt>
      <trkpt lat="42.79719" lon="2.72443">
        <ele>172.3</ele>
        <time>2021-03-28T09:24:11Z</time>
      </trkpt>
      <trkpt lat="42.79719" lon="2.72443">
        <ele>25</ele>
        <time>2021-03-28T09:24:11Z</time>
      </trkpt>
      <trkpt lat="42.79719" lon="2.72436">
        <ele>172.6</ele>
        <time>2021-03-28T09:24:13Z</time>
      </trkpt>
      <trkpt lat="42.79719" lon="2.72436">
        <ele>25</ele>
        <time>2021-03-28T09:24:13Z</time>
      </trkpt>
      <trkpt lat="42.79718" lon="2.72429">
        <ele>173</ele>
        <time>2021-03-28T09:24:15Z</time>
      </trkpt>
      <trkpt lat="42.79718" lon="2.72429">
        <ele>25</ele>
        <time>2021-03-28T09:24:15Z</time>
      </trkpt>
      <trkpt lat="42.79716" lon="2.72424">
        <ele>173.4</ele>
        <time>2021-03-28T09:24:17Z</time>
      </trkpt>
      <trkpt lat="42.79716" lon="2.72424">
        <ele>25</ele>
        <time>2021-03-28T09:24:17Z</time>
      </trkpt>
      <trkpt lat="42.79714" lon="2.7242">
        <ele>173.6</ele>
        <time>2021-03-28T09:24:18Z</time>
      </trkpt>
      <trkpt lat="42.79714" lon="2.7242">
        <ele>25</ele>
        <time>2021-03-28T09:24:18Z</time>
      </trkpt>
      <trkpt lat="42.79712" lon="2.72417">
        <ele>173.7</ele>
        <time>2021-03-28T09:24:19Z</time>
      </trkpt>
      <trkpt lat="42.79712" lon="2.72417">
        <ele>25</ele>
        <time>2021-03-28T09:24:19Z</time>
      </trkpt>
      <trkpt lat="42.79709" lon="2.72414">
        <ele>173.4</ele>
        <time>2021-03-28T09:24:21Z</time>
      </trkpt>
      <trkpt lat="42.79709" lon="2.72414">
        <ele>25</ele>
        <time>2021-03-28T09:24:21Z</time>
      </trkpt>
      <trkpt lat="42.79705" lon="2.72414">
        <ele>173.4</ele>
        <time>2021-03-28T09:24:23Z</time>
      </trkpt>
      <trkpt lat="42.79705" lon="2.72414">
        <ele>25</ele>
        <time>2021-03-28T09:24:23Z</time>
      </trkpt>
      <trkpt lat="42.79701" lon="2.72414">
        <ele>173.8</ele>
        <time>2021-03-28T09:24:25Z</time>
      </trkpt>
      <trkpt lat="42.79701" lon="2.72414">
        <ele>25</ele>
        <time>2021-03-28T09:24:25Z</time>
      </trkpt>
      <trkpt lat="42.79697" lon="2.72416">
        <ele>174.6</ele>
        <time>2021-03-28T09:24:27Z</time>
      </trkpt>
      <trkpt lat="42.79697" lon="2.72416">
        <ele>25</ele>
        <time>2021-03-28T09:24:27Z</time>
      </trkpt>
      <trkpt lat="42.79693" lon="2.72418">
        <ele>175</ele>
        <time>2021-03-28T09:24:29Z</time>
      </trkpt>
      <trkpt lat="42.79693" lon="2.72418">
        <ele>25</ele>
        <time>2021-03-28T09:24:29Z</time>
      </trkpt>
      <trkpt lat="42.79689" lon="2.72421">
        <ele>174.3</ele>
        <time>2021-03-28T09:24:31Z</time>
      </trkpt>
      <trkpt lat="42.79689" lon="2.72421">
        <ele>25</ele>
        <time>2021-03-28T09:24:31Z</time>
      </trkpt>
      <trkpt lat="42.79685" lon="2.72424">
        <ele>173.8</ele>
        <time>2021-03-28T09:24:33Z</time>
      </trkpt>
      <trkpt lat="42.79685" lon="2.72424">
        <ele>25</ele>
        <time>2021-03-28T09:24:33Z</time>
      </trkpt>
      <trkpt lat="42.7968" lon="2.72426">
        <ele>173.5</ele>
        <time>2021-03-28T09:24:35Z</time>
      </trkpt>
      <trkpt lat="42.7968" lon="2.72426">
        <ele>25</ele>
        <time>2021-03-28T09:24:35Z</time>
      </trkpt>
      <trkpt lat="42.79676" lon="2.72429">
        <ele>173.6</ele>
        <time>2021-03-28T09:24:36Z</time>
      </trkpt>
      <trkpt lat="42.79676" lon="2.72429">
        <ele>25</ele>
        <time>2021-03-28T09:24:36Z</time>
      </trkpt>
      <trkpt lat="42.79673" lon="2.72431">
        <ele>173.9</ele>
        <time>2021-03-28T09:24:37Z</time>
      </trkpt>
      <trkpt lat="42.79673" lon="2.72431">
        <ele>25</ele>
        <time>2021-03-28T09:24:37Z</time>
      </trkpt>
      <trkpt lat="42.7967" lon="2.72433">
        <ele>174.4</ele>
        <time>2021-03-28T09:24:39Z</time>
      </trkpt>
      <trkpt lat="42.7967" lon="2.72433">
        <ele>25</ele>
        <time>2021-03-28T09:24:39Z</time>
      </trkpt>
      <trkpt lat="42.79666" lon="2.72436">
        <ele>175.2</ele>
        <time>2021-03-28T09:24:41Z</time>
      </trkpt>
      <trkpt lat="42.79666" lon="2.72436">
        <ele>25</ele>
        <time>2021-03-28T09:24:41Z</time>
      </trkpt>
      <trkpt lat="42.79662" lon="2.72438">
        <ele>175.8</ele>
        <time>2021-03-28T09:24:43Z</time>
      </trkpt>
      <trkpt lat="42.79662" lon="2.72438">
        <ele>25</ele>
        <time>2021-03-28T09:24:43Z</time>
      </trkpt>
      <trkpt lat="42.79658" lon="2.72441">
        <ele>176.3</ele>
        <time>2021-03-28T09:24:45Z</time>
      </trkpt>
      <trkpt lat="42.79658" lon="2.72441">
        <ele>25</ele>
        <time>2021-03-28T09:24:45Z</time>
      </trkpt>
      <trkpt lat="42.79654" lon="2.72443">
        <ele>176.7</ele>
        <time>2021-03-28T09:24:47Z</time>
      </trkpt>
      <trkpt lat="42.79654" lon="2.72443">
        <ele>25</ele>
        <time>2021-03-28T09:24:47Z</time>
      </trkpt>
      <trkpt lat="42.79649" lon="2.72446">
        <ele>176.9</ele>
        <time>2021-03-28T09:24:49Z</time>
      </trkpt>
      <trkpt lat="42.79649" lon="2.72446">
        <ele>25</ele>
        <time>2021-03-28T09:24:49Z</time>
      </trkpt>
      <trkpt lat="42.79645" lon="2.72449">
        <ele>176.9</ele>
        <time>2021-03-28T09:24:51Z</time>
      </trkpt>
      <trkpt lat="42.79645" lon="2.72449">
        <ele>25</ele>
        <time>2021-03-28T09:24:51Z</time>
      </trkpt>
      <trkpt lat="42.79641" lon="2.7245">
        <ele>176.8</ele>
        <time>2021-03-28T09:24:52Z</time>
      </trkpt>
      <trkpt lat="42.79641" lon="2.7245">
        <ele>25</ele>
        <time>2021-03-28T09:24:52Z</time>
      </trkpt>
      <trkpt lat="42.79637" lon="2.72451">
        <ele>177.8</ele>
        <time>2021-03-28T09:24:54Z</time>
      </trkpt>
      <trkpt lat="42.79637" lon="2.72451">
        <ele>25</ele>
        <time>2021-03-28T09:24:54Z</time>
      </trkpt>
      <trkpt lat="42.79633" lon="2.72452">
        <ele>179.2</ele>
        <time>2021-03-28T09:24:55Z</time>
      </trkpt>
      <trkpt lat="42.79633" lon="2.72452">
        <ele>25</ele>
        <time>2021-03-28T09:24:55Z</time>
      </trkpt>
      <trkpt lat="42.7963" lon="2.72451">
        <ele>180.2</ele>
        <time>2021-03-28T09:24:57Z</time>
      </trkpt>
      <trkpt lat="42.7963" lon="2.72451">
        <ele>25</ele>
        <time>2021-03-28T09:24:57Z</time>
      </trkpt>
      <trkpt lat="42.79626" lon="2.72449">
        <ele>180.8</ele>
        <time>2021-03-28T09:24:59Z</time>
      </trkpt>
      <trkpt lat="42.79626" lon="2.72449">
        <ele>25</ele>
        <time>2021-03-28T09:24:59Z</time>
      </trkpt>
      <trkpt lat="42.79623" lon="2.72446">
        <ele>181.1</ele>
        <time>2021-03-28T09:25:01Z</time>
      </trkpt>
      <trkpt lat="42.79623" lon="2.72446">
        <ele>25</ele>
        <time>2021-03-28T09:25:01Z</time>
      </trkpt>
      <trkpt lat="42.7962" lon="2.72442">
        <ele>181</ele>
        <time>2021-03-28T09:25:03Z</time>
      </trkpt>
      <trkpt lat="42.7962" lon="2.72442">
        <ele>25</ele>
        <time>2021-03-28T09:25:03Z</time>
      </trkpt>
      <trkpt lat="42.79617" lon="2.72439">
        <ele>180.6</ele>
        <time>2021-03-28T09:25:04Z</time>
      </trkpt>
      <trkpt lat="42.79617" lon="2.72439">
        <ele>25</ele>
        <time>2021-03-28T09:25:04Z</time>
      </trkpt>
      <trkpt lat="42.79614" lon="2.72436">
        <ele>180.2</ele>
        <time>2021-03-28T09:25:05Z</time>
      </trkpt>
      <trkpt lat="42.79614" lon="2.72436">
        <ele>25</ele>
        <time>2021-03-28T09:25:05Z</time>
      </trkpt>
      <trkpt lat="42.79611" lon="2.72434">
        <ele>180.4</ele>
        <time>2021-03-28T09:25:07Z</time>
      </trkpt>
      <trkpt lat="42.79611" lon="2.72434">
        <ele>25</ele>
        <time>2021-03-28T09:25:07Z</time>
      </trkpt>
      <trkpt lat="42.79607" lon="2.72433">
        <ele>179.8</ele>
        <time>2021-03-28T09:25:09Z</time>
      </trkpt>
      <trkpt lat="42.79607" lon="2.72433">
        <ele>25</ele>
        <time>2021-03-28T09:25:09Z</time>
      </trkpt>
      <trkpt lat="42.79602" lon="2.72432">
        <ele>179.6</ele>
        <time>2021-03-28T09:25:11Z</time>
      </trkpt>
      <trkpt lat="42.79602" lon="2.72432">
        <ele>25</ele>
        <time>2021-03-28T09:25:11Z</time>
      </trkpt>
      <trkpt lat="42.79598" lon="2.72432">
        <ele>179.5</ele>
        <time>2021-03-28T09:25:13Z</time>
      </trkpt>
      <trkpt lat="42.79598" lon="2.72432">
        <ele>25</ele>
        <time>2021-03-28T09:25:13Z</time>
      </trkpt>
      <trkpt lat="42.79594" lon="2.72432">
        <ele>179.6</ele>
        <time>2021-03-28T09:25:14Z</time>
      </trkpt>
      <trkpt lat="42.79594" lon="2.72432">
        <ele>25</ele>
        <time>2021-03-28T09:25:14Z</time>
      </trkpt>
      <trkpt lat="42.79591" lon="2.72432">
        <ele>179.8</ele>
        <time>2021-03-28T09:25:15Z</time>
      </trkpt>
      <trkpt lat="42.79591" lon="2.72432">
        <ele>25</ele>
        <time>2021-03-28T09:25:15Z</time>
      </trkpt>
      <trkpt lat="42.79587" lon="2.72433">
        <ele>180</ele>
        <time>2021-03-28T09:25:17Z</time>
      </trkpt>
      <trkpt lat="42.79587" lon="2.72433">
        <ele>25</ele>
        <time>2021-03-28T09:25:17Z</time>
      </trkpt>
      <trkpt lat="42.79583" lon="2.72433">
        <ele>180.5</ele>
        <time>2021-03-28T09:25:19Z</time>
      </trkpt>
      <trkpt lat="42.79583" lon="2.72433">
        <ele>25</ele>
        <time>2021-03-28T09:25:19Z</time>
      </trkpt>
      <trkpt lat="42.79579" lon="2.72434">
        <ele>180.5</ele>
        <time>2021-03-28T09:25:21Z</time>
      </trkpt>
      <trkpt lat="42.79579" lon="2.72434">
        <ele>25</ele>
        <time>2021-03-28T09:25:21Z</time>
      </trkpt>
      <trkpt lat="42.79575" lon="2.72436">
        <ele>180.6</ele>
        <time>2021-03-28T09:25:22Z</time>
      </trkpt>
      <trkpt lat="42.79575" lon="2.72436">
        <ele>25</ele>
        <time>2021-03-28T09:25:22Z</time>
      </trkpt>
      <trkpt lat="42.79572" lon="2.72437">
        <ele>180.8</ele>
        <time>2021-03-28T09:25:23Z</time>
      </trkpt>
      <trkpt lat="42.79572" lon="2.72437">
        <ele>25</ele>
        <time>2021-03-28T09:25:23Z</time>
      </trkpt>
      <trkpt lat="42.79569" lon="2.7244">
        <ele>181.7</ele>
        <time>2021-03-28T09:25:25Z</time>
      </trkpt>
      <trkpt lat="42.79569" lon="2.7244">
        <ele>25</ele>
        <time>2021-03-28T09:25:25Z</time>
      </trkpt>
      <trkpt lat="42.79566" lon="2.72443">
        <ele>182.6</ele>
        <time>2021-03-28T09:25:26Z</time>
      </trkpt>
      <trkpt lat="42.79566" lon="2.72443">
        <ele>25</ele>
        <time>2021-03-28T09:25:26Z</time>
      </trkpt>
      <trkpt lat="42.79564" lon="2.72447">
        <ele>183.1</ele>
        <time>2021-03-28T09:25:28Z</time>
      </trkpt>
      <trkpt lat="42.79564" lon="2.72447">
        <ele>25</ele>
        <time>2021-03-28T09:25:28Z</time>
      </trkpt>
      <trkpt lat="42.79561" lon="2.72452">
        <ele>183.4</ele>
        <time>2021-03-28T09:25:30Z</time>
      </trkpt>
      <trkpt lat="42.79561" lon="2.72452">
        <ele>25</ele>
        <time>2021-03-28T09:25:30Z</time>
      </trkpt>
      <trkpt lat="42.79559" lon="2.72457">
        <ele>183.8</ele>
        <time>2021-03-28T09:25:32Z</time>
      </trkpt>
      <trkpt lat="42.79559" lon="2.72457">
        <ele>25</ele>
        <time>2021-03-28T09:25:32Z</time>
      </trkpt>
      <trkpt lat="42.79557" lon="2.72463">
        <ele>184.1</ele>
        <time>2021-03-28T09:25:34Z</time>
      </trkpt>
      <trkpt lat="42.79557" lon="2.72463">
        <ele>25</ele>
        <time>2021-03-28T09:25:34Z</time>
      </trkpt>
      <trkpt lat="42.79554" lon="2.72468">
        <ele>184.6</ele>
        <time>2021-03-28T09:25:36Z</time>
      </trkpt>
      <trkpt lat="42.79554" lon="2.72468">
        <ele>25</ele>
        <time>2021-03-28T09:25:36Z</time>
      </trkpt>
      <trkpt lat="42.79552" lon="2.72472">
        <ele>185.6</ele>
        <time>2021-03-28T09:25:37Z</time>
      </trkpt>
      <trkpt lat="42.79552" lon="2.72472">
        <ele>25</ele>
        <time>2021-03-28T09:25:37Z</time>
      </trkpt>
      <trkpt lat="42.79549" lon="2.72474">
        <ele>186.6</ele>
        <time>2021-03-28T09:25:38Z</time>
      </trkpt>
      <trkpt lat="42.79549" lon="2.72474">
        <ele>25</ele>
        <time>2021-03-28T09:25:38Z</time>
      </trkpt>
      <trkpt lat="42.79547" lon="2.72475">
        <ele>187.4</ele>
        <time>2021-03-28T09:25:39Z</time>
      </trkpt>
      <trkpt lat="42.79547" lon="2.72475">
        <ele>25</ele>
        <time>2021-03-28T09:25:39Z</time>
      </trkpt>
      <trkpt lat="42.79544" lon="2.72475">
        <ele>187.8</ele>
        <time>2021-03-28T09:25:41Z</time>
      </trkpt>
      <trkpt lat="42.79544" lon="2.72475">
        <ele>25</ele>
        <time>2021-03-28T09:25:41Z</time>
      </trkpt>
      <trkpt lat="42.7954" lon="2.72473">
        <ele>188</ele>
        <time>2021-03-28T09:25:43Z</time>
      </trkpt>
      <trkpt lat="42.7954" lon="2.72473">
        <ele>25</ele>
        <time>2021-03-28T09:25:43Z</time>
      </trkpt>
      <trkpt lat="42.79538" lon="2.72472">
        <ele>188</ele>
        <time>2021-03-28T09:25:44Z</time>
      </trkpt>
      <trkpt lat="42.79538" lon="2.72472">
        <ele>25</ele>
        <time>2021-03-28T09:25:44Z</time>
      </trkpt>
      <trkpt lat="42.79536" lon="2.7247">
        <ele>187.8</ele>
        <time>2021-03-28T09:25:45Z</time>
      </trkpt>
      <trkpt lat="42.79536" lon="2.7247">
        <ele>25</ele>
        <time>2021-03-28T09:25:45Z</time>
      </trkpt>
      <trkpt lat="42.79533" lon="2.72467">
        <ele>187.4</ele>
        <time>2021-03-28T09:25:46Z</time>
      </trkpt>
      <trkpt lat="42.79533" lon="2.72467">
        <ele>25</ele>
        <time>2021-03-28T09:25:46Z</time>
      </trkpt>
      <trkpt lat="42.79531" lon="2.72464">
        <ele>186.6</ele>
        <time>2021-03-28T09:25:48Z</time>
      </trkpt>
      <trkpt lat="42.79531" lon="2.72464">
        <ele>25</ele>
        <time>2021-03-28T09:25:48Z</time>
      </trkpt>
      <trkpt lat="42.79529" lon="2.72459">
        <ele>185.2</ele>
        <time>2021-03-28T09:25:50Z</time>
      </trkpt>
      <trkpt lat="42.79529" lon="2.72459">
        <ele>25</ele>
        <time>2021-03-28T09:25:50Z</time>
      </trkpt>
      <trkpt lat="42.79526" lon="2.72454">
        <ele>184</ele>
        <time>2021-03-28T09:25:52Z</time>
      </trkpt>
      <trkpt lat="42.79526" lon="2.72454">
        <ele>25</ele>
        <time>2021-03-28T09:25:52Z</time>
      </trkpt>
      <trkpt lat="42.79524" lon="2.72449">
        <ele>183.2</ele>
        <time>2021-03-28T09:25:54Z</time>
      </trkpt>
      <trkpt lat="42.79524" lon="2.72449">
        <ele>25</ele>
        <time>2021-03-28T09:25:54Z</time>
      </trkpt>
      <trkpt lat="42.79521" lon="2.72445">
        <ele>182.8</ele>
        <time>2021-03-28T09:25:55Z</time>
      </trkpt>
      <trkpt lat="42.79521" lon="2.72445">
        <ele>25</ele>
        <time>2021-03-28T09:25:55Z</time>
      </trkpt>
      <trkpt lat="42.79518" lon="2.72441">
        <ele>182.9</ele>
        <time>2021-03-28T09:25:57Z</time>
      </trkpt>
      <trkpt lat="42.79518" lon="2.72441">
        <ele>25</ele>
        <time>2021-03-28T09:25:57Z</time>
      </trkpt>
      <trkpt lat="42.79515" lon="2.72437">
        <ele>183.3</ele>
        <time>2021-03-28T09:25:59Z</time>
      </trkpt>
      <trkpt lat="42.79515" lon="2.72437">
        <ele>25</ele>
        <time>2021-03-28T09:25:59Z</time>
      </trkpt>
      <trkpt lat="42.79511" lon="2.72434">
        <ele>184.1</ele>
        <time>2021-03-28T09:26:01Z</time>
      </trkpt>
      <trkpt lat="42.79511" lon="2.72434">
        <ele>25</ele>
        <time>2021-03-28T09:26:01Z</time>
      </trkpt>
      <trkpt lat="42.79507" lon="2.72433">
        <ele>185.4</ele>
        <time>2021-03-28T09:26:03Z</time>
      </trkpt>
      <trkpt lat="42.79507" lon="2.72433">
        <ele>25</ele>
        <time>2021-03-28T09:26:03Z</time>
      </trkpt>
      <trkpt lat="42.79503" lon="2.72433">
        <ele>186.7</ele>
        <time>2021-03-28T09:26:04Z</time>
      </trkpt>
      <trkpt lat="42.79503" lon="2.72433">
        <ele>25</ele>
        <time>2021-03-28T09:26:04Z</time>
      </trkpt>
      <trkpt lat="42.79499" lon="2.72433">
        <ele>187.6</ele>
        <time>2021-03-28T09:26:06Z</time>
      </trkpt>
      <trkpt lat="42.79499" lon="2.72433">
        <ele>25</ele>
        <time>2021-03-28T09:26:06Z</time>
      </trkpt>
      <trkpt lat="42.79495" lon="2.72434">
        <ele>187.1</ele>
        <time>2021-03-28T09:26:07Z</time>
      </trkpt>
      <trkpt lat="42.79495" lon="2.72434">
        <ele>25</ele>
        <time>2021-03-28T09:26:07Z</time>
      </trkpt>
      <trkpt lat="42.79492" lon="2.72435">
        <ele>187</ele>
        <time>2021-03-28T09:26:09Z</time>
      </trkpt>
      <trkpt lat="42.79492" lon="2.72435">
        <ele>25</ele>
        <time>2021-03-28T09:26:09Z</time>
      </trkpt>
      <trkpt lat="42.79488" lon="2.72436">
        <ele>187.1</ele>
        <time>2021-03-28T09:26:10Z</time>
      </trkpt>
      <trkpt lat="42.79488" lon="2.72436">
        <ele>25</ele>
        <time>2021-03-28T09:26:10Z</time>
      </trkpt>
      <trkpt lat="42.79486" lon="2.72438">
        <ele>187.3</ele>
        <time>2021-03-28T09:26:11Z</time>
      </trkpt>
      <trkpt lat="42.79486" lon="2.72438">
        <ele>25</ele>
        <time>2021-03-28T09:26:11Z</time>
      </trkpt>
      <trkpt lat="42.79482" lon="2.7244">
        <ele>187.7</ele>
        <time>2021-03-28T09:26:13Z</time>
      </trkpt>
      <trkpt lat="42.79482" lon="2.7244">
        <ele>25</ele>
        <time>2021-03-28T09:26:13Z</time>
      </trkpt>
      <trkpt lat="42.79479" lon="2.72442">
        <ele>188.3</ele>
        <time>2021-03-28T09:26:14Z</time>
      </trkpt>
      <trkpt lat="42.79479" lon="2.72442">
        <ele>25</ele>
        <time>2021-03-28T09:26:14Z</time>
      </trkpt>
      <trkpt lat="42.79475" lon="2.72445">
        <ele>189.4</ele>
        <time>2021-03-28T09:26:16Z</time>
      </trkpt>
      <trkpt lat="42.79475" lon="2.72445">
        <ele>25</ele>
        <time>2021-03-28T09:26:16Z</time>
      </trkpt>
      <trkpt lat="42.79472" lon="2.72448">
        <ele>189.4</ele>
        <time>2021-03-28T09:26:17Z</time>
      </trkpt>
      <trkpt lat="42.79472" lon="2.72448">
        <ele>25</ele>
        <time>2021-03-28T09:26:17Z</time>
      </trkpt>
      <trkpt lat="42.79469" lon="2.72451">
        <ele>187.3</ele>
        <time>2021-03-28T09:26:19Z</time>
      </trkpt>
      <trkpt lat="42.79469" lon="2.72451">
        <ele>25</ele>
        <time>2021-03-28T09:26:19Z</time>
      </trkpt>
      <trkpt lat="42.79467" lon="2.72455">
        <ele>185.8</ele>
        <time>2021-03-28T09:26:20Z</time>
      </trkpt>
      <trkpt lat="42.79467" lon="2.72455">
        <ele>25</ele>
        <time>2021-03-28T09:26:20Z</time>
      </trkpt>
      <trkpt lat="42.79465" lon="2.72459">
        <ele>184.8</ele>
        <time>2021-03-28T09:26:22Z</time>
      </trkpt>
      <trkpt lat="42.79465" lon="2.72459">
        <ele>25</ele>
        <time>2021-03-28T09:26:22Z</time>
      </trkpt>
      <trkpt lat="42.79463" lon="2.72463">
        <ele>184.2</ele>
        <time>2021-03-28T09:26:23Z</time>
      </trkpt>
      <trkpt lat="42.79463" lon="2.72463">
        <ele>25</ele>
        <time>2021-03-28T09:26:23Z</time>
      </trkpt>
      <trkpt lat="42.79462" lon="2.72468">
        <ele>184.2</ele>
        <time>2021-03-28T09:26:25Z</time>
      </trkpt>
      <trkpt lat="42.79462" lon="2.72468">
        <ele>25</ele>
        <time>2021-03-28T09:26:25Z</time>
      </trkpt>
      <trkpt lat="42.79462" lon="2.72474">
        <ele>185</ele>
        <time>2021-03-28T09:26:27Z</time>
      </trkpt>
      <trkpt lat="42.79462" lon="2.72474">
        <ele>25</ele>
        <time>2021-03-28T09:26:27Z</time>
      </trkpt>
      <trkpt lat="42.79462" lon="2.7248">
        <ele>186.7</ele>
        <time>2021-03-28T09:26:29Z</time>
      </trkpt>
      <trkpt lat="42.79462" lon="2.7248">
        <ele>25</ele>
        <time>2021-03-28T09:26:29Z</time>
      </trkpt>
      <trkpt lat="42.79462" lon="2.72485">
        <ele>188.2</ele>
        <time>2021-03-28T09:26:30Z</time>
      </trkpt>
      <trkpt lat="42.79462" lon="2.72485">
        <ele>25</ele>
        <time>2021-03-28T09:26:30Z</time>
      </trkpt>
      <trkpt lat="42.79462" lon="2.7249">
        <ele>189.6</ele>
        <time>2021-03-28T09:26:31Z</time>
      </trkpt>
      <trkpt lat="42.79462" lon="2.7249">
        <ele>25</ele>
        <time>2021-03-28T09:26:31Z</time>
      </trkpt>
      <trkpt lat="42.79463" lon="2.72496">
        <ele>191.2</ele>
        <time>2021-03-28T09:26:33Z</time>
      </trkpt>
      <trkpt lat="42.79463" lon="2.72496">
        <ele>25</ele>
        <time>2021-03-28T09:26:33Z</time>
      </trkpt>
      <trkpt lat="42.79463" lon="2.725">
        <ele>192.4</ele>
        <time>2021-03-28T09:26:34Z</time>
      </trkpt>
      <trkpt lat="42.79463" lon="2.725">
        <ele>25</ele>
        <time>2021-03-28T09:26:34Z</time>
      </trkpt>
      <trkpt lat="42.79464" lon="2.72506">
        <ele>193.3</ele>
        <time>2021-03-28T09:26:36Z</time>
      </trkpt>
      <trkpt lat="42.79464" lon="2.72506">
        <ele>25</ele>
        <time>2021-03-28T09:26:36Z</time>
      </trkpt>
      <trkpt lat="42.79464" lon="2.72512">
        <ele>194.1</ele>
        <time>2021-03-28T09:26:38Z</time>
      </trkpt>
      <trkpt lat="42.79464" lon="2.72512">
        <ele>25</ele>
        <time>2021-03-28T09:26:38Z</time>
      </trkpt>
      <trkpt lat="42.79463" lon="2.72518">
        <ele>194.8</ele>
        <time>2021-03-28T09:26:40Z</time>
      </trkpt>
      <trkpt lat="42.79463" lon="2.72518">
        <ele>25</ele>
        <time>2021-03-28T09:26:40Z</time>
      </trkpt>
      <trkpt lat="42.79461" lon="2.72523">
        <ele>195.6</ele>
        <time>2021-03-28T09:26:42Z</time>
      </trkpt>
      <trkpt lat="42.79461" lon="2.72523">
        <ele>25</ele>
        <time>2021-03-28T09:26:42Z</time>
      </trkpt>
      <trkpt lat="42.79458" lon="2.72528">
        <ele>196.5</ele>
        <time>2021-03-28T09:26:44Z</time>
      </trkpt>
      <trkpt lat="42.79458" lon="2.72528">
        <ele>25</ele>
        <time>2021-03-28T09:26:44Z</time>
      </trkpt>
      <trkpt lat="42.79454" lon="2.72532">
        <ele>196.8</ele>
        <time>2021-03-28T09:26:46Z</time>
      </trkpt>
      <trkpt lat="42.79454" lon="2.72532">
        <ele>25</ele>
        <time>2021-03-28T09:26:46Z</time>
      </trkpt>
      <trkpt lat="42.79451" lon="2.72535">
        <ele>197</ele>
        <time>2021-03-28T09:26:47Z</time>
      </trkpt>
      <trkpt lat="42.79451" lon="2.72535">
        <ele>25</ele>
        <time>2021-03-28T09:26:47Z</time>
      </trkpt>
      <trkpt lat="42.79447" lon="2.72538">
        <ele>197.3</ele>
        <time>2021-03-28T09:26:49Z</time>
      </trkpt>
      <trkpt lat="42.79447" lon="2.72538">
        <ele>25</ele>
        <time>2021-03-28T09:26:49Z</time>
      </trkpt>
      <trkpt lat="42.79442" lon="2.72541">
        <ele>197.4</ele>
        <time>2021-03-28T09:26:51Z</time>
      </trkpt>
      <trkpt lat="42.79442" lon="2.72541">
        <ele>25</ele>
        <time>2021-03-28T09:26:51Z</time>
      </trkpt>
      <trkpt lat="42.79438" lon="2.72544">
        <ele>197.3</ele>
        <time>2021-03-28T09:26:53Z</time>
      </trkpt>
      <trkpt lat="42.79438" lon="2.72544">
        <ele>25</ele>
        <time>2021-03-28T09:26:53Z</time>
      </trkpt>
      <trkpt lat="42.79434" lon="2.72547">
        <ele>197.2</ele>
        <time>2021-03-28T09:26:54Z</time>
      </trkpt>
      <trkpt lat="42.79434" lon="2.72547">
        <ele>25</ele>
        <time>2021-03-28T09:26:54Z</time>
      </trkpt>
      <trkpt lat="42.7943" lon="2.7255">
        <ele>197.2</ele>
        <time>2021-03-28T09:26:56Z</time>
      </trkpt>
      <trkpt lat="42.7943" lon="2.7255">
        <ele>25</ele>
        <time>2021-03-28T09:26:56Z</time>
      </trkpt>
      <trkpt lat="42.79426" lon="2.72554">
        <ele>197.2</ele>
        <time>2021-03-28T09:26:58Z</time>
      </trkpt>
      <trkpt lat="42.79426" lon="2.72554">
        <ele>25</ele>
        <time>2021-03-28T09:26:58Z</time>
      </trkpt>
      <trkpt lat="42.79421" lon="2.72557">
        <ele>197.3</ele>
        <time>2021-03-28T09:27:00Z</time>
      </trkpt>
      <trkpt lat="42.79421" lon="2.72557">
        <ele>25</ele>
        <time>2021-03-28T09:27:00Z</time>
      </trkpt>
      <trkpt lat="42.79417" lon="2.7256">
        <ele>197.4</ele>
        <time>2021-03-28T09:27:01Z</time>
      </trkpt>
      <trkpt lat="42.79417" lon="2.7256">
        <ele>25</ele>
        <time>2021-03-28T09:27:01Z</time>
      </trkpt>
      <trkpt lat="42.79413" lon="2.72564">
        <ele>197.3</ele>
        <time>2021-03-28T09:27:03Z</time>
      </trkpt>
      <trkpt lat="42.79413" lon="2.72564">
        <ele>25</ele>
        <time>2021-03-28T09:27:03Z</time>
      </trkpt>
      <trkpt lat="42.79409" lon="2.72568">
        <ele>197.2</ele>
        <time>2021-03-28T09:27:05Z</time>
      </trkpt>
      <trkpt lat="42.79409" lon="2.72568">
        <ele>25</ele>
        <time>2021-03-28T09:27:05Z</time>
      </trkpt>
      <trkpt lat="42.79405" lon="2.72572">
        <ele>197.4</ele>
        <time>2021-03-28T09:27:07Z</time>
      </trkpt>
      <trkpt lat="42.79405" lon="2.72572">
        <ele>25</ele>
        <time>2021-03-28T09:27:07Z</time>
      </trkpt>
      <trkpt lat="42.79402" lon="2.72577">
        <ele>197.7</ele>
        <time>2021-03-28T09:27:08Z</time>
      </trkpt>
      <trkpt lat="42.79402" lon="2.72577">
        <ele>25</ele>
        <time>2021-03-28T09:27:08Z</time>
      </trkpt>
      <trkpt lat="42.79399" lon="2.72581">
        <ele>198.1</ele>
        <time>2021-03-28T09:27:09Z</time>
      </trkpt>
      <trkpt lat="42.79399" lon="2.72581">
        <ele>25</ele>
        <time>2021-03-28T09:27:09Z</time>
      </trkpt>
      <trkpt lat="42.79397" lon="2.72587">
        <ele>198.5</ele>
        <time>2021-03-28T09:27:11Z</time>
      </trkpt>
      <trkpt lat="42.79397" lon="2.72587">
        <ele>25</ele>
        <time>2021-03-28T09:27:11Z</time>
      </trkpt>
      <trkpt lat="42.79396" lon="2.72593">
        <ele>198.9</ele>
        <time>2021-03-28T09:27:13Z</time>
      </trkpt>
      <trkpt lat="42.79396" lon="2.72593">
        <ele>25</ele>
        <time>2021-03-28T09:27:13Z</time>
      </trkpt>
      <trkpt lat="42.79395" lon="2.72598">
        <ele>199.3</ele>
        <time>2021-03-28T09:27:14Z</time>
      </trkpt>
      <trkpt lat="42.79395" lon="2.72598">
        <ele>25</ele>
        <time>2021-03-28T09:27:14Z</time>
      </trkpt>
      <trkpt lat="42.79395" lon="2.72604">
        <ele>199.7</ele>
        <time>2021-03-28T09:27:16Z</time>
      </trkpt>
      <trkpt lat="42.79395" lon="2.72604">
        <ele>25</ele>
        <time>2021-03-28T09:27:16Z</time>
      </trkpt>
      <trkpt lat="42.79395" lon="2.7261">
        <ele>200.1</ele>
        <time>2021-03-28T09:27:17Z</time>
      </trkpt>
      <trkpt lat="42.79395" lon="2.7261">
        <ele>25</ele>
        <time>2021-03-28T09:27:17Z</time>
      </trkpt>
      <trkpt lat="42.79395" lon="2.72616">
        <ele>200.4</ele>
        <time>2021-03-28T09:27:19Z</time>
      </trkpt>
      <trkpt lat="42.79395" lon="2.72616">
        <ele>25</ele>
        <time>2021-03-28T09:27:19Z</time>
      </trkpt>
      <trkpt lat="42.79396" lon="2.72622">
        <ele>200.5</ele>
        <time>2021-03-28T09:27:21Z</time>
      </trkpt>
      <trkpt lat="42.79396" lon="2.72622">
        <ele>25</ele>
        <time>2021-03-28T09:27:21Z</time>
      </trkpt>
      <trkpt lat="42.79396" lon="2.72628">
        <ele>200.7</ele>
        <time>2021-03-28T09:27:22Z</time>
      </trkpt>
      <trkpt lat="42.79396" lon="2.72628">
        <ele>25</ele>
        <time>2021-03-28T09:27:22Z</time>
      </trkpt>
      <trkpt lat="42.79397" lon="2.72632">
        <ele>200.8</ele>
        <time>2021-03-28T09:27:23Z</time>
      </trkpt>
      <trkpt lat="42.79397" lon="2.72632">
        <ele>25</ele>
        <time>2021-03-28T09:27:23Z</time>
      </trkpt>
      <trkpt lat="42.79398" lon="2.72638">
        <ele>201</ele>
        <time>2021-03-28T09:27:25Z</time>
      </trkpt>
      <trkpt lat="42.79398" lon="2.72638">
        <ele>25</ele>
        <time>2021-03-28T09:27:25Z</time>
      </trkpt>
      <trkpt lat="42.79399" lon="2.72643">
        <ele>201.1</ele>
        <time>2021-03-28T09:27:26Z</time>
      </trkpt>
      <trkpt lat="42.79399" lon="2.72643">
        <ele>25</ele>
        <time>2021-03-28T09:27:26Z</time>
      </trkpt>
      <trkpt lat="42.79399" lon="2.7265">
        <ele>201.1</ele>
        <time>2021-03-28T09:27:28Z</time>
      </trkpt>
      <trkpt lat="42.79399" lon="2.7265">
        <ele>25</ele>
        <time>2021-03-28T09:27:28Z</time>
      </trkpt>
      <trkpt lat="42.794" lon="2.72655">
        <ele>201.2</ele>
        <time>2021-03-28T09:27:29Z</time>
      </trkpt>
      <trkpt lat="42.794" lon="2.72655">
        <ele>25</ele>
        <time>2021-03-28T09:27:29Z</time>
      </trkpt>
      <trkpt lat="42.79399" lon="2.72662">
        <ele>201.3</ele>
        <time>2021-03-28T09:27:31Z</time>
      </trkpt>
      <trkpt lat="42.79399" lon="2.72662">
        <ele>25</ele>
        <time>2021-03-28T09:27:31Z</time>
      </trkpt>
      <trkpt lat="42.79398" lon="2.72668">
        <ele>201.3</ele>
        <time>2021-03-28T09:27:33Z</time>
      </trkpt>
      <trkpt lat="42.79398" lon="2.72668">
        <ele>25</ele>
        <time>2021-03-28T09:27:33Z</time>
      </trkpt>
      <trkpt lat="42.79395" lon="2.72675">
        <ele>201.2</ele>
        <time>2021-03-28T09:27:35Z</time>
      </trkpt>
      <trkpt lat="42.79395" lon="2.72675">
        <ele>25</ele>
        <time>2021-03-28T09:27:35Z</time>
      </trkpt>
      <trkpt lat="42.79392" lon="2.72679">
        <ele>201.1</ele>
        <time>2021-03-28T09:27:36Z</time>
      </trkpt>
      <trkpt lat="42.79392" lon="2.72679">
        <ele>25</ele>
        <time>2021-03-28T09:27:36Z</time>
      </trkpt>
      <trkpt lat="42.79388" lon="2.72682">
        <ele>201</ele>
        <time>2021-03-28T09:27:38Z</time>
      </trkpt>
      <trkpt lat="42.79388" lon="2.72682">
        <ele>25</ele>
        <time>2021-03-28T09:27:38Z</time>
      </trkpt>
      <trkpt lat="42.79384" lon="2.72684">
        <ele>201.3</ele>
        <time>2021-03-28T09:27:40Z</time>
      </trkpt>
      <trkpt lat="42.79384" lon="2.72684">
        <ele>25</ele>
        <time>2021-03-28T09:27:40Z</time>
      </trkpt>
      <trkpt lat="42.7938" lon="2.72684">
        <ele>201.5</ele>
        <time>2021-03-28T09:27:41Z</time>
      </trkpt>
      <trkpt lat="42.7938" lon="2.72684">
        <ele>25</ele>
        <time>2021-03-28T09:27:41Z</time>
      </trkpt>
      <trkpt lat="42.79375" lon="2.72685">
        <ele>201.8</ele>
        <time>2021-03-28T09:27:43Z</time>
      </trkpt>
      <trkpt lat="42.79375" lon="2.72685">
        <ele>25</ele>
        <time>2021-03-28T09:27:43Z</time>
      </trkpt>
      <trkpt lat="42.7937" lon="2.72685">
        <ele>202.1</ele>
        <time>2021-03-28T09:27:45Z</time>
      </trkpt>
      <trkpt lat="42.7937" lon="2.72685">
        <ele>25</ele>
        <time>2021-03-28T09:27:45Z</time>
      </trkpt>
      <trkpt lat="42.79365" lon="2.72686">
        <ele>202.5</ele>
        <time>2021-03-28T09:27:47Z</time>
      </trkpt>
      <trkpt lat="42.79365" lon="2.72686">
        <ele>25</ele>
        <time>2021-03-28T09:27:47Z</time>
      </trkpt>
      <trkpt lat="42.79359" lon="2.72687">
        <ele>202.7</ele>
        <time>2021-03-28T09:27:49Z</time>
      </trkpt>
      <trkpt lat="42.79359" lon="2.72687">
        <ele>25</ele>
        <time>2021-03-28T09:27:49Z</time>
      </trkpt>
      <trkpt lat="42.79354" lon="2.7269">
        <ele>202.8</ele>
        <time>2021-03-28T09:27:51Z</time>
      </trkpt>
      <trkpt lat="42.79354" lon="2.7269">
        <ele>25</ele>
        <time>2021-03-28T09:27:51Z</time>
      </trkpt>
      <trkpt lat="42.79348" lon="2.72693">
        <ele>202.9</ele>
        <time>2021-03-28T09:27:53Z</time>
      </trkpt>
      <trkpt lat="42.79348" lon="2.72693">
        <ele>25</ele>
        <time>2021-03-28T09:27:53Z</time>
      </trkpt>
      <trkpt lat="42.79343" lon="2.72696">
        <ele>203</ele>
        <time>2021-03-28T09:27:54Z</time>
      </trkpt>
      <trkpt lat="42.79343" lon="2.72696">
        <ele>25</ele>
        <time>2021-03-28T09:27:54Z</time>
      </trkpt>
      <trkpt lat="42.79339" lon="2.72699">
        <ele>203</ele>
        <time>2021-03-28T09:27:55Z</time>
      </trkpt>
      <trkpt lat="42.79339" lon="2.72699">
        <ele>25</ele>
        <time>2021-03-28T09:27:55Z</time>
      </trkpt>
      <trkpt lat="42.79334" lon="2.72703">
        <ele>203</ele>
        <time>2021-03-28T09:27:57Z</time>
      </trkpt>
      <trkpt lat="42.79334" lon="2.72703">
        <ele>25</ele>
        <time>2021-03-28T09:27:57Z</time>
      </trkpt>
      <trkpt lat="42.79331" lon="2.72707">
        <ele>203</ele>
        <time>2021-03-28T09:27:58Z</time>
      </trkpt>
      <trkpt lat="42.79331" lon="2.72707">
        <ele>25</ele>
        <time>2021-03-28T09:27:58Z</time>
      </trkpt>
      <trkpt lat="42.79327" lon="2.72712">
        <ele>203</ele>
        <time>2021-03-28T09:28:00Z</time>
      </trkpt>
      <trkpt lat="42.79327" lon="2.72712">
        <ele>25</ele>
        <time>2021-03-28T09:28:00Z</time>
      </trkpt>
      <trkpt lat="42.79324" lon="2.72717">
        <ele>203</ele>
        <time>2021-03-28T09:28:01Z</time>
      </trkpt>
      <trkpt lat="42.79324" lon="2.72717">
        <ele>25</ele>
        <time>2021-03-28T09:28:01Z</time>
      </trkpt>
      <trkpt lat="42.79322" lon="2.72724">
        <ele>203</ele>
        <time>2021-03-28T09:28:03Z</time>
      </trkpt>
      <trkpt lat="42.79322" lon="2.72724">
        <ele>25</ele>
        <time>2021-03-28T09:28:03Z</time>
      </trkpt>
      <trkpt lat="42.79319" lon="2.72731">
        <ele>203.2</ele>
        <time>2021-03-28T09:28:05Z</time>
      </trkpt>
      <trkpt lat="42.79319" lon="2.72731">
        <ele>25</ele>
        <time>2021-03-28T09:28:05Z</time>
      </trkpt>
      <trkpt lat="42.79317" lon="2.72739">
        <ele>203.4</ele>
        <time>2021-03-28T09:28:07Z</time>
      </trkpt>
      <trkpt lat="42.79317" lon="2.72739">
        <ele>25</ele>
        <time>2021-03-28T09:28:07Z</time>
      </trkpt>
      <trkpt lat="42.79316" lon="2.72748">
        <ele>203.6</ele>
        <time>2021-03-28T09:28:09Z</time>
      </trkpt>
      <trkpt lat="42.79316" lon="2.72748">
        <ele>25</ele>
        <time>2021-03-28T09:28:09Z</time>
      </trkpt>
      <trkpt lat="42.79315" lon="2.72756">
        <ele>203.5</ele>
        <time>2021-03-28T09:28:11Z</time>
      </trkpt>
      <trkpt lat="42.79315" lon="2.72756">
        <ele>25</ele>
        <time>2021-03-28T09:28:11Z</time>
      </trkpt>
      <trkpt lat="42.79314" lon="2.72764">
        <ele>203.4</ele>
        <time>2021-03-28T09:28:12Z</time>
      </trkpt>
      <trkpt lat="42.79314" lon="2.72764">
        <ele>25</ele>
        <time>2021-03-28T09:28:12Z</time>
      </trkpt>
      <trkpt lat="42.79313" lon="2.7277">
        <ele>203.2</ele>
        <time>2021-03-28T09:28:13Z</time>
      </trkpt>
      <trkpt lat="42.79313" lon="2.7277">
        <ele>25</ele>
        <time>2021-03-28T09:28:13Z</time>
      </trkpt>
      <trkpt lat="42.79312" lon="2.72776">
        <ele>203</ele>
        <time>2021-03-28T09:28:15Z</time>
      </trkpt>
      <trkpt lat="42.79312" lon="2.72776">
        <ele>25</ele>
        <time>2021-03-28T09:28:15Z</time>
      </trkpt>
      <trkpt lat="42.79312" lon="2.72781">
        <ele>202.9</ele>
        <time>2021-03-28T09:28:16Z</time>
      </trkpt>
      <trkpt lat="42.79312" lon="2.72781">
        <ele>25</ele>
        <time>2021-03-28T09:28:16Z</time>
      </trkpt>
      <trkpt lat="42.79311" lon="2.72785">
        <ele>202.8</ele>
        <time>2021-03-28T09:28:17Z</time>
      </trkpt>
      <trkpt lat="42.79311" lon="2.72785">
        <ele>25</ele>
        <time>2021-03-28T09:28:17Z</time>
      </trkpt>
      <trkpt lat="42.79311" lon="2.72788">
        <ele>202.7</ele>
        <time>2021-03-28T09:28:19Z</time>
      </trkpt>
      <trkpt lat="42.79311" lon="2.72788">
        <ele>25</ele>
        <time>2021-03-28T09:28:19Z</time>
      </trkpt>
      <trkpt lat="42.79311" lon="2.7279">
        <ele>202.6</ele>
        <time>2021-03-28T09:28:21Z</time>
      </trkpt>
      <trkpt lat="42.79311" lon="2.7279">
        <ele>25</ele>
        <time>2021-03-28T09:28:21Z</time>
      </trkpt>
      <trkpt lat="42.7931" lon="2.72792">
        <ele>202.6</ele>
        <time>2021-03-28T09:28:40Z</time>
      </trkpt>
      <trkpt lat="42.7931" lon="2.72792">
        <ele>25</ele>
        <time>2021-03-28T09:28:40Z</time>
      </trkpt>
      <trkpt lat="42.7931" lon="2.72793">
        <ele>202.6</ele>
        <time>2021-03-28T09:28:41Z</time>
      </trkpt>
      <trkpt lat="42.7931" lon="2.72793">
        <ele>25</ele>
        <time>2021-03-28T09:28:41Z</time>
      </trkpt>
      <trkpt lat="42.7931" lon="2.72793">
        <ele>202.5</ele>
        <time>2021-03-28T09:28:43Z</time>
      </trkpt>
      <trkpt lat="42.7931" lon="2.72793">
        <ele>25</ele>
        <time>2021-03-28T09:28:43Z</time>
      </trkpt>
      <trkpt lat="42.79309" lon="2.72793">
        <ele>202.5</ele>
        <time>2021-03-28T09:28:44Z</time>
      </trkpt>
      <trkpt lat="42.79309" lon="2.72793">
        <ele>25</ele>
        <time>2021-03-28T09:28:44Z</time>
      </trkpt>
      <trkpt lat="42.79309" lon="2.72794">
        <ele>202.5</ele>
        <time>2021-03-28T09:28:46Z</time>
      </trkpt>
      <trkpt lat="42.79309" lon="2.72794">
        <ele>25</ele>
        <time>2021-03-28T09:28:46Z</time>
      </trkpt>
      <trkpt lat="42.79304" lon="2.728">
        <ele>202.1</ele>
        <time>2021-03-28T09:28:51Z</time>
      </trkpt>
      <trkpt lat="42.79304" lon="2.728">
        <ele>25</ele>
        <time>2021-03-28T09:28:51Z</time>
      </trkpt>
      <trkpt lat="42.79304" lon="2.728">
        <ele>202.1</ele>
        <time>2021-03-28T09:28:53Z</time>
      </trkpt>
      <trkpt lat="42.79304" lon="2.728">
        <ele>25</ele>
        <time>2021-03-28T09:28:53Z</time>
      </trkpt>
      <trkpt lat="42.79303" lon="2.728">
        <ele>202.1</ele>
        <time>2021-03-28T09:28:54Z</time>
      </trkpt>
      <trkpt lat="42.79303" lon="2.728">
        <ele>25</ele>
        <time>2021-03-28T09:28:54Z</time>
      </trkpt>
      <trkpt lat="42.79302" lon="2.728">
        <ele>202.1</ele>
        <time>2021-03-28T09:28:56Z</time>
      </trkpt>
      <trkpt lat="42.79302" lon="2.728">
        <ele>25</ele>
        <time>2021-03-28T09:28:56Z</time>
      </trkpt>
      <trkpt lat="42.79301" lon="2.72801">
        <ele>202</ele>
        <time>2021-03-28T09:28:58Z</time>
      </trkpt>
      <trkpt lat="42.79301" lon="2.72801">
        <ele>25</ele>
        <time>2021-03-28T09:28:58Z</time>
      </trkpt>
      <trkpt lat="42.793" lon="2.72802">
        <ele>201.9</ele>
        <time>2021-03-28T09:28:59Z</time>
      </trkpt>
      <trkpt lat="42.793" lon="2.72802">
        <ele>25</ele>
        <time>2021-03-28T09:28:59Z</time>
      </trkpt>
      <trkpt lat="42.79299" lon="2.72802">
        <ele>201.9</ele>
        <time>2021-03-28T09:29:01Z</time>
      </trkpt>
      <trkpt lat="42.79299" lon="2.72802">
        <ele>25</ele>
        <time>2021-03-28T09:29:01Z</time>
      </trkpt>
      <trkpt lat="42.79299" lon="2.72803">
        <ele>201.8</ele>
        <time>2021-03-28T09:29:02Z</time>
      </trkpt>
      <trkpt lat="42.79299" lon="2.72803">
        <ele>25</ele>
        <time>2021-03-28T09:29:02Z</time>
      </trkpt>
      <trkpt lat="42.79299" lon="2.72802">
        <ele>201.9</ele>
        <time>2021-03-28T09:30:23Z</time>
      </trkpt>
      <trkpt lat="42.79299" lon="2.72802">
        <ele>25</ele>
        <time>2021-03-28T09:30:23Z</time>
      </trkpt>
      <trkpt lat="42.79299" lon="2.72802">
        <ele>201.9</ele>
        <time>2021-03-28T09:30:24Z</time>
      </trkpt>
      <trkpt lat="42.79299" lon="2.72802">
        <ele>25</ele>
        <time>2021-03-28T09:30:24Z</time>
      </trkpt>
      <trkpt lat="42.793" lon="2.728">
        <ele>202</ele>
        <time>2021-03-28T09:30:26Z</time>
      </trkpt>
      <trkpt lat="42.793" lon="2.728">
        <ele>25</ele>
        <time>2021-03-28T09:30:26Z</time>
      </trkpt>
      <trkpt lat="42.793" lon="2.728">
        <ele>202</ele>
        <time>2021-03-28T09:30:27Z</time>
      </trkpt>
      <trkpt lat="42.793" lon="2.728">
        <ele>25</ele>
        <time>2021-03-28T09:30:27Z</time>
      </trkpt>
      <trkpt lat="42.79301" lon="2.72799">
        <ele>202.1</ele>
        <time>2021-03-28T09:30:29Z</time>
      </trkpt>
      <trkpt lat="42.79301" lon="2.72799">
        <ele>25</ele>
        <time>2021-03-28T09:30:29Z</time>
      </trkpt>
      <trkpt lat="42.79313" lon="2.72811">
        <ele>202.3</ele>
        <time>2021-03-28T09:31:00Z</time>
      </trkpt>
      <trkpt lat="42.79313" lon="2.72811">
        <ele>25</ele>
        <time>2021-03-28T09:31:00Z</time>
      </trkpt>
      <trkpt lat="42.79313" lon="2.72816">
        <ele>202.3</ele>
        <time>2021-03-28T09:31:02Z</time>
      </trkpt>
      <trkpt lat="42.79313" lon="2.72816">
        <ele>25</ele>
        <time>2021-03-28T09:31:02Z</time>
      </trkpt>
      <trkpt lat="42.79313" lon="2.72822">
        <ele>202.3</ele>
        <time>2021-03-28T09:31:03Z</time>
      </trkpt>
      <trkpt lat="42.79313" lon="2.72822">
        <ele>25</ele>
        <time>2021-03-28T09:31:03Z</time>
      </trkpt>
      <trkpt lat="42.79313" lon="2.72829">
        <ele>202.3</ele>
        <time>2021-03-28T09:31:04Z</time>
      </trkpt>
      <trkpt lat="42.79313" lon="2.72829">
        <ele>25</ele>
        <time>2021-03-28T09:31:04Z</time>
      </trkpt>
      <trkpt lat="42.79313" lon="2.72839">
        <ele>202.1</ele>
        <time>2021-03-28T09:31:06Z</time>
      </trkpt>
      <trkpt lat="42.79313" lon="2.72839">
        <ele>25</ele>
        <time>2021-03-28T09:31:06Z</time>
      </trkpt>
      <trkpt lat="42.79313" lon="2.72851">
        <ele>201.6</ele>
        <time>2021-03-28T09:31:08Z</time>
      </trkpt>
      <trkpt lat="42.79313" lon="2.72851">
        <ele>25</ele>
        <time>2021-03-28T09:31:08Z</time>
      </trkpt>
      <trkpt lat="42.79314" lon="2.72865">
        <ele>201.2</ele>
        <time>2021-03-28T09:31:10Z</time>
      </trkpt>
      <trkpt lat="42.79314" lon="2.72865">
        <ele>25</ele>
        <time>2021-03-28T09:31:10Z</time>
      </trkpt>
      <trkpt lat="42.79314" lon="2.72877">
        <ele>200.9</ele>
        <time>2021-03-28T09:31:11Z</time>
      </trkpt>
      <trkpt lat="42.79314" lon="2.72877">
        <ele>25</ele>
        <time>2021-03-28T09:31:11Z</time>
      </trkpt>
      <trkpt lat="42.79314" lon="2.72889">
        <ele>200.6</ele>
        <time>2021-03-28T09:31:12Z</time>
      </trkpt>
      <trkpt lat="42.79314" lon="2.72889">
        <ele>25</ele>
        <time>2021-03-28T09:31:12Z</time>
      </trkpt>
      <trkpt lat="42.79315" lon="2.72902">
        <ele>200.2</ele>
        <time>2021-03-28T09:31:14Z</time>
      </trkpt>
      <trkpt lat="42.79315" lon="2.72902">
        <ele>25</ele>
        <time>2021-03-28T09:31:14Z</time>
      </trkpt>
      <trkpt lat="42.79315" lon="2.72916">
        <ele>199.7</ele>
        <time>2021-03-28T09:31:16Z</time>
      </trkpt>
      <trkpt lat="42.79315" lon="2.72916">
        <ele>25</ele>
        <time>2021-03-28T09:31:16Z</time>
      </trkpt>
      <trkpt lat="42.79315" lon="2.72929">
        <ele>199.4</ele>
        <time>2021-03-28T09:31:17Z</time>
      </trkpt>
      <trkpt lat="42.79315" lon="2.72929">
        <ele>25</ele>
        <time>2021-03-28T09:31:17Z</time>
      </trkpt>
      <trkpt lat="42.79314" lon="2.72942">
        <ele>199</ele>
        <time>2021-03-28T09:31:19Z</time>
      </trkpt>
      <trkpt lat="42.79314" lon="2.72942">
        <ele>25</ele>
        <time>2021-03-28T09:31:19Z</time>
      </trkpt>
      <trkpt lat="42.79313" lon="2.72957">
        <ele>198.8</ele>
        <time>2021-03-28T09:31:21Z</time>
      </trkpt>
      <trkpt lat="42.79313" lon="2.72957">
        <ele>25</ele>
        <time>2021-03-28T09:31:21Z</time>
      </trkpt>
      <trkpt lat="42.79309" lon="2.72971">
        <ele>198.4</ele>
        <time>2021-03-28T09:31:23Z</time>
      </trkpt>
      <trkpt lat="42.79309" lon="2.72971">
        <ele>25</ele>
        <time>2021-03-28T09:31:23Z</time>
      </trkpt>
      <trkpt lat="42.79303" lon="2.72982">
        <ele>197.8</ele>
        <time>2021-03-28T09:31:25Z</time>
      </trkpt>
      <trkpt lat="42.79303" lon="2.72982">
        <ele>25</ele>
        <time>2021-03-28T09:31:25Z</time>
      </trkpt>
      <trkpt lat="42.79294" lon="2.72992">
        <ele>197.5</ele>
        <time>2021-03-28T09:31:27Z</time>
      </trkpt>
      <trkpt lat="42.79294" lon="2.72992">
        <ele>25</ele>
        <time>2021-03-28T09:31:27Z</time>
      </trkpt>
      <trkpt lat="42.79285" lon="2.73003">
        <ele>197.4</ele>
        <time>2021-03-28T09:31:29Z</time>
      </trkpt>
      <trkpt lat="42.79285" lon="2.73003">
        <ele>25</ele>
        <time>2021-03-28T09:31:29Z</time>
      </trkpt>
      <trkpt lat="42.79279" lon="2.73016">
        <ele>197.6</ele>
        <time>2021-03-28T09:31:31Z</time>
      </trkpt>
      <trkpt lat="42.79279" lon="2.73016">
        <ele>25</ele>
        <time>2021-03-28T09:31:31Z</time>
      </trkpt>
      <trkpt lat="42.79274" lon="2.73028">
        <ele>197.2</ele>
        <time>2021-03-28T09:31:32Z</time>
      </trkpt>
      <trkpt lat="42.79274" lon="2.73028">
        <ele>25</ele>
        <time>2021-03-28T09:31:32Z</time>
      </trkpt>
      <trkpt lat="42.79271" lon="2.73039">
        <ele>196.1</ele>
        <time>2021-03-28T09:31:33Z</time>
      </trkpt>
      <trkpt lat="42.79271" lon="2.73039">
        <ele>25</ele>
        <time>2021-03-28T09:31:33Z</time>
      </trkpt>
      <trkpt lat="42.7927" lon="2.73053">
        <ele>195</ele>
        <time>2021-03-28T09:31:35Z</time>
      </trkpt>
      <trkpt lat="42.7927" lon="2.73053">
        <ele>25</ele>
        <time>2021-03-28T09:31:35Z</time>
      </trkpt>
      <trkpt lat="42.79268" lon="2.73068">
        <ele>194.6</ele>
        <time>2021-03-28T09:31:37Z</time>
      </trkpt>
      <trkpt lat="42.79268" lon="2.73068">
        <ele>25</ele>
        <time>2021-03-28T09:31:37Z</time>
      </trkpt>
      <trkpt lat="42.79267" lon="2.73084">
        <ele>194.3</ele>
        <time>2021-03-28T09:31:39Z</time>
      </trkpt>
      <trkpt lat="42.79267" lon="2.73084">
        <ele>25</ele>
        <time>2021-03-28T09:31:39Z</time>
      </trkpt>
      <trkpt lat="42.79268" lon="2.73098">
        <ele>193.6</ele>
        <time>2021-03-28T09:31:40Z</time>
      </trkpt>
      <trkpt lat="42.79268" lon="2.73098">
        <ele>25</ele>
        <time>2021-03-28T09:31:40Z</time>
      </trkpt>
      <trkpt lat="42.79273" lon="2.7311">
        <ele>194.1</ele>
        <time>2021-03-28T09:31:42Z</time>
      </trkpt>
      <trkpt lat="42.79273" lon="2.7311">
        <ele>25</ele>
        <time>2021-03-28T09:31:42Z</time>
      </trkpt>
      <trkpt lat="42.79279" lon="2.7312">
        <ele>194.2</ele>
        <time>2021-03-28T09:31:43Z</time>
      </trkpt>
      <trkpt lat="42.79279" lon="2.7312">
        <ele>25</ele>
        <time>2021-03-28T09:31:43Z</time>
      </trkpt>
      <trkpt lat="42.79285" lon="2.73131">
        <ele>193.7</ele>
        <time>2021-03-28T09:31:45Z</time>
      </trkpt>
      <trkpt lat="42.79285" lon="2.73131">
        <ele>25</ele>
        <time>2021-03-28T09:31:45Z</time>
      </trkpt>
      <trkpt lat="42.79287" lon="2.73144">
        <ele>192.9</ele>
        <time>2021-03-28T09:31:47Z</time>
      </trkpt>
      <trkpt lat="42.79287" lon="2.73144">
        <ele>25</ele>
        <time>2021-03-28T09:31:47Z</time>
      </trkpt>
      <trkpt lat="42.79284" lon="2.73155">
        <ele>192.5</ele>
        <time>2021-03-28T09:31:49Z</time>
      </trkpt>
      <trkpt lat="42.79284" lon="2.73155">
        <ele>25</ele>
        <time>2021-03-28T09:31:49Z</time>
      </trkpt>
      <trkpt lat="42.79277" lon="2.73164">
        <ele>191.9</ele>
        <time>2021-03-28T09:31:51Z</time>
      </trkpt>
      <trkpt lat="42.79277" lon="2.73164">
        <ele>25</ele>
        <time>2021-03-28T09:31:51Z</time>
      </trkpt>
      <trkpt lat="42.79268" lon="2.73171">
        <ele>191.1</ele>
        <time>2021-03-28T09:31:53Z</time>
      </trkpt>
      <trkpt lat="42.79268" lon="2.73171">
        <ele>25</ele>
        <time>2021-03-28T09:31:53Z</time>
      </trkpt>
      <trkpt lat="42.79258" lon="2.73177">
        <ele>190.5</ele>
        <time>2021-03-28T09:31:55Z</time>
      </trkpt>
      <trkpt lat="42.79258" lon="2.73177">
        <ele>25</ele>
        <time>2021-03-28T09:31:55Z</time>
      </trkpt>
      <trkpt lat="42.79248" lon="2.73185">
        <ele>190.4</ele>
        <time>2021-03-28T09:31:57Z</time>
      </trkpt>
      <trkpt lat="42.79248" lon="2.73185">
        <ele>25</ele>
        <time>2021-03-28T09:31:57Z</time>
      </trkpt>
      <trkpt lat="42.7924" lon="2.73193">
        <ele>191.1</ele>
        <time>2021-03-28T09:31:58Z</time>
      </trkpt>
      <trkpt lat="42.7924" lon="2.73193">
        <ele>25</ele>
        <time>2021-03-28T09:31:58Z</time>
      </trkpt>
      <trkpt lat="42.79234" lon="2.73202">
        <ele>191.2</ele>
        <time>2021-03-28T09:31:59Z</time>
      </trkpt>
      <trkpt lat="42.79234" lon="2.73202">
        <ele>25</ele>
        <time>2021-03-28T09:31:59Z</time>
      </trkpt>
      <trkpt lat="42.7923" lon="2.73213">
        <ele>191.3</ele>
        <time>2021-03-28T09:32:01Z</time>
      </trkpt>
      <trkpt lat="42.7923" lon="2.73213">
        <ele>25</ele>
        <time>2021-03-28T09:32:01Z</time>
      </trkpt>
      <trkpt lat="42.79229" lon="2.73227">
        <ele>191.4</ele>
        <time>2021-03-28T09:32:03Z</time>
      </trkpt>
      <trkpt lat="42.79229" lon="2.73227">
        <ele>25</ele>
        <time>2021-03-28T09:32:03Z</time>
      </trkpt>
      <trkpt lat="42.79228" lon="2.73239">
        <ele>191.3</ele>
        <time>2021-03-28T09:32:04Z</time>
      </trkpt>
      <trkpt lat="42.79228" lon="2.73239">
        <ele>25</ele>
        <time>2021-03-28T09:32:04Z</time>
      </trkpt>
      <trkpt lat="42.79228" lon="2.73253">
        <ele>191.5</ele>
        <time>2021-03-28T09:32:06Z</time>
      </trkpt>
      <trkpt lat="42.79228" lon="2.73253">
        <ele>25</ele>
        <time>2021-03-28T09:32:06Z</time>
      </trkpt>
      <trkpt lat="42.79229" lon="2.73265">
        <ele>191.8</ele>
        <time>2021-03-28T09:32:07Z</time>
      </trkpt>
      <trkpt lat="42.79229" lon="2.73265">
        <ele>25</ele>
        <time>2021-03-28T09:32:07Z</time>
      </trkpt>
      <trkpt lat="42.79229" lon="2.73279">
        <ele>191.9</ele>
        <time>2021-03-28T09:32:09Z</time>
      </trkpt>
      <trkpt lat="42.79229" lon="2.73279">
        <ele>25</ele>
        <time>2021-03-28T09:32:09Z</time>
      </trkpt>
      <trkpt lat="42.79227" lon="2.73292">
        <ele>190.6</ele>
        <time>2021-03-28T09:32:11Z</time>
      </trkpt>
      <trkpt lat="42.79227" lon="2.73292">
        <ele>25</ele>
        <time>2021-03-28T09:32:11Z</time>
      </trkpt>
      <trkpt lat="42.79221" lon="2.73302">
        <ele>189.2</ele>
        <time>2021-03-28T09:32:13Z</time>
      </trkpt>
      <trkpt lat="42.79221" lon="2.73302">
        <ele>25</ele>
        <time>2021-03-28T09:32:13Z</time>
      </trkpt>
      <trkpt lat="42.79213" lon="2.73304">
        <ele>189.7</ele>
        <time>2021-03-28T09:32:15Z</time>
      </trkpt>
      <trkpt lat="42.79213" lon="2.73304">
        <ele>25</ele>
        <time>2021-03-28T09:32:15Z</time>
      </trkpt>
      <trkpt lat="42.79207" lon="2.73303">
        <ele>190.1</ele>
        <time>2021-03-28T09:32:16Z</time>
      </trkpt>
      <trkpt lat="42.79207" lon="2.73303">
        <ele>25</ele>
        <time>2021-03-28T09:32:16Z</time>
      </trkpt>
      <trkpt lat="42.792" lon="2.73296">
        <ele>190.4</ele>
        <time>2021-03-28T09:32:18Z</time>
      </trkpt>
      <trkpt lat="42.792" lon="2.73296">
        <ele>25</ele>
        <time>2021-03-28T09:32:18Z</time>
      </trkpt>
      <trkpt lat="42.79193" lon="2.73288">
        <ele>190.5</ele>
        <time>2021-03-28T09:32:20Z</time>
      </trkpt>
      <trkpt lat="42.79193" lon="2.73288">
        <ele>25</ele>
        <time>2021-03-28T09:32:20Z</time>
      </trkpt>
      <trkpt lat="42.79185" lon="2.73283">
        <ele>190.5</ele>
        <time>2021-03-28T09:32:21Z</time>
      </trkpt>
      <trkpt lat="42.79185" lon="2.73283">
        <ele>25</ele>
        <time>2021-03-28T09:32:21Z</time>
      </trkpt>
      <trkpt lat="42.79176" lon="2.73281">
        <ele>190.5</ele>
        <time>2021-03-28T09:32:23Z</time>
      </trkpt>
      <trkpt lat="42.79176" lon="2.73281">
        <ele>25</ele>
        <time>2021-03-28T09:32:23Z</time>
      </trkpt>
      <trkpt lat="42.79168" lon="2.73281">
        <ele>190.8</ele>
        <time>2021-03-28T09:32:24Z</time>
      </trkpt>
      <trkpt lat="42.79168" lon="2.73281">
        <ele>25</ele>
        <time>2021-03-28T09:32:24Z</time>
      </trkpt>
      <trkpt lat="42.79161" lon="2.73284">
        <ele>191.1</ele>
        <time>2021-03-28T09:32:25Z</time>
      </trkpt>
      <trkpt lat="42.79161" lon="2.73284">
        <ele>25</ele>
        <time>2021-03-28T09:32:25Z</time>
      </trkpt>
      <trkpt lat="42.79154" lon="2.7329">
        <ele>191.4</ele>
        <time>2021-03-28T09:32:27Z</time>
      </trkpt>
      <trkpt lat="42.79154" lon="2.7329">
        <ele>25</ele>
        <time>2021-03-28T09:32:27Z</time>
      </trkpt>
      <trkpt lat="42.79147" lon="2.733">
        <ele>191.4</ele>
        <time>2021-03-28T09:32:29Z</time>
      </trkpt>
      <trkpt lat="42.79147" lon="2.733">
        <ele>25</ele>
        <time>2021-03-28T09:32:29Z</time>
      </trkpt>
      <trkpt lat="42.79142" lon="2.73312">
        <ele>191.1</ele>
        <time>2021-03-28T09:32:31Z</time>
      </trkpt>
      <trkpt lat="42.79142" lon="2.73312">
        <ele>25</ele>
        <time>2021-03-28T09:32:31Z</time>
      </trkpt>
      <trkpt lat="42.7914" lon="2.73323">
        <ele>190.8</ele>
        <time>2021-03-28T09:32:32Z</time>
      </trkpt>
      <trkpt lat="42.7914" lon="2.73323">
        <ele>25</ele>
        <time>2021-03-28T09:32:32Z</time>
      </trkpt>
      <trkpt lat="42.79139" lon="2.73333">
        <ele>190.9</ele>
        <time>2021-03-28T09:32:33Z</time>
      </trkpt>
      <trkpt lat="42.79139" lon="2.73333">
        <ele>25</ele>
        <time>2021-03-28T09:32:33Z</time>
      </trkpt>
      <trkpt lat="42.7914" lon="2.73345">
        <ele>191.3</ele>
        <time>2021-03-28T09:32:35Z</time>
      </trkpt>
      <trkpt lat="42.7914" lon="2.73345">
        <ele>25</ele>
        <time>2021-03-28T09:32:35Z</time>
      </trkpt>
      <trkpt lat="42.79141" lon="2.73355">
        <ele>191.7</ele>
        <time>2021-03-28T09:32:36Z</time>
      </trkpt>
      <trkpt lat="42.79141" lon="2.73355">
        <ele>25</ele>
        <time>2021-03-28T09:32:36Z</time>
      </trkpt>
      <trkpt lat="42.79143" lon="2.73367">
        <ele>192.4</ele>
        <time>2021-03-28T09:32:38Z</time>
      </trkpt>
      <trkpt lat="42.79143" lon="2.73367">
        <ele>25</ele>
        <time>2021-03-28T09:32:38Z</time>
      </trkpt>
      <trkpt lat="42.79145" lon="2.7338">
        <ele>193.1</ele>
        <time>2021-03-28T09:32:40Z</time>
      </trkpt>
      <trkpt lat="42.79145" lon="2.7338">
        <ele>25</ele>
        <time>2021-03-28T09:32:40Z</time>
      </trkpt>
      <trkpt lat="42.79147" lon="2.73391">
        <ele>193.7</ele>
        <time>2021-03-28T09:32:41Z</time>
      </trkpt>
      <trkpt lat="42.79147" lon="2.73391">
        <ele>25</ele>
        <time>2021-03-28T09:32:41Z</time>
      </trkpt>
      <trkpt lat="42.79148" lon="2.73402">
        <ele>194.2</ele>
        <time>2021-03-28T09:32:43Z</time>
      </trkpt>
      <trkpt lat="42.79148" lon="2.73402">
        <ele>25</ele>
        <time>2021-03-28T09:32:43Z</time>
      </trkpt>
      <trkpt lat="42.79147" lon="2.73414">
        <ele>194.1</ele>
        <time>2021-03-28T09:32:45Z</time>
      </trkpt>
      <trkpt lat="42.79147" lon="2.73414">
        <ele>25</ele>
        <time>2021-03-28T09:32:45Z</time>
      </trkpt>
      <trkpt lat="42.79145" lon="2.73422">
        <ele>193.5</ele>
        <time>2021-03-28T09:32:46Z</time>
      </trkpt>
      <trkpt lat="42.79145" lon="2.73422">
        <ele>25</ele>
        <time>2021-03-28T09:32:46Z</time>
      </trkpt>
      <trkpt lat="42.79141" lon="2.73426">
        <ele>192.6</ele>
        <time>2021-03-28T09:32:47Z</time>
      </trkpt>
      <trkpt lat="42.79141" lon="2.73426">
        <ele>25</ele>
        <time>2021-03-28T09:32:47Z</time>
      </trkpt>
      <trkpt lat="42.79136" lon="2.73426">
        <ele>192.6</ele>
        <time>2021-03-28T09:32:49Z</time>
      </trkpt>
      <trkpt lat="42.79136" lon="2.73426">
        <ele>25</ele>
        <time>2021-03-28T09:32:49Z</time>
      </trkpt>
      <trkpt lat="42.79131" lon="2.73422">
        <ele>193.6</ele>
        <time>2021-03-28T09:32:51Z</time>
      </trkpt>
      <trkpt lat="42.79131" lon="2.73422">
        <ele>25</ele>
        <time>2021-03-28T09:32:51Z</time>
      </trkpt>
      <trkpt lat="42.79126" lon="2.73418">
        <ele>194.3</ele>
        <time>2021-03-28T09:32:52Z</time>
      </trkpt>
      <trkpt lat="42.79126" lon="2.73418">
        <ele>25</ele>
        <time>2021-03-28T09:32:52Z</time>
      </trkpt>
      <trkpt lat="42.79122" lon="2.73412">
        <ele>194.7</ele>
        <time>2021-03-28T09:32:54Z</time>
      </trkpt>
      <trkpt lat="42.79122" lon="2.73412">
        <ele>25</ele>
        <time>2021-03-28T09:32:54Z</time>
      </trkpt>
      <trkpt lat="42.79117" lon="2.73404">
        <ele>194.7</ele>
        <time>2021-03-28T09:32:56Z</time>
      </trkpt>
      <trkpt lat="42.79117" lon="2.73404">
        <ele>25</ele>
        <time>2021-03-28T09:32:56Z</time>
      </trkpt>
      <trkpt lat="42.79113" lon="2.73395">
        <ele>194.4</ele>
        <time>2021-03-28T09:32:58Z</time>
      </trkpt>
      <trkpt lat="42.79113" lon="2.73395">
        <ele>25</ele>
        <time>2021-03-28T09:32:58Z</time>
      </trkpt>
      <trkpt lat="42.7911" lon="2.73387">
        <ele>194.3</ele>
        <time>2021-03-28T09:32:59Z</time>
      </trkpt>
      <trkpt lat="42.7911" lon="2.73387">
        <ele>25</ele>
        <time>2021-03-28T09:32:59Z</time>
      </trkpt>
      <trkpt lat="42.79106" lon="2.7338">
        <ele>194.4</ele>
        <time>2021-03-28T09:33:01Z</time>
      </trkpt>
      <trkpt lat="42.79106" lon="2.7338">
        <ele>25</ele>
        <time>2021-03-28T09:33:01Z</time>
      </trkpt>
      <trkpt lat="42.79102" lon="2.73373">
        <ele>194.4</ele>
        <time>2021-03-28T09:33:03Z</time>
      </trkpt>
      <trkpt lat="42.79102" lon="2.73373">
        <ele>25</ele>
        <time>2021-03-28T09:33:03Z</time>
      </trkpt>
      <trkpt lat="42.79099" lon="2.73367">
        <ele>194.6</ele>
        <time>2021-03-28T09:33:04Z</time>
      </trkpt>
      <trkpt lat="42.79099" lon="2.73367">
        <ele>25</ele>
        <time>2021-03-28T09:33:04Z</time>
      </trkpt>
      <trkpt lat="42.79096" lon="2.73362">
        <ele>194.6</ele>
        <time>2021-03-28T09:33:05Z</time>
      </trkpt>
      <trkpt lat="42.79096" lon="2.73362">
        <ele>25</ele>
        <time>2021-03-28T09:33:05Z</time>
      </trkpt>
      <trkpt lat="42.79092" lon="2.73355">
        <ele>195.1</ele>
        <time>2021-03-28T09:33:07Z</time>
      </trkpt>
      <trkpt lat="42.79092" lon="2.73355">
        <ele>25</ele>
        <time>2021-03-28T09:33:07Z</time>
      </trkpt>
      <trkpt lat="42.79088" lon="2.73348">
        <ele>195.8</ele>
        <time>2021-03-28T09:33:09Z</time>
      </trkpt>
      <trkpt lat="42.79088" lon="2.73348">
        <ele>25</ele>
        <time>2021-03-28T09:33:09Z</time>
      </trkpt>
      <trkpt lat="42.79084" lon="2.73341">
        <ele>196.5</ele>
        <time>2021-03-28T09:33:11Z</time>
      </trkpt>
      <trkpt lat="42.79084" lon="2.73341">
        <ele>25</ele>
        <time>2021-03-28T09:33:11Z</time>
      </trkpt>
      <trkpt lat="42.7908" lon="2.73333">
        <ele>196.5</ele>
        <time>2021-03-28T09:33:13Z</time>
      </trkpt>
      <trkpt lat="42.7908" lon="2.73333">
        <ele>25</ele>
        <time>2021-03-28T09:33:13Z</time>
      </trkpt>
      <trkpt lat="42.79076" lon="2.73326">
        <ele>196.8</ele>
        <time>2021-03-28T09:33:15Z</time>
      </trkpt>
      <trkpt lat="42.79076" lon="2.73326">
        <ele>25</ele>
        <time>2021-03-28T09:33:15Z</time>
      </trkpt>
      <trkpt lat="42.79072" lon="2.7332">
        <ele>197</ele>
        <time>2021-03-28T09:33:16Z</time>
      </trkpt>
      <trkpt lat="42.79072" lon="2.7332">
        <ele>25</ele>
        <time>2021-03-28T09:33:16Z</time>
      </trkpt>
      <trkpt lat="42.79068" lon="2.73315">
        <ele>197.2</ele>
        <time>2021-03-28T09:33:17Z</time>
      </trkpt>
      <trkpt lat="42.79068" lon="2.73315">
        <ele>25</ele>
        <time>2021-03-28T09:33:17Z</time>
      </trkpt>
      <trkpt lat="42.79063" lon="2.73312">
        <ele>197.6</ele>
        <time>2021-03-28T09:33:19Z</time>
      </trkpt>
      <trkpt lat="42.79063" lon="2.73312">
        <ele>25</ele>
        <time>2021-03-28T09:33:19Z</time>
      </trkpt>
      <trkpt lat="42.79059" lon="2.73311">
        <ele>198</ele>
        <time>2021-03-28T09:33:20Z</time>
      </trkpt>
      <trkpt lat="42.79059" lon="2.73311">
        <ele>25</ele>
        <time>2021-03-28T09:33:20Z</time>
      </trkpt>
      <trkpt lat="42.79055" lon="2.73312">
        <ele>198.3</ele>
        <time>2021-03-28T09:33:22Z</time>
      </trkpt>
      <trkpt lat="42.79055" lon="2.73312">
        <ele>25</ele>
        <time>2021-03-28T09:33:22Z</time>
      </trkpt>
      <trkpt lat="42.79051" lon="2.73314">
        <ele>197.8</ele>
        <time>2021-03-28T09:33:23Z</time>
      </trkpt>
      <trkpt lat="42.79051" lon="2.73314">
        <ele>25</ele>
        <time>2021-03-28T09:33:23Z</time>
      </trkpt>
      <trkpt lat="42.79047" lon="2.73318">
        <ele>197.5</ele>
        <time>2021-03-28T09:33:25Z</time>
      </trkpt>
      <trkpt lat="42.79047" lon="2.73318">
        <ele>25</ele>
        <time>2021-03-28T09:33:25Z</time>
      </trkpt>
      <trkpt lat="42.79044" lon="2.73323">
        <ele>197.5</ele>
        <time>2021-03-28T09:33:26Z</time>
      </trkpt>
      <trkpt lat="42.79044" lon="2.73323">
        <ele>25</ele>
        <time>2021-03-28T09:33:26Z</time>
      </trkpt>
      <trkpt lat="42.79042" lon="2.73327">
        <ele>197.5</ele>
        <time>2021-03-28T09:33:27Z</time>
      </trkpt>
      <trkpt lat="42.79042" lon="2.73327">
        <ele>25</ele>
        <time>2021-03-28T09:33:27Z</time>
      </trkpt>
      <trkpt lat="42.7904" lon="2.73333">
        <ele>197.7</ele>
        <time>2021-03-28T09:33:29Z</time>
      </trkpt>
      <trkpt lat="42.7904" lon="2.73333">
        <ele>25</ele>
        <time>2021-03-28T09:33:29Z</time>
      </trkpt>
      <trkpt lat="42.79038" lon="2.73339">
        <ele>198</ele>
        <time>2021-03-28T09:33:30Z</time>
      </trkpt>
      <trkpt lat="42.79038" lon="2.73339">
        <ele>25</ele>
        <time>2021-03-28T09:33:30Z</time>
      </trkpt>
      <trkpt lat="42.79036" lon="2.73346">
        <ele>198.6</ele>
        <time>2021-03-28T09:33:32Z</time>
      </trkpt>
      <trkpt lat="42.79036" lon="2.73346">
        <ele>25</ele>
        <time>2021-03-28T09:33:32Z</time>
      </trkpt>
      <trkpt lat="42.79034" lon="2.73353">
        <ele>199.1</ele>
        <time>2021-03-28T09:33:33Z</time>
      </trkpt>
      <trkpt lat="42.79034" lon="2.73353">
        <ele>25</ele>
        <time>2021-03-28T09:33:33Z</time>
      </trkpt>
      <trkpt lat="42.79033" lon="2.73361">
        <ele>199.7</ele>
        <time>2021-03-28T09:33:35Z</time>
      </trkpt>
      <trkpt lat="42.79033" lon="2.73361">
        <ele>25</ele>
        <time>2021-03-28T09:33:35Z</time>
      </trkpt>
      <trkpt lat="42.79031" lon="2.73369">
        <ele>200</ele>
        <time>2021-03-28T09:33:37Z</time>
      </trkpt>
      <trkpt lat="42.79031" lon="2.73369">
        <ele>25</ele>
        <time>2021-03-28T09:33:37Z</time>
      </trkpt>
      <trkpt lat="42.7903" lon="2.73376">
        <ele>200.3</ele>
        <time>2021-03-28T09:33:38Z</time>
      </trkpt>
      <trkpt lat="42.7903" lon="2.73376">
        <ele>25</ele>
        <time>2021-03-28T09:33:38Z</time>
      </trkpt>
      <trkpt lat="42.79028" lon="2.73383">
        <ele>200.6</ele>
        <time>2021-03-28T09:33:40Z</time>
      </trkpt>
      <trkpt lat="42.79028" lon="2.73383">
        <ele>25</ele>
        <time>2021-03-28T09:33:40Z</time>
      </trkpt>
      <trkpt lat="42.79026" lon="2.7339">
        <ele>200.7</ele>
        <time>2021-03-28T09:33:41Z</time>
      </trkpt>
      <trkpt lat="42.79026" lon="2.7339">
        <ele>25</ele>
        <time>2021-03-28T09:33:41Z</time>
      </trkpt>
      <trkpt lat="42.79024" lon="2.73395">
        <ele>201</ele>
        <time>2021-03-28T09:33:42Z</time>
      </trkpt>
      <trkpt lat="42.79024" lon="2.73395">
        <ele>25</ele>
        <time>2021-03-28T09:33:42Z</time>
      </trkpt>
      <trkpt lat="42.79021" lon="2.73401">
        <ele>201.3</ele>
        <time>2021-03-28T09:33:44Z</time>
      </trkpt>
      <trkpt lat="42.79021" lon="2.73401">
        <ele>25</ele>
        <time>2021-03-28T09:33:44Z</time>
      </trkpt>
      <trkpt lat="42.79018" lon="2.73406">
        <ele>201.5</ele>
        <time>2021-03-28T09:33:45Z</time>
      </trkpt>
      <trkpt lat="42.79018" lon="2.73406">
        <ele>25</ele>
        <time>2021-03-28T09:33:45Z</time>
      </trkpt>
      <trkpt lat="42.79014" lon="2.7341">
        <ele>201.6</ele>
        <time>2021-03-28T09:33:47Z</time>
      </trkpt>
      <trkpt lat="42.79014" lon="2.7341">
        <ele>25</ele>
        <time>2021-03-28T09:33:47Z</time>
      </trkpt>
      <trkpt lat="42.7901" lon="2.73415">
        <ele>201.7</ele>
        <time>2021-03-28T09:33:49Z</time>
      </trkpt>
      <trkpt lat="42.7901" lon="2.73415">
        <ele>25</ele>
        <time>2021-03-28T09:33:49Z</time>
      </trkpt>
      <trkpt lat="42.79005" lon="2.73418">
        <ele>201.7</ele>
        <time>2021-03-28T09:33:51Z</time>
      </trkpt>
      <trkpt lat="42.79005" lon="2.73418">
        <ele>25</ele>
        <time>2021-03-28T09:33:51Z</time>
      </trkpt>
      <trkpt lat="42.79" lon="2.73421">
        <ele>201.6</ele>
        <time>2021-03-28T09:33:52Z</time>
      </trkpt>
      <trkpt lat="42.79" lon="2.73421">
        <ele>25</ele>
        <time>2021-03-28T09:33:52Z</time>
      </trkpt>
      <trkpt lat="42.78995" lon="2.73424">
        <ele>202</ele>
        <time>2021-03-28T09:33:54Z</time>
      </trkpt>
      <trkpt lat="42.78995" lon="2.73424">
        <ele>25</ele>
        <time>2021-03-28T09:33:54Z</time>
      </trkpt>
      <trkpt lat="42.78991" lon="2.73426">
        <ele>202.3</ele>
        <time>2021-03-28T09:33:55Z</time>
      </trkpt>
      <trkpt lat="42.78991" lon="2.73426">
        <ele>25</ele>
        <time>2021-03-28T09:33:55Z</time>
      </trkpt>
      <trkpt lat="42.78986" lon="2.73428">
        <ele>202.4</ele>
        <time>2021-03-28T09:33:57Z</time>
      </trkpt>
      <trkpt lat="42.78986" lon="2.73428">
        <ele>25</ele>
        <time>2021-03-28T09:33:57Z</time>
      </trkpt>
      <trkpt lat="42.78981" lon="2.73429">
        <ele>202.5</ele>
        <time>2021-03-28T09:33:58Z</time>
      </trkpt>
      <trkpt lat="42.78981" lon="2.73429">
        <ele>25</ele>
        <time>2021-03-28T09:33:58Z</time>
      </trkpt>
      <trkpt lat="42.78976" lon="2.73429">
        <ele>202.4</ele>
        <time>2021-03-28T09:34:00Z</time>
      </trkpt>
      <trkpt lat="42.78976" lon="2.73429">
        <ele>25</ele>
        <time>2021-03-28T09:34:00Z</time>
      </trkpt>
      <trkpt lat="42.78971" lon="2.73429">
        <ele>202.4</ele>
        <time>2021-03-28T09:34:01Z</time>
      </trkpt>
      <trkpt lat="42.78971" lon="2.73429">
        <ele>25</ele>
        <time>2021-03-28T09:34:01Z</time>
      </trkpt>
      <trkpt lat="42.78967" lon="2.73429">
        <ele>202.7</ele>
        <time>2021-03-28T09:34:02Z</time>
      </trkpt>
      <trkpt lat="42.78967" lon="2.73429">
        <ele>25</ele>
        <time>2021-03-28T09:34:02Z</time>
      </trkpt>
      <trkpt lat="42.78962" lon="2.73428">
        <ele>203</ele>
        <time>2021-03-28T09:34:04Z</time>
      </trkpt>
      <trkpt lat="42.78962" lon="2.73428">
        <ele>25</ele>
        <time>2021-03-28T09:34:04Z</time>
      </trkpt>
      <trkpt lat="42.78957" lon="2.73427">
        <ele>203.4</ele>
        <time>2021-03-28T09:34:06Z</time>
      </trkpt>
      <trkpt lat="42.78957" lon="2.73427">
        <ele>25</ele>
        <time>2021-03-28T09:34:06Z</time>
      </trkpt>
      <trkpt lat="42.78951" lon="2.73427">
        <ele>203.8</ele>
        <time>2021-03-28T09:34:08Z</time>
      </trkpt>
      <trkpt lat="42.78951" lon="2.73427">
        <ele>25</ele>
        <time>2021-03-28T09:34:08Z</time>
      </trkpt>
      <trkpt lat="42.78946" lon="2.73428">
        <ele>204.3</ele>
        <time>2021-03-28T09:34:09Z</time>
      </trkpt>
      <trkpt lat="42.78946" lon="2.73428">
        <ele>25</ele>
        <time>2021-03-28T09:34:09Z</time>
      </trkpt>
      <trkpt lat="42.78941" lon="2.7343">
        <ele>204.5</ele>
        <time>2021-03-28T09:34:11Z</time>
      </trkpt>
      <trkpt lat="42.78941" lon="2.7343">
        <ele>25</ele>
        <time>2021-03-28T09:34:11Z</time>
      </trkpt>
      <trkpt lat="42.78937" lon="2.73433">
        <ele>204.6</ele>
        <time>2021-03-28T09:34:13Z</time>
      </trkpt>
      <trkpt lat="42.78937" lon="2.73433">
        <ele>25</ele>
        <time>2021-03-28T09:34:13Z</time>
      </trkpt>
      <trkpt lat="42.78932" lon="2.73438">
        <ele>204.8</ele>
        <time>2021-03-28T09:34:15Z</time>
      </trkpt>
      <trkpt lat="42.78932" lon="2.73438">
        <ele>25</ele>
        <time>2021-03-28T09:34:15Z</time>
      </trkpt>
      <trkpt lat="42.78928" lon="2.73442">
        <ele>204.9</ele>
        <time>2021-03-28T09:34:16Z</time>
      </trkpt>
      <trkpt lat="42.78928" lon="2.73442">
        <ele>25</ele>
        <time>2021-03-28T09:34:16Z</time>
      </trkpt>
      <trkpt lat="42.78926" lon="2.73447">
        <ele>205.1</ele>
        <time>2021-03-28T09:34:17Z</time>
      </trkpt>
      <trkpt lat="42.78926" lon="2.73447">
        <ele>25</ele>
        <time>2021-03-28T09:34:17Z</time>
      </trkpt>
      <trkpt lat="42.78923" lon="2.73453">
        <ele>205.3</ele>
        <time>2021-03-28T09:34:19Z</time>
      </trkpt>
      <trkpt lat="42.78923" lon="2.73453">
        <ele>25</ele>
        <time>2021-03-28T09:34:19Z</time>
      </trkpt>
      <trkpt lat="42.78921" lon="2.73459">
        <ele>205.5</ele>
        <time>2021-03-28T09:34:21Z</time>
      </trkpt>
      <trkpt lat="42.78921" lon="2.73459">
        <ele>25</ele>
        <time>2021-03-28T09:34:21Z</time>
      </trkpt>
      <trkpt lat="42.78919" lon="2.73465">
        <ele>205.7</ele>
        <time>2021-03-28T09:34:23Z</time>
      </trkpt>
      <trkpt lat="42.78919" lon="2.73465">
        <ele>25</ele>
        <time>2021-03-28T09:34:23Z</time>
      </trkpt>
      <trkpt lat="42.78917" lon="2.73471">
        <ele>205.9</ele>
        <time>2021-03-28T09:34:24Z</time>
      </trkpt>
      <trkpt lat="42.78917" lon="2.73471">
        <ele>25</ele>
        <time>2021-03-28T09:34:24Z</time>
      </trkpt>
      <trkpt lat="42.78915" lon="2.73475">
        <ele>206.1</ele>
        <time>2021-03-28T09:34:25Z</time>
      </trkpt>
      <trkpt lat="42.78915" lon="2.73475">
        <ele>25</ele>
        <time>2021-03-28T09:34:25Z</time>
      </trkpt>
      <trkpt lat="42.78914" lon="2.7348">
        <ele>206.3</ele>
        <time>2021-03-28T09:34:26Z</time>
      </trkpt>
      <trkpt lat="42.78914" lon="2.7348">
        <ele>25</ele>
        <time>2021-03-28T09:34:26Z</time>
      </trkpt>
      <trkpt lat="42.78914" lon="2.73485">
        <ele>206.4</ele>
        <time>2021-03-28T09:34:27Z</time>
      </trkpt>
      <trkpt lat="42.78914" lon="2.73485">
        <ele>25</ele>
        <time>2021-03-28T09:34:27Z</time>
      </trkpt>
      <trkpt lat="42.78913" lon="2.7349">
        <ele>206.5</ele>
        <time>2021-03-28T09:34:28Z</time>
      </trkpt>
      <trkpt lat="42.78913" lon="2.7349">
        <ele>25</ele>
        <time>2021-03-28T09:34:28Z</time>
      </trkpt>
      <trkpt lat="42.78914" lon="2.73496">
        <ele>206.8</ele>
        <time>2021-03-28T09:34:30Z</time>
      </trkpt>
      <trkpt lat="42.78914" lon="2.73496">
        <ele>25</ele>
        <time>2021-03-28T09:34:30Z</time>
      </trkpt>
      <trkpt lat="42.78915" lon="2.73505">
        <ele>206.9</ele>
        <time>2021-03-28T09:34:32Z</time>
      </trkpt>
      <trkpt lat="42.78915" lon="2.73505">
        <ele>25</ele>
        <time>2021-03-28T09:34:32Z</time>
      </trkpt>
      <trkpt lat="42.78916" lon="2.73512">
        <ele>207</ele>
        <time>2021-03-28T09:34:33Z</time>
      </trkpt>
      <trkpt lat="42.78916" lon="2.73512">
        <ele>25</ele>
        <time>2021-03-28T09:34:33Z</time>
      </trkpt>
      <trkpt lat="42.78917" lon="2.73521">
        <ele>207</ele>
        <time>2021-03-28T09:34:35Z</time>
      </trkpt>
      <trkpt lat="42.78917" lon="2.73521">
        <ele>25</ele>
        <time>2021-03-28T09:34:35Z</time>
      </trkpt>
      <trkpt lat="42.78918" lon="2.7353">
        <ele>207.1</ele>
        <time>2021-03-28T09:34:37Z</time>
      </trkpt>
      <trkpt lat="42.78918" lon="2.7353">
        <ele>25</ele>
        <time>2021-03-28T09:34:37Z</time>
      </trkpt>
      <trkpt lat="42.78919" lon="2.73538">
        <ele>207.1</ele>
        <time>2021-03-28T09:34:38Z</time>
      </trkpt>
      <trkpt lat="42.78919" lon="2.73538">
        <ele>25</ele>
        <time>2021-03-28T09:34:38Z</time>
      </trkpt>
      <trkpt lat="42.78921" lon="2.73547">
        <ele>207.1</ele>
        <time>2021-03-28T09:34:40Z</time>
      </trkpt>
      <trkpt lat="42.78921" lon="2.73547">
        <ele>25</ele>
        <time>2021-03-28T09:34:40Z</time>
      </trkpt>
      <trkpt lat="42.78922" lon="2.73556">
        <ele>207.2</ele>
        <time>2021-03-28T09:34:41Z</time>
      </trkpt>
      <trkpt lat="42.78922" lon="2.73556">
        <ele>25</ele>
        <time>2021-03-28T09:34:41Z</time>
      </trkpt>
      <trkpt lat="42.78923" lon="2.73562">
        <ele>207.2</ele>
        <time>2021-03-28T09:34:42Z</time>
      </trkpt>
      <trkpt lat="42.78923" lon="2.73562">
        <ele>25</ele>
        <time>2021-03-28T09:34:42Z</time>
      </trkpt>
      <trkpt lat="42.78923" lon="2.73572">
        <ele>207.2</ele>
        <time>2021-03-28T09:34:44Z</time>
      </trkpt>
      <trkpt lat="42.78923" lon="2.73572">
        <ele>25</ele>
        <time>2021-03-28T09:34:44Z</time>
      </trkpt>
      <trkpt lat="42.78924" lon="2.73582">
        <ele>207.3</ele>
        <time>2021-03-28T09:34:46Z</time>
      </trkpt>
      <trkpt lat="42.78924" lon="2.73582">
        <ele>25</ele>
        <time>2021-03-28T09:34:46Z</time>
      </trkpt>
      <trkpt lat="42.78924" lon="2.73591">
        <ele>207.3</ele>
        <time>2021-03-28T09:34:47Z</time>
      </trkpt>
      <trkpt lat="42.78924" lon="2.73591">
        <ele>25</ele>
        <time>2021-03-28T09:34:47Z</time>
      </trkpt>
      <trkpt lat="42.78924" lon="2.73602">
        <ele>207.3</ele>
        <time>2021-03-28T09:34:49Z</time>
      </trkpt>
      <trkpt lat="42.78924" lon="2.73602">
        <ele>25</ele>
        <time>2021-03-28T09:34:49Z</time>
      </trkpt>
      <trkpt lat="42.78924" lon="2.73612">
        <ele>207.3</ele>
        <time>2021-03-28T09:34:50Z</time>
      </trkpt>
      <trkpt lat="42.78924" lon="2.73612">
        <ele>25</ele>
        <time>2021-03-28T09:34:50Z</time>
      </trkpt>
      <trkpt lat="42.78924" lon="2.73622">
        <ele>207.3</ele>
        <time>2021-03-28T09:34:52Z</time>
      </trkpt>
      <trkpt lat="42.78924" lon="2.73622">
        <ele>25</ele>
        <time>2021-03-28T09:34:52Z</time>
      </trkpt>
      <trkpt lat="42.78923" lon="2.73631">
        <ele>207.4</ele>
        <time>2021-03-28T09:34:53Z</time>
      </trkpt>
      <trkpt lat="42.78923" lon="2.73631">
        <ele>25</ele>
        <time>2021-03-28T09:34:53Z</time>
      </trkpt>
      <trkpt lat="42.78923" lon="2.73641">
        <ele>207.4</ele>
        <time>2021-03-28T09:34:55Z</time>
      </trkpt>
      <trkpt lat="42.78923" lon="2.73641">
        <ele>25</ele>
        <time>2021-03-28T09:34:55Z</time>
      </trkpt>
      <trkpt lat="42.78922" lon="2.7365">
        <ele>207.4</ele>
        <time>2021-03-28T09:34:56Z</time>
      </trkpt>
      <trkpt lat="42.78922" lon="2.7365">
        <ele>25</ele>
        <time>2021-03-28T09:34:56Z</time>
      </trkpt>
      <trkpt lat="42.78922" lon="2.7366">
        <ele>207.4</ele>
        <time>2021-03-28T09:34:58Z</time>
      </trkpt>
      <trkpt lat="42.78922" lon="2.7366">
        <ele>25</ele>
        <time>2021-03-28T09:34:58Z</time>
      </trkpt>
      <trkpt lat="42.78922" lon="2.73671">
        <ele>207.3</ele>
        <time>2021-03-28T09:35:00Z</time>
      </trkpt>
      <trkpt lat="42.78922" lon="2.73671">
        <ele>25</ele>
        <time>2021-03-28T09:35:00Z</time>
      </trkpt>
      <trkpt lat="42.78921" lon="2.73682">
        <ele>207.3</ele>
        <time>2021-03-28T09:35:02Z</time>
      </trkpt>
      <trkpt lat="42.78921" lon="2.73682">
        <ele>25</ele>
        <time>2021-03-28T09:35:02Z</time>
      </trkpt>
      <trkpt lat="42.78921" lon="2.73691">
        <ele>207.3</ele>
        <time>2021-03-28T09:35:03Z</time>
      </trkpt>
      <trkpt lat="42.78921" lon="2.73691">
        <ele>25</ele>
        <time>2021-03-28T09:35:03Z</time>
      </trkpt>
      <trkpt lat="42.7892" lon="2.73702">
        <ele>207.5</ele>
        <time>2021-03-28T09:35:05Z</time>
      </trkpt>
      <trkpt lat="42.7892" lon="2.73702">
        <ele>25</ele>
        <time>2021-03-28T09:35:05Z</time>
      </trkpt>
      <trkpt lat="42.78919" lon="2.73711">
        <ele>207.8</ele>
        <time>2021-03-28T09:35:06Z</time>
      </trkpt>
      <trkpt lat="42.78919" lon="2.73711">
        <ele>25</ele>
        <time>2021-03-28T09:35:06Z</time>
      </trkpt>
      <trkpt lat="42.78918" lon="2.73721">
        <ele>208.1</ele>
        <time>2021-03-28T09:35:08Z</time>
      </trkpt>
      <trkpt lat="42.78918" lon="2.73721">
        <ele>25</ele>
        <time>2021-03-28T09:35:08Z</time>
      </trkpt>
      <trkpt lat="42.78917" lon="2.7373">
        <ele>208</ele>
        <time>2021-03-28T09:35:09Z</time>
      </trkpt>
      <trkpt lat="42.78917" lon="2.7373">
        <ele>25</ele>
        <time>2021-03-28T09:35:09Z</time>
      </trkpt>
      <trkpt lat="42.78916" lon="2.73741">
        <ele>207.9</ele>
        <time>2021-03-28T09:35:11Z</time>
      </trkpt>
      <trkpt lat="42.78916" lon="2.73741">
        <ele>25</ele>
        <time>2021-03-28T09:35:11Z</time>
      </trkpt>
      <trkpt lat="42.78914" lon="2.73753">
        <ele>207.7</ele>
        <time>2021-03-28T09:35:13Z</time>
      </trkpt>
      <trkpt lat="42.78914" lon="2.73753">
        <ele>25</ele>
        <time>2021-03-28T09:35:13Z</time>
      </trkpt>
      <trkpt lat="42.78913" lon="2.73765">
        <ele>207.6</ele>
        <time>2021-03-28T09:35:15Z</time>
      </trkpt>
      <trkpt lat="42.78913" lon="2.73765">
        <ele>25</ele>
        <time>2021-03-28T09:35:15Z</time>
      </trkpt>
      <trkpt lat="42.78912" lon="2.73777">
        <ele>207.5</ele>
        <time>2021-03-28T09:35:17Z</time>
      </trkpt>
      <trkpt lat="42.78912" lon="2.73777">
        <ele>25</ele>
        <time>2021-03-28T09:35:17Z</time>
      </trkpt>
      <trkpt lat="42.78911" lon="2.73789">
        <ele>207.4</ele>
        <time>2021-03-28T09:35:19Z</time>
      </trkpt>
      <trkpt lat="42.78911" lon="2.73789">
        <ele>25</ele>
        <time>2021-03-28T09:35:19Z</time>
      </trkpt>
      <trkpt lat="42.7891" lon="2.73799">
        <ele>207.3</ele>
        <time>2021-03-28T09:35:20Z</time>
      </trkpt>
      <trkpt lat="42.7891" lon="2.73799">
        <ele>25</ele>
        <time>2021-03-28T09:35:20Z</time>
      </trkpt>
      <trkpt lat="42.78909" lon="2.73809">
        <ele>207.2</ele>
        <time>2021-03-28T09:35:21Z</time>
      </trkpt>
      <trkpt lat="42.78909" lon="2.73809">
        <ele>25</ele>
        <time>2021-03-28T09:35:21Z</time>
      </trkpt>
      <trkpt lat="42.78908" lon="2.73819">
        <ele>207.3</ele>
        <time>2021-03-28T09:35:23Z</time>
      </trkpt>
      <trkpt lat="42.78908" lon="2.73819">
        <ele>25</ele>
        <time>2021-03-28T09:35:23Z</time>
      </trkpt>
      <trkpt lat="42.78908" lon="2.73829">
        <ele>207.3</ele>
        <time>2021-03-28T09:35:24Z</time>
      </trkpt>
      <trkpt lat="42.78908" lon="2.73829">
        <ele>25</ele>
        <time>2021-03-28T09:35:24Z</time>
      </trkpt>
      <trkpt lat="42.78906" lon="2.7384">
        <ele>207.5</ele>
        <time>2021-03-28T09:35:26Z</time>
      </trkpt>
      <trkpt lat="42.78906" lon="2.7384">
        <ele>25</ele>
        <time>2021-03-28T09:35:26Z</time>
      </trkpt>
      <trkpt lat="42.78905" lon="2.73852">
        <ele>207.8</ele>
        <time>2021-03-28T09:35:28Z</time>
      </trkpt>
      <trkpt lat="42.78905" lon="2.73852">
        <ele>25</ele>
        <time>2021-03-28T09:35:28Z</time>
      </trkpt>
      <trkpt lat="42.78904" lon="2.73862">
        <ele>208.1</ele>
        <time>2021-03-28T09:35:29Z</time>
      </trkpt>
      <trkpt lat="42.78904" lon="2.73862">
        <ele>25</ele>
        <time>2021-03-28T09:35:29Z</time>
      </trkpt>
      <trkpt lat="42.78904" lon="2.73871">
        <ele>208.2</ele>
        <time>2021-03-28T09:35:30Z</time>
      </trkpt>
      <trkpt lat="42.78904" lon="2.73871">
        <ele>25</ele>
        <time>2021-03-28T09:35:30Z</time>
      </trkpt>
      <trkpt lat="42.78903" lon="2.73879">
        <ele>208.3</ele>
        <time>2021-03-28T09:35:31Z</time>
      </trkpt>
      <trkpt lat="42.78903" lon="2.73879">
        <ele>25</ele>
        <time>2021-03-28T09:35:31Z</time>
      </trkpt>
      <trkpt lat="42.78902" lon="2.73889">
        <ele>208.5</ele>
        <time>2021-03-28T09:35:33Z</time>
      </trkpt>
      <trkpt lat="42.78902" lon="2.73889">
        <ele>25</ele>
        <time>2021-03-28T09:35:33Z</time>
      </trkpt>
      <trkpt lat="42.78901" lon="2.739">
        <ele>208.4</ele>
        <time>2021-03-28T09:35:35Z</time>
      </trkpt>
      <trkpt lat="42.78901" lon="2.739">
        <ele>25</ele>
        <time>2021-03-28T09:35:35Z</time>
      </trkpt>
      <trkpt lat="42.789" lon="2.73909">
        <ele>208.4</ele>
        <time>2021-03-28T09:35:36Z</time>
      </trkpt>
      <trkpt lat="42.789" lon="2.73909">
        <ele>25</ele>
        <time>2021-03-28T09:35:36Z</time>
      </trkpt>
      <trkpt lat="42.78899" lon="2.73918">
        <ele>208.4</ele>
        <time>2021-03-28T09:35:37Z</time>
      </trkpt>
      <trkpt lat="42.78899" lon="2.73918">
        <ele>25</ele>
        <time>2021-03-28T09:35:37Z</time>
      </trkpt>
      <trkpt lat="42.78899" lon="2.73927">
        <ele>208.3</ele>
        <time>2021-03-28T09:35:39Z</time>
      </trkpt>
      <trkpt lat="42.78899" lon="2.73927">
        <ele>25</ele>
        <time>2021-03-28T09:35:39Z</time>
      </trkpt>
      <trkpt lat="42.78897" lon="2.73938">
        <ele>208.3</ele>
        <time>2021-03-28T09:35:41Z</time>
      </trkpt>
      <trkpt lat="42.78897" lon="2.73938">
        <ele>25</ele>
        <time>2021-03-28T09:35:41Z</time>
      </trkpt>
      <trkpt lat="42.78896" lon="2.73948">
        <ele>208.4</ele>
        <time>2021-03-28T09:35:42Z</time>
      </trkpt>
      <trkpt lat="42.78896" lon="2.73948">
        <ele>25</ele>
        <time>2021-03-28T09:35:42Z</time>
      </trkpt>
      <trkpt lat="42.78895" lon="2.73956">
        <ele>208.7</ele>
        <time>2021-03-28T09:35:43Z</time>
      </trkpt>
      <trkpt lat="42.78895" lon="2.73956">
        <ele>25</ele>
        <time>2021-03-28T09:35:43Z</time>
      </trkpt>
      <trkpt lat="42.78894" lon="2.73967">
        <ele>209</ele>
        <time>2021-03-28T09:35:45Z</time>
      </trkpt>
      <trkpt lat="42.78894" lon="2.73967">
        <ele>25</ele>
        <time>2021-03-28T09:35:45Z</time>
      </trkpt>
      <trkpt lat="42.78893" lon="2.73976">
        <ele>209.2</ele>
        <time>2021-03-28T09:35:46Z</time>
      </trkpt>
      <trkpt lat="42.78893" lon="2.73976">
        <ele>25</ele>
        <time>2021-03-28T09:35:46Z</time>
      </trkpt>
      <trkpt lat="42.78892" lon="2.73985">
        <ele>209.1</ele>
        <time>2021-03-28T09:35:47Z</time>
      </trkpt>
      <trkpt lat="42.78892" lon="2.73985">
        <ele>25</ele>
        <time>2021-03-28T09:35:47Z</time>
      </trkpt>
      <trkpt lat="42.78892" lon="2.73995">
        <ele>209.1</ele>
        <time>2021-03-28T09:35:49Z</time>
      </trkpt>
      <trkpt lat="42.78892" lon="2.73995">
        <ele>25</ele>
        <time>2021-03-28T09:35:49Z</time>
      </trkpt>
      <trkpt lat="42.78891" lon="2.74006">
        <ele>209.1</ele>
        <time>2021-03-28T09:35:51Z</time>
      </trkpt>
      <trkpt lat="42.78891" lon="2.74006">
        <ele>25</ele>
        <time>2021-03-28T09:35:51Z</time>
      </trkpt>
      <trkpt lat="42.7889" lon="2.74018">
        <ele>209</ele>
        <time>2021-03-28T09:35:53Z</time>
      </trkpt>
      <trkpt lat="42.7889" lon="2.74018">
        <ele>25</ele>
        <time>2021-03-28T09:35:53Z</time>
      </trkpt>
      <trkpt lat="42.78889" lon="2.74029">
        <ele>209</ele>
        <time>2021-03-28T09:35:54Z</time>
      </trkpt>
      <trkpt lat="42.78889" lon="2.74029">
        <ele>25</ele>
        <time>2021-03-28T09:35:54Z</time>
      </trkpt>
      <trkpt lat="42.78889" lon="2.74041">
        <ele>208.5</ele>
        <time>2021-03-28T09:35:56Z</time>
      </trkpt>
      <trkpt lat="42.78889" lon="2.74041">
        <ele>25</ele>
        <time>2021-03-28T09:35:56Z</time>
      </trkpt>
      <trkpt lat="42.78889" lon="2.74053">
        <ele>208.1</ele>
        <time>2021-03-28T09:35:58Z</time>
      </trkpt>
      <trkpt lat="42.78889" lon="2.74053">
        <ele>25</ele>
        <time>2021-03-28T09:35:58Z</time>
      </trkpt>
      <trkpt lat="42.7889" lon="2.74066">
        <ele>208</ele>
        <time>2021-03-28T09:36:00Z</time>
      </trkpt>
      <trkpt lat="42.7889" lon="2.74066">
        <ele>25</ele>
        <time>2021-03-28T09:36:00Z</time>
      </trkpt>
      <trkpt lat="42.78892" lon="2.7408">
        <ele>208.1</ele>
        <time>2021-03-28T09:36:02Z</time>
      </trkpt>
      <trkpt lat="42.78892" lon="2.7408">
        <ele>25</ele>
        <time>2021-03-28T09:36:02Z</time>
      </trkpt>
      <trkpt lat="42.78894" lon="2.74094">
        <ele>207.7</ele>
        <time>2021-03-28T09:36:04Z</time>
      </trkpt>
      <trkpt lat="42.78894" lon="2.74094">
        <ele>25</ele>
        <time>2021-03-28T09:36:04Z</time>
      </trkpt>
      <trkpt lat="42.78898" lon="2.74111">
        <ele>206.7</ele>
        <time>2021-03-28T09:36:06Z</time>
      </trkpt>
      <trkpt lat="42.78898" lon="2.74111">
        <ele>25</ele>
        <time>2021-03-28T09:36:06Z</time>
      </trkpt>
      <trkpt lat="42.78902" lon="2.74131">
        <ele>204.1</ele>
        <time>2021-03-28T09:36:08Z</time>
      </trkpt>
      <trkpt lat="42.78902" lon="2.74131">
        <ele>25</ele>
        <time>2021-03-28T09:36:08Z</time>
      </trkpt>
      <trkpt lat="42.78905" lon="2.74149">
        <ele>201.5</ele>
        <time>2021-03-28T09:36:09Z</time>
      </trkpt>
      <trkpt lat="42.78905" lon="2.74149">
        <ele>25</ele>
        <time>2021-03-28T09:36:09Z</time>
      </trkpt>
      <trkpt lat="42.78905" lon="2.74169">
        <ele>198.9</ele>
        <time>2021-03-28T09:36:11Z</time>
      </trkpt>
      <trkpt lat="42.78905" lon="2.74169">
        <ele>25</ele>
        <time>2021-03-28T09:36:11Z</time>
      </trkpt>
      <trkpt lat="42.78903" lon="2.74186">
        <ele>197.7</ele>
        <time>2021-03-28T09:36:12Z</time>
      </trkpt>
      <trkpt lat="42.78903" lon="2.74186">
        <ele>25</ele>
        <time>2021-03-28T09:36:12Z</time>
      </trkpt>
      <trkpt lat="42.789" lon="2.74201">
        <ele>196.7</ele>
        <time>2021-03-28T09:36:13Z</time>
      </trkpt>
      <trkpt lat="42.789" lon="2.74201">
        <ele>25</ele>
        <time>2021-03-28T09:36:13Z</time>
      </trkpt>
      <trkpt lat="42.78894" lon="2.74218">
        <ele>195.5</ele>
        <time>2021-03-28T09:36:15Z</time>
      </trkpt>
      <trkpt lat="42.78894" lon="2.74218">
        <ele>25</ele>
        <time>2021-03-28T09:36:15Z</time>
      </trkpt>
      <trkpt lat="42.78886" lon="2.74237">
        <ele>195.2</ele>
        <time>2021-03-28T09:36:17Z</time>
      </trkpt>
      <trkpt lat="42.78886" lon="2.74237">
        <ele>25</ele>
        <time>2021-03-28T09:36:17Z</time>
      </trkpt>
      <trkpt lat="42.78877" lon="2.74256">
        <ele>194.6</ele>
        <time>2021-03-28T09:36:19Z</time>
      </trkpt>
      <trkpt lat="42.78877" lon="2.74256">
        <ele>25</ele>
        <time>2021-03-28T09:36:19Z</time>
      </trkpt>
      <trkpt lat="42.78869" lon="2.74273">
        <ele>193.7</ele>
        <time>2021-03-28T09:36:20Z</time>
      </trkpt>
      <trkpt lat="42.78869" lon="2.74273">
        <ele>25</ele>
        <time>2021-03-28T09:36:20Z</time>
      </trkpt>
      <trkpt lat="42.78862" lon="2.74288">
        <ele>192.7</ele>
        <time>2021-03-28T09:36:21Z</time>
      </trkpt>
      <trkpt lat="42.78862" lon="2.74288">
        <ele>25</ele>
        <time>2021-03-28T09:36:21Z</time>
      </trkpt>
      <trkpt lat="42.78853" lon="2.74305">
        <ele>192.7</ele>
        <time>2021-03-28T09:36:23Z</time>
      </trkpt>
      <trkpt lat="42.78853" lon="2.74305">
        <ele>25</ele>
        <time>2021-03-28T09:36:23Z</time>
      </trkpt>
      <trkpt lat="42.78844" lon="2.74324">
        <ele>192.1</ele>
        <time>2021-03-28T09:36:25Z</time>
      </trkpt>
      <trkpt lat="42.78844" lon="2.74324">
        <ele>25</ele>
        <time>2021-03-28T09:36:25Z</time>
      </trkpt>
      <trkpt lat="42.78833" lon="2.74342">
        <ele>190.9</ele>
        <time>2021-03-28T09:36:27Z</time>
      </trkpt>
      <trkpt lat="42.78833" lon="2.74342">
        <ele>25</ele>
        <time>2021-03-28T09:36:27Z</time>
      </trkpt>
      <trkpt lat="42.78822" lon="2.74361">
        <ele>190.2</ele>
        <time>2021-03-28T09:36:29Z</time>
      </trkpt>
      <trkpt lat="42.78822" lon="2.74361">
        <ele>25</ele>
        <time>2021-03-28T09:36:29Z</time>
      </trkpt>
      <trkpt lat="42.7881" lon="2.74378">
        <ele>188.2</ele>
        <time>2021-03-28T09:36:31Z</time>
      </trkpt>
      <trkpt lat="42.7881" lon="2.74378">
        <ele>25</ele>
        <time>2021-03-28T09:36:31Z</time>
      </trkpt>
      <trkpt lat="42.78795" lon="2.7439">
        <ele>186.6</ele>
        <time>2021-03-28T09:36:33Z</time>
      </trkpt>
      <trkpt lat="42.78795" lon="2.7439">
        <ele>25</ele>
        <time>2021-03-28T09:36:33Z</time>
      </trkpt>
      <trkpt lat="42.78779" lon="2.74399">
        <ele>185.3</ele>
        <time>2021-03-28T09:36:35Z</time>
      </trkpt>
      <trkpt lat="42.78779" lon="2.74399">
        <ele>25</ele>
        <time>2021-03-28T09:36:35Z</time>
      </trkpt>
      <trkpt lat="42.78766" lon="2.74405">
        <ele>184.2</ele>
        <time>2021-03-28T09:36:36Z</time>
      </trkpt>
      <trkpt lat="42.78766" lon="2.74405">
        <ele>25</ele>
        <time>2021-03-28T09:36:36Z</time>
      </trkpt>
      <trkpt lat="42.78754" lon="2.74408">
        <ele>183.2</ele>
        <time>2021-03-28T09:36:37Z</time>
      </trkpt>
      <trkpt lat="42.78754" lon="2.74408">
        <ele>25</ele>
        <time>2021-03-28T09:36:37Z</time>
      </trkpt>
      <trkpt lat="42.78742" lon="2.74411">
        <ele>182.6</ele>
        <time>2021-03-28T09:36:38Z</time>
      </trkpt>
      <trkpt lat="42.78742" lon="2.74411">
        <ele>25</ele>
        <time>2021-03-28T09:36:38Z</time>
      </trkpt>
      <trkpt lat="42.78728" lon="2.74412">
        <ele>181.7</ele>
        <time>2021-03-28T09:36:40Z</time>
      </trkpt>
      <trkpt lat="42.78728" lon="2.74412">
        <ele>25</ele>
        <time>2021-03-28T09:36:40Z</time>
      </trkpt>
      <trkpt lat="42.78716" lon="2.74413">
        <ele>181.2</ele>
        <time>2021-03-28T09:36:41Z</time>
      </trkpt>
      <trkpt lat="42.78716" lon="2.74413">
        <ele>25</ele>
        <time>2021-03-28T09:36:41Z</time>
      </trkpt>
      <trkpt lat="42.78702" lon="2.74415">
        <ele>181.1</ele>
        <time>2021-03-28T09:36:43Z</time>
      </trkpt>
      <trkpt lat="42.78702" lon="2.74415">
        <ele>25</ele>
        <time>2021-03-28T09:36:43Z</time>
      </trkpt>
      <trkpt lat="42.78689" lon="2.74418">
        <ele>181</ele>
        <time>2021-03-28T09:36:44Z</time>
      </trkpt>
      <trkpt lat="42.78689" lon="2.74418">
        <ele>25</ele>
        <time>2021-03-28T09:36:44Z</time>
      </trkpt>
      <trkpt lat="42.78678" lon="2.74422">
        <ele>180.7</ele>
        <time>2021-03-28T09:36:45Z</time>
      </trkpt>
      <trkpt lat="42.78678" lon="2.74422">
        <ele>25</ele>
        <time>2021-03-28T09:36:45Z</time>
      </trkpt>
      <trkpt lat="42.78664" lon="2.74427">
        <ele>180.2</ele>
        <time>2021-03-28T09:36:47Z</time>
      </trkpt>
      <trkpt lat="42.78664" lon="2.74427">
        <ele>25</ele>
        <time>2021-03-28T09:36:47Z</time>
      </trkpt>
      <trkpt lat="42.7865" lon="2.74434">
        <ele>178.8</ele>
        <time>2021-03-28T09:36:49Z</time>
      </trkpt>
      <trkpt lat="42.7865" lon="2.74434">
        <ele>25</ele>
        <time>2021-03-28T09:36:49Z</time>
      </trkpt>
      <trkpt lat="42.78637" lon="2.7444">
        <ele>177.7</ele>
        <time>2021-03-28T09:36:50Z</time>
      </trkpt>
      <trkpt lat="42.78637" lon="2.7444">
        <ele>25</ele>
        <time>2021-03-28T09:36:50Z</time>
      </trkpt>
      <trkpt lat="42.78624" lon="2.74449">
        <ele>177.5</ele>
        <time>2021-03-28T09:36:52Z</time>
      </trkpt>
      <trkpt lat="42.78624" lon="2.74449">
        <ele>25</ele>
        <time>2021-03-28T09:36:52Z</time>
      </trkpt>
      <trkpt lat="42.78613" lon="2.74458">
        <ele>177.7</ele>
        <time>2021-03-28T09:36:53Z</time>
      </trkpt>
      <trkpt lat="42.78613" lon="2.74458">
        <ele>25</ele>
        <time>2021-03-28T09:36:53Z</time>
      </trkpt>
      <trkpt lat="42.78602" lon="2.7447">
        <ele>177.4</ele>
        <time>2021-03-28T09:36:55Z</time>
      </trkpt>
      <trkpt lat="42.78602" lon="2.7447">
        <ele>25</ele>
        <time>2021-03-28T09:36:55Z</time>
      </trkpt>
      <trkpt lat="42.78592" lon="2.74484">
        <ele>176.1</ele>
        <time>2021-03-28T09:36:57Z</time>
      </trkpt>
      <trkpt lat="42.78592" lon="2.74484">
        <ele>25</ele>
        <time>2021-03-28T09:36:57Z</time>
      </trkpt>
      <trkpt lat="42.78582" lon="2.74499">
        <ele>175.2</ele>
        <time>2021-03-28T09:36:59Z</time>
      </trkpt>
      <trkpt lat="42.78582" lon="2.74499">
        <ele>25</ele>
        <time>2021-03-28T09:36:59Z</time>
      </trkpt>
      <trkpt lat="42.78575" lon="2.74516">
        <ele>175.3</ele>
        <time>2021-03-28T09:37:01Z</time>
      </trkpt>
      <trkpt lat="42.78575" lon="2.74516">
        <ele>25</ele>
        <time>2021-03-28T09:37:01Z</time>
      </trkpt>
      <trkpt lat="42.7857" lon="2.74531">
        <ele>175.8</ele>
        <time>2021-03-28T09:37:02Z</time>
      </trkpt>
      <trkpt lat="42.7857" lon="2.74531">
        <ele>25</ele>
        <time>2021-03-28T09:37:02Z</time>
      </trkpt>
      <trkpt lat="42.78569" lon="2.74544">
        <ele>175.5</ele>
        <time>2021-03-28T09:37:03Z</time>
      </trkpt>
      <trkpt lat="42.78569" lon="2.74544">
        <ele>25</ele>
        <time>2021-03-28T09:37:03Z</time>
      </trkpt>
      <trkpt lat="42.78569" lon="2.74556">
        <ele>175.6</ele>
        <time>2021-03-28T09:37:04Z</time>
      </trkpt>
      <trkpt lat="42.78569" lon="2.74556">
        <ele>25</ele>
        <time>2021-03-28T09:37:04Z</time>
      </trkpt>
      <trkpt lat="42.7857" lon="2.74567">
        <ele>173.4</ele>
        <time>2021-03-28T09:37:05Z</time>
      </trkpt>
      <trkpt lat="42.7857" lon="2.74567">
        <ele>25</ele>
        <time>2021-03-28T09:37:05Z</time>
      </trkpt>
      <trkpt lat="42.78574" lon="2.74581">
        <ele>171.9</ele>
        <time>2021-03-28T09:37:07Z</time>
      </trkpt>
      <trkpt lat="42.78574" lon="2.74581">
        <ele>25</ele>
        <time>2021-03-28T09:37:07Z</time>
      </trkpt>
      <trkpt lat="42.78578" lon="2.74593">
        <ele>171</ele>
        <time>2021-03-28T09:37:08Z</time>
      </trkpt>
      <trkpt lat="42.78578" lon="2.74593">
        <ele>25</ele>
        <time>2021-03-28T09:37:08Z</time>
      </trkpt>
      <trkpt lat="42.78583" lon="2.74608">
        <ele>169.6</ele>
        <time>2021-03-28T09:37:10Z</time>
      </trkpt>
      <trkpt lat="42.78583" lon="2.74608">
        <ele>25</ele>
        <time>2021-03-28T09:37:10Z</time>
      </trkpt>
      <trkpt lat="42.78587" lon="2.74621">
        <ele>168</ele>
        <time>2021-03-28T09:37:11Z</time>
      </trkpt>
      <trkpt lat="42.78587" lon="2.74621">
        <ele>25</ele>
        <time>2021-03-28T09:37:11Z</time>
      </trkpt>
      <trkpt lat="42.78591" lon="2.74638">
        <ele>165.8</ele>
        <time>2021-03-28T09:37:13Z</time>
      </trkpt>
      <trkpt lat="42.78591" lon="2.74638">
        <ele>25</ele>
        <time>2021-03-28T09:37:13Z</time>
      </trkpt>
      <trkpt lat="42.78595" lon="2.74657">
        <ele>163.4</ele>
        <time>2021-03-28T09:37:15Z</time>
      </trkpt>
      <trkpt lat="42.78595" lon="2.74657">
        <ele>25</ele>
        <time>2021-03-28T09:37:15Z</time>
      </trkpt>
      <trkpt lat="42.78597" lon="2.74678">
        <ele>161.4</ele>
        <time>2021-03-28T09:37:17Z</time>
      </trkpt>
      <trkpt lat="42.78597" lon="2.74678">
        <ele>25</ele>
        <time>2021-03-28T09:37:17Z</time>
      </trkpt>
      <trkpt lat="42.78598" lon="2.74696">
        <ele>159.9</ele>
        <time>2021-03-28T09:37:18Z</time>
      </trkpt>
      <trkpt lat="42.78598" lon="2.74696">
        <ele>25</ele>
        <time>2021-03-28T09:37:18Z</time>
      </trkpt>
      <trkpt lat="42.78596" lon="2.74715">
        <ele>157.6</ele>
        <time>2021-03-28T09:37:20Z</time>
      </trkpt>
      <trkpt lat="42.78596" lon="2.74715">
        <ele>25</ele>
        <time>2021-03-28T09:37:20Z</time>
      </trkpt>
      <trkpt lat="42.78591" lon="2.74734">
        <ele>158</ele>
        <time>2021-03-28T09:37:22Z</time>
      </trkpt>
      <trkpt lat="42.78591" lon="2.74734">
        <ele>25</ele>
        <time>2021-03-28T09:37:22Z</time>
      </trkpt>
      <trkpt lat="42.78588" lon="2.74751">
        <ele>160.9</ele>
        <time>2021-03-28T09:37:23Z</time>
      </trkpt>
      <trkpt lat="42.78588" lon="2.74751">
        <ele>25</ele>
        <time>2021-03-28T09:37:23Z</time>
      </trkpt>
      <trkpt lat="42.78585" lon="2.74767">
        <ele>162.7</ele>
        <time>2021-03-28T09:37:24Z</time>
      </trkpt>
      <trkpt lat="42.78585" lon="2.74767">
        <ele>25</ele>
        <time>2021-03-28T09:37:24Z</time>
      </trkpt>
      <trkpt lat="42.78584" lon="2.74781">
        <ele>164.4</ele>
        <time>2021-03-28T09:37:25Z</time>
      </trkpt>
      <trkpt lat="42.78584" lon="2.74781">
        <ele>25</ele>
        <time>2021-03-28T09:37:25Z</time>
      </trkpt>
      <trkpt lat="42.78585" lon="2.74798">
        <ele>164.1</ele>
        <time>2021-03-28T09:37:27Z</time>
      </trkpt>
      <trkpt lat="42.78585" lon="2.74798">
        <ele>25</ele>
        <time>2021-03-28T09:37:27Z</time>
      </trkpt>
      <trkpt lat="42.78586" lon="2.74814">
        <ele>162.6</ele>
        <time>2021-03-28T09:37:28Z</time>
      </trkpt>
      <trkpt lat="42.78586" lon="2.74814">
        <ele>25</ele>
        <time>2021-03-28T09:37:28Z</time>
      </trkpt>
      <trkpt lat="42.78587" lon="2.74828">
        <ele>159.8</ele>
        <time>2021-03-28T09:37:29Z</time>
      </trkpt>
      <trkpt lat="42.78587" lon="2.74828">
        <ele>25</ele>
        <time>2021-03-28T09:37:29Z</time>
      </trkpt>
      <trkpt lat="42.78585" lon="2.74846">
        <ele>157.9</ele>
        <time>2021-03-28T09:37:31Z</time>
      </trkpt>
      <trkpt lat="42.78585" lon="2.74846">
        <ele>25</ele>
        <time>2021-03-28T09:37:31Z</time>
      </trkpt>
      <trkpt lat="42.78585" lon="2.74865">
        <ele>158.1</ele>
        <time>2021-03-28T09:37:33Z</time>
      </trkpt>
      <trkpt lat="42.78585" lon="2.74865">
        <ele>25</ele>
        <time>2021-03-28T09:37:33Z</time>
      </trkpt>
      <trkpt lat="42.78586" lon="2.74881">
        <ele>159.7</ele>
        <time>2021-03-28T09:37:34Z</time>
      </trkpt>
      <trkpt lat="42.78586" lon="2.74881">
        <ele>25</ele>
        <time>2021-03-28T09:37:34Z</time>
      </trkpt>
      <trkpt lat="42.78587" lon="2.749">
        <ele>158.8</ele>
        <time>2021-03-28T09:37:36Z</time>
      </trkpt>
      <trkpt lat="42.78587" lon="2.749">
        <ele>25</ele>
        <time>2021-03-28T09:37:36Z</time>
      </trkpt>
      <trkpt lat="42.78588" lon="2.74917">
        <ele>156.3</ele>
        <time>2021-03-28T09:37:37Z</time>
      </trkpt>
      <trkpt lat="42.78588" lon="2.74917">
        <ele>25</ele>
        <time>2021-03-28T09:37:37Z</time>
      </trkpt>
      <trkpt lat="42.78589" lon="2.74936">
        <ele>155.2</ele>
        <time>2021-03-28T09:37:39Z</time>
      </trkpt>
      <trkpt lat="42.78589" lon="2.74936">
        <ele>25</ele>
        <time>2021-03-28T09:37:39Z</time>
      </trkpt>
      <trkpt lat="42.78591" lon="2.74956">
        <ele>155.6</ele>
        <time>2021-03-28T09:37:41Z</time>
      </trkpt>
      <trkpt lat="42.78591" lon="2.74956">
        <ele>25</ele>
        <time>2021-03-28T09:37:41Z</time>
      </trkpt>
      <trkpt lat="42.78594" lon="2.74977">
        <ele>156.3</ele>
        <time>2021-03-28T09:37:43Z</time>
      </trkpt>
      <trkpt lat="42.78594" lon="2.74977">
        <ele>25</ele>
        <time>2021-03-28T09:37:43Z</time>
      </trkpt>
      <trkpt lat="42.78597" lon="2.74998">
        <ele>153.9</ele>
        <time>2021-03-28T09:37:45Z</time>
      </trkpt>
      <trkpt lat="42.78597" lon="2.74998">
        <ele>25</ele>
        <time>2021-03-28T09:37:45Z</time>
      </trkpt>
      <trkpt lat="42.78599" lon="2.7502">
        <ele>151.5</ele>
        <time>2021-03-28T09:37:47Z</time>
      </trkpt>
      <trkpt lat="42.78599" lon="2.7502">
        <ele>25</ele>
        <time>2021-03-28T09:37:47Z</time>
      </trkpt>
      <trkpt lat="42.78598" lon="2.75042">
        <ele>149.1</ele>
        <time>2021-03-28T09:37:49Z</time>
      </trkpt>
      <trkpt lat="42.78598" lon="2.75042">
        <ele>25</ele>
        <time>2021-03-28T09:37:49Z</time>
      </trkpt>
      <trkpt lat="42.78595" lon="2.7506">
        <ele>147.3</ele>
        <time>2021-03-28T09:37:50Z</time>
      </trkpt>
      <trkpt lat="42.78595" lon="2.7506">
        <ele>25</ele>
        <time>2021-03-28T09:37:50Z</time>
      </trkpt>
      <trkpt lat="42.78591" lon="2.75076">
        <ele>146.2</ele>
        <time>2021-03-28T09:37:51Z</time>
      </trkpt>
      <trkpt lat="42.78591" lon="2.75076">
        <ele>25</ele>
        <time>2021-03-28T09:37:51Z</time>
      </trkpt>
      <trkpt lat="42.78585" lon="2.75093">
        <ele>146.2</ele>
        <time>2021-03-28T09:37:53Z</time>
      </trkpt>
      <trkpt lat="42.78585" lon="2.75093">
        <ele>146.2</ele>
        <time>2021-03-28T09:37:53Z</time>
      </trkpt>
      <trkpt lat="42.78579" lon="2.75112">
        <ele>147.6</ele>
        <time>2021-03-28T09:37:55Z</time>
      </trkpt>
      <trkpt lat="42.78579" lon="2.75112">
        <ele>147.6</ele>
        <time>2021-03-28T09:37:55Z</time>
      </trkpt>
      <trkpt lat="42.78577" lon="2.75133">
        <ele>147.8</ele>
        <time>2021-03-28T09:37:57Z</time>
      </trkpt>
      <trkpt lat="42.78577" lon="2.75133">
        <ele>147.8</ele>
        <time>2021-03-28T09:37:57Z</time>
      </trkpt>
      <trkpt lat="42.7858" lon="2.75153">
        <ele>148.6</ele>
        <time>2021-03-28T09:37:59Z</time>
      </trkpt>
      <trkpt lat="42.7858" lon="2.75153">
        <ele>148.6</ele>
        <time>2021-03-28T09:37:59Z</time>
      </trkpt>
      <trkpt lat="42.78584" lon="2.75168">
        <ele>148.9</ele>
        <time>2021-03-28T09:38:00Z</time>
      </trkpt>
      <trkpt lat="42.78584" lon="2.75168">
        <ele>148.9</ele>
        <time>2021-03-28T09:38:00Z</time>
      </trkpt>
      <trkpt lat="42.78594" lon="2.75178">
        <ele>147.8</ele>
        <time>2021-03-28T09:38:02Z</time>
      </trkpt>
      <trkpt lat="42.78594" lon="2.75178">
        <ele>147.8</ele>
        <time>2021-03-28T09:38:02Z</time>
      </trkpt>
      <trkpt lat="42.78606" lon="2.75183">
        <ele>147.1</ele>
        <time>2021-03-28T09:38:04Z</time>
      </trkpt>
      <trkpt lat="42.78606" lon="2.75183">
        <ele>147.1</ele>
        <time>2021-03-28T09:38:04Z</time>
      </trkpt>
      <trkpt lat="42.78617" lon="2.75185">
        <ele>146</ele>
        <time>2021-03-28T09:38:05Z</time>
      </trkpt>
      <trkpt lat="42.78617" lon="2.75185">
        <ele>146</ele>
        <time>2021-03-28T09:38:05Z</time>
      </trkpt>
      <trkpt lat="42.78631" lon="2.75182">
        <ele>144.8</ele>
        <time>2021-03-28T09:38:07Z</time>
      </trkpt>
      <trkpt lat="42.78631" lon="2.75182">
        <ele>144.8</ele>
        <time>2021-03-28T09:38:07Z</time>
      </trkpt>
      <trkpt lat="42.78645" lon="2.75175">
        <ele>143.5</ele>
        <time>2021-03-28T09:38:09Z</time>
      </trkpt>
      <trkpt lat="42.78645" lon="2.75175">
        <ele>143.5</ele>
        <time>2021-03-28T09:38:09Z</time>
      </trkpt>
      <trkpt lat="42.78657" lon="2.75168">
        <ele>142.4</ele>
        <time>2021-03-28T09:38:10Z</time>
      </trkpt>
      <trkpt lat="42.78657" lon="2.75168">
        <ele>142.4</ele>
        <time>2021-03-28T09:38:10Z</time>
      </trkpt>
      <trkpt lat="42.78668" lon="2.75161">
        <ele>140.8</ele>
        <time>2021-03-28T09:38:11Z</time>
      </trkpt>
      <trkpt lat="42.78668" lon="2.75161">
        <ele>140.8</ele>
        <time>2021-03-28T09:38:11Z</time>
      </trkpt>
      <trkpt lat="42.78682" lon="2.75153">
        <ele>138.8</ele>
        <time>2021-03-28T09:38:13Z</time>
      </trkpt>
      <trkpt lat="42.78682" lon="2.75153">
        <ele>138.8</ele>
        <time>2021-03-28T09:38:13Z</time>
      </trkpt>
      <trkpt lat="42.78694" lon="2.75147">
        <ele>137.3</ele>
        <time>2021-03-28T09:38:14Z</time>
      </trkpt>
      <trkpt lat="42.78694" lon="2.75147">
        <ele>137.3</ele>
        <time>2021-03-28T09:38:14Z</time>
      </trkpt>
      <trkpt lat="42.78707" lon="2.75144">
        <ele>137.5</ele>
        <time>2021-03-28T09:38:16Z</time>
      </trkpt>
      <trkpt lat="42.78707" lon="2.75144">
        <ele>137.5</ele>
        <time>2021-03-28T09:38:16Z</time>
      </trkpt>
      <trkpt lat="42.78718" lon="2.75144">
        <ele>137.5</ele>
        <time>2021-03-28T09:38:17Z</time>
      </trkpt>
      <trkpt lat="42.78718" lon="2.75144">
        <ele>137.5</ele>
        <time>2021-03-28T09:38:17Z</time>
      </trkpt>
      <trkpt lat="42.7873" lon="2.7515">
        <ele>136.1</ele>
        <time>2021-03-28T09:38:19Z</time>
      </trkpt>
      <trkpt lat="42.7873" lon="2.7515">
        <ele>136.1</ele>
        <time>2021-03-28T09:38:19Z</time>
      </trkpt>
      <trkpt lat="42.78739" lon="2.75162">
        <ele>133.7</ele>
        <time>2021-03-28T09:38:21Z</time>
      </trkpt>
      <trkpt lat="42.78739" lon="2.75162">
        <ele>133.7</ele>
        <time>2021-03-28T09:38:21Z</time>
      </trkpt>
      <trkpt lat="42.78745" lon="2.75174">
        <ele>132.7</ele>
        <time>2021-03-28T09:38:22Z</time>
      </trkpt>
      <trkpt lat="42.78745" lon="2.75174">
        <ele>132.7</ele>
        <time>2021-03-28T09:38:22Z</time>
      </trkpt>
      <trkpt lat="42.78747" lon="2.75185">
        <ele>133.1</ele>
        <time>2021-03-28T09:38:23Z</time>
      </trkpt>
      <trkpt lat="42.78747" lon="2.75185">
        <ele>133.1</ele>
        <time>2021-03-28T09:38:23Z</time>
      </trkpt>
      <trkpt lat="42.78745" lon="2.75199">
        <ele>133.1</ele>
        <time>2021-03-28T09:38:25Z</time>
      </trkpt>
      <trkpt lat="42.78745" lon="2.75199">
        <ele>133.1</ele>
        <time>2021-03-28T09:38:25Z</time>
      </trkpt>
      <trkpt lat="42.78739" lon="2.75213">
        <ele>132</ele>
        <time>2021-03-28T09:38:27Z</time>
      </trkpt>
      <trkpt lat="42.78739" lon="2.75213">
        <ele>132</ele>
        <time>2021-03-28T09:38:27Z</time>
      </trkpt>
      <trkpt lat="42.78733" lon="2.75226">
        <ele>131</ele>
        <time>2021-03-28T09:38:28Z</time>
      </trkpt>
      <trkpt lat="42.78733" lon="2.75226">
        <ele>131</ele>
        <time>2021-03-28T09:38:28Z</time>
      </trkpt>
      <trkpt lat="42.78724" lon="2.75241">
        <ele>130.5</ele>
        <time>2021-03-28T09:38:30Z</time>
      </trkpt>
      <trkpt lat="42.78724" lon="2.75241">
        <ele>130.5</ele>
        <time>2021-03-28T09:38:30Z</time>
      </trkpt>
      <trkpt lat="42.78715" lon="2.75258">
        <ele>131.2</ele>
        <time>2021-03-28T09:38:32Z</time>
      </trkpt>
      <trkpt lat="42.78715" lon="2.75258">
        <ele>131.2</ele>
        <time>2021-03-28T09:38:32Z</time>
      </trkpt>
      <trkpt lat="42.78707" lon="2.75273">
        <ele>131.7</ele>
        <time>2021-03-28T09:38:33Z</time>
      </trkpt>
      <trkpt lat="42.78707" lon="2.75273">
        <ele>131.7</ele>
        <time>2021-03-28T09:38:33Z</time>
      </trkpt>
      <trkpt lat="42.78698" lon="2.7529">
        <ele>130.5</ele>
        <time>2021-03-28T09:38:35Z</time>
      </trkpt>
      <trkpt lat="42.78698" lon="2.7529">
        <ele>130.5</ele>
        <time>2021-03-28T09:38:35Z</time>
      </trkpt>
      <trkpt lat="42.78688" lon="2.75309">
        <ele>129.5</ele>
        <time>2021-03-28T09:38:37Z</time>
      </trkpt>
      <trkpt lat="42.78688" lon="2.75309">
        <ele>129.5</ele>
        <time>2021-03-28T09:38:37Z</time>
      </trkpt>
      <trkpt lat="42.78678" lon="2.75328">
        <ele>127.8</ele>
        <time>2021-03-28T09:38:39Z</time>
      </trkpt>
      <trkpt lat="42.78678" lon="2.75328">
        <ele>127.8</ele>
        <time>2021-03-28T09:38:39Z</time>
      </trkpt>
      <trkpt lat="42.78667" lon="2.75347">
        <ele>127.4</ele>
        <time>2021-03-28T09:38:41Z</time>
      </trkpt>
      <trkpt lat="42.78667" lon="2.75347">
        <ele>127.4</ele>
        <time>2021-03-28T09:38:41Z</time>
      </trkpt>
      <trkpt lat="42.78655" lon="2.75366">
        <ele>127.2</ele>
        <time>2021-03-28T09:38:43Z</time>
      </trkpt>
      <trkpt lat="42.78655" lon="2.75366">
        <ele>127.2</ele>
        <time>2021-03-28T09:38:43Z</time>
      </trkpt>
      <trkpt lat="42.78646" lon="2.75382">
        <ele>125.7</ele>
        <time>2021-03-28T09:38:44Z</time>
      </trkpt>
      <trkpt lat="42.78646" lon="2.75382">
        <ele>125.7</ele>
        <time>2021-03-28T09:38:44Z</time>
      </trkpt>
      <trkpt lat="42.78634" lon="2.75396">
        <ele>124.3</ele>
        <time>2021-03-28T09:38:46Z</time>
      </trkpt>
      <trkpt lat="42.78634" lon="2.75396">
        <ele>124.3</ele>
        <time>2021-03-28T09:38:46Z</time>
      </trkpt>
      <trkpt lat="42.78622" lon="2.75406">
        <ele>123.2</ele>
        <time>2021-03-28T09:38:47Z</time>
      </trkpt>
      <trkpt lat="42.78622" lon="2.75406">
        <ele>123.2</ele>
        <time>2021-03-28T09:38:47Z</time>
      </trkpt>
      <trkpt lat="42.78609" lon="2.75411">
        <ele>120.5</ele>
        <time>2021-03-28T09:38:49Z</time>
      </trkpt>
      <trkpt lat="42.78609" lon="2.75411">
        <ele>120.5</ele>
        <time>2021-03-28T09:38:49Z</time>
      </trkpt>
      <trkpt lat="42.78596" lon="2.75411">
        <ele>119.6</ele>
        <time>2021-03-28T09:38:51Z</time>
      </trkpt>
      <trkpt lat="42.78596" lon="2.75411">
        <ele>119.6</ele>
        <time>2021-03-28T09:38:51Z</time>
      </trkpt>
      <trkpt lat="42.78585" lon="2.75408">
        <ele>118.8</ele>
        <time>2021-03-28T09:38:52Z</time>
      </trkpt>
      <trkpt lat="42.78585" lon="2.75408">
        <ele>118.8</ele>
        <time>2021-03-28T09:38:52Z</time>
      </trkpt>
      <trkpt lat="42.78575" lon="2.75403">
        <ele>119.4</ele>
        <time>2021-03-28T09:38:53Z</time>
      </trkpt>
      <trkpt lat="42.78575" lon="2.75403">
        <ele>119.4</ele>
        <time>2021-03-28T09:38:53Z</time>
      </trkpt>
      <trkpt lat="42.78565" lon="2.75393">
        <ele>118.7</ele>
        <time>2021-03-28T09:38:55Z</time>
      </trkpt>
      <trkpt lat="42.78565" lon="2.75393">
        <ele>118.7</ele>
        <time>2021-03-28T09:38:55Z</time>
      </trkpt>
      <trkpt lat="42.78554" lon="2.7538">
        <ele>117.5</ele>
        <time>2021-03-28T09:38:57Z</time>
      </trkpt>
      <trkpt lat="42.78554" lon="2.7538">
        <ele>117.5</ele>
        <time>2021-03-28T09:38:57Z</time>
      </trkpt>
      <trkpt lat="42.78542" lon="2.75365">
        <ele>117.3</ele>
        <time>2021-03-28T09:38:59Z</time>
      </trkpt>
      <trkpt lat="42.78542" lon="2.75365">
        <ele>117.3</ele>
        <time>2021-03-28T09:38:59Z</time>
      </trkpt>
      <trkpt lat="42.78529" lon="2.75355">
        <ele>117</ele>
        <time>2021-03-28T09:39:01Z</time>
      </trkpt>
      <trkpt lat="42.78529" lon="2.75355">
        <ele>117</ele>
        <time>2021-03-28T09:39:01Z</time>
      </trkpt>
      <trkpt lat="42.78514" lon="2.75349">
        <ele>117.6</ele>
        <time>2021-03-28T09:39:03Z</time>
      </trkpt>
      <trkpt lat="42.78514" lon="2.75349">
        <ele>117.6</ele>
        <time>2021-03-28T09:39:03Z</time>
      </trkpt>
      <trkpt lat="42.78497" lon="2.75345">
        <ele>117.5</ele>
        <time>2021-03-28T09:39:05Z</time>
      </trkpt>
      <trkpt lat="42.78497" lon="2.75345">
        <ele>117.5</ele>
        <time>2021-03-28T09:39:05Z</time>
      </trkpt>
      <trkpt lat="42.78481" lon="2.7534">
        <ele>113.5</ele>
        <time>2021-03-28T09:39:07Z</time>
      </trkpt>
      <trkpt lat="42.78481" lon="2.7534">
        <ele>113.5</ele>
        <time>2021-03-28T09:39:07Z</time>
      </trkpt>
      <trkpt lat="42.78464" lon="2.75336">
        <ele>111.3</ele>
        <time>2021-03-28T09:39:09Z</time>
      </trkpt>
      <trkpt lat="42.78464" lon="2.75336">
        <ele>111.3</ele>
        <time>2021-03-28T09:39:09Z</time>
      </trkpt>
      <trkpt lat="42.78448" lon="2.75338">
        <ele>112.9</ele>
        <time>2021-03-28T09:39:11Z</time>
      </trkpt>
      <trkpt lat="42.78448" lon="2.75338">
        <ele>112.9</ele>
        <time>2021-03-28T09:39:11Z</time>
      </trkpt>
      <trkpt lat="42.78436" lon="2.75343">
        <ele>112.8</ele>
        <time>2021-03-28T09:39:12Z</time>
      </trkpt>
      <trkpt lat="42.78436" lon="2.75343">
        <ele>112.8</ele>
        <time>2021-03-28T09:39:12Z</time>
      </trkpt>
      <trkpt lat="42.78427" lon="2.7535">
        <ele>112.2</ele>
        <time>2021-03-28T09:39:13Z</time>
      </trkpt>
      <trkpt lat="42.78427" lon="2.7535">
        <ele>112.2</ele>
        <time>2021-03-28T09:39:13Z</time>
      </trkpt>
      <trkpt lat="42.78418" lon="2.75362">
        <ele>111.3</ele>
        <time>2021-03-28T09:39:15Z</time>
      </trkpt>
      <trkpt lat="42.78418" lon="2.75362">
        <ele>111.3</ele>
        <time>2021-03-28T09:39:15Z</time>
      </trkpt>
      <trkpt lat="42.78406" lon="2.75376">
        <ele>109</ele>
        <time>2021-03-28T09:39:17Z</time>
      </trkpt>
      <trkpt lat="42.78406" lon="2.75376">
        <ele>109</ele>
        <time>2021-03-28T09:39:17Z</time>
      </trkpt>
      <trkpt lat="42.78394" lon="2.75391">
        <ele>106.9</ele>
        <time>2021-03-28T09:39:19Z</time>
      </trkpt>
      <trkpt lat="42.78394" lon="2.75391">
        <ele>106.9</ele>
        <time>2021-03-28T09:39:19Z</time>
      </trkpt>
      <trkpt lat="42.78384" lon="2.75404">
        <ele>106</ele>
        <time>2021-03-28T09:39:20Z</time>
      </trkpt>
      <trkpt lat="42.78384" lon="2.75404">
        <ele>106</ele>
        <time>2021-03-28T09:39:20Z</time>
      </trkpt>
      <trkpt lat="42.78375" lon="2.75417">
        <ele>105.7</ele>
        <time>2021-03-28T09:39:21Z</time>
      </trkpt>
      <trkpt lat="42.78375" lon="2.75417">
        <ele>105.7</ele>
        <time>2021-03-28T09:39:21Z</time>
      </trkpt>
      <trkpt lat="42.78368" lon="2.75434">
        <ele>106.9</ele>
        <time>2021-03-28T09:39:23Z</time>
      </trkpt>
      <trkpt lat="42.78368" lon="2.75434">
        <ele>106.9</ele>
        <time>2021-03-28T09:39:23Z</time>
      </trkpt>
      <trkpt lat="42.78361" lon="2.75453">
        <ele>106.2</ele>
        <time>2021-03-28T09:39:25Z</time>
      </trkpt>
      <trkpt lat="42.78361" lon="2.75453">
        <ele>106.2</ele>
        <time>2021-03-28T09:39:25Z</time>
      </trkpt>
      <trkpt lat="42.78354" lon="2.75469">
        <ele>104.7</ele>
        <time>2021-03-28T09:39:26Z</time>
      </trkpt>
      <trkpt lat="42.78354" lon="2.75469">
        <ele>104.7</ele>
        <time>2021-03-28T09:39:26Z</time>
      </trkpt>
      <trkpt lat="42.78345" lon="2.75486">
        <ele>102.4</ele>
        <time>2021-03-28T09:39:28Z</time>
      </trkpt>
      <trkpt lat="42.78345" lon="2.75486">
        <ele>102.4</ele>
        <time>2021-03-28T09:39:28Z</time>
      </trkpt>
      <trkpt lat="42.78337" lon="2.75501">
        <ele>100.8</ele>
        <time>2021-03-28T09:39:29Z</time>
      </trkpt>
      <trkpt lat="42.78337" lon="2.75501">
        <ele>100.8</ele>
        <time>2021-03-28T09:39:29Z</time>
      </trkpt>
      <trkpt lat="42.78327" lon="2.75516">
        <ele>100.1</ele>
        <time>2021-03-28T09:39:31Z</time>
      </trkpt>
      <trkpt lat="42.78327" lon="2.75516">
        <ele>100.1</ele>
        <time>2021-03-28T09:39:31Z</time>
      </trkpt>
      <trkpt lat="42.78318" lon="2.7553">
        <ele>99.5</ele>
        <time>2021-03-28T09:39:32Z</time>
      </trkpt>
      <trkpt lat="42.78318" lon="2.7553">
        <ele>99.5</ele>
        <time>2021-03-28T09:39:32Z</time>
      </trkpt>
      <trkpt lat="42.78309" lon="2.75547">
        <ele>99</ele>
        <time>2021-03-28T09:39:34Z</time>
      </trkpt>
      <trkpt lat="42.78309" lon="2.75547">
        <ele>99</ele>
        <time>2021-03-28T09:39:34Z</time>
      </trkpt>
      <trkpt lat="42.78302" lon="2.75561">
        <ele>99.3</ele>
        <time>2021-03-28T09:39:35Z</time>
      </trkpt>
      <trkpt lat="42.78302" lon="2.75561">
        <ele>99.3</ele>
        <time>2021-03-28T09:39:35Z</time>
      </trkpt>
      <trkpt lat="42.78293" lon="2.75577">
        <ele>99.3</ele>
        <time>2021-03-28T09:39:37Z</time>
      </trkpt>
      <trkpt lat="42.78293" lon="2.75577">
        <ele>99.3</ele>
        <time>2021-03-28T09:39:37Z</time>
      </trkpt>
      <trkpt lat="42.78282" lon="2.75592">
        <ele>98</ele>
        <time>2021-03-28T09:39:39Z</time>
      </trkpt>
      <trkpt lat="42.78282" lon="2.75592">
        <ele>98</ele>
        <time>2021-03-28T09:39:39Z</time>
      </trkpt>
      <trkpt lat="42.7827" lon="2.75607">
        <ele>97.2</ele>
        <time>2021-03-28T09:39:41Z</time>
      </trkpt>
      <trkpt lat="42.7827" lon="2.75607">
        <ele>97.2</ele>
        <time>2021-03-28T09:39:41Z</time>
      </trkpt>
      <trkpt lat="42.78257" lon="2.75621">
        <ele>96.8</ele>
        <time>2021-03-28T09:39:43Z</time>
      </trkpt>
      <trkpt lat="42.78257" lon="2.75621">
        <ele>96.8</ele>
        <time>2021-03-28T09:39:43Z</time>
      </trkpt>
      <trkpt lat="42.78245" lon="2.75637">
        <ele>96.5</ele>
        <time>2021-03-28T09:39:45Z</time>
      </trkpt>
      <trkpt lat="42.78245" lon="2.75637">
        <ele>96.5</ele>
        <time>2021-03-28T09:39:45Z</time>
      </trkpt>
      <trkpt lat="42.78234" lon="2.75654">
        <ele>97.2</ele>
        <time>2021-03-28T09:39:47Z</time>
      </trkpt>
      <trkpt lat="42.78234" lon="2.75654">
        <ele>97.2</ele>
        <time>2021-03-28T09:39:47Z</time>
      </trkpt>
      <trkpt lat="42.78224" lon="2.75672">
        <ele>97.2</ele>
        <time>2021-03-28T09:39:49Z</time>
      </trkpt>
      <trkpt lat="42.78224" lon="2.75672">
        <ele>97.2</ele>
        <time>2021-03-28T09:39:49Z</time>
      </trkpt>
      <trkpt lat="42.78215" lon="2.75691">
        <ele>96.3</ele>
        <time>2021-03-28T09:39:51Z</time>
      </trkpt>
      <trkpt lat="42.78215" lon="2.75691">
        <ele>96.3</ele>
        <time>2021-03-28T09:39:51Z</time>
      </trkpt>
      <trkpt lat="42.78209" lon="2.75708">
        <ele>95.2</ele>
        <time>2021-03-28T09:39:52Z</time>
      </trkpt>
      <trkpt lat="42.78209" lon="2.75708">
        <ele>95.2</ele>
        <time>2021-03-28T09:39:52Z</time>
      </trkpt>
      <trkpt lat="42.78205" lon="2.75724">
        <ele>94.6</ele>
        <time>2021-03-28T09:39:53Z</time>
      </trkpt>
      <trkpt lat="42.78205" lon="2.75724">
        <ele>94.6</ele>
        <time>2021-03-28T09:39:53Z</time>
      </trkpt>
      <trkpt lat="42.78202" lon="2.75742">
        <ele>93.8</ele>
        <time>2021-03-28T09:39:55Z</time>
      </trkpt>
      <trkpt lat="42.78202" lon="2.75742">
        <ele>93.8</ele>
        <time>2021-03-28T09:39:55Z</time>
      </trkpt>
      <trkpt lat="42.78202" lon="2.75762">
        <ele>93.1</ele>
        <time>2021-03-28T09:39:57Z</time>
      </trkpt>
      <trkpt lat="42.78202" lon="2.75762">
        <ele>93.1</ele>
        <time>2021-03-28T09:39:57Z</time>
      </trkpt>
      <trkpt lat="42.78203" lon="2.75783">
        <ele>92.4</ele>
        <time>2021-03-28T09:39:59Z</time>
      </trkpt>
      <trkpt lat="42.78203" lon="2.75783">
        <ele>92.4</ele>
        <time>2021-03-28T09:39:59Z</time>
      </trkpt>
      <trkpt lat="42.78204" lon="2.75806">
        <ele>91.3</ele>
        <time>2021-03-28T09:40:01Z</time>
      </trkpt>
      <trkpt lat="42.78204" lon="2.75806">
        <ele>91.3</ele>
        <time>2021-03-28T09:40:01Z</time>
      </trkpt>
      <trkpt lat="42.78204" lon="2.75825">
        <ele>89.6</ele>
        <time>2021-03-28T09:40:02Z</time>
      </trkpt>
      <trkpt lat="42.78204" lon="2.75825">
        <ele>89.6</ele>
        <time>2021-03-28T09:40:02Z</time>
      </trkpt>
      <trkpt lat="42.78204" lon="2.75846">
        <ele>88.6</ele>
        <time>2021-03-28T09:40:04Z</time>
      </trkpt>
      <trkpt lat="42.78204" lon="2.75846">
        <ele>88.6</ele>
        <time>2021-03-28T09:40:04Z</time>
      </trkpt>
      <trkpt lat="42.78204" lon="2.75864">
        <ele>88.2</ele>
        <time>2021-03-28T09:40:05Z</time>
      </trkpt>
      <trkpt lat="42.78204" lon="2.75864">
        <ele>88.2</ele>
        <time>2021-03-28T09:40:05Z</time>
      </trkpt>
      <trkpt lat="42.78203" lon="2.75884">
        <ele>87.2</ele>
        <time>2021-03-28T09:40:07Z</time>
      </trkpt>
      <trkpt lat="42.78203" lon="2.75884">
        <ele>87.2</ele>
        <time>2021-03-28T09:40:07Z</time>
      </trkpt>
      <trkpt lat="42.78203" lon="2.75902">
        <ele>86.9</ele>
        <time>2021-03-28T09:40:08Z</time>
      </trkpt>
      <trkpt lat="42.78203" lon="2.75902">
        <ele>86.9</ele>
        <time>2021-03-28T09:40:08Z</time>
      </trkpt>
      <trkpt lat="42.78203" lon="2.75918">
        <ele>86.8</ele>
        <time>2021-03-28T09:40:09Z</time>
      </trkpt>
      <trkpt lat="42.78203" lon="2.75918">
        <ele>86.8</ele>
        <time>2021-03-28T09:40:09Z</time>
      </trkpt>
      <trkpt lat="42.78201" lon="2.75936">
        <ele>85.9</ele>
        <time>2021-03-28T09:40:11Z</time>
      </trkpt>
      <trkpt lat="42.78201" lon="2.75936">
        <ele>85.9</ele>
        <time>2021-03-28T09:40:11Z</time>
      </trkpt>
      <trkpt lat="42.78199" lon="2.75957">
        <ele>85.2</ele>
        <time>2021-03-28T09:40:13Z</time>
      </trkpt>
      <trkpt lat="42.78199" lon="2.75957">
        <ele>85.2</ele>
        <time>2021-03-28T09:40:13Z</time>
      </trkpt>
      <trkpt lat="42.78197" lon="2.75975">
        <ele>84.9</ele>
        <time>2021-03-28T09:40:14Z</time>
      </trkpt>
      <trkpt lat="42.78197" lon="2.75975">
        <ele>84.9</ele>
        <time>2021-03-28T09:40:14Z</time>
      </trkpt>
      <trkpt lat="42.78196" lon="2.75991">
        <ele>84.4</ele>
        <time>2021-03-28T09:40:15Z</time>
      </trkpt>
      <trkpt lat="42.78196" lon="2.75991">
        <ele>84.4</ele>
        <time>2021-03-28T09:40:15Z</time>
      </trkpt>
      <trkpt lat="42.78194" lon="2.76009">
        <ele>84</ele>
        <time>2021-03-28T09:40:17Z</time>
      </trkpt>
      <trkpt lat="42.78194" lon="2.76009">
        <ele>84</ele>
        <time>2021-03-28T09:40:17Z</time>
      </trkpt>
      <trkpt lat="42.78193" lon="2.76025">
        <ele>83.7</ele>
        <time>2021-03-28T09:40:18Z</time>
      </trkpt>
      <trkpt lat="42.78193" lon="2.76025">
        <ele>83.7</ele>
        <time>2021-03-28T09:40:18Z</time>
      </trkpt>
      <trkpt lat="42.78191" lon="2.76043">
        <ele>82.4</ele>
        <time>2021-03-28T09:40:20Z</time>
      </trkpt>
      <trkpt lat="42.78191" lon="2.76043">
        <ele>82.4</ele>
        <time>2021-03-28T09:40:20Z</time>
      </trkpt>
      <trkpt lat="42.78189" lon="2.76063">
        <ele>81.1</ele>
        <time>2021-03-28T09:40:22Z</time>
      </trkpt>
      <trkpt lat="42.78189" lon="2.76063">
        <ele>81.1</ele>
        <time>2021-03-28T09:40:22Z</time>
      </trkpt>
      <trkpt lat="42.78185" lon="2.76078">
        <ele>80.2</ele>
        <time>2021-03-28T09:40:23Z</time>
      </trkpt>
      <trkpt lat="42.78185" lon="2.76078">
        <ele>80.2</ele>
        <time>2021-03-28T09:40:23Z</time>
      </trkpt>
      <trkpt lat="42.78181" lon="2.76089">
        <ele>79.6</ele>
        <time>2021-03-28T09:40:24Z</time>
      </trkpt>
      <trkpt lat="42.78181" lon="2.76089">
        <ele>79.6</ele>
        <time>2021-03-28T09:40:24Z</time>
      </trkpt>
      <trkpt lat="42.78171" lon="2.76096">
        <ele>78.8</ele>
        <time>2021-03-28T09:40:26Z</time>
      </trkpt>
      <trkpt lat="42.78171" lon="2.76096">
        <ele>78.8</ele>
        <time>2021-03-28T09:40:26Z</time>
      </trkpt>
      <trkpt lat="42.78161" lon="2.76102">
        <ele>78.3</ele>
        <time>2021-03-28T09:40:27Z</time>
      </trkpt>
      <trkpt lat="42.78161" lon="2.76102">
        <ele>78.3</ele>
        <time>2021-03-28T09:40:27Z</time>
      </trkpt>
      <trkpt lat="42.78149" lon="2.7611">
        <ele>77.1</ele>
        <time>2021-03-28T09:40:29Z</time>
      </trkpt>
      <trkpt lat="42.78149" lon="2.7611">
        <ele>77.1</ele>
        <time>2021-03-28T09:40:29Z</time>
      </trkpt>
      <trkpt lat="42.78135" lon="2.7612">
        <ele>77.8</ele>
        <time>2021-03-28T09:40:31Z</time>
      </trkpt>
      <trkpt lat="42.78135" lon="2.7612">
        <ele>77.8</ele>
        <time>2021-03-28T09:40:31Z</time>
      </trkpt>
      <trkpt lat="42.78121" lon="2.76132">
        <ele>77.7</ele>
        <time>2021-03-28T09:40:33Z</time>
      </trkpt>
      <trkpt lat="42.78121" lon="2.76132">
        <ele>77.7</ele>
        <time>2021-03-28T09:40:33Z</time>
      </trkpt>
      <trkpt lat="42.78107" lon="2.76145">
        <ele>76.8</ele>
        <time>2021-03-28T09:40:35Z</time>
      </trkpt>
      <trkpt lat="42.78107" lon="2.76145">
        <ele>76.8</ele>
        <time>2021-03-28T09:40:35Z</time>
      </trkpt>
      <trkpt lat="42.78096" lon="2.76157">
        <ele>76.4</ele>
        <time>2021-03-28T09:40:36Z</time>
      </trkpt>
      <trkpt lat="42.78096" lon="2.76157">
        <ele>76.4</ele>
        <time>2021-03-28T09:40:36Z</time>
      </trkpt>
      <trkpt lat="42.78084" lon="2.7617">
        <ele>75</ele>
        <time>2021-03-28T09:40:38Z</time>
      </trkpt>
      <trkpt lat="42.78084" lon="2.7617">
        <ele>75</ele>
        <time>2021-03-28T09:40:38Z</time>
      </trkpt>
      <trkpt lat="42.78072" lon="2.76184">
        <ele>76.1</ele>
        <time>2021-03-28T09:40:40Z</time>
      </trkpt>
      <trkpt lat="42.78072" lon="2.76184">
        <ele>76.1</ele>
        <time>2021-03-28T09:40:40Z</time>
      </trkpt>
      <trkpt lat="42.78062" lon="2.76196">
        <ele>75</ele>
        <time>2021-03-28T09:40:41Z</time>
      </trkpt>
      <trkpt lat="42.78062" lon="2.76196">
        <ele>75</ele>
        <time>2021-03-28T09:40:41Z</time>
      </trkpt>
      <trkpt lat="42.78052" lon="2.76209">
        <ele>74.7</ele>
        <time>2021-03-28T09:40:43Z</time>
      </trkpt>
      <trkpt lat="42.78052" lon="2.76209">
        <ele>74.7</ele>
        <time>2021-03-28T09:40:43Z</time>
      </trkpt>
      <trkpt lat="42.78044" lon="2.76222">
        <ele>74.1</ele>
        <time>2021-03-28T09:40:44Z</time>
      </trkpt>
      <trkpt lat="42.78044" lon="2.76222">
        <ele>74.1</ele>
        <time>2021-03-28T09:40:44Z</time>
      </trkpt>
      <trkpt lat="42.78036" lon="2.76235">
        <ele>73.4</ele>
        <time>2021-03-28T09:40:46Z</time>
      </trkpt>
      <trkpt lat="42.78036" lon="2.76235">
        <ele>73.4</ele>
        <time>2021-03-28T09:40:46Z</time>
      </trkpt>
      <trkpt lat="42.78028" lon="2.76246">
        <ele>72.7</ele>
        <time>2021-03-28T09:40:47Z</time>
      </trkpt>
      <trkpt lat="42.78028" lon="2.76246">
        <ele>72.7</ele>
        <time>2021-03-28T09:40:47Z</time>
      </trkpt>
      <trkpt lat="42.7802" lon="2.7626">
        <ele>73.2</ele>
        <time>2021-03-28T09:40:49Z</time>
      </trkpt>
      <trkpt lat="42.7802" lon="2.7626">
        <ele>73.2</ele>
        <time>2021-03-28T09:40:49Z</time>
      </trkpt>
      <trkpt lat="42.78012" lon="2.76275">
        <ele>72.6</ele>
        <time>2021-03-28T09:40:51Z</time>
      </trkpt>
      <trkpt lat="42.78012" lon="2.76275">
        <ele>72.6</ele>
        <time>2021-03-28T09:40:51Z</time>
      </trkpt>
      <trkpt lat="42.78005" lon="2.76292">
        <ele>71.6</ele>
        <time>2021-03-28T09:40:53Z</time>
      </trkpt>
      <trkpt lat="42.78005" lon="2.76292">
        <ele>71.6</ele>
        <time>2021-03-28T09:40:53Z</time>
      </trkpt>
      <trkpt lat="42.78" lon="2.76307">
        <ele>70.2</ele>
        <time>2021-03-28T09:40:54Z</time>
      </trkpt>
      <trkpt lat="42.78" lon="2.76307">
        <ele>70.2</ele>
        <time>2021-03-28T09:40:54Z</time>
      </trkpt>
      <trkpt lat="42.77996" lon="2.76325">
        <ele>70.2</ele>
        <time>2021-03-28T09:40:56Z</time>
      </trkpt>
      <trkpt lat="42.77996" lon="2.76325">
        <ele>70.2</ele>
        <time>2021-03-28T09:40:56Z</time>
      </trkpt>
      <trkpt lat="42.77993" lon="2.76341">
        <ele>70.2</ele>
        <time>2021-03-28T09:40:57Z</time>
      </trkpt>
      <trkpt lat="42.77993" lon="2.76341">
        <ele>70.2</ele>
        <time>2021-03-28T09:40:57Z</time>
      </trkpt>
      <trkpt lat="42.77992" lon="2.76358">
        <ele>70.2</ele>
        <time>2021-03-28T09:40:59Z</time>
      </trkpt>
      <trkpt lat="42.77992" lon="2.76358">
        <ele>70.2</ele>
        <time>2021-03-28T09:40:59Z</time>
      </trkpt>
      <trkpt lat="42.77993" lon="2.76377">
        <ele>69.5</ele>
        <time>2021-03-28T09:41:01Z</time>
      </trkpt>
      <trkpt lat="42.77993" lon="2.76377">
        <ele>69.5</ele>
        <time>2021-03-28T09:41:01Z</time>
      </trkpt>
      <trkpt lat="42.77997" lon="2.76397">
        <ele>68.7</ele>
        <time>2021-03-28T09:41:03Z</time>
      </trkpt>
      <trkpt lat="42.77997" lon="2.76397">
        <ele>68.7</ele>
        <time>2021-03-28T09:41:03Z</time>
      </trkpt>
      <trkpt lat="42.78" lon="2.76413">
        <ele>67.4</ele>
        <time>2021-03-28T09:41:04Z</time>
      </trkpt>
      <trkpt lat="42.78" lon="2.76413">
        <ele>67.4</ele>
        <time>2021-03-28T09:41:04Z</time>
      </trkpt>
      <trkpt lat="42.78005" lon="2.76431">
        <ele>67.3</ele>
        <time>2021-03-28T09:41:06Z</time>
      </trkpt>
      <trkpt lat="42.78005" lon="2.76431">
        <ele>67.3</ele>
        <time>2021-03-28T09:41:06Z</time>
      </trkpt>
      <trkpt lat="42.7801" lon="2.76446">
        <ele>67</ele>
        <time>2021-03-28T09:41:07Z</time>
      </trkpt>
      <trkpt lat="42.7801" lon="2.76446">
        <ele>67</ele>
        <time>2021-03-28T09:41:07Z</time>
      </trkpt>
      <trkpt lat="42.78016" lon="2.76462">
        <ele>66.7</ele>
        <time>2021-03-28T09:41:09Z</time>
      </trkpt>
      <trkpt lat="42.78016" lon="2.76462">
        <ele>66.7</ele>
        <time>2021-03-28T09:41:09Z</time>
      </trkpt>
      <trkpt lat="42.78024" lon="2.76477">
        <ele>66.6</ele>
        <time>2021-03-28T09:41:11Z</time>
      </trkpt>
      <trkpt lat="42.78024" lon="2.76477">
        <ele>66.6</ele>
        <time>2021-03-28T09:41:11Z</time>
      </trkpt>
      <trkpt lat="42.78035" lon="2.7649">
        <ele>67</ele>
        <time>2021-03-28T09:41:13Z</time>
      </trkpt>
      <trkpt lat="42.78035" lon="2.7649">
        <ele>67</ele>
        <time>2021-03-28T09:41:13Z</time>
      </trkpt>
      <trkpt lat="42.78047" lon="2.76502">
        <ele>67.2</ele>
        <time>2021-03-28T09:41:15Z</time>
      </trkpt>
      <trkpt lat="42.78047" lon="2.76502">
        <ele>67.2</ele>
        <time>2021-03-28T09:41:15Z</time>
      </trkpt>
      <trkpt lat="42.7806" lon="2.76511">
        <ele>66.5</ele>
        <time>2021-03-28T09:41:17Z</time>
      </trkpt>
      <trkpt lat="42.7806" lon="2.76511">
        <ele>66.5</ele>
        <time>2021-03-28T09:41:17Z</time>
      </trkpt>
      <trkpt lat="42.78074" lon="2.7652">
        <ele>65.7</ele>
        <time>2021-03-28T09:41:19Z</time>
      </trkpt>
      <trkpt lat="42.78074" lon="2.7652">
        <ele>65.7</ele>
        <time>2021-03-28T09:41:19Z</time>
      </trkpt>
      <trkpt lat="42.78086" lon="2.76528">
        <ele>65.2</ele>
        <time>2021-03-28T09:41:20Z</time>
      </trkpt>
      <trkpt lat="42.78086" lon="2.76528">
        <ele>65.2</ele>
        <time>2021-03-28T09:41:20Z</time>
      </trkpt>
      <trkpt lat="42.78097" lon="2.76534">
        <ele>65.3</ele>
        <time>2021-03-28T09:41:21Z</time>
      </trkpt>
      <trkpt lat="42.78097" lon="2.76534">
        <ele>65.3</ele>
        <time>2021-03-28T09:41:21Z</time>
      </trkpt>
      <trkpt lat="42.78109" lon="2.7654">
        <ele>65.1</ele>
        <time>2021-03-28T09:41:23Z</time>
      </trkpt>
      <trkpt lat="42.78109" lon="2.7654">
        <ele>65.1</ele>
        <time>2021-03-28T09:41:23Z</time>
      </trkpt>
      <trkpt lat="42.78122" lon="2.76547">
        <ele>64.5</ele>
        <time>2021-03-28T09:41:25Z</time>
      </trkpt>
      <trkpt lat="42.78122" lon="2.76547">
        <ele>64.5</ele>
        <time>2021-03-28T09:41:25Z</time>
      </trkpt>
      <trkpt lat="42.78136" lon="2.76553">
        <ele>64.1</ele>
        <time>2021-03-28T09:41:27Z</time>
      </trkpt>
      <trkpt lat="42.78136" lon="2.76553">
        <ele>64.1</ele>
        <time>2021-03-28T09:41:27Z</time>
      </trkpt>
      <trkpt lat="42.7815" lon="2.7656">
        <ele>64.3</ele>
        <time>2021-03-28T09:41:29Z</time>
      </trkpt>
      <trkpt lat="42.7815" lon="2.7656">
        <ele>64.3</ele>
        <time>2021-03-28T09:41:29Z</time>
      </trkpt>
      <trkpt lat="42.78165" lon="2.76568">
        <ele>64.2</ele>
        <time>2021-03-28T09:41:31Z</time>
      </trkpt>
      <trkpt lat="42.78165" lon="2.76568">
        <ele>64.2</ele>
        <time>2021-03-28T09:41:31Z</time>
      </trkpt>
      <trkpt lat="42.78179" lon="2.76576">
        <ele>63.8</ele>
        <time>2021-03-28T09:41:33Z</time>
      </trkpt>
      <trkpt lat="42.78179" lon="2.76576">
        <ele>63.8</ele>
        <time>2021-03-28T09:41:33Z</time>
      </trkpt>
      <trkpt lat="42.78191" lon="2.76584">
        <ele>63.7</ele>
        <time>2021-03-28T09:41:34Z</time>
      </trkpt>
      <trkpt lat="42.78191" lon="2.76584">
        <ele>63.7</ele>
        <time>2021-03-28T09:41:34Z</time>
      </trkpt>
      <trkpt lat="42.78202" lon="2.76592">
        <ele>64</ele>
        <time>2021-03-28T09:41:35Z</time>
      </trkpt>
      <trkpt lat="42.78202" lon="2.76592">
        <ele>64</ele>
        <time>2021-03-28T09:41:35Z</time>
      </trkpt>
      <trkpt lat="42.78213" lon="2.76601">
        <ele>63.9</ele>
        <time>2021-03-28T09:41:37Z</time>
      </trkpt>
      <trkpt lat="42.78213" lon="2.76601">
        <ele>63.9</ele>
        <time>2021-03-28T09:41:37Z</time>
      </trkpt>
      <trkpt lat="42.78225" lon="2.76611">
        <ele>63.2</ele>
        <time>2021-03-28T09:41:39Z</time>
      </trkpt>
      <trkpt lat="42.78225" lon="2.76611">
        <ele>63.2</ele>
        <time>2021-03-28T09:41:39Z</time>
      </trkpt>
      <trkpt lat="42.78235" lon="2.76619">
        <ele>63.1</ele>
        <time>2021-03-28T09:41:40Z</time>
      </trkpt>
      <trkpt lat="42.78235" lon="2.76619">
        <ele>63.1</ele>
        <time>2021-03-28T09:41:40Z</time>
      </trkpt>
      <trkpt lat="42.78245" lon="2.76626">
        <ele>62.7</ele>
        <time>2021-03-28T09:41:41Z</time>
      </trkpt>
      <trkpt lat="42.78245" lon="2.76626">
        <ele>62.7</ele>
        <time>2021-03-28T09:41:41Z</time>
      </trkpt>
      <trkpt lat="42.78256" lon="2.76634">
        <ele>62.2</ele>
        <time>2021-03-28T09:41:43Z</time>
      </trkpt>
      <trkpt lat="42.78256" lon="2.76634">
        <ele>62.2</ele>
        <time>2021-03-28T09:41:43Z</time>
      </trkpt>
      <trkpt lat="42.78268" lon="2.76642">
        <ele>62.1</ele>
        <time>2021-03-28T09:41:45Z</time>
      </trkpt>
      <trkpt lat="42.78268" lon="2.76642">
        <ele>62.1</ele>
        <time>2021-03-28T09:41:45Z</time>
      </trkpt>
      <trkpt lat="42.7828" lon="2.76649">
        <ele>62</ele>
        <time>2021-03-28T09:41:46Z</time>
      </trkpt>
      <trkpt lat="42.7828" lon="2.76649">
        <ele>62</ele>
        <time>2021-03-28T09:41:46Z</time>
      </trkpt>
      <trkpt lat="42.78293" lon="2.76656">
        <ele>61.5</ele>
        <time>2021-03-28T09:41:48Z</time>
      </trkpt>
      <trkpt lat="42.78293" lon="2.76656">
        <ele>61.5</ele>
        <time>2021-03-28T09:41:48Z</time>
      </trkpt>
      <trkpt lat="42.78306" lon="2.76663">
        <ele>61.3</ele>
        <time>2021-03-28T09:41:50Z</time>
      </trkpt>
      <trkpt lat="42.78306" lon="2.76663">
        <ele>61.3</ele>
        <time>2021-03-28T09:41:50Z</time>
      </trkpt>
      <trkpt lat="42.78318" lon="2.76669">
        <ele>60.9</ele>
        <time>2021-03-28T09:41:51Z</time>
      </trkpt>
      <trkpt lat="42.78318" lon="2.76669">
        <ele>60.9</ele>
        <time>2021-03-28T09:41:51Z</time>
      </trkpt>
      <trkpt lat="42.78329" lon="2.76675">
        <ele>60.7</ele>
        <time>2021-03-28T09:41:52Z</time>
      </trkpt>
      <trkpt lat="42.78329" lon="2.76675">
        <ele>60.7</ele>
        <time>2021-03-28T09:41:52Z</time>
      </trkpt>
      <trkpt lat="42.7834" lon="2.76683">
        <ele>61.1</ele>
        <time>2021-03-28T09:41:54Z</time>
      </trkpt>
      <trkpt lat="42.7834" lon="2.76683">
        <ele>61.1</ele>
        <time>2021-03-28T09:41:54Z</time>
      </trkpt>
      <trkpt lat="42.78349" lon="2.76692">
        <ele>60.9</ele>
        <time>2021-03-28T09:41:55Z</time>
      </trkpt>
      <trkpt lat="42.78349" lon="2.76692">
        <ele>60.9</ele>
        <time>2021-03-28T09:41:55Z</time>
      </trkpt>
      <trkpt lat="42.78358" lon="2.76703">
        <ele>60.3</ele>
        <time>2021-03-28T09:41:57Z</time>
      </trkpt>
      <trkpt lat="42.78358" lon="2.76703">
        <ele>60.3</ele>
        <time>2021-03-28T09:41:57Z</time>
      </trkpt>
      <trkpt lat="42.78368" lon="2.76717">
        <ele>60.8</ele>
        <time>2021-03-28T09:41:59Z</time>
      </trkpt>
      <trkpt lat="42.78368" lon="2.76717">
        <ele>60.8</ele>
        <time>2021-03-28T09:41:59Z</time>
      </trkpt>
      <trkpt lat="42.78378" lon="2.76732">
        <ele>60.7</ele>
        <time>2021-03-28T09:42:01Z</time>
      </trkpt>
      <trkpt lat="42.78378" lon="2.76732">
        <ele>60.7</ele>
        <time>2021-03-28T09:42:01Z</time>
      </trkpt>
      <trkpt lat="42.78387" lon="2.7675">
        <ele>59</ele>
        <time>2021-03-28T09:42:03Z</time>
      </trkpt>
      <trkpt lat="42.78387" lon="2.7675">
        <ele>59</ele>
        <time>2021-03-28T09:42:03Z</time>
      </trkpt>
      <trkpt lat="42.78395" lon="2.76765">
        <ele>60</ele>
        <time>2021-03-28T09:42:04Z</time>
      </trkpt>
      <trkpt lat="42.78395" lon="2.76765">
        <ele>60</ele>
        <time>2021-03-28T09:42:04Z</time>
      </trkpt>
      <trkpt lat="42.78403" lon="2.76783">
        <ele>60.4</ele>
        <time>2021-03-28T09:42:06Z</time>
      </trkpt>
      <trkpt lat="42.78403" lon="2.76783">
        <ele>60.4</ele>
        <time>2021-03-28T09:42:06Z</time>
      </trkpt>
      <trkpt lat="42.78409" lon="2.76801">
        <ele>59.1</ele>
        <time>2021-03-28T09:42:08Z</time>
      </trkpt>
      <trkpt lat="42.78409" lon="2.76801">
        <ele>59.1</ele>
        <time>2021-03-28T09:42:08Z</time>
      </trkpt>
      <trkpt lat="42.78415" lon="2.76817">
        <ele>58.1</ele>
        <time>2021-03-28T09:42:09Z</time>
      </trkpt>
      <trkpt lat="42.78415" lon="2.76817">
        <ele>58.1</ele>
        <time>2021-03-28T09:42:09Z</time>
      </trkpt>
      <trkpt lat="42.7842" lon="2.76831">
        <ele>58.1</ele>
        <time>2021-03-28T09:42:10Z</time>
      </trkpt>
      <trkpt lat="42.7842" lon="2.76831">
        <ele>58.1</ele>
        <time>2021-03-28T09:42:10Z</time>
      </trkpt>
      <trkpt lat="42.78424" lon="2.76846">
        <ele>58.2</ele>
        <time>2021-03-28T09:42:12Z</time>
      </trkpt>
      <trkpt lat="42.78424" lon="2.76846">
        <ele>58.2</ele>
        <time>2021-03-28T09:42:12Z</time>
      </trkpt>
      <trkpt lat="42.7843" lon="2.76863">
        <ele>57.7</ele>
        <time>2021-03-28T09:42:14Z</time>
      </trkpt>
      <trkpt lat="42.7843" lon="2.76863">
        <ele>57.7</ele>
        <time>2021-03-28T09:42:14Z</time>
      </trkpt>
      <trkpt lat="42.78435" lon="2.76881">
        <ele>57.2</ele>
        <time>2021-03-28T09:42:16Z</time>
      </trkpt>
      <trkpt lat="42.78435" lon="2.76881">
        <ele>57.2</ele>
        <time>2021-03-28T09:42:16Z</time>
      </trkpt>
      <trkpt lat="42.78439" lon="2.76897">
        <ele>56.8</ele>
        <time>2021-03-28T09:42:17Z</time>
      </trkpt>
      <trkpt lat="42.78439" lon="2.76897">
        <ele>56.8</ele>
        <time>2021-03-28T09:42:17Z</time>
      </trkpt>
      <trkpt lat="42.78444" lon="2.76913">
        <ele>57</ele>
        <time>2021-03-28T09:42:19Z</time>
      </trkpt>
      <trkpt lat="42.78444" lon="2.76913">
        <ele>57</ele>
        <time>2021-03-28T09:42:19Z</time>
      </trkpt>
      <trkpt lat="42.7845" lon="2.76931">
        <ele>57.2</ele>
        <time>2021-03-28T09:42:21Z</time>
      </trkpt>
      <trkpt lat="42.7845" lon="2.76931">
        <ele>57.2</ele>
        <time>2021-03-28T09:42:21Z</time>
      </trkpt>
      <trkpt lat="42.78456" lon="2.76949">
        <ele>56.8</ele>
        <time>2021-03-28T09:42:23Z</time>
      </trkpt>
      <trkpt lat="42.78456" lon="2.76949">
        <ele>56.8</ele>
        <time>2021-03-28T09:42:23Z</time>
      </trkpt>
      <trkpt lat="42.78463" lon="2.76966">
        <ele>56.6</ele>
        <time>2021-03-28T09:42:25Z</time>
      </trkpt>
      <trkpt lat="42.78463" lon="2.76966">
        <ele>56.6</ele>
        <time>2021-03-28T09:42:25Z</time>
      </trkpt>
      <trkpt lat="42.7847" lon="2.76984">
        <ele>55.9</ele>
        <time>2021-03-28T09:42:27Z</time>
      </trkpt>
      <trkpt lat="42.7847" lon="2.76984">
        <ele>55.9</ele>
        <time>2021-03-28T09:42:27Z</time>
      </trkpt>
      <trkpt lat="42.78476" lon="2.76998">
        <ele>55.5</ele>
        <time>2021-03-28T09:42:28Z</time>
      </trkpt>
      <trkpt lat="42.78476" lon="2.76998">
        <ele>55.5</ele>
        <time>2021-03-28T09:42:28Z</time>
      </trkpt>
      <trkpt lat="42.78481" lon="2.77011">
        <ele>55.6</ele>
        <time>2021-03-28T09:42:29Z</time>
      </trkpt>
      <trkpt lat="42.78481" lon="2.77011">
        <ele>55.6</ele>
        <time>2021-03-28T09:42:29Z</time>
      </trkpt>
      <trkpt lat="42.78486" lon="2.77026">
        <ele>57.5</ele>
        <time>2021-03-28T09:42:31Z</time>
      </trkpt>
      <trkpt lat="42.78486" lon="2.77026">
        <ele>57.5</ele>
        <time>2021-03-28T09:42:31Z</time>
      </trkpt>
      <trkpt lat="42.78492" lon="2.77042">
        <ele>57.2</ele>
        <time>2021-03-28T09:42:33Z</time>
      </trkpt>
      <trkpt lat="42.78492" lon="2.77042">
        <ele>57.2</ele>
        <time>2021-03-28T09:42:33Z</time>
      </trkpt>
      <trkpt lat="42.78497" lon="2.77059">
        <ele>55.4</ele>
        <time>2021-03-28T09:42:35Z</time>
      </trkpt>
      <trkpt lat="42.78497" lon="2.77059">
        <ele>55.4</ele>
        <time>2021-03-28T09:42:35Z</time>
      </trkpt>
      <trkpt lat="42.78502" lon="2.77076">
        <ele>54.1</ele>
        <time>2021-03-28T09:42:37Z</time>
      </trkpt>
      <trkpt lat="42.78502" lon="2.77076">
        <ele>54.1</ele>
        <time>2021-03-28T09:42:37Z</time>
      </trkpt>
      <trkpt lat="42.78505" lon="2.7709">
        <ele>55.3</ele>
        <time>2021-03-28T09:42:38Z</time>
      </trkpt>
      <trkpt lat="42.78505" lon="2.7709">
        <ele>55.3</ele>
        <time>2021-03-28T09:42:38Z</time>
      </trkpt>
      <trkpt lat="42.78508" lon="2.77103">
        <ele>56.5</ele>
        <time>2021-03-28T09:42:39Z</time>
      </trkpt>
      <trkpt lat="42.78508" lon="2.77103">
        <ele>56.5</ele>
        <time>2021-03-28T09:42:39Z</time>
      </trkpt>
      <trkpt lat="42.78511" lon="2.77114">
        <ele>57.2</ele>
        <time>2021-03-28T09:42:40Z</time>
      </trkpt>
      <trkpt lat="42.78511" lon="2.77114">
        <ele>57.2</ele>
        <time>2021-03-28T09:42:40Z</time>
      </trkpt>
      <trkpt lat="42.78513" lon="2.77128">
        <ele>57.7</ele>
        <time>2021-03-28T09:42:42Z</time>
      </trkpt>
      <trkpt lat="42.78513" lon="2.77128">
        <ele>57.7</ele>
        <time>2021-03-28T09:42:42Z</time>
      </trkpt>
      <trkpt lat="42.78515" lon="2.7714">
        <ele>58</ele>
        <time>2021-03-28T09:42:43Z</time>
      </trkpt>
      <trkpt lat="42.78515" lon="2.7714">
        <ele>58</ele>
        <time>2021-03-28T09:42:43Z</time>
      </trkpt>
      <trkpt lat="42.78518" lon="2.77154">
        <ele>57.7</ele>
        <time>2021-03-28T09:42:45Z</time>
      </trkpt>
      <trkpt lat="42.78518" lon="2.77154">
        <ele>57.7</ele>
        <time>2021-03-28T09:42:45Z</time>
      </trkpt>
      <trkpt lat="42.78521" lon="2.77171">
        <ele>56.3</ele>
        <time>2021-03-28T09:42:47Z</time>
      </trkpt>
      <trkpt lat="42.78521" lon="2.77171">
        <ele>56.3</ele>
        <time>2021-03-28T09:42:47Z</time>
      </trkpt>
      <trkpt lat="42.78523" lon="2.77189">
        <ele>55.1</ele>
        <time>2021-03-28T09:42:49Z</time>
      </trkpt>
      <trkpt lat="42.78523" lon="2.77189">
        <ele>55.1</ele>
        <time>2021-03-28T09:42:49Z</time>
      </trkpt>
      <trkpt lat="42.78523" lon="2.77208">
        <ele>53.8</ele>
        <time>2021-03-28T09:42:51Z</time>
      </trkpt>
      <trkpt lat="42.78523" lon="2.77208">
        <ele>53.8</ele>
        <time>2021-03-28T09:42:51Z</time>
      </trkpt>
      <trkpt lat="42.78523" lon="2.77228">
        <ele>53</ele>
        <time>2021-03-28T09:42:53Z</time>
      </trkpt>
      <trkpt lat="42.78523" lon="2.77228">
        <ele>53</ele>
        <time>2021-03-28T09:42:53Z</time>
      </trkpt>
      <trkpt lat="42.78521" lon="2.77244">
        <ele>53.6</ele>
        <time>2021-03-28T09:42:54Z</time>
      </trkpt>
      <trkpt lat="42.78521" lon="2.77244">
        <ele>53.6</ele>
        <time>2021-03-28T09:42:54Z</time>
      </trkpt>
      <trkpt lat="42.78519" lon="2.77259">
        <ele>54.4</ele>
        <time>2021-03-28T09:42:55Z</time>
      </trkpt>
      <trkpt lat="42.78519" lon="2.77259">
        <ele>54.4</ele>
        <time>2021-03-28T09:42:55Z</time>
      </trkpt>
      <trkpt lat="42.78517" lon="2.77272">
        <ele>55</ele>
        <time>2021-03-28T09:42:56Z</time>
      </trkpt>
      <trkpt lat="42.78517" lon="2.77272">
        <ele>55</ele>
        <time>2021-03-28T09:42:56Z</time>
      </trkpt>
      <trkpt lat="42.78513" lon="2.77286">
        <ele>54.9</ele>
        <time>2021-03-28T09:42:58Z</time>
      </trkpt>
      <trkpt lat="42.78513" lon="2.77286">
        <ele>54.9</ele>
        <time>2021-03-28T09:42:58Z</time>
      </trkpt>
      <trkpt lat="42.78509" lon="2.77298">
        <ele>53.9</ele>
        <time>2021-03-28T09:42:59Z</time>
      </trkpt>
      <trkpt lat="42.78509" lon="2.77298">
        <ele>53.9</ele>
        <time>2021-03-28T09:42:59Z</time>
      </trkpt>
      <trkpt lat="42.78503" lon="2.77311">
        <ele>51.9</ele>
        <time>2021-03-28T09:43:01Z</time>
      </trkpt>
      <trkpt lat="42.78503" lon="2.77311">
        <ele>51.9</ele>
        <time>2021-03-28T09:43:01Z</time>
      </trkpt>
      <trkpt lat="42.78498" lon="2.77323">
        <ele>51.4</ele>
        <time>2021-03-28T09:43:02Z</time>
      </trkpt>
      <trkpt lat="42.78498" lon="2.77323">
        <ele>51.4</ele>
        <time>2021-03-28T09:43:02Z</time>
      </trkpt>
      <trkpt lat="42.78493" lon="2.77336">
        <ele>53.2</ele>
        <time>2021-03-28T09:43:04Z</time>
      </trkpt>
      <trkpt lat="42.78493" lon="2.77336">
        <ele>53.2</ele>
        <time>2021-03-28T09:43:04Z</time>
      </trkpt>
      <trkpt lat="42.78487" lon="2.77351">
        <ele>55.5</ele>
        <time>2021-03-28T09:43:06Z</time>
      </trkpt>
      <trkpt lat="42.78487" lon="2.77351">
        <ele>55.5</ele>
        <time>2021-03-28T09:43:06Z</time>
      </trkpt>
      <trkpt lat="42.78482" lon="2.77367">
        <ele>54.8</ele>
        <time>2021-03-28T09:43:08Z</time>
      </trkpt>
      <trkpt lat="42.78482" lon="2.77367">
        <ele>54.8</ele>
        <time>2021-03-28T09:43:08Z</time>
      </trkpt>
      <trkpt lat="42.78477" lon="2.77383">
        <ele>52.6</ele>
        <time>2021-03-28T09:43:10Z</time>
      </trkpt>
      <trkpt lat="42.78477" lon="2.77383">
        <ele>52.6</ele>
        <time>2021-03-28T09:43:10Z</time>
      </trkpt>
      <trkpt lat="42.78473" lon="2.77397">
        <ele>51.6</ele>
        <time>2021-03-28T09:43:11Z</time>
      </trkpt>
      <trkpt lat="42.78473" lon="2.77397">
        <ele>51.6</ele>
        <time>2021-03-28T09:43:11Z</time>
      </trkpt>
      <trkpt lat="42.78469" lon="2.77412">
        <ele>52.5</ele>
        <time>2021-03-28T09:43:13Z</time>
      </trkpt>
      <trkpt lat="42.78469" lon="2.77412">
        <ele>52.5</ele>
        <time>2021-03-28T09:43:13Z</time>
      </trkpt>
      <trkpt lat="42.78465" lon="2.77424">
        <ele>54.5</ele>
        <time>2021-03-28T09:43:14Z</time>
      </trkpt>
      <trkpt lat="42.78465" lon="2.77424">
        <ele>54.5</ele>
        <time>2021-03-28T09:43:14Z</time>
      </trkpt>
      <trkpt lat="42.78462" lon="2.77436">
        <ele>56.6</ele>
        <time>2021-03-28T09:43:15Z</time>
      </trkpt>
      <trkpt lat="42.78462" lon="2.77436">
        <ele>56.6</ele>
        <time>2021-03-28T09:43:15Z</time>
      </trkpt>
      <trkpt lat="42.78457" lon="2.77449">
        <ele>56.8</ele>
        <time>2021-03-28T09:43:17Z</time>
      </trkpt>
      <trkpt lat="42.78457" lon="2.77449">
        <ele>56.8</ele>
        <time>2021-03-28T09:43:17Z</time>
      </trkpt>
      <trkpt lat="42.78452" lon="2.77463">
        <ele>54.7</ele>
        <time>2021-03-28T09:43:19Z</time>
      </trkpt>
      <trkpt lat="42.78452" lon="2.77463">
        <ele>54.7</ele>
        <time>2021-03-28T09:43:19Z</time>
      </trkpt>
      <trkpt lat="42.78446" lon="2.77478">
        <ele>52.6</ele>
        <time>2021-03-28T09:43:21Z</time>
      </trkpt>
      <trkpt lat="42.78446" lon="2.77478">
        <ele>52.6</ele>
        <time>2021-03-28T09:43:21Z</time>
      </trkpt>
      <trkpt lat="42.78441" lon="2.7749">
        <ele>53.1</ele>
        <time>2021-03-28T09:43:22Z</time>
      </trkpt>
      <trkpt lat="42.78441" lon="2.7749">
        <ele>53.1</ele>
        <time>2021-03-28T09:43:22Z</time>
      </trkpt>
      <trkpt lat="42.78437" lon="2.77502">
        <ele>54.1</ele>
        <time>2021-03-28T09:43:23Z</time>
      </trkpt>
      <trkpt lat="42.78437" lon="2.77502">
        <ele>54.1</ele>
        <time>2021-03-28T09:43:23Z</time>
      </trkpt>
      <trkpt lat="42.78432" lon="2.77515">
        <ele>55.8</ele>
        <time>2021-03-28T09:43:25Z</time>
      </trkpt>
      <trkpt lat="42.78432" lon="2.77515">
        <ele>55.8</ele>
        <time>2021-03-28T09:43:25Z</time>
      </trkpt>
      <trkpt lat="42.78427" lon="2.7753">
        <ele>55.9</ele>
        <time>2021-03-28T09:43:27Z</time>
      </trkpt>
      <trkpt lat="42.78427" lon="2.7753">
        <ele>55.9</ele>
        <time>2021-03-28T09:43:27Z</time>
      </trkpt>
      <trkpt lat="42.78422" lon="2.77545">
        <ele>53.7</ele>
        <time>2021-03-28T09:43:29Z</time>
      </trkpt>
      <trkpt lat="42.78422" lon="2.77545">
        <ele>53.7</ele>
        <time>2021-03-28T09:43:29Z</time>
      </trkpt>
      <trkpt lat="42.78417" lon="2.77561">
        <ele>51.8</ele>
        <time>2021-03-28T09:43:31Z</time>
      </trkpt>
      <trkpt lat="42.78417" lon="2.77561">
        <ele>51.8</ele>
        <time>2021-03-28T09:43:31Z</time>
      </trkpt>
      <trkpt lat="42.78413" lon="2.77574">
        <ele>52.3</ele>
        <time>2021-03-28T09:43:32Z</time>
      </trkpt>
      <trkpt lat="42.78413" lon="2.77574">
        <ele>52.3</ele>
        <time>2021-03-28T09:43:32Z</time>
      </trkpt>
      <trkpt lat="42.78407" lon="2.77589">
        <ele>53.2</ele>
        <time>2021-03-28T09:43:34Z</time>
      </trkpt>
      <trkpt lat="42.78407" lon="2.77589">
        <ele>53.2</ele>
        <time>2021-03-28T09:43:34Z</time>
      </trkpt>
      <trkpt lat="42.78403" lon="2.77601">
        <ele>53.7</ele>
        <time>2021-03-28T09:43:35Z</time>
      </trkpt>
      <trkpt lat="42.78403" lon="2.77601">
        <ele>53.7</ele>
        <time>2021-03-28T09:43:35Z</time>
      </trkpt>
      <trkpt lat="42.78398" lon="2.77614">
        <ele>53.3</ele>
        <time>2021-03-28T09:43:37Z</time>
      </trkpt>
      <trkpt lat="42.78398" lon="2.77614">
        <ele>53.3</ele>
        <time>2021-03-28T09:43:37Z</time>
      </trkpt>
      <trkpt lat="42.78392" lon="2.77628">
        <ele>52.1</ele>
        <time>2021-03-28T09:43:39Z</time>
      </trkpt>
      <trkpt lat="42.78392" lon="2.77628">
        <ele>52.1</ele>
        <time>2021-03-28T09:43:39Z</time>
      </trkpt>
      <trkpt lat="42.78387" lon="2.77639">
        <ele>51.7</ele>
        <time>2021-03-28T09:43:40Z</time>
      </trkpt>
      <trkpt lat="42.78387" lon="2.77639">
        <ele>51.7</ele>
        <time>2021-03-28T09:43:40Z</time>
      </trkpt>
      <trkpt lat="42.78381" lon="2.77651">
        <ele>51.1</ele>
        <time>2021-03-28T09:43:42Z</time>
      </trkpt>
      <trkpt lat="42.78381" lon="2.77651">
        <ele>51.1</ele>
        <time>2021-03-28T09:43:42Z</time>
      </trkpt>
      <trkpt lat="42.78377" lon="2.77661">
        <ele>50.9</ele>
        <time>2021-03-28T09:43:43Z</time>
      </trkpt>
      <trkpt lat="42.78377" lon="2.77661">
        <ele>50.9</ele>
        <time>2021-03-28T09:43:43Z</time>
      </trkpt>
      <trkpt lat="42.78371" lon="2.77673">
        <ele>51.4</ele>
        <time>2021-03-28T09:43:45Z</time>
      </trkpt>
      <trkpt lat="42.78371" lon="2.77673">
        <ele>51.4</ele>
        <time>2021-03-28T09:43:45Z</time>
      </trkpt>
      <trkpt lat="42.78365" lon="2.77685">
        <ele>51.8</ele>
        <time>2021-03-28T09:43:47Z</time>
      </trkpt>
      <trkpt lat="42.78365" lon="2.77685">
        <ele>51.8</ele>
        <time>2021-03-28T09:43:47Z</time>
      </trkpt>
      <trkpt lat="42.7836" lon="2.77695">
        <ele>51.8</ele>
        <time>2021-03-28T09:43:48Z</time>
      </trkpt>
      <trkpt lat="42.7836" lon="2.77695">
        <ele>51.8</ele>
        <time>2021-03-28T09:43:48Z</time>
      </trkpt>
      <trkpt lat="42.78354" lon="2.77705">
        <ele>52</ele>
        <time>2021-03-28T09:43:50Z</time>
      </trkpt>
      <trkpt lat="42.78354" lon="2.77705">
        <ele>52</ele>
        <time>2021-03-28T09:43:50Z</time>
      </trkpt>
      <trkpt lat="42.7835" lon="2.77714">
        <ele>51.9</ele>
        <time>2021-03-28T09:43:51Z</time>
      </trkpt>
      <trkpt lat="42.7835" lon="2.77714">
        <ele>51.9</ele>
        <time>2021-03-28T09:43:51Z</time>
      </trkpt>
      <trkpt lat="42.78346" lon="2.77723">
        <ele>51.7</ele>
        <time>2021-03-28T09:43:52Z</time>
      </trkpt>
      <trkpt lat="42.78346" lon="2.77723">
        <ele>51.7</ele>
        <time>2021-03-28T09:43:52Z</time>
      </trkpt>
      <trkpt lat="42.7834" lon="2.77733">
        <ele>52.1</ele>
        <time>2021-03-28T09:43:54Z</time>
      </trkpt>
      <trkpt lat="42.7834" lon="2.77733">
        <ele>52.1</ele>
        <time>2021-03-28T09:43:54Z</time>
      </trkpt>
      <trkpt lat="42.78336" lon="2.77741">
        <ele>52.3</ele>
        <time>2021-03-28T09:43:55Z</time>
      </trkpt>
      <trkpt lat="42.78336" lon="2.77741">
        <ele>52.3</ele>
        <time>2021-03-28T09:43:55Z</time>
      </trkpt>
      <trkpt lat="42.78331" lon="2.77751">
        <ele>52.5</ele>
        <time>2021-03-28T09:43:57Z</time>
      </trkpt>
      <trkpt lat="42.78331" lon="2.77751">
        <ele>52.5</ele>
        <time>2021-03-28T09:43:57Z</time>
      </trkpt>
      <trkpt lat="42.78326" lon="2.77762">
        <ele>52.5</ele>
        <time>2021-03-28T09:43:59Z</time>
      </trkpt>
      <trkpt lat="42.78326" lon="2.77762">
        <ele>52.5</ele>
        <time>2021-03-28T09:43:59Z</time>
      </trkpt>
      <trkpt lat="42.78321" lon="2.77771">
        <ele>52.5</ele>
        <time>2021-03-28T09:44:00Z</time>
      </trkpt>
      <trkpt lat="42.78321" lon="2.77771">
        <ele>52.5</ele>
        <time>2021-03-28T09:44:00Z</time>
      </trkpt>
      <trkpt lat="42.78317" lon="2.7778">
        <ele>52.7</ele>
        <time>2021-03-28T09:44:01Z</time>
      </trkpt>
      <trkpt lat="42.78317" lon="2.7778">
        <ele>52.7</ele>
        <time>2021-03-28T09:44:01Z</time>
      </trkpt>
      <trkpt lat="42.78312" lon="2.77789">
        <ele>52.6</ele>
        <time>2021-03-28T09:44:03Z</time>
      </trkpt>
      <trkpt lat="42.78312" lon="2.77789">
        <ele>52.6</ele>
        <time>2021-03-28T09:44:03Z</time>
      </trkpt>
      <trkpt lat="42.78307" lon="2.77799">
        <ele>52.5</ele>
        <time>2021-03-28T09:44:05Z</time>
      </trkpt>
      <trkpt lat="42.78307" lon="2.77799">
        <ele>52.5</ele>
        <time>2021-03-28T09:44:05Z</time>
      </trkpt>
      <trkpt lat="42.78303" lon="2.77807">
        <ele>52.4</ele>
        <time>2021-03-28T09:44:06Z</time>
      </trkpt>
      <trkpt lat="42.78303" lon="2.77807">
        <ele>52.4</ele>
        <time>2021-03-28T09:44:06Z</time>
      </trkpt>
      <trkpt lat="42.78299" lon="2.77814">
        <ele>51.9</ele>
        <time>2021-03-28T09:44:07Z</time>
      </trkpt>
      <trkpt lat="42.78299" lon="2.77814">
        <ele>51.9</ele>
        <time>2021-03-28T09:44:07Z</time>
      </trkpt>
      <trkpt lat="42.78294" lon="2.77822">
        <ele>51.6</ele>
        <time>2021-03-28T09:44:09Z</time>
      </trkpt>
      <trkpt lat="42.78294" lon="2.77822">
        <ele>51.6</ele>
        <time>2021-03-28T09:44:09Z</time>
      </trkpt>
      <trkpt lat="42.78289" lon="2.77831">
        <ele>51.4</ele>
        <time>2021-03-28T09:44:11Z</time>
      </trkpt>
      <trkpt lat="42.78289" lon="2.77831">
        <ele>51.4</ele>
        <time>2021-03-28T09:44:11Z</time>
      </trkpt>
      <trkpt lat="42.78283" lon="2.77841">
        <ele>51.6</ele>
        <time>2021-03-28T09:44:13Z</time>
      </trkpt>
      <trkpt lat="42.78283" lon="2.77841">
        <ele>51.6</ele>
        <time>2021-03-28T09:44:13Z</time>
      </trkpt>
      <trkpt lat="42.78278" lon="2.77852">
        <ele>51.9</ele>
        <time>2021-03-28T09:44:15Z</time>
      </trkpt>
      <trkpt lat="42.78278" lon="2.77852">
        <ele>51.9</ele>
        <time>2021-03-28T09:44:15Z</time>
      </trkpt>
      <trkpt lat="42.78272" lon="2.77863">
        <ele>51.8</ele>
        <time>2021-03-28T09:44:17Z</time>
      </trkpt>
      <trkpt lat="42.78272" lon="2.77863">
        <ele>51.8</ele>
        <time>2021-03-28T09:44:17Z</time>
      </trkpt>
      <trkpt lat="42.78267" lon="2.77872">
        <ele>51.5</ele>
        <time>2021-03-28T09:44:18Z</time>
      </trkpt>
      <trkpt lat="42.78267" lon="2.77872">
        <ele>51.5</ele>
        <time>2021-03-28T09:44:18Z</time>
      </trkpt>
      <trkpt lat="42.78262" lon="2.77882">
        <ele>51.6</ele>
        <time>2021-03-28T09:44:20Z</time>
      </trkpt>
      <trkpt lat="42.78262" lon="2.77882">
        <ele>51.6</ele>
        <time>2021-03-28T09:44:20Z</time>
      </trkpt>
      <trkpt lat="42.78256" lon="2.77893">
        <ele>52</ele>
        <time>2021-03-28T09:44:22Z</time>
      </trkpt>
      <trkpt lat="42.78256" lon="2.77893">
        <ele>52</ele>
        <time>2021-03-28T09:44:22Z</time>
      </trkpt>
      <trkpt lat="42.78251" lon="2.77903">
        <ele>52.1</ele>
        <time>2021-03-28T09:44:23Z</time>
      </trkpt>
      <trkpt lat="42.78251" lon="2.77903">
        <ele>52.1</ele>
        <time>2021-03-28T09:44:23Z</time>
      </trkpt>
      <trkpt lat="42.78247" lon="2.77912">
        <ele>52.1</ele>
        <time>2021-03-28T09:44:24Z</time>
      </trkpt>
      <trkpt lat="42.78247" lon="2.77912">
        <ele>52.1</ele>
        <time>2021-03-28T09:44:24Z</time>
      </trkpt>
      <trkpt lat="42.78242" lon="2.77922">
        <ele>51.9</ele>
        <time>2021-03-28T09:44:26Z</time>
      </trkpt>
      <trkpt lat="42.78242" lon="2.77922">
        <ele>51.9</ele>
        <time>2021-03-28T09:44:26Z</time>
      </trkpt>
      <trkpt lat="42.78238" lon="2.77933">
        <ele>51.6</ele>
        <time>2021-03-28T09:44:28Z</time>
      </trkpt>
      <trkpt lat="42.78238" lon="2.77933">
        <ele>51.6</ele>
        <time>2021-03-28T09:44:28Z</time>
      </trkpt>
      <trkpt lat="42.78233" lon="2.77944">
        <ele>51.4</ele>
        <time>2021-03-28T09:44:30Z</time>
      </trkpt>
      <trkpt lat="42.78233" lon="2.77944">
        <ele>51.4</ele>
        <time>2021-03-28T09:44:30Z</time>
      </trkpt>
      <trkpt lat="42.78228" lon="2.77953">
        <ele>51.9</ele>
        <time>2021-03-28T09:44:31Z</time>
      </trkpt>
      <trkpt lat="42.78228" lon="2.77953">
        <ele>51.9</ele>
        <time>2021-03-28T09:44:31Z</time>
      </trkpt>
      <trkpt lat="42.78223" lon="2.77963">
        <ele>52.2</ele>
        <time>2021-03-28T09:44:33Z</time>
      </trkpt>
      <trkpt lat="42.78223" lon="2.77963">
        <ele>52.2</ele>
        <time>2021-03-28T09:44:33Z</time>
      </trkpt>
      <trkpt lat="42.78218" lon="2.77974">
        <ele>52.1</ele>
        <time>2021-03-28T09:44:35Z</time>
      </trkpt>
      <trkpt lat="42.78218" lon="2.77974">
        <ele>52.1</ele>
        <time>2021-03-28T09:44:35Z</time>
      </trkpt>
      <trkpt lat="42.78213" lon="2.77985">
        <ele>51.7</ele>
        <time>2021-03-28T09:44:37Z</time>
      </trkpt>
      <trkpt lat="42.78213" lon="2.77985">
        <ele>51.7</ele>
        <time>2021-03-28T09:44:37Z</time>
      </trkpt>
      <trkpt lat="42.78208" lon="2.77994">
        <ele>51.3</ele>
        <time>2021-03-28T09:44:38Z</time>
      </trkpt>
      <trkpt lat="42.78208" lon="2.77994">
        <ele>51.3</ele>
        <time>2021-03-28T09:44:38Z</time>
      </trkpt>
      <trkpt lat="42.78203" lon="2.78003">
        <ele>51.3</ele>
        <time>2021-03-28T09:44:40Z</time>
      </trkpt>
      <trkpt lat="42.78203" lon="2.78003">
        <ele>51.3</ele>
        <time>2021-03-28T09:44:40Z</time>
      </trkpt>
      <trkpt lat="42.78197" lon="2.78013">
        <ele>51.5</ele>
        <time>2021-03-28T09:44:42Z</time>
      </trkpt>
      <trkpt lat="42.78197" lon="2.78013">
        <ele>51.5</ele>
        <time>2021-03-28T09:44:42Z</time>
      </trkpt>
      <trkpt lat="42.78191" lon="2.78023">
        <ele>51.8</ele>
        <time>2021-03-28T09:44:44Z</time>
      </trkpt>
      <trkpt lat="42.78191" lon="2.78023">
        <ele>51.8</ele>
        <time>2021-03-28T09:44:44Z</time>
      </trkpt>
      <trkpt lat="42.78185" lon="2.78032">
        <ele>51.9</ele>
        <time>2021-03-28T09:44:45Z</time>
      </trkpt>
      <trkpt lat="42.78185" lon="2.78032">
        <ele>51.9</ele>
        <time>2021-03-28T09:44:45Z</time>
      </trkpt>
      <trkpt lat="42.78179" lon="2.7804">
        <ele>52.2</ele>
        <time>2021-03-28T09:44:47Z</time>
      </trkpt>
      <trkpt lat="42.78179" lon="2.7804">
        <ele>52.2</ele>
        <time>2021-03-28T09:44:47Z</time>
      </trkpt>
      <trkpt lat="42.78174" lon="2.78047">
        <ele>52.4</ele>
        <time>2021-03-28T09:44:48Z</time>
      </trkpt>
      <trkpt lat="42.78174" lon="2.78047">
        <ele>52.4</ele>
        <time>2021-03-28T09:44:48Z</time>
      </trkpt>
      <trkpt lat="42.78169" lon="2.78053">
        <ele>52.8</ele>
        <time>2021-03-28T09:44:49Z</time>
      </trkpt>
      <trkpt lat="42.78169" lon="2.78053">
        <ele>52.8</ele>
        <time>2021-03-28T09:44:49Z</time>
      </trkpt>
      <trkpt lat="42.78163" lon="2.7806">
        <ele>53.2</ele>
        <time>2021-03-28T09:44:51Z</time>
      </trkpt>
      <trkpt lat="42.78163" lon="2.7806">
        <ele>53.2</ele>
        <time>2021-03-28T09:44:51Z</time>
      </trkpt>
      <trkpt lat="42.78158" lon="2.78067">
        <ele>53.5</ele>
        <time>2021-03-28T09:44:52Z</time>
      </trkpt>
      <trkpt lat="42.78158" lon="2.78067">
        <ele>53.5</ele>
        <time>2021-03-28T09:44:52Z</time>
      </trkpt>
      <trkpt lat="42.78152" lon="2.78074">
        <ele>53.8</ele>
        <time>2021-03-28T09:44:54Z</time>
      </trkpt>
      <trkpt lat="42.78152" lon="2.78074">
        <ele>53.8</ele>
        <time>2021-03-28T09:44:54Z</time>
      </trkpt>
      <trkpt lat="42.78148" lon="2.7808">
        <ele>54</ele>
        <time>2021-03-28T09:44:55Z</time>
      </trkpt>
      <trkpt lat="42.78148" lon="2.7808">
        <ele>54</ele>
        <time>2021-03-28T09:44:55Z</time>
      </trkpt>
      <trkpt lat="42.78142" lon="2.78088">
        <ele>53.7</ele>
        <time>2021-03-28T09:44:57Z</time>
      </trkpt>
      <trkpt lat="42.78142" lon="2.78088">
        <ele>53.7</ele>
        <time>2021-03-28T09:44:57Z</time>
      </trkpt>
      <trkpt lat="42.78136" lon="2.78096">
        <ele>52.9</ele>
        <time>2021-03-28T09:44:59Z</time>
      </trkpt>
      <trkpt lat="42.78136" lon="2.78096">
        <ele>52.9</ele>
        <time>2021-03-28T09:44:59Z</time>
      </trkpt>
      <trkpt lat="42.78132" lon="2.78104">
        <ele>52.1</ele>
        <time>2021-03-28T09:45:00Z</time>
      </trkpt>
      <trkpt lat="42.78132" lon="2.78104">
        <ele>52.1</ele>
        <time>2021-03-28T09:45:00Z</time>
      </trkpt>
      <trkpt lat="42.78127" lon="2.78111">
        <ele>51.4</ele>
        <time>2021-03-28T09:45:01Z</time>
      </trkpt>
      <trkpt lat="42.78127" lon="2.78111">
        <ele>51.4</ele>
        <time>2021-03-28T09:45:01Z</time>
      </trkpt>
      <trkpt lat="42.78123" lon="2.78118">
        <ele>51.2</ele>
        <time>2021-03-28T09:45:03Z</time>
      </trkpt>
      <trkpt lat="42.78123" lon="2.78118">
        <ele>51.2</ele>
        <time>2021-03-28T09:45:03Z</time>
      </trkpt>
      <trkpt lat="42.78118" lon="2.78125">
        <ele>51.5</ele>
        <time>2021-03-28T09:45:04Z</time>
      </trkpt>
      <trkpt lat="42.78118" lon="2.78125">
        <ele>51.5</ele>
        <time>2021-03-28T09:45:04Z</time>
      </trkpt>
      <trkpt lat="42.78115" lon="2.7813">
        <ele>52.2</ele>
        <time>2021-03-28T09:45:05Z</time>
      </trkpt>
      <trkpt lat="42.78115" lon="2.7813">
        <ele>52.2</ele>
        <time>2021-03-28T09:45:05Z</time>
      </trkpt>
      <trkpt lat="42.78112" lon="2.78135">
        <ele>53.2</ele>
        <time>2021-03-28T09:45:06Z</time>
      </trkpt>
      <trkpt lat="42.78112" lon="2.78135">
        <ele>53.2</ele>
        <time>2021-03-28T09:45:06Z</time>
      </trkpt>
      <trkpt lat="42.78109" lon="2.78139">
        <ele>53.8</ele>
        <time>2021-03-28T09:45:07Z</time>
      </trkpt>
      <trkpt lat="42.78109" lon="2.78139">
        <ele>53.8</ele>
        <time>2021-03-28T09:45:07Z</time>
      </trkpt>
      <trkpt lat="42.78104" lon="2.78145">
        <ele>54.2</ele>
        <time>2021-03-28T09:45:09Z</time>
      </trkpt>
      <trkpt lat="42.78104" lon="2.78145">
        <ele>54.2</ele>
        <time>2021-03-28T09:45:09Z</time>
      </trkpt>
      <trkpt lat="42.781" lon="2.78151">
        <ele>54.5</ele>
        <time>2021-03-28T09:45:11Z</time>
      </trkpt>
      <trkpt lat="42.781" lon="2.78151">
        <ele>54.5</ele>
        <time>2021-03-28T09:45:11Z</time>
      </trkpt>
      <trkpt lat="42.78096" lon="2.78157">
        <ele>54.6</ele>
        <time>2021-03-28T09:45:12Z</time>
      </trkpt>
      <trkpt lat="42.78096" lon="2.78157">
        <ele>54.6</ele>
        <time>2021-03-28T09:45:12Z</time>
      </trkpt>
      <trkpt lat="42.78092" lon="2.78164">
        <ele>54.5</ele>
        <time>2021-03-28T09:45:14Z</time>
      </trkpt>
      <trkpt lat="42.78092" lon="2.78164">
        <ele>54.5</ele>
        <time>2021-03-28T09:45:14Z</time>
      </trkpt>
      <trkpt lat="42.78088" lon="2.78173">
        <ele>54.7</ele>
        <time>2021-03-28T09:45:16Z</time>
      </trkpt>
      <trkpt lat="42.78088" lon="2.78173">
        <ele>54.7</ele>
        <time>2021-03-28T09:45:16Z</time>
      </trkpt>
      <trkpt lat="42.78084" lon="2.78181">
        <ele>55.1</ele>
        <time>2021-03-28T09:45:18Z</time>
      </trkpt>
      <trkpt lat="42.78084" lon="2.78181">
        <ele>55.1</ele>
        <time>2021-03-28T09:45:18Z</time>
      </trkpt>
      <trkpt lat="42.7808" lon="2.78189">
        <ele>55.8</ele>
        <time>2021-03-28T09:45:19Z</time>
      </trkpt>
      <trkpt lat="42.7808" lon="2.78189">
        <ele>55.8</ele>
        <time>2021-03-28T09:45:19Z</time>
      </trkpt>
      <trkpt lat="42.78078" lon="2.78196">
        <ele>56.5</ele>
        <time>2021-03-28T09:45:20Z</time>
      </trkpt>
      <trkpt lat="42.78078" lon="2.78196">
        <ele>56.5</ele>
        <time>2021-03-28T09:45:20Z</time>
      </trkpt>
      <trkpt lat="42.78074" lon="2.78204">
        <ele>57.1</ele>
        <time>2021-03-28T09:45:22Z</time>
      </trkpt>
      <trkpt lat="42.78074" lon="2.78204">
        <ele>57.1</ele>
        <time>2021-03-28T09:45:22Z</time>
      </trkpt>
      <trkpt lat="42.78072" lon="2.78212">
        <ele>57.5</ele>
        <time>2021-03-28T09:45:23Z</time>
      </trkpt>
      <trkpt lat="42.78072" lon="2.78212">
        <ele>57.5</ele>
        <time>2021-03-28T09:45:23Z</time>
      </trkpt>
      <trkpt lat="42.78069" lon="2.78221">
        <ele>57.9</ele>
        <time>2021-03-28T09:45:25Z</time>
      </trkpt>
      <trkpt lat="42.78069" lon="2.78221">
        <ele>57.9</ele>
        <time>2021-03-28T09:45:25Z</time>
      </trkpt>
      <trkpt lat="42.78067" lon="2.7823">
        <ele>58.2</ele>
        <time>2021-03-28T09:45:27Z</time>
      </trkpt>
      <trkpt lat="42.78067" lon="2.7823">
        <ele>58.2</ele>
        <time>2021-03-28T09:45:27Z</time>
      </trkpt>
      <trkpt lat="42.78065" lon="2.7824">
        <ele>58.8</ele>
        <time>2021-03-28T09:45:29Z</time>
      </trkpt>
      <trkpt lat="42.78065" lon="2.7824">
        <ele>58.8</ele>
        <time>2021-03-28T09:45:29Z</time>
      </trkpt>
      <trkpt lat="42.78064" lon="2.78247">
        <ele>59.2</ele>
        <time>2021-03-28T09:45:30Z</time>
      </trkpt>
      <trkpt lat="42.78064" lon="2.78247">
        <ele>59.2</ele>
        <time>2021-03-28T09:45:30Z</time>
      </trkpt>
      <trkpt lat="42.78063" lon="2.78256">
        <ele>59.2</ele>
        <time>2021-03-28T09:45:32Z</time>
      </trkpt>
      <trkpt lat="42.78063" lon="2.78256">
        <ele>59.2</ele>
        <time>2021-03-28T09:45:32Z</time>
      </trkpt>
      <trkpt lat="42.78063" lon="2.78265">
        <ele>59</ele>
        <time>2021-03-28T09:45:34Z</time>
      </trkpt>
      <trkpt lat="42.78063" lon="2.78265">
        <ele>59</ele>
        <time>2021-03-28T09:45:34Z</time>
      </trkpt>
      <trkpt lat="42.78063" lon="2.78273">
        <ele>58.8</ele>
        <time>2021-03-28T09:45:35Z</time>
      </trkpt>
      <trkpt lat="42.78063" lon="2.78273">
        <ele>58.8</ele>
        <time>2021-03-28T09:45:35Z</time>
      </trkpt>
      <trkpt lat="42.78063" lon="2.78282">
        <ele>58.9</ele>
        <time>2021-03-28T09:45:37Z</time>
      </trkpt>
      <trkpt lat="42.78063" lon="2.78282">
        <ele>58.9</ele>
        <time>2021-03-28T09:45:37Z</time>
      </trkpt>
      <trkpt lat="42.78063" lon="2.78292">
        <ele>59.2</ele>
        <time>2021-03-28T09:45:39Z</time>
      </trkpt>
      <trkpt lat="42.78063" lon="2.78292">
        <ele>59.2</ele>
        <time>2021-03-28T09:45:39Z</time>
      </trkpt>
      <trkpt lat="42.78063" lon="2.783">
        <ele>59.4</ele>
        <time>2021-03-28T09:45:40Z</time>
      </trkpt>
      <trkpt lat="42.78063" lon="2.783">
        <ele>59.4</ele>
        <time>2021-03-28T09:45:40Z</time>
      </trkpt>
      <trkpt lat="42.78063" lon="2.78307">
        <ele>59.6</ele>
        <time>2021-03-28T09:45:41Z</time>
      </trkpt>
      <trkpt lat="42.78063" lon="2.78307">
        <ele>59.6</ele>
        <time>2021-03-28T09:45:41Z</time>
      </trkpt>
      <trkpt lat="42.78063" lon="2.78316">
        <ele>59.8</ele>
        <time>2021-03-28T09:45:43Z</time>
      </trkpt>
      <trkpt lat="42.78063" lon="2.78316">
        <ele>59.8</ele>
        <time>2021-03-28T09:45:43Z</time>
      </trkpt>
      <trkpt lat="42.78062" lon="2.78325">
        <ele>59.8</ele>
        <time>2021-03-28T09:45:45Z</time>
      </trkpt>
      <trkpt lat="42.78062" lon="2.78325">
        <ele>59.8</ele>
        <time>2021-03-28T09:45:45Z</time>
      </trkpt>
      <trkpt lat="42.78061" lon="2.78333">
        <ele>59.8</ele>
        <time>2021-03-28T09:45:46Z</time>
      </trkpt>
      <trkpt lat="42.78061" lon="2.78333">
        <ele>59.8</ele>
        <time>2021-03-28T09:45:46Z</time>
      </trkpt>
      <trkpt lat="42.7806" lon="2.7834">
        <ele>60</ele>
        <time>2021-03-28T09:45:47Z</time>
      </trkpt>
      <trkpt lat="42.7806" lon="2.7834">
        <ele>60</ele>
        <time>2021-03-28T09:45:47Z</time>
      </trkpt>
      <trkpt lat="42.78058" lon="2.78346">
        <ele>60.1</ele>
        <time>2021-03-28T09:45:48Z</time>
      </trkpt>
      <trkpt lat="42.78058" lon="2.78346">
        <ele>60.1</ele>
        <time>2021-03-28T09:45:48Z</time>
      </trkpt>
      <trkpt lat="42.78054" lon="2.78351">
        <ele>60.3</ele>
        <time>2021-03-28T09:45:50Z</time>
      </trkpt>
      <trkpt lat="42.78054" lon="2.78351">
        <ele>60.3</ele>
        <time>2021-03-28T09:45:50Z</time>
      </trkpt>
      <trkpt lat="42.78051" lon="2.78356">
        <ele>60.5</ele>
        <time>2021-03-28T09:45:51Z</time>
      </trkpt>
      <trkpt lat="42.78051" lon="2.78356">
        <ele>60.5</ele>
        <time>2021-03-28T09:45:51Z</time>
      </trkpt>
      <trkpt lat="42.78047" lon="2.7836">
        <ele>60.6</ele>
        <time>2021-03-28T09:45:53Z</time>
      </trkpt>
      <trkpt lat="42.78047" lon="2.7836">
        <ele>60.6</ele>
        <time>2021-03-28T09:45:53Z</time>
      </trkpt>
      <trkpt lat="42.78041" lon="2.78364">
        <ele>60.6</ele>
        <time>2021-03-28T09:45:55Z</time>
      </trkpt>
      <trkpt lat="42.78041" lon="2.78364">
        <ele>60.6</ele>
        <time>2021-03-28T09:45:55Z</time>
      </trkpt>
      <trkpt lat="42.78037" lon="2.78366">
        <ele>60.6</ele>
        <time>2021-03-28T09:45:56Z</time>
      </trkpt>
      <trkpt lat="42.78037" lon="2.78366">
        <ele>60.6</ele>
        <time>2021-03-28T09:45:56Z</time>
      </trkpt>
      <trkpt lat="42.78031" lon="2.78368">
        <ele>60.6</ele>
        <time>2021-03-28T09:45:58Z</time>
      </trkpt>
      <trkpt lat="42.78031" lon="2.78368">
        <ele>60.6</ele>
        <time>2021-03-28T09:45:58Z</time>
      </trkpt>
      <trkpt lat="42.78026" lon="2.78369">
        <ele>60.9</ele>
        <time>2021-03-28T09:45:59Z</time>
      </trkpt>
      <trkpt lat="42.78026" lon="2.78369">
        <ele>60.9</ele>
        <time>2021-03-28T09:45:59Z</time>
      </trkpt>
      <trkpt lat="42.78022" lon="2.78371">
        <ele>62</ele>
        <time>2021-03-28T09:46:01Z</time>
      </trkpt>
      <trkpt lat="42.78022" lon="2.78371">
        <ele>62</ele>
        <time>2021-03-28T09:46:01Z</time>
      </trkpt>
      <trkpt lat="42.78016" lon="2.78375">
        <ele>63</ele>
        <time>2021-03-28T09:46:03Z</time>
      </trkpt>
      <trkpt lat="42.78016" lon="2.78375">
        <ele>63</ele>
        <time>2021-03-28T09:46:03Z</time>
      </trkpt>
      <trkpt lat="42.78012" lon="2.78378">
        <ele>63.8</ele>
        <time>2021-03-28T09:46:04Z</time>
      </trkpt>
      <trkpt lat="42.78012" lon="2.78378">
        <ele>63.8</ele>
        <time>2021-03-28T09:46:04Z</time>
      </trkpt>
      <trkpt lat="42.78008" lon="2.78383">
        <ele>64.4</ele>
        <time>2021-03-28T09:46:06Z</time>
      </trkpt>
      <trkpt lat="42.78008" lon="2.78383">
        <ele>64.4</ele>
        <time>2021-03-28T09:46:06Z</time>
      </trkpt>
      <trkpt lat="42.78004" lon="2.7839">
        <ele>64.6</ele>
        <time>2021-03-28T09:46:08Z</time>
      </trkpt>
      <trkpt lat="42.78004" lon="2.7839">
        <ele>64.6</ele>
        <time>2021-03-28T09:46:08Z</time>
      </trkpt>
      <trkpt lat="42.78" lon="2.78397">
        <ele>64.7</ele>
        <time>2021-03-28T09:46:10Z</time>
      </trkpt>
      <trkpt lat="42.78" lon="2.78397">
        <ele>64.7</ele>
        <time>2021-03-28T09:46:10Z</time>
      </trkpt>
      <trkpt lat="42.77998" lon="2.78402">
        <ele>65</ele>
        <time>2021-03-28T09:46:11Z</time>
      </trkpt>
      <trkpt lat="42.77998" lon="2.78402">
        <ele>65</ele>
        <time>2021-03-28T09:46:11Z</time>
      </trkpt>
      <trkpt lat="42.77995" lon="2.78408">
        <ele>65.3</ele>
        <time>2021-03-28T09:46:13Z</time>
      </trkpt>
      <trkpt lat="42.77995" lon="2.78408">
        <ele>65.3</ele>
        <time>2021-03-28T09:46:13Z</time>
      </trkpt>
      <trkpt lat="42.77993" lon="2.78415">
        <ele>65.7</ele>
        <time>2021-03-28T09:46:15Z</time>
      </trkpt>
      <trkpt lat="42.77993" lon="2.78415">
        <ele>65.7</ele>
        <time>2021-03-28T09:46:15Z</time>
      </trkpt>
      <trkpt lat="42.7799" lon="2.78422">
        <ele>66.1</ele>
        <time>2021-03-28T09:46:17Z</time>
      </trkpt>
      <trkpt lat="42.7799" lon="2.78422">
        <ele>66.1</ele>
        <time>2021-03-28T09:46:17Z</time>
      </trkpt>
      <trkpt lat="42.77987" lon="2.7843">
        <ele>66.5</ele>
        <time>2021-03-28T09:46:19Z</time>
      </trkpt>
      <trkpt lat="42.77987" lon="2.7843">
        <ele>66.5</ele>
        <time>2021-03-28T09:46:19Z</time>
      </trkpt>
      <trkpt lat="42.77985" lon="2.78436">
        <ele>66.8</ele>
        <time>2021-03-28T09:46:20Z</time>
      </trkpt>
      <trkpt lat="42.77985" lon="2.78436">
        <ele>66.8</ele>
        <time>2021-03-28T09:46:20Z</time>
      </trkpt>
      <trkpt lat="42.77983" lon="2.78442">
        <ele>67.1</ele>
        <time>2021-03-28T09:46:21Z</time>
      </trkpt>
      <trkpt lat="42.77983" lon="2.78442">
        <ele>67.1</ele>
        <time>2021-03-28T09:46:21Z</time>
      </trkpt>
      <trkpt lat="42.77981" lon="2.78447">
        <ele>67.4</ele>
        <time>2021-03-28T09:46:23Z</time>
      </trkpt>
      <trkpt lat="42.77981" lon="2.78447">
        <ele>67.4</ele>
        <time>2021-03-28T09:46:23Z</time>
      </trkpt>
      <trkpt lat="42.77978" lon="2.78452">
        <ele>67.7</ele>
        <time>2021-03-28T09:46:24Z</time>
      </trkpt>
      <trkpt lat="42.77978" lon="2.78452">
        <ele>67.7</ele>
        <time>2021-03-28T09:46:24Z</time>
      </trkpt>
      <trkpt lat="42.77976" lon="2.78458">
        <ele>67.9</ele>
        <time>2021-03-28T09:46:26Z</time>
      </trkpt>
      <trkpt lat="42.77976" lon="2.78458">
        <ele>67.9</ele>
        <time>2021-03-28T09:46:26Z</time>
      </trkpt>
      <trkpt lat="42.77974" lon="2.78463">
        <ele>68.1</ele>
        <time>2021-03-28T09:46:27Z</time>
      </trkpt>
      <trkpt lat="42.77974" lon="2.78463">
        <ele>68.1</ele>
        <time>2021-03-28T09:46:27Z</time>
      </trkpt>
      <trkpt lat="42.77972" lon="2.78469">
        <ele>68.2</ele>
        <time>2021-03-28T09:46:29Z</time>
      </trkpt>
      <trkpt lat="42.77972" lon="2.78469">
        <ele>68.2</ele>
        <time>2021-03-28T09:46:29Z</time>
      </trkpt>
      <trkpt lat="42.7797" lon="2.78475">
        <ele>68.3</ele>
        <time>2021-03-28T09:46:30Z</time>
      </trkpt>
      <trkpt lat="42.7797" lon="2.78475">
        <ele>68.3</ele>
        <time>2021-03-28T09:46:30Z</time>
      </trkpt>
      <trkpt lat="42.77968" lon="2.7848">
        <ele>68.2</ele>
        <time>2021-03-28T09:46:31Z</time>
      </trkpt>
      <trkpt lat="42.77968" lon="2.7848">
        <ele>68.2</ele>
        <time>2021-03-28T09:46:31Z</time>
      </trkpt>
      <trkpt lat="42.77966" lon="2.78486">
        <ele>68.1</ele>
        <time>2021-03-28T09:46:33Z</time>
      </trkpt>
      <trkpt lat="42.77966" lon="2.78486">
        <ele>68.1</ele>
        <time>2021-03-28T09:46:33Z</time>
      </trkpt>
      <trkpt lat="42.77964" lon="2.78492">
        <ele>68.1</ele>
        <time>2021-03-28T09:46:34Z</time>
      </trkpt>
      <trkpt lat="42.77964" lon="2.78492">
        <ele>68.1</ele>
        <time>2021-03-28T09:46:34Z</time>
      </trkpt>
      <trkpt lat="42.77961" lon="2.785">
        <ele>68.1</ele>
        <time>2021-03-28T09:46:36Z</time>
      </trkpt>
      <trkpt lat="42.77961" lon="2.785">
        <ele>68.1</ele>
        <time>2021-03-28T09:46:36Z</time>
      </trkpt>
      <trkpt lat="42.77958" lon="2.78506">
        <ele>68.3</ele>
        <time>2021-03-28T09:46:37Z</time>
      </trkpt>
      <trkpt lat="42.77958" lon="2.78506">
        <ele>68.3</ele>
        <time>2021-03-28T09:46:37Z</time>
      </trkpt>
      <trkpt lat="42.77956" lon="2.78514">
        <ele>68.4</ele>
        <time>2021-03-28T09:46:39Z</time>
      </trkpt>
      <trkpt lat="42.77956" lon="2.78514">
        <ele>68.4</ele>
        <time>2021-03-28T09:46:39Z</time>
      </trkpt>
      <trkpt lat="42.77953" lon="2.78521">
        <ele>68.4</ele>
        <time>2021-03-28T09:46:40Z</time>
      </trkpt>
      <trkpt lat="42.77953" lon="2.78521">
        <ele>68.4</ele>
        <time>2021-03-28T09:46:40Z</time>
      </trkpt>
      <trkpt lat="42.7795" lon="2.78527">
        <ele>68.5</ele>
        <time>2021-03-28T09:46:41Z</time>
      </trkpt>
      <trkpt lat="42.7795" lon="2.78527">
        <ele>68.5</ele>
        <time>2021-03-28T09:46:41Z</time>
      </trkpt>
      <trkpt lat="42.77947" lon="2.78532">
        <ele>68.6</ele>
        <time>2021-03-28T09:46:42Z</time>
      </trkpt>
      <trkpt lat="42.77947" lon="2.78532">
        <ele>68.6</ele>
        <time>2021-03-28T09:46:42Z</time>
      </trkpt>
      <trkpt lat="42.77944" lon="2.78536">
        <ele>68.7</ele>
        <time>2021-03-28T09:46:43Z</time>
      </trkpt>
      <trkpt lat="42.77944" lon="2.78536">
        <ele>68.7</ele>
        <time>2021-03-28T09:46:43Z</time>
      </trkpt>
      <trkpt lat="42.77939" lon="2.7854">
        <ele>68.5</ele>
        <time>2021-03-28T09:46:45Z</time>
      </trkpt>
      <trkpt lat="42.77939" lon="2.7854">
        <ele>68.5</ele>
        <time>2021-03-28T09:46:45Z</time>
      </trkpt>
      <trkpt lat="42.77934" lon="2.78544">
        <ele>68.2</ele>
        <time>2021-03-28T09:46:47Z</time>
      </trkpt>
      <trkpt lat="42.77934" lon="2.78544">
        <ele>68.2</ele>
        <time>2021-03-28T09:46:47Z</time>
      </trkpt>
      <trkpt lat="42.77928" lon="2.78548">
        <ele>67.8</ele>
        <time>2021-03-28T09:46:49Z</time>
      </trkpt>
      <trkpt lat="42.77928" lon="2.78548">
        <ele>67.8</ele>
        <time>2021-03-28T09:46:49Z</time>
      </trkpt>
      <trkpt lat="42.7792" lon="2.78551">
        <ele>67.4</ele>
        <time>2021-03-28T09:46:51Z</time>
      </trkpt>
      <trkpt lat="42.7792" lon="2.78551">
        <ele>67.4</ele>
        <time>2021-03-28T09:46:51Z</time>
      </trkpt>
      <trkpt lat="42.77914" lon="2.78554">
        <ele>67</ele>
        <time>2021-03-28T09:46:52Z</time>
      </trkpt>
      <trkpt lat="42.77914" lon="2.78554">
        <ele>67</ele>
        <time>2021-03-28T09:46:52Z</time>
      </trkpt>
      <trkpt lat="42.77907" lon="2.78556">
        <ele>66.6</ele>
        <time>2021-03-28T09:46:54Z</time>
      </trkpt>
      <trkpt lat="42.77907" lon="2.78556">
        <ele>66.6</ele>
        <time>2021-03-28T09:46:54Z</time>
      </trkpt>
      <trkpt lat="42.77899" lon="2.78557">
        <ele>66.2</ele>
        <time>2021-03-28T09:46:56Z</time>
      </trkpt>
      <trkpt lat="42.77899" lon="2.78557">
        <ele>66.2</ele>
        <time>2021-03-28T09:46:56Z</time>
      </trkpt>
      <trkpt lat="42.77891" lon="2.78556">
        <ele>66</ele>
        <time>2021-03-28T09:46:58Z</time>
      </trkpt>
      <trkpt lat="42.77891" lon="2.78556">
        <ele>66</ele>
        <time>2021-03-28T09:46:58Z</time>
      </trkpt>
      <trkpt lat="42.77882" lon="2.78553">
        <ele>65.8</ele>
        <time>2021-03-28T09:47:00Z</time>
      </trkpt>
      <trkpt lat="42.77882" lon="2.78553">
        <ele>65.8</ele>
        <time>2021-03-28T09:47:00Z</time>
      </trkpt>
      <trkpt lat="42.77875" lon="2.7855">
        <ele>65.4</ele>
        <time>2021-03-28T09:47:01Z</time>
      </trkpt>
      <trkpt lat="42.77875" lon="2.7855">
        <ele>65.4</ele>
        <time>2021-03-28T09:47:01Z</time>
      </trkpt>
      <trkpt lat="42.77866" lon="2.78547">
        <ele>64.8</ele>
        <time>2021-03-28T09:47:03Z</time>
      </trkpt>
      <trkpt lat="42.77866" lon="2.78547">
        <ele>64.8</ele>
        <time>2021-03-28T09:47:03Z</time>
      </trkpt>
      <trkpt lat="42.77856" lon="2.78545">
        <ele>64</ele>
        <time>2021-03-28T09:47:05Z</time>
      </trkpt>
      <trkpt lat="42.77856" lon="2.78545">
        <ele>64</ele>
        <time>2021-03-28T09:47:05Z</time>
      </trkpt>
      <trkpt lat="42.77845" lon="2.78543">
        <ele>63.3</ele>
        <time>2021-03-28T09:47:07Z</time>
      </trkpt>
      <trkpt lat="42.77845" lon="2.78543">
        <ele>63.3</ele>
        <time>2021-03-28T09:47:07Z</time>
      </trkpt>
      <trkpt lat="42.77836" lon="2.78543">
        <ele>62.6</ele>
        <time>2021-03-28T09:47:08Z</time>
      </trkpt>
      <trkpt lat="42.77836" lon="2.78543">
        <ele>62.6</ele>
        <time>2021-03-28T09:47:08Z</time>
      </trkpt>
      <trkpt lat="42.77826" lon="2.78543">
        <ele>62.3</ele>
        <time>2021-03-28T09:47:10Z</time>
      </trkpt>
      <trkpt lat="42.77826" lon="2.78543">
        <ele>62.3</ele>
        <time>2021-03-28T09:47:10Z</time>
      </trkpt>
      <trkpt lat="42.77816" lon="2.78544">
        <ele>62.3</ele>
        <time>2021-03-28T09:47:12Z</time>
      </trkpt>
      <trkpt lat="42.77816" lon="2.78544">
        <ele>62.3</ele>
        <time>2021-03-28T09:47:12Z</time>
      </trkpt>
      <trkpt lat="42.77808" lon="2.78545">
        <ele>62.2</ele>
        <time>2021-03-28T09:47:13Z</time>
      </trkpt>
      <trkpt lat="42.77808" lon="2.78545">
        <ele>62.2</ele>
        <time>2021-03-28T09:47:13Z</time>
      </trkpt>
      <trkpt lat="42.77801" lon="2.78545">
        <ele>62.1</ele>
        <time>2021-03-28T09:47:14Z</time>
      </trkpt>
      <trkpt lat="42.77801" lon="2.78545">
        <ele>62.1</ele>
        <time>2021-03-28T09:47:14Z</time>
      </trkpt>
      <trkpt lat="42.77795" lon="2.78546">
        <ele>62</ele>
        <time>2021-03-28T09:47:15Z</time>
      </trkpt>
      <trkpt lat="42.77795" lon="2.78546">
        <ele>62</ele>
        <time>2021-03-28T09:47:15Z</time>
      </trkpt>
      <trkpt lat="42.77789" lon="2.78547">
        <ele>61.9</ele>
        <time>2021-03-28T09:47:16Z</time>
      </trkpt>
      <trkpt lat="42.77789" lon="2.78547">
        <ele>61.9</ele>
        <time>2021-03-28T09:47:16Z</time>
      </trkpt>
      <trkpt lat="42.77781" lon="2.78547">
        <ele>61.9</ele>
        <time>2021-03-28T09:47:18Z</time>
      </trkpt>
      <trkpt lat="42.77781" lon="2.78547">
        <ele>61.9</ele>
        <time>2021-03-28T09:47:18Z</time>
      </trkpt>
      <trkpt lat="42.77773" lon="2.78546">
        <ele>61.6</ele>
        <time>2021-03-28T09:47:19Z</time>
      </trkpt>
      <trkpt lat="42.77773" lon="2.78546">
        <ele>61.6</ele>
        <time>2021-03-28T09:47:19Z</time>
      </trkpt>
      <trkpt lat="42.77766" lon="2.78545">
        <ele>61.1</ele>
        <time>2021-03-28T09:47:21Z</time>
      </trkpt>
      <trkpt lat="42.77766" lon="2.78545">
        <ele>61.1</ele>
        <time>2021-03-28T09:47:21Z</time>
      </trkpt>
      <trkpt lat="42.77758" lon="2.78543">
        <ele>60.6</ele>
        <time>2021-03-28T09:47:23Z</time>
      </trkpt>
      <trkpt lat="42.77758" lon="2.78543">
        <ele>60.6</ele>
        <time>2021-03-28T09:47:23Z</time>
      </trkpt>
      <trkpt lat="42.77751" lon="2.78541">
        <ele>60.1</ele>
        <time>2021-03-28T09:47:24Z</time>
      </trkpt>
      <trkpt lat="42.77751" lon="2.78541">
        <ele>60.1</ele>
        <time>2021-03-28T09:47:24Z</time>
      </trkpt>
      <trkpt lat="42.77746" lon="2.78541">
        <ele>59.9</ele>
        <time>2021-03-28T09:47:25Z</time>
      </trkpt>
      <trkpt lat="42.77746" lon="2.78541">
        <ele>59.9</ele>
        <time>2021-03-28T09:47:25Z</time>
      </trkpt>
      <trkpt lat="42.77741" lon="2.78543">
        <ele>59.6</ele>
        <time>2021-03-28T09:47:26Z</time>
      </trkpt>
      <trkpt lat="42.77741" lon="2.78543">
        <ele>59.6</ele>
        <time>2021-03-28T09:47:26Z</time>
      </trkpt>
      <trkpt lat="42.77736" lon="2.78547">
        <ele>59.1</ele>
        <time>2021-03-28T09:47:27Z</time>
      </trkpt>
      <trkpt lat="42.77736" lon="2.78547">
        <ele>59.1</ele>
        <time>2021-03-28T09:47:27Z</time>
      </trkpt>
      <trkpt lat="42.77732" lon="2.78553">
        <ele>58.5</ele>
        <time>2021-03-28T09:47:29Z</time>
      </trkpt>
      <trkpt lat="42.77732" lon="2.78553">
        <ele>58.5</ele>
        <time>2021-03-28T09:47:29Z</time>
      </trkpt>
      <trkpt lat="42.77729" lon="2.7856">
        <ele>58.1</ele>
        <time>2021-03-28T09:47:30Z</time>
      </trkpt>
      <trkpt lat="42.77729" lon="2.7856">
        <ele>58.1</ele>
        <time>2021-03-28T09:47:30Z</time>
      </trkpt>
      <trkpt lat="42.77727" lon="2.78566">
        <ele>57.7</ele>
        <time>2021-03-28T09:47:31Z</time>
      </trkpt>
      <trkpt lat="42.77727" lon="2.78566">
        <ele>57.7</ele>
        <time>2021-03-28T09:47:31Z</time>
      </trkpt>
      <trkpt lat="42.77728" lon="2.78575">
        <ele>57.4</ele>
        <time>2021-03-28T09:47:33Z</time>
      </trkpt>
      <trkpt lat="42.77728" lon="2.78575">
        <ele>57.4</ele>
        <time>2021-03-28T09:47:33Z</time>
      </trkpt>
      <trkpt lat="42.77733" lon="2.78584">
        <ele>56.9</ele>
        <time>2021-03-28T09:47:35Z</time>
      </trkpt>
      <trkpt lat="42.77733" lon="2.78584">
        <ele>56.9</ele>
        <time>2021-03-28T09:47:35Z</time>
      </trkpt>
      <trkpt lat="42.77738" lon="2.78592">
        <ele>56.2</ele>
        <time>2021-03-28T09:47:37Z</time>
      </trkpt>
      <trkpt lat="42.77738" lon="2.78592">
        <ele>56.2</ele>
        <time>2021-03-28T09:47:37Z</time>
      </trkpt>
      <trkpt lat="42.77744" lon="2.78598">
        <ele>55.8</ele>
        <time>2021-03-28T09:47:38Z</time>
      </trkpt>
      <trkpt lat="42.77744" lon="2.78598">
        <ele>55.8</ele>
        <time>2021-03-28T09:47:38Z</time>
      </trkpt>
      <trkpt lat="42.7775" lon="2.78603">
        <ele>55.6</ele>
        <time>2021-03-28T09:47:40Z</time>
      </trkpt>
      <trkpt lat="42.7775" lon="2.78603">
        <ele>55.6</ele>
        <time>2021-03-28T09:47:40Z</time>
      </trkpt>
      <trkpt lat="42.77756" lon="2.78608">
        <ele>55.4</ele>
        <time>2021-03-28T09:47:41Z</time>
      </trkpt>
      <trkpt lat="42.77756" lon="2.78608">
        <ele>55.4</ele>
        <time>2021-03-28T09:47:41Z</time>
      </trkpt>
      <trkpt lat="42.77763" lon="2.78612">
        <ele>55.4</ele>
        <time>2021-03-28T09:47:43Z</time>
      </trkpt>
      <trkpt lat="42.77763" lon="2.78612">
        <ele>55.4</ele>
        <time>2021-03-28T09:47:43Z</time>
      </trkpt>
      <trkpt lat="42.77769" lon="2.78616">
        <ele>55.2</ele>
        <time>2021-03-28T09:47:44Z</time>
      </trkpt>
      <trkpt lat="42.77769" lon="2.78616">
        <ele>55.2</ele>
        <time>2021-03-28T09:47:44Z</time>
      </trkpt>
      <trkpt lat="42.77775" lon="2.7862">
        <ele>55</ele>
        <time>2021-03-28T09:47:46Z</time>
      </trkpt>
      <trkpt lat="42.77775" lon="2.7862">
        <ele>55</ele>
        <time>2021-03-28T09:47:46Z</time>
      </trkpt>
      <trkpt lat="42.77781" lon="2.78622">
        <ele>54.8</ele>
        <time>2021-03-28T09:47:47Z</time>
      </trkpt>
      <trkpt lat="42.77781" lon="2.78622">
        <ele>54.8</ele>
        <time>2021-03-28T09:47:47Z</time>
      </trkpt>
      <trkpt lat="42.77786" lon="2.78625">
        <ele>54.6</ele>
        <time>2021-03-28T09:47:48Z</time>
      </trkpt>
      <trkpt lat="42.77786" lon="2.78625">
        <ele>54.6</ele>
        <time>2021-03-28T09:47:48Z</time>
      </trkpt>
      <trkpt lat="42.77791" lon="2.78628">
        <ele>54.5</ele>
        <time>2021-03-28T09:47:49Z</time>
      </trkpt>
      <trkpt lat="42.77791" lon="2.78628">
        <ele>54.5</ele>
        <time>2021-03-28T09:47:49Z</time>
      </trkpt>
      <trkpt lat="42.77797" lon="2.78631">
        <ele>54.3</ele>
        <time>2021-03-28T09:47:51Z</time>
      </trkpt>
      <trkpt lat="42.77797" lon="2.78631">
        <ele>54.3</ele>
        <time>2021-03-28T09:47:51Z</time>
      </trkpt>
      <trkpt lat="42.77804" lon="2.78636">
        <ele>54.2</ele>
        <time>2021-03-28T09:47:53Z</time>
      </trkpt>
      <trkpt lat="42.77804" lon="2.78636">
        <ele>54.2</ele>
        <time>2021-03-28T09:47:53Z</time>
      </trkpt>
      <trkpt lat="42.77811" lon="2.7864">
        <ele>53.9</ele>
        <time>2021-03-28T09:47:54Z</time>
      </trkpt>
      <trkpt lat="42.77811" lon="2.7864">
        <ele>53.9</ele>
        <time>2021-03-28T09:47:54Z</time>
      </trkpt>
      <trkpt lat="42.77817" lon="2.78645">
        <ele>53.6</ele>
        <time>2021-03-28T09:47:55Z</time>
      </trkpt>
      <trkpt lat="42.77817" lon="2.78645">
        <ele>53.6</ele>
        <time>2021-03-28T09:47:55Z</time>
      </trkpt>
      <trkpt lat="42.77824" lon="2.7865">
        <ele>53.2</ele>
        <time>2021-03-28T09:47:57Z</time>
      </trkpt>
      <trkpt lat="42.77824" lon="2.7865">
        <ele>53.2</ele>
        <time>2021-03-28T09:47:57Z</time>
      </trkpt>
      <trkpt lat="42.77831" lon="2.78656">
        <ele>52.7</ele>
        <time>2021-03-28T09:47:59Z</time>
      </trkpt>
      <trkpt lat="42.77831" lon="2.78656">
        <ele>52.7</ele>
        <time>2021-03-28T09:47:59Z</time>
      </trkpt>
      <trkpt lat="42.77836" lon="2.78662">
        <ele>52.4</ele>
        <time>2021-03-28T09:48:00Z</time>
      </trkpt>
      <trkpt lat="42.77836" lon="2.78662">
        <ele>52.4</ele>
        <time>2021-03-28T09:48:00Z</time>
      </trkpt>
      <trkpt lat="42.77841" lon="2.78669">
        <ele>52.1</ele>
        <time>2021-03-28T09:48:02Z</time>
      </trkpt>
      <trkpt lat="42.77841" lon="2.78669">
        <ele>52.1</ele>
        <time>2021-03-28T09:48:02Z</time>
      </trkpt>
      <trkpt lat="42.77846" lon="2.78677">
        <ele>51.9</ele>
        <time>2021-03-28T09:48:04Z</time>
      </trkpt>
      <trkpt lat="42.77846" lon="2.78677">
        <ele>51.9</ele>
        <time>2021-03-28T09:48:04Z</time>
      </trkpt>
      <trkpt lat="42.77851" lon="2.78685">
        <ele>51.5</ele>
        <time>2021-03-28T09:48:06Z</time>
      </trkpt>
      <trkpt lat="42.77851" lon="2.78685">
        <ele>51.5</ele>
        <time>2021-03-28T09:48:06Z</time>
      </trkpt>
      <trkpt lat="42.77856" lon="2.78692">
        <ele>51.2</ele>
        <time>2021-03-28T09:48:08Z</time>
      </trkpt>
      <trkpt lat="42.77856" lon="2.78692">
        <ele>51.2</ele>
        <time>2021-03-28T09:48:08Z</time>
      </trkpt>
      <trkpt lat="42.7786" lon="2.78697">
        <ele>50.8</ele>
        <time>2021-03-28T09:48:09Z</time>
      </trkpt>
      <trkpt lat="42.7786" lon="2.78697">
        <ele>50.8</ele>
        <time>2021-03-28T09:48:09Z</time>
      </trkpt>
      <trkpt lat="42.77863" lon="2.78702">
        <ele>50.6</ele>
        <time>2021-03-28T09:48:10Z</time>
      </trkpt>
      <trkpt lat="42.77863" lon="2.78702">
        <ele>50.6</ele>
        <time>2021-03-28T09:48:10Z</time>
      </trkpt>
      <trkpt lat="42.77865" lon="2.78705">
        <ele>50.6</ele>
        <time>2021-03-28T09:48:12Z</time>
      </trkpt>
      <trkpt lat="42.77865" lon="2.78705">
        <ele>50.6</ele>
        <time>2021-03-28T09:48:12Z</time>
      </trkpt>
      <trkpt lat="42.77868" lon="2.78709">
        <ele>50.6</ele>
        <time>2021-03-28T09:48:13Z</time>
      </trkpt>
      <trkpt lat="42.77868" lon="2.78709">
        <ele>50.6</ele>
        <time>2021-03-28T09:48:13Z</time>
      </trkpt>
      <trkpt lat="42.77871" lon="2.78714">
        <ele>50.4</ele>
        <time>2021-03-28T09:48:15Z</time>
      </trkpt>
      <trkpt lat="42.77871" lon="2.78714">
        <ele>50.4</ele>
        <time>2021-03-28T09:48:15Z</time>
      </trkpt>
      <trkpt lat="42.77875" lon="2.78721">
        <ele>50.1</ele>
        <time>2021-03-28T09:48:17Z</time>
      </trkpt>
      <trkpt lat="42.77875" lon="2.78721">
        <ele>50.1</ele>
        <time>2021-03-28T09:48:17Z</time>
      </trkpt>
      <trkpt lat="42.77878" lon="2.78726">
        <ele>49.9</ele>
        <time>2021-03-28T09:48:18Z</time>
      </trkpt>
      <trkpt lat="42.77878" lon="2.78726">
        <ele>49.9</ele>
        <time>2021-03-28T09:48:18Z</time>
      </trkpt>
      <trkpt lat="42.7788" lon="2.78734">
        <ele>49.5</ele>
        <time>2021-03-28T09:48:20Z</time>
      </trkpt>
      <trkpt lat="42.7788" lon="2.78734">
        <ele>49.5</ele>
        <time>2021-03-28T09:48:20Z</time>
      </trkpt>
      <trkpt lat="42.77881" lon="2.78741">
        <ele>49</ele>
        <time>2021-03-28T09:48:21Z</time>
      </trkpt>
      <trkpt lat="42.77881" lon="2.78741">
        <ele>49</ele>
        <time>2021-03-28T09:48:21Z</time>
      </trkpt>
      <trkpt lat="42.7788" lon="2.78751">
        <ele>48</ele>
        <time>2021-03-28T09:48:23Z</time>
      </trkpt>
      <trkpt lat="42.7788" lon="2.78751">
        <ele>48</ele>
        <time>2021-03-28T09:48:23Z</time>
      </trkpt>
      <trkpt lat="42.77879" lon="2.78763">
        <ele>45.2</ele>
        <time>2021-03-28T09:48:25Z</time>
      </trkpt>
      <trkpt lat="42.77879" lon="2.78763">
        <ele>45.2</ele>
        <time>2021-03-28T09:48:25Z</time>
      </trkpt>
      <trkpt lat="42.77878" lon="2.78775">
        <ele>42.5</ele>
        <time>2021-03-28T09:48:26Z</time>
      </trkpt>
      <trkpt lat="42.77878" lon="2.78775">
        <ele>42.5</ele>
        <time>2021-03-28T09:48:26Z</time>
      </trkpt>
      <trkpt lat="42.77876" lon="2.78786">
        <ele>40.3</ele>
        <time>2021-03-28T09:48:27Z</time>
      </trkpt>
      <trkpt lat="42.77876" lon="2.78786">
        <ele>40.3</ele>
        <time>2021-03-28T09:48:27Z</time>
      </trkpt>
      <trkpt lat="42.77875" lon="2.78797">
        <ele>38.2</ele>
        <time>2021-03-28T09:48:28Z</time>
      </trkpt>
      <trkpt lat="42.77875" lon="2.78797">
        <ele>38.2</ele>
        <time>2021-03-28T09:48:28Z</time>
      </trkpt>
      <trkpt lat="42.77875" lon="2.78808">
        <ele>36.4</ele>
        <time>2021-03-28T09:48:29Z</time>
      </trkpt>
      <trkpt lat="42.77875" lon="2.78808">
        <ele>36.4</ele>
        <time>2021-03-28T09:48:29Z</time>
      </trkpt>
      <trkpt lat="42.77873" lon="2.78819">
        <ele>36</ele>
        <time>2021-03-28T09:48:31Z</time>
      </trkpt>
      <trkpt lat="42.77873" lon="2.78819">
        <ele>36</ele>
        <time>2021-03-28T09:48:31Z</time>
      </trkpt>
      <trkpt lat="42.77872" lon="2.78833">
        <ele>35.4</ele>
        <time>2021-03-28T09:48:33Z</time>
      </trkpt>
      <trkpt lat="42.77872" lon="2.78833">
        <ele>35.4</ele>
        <time>2021-03-28T09:48:33Z</time>
      </trkpt>
      <trkpt lat="42.77871" lon="2.78844">
        <ele>35.8</ele>
        <time>2021-03-28T09:48:34Z</time>
      </trkpt>
      <trkpt lat="42.77871" lon="2.78844">
        <ele>35.8</ele>
        <time>2021-03-28T09:48:34Z</time>
      </trkpt>
      <trkpt lat="42.7787" lon="2.78857">
        <ele>36.3</ele>
        <time>2021-03-28T09:48:36Z</time>
      </trkpt>
      <trkpt lat="42.7787" lon="2.78857">
        <ele>36.3</ele>
        <time>2021-03-28T09:48:36Z</time>
      </trkpt>
      <trkpt lat="42.77869" lon="2.78869">
        <ele>37.3</ele>
        <time>2021-03-28T09:48:37Z</time>
      </trkpt>
      <trkpt lat="42.77869" lon="2.78869">
        <ele>37.3</ele>
        <time>2021-03-28T09:48:37Z</time>
      </trkpt>
      <trkpt lat="42.77868" lon="2.7888">
        <ele>38.4</ele>
        <time>2021-03-28T09:48:39Z</time>
      </trkpt>
      <trkpt lat="42.77868" lon="2.7888">
        <ele>38.4</ele>
        <time>2021-03-28T09:48:39Z</time>
      </trkpt>
      <trkpt lat="42.77867" lon="2.7889">
        <ele>39.3</ele>
        <time>2021-03-28T09:48:40Z</time>
      </trkpt>
      <trkpt lat="42.77867" lon="2.7889">
        <ele>39.3</ele>
        <time>2021-03-28T09:48:40Z</time>
      </trkpt>
      <trkpt lat="42.77866" lon="2.78901">
        <ele>40</ele>
        <time>2021-03-28T09:48:42Z</time>
      </trkpt>
      <trkpt lat="42.77866" lon="2.78901">
        <ele>40</ele>
        <time>2021-03-28T09:48:42Z</time>
      </trkpt>
      <trkpt lat="42.77865" lon="2.7891">
        <ele>40.5</ele>
        <time>2021-03-28T09:48:43Z</time>
      </trkpt>
      <trkpt lat="42.77865" lon="2.7891">
        <ele>40.5</ele>
        <time>2021-03-28T09:48:43Z</time>
      </trkpt>
      <trkpt lat="42.77864" lon="2.78919">
        <ele>41.2</ele>
        <time>2021-03-28T09:48:45Z</time>
      </trkpt>
      <trkpt lat="42.77864" lon="2.78919">
        <ele>41.2</ele>
        <time>2021-03-28T09:48:45Z</time>
      </trkpt>
      <trkpt lat="42.77863" lon="2.78927">
        <ele>42</ele>
        <time>2021-03-28T09:48:46Z</time>
      </trkpt>
      <trkpt lat="42.77863" lon="2.78927">
        <ele>42</ele>
        <time>2021-03-28T09:48:46Z</time>
      </trkpt>
      <trkpt lat="42.77862" lon="2.78935">
        <ele>42.9</ele>
        <time>2021-03-28T09:48:48Z</time>
      </trkpt>
      <trkpt lat="42.77862" lon="2.78935">
        <ele>42.9</ele>
        <time>2021-03-28T09:48:48Z</time>
      </trkpt>
      <trkpt lat="42.77861" lon="2.78941">
        <ele>43.6</ele>
        <time>2021-03-28T09:48:49Z</time>
      </trkpt>
      <trkpt lat="42.77861" lon="2.78941">
        <ele>43.6</ele>
        <time>2021-03-28T09:48:49Z</time>
      </trkpt>
      <trkpt lat="42.7786" lon="2.78945">
        <ele>44.1</ele>
        <time>2021-03-28T09:48:51Z</time>
      </trkpt>
      <trkpt lat="42.7786" lon="2.78945">
        <ele>44.1</ele>
        <time>2021-03-28T09:48:51Z</time>
      </trkpt>
      <trkpt lat="42.77858" lon="2.78953">
        <ele>44.7</ele>
        <time>2021-03-28T09:48:54Z</time>
      </trkpt>
      <trkpt lat="42.77858" lon="2.78953">
        <ele>44.7</ele>
        <time>2021-03-28T09:48:54Z</time>
      </trkpt>
      <trkpt lat="42.77858" lon="2.78952">
        <ele>44.6</ele>
        <time>2021-03-28T09:48:56Z</time>
      </trkpt>
      <trkpt lat="42.77858" lon="2.78952">
        <ele>44.6</ele>
        <time>2021-03-28T09:48:56Z</time>
      </trkpt>
      <trkpt lat="42.77858" lon="2.78952">
        <ele>44.6</ele>
        <time>2021-03-28T09:48:57Z</time>
      </trkpt>
      <trkpt lat="42.77858" lon="2.78952">
        <ele>44.6</ele>
        <time>2021-03-28T09:48:57Z</time>
      </trkpt>
      <trkpt lat="42.77851" lon="2.78965">
        <ele>45.6</ele>
        <time>2021-03-28T09:49:20Z</time>
      </trkpt>
      <trkpt lat="42.77851" lon="2.78965">
        <ele>45.6</ele>
        <time>2021-03-28T09:49:20Z</time>
      </trkpt>
      <trkpt lat="42.77851" lon="2.78965">
        <ele>45.6</ele>
        <time>2021-03-28T09:49:22Z</time>
      </trkpt>
      <trkpt lat="42.77851" lon="2.78965">
        <ele>45.6</ele>
        <time>2021-03-28T09:49:22Z</time>
      </trkpt>
      <trkpt lat="42.77851" lon="2.78965">
        <ele>45.6</ele>
        <time>2021-03-28T09:49:23Z</time>
      </trkpt>
      <trkpt lat="42.77851" lon="2.78965">
        <ele>45.6</ele>
        <time>2021-03-28T09:49:23Z</time>
      </trkpt>
      <trkpt lat="42.77851" lon="2.78965">
        <ele>45.6</ele>
        <time>2021-03-28T09:49:24Z</time>
      </trkpt>
      <trkpt lat="42.77851" lon="2.78965">
        <ele>45.6</ele>
        <time>2021-03-28T09:49:24Z</time>
      </trkpt>
      <trkpt lat="42.77851" lon="2.78964">
        <ele>45.5</ele>
        <time>2021-03-28T09:49:26Z</time>
      </trkpt>
      <trkpt lat="42.77851" lon="2.78964">
        <ele>45.5</ele>
        <time>2021-03-28T09:49:26Z</time>
      </trkpt>
      <trkpt lat="42.77852" lon="2.78966">
        <ele>45.6</ele>
        <time>2021-03-28T09:49:42Z</time>
      </trkpt>
      <trkpt lat="42.77852" lon="2.78966">
        <ele>45.6</ele>
        <time>2021-03-28T09:49:42Z</time>
      </trkpt>
      <trkpt lat="42.77851" lon="2.78965">
        <ele>45.6</ele>
        <time>2021-03-28T09:49:44Z</time>
      </trkpt>
      <trkpt lat="42.77851" lon="2.78965">
        <ele>45.6</ele>
        <time>2021-03-28T09:49:44Z</time>
      </trkpt>
      <trkpt lat="42.77848" lon="2.78964">
        <ele>45.6</ele>
        <time>2021-03-28T09:49:46Z</time>
      </trkpt>
      <trkpt lat="42.77848" lon="2.78964">
        <ele>45.6</ele>
        <time>2021-03-28T09:49:46Z</time>
      </trkpt>
      <trkpt lat="42.77845" lon="2.78963">
        <ele>45.5</ele>
        <time>2021-03-28T09:49:47Z</time>
      </trkpt>
      <trkpt lat="42.77845" lon="2.78963">
        <ele>45.5</ele>
        <time>2021-03-28T09:49:47Z</time>
      </trkpt>
      <trkpt lat="42.7784" lon="2.78961">
        <ele>45.5</ele>
        <time>2021-03-28T09:49:49Z</time>
      </trkpt>
      <trkpt lat="42.7784" lon="2.78961">
        <ele>45.5</ele>
        <time>2021-03-28T09:49:49Z</time>
      </trkpt>
      <trkpt lat="42.77834" lon="2.78958">
        <ele>45.5</ele>
        <time>2021-03-28T09:49:51Z</time>
      </trkpt>
      <trkpt lat="42.77834" lon="2.78958">
        <ele>45.5</ele>
        <time>2021-03-28T09:49:51Z</time>
      </trkpt>
      <trkpt lat="42.77827" lon="2.78955">
        <ele>45.6</ele>
        <time>2021-03-28T09:49:52Z</time>
      </trkpt>
      <trkpt lat="42.77827" lon="2.78955">
        <ele>45.6</ele>
        <time>2021-03-28T09:49:52Z</time>
      </trkpt>
      <trkpt lat="42.77821" lon="2.78953">
        <ele>45.7</ele>
        <time>2021-03-28T09:49:53Z</time>
      </trkpt>
      <trkpt lat="42.77821" lon="2.78953">
        <ele>45.7</ele>
        <time>2021-03-28T09:49:53Z</time>
      </trkpt>
      <trkpt lat="42.77814" lon="2.7895">
        <ele>45.9</ele>
        <time>2021-03-28T09:49:55Z</time>
      </trkpt>
      <trkpt lat="42.77814" lon="2.7895">
        <ele>45.9</ele>
        <time>2021-03-28T09:49:55Z</time>
      </trkpt>
      <trkpt lat="42.77806" lon="2.78947">
        <ele>46.1</ele>
        <time>2021-03-28T09:49:57Z</time>
      </trkpt>
      <trkpt lat="42.77806" lon="2.78947">
        <ele>46.1</ele>
        <time>2021-03-28T09:49:57Z</time>
      </trkpt>
      <trkpt lat="42.77799" lon="2.78944">
        <ele>45.9</ele>
        <time>2021-03-28T09:49:58Z</time>
      </trkpt>
      <trkpt lat="42.77799" lon="2.78944">
        <ele>45.9</ele>
        <time>2021-03-28T09:49:58Z</time>
      </trkpt>
      <trkpt lat="42.77791" lon="2.7894">
        <ele>45.7</ele>
        <time>2021-03-28T09:50:00Z</time>
      </trkpt>
      <trkpt lat="42.77791" lon="2.7894">
        <ele>45.7</ele>
        <time>2021-03-28T09:50:00Z</time>
      </trkpt>
      <trkpt lat="42.77783" lon="2.78936">
        <ele>45.4</ele>
        <time>2021-03-28T09:50:02Z</time>
      </trkpt>
      <trkpt lat="42.77783" lon="2.78936">
        <ele>45.4</ele>
        <time>2021-03-28T09:50:02Z</time>
      </trkpt>
      <trkpt lat="42.77776" lon="2.78933">
        <ele>45.2</ele>
        <time>2021-03-28T09:50:03Z</time>
      </trkpt>
      <trkpt lat="42.77776" lon="2.78933">
        <ele>45.2</ele>
        <time>2021-03-28T09:50:03Z</time>
      </trkpt>
      <trkpt lat="42.7777" lon="2.7893">
        <ele>45.2</ele>
        <time>2021-03-28T09:50:04Z</time>
      </trkpt>
      <trkpt lat="42.7777" lon="2.7893">
        <ele>45.2</ele>
        <time>2021-03-28T09:50:04Z</time>
      </trkpt>
      <trkpt lat="42.77763" lon="2.78927">
        <ele>45.4</ele>
        <time>2021-03-28T09:50:06Z</time>
      </trkpt>
      <trkpt lat="42.77763" lon="2.78927">
        <ele>45.4</ele>
        <time>2021-03-28T09:50:06Z</time>
      </trkpt>
      <trkpt lat="42.77757" lon="2.78925">
        <ele>45.6</ele>
        <time>2021-03-28T09:50:07Z</time>
      </trkpt>
      <trkpt lat="42.77757" lon="2.78925">
        <ele>45.6</ele>
        <time>2021-03-28T09:50:07Z</time>
      </trkpt>
      <trkpt lat="42.7775" lon="2.78921">
        <ele>46</ele>
        <time>2021-03-28T09:50:09Z</time>
      </trkpt>
      <trkpt lat="42.7775" lon="2.78921">
        <ele>46</ele>
        <time>2021-03-28T09:50:09Z</time>
      </trkpt>
      <trkpt lat="42.77744" lon="2.78919">
        <ele>46.2</ele>
        <time>2021-03-28T09:50:10Z</time>
      </trkpt>
      <trkpt lat="42.77744" lon="2.78919">
        <ele>46.2</ele>
        <time>2021-03-28T09:50:10Z</time>
      </trkpt>
      <trkpt lat="42.77737" lon="2.78915">
        <ele>46.3</ele>
        <time>2021-03-28T09:50:12Z</time>
      </trkpt>
      <trkpt lat="42.77737" lon="2.78915">
        <ele>46.3</ele>
        <time>2021-03-28T09:50:12Z</time>
      </trkpt>
      <trkpt lat="42.77731" lon="2.78912">
        <ele>46.1</ele>
        <time>2021-03-28T09:50:13Z</time>
      </trkpt>
      <trkpt lat="42.77731" lon="2.78912">
        <ele>46.1</ele>
        <time>2021-03-28T09:50:13Z</time>
      </trkpt>
      <trkpt lat="42.77724" lon="2.78909">
        <ele>46.1</ele>
        <time>2021-03-28T09:50:15Z</time>
      </trkpt>
      <trkpt lat="42.77724" lon="2.78909">
        <ele>46.1</ele>
        <time>2021-03-28T09:50:15Z</time>
      </trkpt>
      <trkpt lat="42.77717" lon="2.78907">
        <ele>46.3</ele>
        <time>2021-03-28T09:50:17Z</time>
      </trkpt>
      <trkpt lat="42.77717" lon="2.78907">
        <ele>46.3</ele>
        <time>2021-03-28T09:50:17Z</time>
      </trkpt>
      <trkpt lat="42.77711" lon="2.78904">
        <ele>46.6</ele>
        <time>2021-03-28T09:50:18Z</time>
      </trkpt>
      <trkpt lat="42.77711" lon="2.78904">
        <ele>46.6</ele>
        <time>2021-03-28T09:50:18Z</time>
      </trkpt>
      <trkpt lat="42.77704" lon="2.789">
        <ele>46.9</ele>
        <time>2021-03-28T09:50:20Z</time>
      </trkpt>
      <trkpt lat="42.77704" lon="2.789">
        <ele>46.9</ele>
        <time>2021-03-28T09:50:20Z</time>
      </trkpt>
      <trkpt lat="42.77698" lon="2.78896">
        <ele>47.2</ele>
        <time>2021-03-28T09:50:21Z</time>
      </trkpt>
      <trkpt lat="42.77698" lon="2.78896">
        <ele>47.2</ele>
        <time>2021-03-28T09:50:21Z</time>
      </trkpt>
      <trkpt lat="42.77691" lon="2.78893">
        <ele>47.7</ele>
        <time>2021-03-28T09:50:23Z</time>
      </trkpt>
      <trkpt lat="42.77691" lon="2.78893">
        <ele>47.7</ele>
        <time>2021-03-28T09:50:23Z</time>
      </trkpt>
      <trkpt lat="42.77683" lon="2.78889">
        <ele>48.2</ele>
        <time>2021-03-28T09:50:25Z</time>
      </trkpt>
      <trkpt lat="42.77683" lon="2.78889">
        <ele>48.2</ele>
        <time>2021-03-28T09:50:25Z</time>
      </trkpt>
      <trkpt lat="42.77677" lon="2.78886">
        <ele>48.3</ele>
        <time>2021-03-28T09:50:26Z</time>
      </trkpt>
      <trkpt lat="42.77677" lon="2.78886">
        <ele>48.3</ele>
        <time>2021-03-28T09:50:26Z</time>
      </trkpt>
      <trkpt lat="42.7767" lon="2.78883">
        <ele>48.1</ele>
        <time>2021-03-28T09:50:28Z</time>
      </trkpt>
      <trkpt lat="42.7767" lon="2.78883">
        <ele>48.1</ele>
        <time>2021-03-28T09:50:28Z</time>
      </trkpt>
      <trkpt lat="42.77663" lon="2.7888">
        <ele>48.1</ele>
        <time>2021-03-28T09:50:30Z</time>
      </trkpt>
      <trkpt lat="42.77663" lon="2.7888">
        <ele>48.1</ele>
        <time>2021-03-28T09:50:30Z</time>
      </trkpt>
      <trkpt lat="42.77657" lon="2.78877">
        <ele>48.3</ele>
        <time>2021-03-28T09:50:31Z</time>
      </trkpt>
      <trkpt lat="42.77657" lon="2.78877">
        <ele>48.3</ele>
        <time>2021-03-28T09:50:31Z</time>
      </trkpt>
      <trkpt lat="42.7765" lon="2.78874">
        <ele>48.7</ele>
        <time>2021-03-28T09:50:33Z</time>
      </trkpt>
      <trkpt lat="42.7765" lon="2.78874">
        <ele>48.7</ele>
        <time>2021-03-28T09:50:33Z</time>
      </trkpt>
      <trkpt lat="42.77642" lon="2.7887">
        <ele>49</ele>
        <time>2021-03-28T09:50:35Z</time>
      </trkpt>
      <trkpt lat="42.77642" lon="2.7887">
        <ele>49</ele>
        <time>2021-03-28T09:50:35Z</time>
      </trkpt>
      <trkpt lat="42.77634" lon="2.78866">
        <ele>48.9</ele>
        <time>2021-03-28T09:50:37Z</time>
      </trkpt>
      <trkpt lat="42.77634" lon="2.78866">
        <ele>48.9</ele>
        <time>2021-03-28T09:50:37Z</time>
      </trkpt>
      <trkpt lat="42.77625" lon="2.78863">
        <ele>48.9</ele>
        <time>2021-03-28T09:50:38Z</time>
      </trkpt>
      <trkpt lat="42.77625" lon="2.78863">
        <ele>48.9</ele>
        <time>2021-03-28T09:50:38Z</time>
      </trkpt>
      <trkpt lat="42.77617" lon="2.78859">
        <ele>48.8</ele>
        <time>2021-03-28T09:50:40Z</time>
      </trkpt>
      <trkpt lat="42.77617" lon="2.78859">
        <ele>48.8</ele>
        <time>2021-03-28T09:50:40Z</time>
      </trkpt>
      <trkpt lat="42.7761" lon="2.78855">
        <ele>48.7</ele>
        <time>2021-03-28T09:50:41Z</time>
      </trkpt>
      <trkpt lat="42.7761" lon="2.78855">
        <ele>48.7</ele>
        <time>2021-03-28T09:50:41Z</time>
      </trkpt>
      <trkpt lat="42.77603" lon="2.78851">
        <ele>48.4</ele>
        <time>2021-03-28T09:50:43Z</time>
      </trkpt>
      <trkpt lat="42.77603" lon="2.78851">
        <ele>48.4</ele>
        <time>2021-03-28T09:50:43Z</time>
      </trkpt>
      <trkpt lat="42.77597" lon="2.78846">
        <ele>48.4</ele>
        <time>2021-03-28T09:50:45Z</time>
      </trkpt>
      <trkpt lat="42.77597" lon="2.78846">
        <ele>48.4</ele>
        <time>2021-03-28T09:50:45Z</time>
      </trkpt>
      <trkpt lat="42.7759" lon="2.78842">
        <ele>48.7</ele>
        <time>2021-03-28T09:50:47Z</time>
      </trkpt>
      <trkpt lat="42.7759" lon="2.78842">
        <ele>48.7</ele>
        <time>2021-03-28T09:50:47Z</time>
      </trkpt>
      <trkpt lat="42.77583" lon="2.78837">
        <ele>49.4</ele>
        <time>2021-03-28T09:50:49Z</time>
      </trkpt>
      <trkpt lat="42.77583" lon="2.78837">
        <ele>49.4</ele>
        <time>2021-03-28T09:50:49Z</time>
      </trkpt>
      <trkpt lat="42.77576" lon="2.78832">
        <ele>49.5</ele>
        <time>2021-03-28T09:50:50Z</time>
      </trkpt>
      <trkpt lat="42.77576" lon="2.78832">
        <ele>49.5</ele>
        <time>2021-03-28T09:50:50Z</time>
      </trkpt>
      <trkpt lat="42.77571" lon="2.78828">
        <ele>49</ele>
        <time>2021-03-28T09:50:51Z</time>
      </trkpt>
      <trkpt lat="42.77571" lon="2.78828">
        <ele>49</ele>
        <time>2021-03-28T09:50:51Z</time>
      </trkpt>
      <trkpt lat="42.77565" lon="2.78825">
        <ele>48.9</ele>
        <time>2021-03-28T09:50:52Z</time>
      </trkpt>
      <trkpt lat="42.77565" lon="2.78825">
        <ele>48.9</ele>
        <time>2021-03-28T09:50:52Z</time>
      </trkpt>
      <trkpt lat="42.77559" lon="2.7882">
        <ele>48.7</ele>
        <time>2021-03-28T09:50:54Z</time>
      </trkpt>
      <trkpt lat="42.77559" lon="2.7882">
        <ele>48.7</ele>
        <time>2021-03-28T09:50:54Z</time>
      </trkpt>
      <trkpt lat="42.77553" lon="2.78817">
        <ele>49.3</ele>
        <time>2021-03-28T09:50:55Z</time>
      </trkpt>
      <trkpt lat="42.77553" lon="2.78817">
        <ele>49.3</ele>
        <time>2021-03-28T09:50:55Z</time>
      </trkpt>
      <trkpt lat="42.77545" lon="2.78812">
        <ele>49.9</ele>
        <time>2021-03-28T09:50:57Z</time>
      </trkpt>
      <trkpt lat="42.77545" lon="2.78812">
        <ele>49.9</ele>
        <time>2021-03-28T09:50:57Z</time>
      </trkpt>
      <trkpt lat="42.77538" lon="2.78807">
        <ele>49.6</ele>
        <time>2021-03-28T09:50:58Z</time>
      </trkpt>
      <trkpt lat="42.77538" lon="2.78807">
        <ele>49.6</ele>
        <time>2021-03-28T09:50:58Z</time>
      </trkpt>
      <trkpt lat="42.7753" lon="2.78801">
        <ele>49.3</ele>
        <time>2021-03-28T09:51:00Z</time>
      </trkpt>
      <trkpt lat="42.7753" lon="2.78801">
        <ele>49.3</ele>
        <time>2021-03-28T09:51:00Z</time>
      </trkpt>
      <trkpt lat="42.77523" lon="2.78797">
        <ele>49.6</ele>
        <time>2021-03-28T09:51:01Z</time>
      </trkpt>
      <trkpt lat="42.77523" lon="2.78797">
        <ele>49.6</ele>
        <time>2021-03-28T09:51:01Z</time>
      </trkpt>
      <trkpt lat="42.77517" lon="2.78792">
        <ele>49.8</ele>
        <time>2021-03-28T09:51:02Z</time>
      </trkpt>
      <trkpt lat="42.77517" lon="2.78792">
        <ele>49.8</ele>
        <time>2021-03-28T09:51:02Z</time>
      </trkpt>
      <trkpt lat="42.77509" lon="2.78787">
        <ele>49.6</ele>
        <time>2021-03-28T09:51:04Z</time>
      </trkpt>
      <trkpt lat="42.77509" lon="2.78787">
        <ele>49.6</ele>
        <time>2021-03-28T09:51:04Z</time>
      </trkpt>
      <trkpt lat="42.77503" lon="2.78782">
        <ele>49.1</ele>
        <time>2021-03-28T09:51:05Z</time>
      </trkpt>
      <trkpt lat="42.77503" lon="2.78782">
        <ele>49.1</ele>
        <time>2021-03-28T09:51:05Z</time>
      </trkpt>
      <trkpt lat="42.77495" lon="2.78777">
        <ele>48.5</ele>
        <time>2021-03-28T09:51:07Z</time>
      </trkpt>
      <trkpt lat="42.77495" lon="2.78777">
        <ele>48.5</ele>
        <time>2021-03-28T09:51:07Z</time>
      </trkpt>
      <trkpt lat="42.77486" lon="2.78771">
        <ele>48.2</ele>
        <time>2021-03-28T09:51:09Z</time>
      </trkpt>
      <trkpt lat="42.77486" lon="2.78771">
        <ele>48.2</ele>
        <time>2021-03-28T09:51:09Z</time>
      </trkpt>
      <trkpt lat="42.77476" lon="2.78764">
        <ele>47.6</ele>
        <time>2021-03-28T09:51:11Z</time>
      </trkpt>
      <trkpt lat="42.77476" lon="2.78764">
        <ele>47.6</ele>
        <time>2021-03-28T09:51:11Z</time>
      </trkpt>
      <trkpt lat="42.77465" lon="2.78757">
        <ele>48</ele>
        <time>2021-03-28T09:51:13Z</time>
      </trkpt>
      <trkpt lat="42.77465" lon="2.78757">
        <ele>48</ele>
        <time>2021-03-28T09:51:13Z</time>
      </trkpt>
      <trkpt lat="42.77455" lon="2.78748">
        <ele>47.3</ele>
        <time>2021-03-28T09:51:15Z</time>
      </trkpt>
      <trkpt lat="42.77455" lon="2.78748">
        <ele>47.3</ele>
        <time>2021-03-28T09:51:15Z</time>
      </trkpt>
      <trkpt lat="42.77446" lon="2.78741">
        <ele>47.1</ele>
        <time>2021-03-28T09:51:16Z</time>
      </trkpt>
      <trkpt lat="42.77446" lon="2.78741">
        <ele>47.1</ele>
        <time>2021-03-28T09:51:16Z</time>
      </trkpt>
      <trkpt lat="42.77437" lon="2.78733">
        <ele>48.8</ele>
        <time>2021-03-28T09:51:18Z</time>
      </trkpt>
      <trkpt lat="42.77437" lon="2.78733">
        <ele>48.8</ele>
        <time>2021-03-28T09:51:18Z</time>
      </trkpt>
      <trkpt lat="42.77429" lon="2.78725">
        <ele>48.9</ele>
        <time>2021-03-28T09:51:20Z</time>
      </trkpt>
      <trkpt lat="42.77429" lon="2.78725">
        <ele>48.9</ele>
        <time>2021-03-28T09:51:20Z</time>
      </trkpt>
      <trkpt lat="42.77421" lon="2.78719">
        <ele>48.6</ele>
        <time>2021-03-28T09:51:21Z</time>
      </trkpt>
      <trkpt lat="42.77421" lon="2.78719">
        <ele>48.6</ele>
        <time>2021-03-28T09:51:21Z</time>
      </trkpt>
      <trkpt lat="42.77415" lon="2.78714">
        <ele>49.4</ele>
        <time>2021-03-28T09:51:22Z</time>
      </trkpt>
      <trkpt lat="42.77415" lon="2.78714">
        <ele>49.4</ele>
        <time>2021-03-28T09:51:22Z</time>
      </trkpt>
      <trkpt lat="42.77409" lon="2.78709">
        <ele>50.3</ele>
        <time>2021-03-28T09:51:23Z</time>
      </trkpt>
      <trkpt lat="42.77409" lon="2.78709">
        <ele>50.3</ele>
        <time>2021-03-28T09:51:23Z</time>
      </trkpt>
      <trkpt lat="42.77402" lon="2.78702">
        <ele>50.2</ele>
        <time>2021-03-28T09:51:25Z</time>
      </trkpt>
      <trkpt lat="42.77402" lon="2.78702">
        <ele>50.2</ele>
        <time>2021-03-28T09:51:25Z</time>
      </trkpt>
      <trkpt lat="42.77396" lon="2.78696">
        <ele>48.8</ele>
        <time>2021-03-28T09:51:26Z</time>
      </trkpt>
      <trkpt lat="42.77396" lon="2.78696">
        <ele>48.8</ele>
        <time>2021-03-28T09:51:26Z</time>
      </trkpt>
      <trkpt lat="42.77389" lon="2.78688">
        <ele>48.2</ele>
        <time>2021-03-28T09:51:28Z</time>
      </trkpt>
      <trkpt lat="42.77389" lon="2.78688">
        <ele>48.2</ele>
        <time>2021-03-28T09:51:28Z</time>
      </trkpt>
      <trkpt lat="42.77381" lon="2.78681">
        <ele>50</ele>
        <time>2021-03-28T09:51:30Z</time>
      </trkpt>
      <trkpt lat="42.77381" lon="2.78681">
        <ele>50</ele>
        <time>2021-03-28T09:51:30Z</time>
      </trkpt>
      <trkpt lat="42.77373" lon="2.78674">
        <ele>49.9</ele>
        <time>2021-03-28T09:51:31Z</time>
      </trkpt>
      <trkpt lat="42.77373" lon="2.78674">
        <ele>49.9</ele>
        <time>2021-03-28T09:51:31Z</time>
      </trkpt>
      <trkpt lat="42.77366" lon="2.78666">
        <ele>48.3</ele>
        <time>2021-03-28T09:51:33Z</time>
      </trkpt>
      <trkpt lat="42.77366" lon="2.78666">
        <ele>48.3</ele>
        <time>2021-03-28T09:51:33Z</time>
      </trkpt>
      <trkpt lat="42.77359" lon="2.78659">
        <ele>48.5</ele>
        <time>2021-03-28T09:51:34Z</time>
      </trkpt>
      <trkpt lat="42.77359" lon="2.78659">
        <ele>48.5</ele>
        <time>2021-03-28T09:51:34Z</time>
      </trkpt>
      <trkpt lat="42.77351" lon="2.78652">
        <ele>49.3</ele>
        <time>2021-03-28T09:51:36Z</time>
      </trkpt>
      <trkpt lat="42.77351" lon="2.78652">
        <ele>49.3</ele>
        <time>2021-03-28T09:51:36Z</time>
      </trkpt>
      <trkpt lat="42.77343" lon="2.78645">
        <ele>49.8</ele>
        <time>2021-03-28T09:51:38Z</time>
      </trkpt>
      <trkpt lat="42.77343" lon="2.78645">
        <ele>49.8</ele>
        <time>2021-03-28T09:51:38Z</time>
      </trkpt>
      <trkpt lat="42.77334" lon="2.78638">
        <ele>49.5</ele>
        <time>2021-03-28T09:51:40Z</time>
      </trkpt>
      <trkpt lat="42.77334" lon="2.78638">
        <ele>49.5</ele>
        <time>2021-03-28T09:51:40Z</time>
      </trkpt>
      <trkpt lat="42.77327" lon="2.78632">
        <ele>50.9</ele>
        <time>2021-03-28T09:51:41Z</time>
      </trkpt>
      <trkpt lat="42.77327" lon="2.78632">
        <ele>50.9</ele>
        <time>2021-03-28T09:51:41Z</time>
      </trkpt>
      <trkpt lat="42.7732" lon="2.78624">
        <ele>51.6</ele>
        <time>2021-03-28T09:51:43Z</time>
      </trkpt>
      <trkpt lat="42.7732" lon="2.78624">
        <ele>51.6</ele>
        <time>2021-03-28T09:51:43Z</time>
      </trkpt>
      <trkpt lat="42.77313" lon="2.78618">
        <ele>51.1</ele>
        <time>2021-03-28T09:51:44Z</time>
      </trkpt>
      <trkpt lat="42.77313" lon="2.78618">
        <ele>51.1</ele>
        <time>2021-03-28T09:51:44Z</time>
      </trkpt>
      <trkpt lat="42.77306" lon="2.7861">
        <ele>49.5</ele>
        <time>2021-03-28T09:51:46Z</time>
      </trkpt>
      <trkpt lat="42.77306" lon="2.7861">
        <ele>49.5</ele>
        <time>2021-03-28T09:51:46Z</time>
      </trkpt>
      <trkpt lat="42.773" lon="2.78602">
        <ele>52.2</ele>
        <time>2021-03-28T09:51:47Z</time>
      </trkpt>
      <trkpt lat="42.773" lon="2.78602">
        <ele>52.2</ele>
        <time>2021-03-28T09:51:47Z</time>
      </trkpt>
      <trkpt lat="42.77293" lon="2.78593">
        <ele>53.1</ele>
        <time>2021-03-28T09:51:49Z</time>
      </trkpt>
      <trkpt lat="42.77293" lon="2.78593">
        <ele>53.1</ele>
        <time>2021-03-28T09:51:49Z</time>
      </trkpt>
      <trkpt lat="42.77286" lon="2.78586">
        <ele>51.8</ele>
        <time>2021-03-28T09:51:50Z</time>
      </trkpt>
      <trkpt lat="42.77286" lon="2.78586">
        <ele>51.8</ele>
        <time>2021-03-28T09:51:50Z</time>
      </trkpt>
      <trkpt lat="42.7728" lon="2.78576">
        <ele>50.6</ele>
        <time>2021-03-28T09:51:52Z</time>
      </trkpt>
      <trkpt lat="42.7728" lon="2.78576">
        <ele>50.6</ele>
        <time>2021-03-28T09:51:52Z</time>
      </trkpt>
      <trkpt lat="42.77273" lon="2.78566">
        <ele>50.8</ele>
        <time>2021-03-28T09:51:54Z</time>
      </trkpt>
      <trkpt lat="42.77273" lon="2.78566">
        <ele>50.8</ele>
        <time>2021-03-28T09:51:54Z</time>
      </trkpt>
      <trkpt lat="42.77268" lon="2.78555">
        <ele>51</ele>
        <time>2021-03-28T09:51:56Z</time>
      </trkpt>
      <trkpt lat="42.77268" lon="2.78555">
        <ele>51</ele>
        <time>2021-03-28T09:51:56Z</time>
      </trkpt>
      <trkpt lat="42.77261" lon="2.78543">
        <ele>52.1</ele>
        <time>2021-03-28T09:51:58Z</time>
      </trkpt>
      <trkpt lat="42.77261" lon="2.78543">
        <ele>52.1</ele>
        <time>2021-03-28T09:51:58Z</time>
      </trkpt>
      <trkpt lat="42.77256" lon="2.78532">
        <ele>51</ele>
        <time>2021-03-28T09:51:59Z</time>
      </trkpt>
      <trkpt lat="42.77256" lon="2.78532">
        <ele>51</ele>
        <time>2021-03-28T09:51:59Z</time>
      </trkpt>
      <trkpt lat="42.77251" lon="2.78523">
        <ele>50.5</ele>
        <time>2021-03-28T09:52:00Z</time>
      </trkpt>
      <trkpt lat="42.77251" lon="2.78523">
        <ele>50.5</ele>
        <time>2021-03-28T09:52:00Z</time>
      </trkpt>
      <trkpt lat="42.77248" lon="2.78513">
        <ele>50.7</ele>
        <time>2021-03-28T09:52:01Z</time>
      </trkpt>
      <trkpt lat="42.77248" lon="2.78513">
        <ele>50.7</ele>
        <time>2021-03-28T09:52:01Z</time>
      </trkpt>
      <trkpt lat="42.77244" lon="2.78502">
        <ele>50.8</ele>
        <time>2021-03-28T09:52:03Z</time>
      </trkpt>
      <trkpt lat="42.77244" lon="2.78502">
        <ele>50.8</ele>
        <time>2021-03-28T09:52:03Z</time>
      </trkpt>
      <trkpt lat="42.7724" lon="2.78492">
        <ele>50.1</ele>
        <time>2021-03-28T09:52:04Z</time>
      </trkpt>
      <trkpt lat="42.7724" lon="2.78492">
        <ele>50.1</ele>
        <time>2021-03-28T09:52:04Z</time>
      </trkpt>
      <trkpt lat="42.77237" lon="2.78483">
        <ele>49.5</ele>
        <time>2021-03-28T09:52:05Z</time>
      </trkpt>
      <trkpt lat="42.77237" lon="2.78483">
        <ele>49.5</ele>
        <time>2021-03-28T09:52:05Z</time>
      </trkpt>
      <trkpt lat="42.77235" lon="2.78473">
        <ele>48.9</ele>
        <time>2021-03-28T09:52:07Z</time>
      </trkpt>
      <trkpt lat="42.77235" lon="2.78473">
        <ele>48.9</ele>
        <time>2021-03-28T09:52:07Z</time>
      </trkpt>
      <trkpt lat="42.77233" lon="2.78464">
        <ele>49.2</ele>
        <time>2021-03-28T09:52:08Z</time>
      </trkpt>
      <trkpt lat="42.77233" lon="2.78464">
        <ele>49.2</ele>
        <time>2021-03-28T09:52:08Z</time>
      </trkpt>
      <trkpt lat="42.77231" lon="2.78454">
        <ele>49.5</ele>
        <time>2021-03-28T09:52:09Z</time>
      </trkpt>
      <trkpt lat="42.77231" lon="2.78454">
        <ele>49.5</ele>
        <time>2021-03-28T09:52:09Z</time>
      </trkpt>
      <trkpt lat="42.77229" lon="2.78446">
        <ele>49.7</ele>
        <time>2021-03-28T09:52:10Z</time>
      </trkpt>
      <trkpt lat="42.77229" lon="2.78446">
        <ele>49.7</ele>
        <time>2021-03-28T09:52:10Z</time>
      </trkpt>
      <trkpt lat="42.77226" lon="2.78435">
        <ele>50.5</ele>
        <time>2021-03-28T09:52:12Z</time>
      </trkpt>
      <trkpt lat="42.77226" lon="2.78435">
        <ele>50.5</ele>
        <time>2021-03-28T09:52:12Z</time>
      </trkpt>
      <trkpt lat="42.77225" lon="2.78424">
        <ele>51.2</ele>
        <time>2021-03-28T09:52:13Z</time>
      </trkpt>
      <trkpt lat="42.77225" lon="2.78424">
        <ele>51.2</ele>
        <time>2021-03-28T09:52:13Z</time>
      </trkpt>
      <trkpt lat="42.77224" lon="2.78413">
        <ele>51.7</ele>
        <time>2021-03-28T09:52:15Z</time>
      </trkpt>
      <trkpt lat="42.77224" lon="2.78413">
        <ele>51.7</ele>
        <time>2021-03-28T09:52:15Z</time>
      </trkpt>
      <trkpt lat="42.77223" lon="2.78403">
        <ele>51.9</ele>
        <time>2021-03-28T09:52:16Z</time>
      </trkpt>
      <trkpt lat="42.77223" lon="2.78403">
        <ele>51.9</ele>
        <time>2021-03-28T09:52:16Z</time>
      </trkpt>
      <trkpt lat="42.77223" lon="2.78392">
        <ele>52</ele>
        <time>2021-03-28T09:52:18Z</time>
      </trkpt>
      <trkpt lat="42.77223" lon="2.78392">
        <ele>52</ele>
        <time>2021-03-28T09:52:18Z</time>
      </trkpt>
      <trkpt lat="42.77223" lon="2.7838">
        <ele>52.2</ele>
        <time>2021-03-28T09:52:20Z</time>
      </trkpt>
      <trkpt lat="42.77223" lon="2.7838">
        <ele>52.2</ele>
        <time>2021-03-28T09:52:20Z</time>
      </trkpt>
      <trkpt lat="42.77225" lon="2.78367">
        <ele>52.6</ele>
        <time>2021-03-28T09:52:22Z</time>
      </trkpt>
      <trkpt lat="42.77225" lon="2.78367">
        <ele>52.6</ele>
        <time>2021-03-28T09:52:22Z</time>
      </trkpt>
      <trkpt lat="42.77226" lon="2.78353">
        <ele>52.8</ele>
        <time>2021-03-28T09:52:24Z</time>
      </trkpt>
      <trkpt lat="42.77226" lon="2.78353">
        <ele>52.8</ele>
        <time>2021-03-28T09:52:24Z</time>
      </trkpt>
      <trkpt lat="42.77227" lon="2.78342">
        <ele>52.8</ele>
        <time>2021-03-28T09:52:25Z</time>
      </trkpt>
      <trkpt lat="42.77227" lon="2.78342">
        <ele>52.8</ele>
        <time>2021-03-28T09:52:25Z</time>
      </trkpt>
      <trkpt lat="42.77228" lon="2.78332">
        <ele>52.9</ele>
        <time>2021-03-28T09:52:27Z</time>
      </trkpt>
      <trkpt lat="42.77228" lon="2.78332">
        <ele>52.9</ele>
        <time>2021-03-28T09:52:27Z</time>
      </trkpt>
      <trkpt lat="42.77228" lon="2.78323">
        <ele>53.4</ele>
        <time>2021-03-28T09:52:28Z</time>
      </trkpt>
      <trkpt lat="42.77228" lon="2.78323">
        <ele>53.4</ele>
        <time>2021-03-28T09:52:28Z</time>
      </trkpt>
      <trkpt lat="42.77229" lon="2.78315">
        <ele>53.8</ele>
        <time>2021-03-28T09:52:29Z</time>
      </trkpt>
      <trkpt lat="42.77229" lon="2.78315">
        <ele>53.8</ele>
        <time>2021-03-28T09:52:29Z</time>
      </trkpt>
      <trkpt lat="42.7723" lon="2.78305">
        <ele>54.2</ele>
        <time>2021-03-28T09:52:31Z</time>
      </trkpt>
      <trkpt lat="42.7723" lon="2.78305">
        <ele>54.2</ele>
        <time>2021-03-28T09:52:31Z</time>
      </trkpt>
      <trkpt lat="42.77231" lon="2.78297">
        <ele>55.1</ele>
        <time>2021-03-28T09:52:32Z</time>
      </trkpt>
      <trkpt lat="42.77231" lon="2.78297">
        <ele>55.1</ele>
        <time>2021-03-28T09:52:32Z</time>
      </trkpt>
      <trkpt lat="42.77232" lon="2.78288">
        <ele>55.9</ele>
        <time>2021-03-28T09:52:34Z</time>
      </trkpt>
      <trkpt lat="42.77232" lon="2.78288">
        <ele>55.9</ele>
        <time>2021-03-28T09:52:34Z</time>
      </trkpt>
      <trkpt lat="42.77233" lon="2.78278">
        <ele>56.6</ele>
        <time>2021-03-28T09:52:36Z</time>
      </trkpt>
      <trkpt lat="42.77233" lon="2.78278">
        <ele>56.6</ele>
        <time>2021-03-28T09:52:36Z</time>
      </trkpt>
      <trkpt lat="42.77235" lon="2.78267">
        <ele>57.7</ele>
        <time>2021-03-28T09:52:38Z</time>
      </trkpt>
      <trkpt lat="42.77235" lon="2.78267">
        <ele>57.7</ele>
        <time>2021-03-28T09:52:38Z</time>
      </trkpt>
      <trkpt lat="42.77237" lon="2.78258">
        <ele>58.3</ele>
        <time>2021-03-28T09:52:39Z</time>
      </trkpt>
      <trkpt lat="42.77237" lon="2.78258">
        <ele>58.3</ele>
        <time>2021-03-28T09:52:39Z</time>
      </trkpt>
      <trkpt lat="42.77239" lon="2.78247">
        <ele>58.6</ele>
        <time>2021-03-28T09:52:41Z</time>
      </trkpt>
      <trkpt lat="42.77239" lon="2.78247">
        <ele>58.6</ele>
        <time>2021-03-28T09:52:41Z</time>
      </trkpt>
      <trkpt lat="42.77242" lon="2.78236">
        <ele>58</ele>
        <time>2021-03-28T09:52:43Z</time>
      </trkpt>
      <trkpt lat="42.77242" lon="2.78236">
        <ele>58</ele>
        <time>2021-03-28T09:52:43Z</time>
      </trkpt>
      <trkpt lat="42.77246" lon="2.78225">
        <ele>56.8</ele>
        <time>2021-03-28T09:52:45Z</time>
      </trkpt>
      <trkpt lat="42.77246" lon="2.78225">
        <ele>56.8</ele>
        <time>2021-03-28T09:52:45Z</time>
      </trkpt>
      <trkpt lat="42.7725" lon="2.78215">
        <ele>56.2</ele>
        <time>2021-03-28T09:52:46Z</time>
      </trkpt>
      <trkpt lat="42.7725" lon="2.78215">
        <ele>56.2</ele>
        <time>2021-03-28T09:52:46Z</time>
      </trkpt>
      <trkpt lat="42.77254" lon="2.78204">
        <ele>57.1</ele>
        <time>2021-03-28T09:52:48Z</time>
      </trkpt>
      <trkpt lat="42.77254" lon="2.78204">
        <ele>57.1</ele>
        <time>2021-03-28T09:52:48Z</time>
      </trkpt>
      <trkpt lat="42.77258" lon="2.78196">
        <ele>57.5</ele>
        <time>2021-03-28T09:52:49Z</time>
      </trkpt>
      <trkpt lat="42.77258" lon="2.78196">
        <ele>57.5</ele>
        <time>2021-03-28T09:52:49Z</time>
      </trkpt>
      <trkpt lat="42.77263" lon="2.78187">
        <ele>57.7</ele>
        <time>2021-03-28T09:52:51Z</time>
      </trkpt>
      <trkpt lat="42.77263" lon="2.78187">
        <ele>57.7</ele>
        <time>2021-03-28T09:52:51Z</time>
      </trkpt>
      <trkpt lat="42.7727" lon="2.78176">
        <ele>57.2</ele>
        <time>2021-03-28T09:52:53Z</time>
      </trkpt>
      <trkpt lat="42.7727" lon="2.78176">
        <ele>57.2</ele>
        <time>2021-03-28T09:52:53Z</time>
      </trkpt>
      <trkpt lat="42.77276" lon="2.78165">
        <ele>55.8</ele>
        <time>2021-03-28T09:52:55Z</time>
      </trkpt>
      <trkpt lat="42.77276" lon="2.78165">
        <ele>55.8</ele>
        <time>2021-03-28T09:52:55Z</time>
      </trkpt>
      <trkpt lat="42.77281" lon="2.78156">
        <ele>55.4</ele>
        <time>2021-03-28T09:52:56Z</time>
      </trkpt>
      <trkpt lat="42.77281" lon="2.78156">
        <ele>55.4</ele>
        <time>2021-03-28T09:52:56Z</time>
      </trkpt>
      <trkpt lat="42.77285" lon="2.78148">
        <ele>55.4</ele>
        <time>2021-03-28T09:52:58Z</time>
      </trkpt>
      <trkpt lat="42.77285" lon="2.78148">
        <ele>55.4</ele>
        <time>2021-03-28T09:52:58Z</time>
      </trkpt>
      <trkpt lat="42.7729" lon="2.78139">
        <ele>55.6</ele>
        <time>2021-03-28T09:53:00Z</time>
      </trkpt>
      <trkpt lat="42.7729" lon="2.78139">
        <ele>55.6</ele>
        <time>2021-03-28T09:53:00Z</time>
      </trkpt>
      <trkpt lat="42.77295" lon="2.78131">
        <ele>56.7</ele>
        <time>2021-03-28T09:53:01Z</time>
      </trkpt>
      <trkpt lat="42.77295" lon="2.78131">
        <ele>56.7</ele>
        <time>2021-03-28T09:53:01Z</time>
      </trkpt>
      <trkpt lat="42.77301" lon="2.78122">
        <ele>56.6</ele>
        <time>2021-03-28T09:53:03Z</time>
      </trkpt>
      <trkpt lat="42.77301" lon="2.78122">
        <ele>56.6</ele>
        <time>2021-03-28T09:53:03Z</time>
      </trkpt>
      <trkpt lat="42.77306" lon="2.78116">
        <ele>55.6</ele>
        <time>2021-03-28T09:53:04Z</time>
      </trkpt>
      <trkpt lat="42.77306" lon="2.78116">
        <ele>55.6</ele>
        <time>2021-03-28T09:53:04Z</time>
      </trkpt>
      <trkpt lat="42.77311" lon="2.78108">
        <ele>55.6</ele>
        <time>2021-03-28T09:53:06Z</time>
      </trkpt>
      <trkpt lat="42.77311" lon="2.78108">
        <ele>55.6</ele>
        <time>2021-03-28T09:53:06Z</time>
      </trkpt>
      <trkpt lat="42.77316" lon="2.78101">
        <ele>55.8</ele>
        <time>2021-03-28T09:53:08Z</time>
      </trkpt>
      <trkpt lat="42.77316" lon="2.78101">
        <ele>55.8</ele>
        <time>2021-03-28T09:53:08Z</time>
      </trkpt>
      <trkpt lat="42.77322" lon="2.78093">
        <ele>56</ele>
        <time>2021-03-28T09:53:10Z</time>
      </trkpt>
      <trkpt lat="42.77322" lon="2.78093">
        <ele>56</ele>
        <time>2021-03-28T09:53:10Z</time>
      </trkpt>
      <trkpt lat="42.77328" lon="2.78085">
        <ele>56.4</ele>
        <time>2021-03-28T09:53:12Z</time>
      </trkpt>
      <trkpt lat="42.77328" lon="2.78085">
        <ele>56.4</ele>
        <time>2021-03-28T09:53:12Z</time>
      </trkpt>
      <trkpt lat="42.77333" lon="2.78078">
        <ele>56.2</ele>
        <time>2021-03-28T09:53:13Z</time>
      </trkpt>
      <trkpt lat="42.77333" lon="2.78078">
        <ele>56.2</ele>
        <time>2021-03-28T09:53:13Z</time>
      </trkpt>
      <trkpt lat="42.77338" lon="2.78072">
        <ele>55.8</ele>
        <time>2021-03-28T09:53:14Z</time>
      </trkpt>
      <trkpt lat="42.77338" lon="2.78072">
        <ele>55.8</ele>
        <time>2021-03-28T09:53:14Z</time>
      </trkpt>
      <trkpt lat="42.77343" lon="2.78065">
        <ele>55.6</ele>
        <time>2021-03-28T09:53:16Z</time>
      </trkpt>
      <trkpt lat="42.77343" lon="2.78065">
        <ele>55.6</ele>
        <time>2021-03-28T09:53:16Z</time>
      </trkpt>
      <trkpt lat="42.77348" lon="2.78058">
        <ele>55.7</ele>
        <time>2021-03-28T09:53:17Z</time>
      </trkpt>
      <trkpt lat="42.77348" lon="2.78058">
        <ele>55.7</ele>
        <time>2021-03-28T09:53:17Z</time>
      </trkpt>
      <trkpt lat="42.77354" lon="2.78051">
        <ele>56</ele>
        <time>2021-03-28T09:53:19Z</time>
      </trkpt>
      <trkpt lat="42.77354" lon="2.78051">
        <ele>56</ele>
        <time>2021-03-28T09:53:19Z</time>
      </trkpt>
      <trkpt lat="42.77358" lon="2.78044">
        <ele>56.4</ele>
        <time>2021-03-28T09:53:20Z</time>
      </trkpt>
      <trkpt lat="42.77358" lon="2.78044">
        <ele>56.4</ele>
        <time>2021-03-28T09:53:20Z</time>
      </trkpt>
      <trkpt lat="42.77363" lon="2.78036">
        <ele>56.7</ele>
        <time>2021-03-28T09:53:22Z</time>
      </trkpt>
      <trkpt lat="42.77363" lon="2.78036">
        <ele>56.7</ele>
        <time>2021-03-28T09:53:22Z</time>
      </trkpt>
      <trkpt lat="42.77368" lon="2.78029">
        <ele>56.5</ele>
        <time>2021-03-28T09:53:23Z</time>
      </trkpt>
      <trkpt lat="42.77368" lon="2.78029">
        <ele>56.5</ele>
        <time>2021-03-28T09:53:23Z</time>
      </trkpt>
      <trkpt lat="42.77373" lon="2.78021">
        <ele>56.2</ele>
        <time>2021-03-28T09:53:25Z</time>
      </trkpt>
      <trkpt lat="42.77373" lon="2.78021">
        <ele>56.2</ele>
        <time>2021-03-28T09:53:25Z</time>
      </trkpt>
      <trkpt lat="42.77377" lon="2.78015">
        <ele>56.4</ele>
        <time>2021-03-28T09:53:26Z</time>
      </trkpt>
      <trkpt lat="42.77377" lon="2.78015">
        <ele>56.4</ele>
        <time>2021-03-28T09:53:26Z</time>
      </trkpt>
      <trkpt lat="42.77382" lon="2.78007">
        <ele>57.1</ele>
        <time>2021-03-28T09:53:28Z</time>
      </trkpt>
      <trkpt lat="42.77382" lon="2.78007">
        <ele>57.1</ele>
        <time>2021-03-28T09:53:28Z</time>
      </trkpt>
      <trkpt lat="42.77388" lon="2.77997">
        <ele>58.3</ele>
        <time>2021-03-28T09:53:30Z</time>
      </trkpt>
      <trkpt lat="42.77388" lon="2.77997">
        <ele>58.3</ele>
        <time>2021-03-28T09:53:30Z</time>
      </trkpt>
      <trkpt lat="42.77393" lon="2.77989">
        <ele>58.1</ele>
        <time>2021-03-28T09:53:31Z</time>
      </trkpt>
      <trkpt lat="42.77393" lon="2.77989">
        <ele>58.1</ele>
        <time>2021-03-28T09:53:31Z</time>
      </trkpt>
      <trkpt lat="42.77399" lon="2.77981">
        <ele>58.1</ele>
        <time>2021-03-28T09:53:33Z</time>
      </trkpt>
      <trkpt lat="42.77399" lon="2.77981">
        <ele>58.1</ele>
        <time>2021-03-28T09:53:33Z</time>
      </trkpt>
      <trkpt lat="42.77405" lon="2.77971">
        <ele>58.4</ele>
        <time>2021-03-28T09:53:35Z</time>
      </trkpt>
      <trkpt lat="42.77405" lon="2.77971">
        <ele>58.4</ele>
        <time>2021-03-28T09:53:35Z</time>
      </trkpt>
      <trkpt lat="42.7741" lon="2.77963">
        <ele>58.8</ele>
        <time>2021-03-28T09:53:36Z</time>
      </trkpt>
      <trkpt lat="42.7741" lon="2.77963">
        <ele>58.8</ele>
        <time>2021-03-28T09:53:36Z</time>
      </trkpt>
      <trkpt lat="42.77416" lon="2.77954">
        <ele>58.4</ele>
        <time>2021-03-28T09:53:38Z</time>
      </trkpt>
      <trkpt lat="42.77416" lon="2.77954">
        <ele>58.4</ele>
        <time>2021-03-28T09:53:38Z</time>
      </trkpt>
      <trkpt lat="42.77422" lon="2.77945">
        <ele>58.1</ele>
        <time>2021-03-28T09:53:40Z</time>
      </trkpt>
      <trkpt lat="42.77422" lon="2.77945">
        <ele>58.1</ele>
        <time>2021-03-28T09:53:40Z</time>
      </trkpt>
      <trkpt lat="42.77427" lon="2.77936">
        <ele>59.7</ele>
        <time>2021-03-28T09:53:41Z</time>
      </trkpt>
      <trkpt lat="42.77427" lon="2.77936">
        <ele>59.7</ele>
        <time>2021-03-28T09:53:41Z</time>
      </trkpt>
      <trkpt lat="42.77434" lon="2.77925">
        <ele>61.1</ele>
        <time>2021-03-28T09:53:43Z</time>
      </trkpt>
      <trkpt lat="42.77434" lon="2.77925">
        <ele>61.1</ele>
        <time>2021-03-28T09:53:43Z</time>
      </trkpt>
      <trkpt lat="42.77439" lon="2.77916">
        <ele>61.7</ele>
        <time>2021-03-28T09:53:44Z</time>
      </trkpt>
      <trkpt lat="42.77439" lon="2.77916">
        <ele>61.7</ele>
        <time>2021-03-28T09:53:44Z</time>
      </trkpt>
      <trkpt lat="42.77446" lon="2.77906">
        <ele>61.3</ele>
        <time>2021-03-28T09:53:46Z</time>
      </trkpt>
      <trkpt lat="42.77446" lon="2.77906">
        <ele>61.3</ele>
        <time>2021-03-28T09:53:46Z</time>
      </trkpt>
      <trkpt lat="42.77451" lon="2.77898">
        <ele>61.5</ele>
        <time>2021-03-28T09:53:47Z</time>
      </trkpt>
      <trkpt lat="42.77451" lon="2.77898">
        <ele>61.5</ele>
        <time>2021-03-28T09:53:47Z</time>
      </trkpt>
      <trkpt lat="42.77458" lon="2.77889">
        <ele>61.6</ele>
        <time>2021-03-28T09:53:49Z</time>
      </trkpt>
      <trkpt lat="42.77458" lon="2.77889">
        <ele>61.6</ele>
        <time>2021-03-28T09:53:49Z</time>
      </trkpt>
      <trkpt lat="42.77466" lon="2.77879">
        <ele>61.4</ele>
        <time>2021-03-28T09:53:51Z</time>
      </trkpt>
      <trkpt lat="42.77466" lon="2.77879">
        <ele>61.4</ele>
        <time>2021-03-28T09:53:51Z</time>
      </trkpt>
      <trkpt lat="42.77471" lon="2.7787">
        <ele>60.6</ele>
        <time>2021-03-28T09:53:52Z</time>
      </trkpt>
      <trkpt lat="42.77471" lon="2.7787">
        <ele>60.6</ele>
        <time>2021-03-28T09:53:52Z</time>
      </trkpt>
      <trkpt lat="42.77478" lon="2.77861">
        <ele>60.6</ele>
        <time>2021-03-28T09:53:54Z</time>
      </trkpt>
      <trkpt lat="42.77478" lon="2.77861">
        <ele>60.6</ele>
        <time>2021-03-28T09:53:54Z</time>
      </trkpt>
      <trkpt lat="42.77484" lon="2.77852">
        <ele>61.2</ele>
        <time>2021-03-28T09:53:56Z</time>
      </trkpt>
      <trkpt lat="42.77484" lon="2.77852">
        <ele>61.2</ele>
        <time>2021-03-28T09:53:56Z</time>
      </trkpt>
      <trkpt lat="42.77489" lon="2.77844">
        <ele>61.5</ele>
        <time>2021-03-28T09:53:57Z</time>
      </trkpt>
      <trkpt lat="42.77489" lon="2.77844">
        <ele>61.5</ele>
        <time>2021-03-28T09:53:57Z</time>
      </trkpt>
      <trkpt lat="42.77494" lon="2.77837">
        <ele>61.6</ele>
        <time>2021-03-28T09:53:58Z</time>
      </trkpt>
      <trkpt lat="42.77494" lon="2.77837">
        <ele>61.6</ele>
        <time>2021-03-28T09:53:58Z</time>
      </trkpt>
      <trkpt lat="42.775" lon="2.77829">
        <ele>61.2</ele>
        <time>2021-03-28T09:54:00Z</time>
      </trkpt>
      <trkpt lat="42.775" lon="2.77829">
        <ele>61.2</ele>
        <time>2021-03-28T09:54:00Z</time>
      </trkpt>
      <trkpt lat="42.77505" lon="2.77822">
        <ele>61.2</ele>
        <time>2021-03-28T09:54:01Z</time>
      </trkpt>
      <trkpt lat="42.77505" lon="2.77822">
        <ele>61.2</ele>
        <time>2021-03-28T09:54:01Z</time>
      </trkpt>
      <trkpt lat="42.7751" lon="2.77816">
        <ele>61.3</ele>
        <time>2021-03-28T09:54:03Z</time>
      </trkpt>
      <trkpt lat="42.7751" lon="2.77816">
        <ele>61.3</ele>
        <time>2021-03-28T09:54:03Z</time>
      </trkpt>
      <trkpt lat="42.77516" lon="2.77808">
        <ele>61.3</ele>
        <time>2021-03-28T09:54:05Z</time>
      </trkpt>
      <trkpt lat="42.77516" lon="2.77808">
        <ele>61.3</ele>
        <time>2021-03-28T09:54:05Z</time>
      </trkpt>
      <trkpt lat="42.77522" lon="2.778">
        <ele>61.5</ele>
        <time>2021-03-28T09:54:07Z</time>
      </trkpt>
      <trkpt lat="42.77522" lon="2.778">
        <ele>61.5</ele>
        <time>2021-03-28T09:54:07Z</time>
      </trkpt>
      <trkpt lat="42.77528" lon="2.77791">
        <ele>61.5</ele>
        <time>2021-03-28T09:54:09Z</time>
      </trkpt>
      <trkpt lat="42.77528" lon="2.77791">
        <ele>61.5</ele>
        <time>2021-03-28T09:54:09Z</time>
      </trkpt>
      <trkpt lat="42.77533" lon="2.77782">
        <ele>61.6</ele>
        <time>2021-03-28T09:54:10Z</time>
      </trkpt>
      <trkpt lat="42.77533" lon="2.77782">
        <ele>61.6</ele>
        <time>2021-03-28T09:54:10Z</time>
      </trkpt>
      <trkpt lat="42.77539" lon="2.77772">
        <ele>61.7</ele>
        <time>2021-03-28T09:54:12Z</time>
      </trkpt>
      <trkpt lat="42.77539" lon="2.77772">
        <ele>61.7</ele>
        <time>2021-03-28T09:54:12Z</time>
      </trkpt>
      <trkpt lat="42.77546" lon="2.77762">
        <ele>61.7</ele>
        <time>2021-03-28T09:54:14Z</time>
      </trkpt>
      <trkpt lat="42.77546" lon="2.77762">
        <ele>61.7</ele>
        <time>2021-03-28T09:54:14Z</time>
      </trkpt>
      <trkpt lat="42.77552" lon="2.77752">
        <ele>61.9</ele>
        <time>2021-03-28T09:54:15Z</time>
      </trkpt>
      <trkpt lat="42.77552" lon="2.77752">
        <ele>61.9</ele>
        <time>2021-03-28T09:54:15Z</time>
      </trkpt>
      <trkpt lat="42.77558" lon="2.77742">
        <ele>62</ele>
        <time>2021-03-28T09:54:17Z</time>
      </trkpt>
      <trkpt lat="42.77558" lon="2.77742">
        <ele>62</ele>
        <time>2021-03-28T09:54:17Z</time>
      </trkpt>
      <trkpt lat="42.77564" lon="2.77733">
        <ele>61.6</ele>
        <time>2021-03-28T09:54:19Z</time>
      </trkpt>
      <trkpt lat="42.77564" lon="2.77733">
        <ele>61.6</ele>
        <time>2021-03-28T09:54:19Z</time>
      </trkpt>
      <trkpt lat="42.7757" lon="2.77721">
        <ele>61.5</ele>
        <time>2021-03-28T09:54:21Z</time>
      </trkpt>
      <trkpt lat="42.7757" lon="2.77721">
        <ele>61.5</ele>
        <time>2021-03-28T09:54:21Z</time>
      </trkpt>
      <trkpt lat="42.77577" lon="2.7771">
        <ele>61.9</ele>
        <time>2021-03-28T09:54:23Z</time>
      </trkpt>
      <trkpt lat="42.77577" lon="2.7771">
        <ele>61.9</ele>
        <time>2021-03-28T09:54:23Z</time>
      </trkpt>
      <trkpt lat="42.77583" lon="2.77698">
        <ele>62.6</ele>
        <time>2021-03-28T09:54:25Z</time>
      </trkpt>
      <trkpt lat="42.77583" lon="2.77698">
        <ele>62.6</ele>
        <time>2021-03-28T09:54:25Z</time>
      </trkpt>
      <trkpt lat="42.77589" lon="2.77689">
        <ele>62.8</ele>
        <time>2021-03-28T09:54:26Z</time>
      </trkpt>
      <trkpt lat="42.77589" lon="2.77689">
        <ele>62.8</ele>
        <time>2021-03-28T09:54:26Z</time>
      </trkpt>
      <trkpt lat="42.77595" lon="2.7768">
        <ele>62.9</ele>
        <time>2021-03-28T09:54:27Z</time>
      </trkpt>
      <trkpt lat="42.77595" lon="2.7768">
        <ele>62.9</ele>
        <time>2021-03-28T09:54:27Z</time>
      </trkpt>
      <trkpt lat="42.77599" lon="2.77673">
        <ele>63.1</ele>
        <time>2021-03-28T09:54:29Z</time>
      </trkpt>
      <trkpt lat="42.77599" lon="2.77673">
        <ele>63.1</ele>
        <time>2021-03-28T09:54:29Z</time>
      </trkpt>
      <trkpt lat="42.77604" lon="2.77666">
        <ele>63.3</ele>
        <time>2021-03-28T09:54:31Z</time>
      </trkpt>
      <trkpt lat="42.77604" lon="2.77666">
        <ele>63.3</ele>
        <time>2021-03-28T09:54:31Z</time>
      </trkpt>
      <trkpt lat="42.77609" lon="2.77658">
        <ele>63.7</ele>
        <time>2021-03-28T09:54:33Z</time>
      </trkpt>
      <trkpt lat="42.77609" lon="2.77658">
        <ele>63.7</ele>
        <time>2021-03-28T09:54:33Z</time>
      </trkpt>
      <trkpt lat="42.77614" lon="2.77651">
        <ele>63.9</ele>
        <time>2021-03-28T09:54:34Z</time>
      </trkpt>
      <trkpt lat="42.77614" lon="2.77651">
        <ele>63.9</ele>
        <time>2021-03-28T09:54:34Z</time>
      </trkpt>
      <trkpt lat="42.7762" lon="2.77642">
        <ele>64.1</ele>
        <time>2021-03-28T09:54:36Z</time>
      </trkpt>
      <trkpt lat="42.7762" lon="2.77642">
        <ele>64.1</ele>
        <time>2021-03-28T09:54:36Z</time>
      </trkpt>
      <trkpt lat="42.77624" lon="2.77635">
        <ele>64.4</ele>
        <time>2021-03-28T09:54:37Z</time>
      </trkpt>
      <trkpt lat="42.77624" lon="2.77635">
        <ele>64.4</ele>
        <time>2021-03-28T09:54:37Z</time>
      </trkpt>
      <trkpt lat="42.77629" lon="2.77628">
        <ele>64.8</ele>
        <time>2021-03-28T09:54:39Z</time>
      </trkpt>
      <trkpt lat="42.77629" lon="2.77628">
        <ele>64.8</ele>
        <time>2021-03-28T09:54:39Z</time>
      </trkpt>
      <trkpt lat="42.77632" lon="2.77622">
        <ele>65.2</ele>
        <time>2021-03-28T09:54:40Z</time>
      </trkpt>
      <trkpt lat="42.77632" lon="2.77622">
        <ele>65.2</ele>
        <time>2021-03-28T09:54:40Z</time>
      </trkpt>
      <trkpt lat="42.77637" lon="2.77614">
        <ele>65.7</ele>
        <time>2021-03-28T09:54:42Z</time>
      </trkpt>
      <trkpt lat="42.77637" lon="2.77614">
        <ele>65.7</ele>
        <time>2021-03-28T09:54:42Z</time>
      </trkpt>
      <trkpt lat="42.77641" lon="2.77608">
        <ele>65.9</ele>
        <time>2021-03-28T09:54:43Z</time>
      </trkpt>
      <trkpt lat="42.77641" lon="2.77608">
        <ele>65.9</ele>
        <time>2021-03-28T09:54:43Z</time>
      </trkpt>
      <trkpt lat="42.77646" lon="2.776">
        <ele>65.9</ele>
        <time>2021-03-28T09:54:45Z</time>
      </trkpt>
      <trkpt lat="42.77646" lon="2.776">
        <ele>65.9</ele>
        <time>2021-03-28T09:54:45Z</time>
      </trkpt>
      <trkpt lat="42.77649" lon="2.77594">
        <ele>65.9</ele>
        <time>2021-03-28T09:54:46Z</time>
      </trkpt>
      <trkpt lat="42.77649" lon="2.77594">
        <ele>65.9</ele>
        <time>2021-03-28T09:54:46Z</time>
      </trkpt>
      <trkpt lat="42.77652" lon="2.7759">
        <ele>66</ele>
        <time>2021-03-28T09:54:47Z</time>
      </trkpt>
      <trkpt lat="42.77652" lon="2.7759">
        <ele>66</ele>
        <time>2021-03-28T09:54:47Z</time>
      </trkpt>
      <trkpt lat="42.77656" lon="2.77585">
        <ele>66.3</ele>
        <time>2021-03-28T09:54:49Z</time>
      </trkpt>
      <trkpt lat="42.77656" lon="2.77585">
        <ele>66.3</ele>
        <time>2021-03-28T09:54:49Z</time>
      </trkpt>
      <trkpt lat="42.7766" lon="2.7758">
        <ele>66.4</ele>
        <time>2021-03-28T09:54:51Z</time>
      </trkpt>
      <trkpt lat="42.7766" lon="2.7758">
        <ele>66.4</ele>
        <time>2021-03-28T09:54:51Z</time>
      </trkpt>
      <trkpt lat="42.77663" lon="2.77575">
        <ele>66.4</ele>
        <time>2021-03-28T09:54:52Z</time>
      </trkpt>
      <trkpt lat="42.77663" lon="2.77575">
        <ele>66.4</ele>
        <time>2021-03-28T09:54:52Z</time>
      </trkpt>
      <trkpt lat="42.77668" lon="2.77568">
        <ele>66.5</ele>
        <time>2021-03-28T09:54:54Z</time>
      </trkpt>
      <trkpt lat="42.77668" lon="2.77568">
        <ele>66.5</ele>
        <time>2021-03-28T09:54:54Z</time>
      </trkpt>
      <trkpt lat="42.77673" lon="2.77561">
        <ele>66.3</ele>
        <time>2021-03-28T09:54:56Z</time>
      </trkpt>
      <trkpt lat="42.77673" lon="2.77561">
        <ele>66.3</ele>
        <time>2021-03-28T09:54:56Z</time>
      </trkpt>
      <trkpt lat="42.77678" lon="2.77553">
        <ele>66.4</ele>
        <time>2021-03-28T09:54:58Z</time>
      </trkpt>
      <trkpt lat="42.77678" lon="2.77553">
        <ele>66.4</ele>
        <time>2021-03-28T09:54:58Z</time>
      </trkpt>
      <trkpt lat="42.77684" lon="2.77546">
        <ele>66.9</ele>
        <time>2021-03-28T09:55:00Z</time>
      </trkpt>
      <trkpt lat="42.77684" lon="2.77546">
        <ele>66.9</ele>
        <time>2021-03-28T09:55:00Z</time>
      </trkpt>
      <trkpt lat="42.77688" lon="2.7754">
        <ele>67.4</ele>
        <time>2021-03-28T09:55:01Z</time>
      </trkpt>
      <trkpt lat="42.77688" lon="2.7754">
        <ele>67.4</ele>
        <time>2021-03-28T09:55:01Z</time>
      </trkpt>
      <trkpt lat="42.77692" lon="2.77534">
        <ele>68.1</ele>
        <time>2021-03-28T09:55:02Z</time>
      </trkpt>
      <trkpt lat="42.77692" lon="2.77534">
        <ele>68.1</ele>
        <time>2021-03-28T09:55:02Z</time>
      </trkpt>
      <trkpt lat="42.77697" lon="2.77527">
        <ele>68.9</ele>
        <time>2021-03-28T09:55:04Z</time>
      </trkpt>
      <trkpt lat="42.77697" lon="2.77527">
        <ele>68.9</ele>
        <time>2021-03-28T09:55:04Z</time>
      </trkpt>
      <trkpt lat="42.77703" lon="2.77518">
        <ele>69</ele>
        <time>2021-03-28T09:55:06Z</time>
      </trkpt>
      <trkpt lat="42.77703" lon="2.77518">
        <ele>69</ele>
        <time>2021-03-28T09:55:06Z</time>
      </trkpt>
      <trkpt lat="42.77708" lon="2.77511">
        <ele>69.3</ele>
        <time>2021-03-28T09:55:07Z</time>
      </trkpt>
      <trkpt lat="42.77708" lon="2.77511">
        <ele>69.3</ele>
        <time>2021-03-28T09:55:07Z</time>
      </trkpt>
      <trkpt lat="42.77713" lon="2.77502">
        <ele>69.8</ele>
        <time>2021-03-28T09:55:09Z</time>
      </trkpt>
      <trkpt lat="42.77713" lon="2.77502">
        <ele>69.8</ele>
        <time>2021-03-28T09:55:09Z</time>
      </trkpt>
      <trkpt lat="42.77717" lon="2.77495">
        <ele>70.2</ele>
        <time>2021-03-28T09:55:10Z</time>
      </trkpt>
      <trkpt lat="42.77717" lon="2.77495">
        <ele>70.2</ele>
        <time>2021-03-28T09:55:10Z</time>
      </trkpt>
      <trkpt lat="42.77721" lon="2.77489">
        <ele>70.4</ele>
        <time>2021-03-28T09:55:12Z</time>
      </trkpt>
      <trkpt lat="42.77721" lon="2.77489">
        <ele>70.4</ele>
        <time>2021-03-28T09:55:12Z</time>
      </trkpt>
      <trkpt lat="42.77725" lon="2.77483">
        <ele>70.6</ele>
        <time>2021-03-28T09:55:13Z</time>
      </trkpt>
      <trkpt lat="42.77725" lon="2.77483">
        <ele>70.6</ele>
        <time>2021-03-28T09:55:13Z</time>
      </trkpt>
      <trkpt lat="42.77729" lon="2.77476">
        <ele>70.8</ele>
        <time>2021-03-28T09:55:15Z</time>
      </trkpt>
      <trkpt lat="42.77729" lon="2.77476">
        <ele>70.8</ele>
        <time>2021-03-28T09:55:15Z</time>
      </trkpt>
      <trkpt lat="42.77733" lon="2.77469">
        <ele>71.2</ele>
        <time>2021-03-28T09:55:16Z</time>
      </trkpt>
      <trkpt lat="42.77733" lon="2.77469">
        <ele>71.2</ele>
        <time>2021-03-28T09:55:16Z</time>
      </trkpt>
      <trkpt lat="42.77737" lon="2.77462">
        <ele>71.7</ele>
        <time>2021-03-28T09:55:18Z</time>
      </trkpt>
      <trkpt lat="42.77737" lon="2.77462">
        <ele>71.7</ele>
        <time>2021-03-28T09:55:18Z</time>
      </trkpt>
      <trkpt lat="42.77742" lon="2.77453">
        <ele>72.1</ele>
        <time>2021-03-28T09:55:20Z</time>
      </trkpt>
      <trkpt lat="42.77742" lon="2.77453">
        <ele>72.1</ele>
        <time>2021-03-28T09:55:20Z</time>
      </trkpt>
      <trkpt lat="42.77746" lon="2.77444">
        <ele>72.3</ele>
        <time>2021-03-28T09:55:22Z</time>
      </trkpt>
      <trkpt lat="42.77746" lon="2.77444">
        <ele>72.3</ele>
        <time>2021-03-28T09:55:22Z</time>
      </trkpt>
      <trkpt lat="42.77751" lon="2.77435">
        <ele>72.7</ele>
        <time>2021-03-28T09:55:24Z</time>
      </trkpt>
      <trkpt lat="42.77751" lon="2.77435">
        <ele>72.7</ele>
        <time>2021-03-28T09:55:24Z</time>
      </trkpt>
      <trkpt lat="42.77755" lon="2.77429">
        <ele>73.1</ele>
        <time>2021-03-28T09:55:25Z</time>
      </trkpt>
      <trkpt lat="42.77755" lon="2.77429">
        <ele>73.1</ele>
        <time>2021-03-28T09:55:25Z</time>
      </trkpt>
      <trkpt lat="42.77759" lon="2.77422">
        <ele>73.6</ele>
        <time>2021-03-28T09:55:27Z</time>
      </trkpt>
      <trkpt lat="42.77759" lon="2.77422">
        <ele>73.6</ele>
        <time>2021-03-28T09:55:27Z</time>
      </trkpt>
      <trkpt lat="42.77763" lon="2.77416">
        <ele>74.1</ele>
        <time>2021-03-28T09:55:28Z</time>
      </trkpt>
      <trkpt lat="42.77763" lon="2.77416">
        <ele>74.1</ele>
        <time>2021-03-28T09:55:28Z</time>
      </trkpt>
      <trkpt lat="42.77765" lon="2.7741">
        <ele>74.5</ele>
        <time>2021-03-28T09:55:29Z</time>
      </trkpt>
      <trkpt lat="42.77765" lon="2.7741">
        <ele>74.5</ele>
        <time>2021-03-28T09:55:29Z</time>
      </trkpt>
      <trkpt lat="42.77768" lon="2.77402">
        <ele>74.9</ele>
        <time>2021-03-28T09:55:31Z</time>
      </trkpt>
      <trkpt lat="42.77768" lon="2.77402">
        <ele>74.9</ele>
        <time>2021-03-28T09:55:31Z</time>
      </trkpt>
      <trkpt lat="42.77771" lon="2.77395">
        <ele>75.2</ele>
        <time>2021-03-28T09:55:32Z</time>
      </trkpt>
      <trkpt lat="42.77771" lon="2.77395">
        <ele>75.2</ele>
        <time>2021-03-28T09:55:32Z</time>
      </trkpt>
      <trkpt lat="42.77774" lon="2.77387">
        <ele>75.4</ele>
        <time>2021-03-28T09:55:34Z</time>
      </trkpt>
      <trkpt lat="42.77774" lon="2.77387">
        <ele>75.4</ele>
        <time>2021-03-28T09:55:34Z</time>
      </trkpt>
      <trkpt lat="42.77777" lon="2.7738">
        <ele>75.4</ele>
        <time>2021-03-28T09:55:35Z</time>
      </trkpt>
      <trkpt lat="42.77777" lon="2.7738">
        <ele>75.4</ele>
        <time>2021-03-28T09:55:35Z</time>
      </trkpt>
      <trkpt lat="42.77779" lon="2.77373">
        <ele>75.6</ele>
        <time>2021-03-28T09:55:36Z</time>
      </trkpt>
      <trkpt lat="42.77779" lon="2.77373">
        <ele>75.6</ele>
        <time>2021-03-28T09:55:36Z</time>
      </trkpt>
      <trkpt lat="42.7778" lon="2.77367">
        <ele>75.9</ele>
        <time>2021-03-28T09:55:37Z</time>
      </trkpt>
      <trkpt lat="42.7778" lon="2.77367">
        <ele>75.9</ele>
        <time>2021-03-28T09:55:37Z</time>
      </trkpt>
      <trkpt lat="42.77782" lon="2.7736">
        <ele>76.2</ele>
        <time>2021-03-28T09:55:39Z</time>
      </trkpt>
      <trkpt lat="42.77782" lon="2.7736">
        <ele>76.2</ele>
        <time>2021-03-28T09:55:39Z</time>
      </trkpt>
      <trkpt lat="42.77784" lon="2.77352">
        <ele>76.6</ele>
        <time>2021-03-28T09:55:41Z</time>
      </trkpt>
      <trkpt lat="42.77784" lon="2.77352">
        <ele>76.6</ele>
        <time>2021-03-28T09:55:41Z</time>
      </trkpt>
      <trkpt lat="42.77786" lon="2.77345">
        <ele>76.8</ele>
        <time>2021-03-28T09:55:42Z</time>
      </trkpt>
      <trkpt lat="42.77786" lon="2.77345">
        <ele>76.8</ele>
        <time>2021-03-28T09:55:42Z</time>
      </trkpt>
      <trkpt lat="42.77787" lon="2.77337">
        <ele>77.2</ele>
        <time>2021-03-28T09:55:44Z</time>
      </trkpt>
      <trkpt lat="42.77787" lon="2.77337">
        <ele>77.2</ele>
        <time>2021-03-28T09:55:44Z</time>
      </trkpt>
      <trkpt lat="42.7779" lon="2.77328">
        <ele>77.5</ele>
        <time>2021-03-28T09:55:46Z</time>
      </trkpt>
      <trkpt lat="42.7779" lon="2.77328">
        <ele>77.5</ele>
        <time>2021-03-28T09:55:46Z</time>
      </trkpt>
      <trkpt lat="42.77792" lon="2.7732">
        <ele>77.7</ele>
        <time>2021-03-28T09:55:47Z</time>
      </trkpt>
      <trkpt lat="42.77792" lon="2.7732">
        <ele>77.7</ele>
        <time>2021-03-28T09:55:47Z</time>
      </trkpt>
      <trkpt lat="42.77794" lon="2.7731">
        <ele>77.9</ele>
        <time>2021-03-28T09:55:49Z</time>
      </trkpt>
      <trkpt lat="42.77794" lon="2.7731">
        <ele>77.9</ele>
        <time>2021-03-28T09:55:49Z</time>
      </trkpt>
      <trkpt lat="42.77796" lon="2.77302">
        <ele>78</ele>
        <time>2021-03-28T09:55:50Z</time>
      </trkpt>
      <trkpt lat="42.77796" lon="2.77302">
        <ele>78</ele>
        <time>2021-03-28T09:55:50Z</time>
      </trkpt>
      <trkpt lat="42.77798" lon="2.77293">
        <ele>78</ele>
        <time>2021-03-28T09:55:52Z</time>
      </trkpt>
      <trkpt lat="42.77798" lon="2.77293">
        <ele>78</ele>
        <time>2021-03-28T09:55:52Z</time>
      </trkpt>
      <trkpt lat="42.77799" lon="2.77283">
        <ele>78</ele>
        <time>2021-03-28T09:55:54Z</time>
      </trkpt>
      <trkpt lat="42.77799" lon="2.77283">
        <ele>78</ele>
        <time>2021-03-28T09:55:54Z</time>
      </trkpt>
      <trkpt lat="42.778" lon="2.77272">
        <ele>78.2</ele>
        <time>2021-03-28T09:55:56Z</time>
      </trkpt>
      <trkpt lat="42.778" lon="2.77272">
        <ele>78.2</ele>
        <time>2021-03-28T09:55:56Z</time>
      </trkpt>
      <trkpt lat="42.77801" lon="2.77261">
        <ele>78.5</ele>
        <time>2021-03-28T09:55:58Z</time>
      </trkpt>
      <trkpt lat="42.77801" lon="2.77261">
        <ele>78.5</ele>
        <time>2021-03-28T09:55:58Z</time>
      </trkpt>
      <trkpt lat="42.77802" lon="2.77248">
        <ele>78.8</ele>
        <time>2021-03-28T09:56:00Z</time>
      </trkpt>
      <trkpt lat="42.77802" lon="2.77248">
        <ele>78.8</ele>
        <time>2021-03-28T09:56:00Z</time>
      </trkpt>
      <trkpt lat="42.77803" lon="2.77238">
        <ele>78.5</ele>
        <time>2021-03-28T09:56:01Z</time>
      </trkpt>
      <trkpt lat="42.77803" lon="2.77238">
        <ele>78.5</ele>
        <time>2021-03-28T09:56:01Z</time>
      </trkpt>
      <trkpt lat="42.77804" lon="2.77229">
        <ele>78.2</ele>
        <time>2021-03-28T09:56:02Z</time>
      </trkpt>
      <trkpt lat="42.77804" lon="2.77229">
        <ele>78.2</ele>
        <time>2021-03-28T09:56:02Z</time>
      </trkpt>
      <trkpt lat="42.77804" lon="2.7722">
        <ele>78.1</ele>
        <time>2021-03-28T09:56:03Z</time>
      </trkpt>
      <trkpt lat="42.77804" lon="2.7722">
        <ele>78.1</ele>
        <time>2021-03-28T09:56:03Z</time>
      </trkpt>
      <trkpt lat="42.77803" lon="2.7721">
        <ele>78.4</ele>
        <time>2021-03-28T09:56:05Z</time>
      </trkpt>
      <trkpt lat="42.77803" lon="2.7721">
        <ele>78.4</ele>
        <time>2021-03-28T09:56:05Z</time>
      </trkpt>
      <trkpt lat="42.77802" lon="2.77199">
        <ele>78.6</ele>
        <time>2021-03-28T09:56:07Z</time>
      </trkpt>
      <trkpt lat="42.77802" lon="2.77199">
        <ele>78.6</ele>
        <time>2021-03-28T09:56:07Z</time>
      </trkpt>
      <trkpt lat="42.77801" lon="2.7719">
        <ele>78.8</ele>
        <time>2021-03-28T09:56:08Z</time>
      </trkpt>
      <trkpt lat="42.77801" lon="2.7719">
        <ele>78.8</ele>
        <time>2021-03-28T09:56:08Z</time>
      </trkpt>
      <trkpt lat="42.77799" lon="2.77182">
        <ele>79</ele>
        <time>2021-03-28T09:56:09Z</time>
      </trkpt>
      <trkpt lat="42.77799" lon="2.77182">
        <ele>79</ele>
        <time>2021-03-28T09:56:09Z</time>
      </trkpt>
      <trkpt lat="42.77799" lon="2.77174">
        <ele>79.2</ele>
        <time>2021-03-28T09:56:10Z</time>
      </trkpt>
      <trkpt lat="42.77799" lon="2.77174">
        <ele>79.2</ele>
        <time>2021-03-28T09:56:10Z</time>
      </trkpt>
      <trkpt lat="42.77798" lon="2.77164">
        <ele>79.9</ele>
        <time>2021-03-28T09:56:12Z</time>
      </trkpt>
      <trkpt lat="42.77798" lon="2.77164">
        <ele>79.9</ele>
        <time>2021-03-28T09:56:12Z</time>
      </trkpt>
      <trkpt lat="42.77796" lon="2.77154">
        <ele>81.2</ele>
        <time>2021-03-28T09:56:13Z</time>
      </trkpt>
      <trkpt lat="42.77796" lon="2.77154">
        <ele>81.2</ele>
        <time>2021-03-28T09:56:13Z</time>
      </trkpt>
      <trkpt lat="42.77795" lon="2.77145">
        <ele>82.3</ele>
        <time>2021-03-28T09:56:14Z</time>
      </trkpt>
      <trkpt lat="42.77795" lon="2.77145">
        <ele>82.3</ele>
        <time>2021-03-28T09:56:14Z</time>
      </trkpt>
      <trkpt lat="42.77794" lon="2.77135">
        <ele>82.8</ele>
        <time>2021-03-28T09:56:16Z</time>
      </trkpt>
      <trkpt lat="42.77794" lon="2.77135">
        <ele>82.8</ele>
        <time>2021-03-28T09:56:16Z</time>
      </trkpt>
      <trkpt lat="42.77792" lon="2.77126">
        <ele>82.3</ele>
        <time>2021-03-28T09:56:17Z</time>
      </trkpt>
      <trkpt lat="42.77792" lon="2.77126">
        <ele>82.3</ele>
        <time>2021-03-28T09:56:17Z</time>
      </trkpt>
      <trkpt lat="42.77789" lon="2.77114">
        <ele>81.2</ele>
        <time>2021-03-28T09:56:19Z</time>
      </trkpt>
      <trkpt lat="42.77789" lon="2.77114">
        <ele>81.2</ele>
        <time>2021-03-28T09:56:19Z</time>
      </trkpt>
      <trkpt lat="42.77787" lon="2.77103">
        <ele>80.2</ele>
        <time>2021-03-28T09:56:20Z</time>
      </trkpt>
      <trkpt lat="42.77787" lon="2.77103">
        <ele>80.2</ele>
        <time>2021-03-28T09:56:20Z</time>
      </trkpt>
      <trkpt lat="42.77784" lon="2.77093">
        <ele>79</ele>
        <time>2021-03-28T09:56:21Z</time>
      </trkpt>
      <trkpt lat="42.77784" lon="2.77093">
        <ele>79</ele>
        <time>2021-03-28T09:56:21Z</time>
      </trkpt>
      <trkpt lat="42.7778" lon="2.77079">
        <ele>76.9</ele>
        <time>2021-03-28T09:56:23Z</time>
      </trkpt>
      <trkpt lat="42.7778" lon="2.77079">
        <ele>76.9</ele>
        <time>2021-03-28T09:56:23Z</time>
      </trkpt>
      <trkpt lat="42.77776" lon="2.77067">
        <ele>77.1</ele>
        <time>2021-03-28T09:56:24Z</time>
      </trkpt>
      <trkpt lat="42.77776" lon="2.77067">
        <ele>77.1</ele>
        <time>2021-03-28T09:56:24Z</time>
      </trkpt>
      <trkpt lat="42.77771" lon="2.77056">
        <ele>79.2</ele>
        <time>2021-03-28T09:56:25Z</time>
      </trkpt>
      <trkpt lat="42.77771" lon="2.77056">
        <ele>79.2</ele>
        <time>2021-03-28T09:56:25Z</time>
      </trkpt>
      <trkpt lat="42.77766" lon="2.77042">
        <ele>78.7</ele>
        <time>2021-03-28T09:56:27Z</time>
      </trkpt>
      <trkpt lat="42.77766" lon="2.77042">
        <ele>78.7</ele>
        <time>2021-03-28T09:56:27Z</time>
      </trkpt>
      <trkpt lat="42.77759" lon="2.77027">
        <ele>74.9</ele>
        <time>2021-03-28T09:56:29Z</time>
      </trkpt>
      <trkpt lat="42.77759" lon="2.77027">
        <ele>74.9</ele>
        <time>2021-03-28T09:56:29Z</time>
      </trkpt>
      <trkpt lat="42.77753" lon="2.77013">
        <ele>74.4</ele>
        <time>2021-03-28T09:56:30Z</time>
      </trkpt>
      <trkpt lat="42.77753" lon="2.77013">
        <ele>74.4</ele>
        <time>2021-03-28T09:56:30Z</time>
      </trkpt>
      <trkpt lat="42.77747" lon="2.77001">
        <ele>75.5</ele>
        <time>2021-03-28T09:56:31Z</time>
      </trkpt>
      <trkpt lat="42.77747" lon="2.77001">
        <ele>75.5</ele>
        <time>2021-03-28T09:56:31Z</time>
      </trkpt>
      <trkpt lat="42.77738" lon="2.76988">
        <ele>76.2</ele>
        <time>2021-03-28T09:56:33Z</time>
      </trkpt>
      <trkpt lat="42.77738" lon="2.76988">
        <ele>76.2</ele>
        <time>2021-03-28T09:56:33Z</time>
      </trkpt>
      <trkpt lat="42.7773" lon="2.76977">
        <ele>74.2</ele>
        <time>2021-03-28T09:56:34Z</time>
      </trkpt>
      <trkpt lat="42.7773" lon="2.76977">
        <ele>74.2</ele>
        <time>2021-03-28T09:56:34Z</time>
      </trkpt>
      <trkpt lat="42.77721" lon="2.76963">
        <ele>71.5</ele>
        <time>2021-03-28T09:56:36Z</time>
      </trkpt>
      <trkpt lat="42.77721" lon="2.76963">
        <ele>71.5</ele>
        <time>2021-03-28T09:56:36Z</time>
      </trkpt>
      <trkpt lat="42.77712" lon="2.76952">
        <ele>71.3</ele>
        <time>2021-03-28T09:56:37Z</time>
      </trkpt>
      <trkpt lat="42.77712" lon="2.76952">
        <ele>71.3</ele>
        <time>2021-03-28T09:56:37Z</time>
      </trkpt>
      <trkpt lat="42.77702" lon="2.76939">
        <ele>71</ele>
        <time>2021-03-28T09:56:39Z</time>
      </trkpt>
      <trkpt lat="42.77702" lon="2.76939">
        <ele>71</ele>
        <time>2021-03-28T09:56:39Z</time>
      </trkpt>
      <trkpt lat="42.7769" lon="2.76925">
        <ele>71.2</ele>
        <time>2021-03-28T09:56:41Z</time>
      </trkpt>
      <trkpt lat="42.7769" lon="2.76925">
        <ele>71.2</ele>
        <time>2021-03-28T09:56:41Z</time>
      </trkpt>
      <trkpt lat="42.77677" lon="2.76911">
        <ele>69.9</ele>
        <time>2021-03-28T09:56:43Z</time>
      </trkpt>
      <trkpt lat="42.77677" lon="2.76911">
        <ele>69.9</ele>
        <time>2021-03-28T09:56:43Z</time>
      </trkpt>
      <trkpt lat="42.77666" lon="2.76899">
        <ele>70</ele>
        <time>2021-03-28T09:56:44Z</time>
      </trkpt>
      <trkpt lat="42.77666" lon="2.76899">
        <ele>70</ele>
        <time>2021-03-28T09:56:44Z</time>
      </trkpt>
      <trkpt lat="42.77654" lon="2.76887">
        <ele>68.9</ele>
        <time>2021-03-28T09:56:46Z</time>
      </trkpt>
      <trkpt lat="42.77654" lon="2.76887">
        <ele>68.9</ele>
        <time>2021-03-28T09:56:46Z</time>
      </trkpt>
      <trkpt lat="42.77641" lon="2.76873">
        <ele>67.8</ele>
        <time>2021-03-28T09:56:48Z</time>
      </trkpt>
      <trkpt lat="42.77641" lon="2.76873">
        <ele>67.8</ele>
        <time>2021-03-28T09:56:48Z</time>
      </trkpt>
      <trkpt lat="42.77628" lon="2.76859">
        <ele>67.5</ele>
        <time>2021-03-28T09:56:50Z</time>
      </trkpt>
      <trkpt lat="42.77628" lon="2.76859">
        <ele>67.5</ele>
        <time>2021-03-28T09:56:50Z</time>
      </trkpt>
      <trkpt lat="42.77615" lon="2.76844">
        <ele>67.2</ele>
        <time>2021-03-28T09:56:52Z</time>
      </trkpt>
      <trkpt lat="42.77615" lon="2.76844">
        <ele>67.2</ele>
        <time>2021-03-28T09:56:52Z</time>
      </trkpt>
      <trkpt lat="42.77601" lon="2.76828">
        <ele>67.4</ele>
        <time>2021-03-28T09:56:54Z</time>
      </trkpt>
      <trkpt lat="42.77601" lon="2.76828">
        <ele>67.4</ele>
        <time>2021-03-28T09:56:54Z</time>
      </trkpt>
      <trkpt lat="42.77588" lon="2.76812">
        <ele>67.2</ele>
        <time>2021-03-28T09:56:56Z</time>
      </trkpt>
      <trkpt lat="42.77588" lon="2.76812">
        <ele>67.2</ele>
        <time>2021-03-28T09:56:56Z</time>
      </trkpt>
      <trkpt lat="42.77575" lon="2.76794">
        <ele>66.8</ele>
        <time>2021-03-28T09:56:58Z</time>
      </trkpt>
      <trkpt lat="42.77575" lon="2.76794">
        <ele>66.8</ele>
        <time>2021-03-28T09:56:58Z</time>
      </trkpt>
      <trkpt lat="42.77564" lon="2.7678">
        <ele>65.2</ele>
        <time>2021-03-28T09:56:59Z</time>
      </trkpt>
      <trkpt lat="42.77564" lon="2.7678">
        <ele>65.2</ele>
        <time>2021-03-28T09:56:59Z</time>
      </trkpt>
      <trkpt lat="42.77551" lon="2.76764">
        <ele>66</ele>
        <time>2021-03-28T09:57:01Z</time>
      </trkpt>
      <trkpt lat="42.77551" lon="2.76764">
        <ele>66</ele>
        <time>2021-03-28T09:57:01Z</time>
      </trkpt>
      <trkpt lat="42.77538" lon="2.76747">
        <ele>64.5</ele>
        <time>2021-03-28T09:57:03Z</time>
      </trkpt>
      <trkpt lat="42.77538" lon="2.76747">
        <ele>64.5</ele>
        <time>2021-03-28T09:57:03Z</time>
      </trkpt>
      <trkpt lat="42.77527" lon="2.76733">
        <ele>64.9</ele>
        <time>2021-03-28T09:57:04Z</time>
      </trkpt>
      <trkpt lat="42.77527" lon="2.76733">
        <ele>64.9</ele>
        <time>2021-03-28T09:57:04Z</time>
      </trkpt>
      <trkpt lat="42.77517" lon="2.7672">
        <ele>64.1</ele>
        <time>2021-03-28T09:57:05Z</time>
      </trkpt>
      <trkpt lat="42.77517" lon="2.7672">
        <ele>64.1</ele>
        <time>2021-03-28T09:57:05Z</time>
      </trkpt>
      <trkpt lat="42.77508" lon="2.76709">
        <ele>63.3</ele>
        <time>2021-03-28T09:57:06Z</time>
      </trkpt>
      <trkpt lat="42.77508" lon="2.76709">
        <ele>63.3</ele>
        <time>2021-03-28T09:57:06Z</time>
      </trkpt>
      <trkpt lat="42.77498" lon="2.76696">
        <ele>63.3</ele>
        <time>2021-03-28T09:57:08Z</time>
      </trkpt>
      <trkpt lat="42.77498" lon="2.76696">
        <ele>63.3</ele>
        <time>2021-03-28T09:57:08Z</time>
      </trkpt>
      <trkpt lat="42.77486" lon="2.76682">
        <ele>62.9</ele>
        <time>2021-03-28T09:57:10Z</time>
      </trkpt>
      <trkpt lat="42.77486" lon="2.76682">
        <ele>62.9</ele>
        <time>2021-03-28T09:57:10Z</time>
      </trkpt>
      <trkpt lat="42.77474" lon="2.76667">
        <ele>62.8</ele>
        <time>2021-03-28T09:57:12Z</time>
      </trkpt>
      <trkpt lat="42.77474" lon="2.76667">
        <ele>62.8</ele>
        <time>2021-03-28T09:57:12Z</time>
      </trkpt>
      <trkpt lat="42.77462" lon="2.76653">
        <ele>63.3</ele>
        <time>2021-03-28T09:57:14Z</time>
      </trkpt>
      <trkpt lat="42.77462" lon="2.76653">
        <ele>63.3</ele>
        <time>2021-03-28T09:57:14Z</time>
      </trkpt>
      <trkpt lat="42.77451" lon="2.76641">
        <ele>63.6</ele>
        <time>2021-03-28T09:57:15Z</time>
      </trkpt>
      <trkpt lat="42.77451" lon="2.76641">
        <ele>63.6</ele>
        <time>2021-03-28T09:57:15Z</time>
      </trkpt>
      <trkpt lat="42.7744" lon="2.76628">
        <ele>63.3</ele>
        <time>2021-03-28T09:57:17Z</time>
      </trkpt>
      <trkpt lat="42.7744" lon="2.76628">
        <ele>63.3</ele>
        <time>2021-03-28T09:57:17Z</time>
      </trkpt>
      <trkpt lat="42.77431" lon="2.76617">
        <ele>63.2</ele>
        <time>2021-03-28T09:57:18Z</time>
      </trkpt>
      <trkpt lat="42.77431" lon="2.76617">
        <ele>63.2</ele>
        <time>2021-03-28T09:57:18Z</time>
      </trkpt>
      <trkpt lat="42.7742" lon="2.76605">
        <ele>63</ele>
        <time>2021-03-28T09:57:20Z</time>
      </trkpt>
      <trkpt lat="42.7742" lon="2.76605">
        <ele>63</ele>
        <time>2021-03-28T09:57:20Z</time>
      </trkpt>
      <trkpt lat="42.77412" lon="2.76594">
        <ele>62.7</ele>
        <time>2021-03-28T09:57:21Z</time>
      </trkpt>
      <trkpt lat="42.77412" lon="2.76594">
        <ele>62.7</ele>
        <time>2021-03-28T09:57:21Z</time>
      </trkpt>
      <trkpt lat="42.77403" lon="2.76582">
        <ele>62.5</ele>
        <time>2021-03-28T09:57:23Z</time>
      </trkpt>
      <trkpt lat="42.77403" lon="2.76582">
        <ele>62.5</ele>
        <time>2021-03-28T09:57:23Z</time>
      </trkpt>
      <trkpt lat="42.77395" lon="2.76572">
        <ele>62.3</ele>
        <time>2021-03-28T09:57:24Z</time>
      </trkpt>
      <trkpt lat="42.77395" lon="2.76572">
        <ele>62.3</ele>
        <time>2021-03-28T09:57:24Z</time>
      </trkpt>
      <trkpt lat="42.77386" lon="2.7656">
        <ele>61.8</ele>
        <time>2021-03-28T09:57:26Z</time>
      </trkpt>
      <trkpt lat="42.77386" lon="2.7656">
        <ele>61.8</ele>
        <time>2021-03-28T09:57:26Z</time>
      </trkpt>
      <trkpt lat="42.77377" lon="2.76547">
        <ele>62.3</ele>
        <time>2021-03-28T09:57:28Z</time>
      </trkpt>
      <trkpt lat="42.77377" lon="2.76547">
        <ele>62.3</ele>
        <time>2021-03-28T09:57:28Z</time>
      </trkpt>
      <trkpt lat="42.77369" lon="2.76535">
        <ele>63.2</ele>
        <time>2021-03-28T09:57:29Z</time>
      </trkpt>
      <trkpt lat="42.77369" lon="2.76535">
        <ele>63.2</ele>
        <time>2021-03-28T09:57:29Z</time>
      </trkpt>
      <trkpt lat="42.77362" lon="2.76525">
        <ele>63.7</ele>
        <time>2021-03-28T09:57:30Z</time>
      </trkpt>
      <trkpt lat="42.77362" lon="2.76525">
        <ele>63.7</ele>
        <time>2021-03-28T09:57:30Z</time>
      </trkpt>
      <trkpt lat="42.77356" lon="2.76515">
        <ele>63.2</ele>
        <time>2021-03-28T09:57:31Z</time>
      </trkpt>
      <trkpt lat="42.77356" lon="2.76515">
        <ele>63.2</ele>
        <time>2021-03-28T09:57:31Z</time>
      </trkpt>
      <trkpt lat="42.77349" lon="2.76502">
        <ele>63</ele>
        <time>2021-03-28T09:57:33Z</time>
      </trkpt>
      <trkpt lat="42.77349" lon="2.76502">
        <ele>63</ele>
        <time>2021-03-28T09:57:33Z</time>
      </trkpt>
      <trkpt lat="42.77341" lon="2.76488">
        <ele>63</ele>
        <time>2021-03-28T09:57:35Z</time>
      </trkpt>
      <trkpt lat="42.77341" lon="2.76488">
        <ele>63</ele>
        <time>2021-03-28T09:57:35Z</time>
      </trkpt>
      <trkpt lat="42.77334" lon="2.76476">
        <ele>63.1</ele>
        <time>2021-03-28T09:57:36Z</time>
      </trkpt>
      <trkpt lat="42.77334" lon="2.76476">
        <ele>63.1</ele>
        <time>2021-03-28T09:57:36Z</time>
      </trkpt>
      <trkpt lat="42.77328" lon="2.76462">
        <ele>63.1</ele>
        <time>2021-03-28T09:57:38Z</time>
      </trkpt>
      <trkpt lat="42.77328" lon="2.76462">
        <ele>63.1</ele>
        <time>2021-03-28T09:57:38Z</time>
      </trkpt>
      <trkpt lat="42.77321" lon="2.76446">
        <ele>63.3</ele>
        <time>2021-03-28T09:57:40Z</time>
      </trkpt>
      <trkpt lat="42.77321" lon="2.76446">
        <ele>63.3</ele>
        <time>2021-03-28T09:57:40Z</time>
      </trkpt>
      <trkpt lat="42.77315" lon="2.76429">
        <ele>63.5</ele>
        <time>2021-03-28T09:57:42Z</time>
      </trkpt>
      <trkpt lat="42.77315" lon="2.76429">
        <ele>63.5</ele>
        <time>2021-03-28T09:57:42Z</time>
      </trkpt>
      <trkpt lat="42.77308" lon="2.76412">
        <ele>63.5</ele>
        <time>2021-03-28T09:57:44Z</time>
      </trkpt>
      <trkpt lat="42.77308" lon="2.76412">
        <ele>63.5</ele>
        <time>2021-03-28T09:57:44Z</time>
      </trkpt>
      <trkpt lat="42.77303" lon="2.76398">
        <ele>63.7</ele>
        <time>2021-03-28T09:57:45Z</time>
      </trkpt>
      <trkpt lat="42.77303" lon="2.76398">
        <ele>63.7</ele>
        <time>2021-03-28T09:57:45Z</time>
      </trkpt>
      <trkpt lat="42.77298" lon="2.76382">
        <ele>63.8</ele>
        <time>2021-03-28T09:57:47Z</time>
      </trkpt>
      <trkpt lat="42.77298" lon="2.76382">
        <ele>63.8</ele>
        <time>2021-03-28T09:57:47Z</time>
      </trkpt>
      <trkpt lat="42.77294" lon="2.76368">
        <ele>63.7</ele>
        <time>2021-03-28T09:57:48Z</time>
      </trkpt>
      <trkpt lat="42.77294" lon="2.76368">
        <ele>63.7</ele>
        <time>2021-03-28T09:57:48Z</time>
      </trkpt>
      <trkpt lat="42.7729" lon="2.76356">
        <ele>63.6</ele>
        <time>2021-03-28T09:57:49Z</time>
      </trkpt>
      <trkpt lat="42.7729" lon="2.76356">
        <ele>63.6</ele>
        <time>2021-03-28T09:57:49Z</time>
      </trkpt>
      <trkpt lat="42.77285" lon="2.76342">
        <ele>64</ele>
        <time>2021-03-28T09:57:51Z</time>
      </trkpt>
      <trkpt lat="42.77285" lon="2.76342">
        <ele>64</ele>
        <time>2021-03-28T09:57:51Z</time>
      </trkpt>
      <trkpt lat="42.77281" lon="2.76326">
        <ele>64.1</ele>
        <time>2021-03-28T09:57:53Z</time>
      </trkpt>
      <trkpt lat="42.77281" lon="2.76326">
        <ele>64.1</ele>
        <time>2021-03-28T09:57:53Z</time>
      </trkpt>
      <trkpt lat="42.77277" lon="2.76313">
        <ele>63.8</ele>
        <time>2021-03-28T09:57:54Z</time>
      </trkpt>
      <trkpt lat="42.77277" lon="2.76313">
        <ele>63.8</ele>
        <time>2021-03-28T09:57:54Z</time>
      </trkpt>
      <trkpt lat="42.77272" lon="2.76298">
        <ele>63.8</ele>
        <time>2021-03-28T09:57:56Z</time>
      </trkpt>
      <trkpt lat="42.77272" lon="2.76298">
        <ele>63.8</ele>
        <time>2021-03-28T09:57:56Z</time>
      </trkpt>
      <trkpt lat="42.77267" lon="2.76283">
        <ele>63.7</ele>
        <time>2021-03-28T09:57:58Z</time>
      </trkpt>
      <trkpt lat="42.77267" lon="2.76283">
        <ele>63.7</ele>
        <time>2021-03-28T09:57:58Z</time>
      </trkpt>
      <trkpt lat="42.77262" lon="2.76266">
        <ele>63.7</ele>
        <time>2021-03-28T09:58:00Z</time>
      </trkpt>
      <trkpt lat="42.77262" lon="2.76266">
        <ele>63.7</ele>
        <time>2021-03-28T09:58:00Z</time>
      </trkpt>
      <trkpt lat="42.77256" lon="2.76248">
        <ele>63.8</ele>
        <time>2021-03-28T09:58:02Z</time>
      </trkpt>
      <trkpt lat="42.77256" lon="2.76248">
        <ele>63.8</ele>
        <time>2021-03-28T09:58:02Z</time>
      </trkpt>
      <trkpt lat="42.7725" lon="2.7623">
        <ele>64.3</ele>
        <time>2021-03-28T09:58:04Z</time>
      </trkpt>
      <trkpt lat="42.7725" lon="2.7623">
        <ele>64.3</ele>
        <time>2021-03-28T09:58:04Z</time>
      </trkpt>
      <trkpt lat="42.77245" lon="2.76215">
        <ele>65.6</ele>
        <time>2021-03-28T09:58:05Z</time>
      </trkpt>
      <trkpt lat="42.77245" lon="2.76215">
        <ele>65.6</ele>
        <time>2021-03-28T09:58:05Z</time>
      </trkpt>
      <trkpt lat="42.7724" lon="2.76201">
        <ele>65.9</ele>
        <time>2021-03-28T09:58:06Z</time>
      </trkpt>
      <trkpt lat="42.7724" lon="2.76201">
        <ele>65.9</ele>
        <time>2021-03-28T09:58:06Z</time>
      </trkpt>
      <trkpt lat="42.77235" lon="2.76189">
        <ele>65.8</ele>
        <time>2021-03-28T09:58:07Z</time>
      </trkpt>
      <trkpt lat="42.77235" lon="2.76189">
        <ele>65.8</ele>
        <time>2021-03-28T09:58:07Z</time>
      </trkpt>
      <trkpt lat="42.77231" lon="2.76174">
        <ele>65.3</ele>
        <time>2021-03-28T09:58:09Z</time>
      </trkpt>
      <trkpt lat="42.77231" lon="2.76174">
        <ele>65.3</ele>
        <time>2021-03-28T09:58:09Z</time>
      </trkpt>
      <trkpt lat="42.77227" lon="2.76158">
        <ele>64.6</ele>
        <time>2021-03-28T09:58:11Z</time>
      </trkpt>
      <trkpt lat="42.77227" lon="2.76158">
        <ele>64.6</ele>
        <time>2021-03-28T09:58:11Z</time>
      </trkpt>
      <trkpt lat="42.77223" lon="2.7614">
        <ele>64</ele>
        <time>2021-03-28T09:58:13Z</time>
      </trkpt>
      <trkpt lat="42.77223" lon="2.7614">
        <ele>64</ele>
        <time>2021-03-28T09:58:13Z</time>
      </trkpt>
      <trkpt lat="42.77219" lon="2.76121">
        <ele>65.1</ele>
        <time>2021-03-28T09:58:15Z</time>
      </trkpt>
      <trkpt lat="42.77219" lon="2.76121">
        <ele>65.1</ele>
        <time>2021-03-28T09:58:15Z</time>
      </trkpt>
      <trkpt lat="42.77216" lon="2.76101">
        <ele>64.8</ele>
        <time>2021-03-28T09:58:17Z</time>
      </trkpt>
      <trkpt lat="42.77216" lon="2.76101">
        <ele>64.8</ele>
        <time>2021-03-28T09:58:17Z</time>
      </trkpt>
      <trkpt lat="42.77213" lon="2.76081">
        <ele>63.4</ele>
        <time>2021-03-28T09:58:19Z</time>
      </trkpt>
      <trkpt lat="42.77213" lon="2.76081">
        <ele>63.4</ele>
        <time>2021-03-28T09:58:19Z</time>
      </trkpt>
      <trkpt lat="42.7721" lon="2.76065">
        <ele>64.1</ele>
        <time>2021-03-28T09:58:20Z</time>
      </trkpt>
      <trkpt lat="42.7721" lon="2.76065">
        <ele>64.1</ele>
        <time>2021-03-28T09:58:20Z</time>
      </trkpt>
      <trkpt lat="42.77208" lon="2.7605">
        <ele>64.2</ele>
        <time>2021-03-28T09:58:21Z</time>
      </trkpt>
      <trkpt lat="42.77208" lon="2.7605">
        <ele>64.2</ele>
        <time>2021-03-28T09:58:21Z</time>
      </trkpt>
      <trkpt lat="42.77206" lon="2.76033">
        <ele>63.1</ele>
        <time>2021-03-28T09:58:23Z</time>
      </trkpt>
      <trkpt lat="42.77206" lon="2.76033">
        <ele>63.1</ele>
        <time>2021-03-28T09:58:23Z</time>
      </trkpt>
      <trkpt lat="42.77204" lon="2.76015">
        <ele>62.5</ele>
        <time>2021-03-28T09:58:25Z</time>
      </trkpt>
      <trkpt lat="42.77204" lon="2.76015">
        <ele>62.5</ele>
        <time>2021-03-28T09:58:25Z</time>
      </trkpt>
      <trkpt lat="42.77203" lon="2.75999">
        <ele>62.3</ele>
        <time>2021-03-28T09:58:26Z</time>
      </trkpt>
      <trkpt lat="42.77203" lon="2.75999">
        <ele>62.3</ele>
        <time>2021-03-28T09:58:26Z</time>
      </trkpt>
      <trkpt lat="42.77202" lon="2.75981">
        <ele>61.8</ele>
        <time>2021-03-28T09:58:28Z</time>
      </trkpt>
      <trkpt lat="42.77202" lon="2.75981">
        <ele>61.8</ele>
        <time>2021-03-28T09:58:28Z</time>
      </trkpt>
      <trkpt lat="42.772" lon="2.75962">
        <ele>61.6</ele>
        <time>2021-03-28T09:58:30Z</time>
      </trkpt>
      <trkpt lat="42.772" lon="2.75962">
        <ele>61.6</ele>
        <time>2021-03-28T09:58:30Z</time>
      </trkpt>
      <trkpt lat="42.77199" lon="2.75946">
        <ele>61.7</ele>
        <time>2021-03-28T09:58:31Z</time>
      </trkpt>
      <trkpt lat="42.77199" lon="2.75946">
        <ele>61.7</ele>
        <time>2021-03-28T09:58:31Z</time>
      </trkpt>
      <trkpt lat="42.77198" lon="2.75928">
        <ele>61.8</ele>
        <time>2021-03-28T09:58:33Z</time>
      </trkpt>
      <trkpt lat="42.77198" lon="2.75928">
        <ele>61.8</ele>
        <time>2021-03-28T09:58:33Z</time>
      </trkpt>
      <trkpt lat="42.77197" lon="2.75909">
        <ele>61.6</ele>
        <time>2021-03-28T09:58:35Z</time>
      </trkpt>
      <trkpt lat="42.77197" lon="2.75909">
        <ele>61.6</ele>
        <time>2021-03-28T09:58:35Z</time>
      </trkpt>
      <trkpt lat="42.77196" lon="2.75892">
        <ele>61.1</ele>
        <time>2021-03-28T09:58:36Z</time>
      </trkpt>
      <trkpt lat="42.77196" lon="2.75892">
        <ele>61.1</ele>
        <time>2021-03-28T09:58:36Z</time>
      </trkpt>
      <trkpt lat="42.77195" lon="2.75878">
        <ele>61.4</ele>
        <time>2021-03-28T09:58:37Z</time>
      </trkpt>
      <trkpt lat="42.77195" lon="2.75878">
        <ele>61.4</ele>
        <time>2021-03-28T09:58:37Z</time>
      </trkpt>
      <trkpt lat="42.77195" lon="2.75861">
        <ele>62</ele>
        <time>2021-03-28T09:58:39Z</time>
      </trkpt>
      <trkpt lat="42.77195" lon="2.75861">
        <ele>62</ele>
        <time>2021-03-28T09:58:39Z</time>
      </trkpt>
      <trkpt lat="42.77194" lon="2.75843">
        <ele>62.1</ele>
        <time>2021-03-28T09:58:41Z</time>
      </trkpt>
      <trkpt lat="42.77194" lon="2.75843">
        <ele>62.1</ele>
        <time>2021-03-28T09:58:41Z</time>
      </trkpt>
      <trkpt lat="42.77194" lon="2.75828">
        <ele>62.4</ele>
        <time>2021-03-28T09:58:42Z</time>
      </trkpt>
      <trkpt lat="42.77194" lon="2.75828">
        <ele>62.4</ele>
        <time>2021-03-28T09:58:42Z</time>
      </trkpt>
      <trkpt lat="42.77194" lon="2.75814">
        <ele>62.7</ele>
        <time>2021-03-28T09:58:43Z</time>
      </trkpt>
      <trkpt lat="42.77194" lon="2.75814">
        <ele>62.7</ele>
        <time>2021-03-28T09:58:43Z</time>
      </trkpt>
      <trkpt lat="42.77193" lon="2.75798">
        <ele>62.9</ele>
        <time>2021-03-28T09:58:45Z</time>
      </trkpt>
      <trkpt lat="42.77193" lon="2.75798">
        <ele>62.9</ele>
        <time>2021-03-28T09:58:45Z</time>
      </trkpt>
      <trkpt lat="42.77193" lon="2.75784">
        <ele>63.1</ele>
        <time>2021-03-28T09:58:46Z</time>
      </trkpt>
      <trkpt lat="42.77193" lon="2.75784">
        <ele>63.1</ele>
        <time>2021-03-28T09:58:46Z</time>
      </trkpt>
      <trkpt lat="42.77193" lon="2.75768">
        <ele>63.3</ele>
        <time>2021-03-28T09:58:48Z</time>
      </trkpt>
      <trkpt lat="42.77193" lon="2.75768">
        <ele>63.3</ele>
        <time>2021-03-28T09:58:48Z</time>
      </trkpt>
      <trkpt lat="42.77193" lon="2.75754">
        <ele>63.4</ele>
        <time>2021-03-28T09:58:49Z</time>
      </trkpt>
      <trkpt lat="42.77193" lon="2.75754">
        <ele>63.4</ele>
        <time>2021-03-28T09:58:49Z</time>
      </trkpt>
      <trkpt lat="42.77193" lon="2.75738">
        <ele>63.7</ele>
        <time>2021-03-28T09:58:51Z</time>
      </trkpt>
      <trkpt lat="42.77193" lon="2.75738">
        <ele>63.7</ele>
        <time>2021-03-28T09:58:51Z</time>
      </trkpt>
      <trkpt lat="42.77193" lon="2.75723">
        <ele>64</ele>
        <time>2021-03-28T09:58:52Z</time>
      </trkpt>
      <trkpt lat="42.77193" lon="2.75723">
        <ele>64</ele>
        <time>2021-03-28T09:58:52Z</time>
      </trkpt>
      <trkpt lat="42.77192" lon="2.75707">
        <ele>64.2</ele>
        <time>2021-03-28T09:58:54Z</time>
      </trkpt>
      <trkpt lat="42.77192" lon="2.75707">
        <ele>64.2</ele>
        <time>2021-03-28T09:58:54Z</time>
      </trkpt>
      <trkpt lat="42.77192" lon="2.7569">
        <ele>64.4</ele>
        <time>2021-03-28T09:58:56Z</time>
      </trkpt>
      <trkpt lat="42.77192" lon="2.7569">
        <ele>64.4</ele>
        <time>2021-03-28T09:58:56Z</time>
      </trkpt>
      <trkpt lat="42.77192" lon="2.75676">
        <ele>64.6</ele>
        <time>2021-03-28T09:58:57Z</time>
      </trkpt>
      <trkpt lat="42.77192" lon="2.75676">
        <ele>64.6</ele>
        <time>2021-03-28T09:58:57Z</time>
      </trkpt>
      <trkpt lat="42.77191" lon="2.75663">
        <ele>64.8</ele>
        <time>2021-03-28T09:58:58Z</time>
      </trkpt>
      <trkpt lat="42.77191" lon="2.75663">
        <ele>64.8</ele>
        <time>2021-03-28T09:58:58Z</time>
      </trkpt>
      <trkpt lat="42.77191" lon="2.75648">
        <ele>65</ele>
        <time>2021-03-28T09:59:00Z</time>
      </trkpt>
      <trkpt lat="42.77191" lon="2.75648">
        <ele>65</ele>
        <time>2021-03-28T09:59:00Z</time>
      </trkpt>
      <trkpt lat="42.77191" lon="2.75635">
        <ele>64.8</ele>
        <time>2021-03-28T09:59:01Z</time>
      </trkpt>
      <trkpt lat="42.77191" lon="2.75635">
        <ele>64.8</ele>
        <time>2021-03-28T09:59:01Z</time>
      </trkpt>
      <trkpt lat="42.7719" lon="2.7562">
        <ele>63.6</ele>
        <time>2021-03-28T09:59:03Z</time>
      </trkpt>
      <trkpt lat="42.7719" lon="2.7562">
        <ele>63.6</ele>
        <time>2021-03-28T09:59:03Z</time>
      </trkpt>
      <trkpt lat="42.7719" lon="2.75607">
        <ele>62.7</ele>
        <time>2021-03-28T09:59:04Z</time>
      </trkpt>
      <trkpt lat="42.7719" lon="2.75607">
        <ele>62.7</ele>
        <time>2021-03-28T09:59:04Z</time>
      </trkpt>
      <trkpt lat="42.77189" lon="2.75593">
        <ele>62.9</ele>
        <time>2021-03-28T09:59:06Z</time>
      </trkpt>
      <trkpt lat="42.77189" lon="2.75593">
        <ele>62.9</ele>
        <time>2021-03-28T09:59:06Z</time>
      </trkpt>
      <trkpt lat="42.77189" lon="2.75577">
        <ele>63.1</ele>
        <time>2021-03-28T09:59:08Z</time>
      </trkpt>
      <trkpt lat="42.77189" lon="2.75577">
        <ele>63.1</ele>
        <time>2021-03-28T09:59:08Z</time>
      </trkpt>
      <trkpt lat="42.77188" lon="2.7556">
        <ele>63.3</ele>
        <time>2021-03-28T09:59:10Z</time>
      </trkpt>
      <trkpt lat="42.77188" lon="2.7556">
        <ele>63.3</ele>
        <time>2021-03-28T09:59:10Z</time>
      </trkpt>
      <trkpt lat="42.77188" lon="2.75543">
        <ele>63.4</ele>
        <time>2021-03-28T09:59:12Z</time>
      </trkpt>
      <trkpt lat="42.77188" lon="2.75543">
        <ele>63.4</ele>
        <time>2021-03-28T09:59:12Z</time>
      </trkpt>
      <trkpt lat="42.77188" lon="2.75526">
        <ele>63.3</ele>
        <time>2021-03-28T09:59:14Z</time>
      </trkpt>
      <trkpt lat="42.77188" lon="2.75526">
        <ele>63.3</ele>
        <time>2021-03-28T09:59:14Z</time>
      </trkpt>
      <trkpt lat="42.77188" lon="2.75512">
        <ele>63.3</ele>
        <time>2021-03-28T09:59:15Z</time>
      </trkpt>
      <trkpt lat="42.77188" lon="2.75512">
        <ele>63.3</ele>
        <time>2021-03-28T09:59:15Z</time>
      </trkpt>
      <trkpt lat="42.77189" lon="2.75496">
        <ele>63.4</ele>
        <time>2021-03-28T09:59:17Z</time>
      </trkpt>
      <trkpt lat="42.77189" lon="2.75496">
        <ele>63.4</ele>
        <time>2021-03-28T09:59:17Z</time>
      </trkpt>
      <trkpt lat="42.77189" lon="2.75483">
        <ele>63.8</ele>
        <time>2021-03-28T09:59:18Z</time>
      </trkpt>
      <trkpt lat="42.77189" lon="2.75483">
        <ele>63.8</ele>
        <time>2021-03-28T09:59:18Z</time>
      </trkpt>
      <trkpt lat="42.77189" lon="2.75469">
        <ele>64.4</ele>
        <time>2021-03-28T09:59:20Z</time>
      </trkpt>
      <trkpt lat="42.77189" lon="2.75469">
        <ele>64.4</ele>
        <time>2021-03-28T09:59:20Z</time>
      </trkpt>
      <trkpt lat="42.77189" lon="2.75456">
        <ele>65</ele>
        <time>2021-03-28T09:59:21Z</time>
      </trkpt>
      <trkpt lat="42.77189" lon="2.75456">
        <ele>65</ele>
        <time>2021-03-28T09:59:21Z</time>
      </trkpt>
      <trkpt lat="42.77188" lon="2.75443">
        <ele>65.6</ele>
        <time>2021-03-28T09:59:23Z</time>
      </trkpt>
      <trkpt lat="42.77188" lon="2.75443">
        <ele>65.6</ele>
        <time>2021-03-28T09:59:23Z</time>
      </trkpt>
      <trkpt lat="42.77188" lon="2.75429">
        <ele>66.2</ele>
        <time>2021-03-28T09:59:25Z</time>
      </trkpt>
      <trkpt lat="42.77188" lon="2.75429">
        <ele>66.2</ele>
        <time>2021-03-28T09:59:25Z</time>
      </trkpt>
      <trkpt lat="42.77188" lon="2.75414">
        <ele>66.8</ele>
        <time>2021-03-28T09:59:27Z</time>
      </trkpt>
      <trkpt lat="42.77188" lon="2.75414">
        <ele>66.8</ele>
        <time>2021-03-28T09:59:27Z</time>
      </trkpt>
      <trkpt lat="42.77188" lon="2.75399">
        <ele>67.9</ele>
        <time>2021-03-28T09:59:29Z</time>
      </trkpt>
      <trkpt lat="42.77188" lon="2.75399">
        <ele>67.9</ele>
        <time>2021-03-28T09:59:29Z</time>
      </trkpt>
      <trkpt lat="42.77187" lon="2.75384">
        <ele>68.6</ele>
        <time>2021-03-28T09:59:31Z</time>
      </trkpt>
      <trkpt lat="42.77187" lon="2.75384">
        <ele>68.6</ele>
        <time>2021-03-28T09:59:31Z</time>
      </trkpt>
      <trkpt lat="42.77187" lon="2.75369">
        <ele>68.5</ele>
        <time>2021-03-28T09:59:33Z</time>
      </trkpt>
      <trkpt lat="42.77187" lon="2.75369">
        <ele>68.5</ele>
        <time>2021-03-28T09:59:33Z</time>
      </trkpt>
      <trkpt lat="42.77187" lon="2.75356">
        <ele>68.4</ele>
        <time>2021-03-28T09:59:34Z</time>
      </trkpt>
      <trkpt lat="42.77187" lon="2.75356">
        <ele>68.4</ele>
        <time>2021-03-28T09:59:34Z</time>
      </trkpt>
      <trkpt lat="42.77187" lon="2.75342">
        <ele>68.2</ele>
        <time>2021-03-28T09:59:36Z</time>
      </trkpt>
      <trkpt lat="42.77187" lon="2.75342">
        <ele>68.2</ele>
        <time>2021-03-28T09:59:36Z</time>
      </trkpt>
      <trkpt lat="42.77188" lon="2.7533">
        <ele>68.1</ele>
        <time>2021-03-28T09:59:37Z</time>
      </trkpt>
      <trkpt lat="42.77188" lon="2.7533">
        <ele>68.1</ele>
        <time>2021-03-28T09:59:37Z</time>
      </trkpt>
      <trkpt lat="42.77188" lon="2.7532">
        <ele>68.3</ele>
        <time>2021-03-28T09:59:38Z</time>
      </trkpt>
      <trkpt lat="42.77188" lon="2.7532">
        <ele>68.3</ele>
        <time>2021-03-28T09:59:38Z</time>
      </trkpt>
      <trkpt lat="42.77187" lon="2.75308">
        <ele>68.8</ele>
        <time>2021-03-28T09:59:40Z</time>
      </trkpt>
      <trkpt lat="42.77187" lon="2.75308">
        <ele>68.8</ele>
        <time>2021-03-28T09:59:40Z</time>
      </trkpt>
      <trkpt lat="42.77188" lon="2.75294">
        <ele>68.7</ele>
        <time>2021-03-28T09:59:42Z</time>
      </trkpt>
      <trkpt lat="42.77188" lon="2.75294">
        <ele>68.7</ele>
        <time>2021-03-28T09:59:42Z</time>
      </trkpt>
      <trkpt lat="42.77188" lon="2.75283">
        <ele>68.7</ele>
        <time>2021-03-28T09:59:43Z</time>
      </trkpt>
      <trkpt lat="42.77188" lon="2.75283">
        <ele>68.7</ele>
        <time>2021-03-28T09:59:43Z</time>
      </trkpt>
      <trkpt lat="42.77189" lon="2.7527">
        <ele>68.1</ele>
        <time>2021-03-28T09:59:45Z</time>
      </trkpt>
      <trkpt lat="42.77189" lon="2.7527">
        <ele>68.1</ele>
        <time>2021-03-28T09:59:45Z</time>
      </trkpt>
      <trkpt lat="42.77189" lon="2.75258">
        <ele>67.5</ele>
        <time>2021-03-28T09:59:46Z</time>
      </trkpt>
      <trkpt lat="42.77189" lon="2.75258">
        <ele>67.5</ele>
        <time>2021-03-28T09:59:46Z</time>
      </trkpt>
      <trkpt lat="42.77189" lon="2.75245">
        <ele>67.2</ele>
        <time>2021-03-28T09:59:48Z</time>
      </trkpt>
      <trkpt lat="42.77189" lon="2.75245">
        <ele>67.2</ele>
        <time>2021-03-28T09:59:48Z</time>
      </trkpt>
      <trkpt lat="42.77189" lon="2.75233">
        <ele>67.3</ele>
        <time>2021-03-28T09:59:49Z</time>
      </trkpt>
      <trkpt lat="42.77189" lon="2.75233">
        <ele>67.3</ele>
        <time>2021-03-28T09:59:49Z</time>
      </trkpt>
      <trkpt lat="42.77189" lon="2.7522">
        <ele>67.5</ele>
        <time>2021-03-28T09:59:51Z</time>
      </trkpt>
      <trkpt lat="42.77189" lon="2.7522">
        <ele>67.5</ele>
        <time>2021-03-28T09:59:51Z</time>
      </trkpt>
      <trkpt lat="42.77189" lon="2.7521">
        <ele>68</ele>
        <time>2021-03-28T09:59:52Z</time>
      </trkpt>
      <trkpt lat="42.77189" lon="2.7521">
        <ele>68</ele>
        <time>2021-03-28T09:59:52Z</time>
      </trkpt>
      <trkpt lat="42.77188" lon="2.75198">
        <ele>68.5</ele>
        <time>2021-03-28T09:59:54Z</time>
      </trkpt>
      <trkpt lat="42.77188" lon="2.75198">
        <ele>68.5</ele>
        <time>2021-03-28T09:59:54Z</time>
      </trkpt>
      <trkpt lat="42.77188" lon="2.75185">
        <ele>68.5</ele>
        <time>2021-03-28T09:59:56Z</time>
      </trkpt>
      <trkpt lat="42.77188" lon="2.75185">
        <ele>68.5</ele>
        <time>2021-03-28T09:59:56Z</time>
      </trkpt>
      <trkpt lat="42.77187" lon="2.75171">
        <ele>68.2</ele>
        <time>2021-03-28T09:59:58Z</time>
      </trkpt>
      <trkpt lat="42.77187" lon="2.75171">
        <ele>68.2</ele>
        <time>2021-03-28T09:59:58Z</time>
      </trkpt>
      <trkpt lat="42.77186" lon="2.7516">
        <ele>68.2</ele>
        <time>2021-03-28T09:59:59Z</time>
      </trkpt>
      <trkpt lat="42.77186" lon="2.7516">
        <ele>68.2</ele>
        <time>2021-03-28T09:59:59Z</time>
      </trkpt>
      <trkpt lat="42.77184" lon="2.75147">
        <ele>68.3</ele>
        <time>2021-03-28T10:00:01Z</time>
      </trkpt>
      <trkpt lat="42.77184" lon="2.75147">
        <ele>68.3</ele>
        <time>2021-03-28T10:00:01Z</time>
      </trkpt>
      <trkpt lat="42.77183" lon="2.75132">
        <ele>68.4</ele>
        <time>2021-03-28T10:00:03Z</time>
      </trkpt>
      <trkpt lat="42.77183" lon="2.75132">
        <ele>68.4</ele>
        <time>2021-03-28T10:00:03Z</time>
      </trkpt>
      <trkpt lat="42.77182" lon="2.75116">
        <ele>68.4</ele>
        <time>2021-03-28T10:00:05Z</time>
      </trkpt>
      <trkpt lat="42.77182" lon="2.75116">
        <ele>68.4</ele>
        <time>2021-03-28T10:00:05Z</time>
      </trkpt>
      <trkpt lat="42.7718" lon="2.75099">
        <ele>68</ele>
        <time>2021-03-28T10:00:07Z</time>
      </trkpt>
      <trkpt lat="42.7718" lon="2.75099">
        <ele>68</ele>
        <time>2021-03-28T10:00:07Z</time>
      </trkpt>
      <trkpt lat="42.77179" lon="2.75083">
        <ele>67.3</ele>
        <time>2021-03-28T10:00:09Z</time>
      </trkpt>
      <trkpt lat="42.77179" lon="2.75083">
        <ele>67.3</ele>
        <time>2021-03-28T10:00:09Z</time>
      </trkpt>
      <trkpt lat="42.77178" lon="2.7507">
        <ele>67.2</ele>
        <time>2021-03-28T10:00:10Z</time>
      </trkpt>
      <trkpt lat="42.77178" lon="2.7507">
        <ele>67.2</ele>
        <time>2021-03-28T10:00:10Z</time>
      </trkpt>
      <trkpt lat="42.77177" lon="2.75056">
        <ele>67.1</ele>
        <time>2021-03-28T10:00:12Z</time>
      </trkpt>
      <trkpt lat="42.77177" lon="2.75056">
        <ele>67.1</ele>
        <time>2021-03-28T10:00:12Z</time>
      </trkpt>
      <trkpt lat="42.77177" lon="2.75043">
        <ele>67.2</ele>
        <time>2021-03-28T10:00:13Z</time>
      </trkpt>
      <trkpt lat="42.77177" lon="2.75043">
        <ele>67.2</ele>
        <time>2021-03-28T10:00:13Z</time>
      </trkpt>
      <trkpt lat="42.77176" lon="2.75028">
        <ele>67.4</ele>
        <time>2021-03-28T10:00:15Z</time>
      </trkpt>
      <trkpt lat="42.77176" lon="2.75028">
        <ele>67.4</ele>
        <time>2021-03-28T10:00:15Z</time>
      </trkpt>
      <trkpt lat="42.77174" lon="2.75014">
        <ele>67.5</ele>
        <time>2021-03-28T10:00:17Z</time>
      </trkpt>
      <trkpt lat="42.77174" lon="2.75014">
        <ele>67.5</ele>
        <time>2021-03-28T10:00:17Z</time>
      </trkpt>
      <trkpt lat="42.77173" lon="2.75">
        <ele>67.6</ele>
        <time>2021-03-28T10:00:18Z</time>
      </trkpt>
      <trkpt lat="42.77173" lon="2.75">
        <ele>67.6</ele>
        <time>2021-03-28T10:00:18Z</time>
      </trkpt>
      <trkpt lat="42.77172" lon="2.74988">
        <ele>67.8</ele>
        <time>2021-03-28T10:00:19Z</time>
      </trkpt>
      <trkpt lat="42.77172" lon="2.74988">
        <ele>67.8</ele>
        <time>2021-03-28T10:00:19Z</time>
      </trkpt>
      <trkpt lat="42.77171" lon="2.74975">
        <ele>68</ele>
        <time>2021-03-28T10:00:21Z</time>
      </trkpt>
      <trkpt lat="42.77171" lon="2.74975">
        <ele>68</ele>
        <time>2021-03-28T10:00:21Z</time>
      </trkpt>
      <trkpt lat="42.7717" lon="2.7496">
        <ele>68.7</ele>
        <time>2021-03-28T10:00:23Z</time>
      </trkpt>
      <trkpt lat="42.7717" lon="2.7496">
        <ele>68.7</ele>
        <time>2021-03-28T10:00:23Z</time>
      </trkpt>
      <trkpt lat="42.77169" lon="2.74943">
        <ele>69.3</ele>
        <time>2021-03-28T10:00:25Z</time>
      </trkpt>
      <trkpt lat="42.77169" lon="2.74943">
        <ele>69.3</ele>
        <time>2021-03-28T10:00:25Z</time>
      </trkpt>
      <trkpt lat="42.77168" lon="2.74926">
        <ele>69</ele>
        <time>2021-03-28T10:00:27Z</time>
      </trkpt>
      <trkpt lat="42.77168" lon="2.74926">
        <ele>69</ele>
        <time>2021-03-28T10:00:27Z</time>
      </trkpt>
      <trkpt lat="42.77167" lon="2.74909">
        <ele>68.6</ele>
        <time>2021-03-28T10:00:29Z</time>
      </trkpt>
      <trkpt lat="42.77167" lon="2.74909">
        <ele>68.6</ele>
        <time>2021-03-28T10:00:29Z</time>
      </trkpt>
      <trkpt lat="42.77166" lon="2.74891">
        <ele>68.2</ele>
        <time>2021-03-28T10:00:31Z</time>
      </trkpt>
      <trkpt lat="42.77166" lon="2.74891">
        <ele>68.2</ele>
        <time>2021-03-28T10:00:31Z</time>
      </trkpt>
      <trkpt lat="42.77166" lon="2.74872">
        <ele>67.7</ele>
        <time>2021-03-28T10:00:33Z</time>
      </trkpt>
      <trkpt lat="42.77166" lon="2.74872">
        <ele>67.7</ele>
        <time>2021-03-28T10:00:33Z</time>
      </trkpt>
      <trkpt lat="42.77166" lon="2.74853">
        <ele>67.3</ele>
        <time>2021-03-28T10:00:35Z</time>
      </trkpt>
      <trkpt lat="42.77166" lon="2.74853">
        <ele>67.3</ele>
        <time>2021-03-28T10:00:35Z</time>
      </trkpt>
      <trkpt lat="42.77166" lon="2.74833">
        <ele>67.2</ele>
        <time>2021-03-28T10:00:37Z</time>
      </trkpt>
      <trkpt lat="42.77166" lon="2.74833">
        <ele>67.2</ele>
        <time>2021-03-28T10:00:37Z</time>
      </trkpt>
      <trkpt lat="42.77167" lon="2.74817">
        <ele>67</ele>
        <time>2021-03-28T10:00:38Z</time>
      </trkpt>
      <trkpt lat="42.77167" lon="2.74817">
        <ele>67</ele>
        <time>2021-03-28T10:00:38Z</time>
      </trkpt>
      <trkpt lat="42.77168" lon="2.74802">
        <ele>66.8</ele>
        <time>2021-03-28T10:00:39Z</time>
      </trkpt>
      <trkpt lat="42.77168" lon="2.74802">
        <ele>66.8</ele>
        <time>2021-03-28T10:00:39Z</time>
      </trkpt>
      <trkpt lat="42.77169" lon="2.74785">
        <ele>66.7</ele>
        <time>2021-03-28T10:00:41Z</time>
      </trkpt>
      <trkpt lat="42.77169" lon="2.74785">
        <ele>66.7</ele>
        <time>2021-03-28T10:00:41Z</time>
      </trkpt>
      <trkpt lat="42.7717" lon="2.74767">
        <ele>66.8</ele>
        <time>2021-03-28T10:00:43Z</time>
      </trkpt>
      <trkpt lat="42.7717" lon="2.74767">
        <ele>66.8</ele>
        <time>2021-03-28T10:00:43Z</time>
      </trkpt>
      <trkpt lat="42.77172" lon="2.74751">
        <ele>67.1</ele>
        <time>2021-03-28T10:00:44Z</time>
      </trkpt>
      <trkpt lat="42.77172" lon="2.74751">
        <ele>67.1</ele>
        <time>2021-03-28T10:00:44Z</time>
      </trkpt>
      <trkpt lat="42.77174" lon="2.74734">
        <ele>66.9</ele>
        <time>2021-03-28T10:00:46Z</time>
      </trkpt>
      <trkpt lat="42.77174" lon="2.74734">
        <ele>66.9</ele>
        <time>2021-03-28T10:00:46Z</time>
      </trkpt>
      <trkpt lat="42.77177" lon="2.74716">
        <ele>66.6</ele>
        <time>2021-03-28T10:00:48Z</time>
      </trkpt>
      <trkpt lat="42.77177" lon="2.74716">
        <ele>66.6</ele>
        <time>2021-03-28T10:00:48Z</time>
      </trkpt>
      <trkpt lat="42.77179" lon="2.74701">
        <ele>66.2</ele>
        <time>2021-03-28T10:00:49Z</time>
      </trkpt>
      <trkpt lat="42.77179" lon="2.74701">
        <ele>66.2</ele>
        <time>2021-03-28T10:00:49Z</time>
      </trkpt>
      <trkpt lat="42.77183" lon="2.74684">
        <ele>65.9</ele>
        <time>2021-03-28T10:00:51Z</time>
      </trkpt>
      <trkpt lat="42.77183" lon="2.74684">
        <ele>65.9</ele>
        <time>2021-03-28T10:00:51Z</time>
      </trkpt>
      <trkpt lat="42.77187" lon="2.74666">
        <ele>65.8</ele>
        <time>2021-03-28T10:00:53Z</time>
      </trkpt>
      <trkpt lat="42.77187" lon="2.74666">
        <ele>65.8</ele>
        <time>2021-03-28T10:00:53Z</time>
      </trkpt>
      <trkpt lat="42.77191" lon="2.74649">
        <ele>65.5</ele>
        <time>2021-03-28T10:00:55Z</time>
      </trkpt>
      <trkpt lat="42.77191" lon="2.74649">
        <ele>65.5</ele>
        <time>2021-03-28T10:00:55Z</time>
      </trkpt>
      <trkpt lat="42.77196" lon="2.74631">
        <ele>65.4</ele>
        <time>2021-03-28T10:00:57Z</time>
      </trkpt>
      <trkpt lat="42.77196" lon="2.74631">
        <ele>65.4</ele>
        <time>2021-03-28T10:00:57Z</time>
      </trkpt>
      <trkpt lat="42.772" lon="2.74617">
        <ele>65.9</ele>
        <time>2021-03-28T10:00:58Z</time>
      </trkpt>
      <trkpt lat="42.772" lon="2.74617">
        <ele>65.9</ele>
        <time>2021-03-28T10:00:58Z</time>
      </trkpt>
      <trkpt lat="42.77205" lon="2.74601">
        <ele>65.6</ele>
        <time>2021-03-28T10:01:00Z</time>
      </trkpt>
      <trkpt lat="42.77205" lon="2.74601">
        <ele>65.6</ele>
        <time>2021-03-28T10:01:00Z</time>
      </trkpt>
      <trkpt lat="42.77209" lon="2.74588">
        <ele>65.3</ele>
        <time>2021-03-28T10:01:01Z</time>
      </trkpt>
      <trkpt lat="42.77209" lon="2.74588">
        <ele>65.3</ele>
        <time>2021-03-28T10:01:01Z</time>
      </trkpt>
      <trkpt lat="42.77215" lon="2.74574">
        <ele>65.2</ele>
        <time>2021-03-28T10:01:03Z</time>
      </trkpt>
      <trkpt lat="42.77215" lon="2.74574">
        <ele>65.2</ele>
        <time>2021-03-28T10:01:03Z</time>
      </trkpt>
      <trkpt lat="42.77221" lon="2.74559">
        <ele>65.1</ele>
        <time>2021-03-28T10:01:05Z</time>
      </trkpt>
      <trkpt lat="42.77221" lon="2.74559">
        <ele>65.1</ele>
        <time>2021-03-28T10:01:05Z</time>
      </trkpt>
      <trkpt lat="42.77227" lon="2.74544">
        <ele>65.5</ele>
        <time>2021-03-28T10:01:07Z</time>
      </trkpt>
      <trkpt lat="42.77227" lon="2.74544">
        <ele>65.5</ele>
        <time>2021-03-28T10:01:07Z</time>
      </trkpt>
      <trkpt lat="42.77233" lon="2.74531">
        <ele>66</ele>
        <time>2021-03-28T10:01:08Z</time>
      </trkpt>
      <trkpt lat="42.77233" lon="2.74531">
        <ele>66</ele>
        <time>2021-03-28T10:01:08Z</time>
      </trkpt>
      <trkpt lat="42.77238" lon="2.74519">
        <ele>66</ele>
        <time>2021-03-28T10:01:09Z</time>
      </trkpt>
      <trkpt lat="42.77238" lon="2.74519">
        <ele>66</ele>
        <time>2021-03-28T10:01:09Z</time>
      </trkpt>
      <trkpt lat="42.77244" lon="2.74506">
        <ele>65.6</ele>
        <time>2021-03-28T10:01:11Z</time>
      </trkpt>
      <trkpt lat="42.77244" lon="2.74506">
        <ele>65.6</ele>
        <time>2021-03-28T10:01:11Z</time>
      </trkpt>
      <trkpt lat="42.7725" lon="2.74494">
        <ele>65.5</ele>
        <time>2021-03-28T10:01:12Z</time>
      </trkpt>
      <trkpt lat="42.7725" lon="2.74494">
        <ele>65.5</ele>
        <time>2021-03-28T10:01:12Z</time>
      </trkpt>
      <trkpt lat="42.77255" lon="2.74483">
        <ele>65.8</ele>
        <time>2021-03-28T10:01:13Z</time>
      </trkpt>
      <trkpt lat="42.77255" lon="2.74483">
        <ele>65.8</ele>
        <time>2021-03-28T10:01:13Z</time>
      </trkpt>
      <trkpt lat="42.77261" lon="2.74471">
        <ele>66.2</ele>
        <time>2021-03-28T10:01:15Z</time>
      </trkpt>
      <trkpt lat="42.77261" lon="2.74471">
        <ele>66.2</ele>
        <time>2021-03-28T10:01:15Z</time>
      </trkpt>
      <trkpt lat="42.77267" lon="2.7446">
        <ele>66</ele>
        <time>2021-03-28T10:01:16Z</time>
      </trkpt>
      <trkpt lat="42.77267" lon="2.7446">
        <ele>66</ele>
        <time>2021-03-28T10:01:16Z</time>
      </trkpt>
      <trkpt lat="42.77274" lon="2.74447">
        <ele>66.1</ele>
        <time>2021-03-28T10:01:18Z</time>
      </trkpt>
      <trkpt lat="42.77274" lon="2.74447">
        <ele>66.1</ele>
        <time>2021-03-28T10:01:18Z</time>
      </trkpt>
      <trkpt lat="42.7728" lon="2.74433">
        <ele>66.3</ele>
        <time>2021-03-28T10:01:20Z</time>
      </trkpt>
      <trkpt lat="42.7728" lon="2.74433">
        <ele>66.3</ele>
        <time>2021-03-28T10:01:20Z</time>
      </trkpt>
      <trkpt lat="42.77288" lon="2.74418">
        <ele>66.6</ele>
        <time>2021-03-28T10:01:22Z</time>
      </trkpt>
      <trkpt lat="42.77288" lon="2.74418">
        <ele>66.6</ele>
        <time>2021-03-28T10:01:22Z</time>
      </trkpt>
      <trkpt lat="42.77294" lon="2.74405">
        <ele>66.2</ele>
        <time>2021-03-28T10:01:23Z</time>
      </trkpt>
      <trkpt lat="42.77294" lon="2.74405">
        <ele>66.2</ele>
        <time>2021-03-28T10:01:23Z</time>
      </trkpt>
      <trkpt lat="42.77302" lon="2.74391">
        <ele>66</ele>
        <time>2021-03-28T10:01:25Z</time>
      </trkpt>
      <trkpt lat="42.77302" lon="2.74391">
        <ele>66</ele>
        <time>2021-03-28T10:01:25Z</time>
      </trkpt>
      <trkpt lat="42.77308" lon="2.74379">
        <ele>66.2</ele>
        <time>2021-03-28T10:01:26Z</time>
      </trkpt>
      <trkpt lat="42.77308" lon="2.74379">
        <ele>66.2</ele>
        <time>2021-03-28T10:01:26Z</time>
      </trkpt>
      <trkpt lat="42.77316" lon="2.74366">
        <ele>66.1</ele>
        <time>2021-03-28T10:01:28Z</time>
      </trkpt>
      <trkpt lat="42.77316" lon="2.74366">
        <ele>66.1</ele>
        <time>2021-03-28T10:01:28Z</time>
      </trkpt>
      <trkpt lat="42.77324" lon="2.74352">
        <ele>65.6</ele>
        <time>2021-03-28T10:01:30Z</time>
      </trkpt>
      <trkpt lat="42.77324" lon="2.74352">
        <ele>65.6</ele>
        <time>2021-03-28T10:01:30Z</time>
      </trkpt>
      <trkpt lat="42.77331" lon="2.74339">
        <ele>65.7</ele>
        <time>2021-03-28T10:01:31Z</time>
      </trkpt>
      <trkpt lat="42.77331" lon="2.74339">
        <ele>65.7</ele>
        <time>2021-03-28T10:01:31Z</time>
      </trkpt>
      <trkpt lat="42.77337" lon="2.74329">
        <ele>65.8</ele>
        <time>2021-03-28T10:01:32Z</time>
      </trkpt>
      <trkpt lat="42.77337" lon="2.74329">
        <ele>65.8</ele>
        <time>2021-03-28T10:01:32Z</time>
      </trkpt>
      <trkpt lat="42.77342" lon="2.74318">
        <ele>65.6</ele>
        <time>2021-03-28T10:01:33Z</time>
      </trkpt>
      <trkpt lat="42.77342" lon="2.74318">
        <ele>65.6</ele>
        <time>2021-03-28T10:01:33Z</time>
      </trkpt>
      <trkpt lat="42.77347" lon="2.74309">
        <ele>65.5</ele>
        <time>2021-03-28T10:01:34Z</time>
      </trkpt>
      <trkpt lat="42.77347" lon="2.74309">
        <ele>65.5</ele>
        <time>2021-03-28T10:01:34Z</time>
      </trkpt>
      <trkpt lat="42.77353" lon="2.74297">
        <ele>65.3</ele>
        <time>2021-03-28T10:01:36Z</time>
      </trkpt>
      <trkpt lat="42.77353" lon="2.74297">
        <ele>65.3</ele>
        <time>2021-03-28T10:01:36Z</time>
      </trkpt>
      <trkpt lat="42.77358" lon="2.74286">
        <ele>65.6</ele>
        <time>2021-03-28T10:01:37Z</time>
      </trkpt>
      <trkpt lat="42.77358" lon="2.74286">
        <ele>65.6</ele>
        <time>2021-03-28T10:01:37Z</time>
      </trkpt>
      <trkpt lat="42.77365" lon="2.74274">
        <ele>65.8</ele>
        <time>2021-03-28T10:01:39Z</time>
      </trkpt>
      <trkpt lat="42.77365" lon="2.74274">
        <ele>65.8</ele>
        <time>2021-03-28T10:01:39Z</time>
      </trkpt>
      <trkpt lat="42.77371" lon="2.74263">
        <ele>65.5</ele>
        <time>2021-03-28T10:01:40Z</time>
      </trkpt>
      <trkpt lat="42.77371" lon="2.74263">
        <ele>65.5</ele>
        <time>2021-03-28T10:01:40Z</time>
      </trkpt>
      <trkpt lat="42.77378" lon="2.7425">
        <ele>65.4</ele>
        <time>2021-03-28T10:01:42Z</time>
      </trkpt>
      <trkpt lat="42.77378" lon="2.7425">
        <ele>65.4</ele>
        <time>2021-03-28T10:01:42Z</time>
      </trkpt>
      <trkpt lat="42.77385" lon="2.74236">
        <ele>65.5</ele>
        <time>2021-03-28T10:01:44Z</time>
      </trkpt>
      <trkpt lat="42.77385" lon="2.74236">
        <ele>65.5</ele>
        <time>2021-03-28T10:01:44Z</time>
      </trkpt>
      <trkpt lat="42.77394" lon="2.74221">
        <ele>65.8</ele>
        <time>2021-03-28T10:01:46Z</time>
      </trkpt>
      <trkpt lat="42.77394" lon="2.74221">
        <ele>65.8</ele>
        <time>2021-03-28T10:01:46Z</time>
      </trkpt>
      <trkpt lat="42.774" lon="2.74208">
        <ele>65.6</ele>
        <time>2021-03-28T10:01:47Z</time>
      </trkpt>
      <trkpt lat="42.774" lon="2.74208">
        <ele>65.6</ele>
        <time>2021-03-28T10:01:47Z</time>
      </trkpt>
      <trkpt lat="42.77407" lon="2.74197">
        <ele>65.4</ele>
        <time>2021-03-28T10:01:48Z</time>
      </trkpt>
      <trkpt lat="42.77407" lon="2.74197">
        <ele>65.4</ele>
        <time>2021-03-28T10:01:48Z</time>
      </trkpt>
      <trkpt lat="42.77413" lon="2.74184">
        <ele>65.4</ele>
        <time>2021-03-28T10:01:50Z</time>
      </trkpt>
      <trkpt lat="42.77413" lon="2.74184">
        <ele>65.4</ele>
        <time>2021-03-28T10:01:50Z</time>
      </trkpt>
      <trkpt lat="42.77419" lon="2.74173">
        <ele>65.7</ele>
        <time>2021-03-28T10:01:51Z</time>
      </trkpt>
      <trkpt lat="42.77419" lon="2.74173">
        <ele>65.7</ele>
        <time>2021-03-28T10:01:51Z</time>
      </trkpt>
      <trkpt lat="42.77426" lon="2.7416">
        <ele>65.7</ele>
        <time>2021-03-28T10:01:53Z</time>
      </trkpt>
      <trkpt lat="42.77426" lon="2.7416">
        <ele>65.7</ele>
        <time>2021-03-28T10:01:53Z</time>
      </trkpt>
      <trkpt lat="42.77433" lon="2.74147">
        <ele>65.4</ele>
        <time>2021-03-28T10:01:55Z</time>
      </trkpt>
      <trkpt lat="42.77433" lon="2.74147">
        <ele>65.4</ele>
        <time>2021-03-28T10:01:55Z</time>
      </trkpt>
      <trkpt lat="42.77441" lon="2.74132">
        <ele>65.3</ele>
        <time>2021-03-28T10:01:57Z</time>
      </trkpt>
      <trkpt lat="42.77441" lon="2.74132">
        <ele>65.3</ele>
        <time>2021-03-28T10:01:57Z</time>
      </trkpt>
      <trkpt lat="42.77448" lon="2.7412">
        <ele>65.6</ele>
        <time>2021-03-28T10:01:58Z</time>
      </trkpt>
      <trkpt lat="42.77448" lon="2.7412">
        <ele>65.6</ele>
        <time>2021-03-28T10:01:58Z</time>
      </trkpt>
      <trkpt lat="42.77455" lon="2.74106">
        <ele>65.6</ele>
        <time>2021-03-28T10:02:00Z</time>
      </trkpt>
      <trkpt lat="42.77455" lon="2.74106">
        <ele>65.6</ele>
        <time>2021-03-28T10:02:00Z</time>
      </trkpt>
      <trkpt lat="42.77461" lon="2.74094">
        <ele>65.4</ele>
        <time>2021-03-28T10:02:01Z</time>
      </trkpt>
      <trkpt lat="42.77461" lon="2.74094">
        <ele>65.4</ele>
        <time>2021-03-28T10:02:01Z</time>
      </trkpt>
      <trkpt lat="42.77466" lon="2.74083">
        <ele>65.2</ele>
        <time>2021-03-28T10:02:02Z</time>
      </trkpt>
      <trkpt lat="42.77466" lon="2.74083">
        <ele>65.2</ele>
        <time>2021-03-28T10:02:02Z</time>
      </trkpt>
      <trkpt lat="42.77472" lon="2.74074">
        <ele>65.4</ele>
        <time>2021-03-28T10:02:03Z</time>
      </trkpt>
      <trkpt lat="42.77472" lon="2.74074">
        <ele>65.4</ele>
        <time>2021-03-28T10:02:03Z</time>
      </trkpt>
      <trkpt lat="42.77478" lon="2.74062">
        <ele>65.7</ele>
        <time>2021-03-28T10:02:05Z</time>
      </trkpt>
      <trkpt lat="42.77478" lon="2.74062">
        <ele>65.7</ele>
        <time>2021-03-28T10:02:05Z</time>
      </trkpt>
      <trkpt lat="42.77485" lon="2.74049">
        <ele>65.9</ele>
        <time>2021-03-28T10:02:07Z</time>
      </trkpt>
      <trkpt lat="42.77485" lon="2.74049">
        <ele>65.9</ele>
        <time>2021-03-28T10:02:07Z</time>
      </trkpt>
      <trkpt lat="42.77491" lon="2.74037">
        <ele>65.6</ele>
        <time>2021-03-28T10:02:08Z</time>
      </trkpt>
      <trkpt lat="42.77491" lon="2.74037">
        <ele>65.6</ele>
        <time>2021-03-28T10:02:08Z</time>
      </trkpt>
      <trkpt lat="42.77496" lon="2.74027">
        <ele>65.2</ele>
        <time>2021-03-28T10:02:09Z</time>
      </trkpt>
      <trkpt lat="42.77496" lon="2.74027">
        <ele>65.2</ele>
        <time>2021-03-28T10:02:09Z</time>
      </trkpt>
      <trkpt lat="42.775" lon="2.74017">
        <ele>65.4</ele>
        <time>2021-03-28T10:02:10Z</time>
      </trkpt>
      <trkpt lat="42.775" lon="2.74017">
        <ele>65.4</ele>
        <time>2021-03-28T10:02:10Z</time>
      </trkpt>
      <trkpt lat="42.77505" lon="2.74008">
        <ele>65.6</ele>
        <time>2021-03-28T10:02:11Z</time>
      </trkpt>
      <trkpt lat="42.77505" lon="2.74008">
        <ele>65.6</ele>
        <time>2021-03-28T10:02:11Z</time>
      </trkpt>
      <trkpt lat="42.7751" lon="2.73996">
        <ele>66</ele>
        <time>2021-03-28T10:02:13Z</time>
      </trkpt>
      <trkpt lat="42.7751" lon="2.73996">
        <ele>66</ele>
        <time>2021-03-28T10:02:13Z</time>
      </trkpt>
      <trkpt lat="42.77515" lon="2.73985">
        <ele>66</ele>
        <time>2021-03-28T10:02:14Z</time>
      </trkpt>
      <trkpt lat="42.77515" lon="2.73985">
        <ele>66</ele>
        <time>2021-03-28T10:02:14Z</time>
      </trkpt>
      <trkpt lat="42.7752" lon="2.73972">
        <ele>66</ele>
        <time>2021-03-28T10:02:16Z</time>
      </trkpt>
      <trkpt lat="42.7752" lon="2.73972">
        <ele>66</ele>
        <time>2021-03-28T10:02:16Z</time>
      </trkpt>
      <trkpt lat="42.77525" lon="2.73961">
        <ele>66</ele>
        <time>2021-03-28T10:02:17Z</time>
      </trkpt>
      <trkpt lat="42.77525" lon="2.73961">
        <ele>66</ele>
        <time>2021-03-28T10:02:17Z</time>
      </trkpt>
      <trkpt lat="42.77531" lon="2.73947">
        <ele>66</ele>
        <time>2021-03-28T10:02:19Z</time>
      </trkpt>
      <trkpt lat="42.77531" lon="2.73947">
        <ele>66</ele>
        <time>2021-03-28T10:02:19Z</time>
      </trkpt>
      <trkpt lat="42.77536" lon="2.73931">
        <ele>65.4</ele>
        <time>2021-03-28T10:02:21Z</time>
      </trkpt>
      <trkpt lat="42.77536" lon="2.73931">
        <ele>65.4</ele>
        <time>2021-03-28T10:02:21Z</time>
      </trkpt>
      <trkpt lat="42.77541" lon="2.73917">
        <ele>64.2</ele>
        <time>2021-03-28T10:02:22Z</time>
      </trkpt>
      <trkpt lat="42.77541" lon="2.73917">
        <ele>64.2</ele>
        <time>2021-03-28T10:02:22Z</time>
      </trkpt>
      <trkpt lat="42.77546" lon="2.73902">
        <ele>65.1</ele>
        <time>2021-03-28T10:02:24Z</time>
      </trkpt>
      <trkpt lat="42.77546" lon="2.73902">
        <ele>65.1</ele>
        <time>2021-03-28T10:02:24Z</time>
      </trkpt>
      <trkpt lat="42.77552" lon="2.73885">
        <ele>66.5</ele>
        <time>2021-03-28T10:02:26Z</time>
      </trkpt>
      <trkpt lat="42.77552" lon="2.73885">
        <ele>66.5</ele>
        <time>2021-03-28T10:02:26Z</time>
      </trkpt>
      <trkpt lat="42.77557" lon="2.73867">
        <ele>66.7</ele>
        <time>2021-03-28T10:02:28Z</time>
      </trkpt>
      <trkpt lat="42.77557" lon="2.73867">
        <ele>66.7</ele>
        <time>2021-03-28T10:02:28Z</time>
      </trkpt>
      <trkpt lat="42.77562" lon="2.73852">
        <ele>66.8</ele>
        <time>2021-03-28T10:02:29Z</time>
      </trkpt>
      <trkpt lat="42.77562" lon="2.73852">
        <ele>66.8</ele>
        <time>2021-03-28T10:02:29Z</time>
      </trkpt>
      <trkpt lat="42.77566" lon="2.73838">
        <ele>66.6</ele>
        <time>2021-03-28T10:02:31Z</time>
      </trkpt>
      <trkpt lat="42.77566" lon="2.73838">
        <ele>66.6</ele>
        <time>2021-03-28T10:02:31Z</time>
      </trkpt>
      <trkpt lat="42.7757" lon="2.73822">
        <ele>68.4</ele>
        <time>2021-03-28T10:02:33Z</time>
      </trkpt>
      <trkpt lat="42.7757" lon="2.73822">
        <ele>68.4</ele>
        <time>2021-03-28T10:02:33Z</time>
      </trkpt>
      <trkpt lat="42.77573" lon="2.73809">
        <ele>69.8</ele>
        <time>2021-03-28T10:02:34Z</time>
      </trkpt>
      <trkpt lat="42.77573" lon="2.73809">
        <ele>69.8</ele>
        <time>2021-03-28T10:02:34Z</time>
      </trkpt>
      <trkpt lat="42.77576" lon="2.73797">
        <ele>69.9</ele>
        <time>2021-03-28T10:02:35Z</time>
      </trkpt>
      <trkpt lat="42.77576" lon="2.73797">
        <ele>69.9</ele>
        <time>2021-03-28T10:02:35Z</time>
      </trkpt>
      <trkpt lat="42.77579" lon="2.73784">
        <ele>69.4</ele>
        <time>2021-03-28T10:02:37Z</time>
      </trkpt>
      <trkpt lat="42.77579" lon="2.73784">
        <ele>69.4</ele>
        <time>2021-03-28T10:02:37Z</time>
      </trkpt>
      <trkpt lat="42.77582" lon="2.73772">
        <ele>68.5</ele>
        <time>2021-03-28T10:02:38Z</time>
      </trkpt>
      <trkpt lat="42.77582" lon="2.73772">
        <ele>68.5</ele>
        <time>2021-03-28T10:02:38Z</time>
      </trkpt>
      <trkpt lat="42.77585" lon="2.73758">
        <ele>67.8</ele>
        <time>2021-03-28T10:02:40Z</time>
      </trkpt>
      <trkpt lat="42.77585" lon="2.73758">
        <ele>67.8</ele>
        <time>2021-03-28T10:02:40Z</time>
      </trkpt>
      <trkpt lat="42.77588" lon="2.73746">
        <ele>67.7</ele>
        <time>2021-03-28T10:02:41Z</time>
      </trkpt>
      <trkpt lat="42.77588" lon="2.73746">
        <ele>67.7</ele>
        <time>2021-03-28T10:02:41Z</time>
      </trkpt>
      <trkpt lat="42.7759" lon="2.73734">
        <ele>67.7</ele>
        <time>2021-03-28T10:02:42Z</time>
      </trkpt>
      <trkpt lat="42.7759" lon="2.73734">
        <ele>67.7</ele>
        <time>2021-03-28T10:02:42Z</time>
      </trkpt>
      <trkpt lat="42.77591" lon="2.73724">
        <ele>67.7</ele>
        <time>2021-03-28T10:02:43Z</time>
      </trkpt>
      <trkpt lat="42.77591" lon="2.73724">
        <ele>67.7</ele>
        <time>2021-03-28T10:02:43Z</time>
      </trkpt>
      <trkpt lat="42.77594" lon="2.73711">
        <ele>69.6</ele>
        <time>2021-03-28T10:02:45Z</time>
      </trkpt>
      <trkpt lat="42.77594" lon="2.73711">
        <ele>69.6</ele>
        <time>2021-03-28T10:02:45Z</time>
      </trkpt>
      <trkpt lat="42.77597" lon="2.73697">
        <ele>71.3</ele>
        <time>2021-03-28T10:02:47Z</time>
      </trkpt>
      <trkpt lat="42.77597" lon="2.73697">
        <ele>71.3</ele>
        <time>2021-03-28T10:02:47Z</time>
      </trkpt>
      <trkpt lat="42.77599" lon="2.73682">
        <ele>71.4</ele>
        <time>2021-03-28T10:02:49Z</time>
      </trkpt>
      <trkpt lat="42.77599" lon="2.73682">
        <ele>71.4</ele>
        <time>2021-03-28T10:02:49Z</time>
      </trkpt>
      <trkpt lat="42.77602" lon="2.73667">
        <ele>71.3</ele>
        <time>2021-03-28T10:02:51Z</time>
      </trkpt>
      <trkpt lat="42.77602" lon="2.73667">
        <ele>71.3</ele>
        <time>2021-03-28T10:02:51Z</time>
      </trkpt>
      <trkpt lat="42.77605" lon="2.73651">
        <ele>70.8</ele>
        <time>2021-03-28T10:02:53Z</time>
      </trkpt>
      <trkpt lat="42.77605" lon="2.73651">
        <ele>70.8</ele>
        <time>2021-03-28T10:02:53Z</time>
      </trkpt>
      <trkpt lat="42.77607" lon="2.73635">
        <ele>70.6</ele>
        <time>2021-03-28T10:02:55Z</time>
      </trkpt>
      <trkpt lat="42.77607" lon="2.73635">
        <ele>70.6</ele>
        <time>2021-03-28T10:02:55Z</time>
      </trkpt>
      <trkpt lat="42.77608" lon="2.73618">
        <ele>70.4</ele>
        <time>2021-03-28T10:02:57Z</time>
      </trkpt>
      <trkpt lat="42.77608" lon="2.73618">
        <ele>70.4</ele>
        <time>2021-03-28T10:02:57Z</time>
      </trkpt>
      <trkpt lat="42.7761" lon="2.73604">
        <ele>70.5</ele>
        <time>2021-03-28T10:02:58Z</time>
      </trkpt>
      <trkpt lat="42.7761" lon="2.73604">
        <ele>70.5</ele>
        <time>2021-03-28T10:02:58Z</time>
      </trkpt>
      <trkpt lat="42.7761" lon="2.73587">
        <ele>71</ele>
        <time>2021-03-28T10:03:00Z</time>
      </trkpt>
      <trkpt lat="42.7761" lon="2.73587">
        <ele>71</ele>
        <time>2021-03-28T10:03:00Z</time>
      </trkpt>
      <trkpt lat="42.77611" lon="2.73574">
        <ele>71.4</ele>
        <time>2021-03-28T10:03:01Z</time>
      </trkpt>
      <trkpt lat="42.77611" lon="2.73574">
        <ele>71.4</ele>
        <time>2021-03-28T10:03:01Z</time>
      </trkpt>
      <trkpt lat="42.77611" lon="2.73561">
        <ele>71.9</ele>
        <time>2021-03-28T10:03:03Z</time>
      </trkpt>
      <trkpt lat="42.77611" lon="2.73561">
        <ele>71.9</ele>
        <time>2021-03-28T10:03:03Z</time>
      </trkpt>
      <trkpt lat="42.77611" lon="2.73546">
        <ele>72</ele>
        <time>2021-03-28T10:03:05Z</time>
      </trkpt>
      <trkpt lat="42.77611" lon="2.73546">
        <ele>72</ele>
        <time>2021-03-28T10:03:05Z</time>
      </trkpt>
      <trkpt lat="42.77611" lon="2.73533">
        <ele>72</ele>
        <time>2021-03-28T10:03:07Z</time>
      </trkpt>
      <trkpt lat="42.77611" lon="2.73533">
        <ele>72</ele>
        <time>2021-03-28T10:03:07Z</time>
      </trkpt>
      <trkpt lat="42.77611" lon="2.73521">
        <ele>72.4</ele>
        <time>2021-03-28T10:03:08Z</time>
      </trkpt>
      <trkpt lat="42.77611" lon="2.73521">
        <ele>72.4</ele>
        <time>2021-03-28T10:03:08Z</time>
      </trkpt>
      <trkpt lat="42.7761" lon="2.73508">
        <ele>72.9</ele>
        <time>2021-03-28T10:03:10Z</time>
      </trkpt>
      <trkpt lat="42.7761" lon="2.73508">
        <ele>72.9</ele>
        <time>2021-03-28T10:03:10Z</time>
      </trkpt>
      <trkpt lat="42.77609" lon="2.73494">
        <ele>73.3</ele>
        <time>2021-03-28T10:03:12Z</time>
      </trkpt>
      <trkpt lat="42.77609" lon="2.73494">
        <ele>73.3</ele>
        <time>2021-03-28T10:03:12Z</time>
      </trkpt>
      <trkpt lat="42.77608" lon="2.7348">
        <ele>73.6</ele>
        <time>2021-03-28T10:03:14Z</time>
      </trkpt>
      <trkpt lat="42.77608" lon="2.7348">
        <ele>73.6</ele>
        <time>2021-03-28T10:03:14Z</time>
      </trkpt>
      <trkpt lat="42.77607" lon="2.73466">
        <ele>74.2</ele>
        <time>2021-03-28T10:03:16Z</time>
      </trkpt>
      <trkpt lat="42.77607" lon="2.73466">
        <ele>74.2</ele>
        <time>2021-03-28T10:03:16Z</time>
      </trkpt>
      <trkpt lat="42.77606" lon="2.73453">
        <ele>74.9</ele>
        <time>2021-03-28T10:03:17Z</time>
      </trkpt>
      <trkpt lat="42.77606" lon="2.73453">
        <ele>74.9</ele>
        <time>2021-03-28T10:03:17Z</time>
      </trkpt>
      <trkpt lat="42.77605" lon="2.7344">
        <ele>75.2</ele>
        <time>2021-03-28T10:03:19Z</time>
      </trkpt>
      <trkpt lat="42.77605" lon="2.7344">
        <ele>75.2</ele>
        <time>2021-03-28T10:03:19Z</time>
      </trkpt>
      <trkpt lat="42.77604" lon="2.73429">
        <ele>75</ele>
        <time>2021-03-28T10:03:20Z</time>
      </trkpt>
      <trkpt lat="42.77604" lon="2.73429">
        <ele>75</ele>
        <time>2021-03-28T10:03:20Z</time>
      </trkpt>
      <trkpt lat="42.77603" lon="2.73419">
        <ele>74.7</ele>
        <time>2021-03-28T10:03:21Z</time>
      </trkpt>
      <trkpt lat="42.77603" lon="2.73419">
        <ele>74.7</ele>
        <time>2021-03-28T10:03:21Z</time>
      </trkpt>
      <trkpt lat="42.77602" lon="2.73408">
        <ele>74.5</ele>
        <time>2021-03-28T10:03:23Z</time>
      </trkpt>
      <trkpt lat="42.77602" lon="2.73408">
        <ele>74.5</ele>
        <time>2021-03-28T10:03:23Z</time>
      </trkpt>
      <trkpt lat="42.77602" lon="2.73398">
        <ele>74.4</ele>
        <time>2021-03-28T10:03:24Z</time>
      </trkpt>
      <trkpt lat="42.77602" lon="2.73398">
        <ele>74.4</ele>
        <time>2021-03-28T10:03:24Z</time>
      </trkpt>
      <trkpt lat="42.77603" lon="2.73389">
        <ele>74.3</ele>
        <time>2021-03-28T10:03:25Z</time>
      </trkpt>
      <trkpt lat="42.77603" lon="2.73389">
        <ele>74.3</ele>
        <time>2021-03-28T10:03:25Z</time>
      </trkpt>
      <trkpt lat="42.77604" lon="2.7338">
        <ele>74.5</ele>
        <time>2021-03-28T10:03:26Z</time>
      </trkpt>
      <trkpt lat="42.77604" lon="2.7338">
        <ele>74.5</ele>
        <time>2021-03-28T10:03:26Z</time>
      </trkpt>
      <trkpt lat="42.77607" lon="2.73368">
        <ele>74.8</ele>
        <time>2021-03-28T10:03:28Z</time>
      </trkpt>
      <trkpt lat="42.77607" lon="2.73368">
        <ele>74.8</ele>
        <time>2021-03-28T10:03:28Z</time>
      </trkpt>
      <trkpt lat="42.7761" lon="2.73355">
        <ele>75.4</ele>
        <time>2021-03-28T10:03:30Z</time>
      </trkpt>
      <trkpt lat="42.7761" lon="2.73355">
        <ele>75.4</ele>
        <time>2021-03-28T10:03:30Z</time>
      </trkpt>
      <trkpt lat="42.77615" lon="2.7334">
        <ele>75.7</ele>
        <time>2021-03-28T10:03:32Z</time>
      </trkpt>
      <trkpt lat="42.77615" lon="2.7334">
        <ele>75.7</ele>
        <time>2021-03-28T10:03:32Z</time>
      </trkpt>
      <trkpt lat="42.77619" lon="2.73324">
        <ele>75.5</ele>
        <time>2021-03-28T10:03:34Z</time>
      </trkpt>
      <trkpt lat="42.77619" lon="2.73324">
        <ele>75.5</ele>
        <time>2021-03-28T10:03:34Z</time>
      </trkpt>
      <trkpt lat="42.77623" lon="2.73311">
        <ele>75.3</ele>
        <time>2021-03-28T10:03:35Z</time>
      </trkpt>
      <trkpt lat="42.77623" lon="2.73311">
        <ele>75.3</ele>
        <time>2021-03-28T10:03:35Z</time>
      </trkpt>
      <trkpt lat="42.77626" lon="2.73298">
        <ele>75.2</ele>
        <time>2021-03-28T10:03:37Z</time>
      </trkpt>
      <trkpt lat="42.77626" lon="2.73298">
        <ele>75.2</ele>
        <time>2021-03-28T10:03:37Z</time>
      </trkpt>
      <trkpt lat="42.77629" lon="2.73285">
        <ele>75.6</ele>
        <time>2021-03-28T10:03:39Z</time>
      </trkpt>
      <trkpt lat="42.77629" lon="2.73285">
        <ele>75.6</ele>
        <time>2021-03-28T10:03:39Z</time>
      </trkpt>
      <trkpt lat="42.77631" lon="2.73273">
        <ele>76</ele>
        <time>2021-03-28T10:03:40Z</time>
      </trkpt>
      <trkpt lat="42.77631" lon="2.73273">
        <ele>76</ele>
        <time>2021-03-28T10:03:40Z</time>
      </trkpt>
      <trkpt lat="42.77633" lon="2.7326">
        <ele>76.6</ele>
        <time>2021-03-28T10:03:42Z</time>
      </trkpt>
      <trkpt lat="42.77633" lon="2.7326">
        <ele>76.6</ele>
        <time>2021-03-28T10:03:42Z</time>
      </trkpt>
      <trkpt lat="42.77635" lon="2.73248">
        <ele>77.2</ele>
        <time>2021-03-28T10:03:43Z</time>
      </trkpt>
      <trkpt lat="42.77635" lon="2.73248">
        <ele>77.2</ele>
        <time>2021-03-28T10:03:43Z</time>
      </trkpt>
      <trkpt lat="42.77638" lon="2.73236">
        <ele>78.7</ele>
        <time>2021-03-28T10:03:45Z</time>
      </trkpt>
      <trkpt lat="42.77638" lon="2.73236">
        <ele>78.7</ele>
        <time>2021-03-28T10:03:45Z</time>
      </trkpt>
      <trkpt lat="42.7764" lon="2.73224">
        <ele>80</ele>
        <time>2021-03-28T10:03:47Z</time>
      </trkpt>
      <trkpt lat="42.7764" lon="2.73224">
        <ele>80</ele>
        <time>2021-03-28T10:03:47Z</time>
      </trkpt>
      <trkpt lat="42.77642" lon="2.73213">
        <ele>79.8</ele>
        <time>2021-03-28T10:03:49Z</time>
      </trkpt>
      <trkpt lat="42.77642" lon="2.73213">
        <ele>79.8</ele>
        <time>2021-03-28T10:03:49Z</time>
      </trkpt>
      <trkpt lat="42.77643" lon="2.73204">
        <ele>79.7</ele>
        <time>2021-03-28T10:03:50Z</time>
      </trkpt>
      <trkpt lat="42.77643" lon="2.73204">
        <ele>79.7</ele>
        <time>2021-03-28T10:03:50Z</time>
      </trkpt>
      <trkpt lat="42.77644" lon="2.73193">
        <ele>79.6</ele>
        <time>2021-03-28T10:03:52Z</time>
      </trkpt>
      <trkpt lat="42.77644" lon="2.73193">
        <ele>79.6</ele>
        <time>2021-03-28T10:03:52Z</time>
      </trkpt>
      <trkpt lat="42.77645" lon="2.73183">
        <ele>79.7</ele>
        <time>2021-03-28T10:03:53Z</time>
      </trkpt>
      <trkpt lat="42.77645" lon="2.73183">
        <ele>79.7</ele>
        <time>2021-03-28T10:03:53Z</time>
      </trkpt>
      <trkpt lat="42.77647" lon="2.73172">
        <ele>79.7</ele>
        <time>2021-03-28T10:03:55Z</time>
      </trkpt>
      <trkpt lat="42.77647" lon="2.73172">
        <ele>79.7</ele>
        <time>2021-03-28T10:03:55Z</time>
      </trkpt>
      <trkpt lat="42.77648" lon="2.73162">
        <ele>80.1</ele>
        <time>2021-03-28T10:03:56Z</time>
      </trkpt>
      <trkpt lat="42.77648" lon="2.73162">
        <ele>80.1</ele>
        <time>2021-03-28T10:03:56Z</time>
      </trkpt>
      <trkpt lat="42.77649" lon="2.73151">
        <ele>81.4</ele>
        <time>2021-03-28T10:03:58Z</time>
      </trkpt>
      <trkpt lat="42.77649" lon="2.73151">
        <ele>81.4</ele>
        <time>2021-03-28T10:03:58Z</time>
      </trkpt>
      <trkpt lat="42.77648" lon="2.73138">
        <ele>82.9</ele>
        <time>2021-03-28T10:04:00Z</time>
      </trkpt>
      <trkpt lat="42.77648" lon="2.73138">
        <ele>82.9</ele>
        <time>2021-03-28T10:04:00Z</time>
      </trkpt>
      <trkpt lat="42.77647" lon="2.73127">
        <ele>81.3</ele>
        <time>2021-03-28T10:04:01Z</time>
      </trkpt>
      <trkpt lat="42.77647" lon="2.73127">
        <ele>81.3</ele>
        <time>2021-03-28T10:04:01Z</time>
      </trkpt>
      <trkpt lat="42.77646" lon="2.73115">
        <ele>79.6</ele>
        <time>2021-03-28T10:04:03Z</time>
      </trkpt>
      <trkpt lat="42.77646" lon="2.73115">
        <ele>79.6</ele>
        <time>2021-03-28T10:04:03Z</time>
      </trkpt>
      <trkpt lat="42.77646" lon="2.73105">
        <ele>78.6</ele>
        <time>2021-03-28T10:04:04Z</time>
      </trkpt>
      <trkpt lat="42.77646" lon="2.73105">
        <ele>78.6</ele>
        <time>2021-03-28T10:04:04Z</time>
      </trkpt>
      <trkpt lat="42.77647" lon="2.73095">
        <ele>78</ele>
        <time>2021-03-28T10:04:05Z</time>
      </trkpt>
      <trkpt lat="42.77647" lon="2.73095">
        <ele>78</ele>
        <time>2021-03-28T10:04:05Z</time>
      </trkpt>
      <trkpt lat="42.77649" lon="2.73083">
        <ele>77.3</ele>
        <time>2021-03-28T10:04:07Z</time>
      </trkpt>
      <trkpt lat="42.77649" lon="2.73083">
        <ele>77.3</ele>
        <time>2021-03-28T10:04:07Z</time>
      </trkpt>
      <trkpt lat="42.77651" lon="2.73072">
        <ele>79.5</ele>
        <time>2021-03-28T10:04:08Z</time>
      </trkpt>
      <trkpt lat="42.77651" lon="2.73072">
        <ele>79.5</ele>
        <time>2021-03-28T10:04:08Z</time>
      </trkpt>
      <trkpt lat="42.77653" lon="2.7306">
        <ele>81.5</ele>
        <time>2021-03-28T10:04:10Z</time>
      </trkpt>
      <trkpt lat="42.77653" lon="2.7306">
        <ele>81.5</ele>
        <time>2021-03-28T10:04:10Z</time>
      </trkpt>
      <trkpt lat="42.77656" lon="2.73047">
        <ele>82.8</ele>
        <time>2021-03-28T10:04:12Z</time>
      </trkpt>
      <trkpt lat="42.77656" lon="2.73047">
        <ele>82.8</ele>
        <time>2021-03-28T10:04:12Z</time>
      </trkpt>
      <trkpt lat="42.77657" lon="2.73036">
        <ele>83.2</ele>
        <time>2021-03-28T10:04:13Z</time>
      </trkpt>
      <trkpt lat="42.77657" lon="2.73036">
        <ele>83.2</ele>
        <time>2021-03-28T10:04:13Z</time>
      </trkpt>
      <trkpt lat="42.77659" lon="2.73023">
        <ele>83.5</ele>
        <time>2021-03-28T10:04:15Z</time>
      </trkpt>
      <trkpt lat="42.77659" lon="2.73023">
        <ele>83.5</ele>
        <time>2021-03-28T10:04:15Z</time>
      </trkpt>
      <trkpt lat="42.77661" lon="2.7301">
        <ele>84</ele>
        <time>2021-03-28T10:04:17Z</time>
      </trkpt>
      <trkpt lat="42.77661" lon="2.7301">
        <ele>84</ele>
        <time>2021-03-28T10:04:17Z</time>
      </trkpt>
      <trkpt lat="42.77663" lon="2.72998">
        <ele>84.4</ele>
        <time>2021-03-28T10:04:18Z</time>
      </trkpt>
      <trkpt lat="42.77663" lon="2.72998">
        <ele>84.4</ele>
        <time>2021-03-28T10:04:18Z</time>
      </trkpt>
      <trkpt lat="42.77663" lon="2.72984">
        <ele>84.1</ele>
        <time>2021-03-28T10:04:20Z</time>
      </trkpt>
      <trkpt lat="42.77663" lon="2.72984">
        <ele>84.1</ele>
        <time>2021-03-28T10:04:20Z</time>
      </trkpt>
      <trkpt lat="42.77664" lon="2.72973">
        <ele>84</ele>
        <time>2021-03-28T10:04:21Z</time>
      </trkpt>
      <trkpt lat="42.77664" lon="2.72973">
        <ele>84</ele>
        <time>2021-03-28T10:04:21Z</time>
      </trkpt>
      <trkpt lat="42.77664" lon="2.7296">
        <ele>83.8</ele>
        <time>2021-03-28T10:04:23Z</time>
      </trkpt>
      <trkpt lat="42.77664" lon="2.7296">
        <ele>83.8</ele>
        <time>2021-03-28T10:04:23Z</time>
      </trkpt>
      <trkpt lat="42.77665" lon="2.7295">
        <ele>83.7</ele>
        <time>2021-03-28T10:04:24Z</time>
      </trkpt>
      <trkpt lat="42.77665" lon="2.7295">
        <ele>83.7</ele>
        <time>2021-03-28T10:04:24Z</time>
      </trkpt>
      <trkpt lat="42.77665" lon="2.72937">
        <ele>83.7</ele>
        <time>2021-03-28T10:04:26Z</time>
      </trkpt>
      <trkpt lat="42.77665" lon="2.72937">
        <ele>83.7</ele>
        <time>2021-03-28T10:04:26Z</time>
      </trkpt>
      <trkpt lat="42.77666" lon="2.72925">
        <ele>84</ele>
        <time>2021-03-28T10:04:28Z</time>
      </trkpt>
      <trkpt lat="42.77666" lon="2.72925">
        <ele>84</ele>
        <time>2021-03-28T10:04:28Z</time>
      </trkpt>
      <trkpt lat="42.77666" lon="2.72915">
        <ele>84.2</ele>
        <time>2021-03-28T10:04:29Z</time>
      </trkpt>
      <trkpt lat="42.77666" lon="2.72915">
        <ele>84.2</ele>
        <time>2021-03-28T10:04:29Z</time>
      </trkpt>
      <trkpt lat="42.77667" lon="2.72903">
        <ele>83.9</ele>
        <time>2021-03-28T10:04:31Z</time>
      </trkpt>
      <trkpt lat="42.77667" lon="2.72903">
        <ele>83.9</ele>
        <time>2021-03-28T10:04:31Z</time>
      </trkpt>
      <trkpt lat="42.77667" lon="2.72893">
        <ele>83.7</ele>
        <time>2021-03-28T10:04:32Z</time>
      </trkpt>
      <trkpt lat="42.77667" lon="2.72893">
        <ele>83.7</ele>
        <time>2021-03-28T10:04:32Z</time>
      </trkpt>
      <trkpt lat="42.77668" lon="2.72883">
        <ele>83.8</ele>
        <time>2021-03-28T10:04:33Z</time>
      </trkpt>
      <trkpt lat="42.77668" lon="2.72883">
        <ele>83.8</ele>
        <time>2021-03-28T10:04:33Z</time>
      </trkpt>
      <trkpt lat="42.77667" lon="2.72871">
        <ele>84.4</ele>
        <time>2021-03-28T10:04:35Z</time>
      </trkpt>
      <trkpt lat="42.77667" lon="2.72871">
        <ele>84.4</ele>
        <time>2021-03-28T10:04:35Z</time>
      </trkpt>
      <trkpt lat="42.77666" lon="2.72857">
        <ele>85</ele>
        <time>2021-03-28T10:04:37Z</time>
      </trkpt>
      <trkpt lat="42.77666" lon="2.72857">
        <ele>85</ele>
        <time>2021-03-28T10:04:37Z</time>
      </trkpt>
      <trkpt lat="42.77663" lon="2.72841">
        <ele>84.5</ele>
        <time>2021-03-28T10:04:39Z</time>
      </trkpt>
      <trkpt lat="42.77663" lon="2.72841">
        <ele>84.5</ele>
        <time>2021-03-28T10:04:39Z</time>
      </trkpt>
      <trkpt lat="42.77661" lon="2.72827">
        <ele>83.9</ele>
        <time>2021-03-28T10:04:40Z</time>
      </trkpt>
      <trkpt lat="42.77661" lon="2.72827">
        <ele>83.9</ele>
        <time>2021-03-28T10:04:40Z</time>
      </trkpt>
      <trkpt lat="42.77658" lon="2.72816">
        <ele>83.6</ele>
        <time>2021-03-28T10:04:41Z</time>
      </trkpt>
      <trkpt lat="42.77658" lon="2.72816">
        <ele>83.6</ele>
        <time>2021-03-28T10:04:41Z</time>
      </trkpt>
      <trkpt lat="42.77655" lon="2.72803">
        <ele>83.4</ele>
        <time>2021-03-28T10:04:43Z</time>
      </trkpt>
      <trkpt lat="42.77655" lon="2.72803">
        <ele>83.4</ele>
        <time>2021-03-28T10:04:43Z</time>
      </trkpt>
      <trkpt lat="42.77652" lon="2.72791">
        <ele>84.4</ele>
        <time>2021-03-28T10:04:44Z</time>
      </trkpt>
      <trkpt lat="42.77652" lon="2.72791">
        <ele>84.4</ele>
        <time>2021-03-28T10:04:44Z</time>
      </trkpt>
      <trkpt lat="42.77649" lon="2.72779">
        <ele>85.9</ele>
        <time>2021-03-28T10:04:46Z</time>
      </trkpt>
      <trkpt lat="42.77649" lon="2.72779">
        <ele>85.9</ele>
        <time>2021-03-28T10:04:46Z</time>
      </trkpt>
      <trkpt lat="42.77647" lon="2.72768">
        <ele>85.8</ele>
        <time>2021-03-28T10:04:47Z</time>
      </trkpt>
      <trkpt lat="42.77647" lon="2.72768">
        <ele>85.8</ele>
        <time>2021-03-28T10:04:47Z</time>
      </trkpt>
      <trkpt lat="42.77644" lon="2.72755">
        <ele>85</ele>
        <time>2021-03-28T10:04:49Z</time>
      </trkpt>
      <trkpt lat="42.77644" lon="2.72755">
        <ele>85</ele>
        <time>2021-03-28T10:04:49Z</time>
      </trkpt>
      <trkpt lat="42.77642" lon="2.72742">
        <ele>83.9</ele>
        <time>2021-03-28T10:04:51Z</time>
      </trkpt>
      <trkpt lat="42.77642" lon="2.72742">
        <ele>83.9</ele>
        <time>2021-03-28T10:04:51Z</time>
      </trkpt>
      <trkpt lat="42.7764" lon="2.72731">
        <ele>82.9</ele>
        <time>2021-03-28T10:04:52Z</time>
      </trkpt>
      <trkpt lat="42.7764" lon="2.72731">
        <ele>82.9</ele>
        <time>2021-03-28T10:04:52Z</time>
      </trkpt>
      <trkpt lat="42.77638" lon="2.72718">
        <ele>82.1</ele>
        <time>2021-03-28T10:04:54Z</time>
      </trkpt>
      <trkpt lat="42.77638" lon="2.72718">
        <ele>82.1</ele>
        <time>2021-03-28T10:04:54Z</time>
      </trkpt>
      <trkpt lat="42.77637" lon="2.72706">
        <ele>82.6</ele>
        <time>2021-03-28T10:04:55Z</time>
      </trkpt>
      <trkpt lat="42.77637" lon="2.72706">
        <ele>82.6</ele>
        <time>2021-03-28T10:04:55Z</time>
      </trkpt>
      <trkpt lat="42.77638" lon="2.72693">
        <ele>83.2</ele>
        <time>2021-03-28T10:04:57Z</time>
      </trkpt>
      <trkpt lat="42.77638" lon="2.72693">
        <ele>83.2</ele>
        <time>2021-03-28T10:04:57Z</time>
      </trkpt>
      <trkpt lat="42.77639" lon="2.72682">
        <ele>84.3</ele>
        <time>2021-03-28T10:04:58Z</time>
      </trkpt>
      <trkpt lat="42.77639" lon="2.72682">
        <ele>84.3</ele>
        <time>2021-03-28T10:04:58Z</time>
      </trkpt>
      <trkpt lat="42.77643" lon="2.72671">
        <ele>85.2</ele>
        <time>2021-03-28T10:05:00Z</time>
      </trkpt>
      <trkpt lat="42.77643" lon="2.72671">
        <ele>85.2</ele>
        <time>2021-03-28T10:05:00Z</time>
      </trkpt>
      <trkpt lat="42.77647" lon="2.72661">
        <ele>85.9</ele>
        <time>2021-03-28T10:05:01Z</time>
      </trkpt>
      <trkpt lat="42.77647" lon="2.72661">
        <ele>85.9</ele>
        <time>2021-03-28T10:05:01Z</time>
      </trkpt>
      <trkpt lat="42.77653" lon="2.7265">
        <ele>86.4</ele>
        <time>2021-03-28T10:05:03Z</time>
      </trkpt>
      <trkpt lat="42.77653" lon="2.7265">
        <ele>86.4</ele>
        <time>2021-03-28T10:05:03Z</time>
      </trkpt>
      <trkpt lat="42.77658" lon="2.7264">
        <ele>86.1</ele>
        <time>2021-03-28T10:05:04Z</time>
      </trkpt>
      <trkpt lat="42.77658" lon="2.7264">
        <ele>86.1</ele>
        <time>2021-03-28T10:05:04Z</time>
      </trkpt>
      <trkpt lat="42.77664" lon="2.72628">
        <ele>85.6</ele>
        <time>2021-03-28T10:05:06Z</time>
      </trkpt>
      <trkpt lat="42.77664" lon="2.72628">
        <ele>85.6</ele>
        <time>2021-03-28T10:05:06Z</time>
      </trkpt>
      <trkpt lat="42.77669" lon="2.72617">
        <ele>84.9</ele>
        <time>2021-03-28T10:05:07Z</time>
      </trkpt>
      <trkpt lat="42.77669" lon="2.72617">
        <ele>84.9</ele>
        <time>2021-03-28T10:05:07Z</time>
      </trkpt>
      <trkpt lat="42.77674" lon="2.72603">
        <ele>85.6</ele>
        <time>2021-03-28T10:05:09Z</time>
      </trkpt>
      <trkpt lat="42.77674" lon="2.72603">
        <ele>85.6</ele>
        <time>2021-03-28T10:05:09Z</time>
      </trkpt>
      <trkpt lat="42.77678" lon="2.72589">
        <ele>86.9</ele>
        <time>2021-03-28T10:05:11Z</time>
      </trkpt>
      <trkpt lat="42.77678" lon="2.72589">
        <ele>86.9</ele>
        <time>2021-03-28T10:05:11Z</time>
      </trkpt>
      <trkpt lat="42.7768" lon="2.72576">
        <ele>86.5</ele>
        <time>2021-03-28T10:05:12Z</time>
      </trkpt>
      <trkpt lat="42.7768" lon="2.72576">
        <ele>86.5</ele>
        <time>2021-03-28T10:05:12Z</time>
      </trkpt>
      <trkpt lat="42.77682" lon="2.72562">
        <ele>85.4</ele>
        <time>2021-03-28T10:05:14Z</time>
      </trkpt>
      <trkpt lat="42.77682" lon="2.72562">
        <ele>85.4</ele>
        <time>2021-03-28T10:05:14Z</time>
      </trkpt>
      <trkpt lat="42.77684" lon="2.7255">
        <ele>85</ele>
        <time>2021-03-28T10:05:15Z</time>
      </trkpt>
      <trkpt lat="42.77684" lon="2.7255">
        <ele>85</ele>
        <time>2021-03-28T10:05:15Z</time>
      </trkpt>
      <trkpt lat="42.77684" lon="2.72539">
        <ele>85.2</ele>
        <time>2021-03-28T10:05:16Z</time>
      </trkpt>
      <trkpt lat="42.77684" lon="2.72539">
        <ele>85.2</ele>
        <time>2021-03-28T10:05:16Z</time>
      </trkpt>
      <trkpt lat="42.77685" lon="2.72525">
        <ele>85.6</ele>
        <time>2021-03-28T10:05:18Z</time>
      </trkpt>
      <trkpt lat="42.77685" lon="2.72525">
        <ele>85.6</ele>
        <time>2021-03-28T10:05:18Z</time>
      </trkpt>
      <trkpt lat="42.77685" lon="2.72514">
        <ele>85.8</ele>
        <time>2021-03-28T10:05:19Z</time>
      </trkpt>
      <trkpt lat="42.77685" lon="2.72514">
        <ele>85.8</ele>
        <time>2021-03-28T10:05:19Z</time>
      </trkpt>
      <trkpt lat="42.77686" lon="2.725">
        <ele>86.2</ele>
        <time>2021-03-28T10:05:21Z</time>
      </trkpt>
      <trkpt lat="42.77686" lon="2.725">
        <ele>86.2</ele>
        <time>2021-03-28T10:05:21Z</time>
      </trkpt>
      <trkpt lat="42.77686" lon="2.72488">
        <ele>85.3</ele>
        <time>2021-03-28T10:05:22Z</time>
      </trkpt>
      <trkpt lat="42.77686" lon="2.72488">
        <ele>85.3</ele>
        <time>2021-03-28T10:05:22Z</time>
      </trkpt>
      <trkpt lat="42.77686" lon="2.72474">
        <ele>84.3</ele>
        <time>2021-03-28T10:05:24Z</time>
      </trkpt>
      <trkpt lat="42.77686" lon="2.72474">
        <ele>84.3</ele>
        <time>2021-03-28T10:05:24Z</time>
      </trkpt>
      <trkpt lat="42.77686" lon="2.72459">
        <ele>83.8</ele>
        <time>2021-03-28T10:05:26Z</time>
      </trkpt>
      <trkpt lat="42.77686" lon="2.72459">
        <ele>83.8</ele>
        <time>2021-03-28T10:05:26Z</time>
      </trkpt>
      <trkpt lat="42.77686" lon="2.72445">
        <ele>83.6</ele>
        <time>2021-03-28T10:05:27Z</time>
      </trkpt>
      <trkpt lat="42.77686" lon="2.72445">
        <ele>83.6</ele>
        <time>2021-03-28T10:05:27Z</time>
      </trkpt>
      <trkpt lat="42.77685" lon="2.72431">
        <ele>85.1</ele>
        <time>2021-03-28T10:05:29Z</time>
      </trkpt>
      <trkpt lat="42.77685" lon="2.72431">
        <ele>85.1</ele>
        <time>2021-03-28T10:05:29Z</time>
      </trkpt>
      <trkpt lat="42.77684" lon="2.72416">
        <ele>87</ele>
        <time>2021-03-28T10:05:31Z</time>
      </trkpt>
      <trkpt lat="42.77684" lon="2.72416">
        <ele>87</ele>
        <time>2021-03-28T10:05:31Z</time>
      </trkpt>
      <trkpt lat="42.77683" lon="2.724">
        <ele>87.5</ele>
        <time>2021-03-28T10:05:33Z</time>
      </trkpt>
      <trkpt lat="42.77683" lon="2.724">
        <ele>87.5</ele>
        <time>2021-03-28T10:05:33Z</time>
      </trkpt>
      <trkpt lat="42.77681" lon="2.72386">
        <ele>88</ele>
        <time>2021-03-28T10:05:34Z</time>
      </trkpt>
      <trkpt lat="42.77681" lon="2.72386">
        <ele>88</ele>
        <time>2021-03-28T10:05:34Z</time>
      </trkpt>
      <trkpt lat="42.77678" lon="2.7237">
        <ele>88.7</ele>
        <time>2021-03-28T10:05:36Z</time>
      </trkpt>
      <trkpt lat="42.77678" lon="2.7237">
        <ele>88.7</ele>
        <time>2021-03-28T10:05:36Z</time>
      </trkpt>
      <trkpt lat="42.77675" lon="2.72357">
        <ele>89</ele>
        <time>2021-03-28T10:05:37Z</time>
      </trkpt>
      <trkpt lat="42.77675" lon="2.72357">
        <ele>89</ele>
        <time>2021-03-28T10:05:37Z</time>
      </trkpt>
      <trkpt lat="42.7767" lon="2.72343">
        <ele>88.2</ele>
        <time>2021-03-28T10:05:39Z</time>
      </trkpt>
      <trkpt lat="42.7767" lon="2.72343">
        <ele>88.2</ele>
        <time>2021-03-28T10:05:39Z</time>
      </trkpt>
      <trkpt lat="42.77665" lon="2.7233">
        <ele>87.6</ele>
        <time>2021-03-28T10:05:40Z</time>
      </trkpt>
      <trkpt lat="42.77665" lon="2.7233">
        <ele>87.6</ele>
        <time>2021-03-28T10:05:40Z</time>
      </trkpt>
      <trkpt lat="42.7766" lon="2.72319">
        <ele>89.1</ele>
        <time>2021-03-28T10:05:41Z</time>
      </trkpt>
      <trkpt lat="42.7766" lon="2.72319">
        <ele>89.1</ele>
        <time>2021-03-28T10:05:41Z</time>
      </trkpt>
      <trkpt lat="42.77654" lon="2.72307">
        <ele>89.9</ele>
        <time>2021-03-28T10:05:43Z</time>
      </trkpt>
      <trkpt lat="42.77654" lon="2.72307">
        <ele>89.9</ele>
        <time>2021-03-28T10:05:43Z</time>
      </trkpt>
      <trkpt lat="42.77649" lon="2.72296">
        <ele>89</ele>
        <time>2021-03-28T10:05:44Z</time>
      </trkpt>
      <trkpt lat="42.77649" lon="2.72296">
        <ele>89</ele>
        <time>2021-03-28T10:05:44Z</time>
      </trkpt>
      <trkpt lat="42.77643" lon="2.72283">
        <ele>87.1</ele>
        <time>2021-03-28T10:05:46Z</time>
      </trkpt>
      <trkpt lat="42.77643" lon="2.72283">
        <ele>87.1</ele>
        <time>2021-03-28T10:05:46Z</time>
      </trkpt>
      <trkpt lat="42.77638" lon="2.72271">
        <ele>85.3</ele>
        <time>2021-03-28T10:05:47Z</time>
      </trkpt>
      <trkpt lat="42.77638" lon="2.72271">
        <ele>85.3</ele>
        <time>2021-03-28T10:05:47Z</time>
      </trkpt>
      <trkpt lat="42.77632" lon="2.72257">
        <ele>84.3</ele>
        <time>2021-03-28T10:05:49Z</time>
      </trkpt>
      <trkpt lat="42.77632" lon="2.72257">
        <ele>84.3</ele>
        <time>2021-03-28T10:05:49Z</time>
      </trkpt>
      <trkpt lat="42.77627" lon="2.72242">
        <ele>83.8</ele>
        <time>2021-03-28T10:05:51Z</time>
      </trkpt>
      <trkpt lat="42.77627" lon="2.72242">
        <ele>83.8</ele>
        <time>2021-03-28T10:05:51Z</time>
      </trkpt>
      <trkpt lat="42.77622" lon="2.72229">
        <ele>83.9</ele>
        <time>2021-03-28T10:05:52Z</time>
      </trkpt>
      <trkpt lat="42.77622" lon="2.72229">
        <ele>83.9</ele>
        <time>2021-03-28T10:05:52Z</time>
      </trkpt>
      <trkpt lat="42.7762" lon="2.72212">
        <ele>84.2</ele>
        <time>2021-03-28T10:05:54Z</time>
      </trkpt>
      <trkpt lat="42.7762" lon="2.72212">
        <ele>84.2</ele>
        <time>2021-03-28T10:05:54Z</time>
      </trkpt>
      <trkpt lat="42.77618" lon="2.72194">
        <ele>84.8</ele>
        <time>2021-03-28T10:05:56Z</time>
      </trkpt>
      <trkpt lat="42.77618" lon="2.72194">
        <ele>84.8</ele>
        <time>2021-03-28T10:05:56Z</time>
      </trkpt>
      <trkpt lat="42.77616" lon="2.72176">
        <ele>84.6</ele>
        <time>2021-03-28T10:05:58Z</time>
      </trkpt>
      <trkpt lat="42.77616" lon="2.72176">
        <ele>84.6</ele>
        <time>2021-03-28T10:05:58Z</time>
      </trkpt>
      <trkpt lat="42.77613" lon="2.72156">
        <ele>84.4</ele>
        <time>2021-03-28T10:06:00Z</time>
      </trkpt>
      <trkpt lat="42.77613" lon="2.72156">
        <ele>84.4</ele>
        <time>2021-03-28T10:06:00Z</time>
      </trkpt>
      <trkpt lat="42.77611" lon="2.72139">
        <ele>84</ele>
        <time>2021-03-28T10:06:01Z</time>
      </trkpt>
      <trkpt lat="42.77611" lon="2.72139">
        <ele>84</ele>
        <time>2021-03-28T10:06:01Z</time>
      </trkpt>
      <trkpt lat="42.77609" lon="2.72124">
        <ele>84.3</ele>
        <time>2021-03-28T10:06:02Z</time>
      </trkpt>
      <trkpt lat="42.77609" lon="2.72124">
        <ele>84.3</ele>
        <time>2021-03-28T10:06:02Z</time>
      </trkpt>
      <trkpt lat="42.77607" lon="2.72111">
        <ele>84.5</ele>
        <time>2021-03-28T10:06:03Z</time>
      </trkpt>
      <trkpt lat="42.77607" lon="2.72111">
        <ele>84.5</ele>
        <time>2021-03-28T10:06:03Z</time>
      </trkpt>
      <trkpt lat="42.77605" lon="2.72095">
        <ele>84.4</ele>
        <time>2021-03-28T10:06:05Z</time>
      </trkpt>
      <trkpt lat="42.77605" lon="2.72095">
        <ele>84.4</ele>
        <time>2021-03-28T10:06:05Z</time>
      </trkpt>
      <trkpt lat="42.77603" lon="2.7208">
        <ele>84.1</ele>
        <time>2021-03-28T10:06:06Z</time>
      </trkpt>
      <trkpt lat="42.77603" lon="2.7208">
        <ele>84.1</ele>
        <time>2021-03-28T10:06:06Z</time>
      </trkpt>
      <trkpt lat="42.77601" lon="2.72064">
        <ele>82.9</ele>
        <time>2021-03-28T10:06:08Z</time>
      </trkpt>
      <trkpt lat="42.77601" lon="2.72064">
        <ele>82.9</ele>
        <time>2021-03-28T10:06:08Z</time>
      </trkpt>
      <trkpt lat="42.77599" lon="2.72045">
        <ele>81.9</ele>
        <time>2021-03-28T10:06:10Z</time>
      </trkpt>
      <trkpt lat="42.77599" lon="2.72045">
        <ele>81.9</ele>
        <time>2021-03-28T10:06:10Z</time>
      </trkpt>
      <trkpt lat="42.77597" lon="2.72029">
        <ele>81.5</ele>
        <time>2021-03-28T10:06:11Z</time>
      </trkpt>
      <trkpt lat="42.77597" lon="2.72029">
        <ele>81.5</ele>
        <time>2021-03-28T10:06:11Z</time>
      </trkpt>
      <trkpt lat="42.77595" lon="2.7201">
        <ele>82.2</ele>
        <time>2021-03-28T10:06:13Z</time>
      </trkpt>
      <trkpt lat="42.77595" lon="2.7201">
        <ele>82.2</ele>
        <time>2021-03-28T10:06:13Z</time>
      </trkpt>
      <trkpt lat="42.77593" lon="2.7199">
        <ele>82.6</ele>
        <time>2021-03-28T10:06:15Z</time>
      </trkpt>
      <trkpt lat="42.77593" lon="2.7199">
        <ele>82.6</ele>
        <time>2021-03-28T10:06:15Z</time>
      </trkpt>
      <trkpt lat="42.77591" lon="2.71969">
        <ele>82.6</ele>
        <time>2021-03-28T10:06:17Z</time>
      </trkpt>
      <trkpt lat="42.77591" lon="2.71969">
        <ele>82.6</ele>
        <time>2021-03-28T10:06:17Z</time>
      </trkpt>
      <trkpt lat="42.77589" lon="2.71947">
        <ele>81.9</ele>
        <time>2021-03-28T10:06:19Z</time>
      </trkpt>
      <trkpt lat="42.77589" lon="2.71947">
        <ele>81.9</ele>
        <time>2021-03-28T10:06:19Z</time>
      </trkpt>
      <trkpt lat="42.77587" lon="2.71924">
        <ele>81</ele>
        <time>2021-03-28T10:06:21Z</time>
      </trkpt>
      <trkpt lat="42.77587" lon="2.71924">
        <ele>81</ele>
        <time>2021-03-28T10:06:21Z</time>
      </trkpt>
      <trkpt lat="42.77585" lon="2.71906">
        <ele>80.8</ele>
        <time>2021-03-28T10:06:22Z</time>
      </trkpt>
      <trkpt lat="42.77585" lon="2.71906">
        <ele>80.8</ele>
        <time>2021-03-28T10:06:22Z</time>
      </trkpt>
      <trkpt lat="42.77584" lon="2.71889">
        <ele>81</ele>
        <time>2021-03-28T10:06:23Z</time>
      </trkpt>
      <trkpt lat="42.77584" lon="2.71889">
        <ele>81</ele>
        <time>2021-03-28T10:06:23Z</time>
      </trkpt>
      <trkpt lat="42.77582" lon="2.71871">
        <ele>81.1</ele>
        <time>2021-03-28T10:06:25Z</time>
      </trkpt>
      <trkpt lat="42.77582" lon="2.71871">
        <ele>81.1</ele>
        <time>2021-03-28T10:06:25Z</time>
      </trkpt>
      <trkpt lat="42.7758" lon="2.71851">
        <ele>80.9</ele>
        <time>2021-03-28T10:06:27Z</time>
      </trkpt>
      <trkpt lat="42.7758" lon="2.71851">
        <ele>80.9</ele>
        <time>2021-03-28T10:06:27Z</time>
      </trkpt>
      <trkpt lat="42.77578" lon="2.7183">
        <ele>80.4</ele>
        <time>2021-03-28T10:06:29Z</time>
      </trkpt>
      <trkpt lat="42.77578" lon="2.7183">
        <ele>80.4</ele>
        <time>2021-03-28T10:06:29Z</time>
      </trkpt>
      <trkpt lat="42.77577" lon="2.7181">
        <ele>80.5</ele>
        <time>2021-03-28T10:06:31Z</time>
      </trkpt>
      <trkpt lat="42.77577" lon="2.7181">
        <ele>80.5</ele>
        <time>2021-03-28T10:06:31Z</time>
      </trkpt>
      <trkpt lat="42.77575" lon="2.71789">
        <ele>80.6</ele>
        <time>2021-03-28T10:06:33Z</time>
      </trkpt>
      <trkpt lat="42.77575" lon="2.71789">
        <ele>80.6</ele>
        <time>2021-03-28T10:06:33Z</time>
      </trkpt>
      <trkpt lat="42.77574" lon="2.71769">
        <ele>80.7</ele>
        <time>2021-03-28T10:06:35Z</time>
      </trkpt>
      <trkpt lat="42.77574" lon="2.71769">
        <ele>80.7</ele>
        <time>2021-03-28T10:06:35Z</time>
      </trkpt>
      <trkpt lat="42.77573" lon="2.71753">
        <ele>80.8</ele>
        <time>2021-03-28T10:06:36Z</time>
      </trkpt>
      <trkpt lat="42.77573" lon="2.71753">
        <ele>80.8</ele>
        <time>2021-03-28T10:06:36Z</time>
      </trkpt>
      <trkpt lat="42.77572" lon="2.71736">
        <ele>81.4</ele>
        <time>2021-03-28T10:06:38Z</time>
      </trkpt>
      <trkpt lat="42.77572" lon="2.71736">
        <ele>81.4</ele>
        <time>2021-03-28T10:06:38Z</time>
      </trkpt>
      <trkpt lat="42.77571" lon="2.71721">
        <ele>81.9</ele>
        <time>2021-03-28T10:06:39Z</time>
      </trkpt>
      <trkpt lat="42.77571" lon="2.71721">
        <ele>81.9</ele>
        <time>2021-03-28T10:06:39Z</time>
      </trkpt>
      <trkpt lat="42.77569" lon="2.71705">
        <ele>82</ele>
        <time>2021-03-28T10:06:41Z</time>
      </trkpt>
      <trkpt lat="42.77569" lon="2.71705">
        <ele>82</ele>
        <time>2021-03-28T10:06:41Z</time>
      </trkpt>
      <trkpt lat="42.77568" lon="2.71688">
        <ele>82</ele>
        <time>2021-03-28T10:06:43Z</time>
      </trkpt>
      <trkpt lat="42.77568" lon="2.71688">
        <ele>82</ele>
        <time>2021-03-28T10:06:43Z</time>
      </trkpt>
      <trkpt lat="42.77567" lon="2.71673">
        <ele>81.7</ele>
        <time>2021-03-28T10:06:44Z</time>
      </trkpt>
      <trkpt lat="42.77567" lon="2.71673">
        <ele>81.7</ele>
        <time>2021-03-28T10:06:44Z</time>
      </trkpt>
      <trkpt lat="42.77566" lon="2.7166">
        <ele>81.5</ele>
        <time>2021-03-28T10:06:45Z</time>
      </trkpt>
      <trkpt lat="42.77566" lon="2.7166">
        <ele>81.5</ele>
        <time>2021-03-28T10:06:45Z</time>
      </trkpt>
      <trkpt lat="42.77565" lon="2.71644">
        <ele>81.1</ele>
        <time>2021-03-28T10:06:47Z</time>
      </trkpt>
      <trkpt lat="42.77565" lon="2.71644">
        <ele>81.1</ele>
        <time>2021-03-28T10:06:47Z</time>
      </trkpt>
      <trkpt lat="42.77564" lon="2.71626">
        <ele>80.5</ele>
        <time>2021-03-28T10:06:49Z</time>
      </trkpt>
      <trkpt lat="42.77564" lon="2.71626">
        <ele>80.5</ele>
        <time>2021-03-28T10:06:49Z</time>
      </trkpt>
      <trkpt lat="42.77563" lon="2.71606">
        <ele>80</ele>
        <time>2021-03-28T10:06:51Z</time>
      </trkpt>
      <trkpt lat="42.77563" lon="2.71606">
        <ele>80</ele>
        <time>2021-03-28T10:06:51Z</time>
      </trkpt>
      <trkpt lat="42.77562" lon="2.71586">
        <ele>79.8</ele>
        <time>2021-03-28T10:06:53Z</time>
      </trkpt>
      <trkpt lat="42.77562" lon="2.71586">
        <ele>79.8</ele>
        <time>2021-03-28T10:06:53Z</time>
      </trkpt>
      <trkpt lat="42.77561" lon="2.71568">
        <ele>79.6</ele>
        <time>2021-03-28T10:06:54Z</time>
      </trkpt>
      <trkpt lat="42.77561" lon="2.71568">
        <ele>79.6</ele>
        <time>2021-03-28T10:06:54Z</time>
      </trkpt>
      <trkpt lat="42.7756" lon="2.71549">
        <ele>79.4</ele>
        <time>2021-03-28T10:06:56Z</time>
      </trkpt>
      <trkpt lat="42.7756" lon="2.71549">
        <ele>79.4</ele>
        <time>2021-03-28T10:06:56Z</time>
      </trkpt>
      <trkpt lat="42.77558" lon="2.71528">
        <ele>78.8</ele>
        <time>2021-03-28T10:06:58Z</time>
      </trkpt>
      <trkpt lat="42.77558" lon="2.71528">
        <ele>78.8</ele>
        <time>2021-03-28T10:06:58Z</time>
      </trkpt>
      <trkpt lat="42.77556" lon="2.71507">
        <ele>78.2</ele>
        <time>2021-03-28T10:07:00Z</time>
      </trkpt>
      <trkpt lat="42.77556" lon="2.71507">
        <ele>78.2</ele>
        <time>2021-03-28T10:07:00Z</time>
      </trkpt>
      <trkpt lat="42.77554" lon="2.71488">
        <ele>78.1</ele>
        <time>2021-03-28T10:07:01Z</time>
      </trkpt>
      <trkpt lat="42.77554" lon="2.71488">
        <ele>78.1</ele>
        <time>2021-03-28T10:07:01Z</time>
      </trkpt>
      <trkpt lat="42.77552" lon="2.71469">
        <ele>78.1</ele>
        <time>2021-03-28T10:07:03Z</time>
      </trkpt>
      <trkpt lat="42.77552" lon="2.71469">
        <ele>78.1</ele>
        <time>2021-03-28T10:07:03Z</time>
      </trkpt>
      <trkpt lat="42.77551" lon="2.71453">
        <ele>78.1</ele>
        <time>2021-03-28T10:07:04Z</time>
      </trkpt>
      <trkpt lat="42.77551" lon="2.71453">
        <ele>78.1</ele>
        <time>2021-03-28T10:07:04Z</time>
      </trkpt>
      <trkpt lat="42.77549" lon="2.71436">
        <ele>78</ele>
        <time>2021-03-28T10:07:06Z</time>
      </trkpt>
      <trkpt lat="42.77549" lon="2.71436">
        <ele>78</ele>
        <time>2021-03-28T10:07:06Z</time>
      </trkpt>
      <trkpt lat="42.77549" lon="2.71421">
        <ele>78</ele>
        <time>2021-03-28T10:07:07Z</time>
      </trkpt>
      <trkpt lat="42.77549" lon="2.71421">
        <ele>78</ele>
        <time>2021-03-28T10:07:07Z</time>
      </trkpt>
      <trkpt lat="42.77548" lon="2.71404">
        <ele>78.1</ele>
        <time>2021-03-28T10:07:09Z</time>
      </trkpt>
      <trkpt lat="42.77548" lon="2.71404">
        <ele>78.1</ele>
        <time>2021-03-28T10:07:09Z</time>
      </trkpt>
      <trkpt lat="42.77548" lon="2.7139">
        <ele>78.3</ele>
        <time>2021-03-28T10:07:10Z</time>
      </trkpt>
      <trkpt lat="42.77548" lon="2.7139">
        <ele>78.3</ele>
        <time>2021-03-28T10:07:10Z</time>
      </trkpt>
      <trkpt lat="42.77547" lon="2.71377">
        <ele>78.6</ele>
        <time>2021-03-28T10:07:11Z</time>
      </trkpt>
      <trkpt lat="42.77547" lon="2.71377">
        <ele>78.6</ele>
        <time>2021-03-28T10:07:11Z</time>
      </trkpt>
      <trkpt lat="42.77546" lon="2.71361">
        <ele>79</ele>
        <time>2021-03-28T10:07:13Z</time>
      </trkpt>
      <trkpt lat="42.77546" lon="2.71361">
        <ele>79</ele>
        <time>2021-03-28T10:07:13Z</time>
      </trkpt>
      <trkpt lat="42.77544" lon="2.71345">
        <ele>79.5</ele>
        <time>2021-03-28T10:07:15Z</time>
      </trkpt>
      <trkpt lat="42.77544" lon="2.71345">
        <ele>79.5</ele>
        <time>2021-03-28T10:07:15Z</time>
      </trkpt>
      <trkpt lat="42.77542" lon="2.71327">
        <ele>80</ele>
        <time>2021-03-28T10:07:17Z</time>
      </trkpt>
      <trkpt lat="42.77542" lon="2.71327">
        <ele>80</ele>
        <time>2021-03-28T10:07:17Z</time>
      </trkpt>
      <trkpt lat="42.77541" lon="2.71308">
        <ele>80.1</ele>
        <time>2021-03-28T10:07:19Z</time>
      </trkpt>
      <trkpt lat="42.77541" lon="2.71308">
        <ele>80.1</ele>
        <time>2021-03-28T10:07:19Z</time>
      </trkpt>
      <trkpt lat="42.77539" lon="2.71288">
        <ele>79.7</ele>
        <time>2021-03-28T10:07:21Z</time>
      </trkpt>
      <trkpt lat="42.77539" lon="2.71288">
        <ele>79.7</ele>
        <time>2021-03-28T10:07:21Z</time>
      </trkpt>
      <trkpt lat="42.77538" lon="2.71272">
        <ele>79.6</ele>
        <time>2021-03-28T10:07:22Z</time>
      </trkpt>
      <trkpt lat="42.77538" lon="2.71272">
        <ele>79.6</ele>
        <time>2021-03-28T10:07:22Z</time>
      </trkpt>
      <trkpt lat="42.77536" lon="2.71253">
        <ele>79.8</ele>
        <time>2021-03-28T10:07:24Z</time>
      </trkpt>
      <trkpt lat="42.77536" lon="2.71253">
        <ele>79.8</ele>
        <time>2021-03-28T10:07:24Z</time>
      </trkpt>
      <trkpt lat="42.77535" lon="2.71238">
        <ele>80.3</ele>
        <time>2021-03-28T10:07:25Z</time>
      </trkpt>
      <trkpt lat="42.77535" lon="2.71238">
        <ele>80.3</ele>
        <time>2021-03-28T10:07:25Z</time>
      </trkpt>
      <trkpt lat="42.77534" lon="2.71222">
        <ele>80.8</ele>
        <time>2021-03-28T10:07:27Z</time>
      </trkpt>
      <trkpt lat="42.77534" lon="2.71222">
        <ele>80.8</ele>
        <time>2021-03-28T10:07:27Z</time>
      </trkpt>
      <trkpt lat="42.77533" lon="2.71207">
        <ele>80.5</ele>
        <time>2021-03-28T10:07:28Z</time>
      </trkpt>
      <trkpt lat="42.77533" lon="2.71207">
        <ele>80.5</ele>
        <time>2021-03-28T10:07:28Z</time>
      </trkpt>
      <trkpt lat="42.77532" lon="2.71192">
        <ele>80.1</ele>
        <time>2021-03-28T10:07:30Z</time>
      </trkpt>
      <trkpt lat="42.77532" lon="2.71192">
        <ele>80.1</ele>
        <time>2021-03-28T10:07:30Z</time>
      </trkpt>
      <trkpt lat="42.7753" lon="2.71175">
        <ele>80</ele>
        <time>2021-03-28T10:07:32Z</time>
      </trkpt>
      <trkpt lat="42.7753" lon="2.71175">
        <ele>80</ele>
        <time>2021-03-28T10:07:32Z</time>
      </trkpt>
      <trkpt lat="42.77528" lon="2.71161">
        <ele>80</ele>
        <time>2021-03-28T10:07:33Z</time>
      </trkpt>
      <trkpt lat="42.77528" lon="2.71161">
        <ele>80</ele>
        <time>2021-03-28T10:07:33Z</time>
      </trkpt>
      <trkpt lat="42.77527" lon="2.71148">
        <ele>80.1</ele>
        <time>2021-03-28T10:07:34Z</time>
      </trkpt>
      <trkpt lat="42.77527" lon="2.71148">
        <ele>80.1</ele>
        <time>2021-03-28T10:07:34Z</time>
      </trkpt>
      <trkpt lat="42.77525" lon="2.71134">
        <ele>80.2</ele>
        <time>2021-03-28T10:07:36Z</time>
      </trkpt>
      <trkpt lat="42.77525" lon="2.71134">
        <ele>80.2</ele>
        <time>2021-03-28T10:07:36Z</time>
      </trkpt>
      <trkpt lat="42.77524" lon="2.71121">
        <ele>80.3</ele>
        <time>2021-03-28T10:07:37Z</time>
      </trkpt>
      <trkpt lat="42.77524" lon="2.71121">
        <ele>80.3</ele>
        <time>2021-03-28T10:07:37Z</time>
      </trkpt>
      <trkpt lat="42.77522" lon="2.71106">
        <ele>80.4</ele>
        <time>2021-03-28T10:07:39Z</time>
      </trkpt>
      <trkpt lat="42.77522" lon="2.71106">
        <ele>80.4</ele>
        <time>2021-03-28T10:07:39Z</time>
      </trkpt>
      <trkpt lat="42.77521" lon="2.71093">
        <ele>80.3</ele>
        <time>2021-03-28T10:07:40Z</time>
      </trkpt>
      <trkpt lat="42.77521" lon="2.71093">
        <ele>80.3</ele>
        <time>2021-03-28T10:07:40Z</time>
      </trkpt>
      <trkpt lat="42.77519" lon="2.71077">
        <ele>80.3</ele>
        <time>2021-03-28T10:07:42Z</time>
      </trkpt>
      <trkpt lat="42.77519" lon="2.71077">
        <ele>80.3</ele>
        <time>2021-03-28T10:07:42Z</time>
      </trkpt>
      <trkpt lat="42.77518" lon="2.71063">
        <ele>80.4</ele>
        <time>2021-03-28T10:07:43Z</time>
      </trkpt>
      <trkpt lat="42.77518" lon="2.71063">
        <ele>80.4</ele>
        <time>2021-03-28T10:07:43Z</time>
      </trkpt>
      <trkpt lat="42.77516" lon="2.71047">
        <ele>80.1</ele>
        <time>2021-03-28T10:07:45Z</time>
      </trkpt>
      <trkpt lat="42.77516" lon="2.71047">
        <ele>80.1</ele>
        <time>2021-03-28T10:07:45Z</time>
      </trkpt>
      <trkpt lat="42.77513" lon="2.7103">
        <ele>79.6</ele>
        <time>2021-03-28T10:07:47Z</time>
      </trkpt>
      <trkpt lat="42.77513" lon="2.7103">
        <ele>79.6</ele>
        <time>2021-03-28T10:07:47Z</time>
      </trkpt>
      <trkpt lat="42.77512" lon="2.71012">
        <ele>79.6</ele>
        <time>2021-03-28T10:07:49Z</time>
      </trkpt>
      <trkpt lat="42.77512" lon="2.71012">
        <ele>79.6</ele>
        <time>2021-03-28T10:07:49Z</time>
      </trkpt>
      <trkpt lat="42.77513" lon="2.70996">
        <ele>79.5</ele>
        <time>2021-03-28T10:07:51Z</time>
      </trkpt>
      <trkpt lat="42.77513" lon="2.70996">
        <ele>79.5</ele>
        <time>2021-03-28T10:07:51Z</time>
      </trkpt>
      <trkpt lat="42.77515" lon="2.70981">
        <ele>79.5</ele>
        <time>2021-03-28T10:07:53Z</time>
      </trkpt>
      <trkpt lat="42.77515" lon="2.70981">
        <ele>79.5</ele>
        <time>2021-03-28T10:07:53Z</time>
      </trkpt>
      <trkpt lat="42.77517" lon="2.70968">
        <ele>79.5</ele>
        <time>2021-03-28T10:07:54Z</time>
      </trkpt>
      <trkpt lat="42.77517" lon="2.70968">
        <ele>79.5</ele>
        <time>2021-03-28T10:07:54Z</time>
      </trkpt>
      <trkpt lat="42.77518" lon="2.70953">
        <ele>79</ele>
        <time>2021-03-28T10:07:56Z</time>
      </trkpt>
      <trkpt lat="42.77518" lon="2.70953">
        <ele>79</ele>
        <time>2021-03-28T10:07:56Z</time>
      </trkpt>
      <trkpt lat="42.77517" lon="2.70941">
        <ele>78.8</ele>
        <time>2021-03-28T10:07:57Z</time>
      </trkpt>
      <trkpt lat="42.77517" lon="2.70941">
        <ele>78.8</ele>
        <time>2021-03-28T10:07:57Z</time>
      </trkpt>
      <trkpt lat="42.77517" lon="2.70925">
        <ele>79.7</ele>
        <time>2021-03-28T10:07:59Z</time>
      </trkpt>
      <trkpt lat="42.77517" lon="2.70925">
        <ele>79.7</ele>
        <time>2021-03-28T10:07:59Z</time>
      </trkpt>
      <trkpt lat="42.77518" lon="2.70908">
        <ele>79.9</ele>
        <time>2021-03-28T10:08:01Z</time>
      </trkpt>
      <trkpt lat="42.77518" lon="2.70908">
        <ele>79.9</ele>
        <time>2021-03-28T10:08:01Z</time>
      </trkpt>
      <trkpt lat="42.77519" lon="2.70893">
        <ele>79.4</ele>
        <time>2021-03-28T10:08:02Z</time>
      </trkpt>
      <trkpt lat="42.77519" lon="2.70893">
        <ele>79.4</ele>
        <time>2021-03-28T10:08:02Z</time>
      </trkpt>
      <trkpt lat="42.7752" lon="2.70875">
        <ele>78.1</ele>
        <time>2021-03-28T10:08:04Z</time>
      </trkpt>
      <trkpt lat="42.7752" lon="2.70875">
        <ele>78.1</ele>
        <time>2021-03-28T10:08:04Z</time>
      </trkpt>
      <trkpt lat="42.77524" lon="2.70854">
        <ele>76.5</ele>
        <time>2021-03-28T10:08:06Z</time>
      </trkpt>
      <trkpt lat="42.77524" lon="2.70854">
        <ele>76.5</ele>
        <time>2021-03-28T10:08:06Z</time>
      </trkpt>
      <trkpt lat="42.77526" lon="2.70832">
        <ele>75.4</ele>
        <time>2021-03-28T10:08:08Z</time>
      </trkpt>
      <trkpt lat="42.77526" lon="2.70832">
        <ele>75.4</ele>
        <time>2021-03-28T10:08:08Z</time>
      </trkpt>
      <trkpt lat="42.77527" lon="2.70813">
        <ele>74.6</ele>
        <time>2021-03-28T10:08:09Z</time>
      </trkpt>
      <trkpt lat="42.77527" lon="2.70813">
        <ele>74.6</ele>
        <time>2021-03-28T10:08:09Z</time>
      </trkpt>
      <trkpt lat="42.77526" lon="2.70792">
        <ele>74.1</ele>
        <time>2021-03-28T10:08:11Z</time>
      </trkpt>
      <trkpt lat="42.77526" lon="2.70792">
        <ele>74.1</ele>
        <time>2021-03-28T10:08:11Z</time>
      </trkpt>
      <trkpt lat="42.77523" lon="2.70769">
        <ele>73.6</ele>
        <time>2021-03-28T10:08:13Z</time>
      </trkpt>
      <trkpt lat="42.77523" lon="2.70769">
        <ele>73.6</ele>
        <time>2021-03-28T10:08:13Z</time>
      </trkpt>
      <trkpt lat="42.77518" lon="2.70747">
        <ele>73.4</ele>
        <time>2021-03-28T10:08:15Z</time>
      </trkpt>
      <trkpt lat="42.77518" lon="2.70747">
        <ele>73.4</ele>
        <time>2021-03-28T10:08:15Z</time>
      </trkpt>
      <trkpt lat="42.77513" lon="2.70724">
        <ele>72.3</ele>
        <time>2021-03-28T10:08:17Z</time>
      </trkpt>
      <trkpt lat="42.77513" lon="2.70724">
        <ele>72.3</ele>
        <time>2021-03-28T10:08:17Z</time>
      </trkpt>
      <trkpt lat="42.77508" lon="2.70702">
        <ele>72.9</ele>
        <time>2021-03-28T10:08:19Z</time>
      </trkpt>
      <trkpt lat="42.77508" lon="2.70702">
        <ele>72.9</ele>
        <time>2021-03-28T10:08:19Z</time>
      </trkpt>
      <trkpt lat="42.77501" lon="2.7068">
        <ele>72.8</ele>
        <time>2021-03-28T10:08:21Z</time>
      </trkpt>
      <trkpt lat="42.77501" lon="2.7068">
        <ele>72.8</ele>
        <time>2021-03-28T10:08:21Z</time>
      </trkpt>
      <trkpt lat="42.77495" lon="2.70658">
        <ele>74.1</ele>
        <time>2021-03-28T10:08:23Z</time>
      </trkpt>
      <trkpt lat="42.77495" lon="2.70658">
        <ele>74.1</ele>
        <time>2021-03-28T10:08:23Z</time>
      </trkpt>
      <trkpt lat="42.77489" lon="2.70636">
        <ele>75.8</ele>
        <time>2021-03-28T10:08:25Z</time>
      </trkpt>
      <trkpt lat="42.77489" lon="2.70636">
        <ele>75.8</ele>
        <time>2021-03-28T10:08:25Z</time>
      </trkpt>
      <trkpt lat="42.77484" lon="2.70618">
        <ele>74.8</ele>
        <time>2021-03-28T10:08:26Z</time>
      </trkpt>
      <trkpt lat="42.77484" lon="2.70618">
        <ele>74.8</ele>
        <time>2021-03-28T10:08:26Z</time>
      </trkpt>
      <trkpt lat="42.7748" lon="2.70602">
        <ele>73.6</ele>
        <time>2021-03-28T10:08:27Z</time>
      </trkpt>
      <trkpt lat="42.7748" lon="2.70602">
        <ele>73.6</ele>
        <time>2021-03-28T10:08:27Z</time>
      </trkpt>
      <trkpt lat="42.77475" lon="2.70585">
        <ele>72.8</ele>
        <time>2021-03-28T10:08:29Z</time>
      </trkpt>
      <trkpt lat="42.77475" lon="2.70585">
        <ele>72.8</ele>
        <time>2021-03-28T10:08:29Z</time>
      </trkpt>
      <trkpt lat="42.7747" lon="2.70568">
        <ele>73</ele>
        <time>2021-03-28T10:08:31Z</time>
      </trkpt>
      <trkpt lat="42.7747" lon="2.70568">
        <ele>73</ele>
        <time>2021-03-28T10:08:31Z</time>
      </trkpt>
      <trkpt lat="42.77467" lon="2.70551">
        <ele>73.2</ele>
        <time>2021-03-28T10:08:33Z</time>
      </trkpt>
      <trkpt lat="42.77467" lon="2.70551">
        <ele>73.2</ele>
        <time>2021-03-28T10:08:33Z</time>
      </trkpt>
      <trkpt lat="42.77464" lon="2.70537">
        <ele>73.1</ele>
        <time>2021-03-28T10:08:34Z</time>
      </trkpt>
      <trkpt lat="42.77464" lon="2.70537">
        <ele>73.1</ele>
        <time>2021-03-28T10:08:34Z</time>
      </trkpt>
      <trkpt lat="42.77463" lon="2.70522">
        <ele>73.1</ele>
        <time>2021-03-28T10:08:36Z</time>
      </trkpt>
      <trkpt lat="42.77463" lon="2.70522">
        <ele>73.1</ele>
        <time>2021-03-28T10:08:36Z</time>
      </trkpt>
      <trkpt lat="42.77461" lon="2.70506">
        <ele>73.5</ele>
        <time>2021-03-28T10:08:38Z</time>
      </trkpt>
      <trkpt lat="42.77461" lon="2.70506">
        <ele>73.5</ele>
        <time>2021-03-28T10:08:38Z</time>
      </trkpt>
      <trkpt lat="42.7746" lon="2.70488">
        <ele>73.2</ele>
        <time>2021-03-28T10:08:40Z</time>
      </trkpt>
      <trkpt lat="42.7746" lon="2.70488">
        <ele>73.2</ele>
        <time>2021-03-28T10:08:40Z</time>
      </trkpt>
      <trkpt lat="42.77459" lon="2.70474">
        <ele>72.9</ele>
        <time>2021-03-28T10:08:41Z</time>
      </trkpt>
      <trkpt lat="42.77459" lon="2.70474">
        <ele>72.9</ele>
        <time>2021-03-28T10:08:41Z</time>
      </trkpt>
      <trkpt lat="42.77457" lon="2.70458">
        <ele>73.9</ele>
        <time>2021-03-28T10:08:43Z</time>
      </trkpt>
      <trkpt lat="42.77457" lon="2.70458">
        <ele>73.9</ele>
        <time>2021-03-28T10:08:43Z</time>
      </trkpt>
      <trkpt lat="42.77455" lon="2.70442">
        <ele>75.2</ele>
        <time>2021-03-28T10:08:45Z</time>
      </trkpt>
      <trkpt lat="42.77455" lon="2.70442">
        <ele>75.2</ele>
        <time>2021-03-28T10:08:45Z</time>
      </trkpt>
      <trkpt lat="42.77452" lon="2.7043">
        <ele>75</ele>
        <time>2021-03-28T10:08:46Z</time>
      </trkpt>
      <trkpt lat="42.77452" lon="2.7043">
        <ele>75</ele>
        <time>2021-03-28T10:08:46Z</time>
      </trkpt>
      <trkpt lat="42.77448" lon="2.70418">
        <ele>75.1</ele>
        <time>2021-03-28T10:08:48Z</time>
      </trkpt>
      <trkpt lat="42.77448" lon="2.70418">
        <ele>75.1</ele>
        <time>2021-03-28T10:08:48Z</time>
      </trkpt>
      <trkpt lat="42.77444" lon="2.70407">
        <ele>75.3</ele>
        <time>2021-03-28T10:08:49Z</time>
      </trkpt>
      <trkpt lat="42.77444" lon="2.70407">
        <ele>75.3</ele>
        <time>2021-03-28T10:08:49Z</time>
      </trkpt>
      <trkpt lat="42.7744" lon="2.70396">
        <ele>76.5</ele>
        <time>2021-03-28T10:08:51Z</time>
      </trkpt>
      <trkpt lat="42.7744" lon="2.70396">
        <ele>76.5</ele>
        <time>2021-03-28T10:08:51Z</time>
      </trkpt>
      <trkpt lat="42.77437" lon="2.70387">
        <ele>77.3</ele>
        <time>2021-03-28T10:08:52Z</time>
      </trkpt>
      <trkpt lat="42.77437" lon="2.70387">
        <ele>77.3</ele>
        <time>2021-03-28T10:08:52Z</time>
      </trkpt>
      <trkpt lat="42.77434" lon="2.70378">
        <ele>77.3</ele>
        <time>2021-03-28T10:08:53Z</time>
      </trkpt>
      <trkpt lat="42.77434" lon="2.70378">
        <ele>77.3</ele>
        <time>2021-03-28T10:08:53Z</time>
      </trkpt>
      <trkpt lat="42.7743" lon="2.70369">
        <ele>76</ele>
        <time>2021-03-28T10:08:55Z</time>
      </trkpt>
      <trkpt lat="42.7743" lon="2.70369">
        <ele>76</ele>
        <time>2021-03-28T10:08:55Z</time>
      </trkpt>
      <trkpt lat="42.77426" lon="2.7036">
        <ele>73.6</ele>
        <time>2021-03-28T10:08:57Z</time>
      </trkpt>
      <trkpt lat="42.77426" lon="2.7036">
        <ele>73.6</ele>
        <time>2021-03-28T10:08:57Z</time>
      </trkpt>
      <trkpt lat="42.77421" lon="2.70351">
        <ele>73.7</ele>
        <time>2021-03-28T10:08:59Z</time>
      </trkpt>
      <trkpt lat="42.77421" lon="2.70351">
        <ele>73.7</ele>
        <time>2021-03-28T10:08:59Z</time>
      </trkpt>
      <trkpt lat="42.77418" lon="2.70344">
        <ele>73.9</ele>
        <time>2021-03-28T10:09:00Z</time>
      </trkpt>
      <trkpt lat="42.77418" lon="2.70344">
        <ele>73.9</ele>
        <time>2021-03-28T10:09:00Z</time>
      </trkpt>
      <trkpt lat="42.77415" lon="2.70337">
        <ele>75</ele>
        <time>2021-03-28T10:09:01Z</time>
      </trkpt>
      <trkpt lat="42.77415" lon="2.70337">
        <ele>75</ele>
        <time>2021-03-28T10:09:01Z</time>
      </trkpt>
      <trkpt lat="42.77412" lon="2.7033">
        <ele>76</ele>
        <time>2021-03-28T10:09:03Z</time>
      </trkpt>
      <trkpt lat="42.77412" lon="2.7033">
        <ele>76</ele>
        <time>2021-03-28T10:09:03Z</time>
      </trkpt>
      <trkpt lat="42.77409" lon="2.70324">
        <ele>76</ele>
        <time>2021-03-28T10:09:04Z</time>
      </trkpt>
      <trkpt lat="42.77409" lon="2.70324">
        <ele>76</ele>
        <time>2021-03-28T10:09:04Z</time>
      </trkpt>
      <trkpt lat="42.77407" lon="2.70318">
        <ele>75.4</ele>
        <time>2021-03-28T10:09:06Z</time>
      </trkpt>
      <trkpt lat="42.77407" lon="2.70318">
        <ele>75.4</ele>
        <time>2021-03-28T10:09:06Z</time>
      </trkpt>
      <trkpt lat="42.77403" lon="2.70312">
        <ele>74.9</ele>
        <time>2021-03-28T10:09:08Z</time>
      </trkpt>
      <trkpt lat="42.77403" lon="2.70312">
        <ele>74.9</ele>
        <time>2021-03-28T10:09:08Z</time>
      </trkpt>
      <trkpt lat="42.77401" lon="2.70307">
        <ele>73.7</ele>
        <time>2021-03-28T10:09:10Z</time>
      </trkpt>
      <trkpt lat="42.77401" lon="2.70307">
        <ele>73.7</ele>
        <time>2021-03-28T10:09:10Z</time>
      </trkpt>
      <trkpt lat="42.774" lon="2.70303">
        <ele>73.1</ele>
        <time>2021-03-28T10:09:11Z</time>
      </trkpt>
      <trkpt lat="42.774" lon="2.70303">
        <ele>73.1</ele>
        <time>2021-03-28T10:09:11Z</time>
      </trkpt>
      <trkpt lat="42.774" lon="2.703">
        <ele>72.9</ele>
        <time>2021-03-28T10:09:13Z</time>
      </trkpt>
      <trkpt lat="42.774" lon="2.703">
        <ele>72.9</ele>
        <time>2021-03-28T10:09:13Z</time>
      </trkpt>
      <trkpt lat="42.77397" lon="2.70296">
        <ele>72.8</ele>
        <time>2021-03-28T10:09:16Z</time>
      </trkpt>
      <trkpt lat="42.77397" lon="2.70296">
        <ele>72.8</ele>
        <time>2021-03-28T10:09:16Z</time>
      </trkpt>
      <trkpt lat="42.77397" lon="2.70296">
        <ele>72.8</ele>
        <time>2021-03-28T10:09:17Z</time>
      </trkpt>
      <trkpt lat="42.77397" lon="2.70296">
        <ele>72.8</ele>
        <time>2021-03-28T10:09:17Z</time>
      </trkpt>
      <trkpt lat="42.77395" lon="2.70291">
        <ele>72.7</ele>
        <time>2021-03-28T10:09:32Z</time>
      </trkpt>
      <trkpt lat="42.77395" lon="2.70291">
        <ele>72.7</ele>
        <time>2021-03-28T10:09:32Z</time>
      </trkpt>
      <trkpt lat="42.77394" lon="2.70291">
        <ele>72.7</ele>
        <time>2021-03-28T10:09:34Z</time>
      </trkpt>
      <trkpt lat="42.77394" lon="2.70291">
        <ele>72.7</ele>
        <time>2021-03-28T10:09:34Z</time>
      </trkpt>
      <trkpt lat="42.77394" lon="2.7029">
        <ele>72.6</ele>
        <time>2021-03-28T10:09:35Z</time>
      </trkpt>
      <trkpt lat="42.77394" lon="2.7029">
        <ele>72.6</ele>
        <time>2021-03-28T10:09:35Z</time>
      </trkpt>
      <trkpt lat="42.77394" lon="2.70287">
        <ele>72.4</ele>
        <time>2021-03-28T10:09:37Z</time>
      </trkpt>
      <trkpt lat="42.77394" lon="2.70287">
        <ele>72.4</ele>
        <time>2021-03-28T10:09:37Z</time>
      </trkpt>
      <trkpt lat="42.77393" lon="2.70282">
        <ele>72.2</ele>
        <time>2021-03-28T10:09:39Z</time>
      </trkpt>
      <trkpt lat="42.77393" lon="2.70282">
        <ele>72.2</ele>
        <time>2021-03-28T10:09:39Z</time>
      </trkpt>
      <trkpt lat="42.77391" lon="2.70277">
        <ele>71.9</ele>
        <time>2021-03-28T10:09:41Z</time>
      </trkpt>
      <trkpt lat="42.77391" lon="2.70277">
        <ele>71.9</ele>
        <time>2021-03-28T10:09:41Z</time>
      </trkpt>
      <trkpt lat="42.77388" lon="2.7027">
        <ele>72.1</ele>
        <time>2021-03-28T10:09:43Z</time>
      </trkpt>
      <trkpt lat="42.77388" lon="2.7027">
        <ele>72.1</ele>
        <time>2021-03-28T10:09:43Z</time>
      </trkpt>
      <trkpt lat="42.77383" lon="2.70264">
        <ele>72.7</ele>
        <time>2021-03-28T10:09:45Z</time>
      </trkpt>
      <trkpt lat="42.77383" lon="2.70264">
        <ele>72.7</ele>
        <time>2021-03-28T10:09:45Z</time>
      </trkpt>
      <trkpt lat="42.77379" lon="2.70258">
        <ele>73</ele>
        <time>2021-03-28T10:09:46Z</time>
      </trkpt>
      <trkpt lat="42.77379" lon="2.70258">
        <ele>73</ele>
        <time>2021-03-28T10:09:46Z</time>
      </trkpt>
      <trkpt lat="42.77374" lon="2.70252">
        <ele>73.2</ele>
        <time>2021-03-28T10:09:48Z</time>
      </trkpt>
      <trkpt lat="42.77374" lon="2.70252">
        <ele>73.2</ele>
        <time>2021-03-28T10:09:48Z</time>
      </trkpt>
      <trkpt lat="42.7737" lon="2.70246">
        <ele>73.2</ele>
        <time>2021-03-28T10:09:49Z</time>
      </trkpt>
      <trkpt lat="42.7737" lon="2.70246">
        <ele>73.2</ele>
        <time>2021-03-28T10:09:49Z</time>
      </trkpt>
      <trkpt lat="42.77366" lon="2.70238">
        <ele>73.3</ele>
        <time>2021-03-28T10:09:51Z</time>
      </trkpt>
      <trkpt lat="42.77366" lon="2.70238">
        <ele>73.3</ele>
        <time>2021-03-28T10:09:51Z</time>
      </trkpt>
      <trkpt lat="42.77362" lon="2.70232">
        <ele>73.3</ele>
        <time>2021-03-28T10:09:52Z</time>
      </trkpt>
      <trkpt lat="42.77362" lon="2.70232">
        <ele>73.3</ele>
        <time>2021-03-28T10:09:52Z</time>
      </trkpt>
      <trkpt lat="42.77358" lon="2.70225">
        <ele>73.6</ele>
        <time>2021-03-28T10:09:53Z</time>
      </trkpt>
      <trkpt lat="42.77358" lon="2.70225">
        <ele>73.6</ele>
        <time>2021-03-28T10:09:53Z</time>
      </trkpt>
      <trkpt lat="42.77354" lon="2.70218">
        <ele>73.9</ele>
        <time>2021-03-28T10:09:55Z</time>
      </trkpt>
      <trkpt lat="42.77354" lon="2.70218">
        <ele>73.9</ele>
        <time>2021-03-28T10:09:55Z</time>
      </trkpt>
      <trkpt lat="42.7735" lon="2.7021">
        <ele>74.1</ele>
        <time>2021-03-28T10:09:57Z</time>
      </trkpt>
      <trkpt lat="42.7735" lon="2.7021">
        <ele>74.1</ele>
        <time>2021-03-28T10:09:57Z</time>
      </trkpt>
      <trkpt lat="42.77345" lon="2.702">
        <ele>73.9</ele>
        <time>2021-03-28T10:09:59Z</time>
      </trkpt>
      <trkpt lat="42.77345" lon="2.702">
        <ele>73.9</ele>
        <time>2021-03-28T10:09:59Z</time>
      </trkpt>
      <trkpt lat="42.77341" lon="2.70191">
        <ele>73.7</ele>
        <time>2021-03-28T10:10:01Z</time>
      </trkpt>
      <trkpt lat="42.77341" lon="2.70191">
        <ele>73.7</ele>
        <time>2021-03-28T10:10:01Z</time>
      </trkpt>
      <trkpt lat="42.77337" lon="2.70182">
        <ele>73.9</ele>
        <time>2021-03-28T10:10:02Z</time>
      </trkpt>
      <trkpt lat="42.77337" lon="2.70182">
        <ele>73.9</ele>
        <time>2021-03-28T10:10:02Z</time>
      </trkpt>
      <trkpt lat="42.77333" lon="2.70175">
        <ele>74</ele>
        <time>2021-03-28T10:10:03Z</time>
      </trkpt>
      <trkpt lat="42.77333" lon="2.70175">
        <ele>74</ele>
        <time>2021-03-28T10:10:03Z</time>
      </trkpt>
      <trkpt lat="42.77329" lon="2.70168">
        <ele>74.2</ele>
        <time>2021-03-28T10:10:05Z</time>
      </trkpt>
      <trkpt lat="42.77329" lon="2.70168">
        <ele>74.2</ele>
        <time>2021-03-28T10:10:05Z</time>
      </trkpt>
      <trkpt lat="42.77323" lon="2.7016">
        <ele>74.4</ele>
        <time>2021-03-28T10:10:07Z</time>
      </trkpt>
      <trkpt lat="42.77323" lon="2.7016">
        <ele>74.4</ele>
        <time>2021-03-28T10:10:07Z</time>
      </trkpt>
      <trkpt lat="42.77317" lon="2.70154">
        <ele>74.6</ele>
        <time>2021-03-28T10:10:08Z</time>
      </trkpt>
      <trkpt lat="42.77317" lon="2.70154">
        <ele>74.6</ele>
        <time>2021-03-28T10:10:08Z</time>
      </trkpt>
      <trkpt lat="42.77311" lon="2.70147">
        <ele>74.8</ele>
        <time>2021-03-28T10:10:10Z</time>
      </trkpt>
      <trkpt lat="42.77311" lon="2.70147">
        <ele>74.8</ele>
        <time>2021-03-28T10:10:10Z</time>
      </trkpt>
      <trkpt lat="42.77305" lon="2.70141">
        <ele>75</ele>
        <time>2021-03-28T10:10:11Z</time>
      </trkpt>
      <trkpt lat="42.77305" lon="2.70141">
        <ele>75</ele>
        <time>2021-03-28T10:10:11Z</time>
      </trkpt>
      <trkpt lat="42.77297" lon="2.70135">
        <ele>75</ele>
        <time>2021-03-28T10:10:13Z</time>
      </trkpt>
      <trkpt lat="42.77297" lon="2.70135">
        <ele>75</ele>
        <time>2021-03-28T10:10:13Z</time>
      </trkpt>
      <trkpt lat="42.7729" lon="2.7013">
        <ele>75</ele>
        <time>2021-03-28T10:10:14Z</time>
      </trkpt>
      <trkpt lat="42.7729" lon="2.7013">
        <ele>75</ele>
        <time>2021-03-28T10:10:14Z</time>
      </trkpt>
      <trkpt lat="42.77284" lon="2.70124">
        <ele>75</ele>
        <time>2021-03-28T10:10:16Z</time>
      </trkpt>
      <trkpt lat="42.77284" lon="2.70124">
        <ele>75</ele>
        <time>2021-03-28T10:10:16Z</time>
      </trkpt>
      <trkpt lat="42.77278" lon="2.70118">
        <ele>75</ele>
        <time>2021-03-28T10:10:18Z</time>
      </trkpt>
      <trkpt lat="42.77278" lon="2.70118">
        <ele>75</ele>
        <time>2021-03-28T10:10:18Z</time>
      </trkpt>
      <trkpt lat="42.77272" lon="2.70112">
        <ele>75.2</ele>
        <time>2021-03-28T10:10:20Z</time>
      </trkpt>
      <trkpt lat="42.77272" lon="2.70112">
        <ele>75.2</ele>
        <time>2021-03-28T10:10:20Z</time>
      </trkpt>
      <trkpt lat="42.77267" lon="2.70106">
        <ele>75.3</ele>
        <time>2021-03-28T10:10:21Z</time>
      </trkpt>
      <trkpt lat="42.77267" lon="2.70106">
        <ele>75.3</ele>
        <time>2021-03-28T10:10:21Z</time>
      </trkpt>
      <trkpt lat="42.77263" lon="2.70098">
        <ele>75.3</ele>
        <time>2021-03-28T10:10:23Z</time>
      </trkpt>
      <trkpt lat="42.77263" lon="2.70098">
        <ele>75.3</ele>
        <time>2021-03-28T10:10:23Z</time>
      </trkpt>
      <trkpt lat="42.77259" lon="2.70089">
        <ele>75.1</ele>
        <time>2021-03-28T10:10:25Z</time>
      </trkpt>
      <trkpt lat="42.77259" lon="2.70089">
        <ele>75.1</ele>
        <time>2021-03-28T10:10:25Z</time>
      </trkpt>
      <trkpt lat="42.77256" lon="2.70082">
        <ele>75</ele>
        <time>2021-03-28T10:10:26Z</time>
      </trkpt>
      <trkpt lat="42.77256" lon="2.70082">
        <ele>75</ele>
        <time>2021-03-28T10:10:26Z</time>
      </trkpt>
      <trkpt lat="42.77253" lon="2.7007">
        <ele>74.9</ele>
        <time>2021-03-28T10:10:28Z</time>
      </trkpt>
      <trkpt lat="42.77253" lon="2.7007">
        <ele>74.9</ele>
        <time>2021-03-28T10:10:28Z</time>
      </trkpt>
      <trkpt lat="42.77251" lon="2.70061">
        <ele>74.9</ele>
        <time>2021-03-28T10:10:29Z</time>
      </trkpt>
      <trkpt lat="42.77251" lon="2.70061">
        <ele>74.9</ele>
        <time>2021-03-28T10:10:29Z</time>
      </trkpt>
      <trkpt lat="42.77249" lon="2.70051">
        <ele>74.8</ele>
        <time>2021-03-28T10:10:31Z</time>
      </trkpt>
      <trkpt lat="42.77249" lon="2.70051">
        <ele>74.8</ele>
        <time>2021-03-28T10:10:31Z</time>
      </trkpt>
      <trkpt lat="42.77247" lon="2.70042">
        <ele>74.5</ele>
        <time>2021-03-28T10:10:32Z</time>
      </trkpt>
      <trkpt lat="42.77247" lon="2.70042">
        <ele>74.5</ele>
        <time>2021-03-28T10:10:32Z</time>
      </trkpt>
      <trkpt lat="42.77245" lon="2.70032">
        <ele>74.3</ele>
        <time>2021-03-28T10:10:34Z</time>
      </trkpt>
      <trkpt lat="42.77245" lon="2.70032">
        <ele>74.3</ele>
        <time>2021-03-28T10:10:34Z</time>
      </trkpt>
      <trkpt lat="42.77243" lon="2.70023">
        <ele>74.4</ele>
        <time>2021-03-28T10:10:35Z</time>
      </trkpt>
      <trkpt lat="42.77243" lon="2.70023">
        <ele>74.4</ele>
        <time>2021-03-28T10:10:35Z</time>
      </trkpt>
      <trkpt lat="42.77241" lon="2.70013">
        <ele>74.7</ele>
        <time>2021-03-28T10:10:37Z</time>
      </trkpt>
      <trkpt lat="42.77241" lon="2.70013">
        <ele>74.7</ele>
        <time>2021-03-28T10:10:37Z</time>
      </trkpt>
      <trkpt lat="42.77239" lon="2.70004">
        <ele>74.9</ele>
        <time>2021-03-28T10:10:38Z</time>
      </trkpt>
      <trkpt lat="42.77239" lon="2.70004">
        <ele>74.9</ele>
        <time>2021-03-28T10:10:38Z</time>
      </trkpt>
      <trkpt lat="42.77237" lon="2.69996">
        <ele>75.1</ele>
        <time>2021-03-28T10:10:40Z</time>
      </trkpt>
      <trkpt lat="42.77237" lon="2.69996">
        <ele>75.1</ele>
        <time>2021-03-28T10:10:40Z</time>
      </trkpt>
      <trkpt lat="42.77237" lon="2.69989">
        <ele>75.4</ele>
        <time>2021-03-28T10:10:42Z</time>
      </trkpt>
      <trkpt lat="42.77237" lon="2.69989">
        <ele>75.4</ele>
        <time>2021-03-28T10:10:42Z</time>
      </trkpt>
      <trkpt lat="42.77236" lon="2.69984">
        <ele>75.6</ele>
        <time>2021-03-28T10:10:43Z</time>
      </trkpt>
      <trkpt lat="42.77236" lon="2.69984">
        <ele>75.6</ele>
        <time>2021-03-28T10:10:43Z</time>
      </trkpt>
      <trkpt lat="42.77237" lon="2.69979">
        <ele>75.8</ele>
        <time>2021-03-28T10:10:45Z</time>
      </trkpt>
      <trkpt lat="42.77237" lon="2.69979">
        <ele>75.8</ele>
        <time>2021-03-28T10:10:45Z</time>
      </trkpt>
      <trkpt lat="42.77237" lon="2.69975">
        <ele>75.9</ele>
        <time>2021-03-28T10:10:47Z</time>
      </trkpt>
      <trkpt lat="42.77237" lon="2.69975">
        <ele>75.9</ele>
        <time>2021-03-28T10:10:47Z</time>
      </trkpt>
      <trkpt lat="42.77238" lon="2.69972">
        <ele>76</ele>
        <time>2021-03-28T10:10:48Z</time>
      </trkpt>
      <trkpt lat="42.77238" lon="2.69972">
        <ele>76</ele>
        <time>2021-03-28T10:10:48Z</time>
      </trkpt>
      <trkpt lat="42.77239" lon="2.69969">
        <ele>76.1</ele>
        <time>2021-03-28T10:10:49Z</time>
      </trkpt>
      <trkpt lat="42.77239" lon="2.69969">
        <ele>76.1</ele>
        <time>2021-03-28T10:10:49Z</time>
      </trkpt>
      <trkpt lat="42.77241" lon="2.69968">
        <ele>76.2</ele>
        <time>2021-03-28T10:10:51Z</time>
      </trkpt>
      <trkpt lat="42.77241" lon="2.69968">
        <ele>76.2</ele>
        <time>2021-03-28T10:10:51Z</time>
      </trkpt>
      <trkpt lat="42.77242" lon="2.69966">
        <ele>76.2</ele>
        <time>2021-03-28T10:10:53Z</time>
      </trkpt>
      <trkpt lat="42.77242" lon="2.69966">
        <ele>76.2</ele>
        <time>2021-03-28T10:10:53Z</time>
      </trkpt>
      <trkpt lat="42.77243" lon="2.69965">
        <ele>76.3</ele>
        <time>2021-03-28T10:10:54Z</time>
      </trkpt>
      <trkpt lat="42.77243" lon="2.69965">
        <ele>76.3</ele>
        <time>2021-03-28T10:10:54Z</time>
      </trkpt>
      <trkpt lat="42.77249" lon="2.69956">
        <ele>76.6</ele>
        <time>2021-03-28T10:10:59Z</time>
      </trkpt>
      <trkpt lat="42.77249" lon="2.69956">
        <ele>76.6</ele>
        <time>2021-03-28T10:10:59Z</time>
      </trkpt>
      <trkpt lat="42.7725" lon="2.69956">
        <ele>76.6</ele>
        <time>2021-03-28T10:11:01Z</time>
      </trkpt>
      <trkpt lat="42.7725" lon="2.69956">
        <ele>76.6</ele>
        <time>2021-03-28T10:11:01Z</time>
      </trkpt>
      <trkpt lat="42.77251" lon="2.69957">
        <ele>76.5</ele>
        <time>2021-03-28T10:11:03Z</time>
      </trkpt>
      <trkpt lat="42.77251" lon="2.69957">
        <ele>76.5</ele>
        <time>2021-03-28T10:11:03Z</time>
      </trkpt>
      <trkpt lat="42.77254" lon="2.69959">
        <ele>76.4</ele>
        <time>2021-03-28T10:11:05Z</time>
      </trkpt>
      <trkpt lat="42.77254" lon="2.69959">
        <ele>76.4</ele>
        <time>2021-03-28T10:11:05Z</time>
      </trkpt>
      <trkpt lat="42.77257" lon="2.6996">
        <ele>76.3</ele>
        <time>2021-03-28T10:11:07Z</time>
      </trkpt>
      <trkpt lat="42.77257" lon="2.6996">
        <ele>76.3</ele>
        <time>2021-03-28T10:11:07Z</time>
      </trkpt>
      <trkpt lat="42.7726" lon="2.69962">
        <ele>76.2</ele>
        <time>2021-03-28T10:11:09Z</time>
      </trkpt>
      <trkpt lat="42.7726" lon="2.69962">
        <ele>76.2</ele>
        <time>2021-03-28T10:11:09Z</time>
      </trkpt>
      <trkpt lat="42.77263" lon="2.69963">
        <ele>76</ele>
        <time>2021-03-28T10:11:10Z</time>
      </trkpt>
      <trkpt lat="42.77263" lon="2.69963">
        <ele>76</ele>
        <time>2021-03-28T10:11:10Z</time>
      </trkpt>
      <trkpt lat="42.77267" lon="2.69965">
        <ele>75.8</ele>
        <time>2021-03-28T10:11:12Z</time>
      </trkpt>
      <trkpt lat="42.77267" lon="2.69965">
        <ele>75.8</ele>
        <time>2021-03-28T10:11:12Z</time>
      </trkpt>
      <trkpt lat="42.7727" lon="2.69967">
        <ele>75.6</ele>
        <time>2021-03-28T10:11:13Z</time>
      </trkpt>
      <trkpt lat="42.7727" lon="2.69967">
        <ele>75.6</ele>
        <time>2021-03-28T10:11:13Z</time>
      </trkpt>
      <trkpt lat="42.77276" lon="2.69969">
        <ele>75.3</ele>
        <time>2021-03-28T10:11:15Z</time>
      </trkpt>
      <trkpt lat="42.77276" lon="2.69969">
        <ele>75.3</ele>
        <time>2021-03-28T10:11:15Z</time>
      </trkpt>
      <trkpt lat="42.77283" lon="2.6997">
        <ele>75.1</ele>
        <time>2021-03-28T10:11:17Z</time>
      </trkpt>
      <trkpt lat="42.77283" lon="2.6997">
        <ele>75.1</ele>
        <time>2021-03-28T10:11:17Z</time>
      </trkpt>
      <trkpt lat="42.77291" lon="2.69971">
        <ele>75.1</ele>
        <time>2021-03-28T10:11:19Z</time>
      </trkpt>
      <trkpt lat="42.77291" lon="2.69971">
        <ele>75.1</ele>
        <time>2021-03-28T10:11:19Z</time>
      </trkpt>
      <trkpt lat="42.77297" lon="2.69971">
        <ele>75</ele>
        <time>2021-03-28T10:11:20Z</time>
      </trkpt>
      <trkpt lat="42.77297" lon="2.69971">
        <ele>75</ele>
        <time>2021-03-28T10:11:20Z</time>
      </trkpt>
      <trkpt lat="42.77305" lon="2.69972">
        <ele>75</ele>
        <time>2021-03-28T10:11:22Z</time>
      </trkpt>
      <trkpt lat="42.77305" lon="2.69972">
        <ele>75</ele>
        <time>2021-03-28T10:11:22Z</time>
      </trkpt>
      <trkpt lat="42.77312" lon="2.69973">
        <ele>74.8</ele>
        <time>2021-03-28T10:11:23Z</time>
      </trkpt>
      <trkpt lat="42.77312" lon="2.69973">
        <ele>74.8</ele>
        <time>2021-03-28T10:11:23Z</time>
      </trkpt>
      <trkpt lat="42.77319" lon="2.69974">
        <ele>74.5</ele>
        <time>2021-03-28T10:11:24Z</time>
      </trkpt>
      <trkpt lat="42.77319" lon="2.69974">
        <ele>74.5</ele>
        <time>2021-03-28T10:11:24Z</time>
      </trkpt>
      <trkpt lat="42.77325" lon="2.69975">
        <ele>74.2</ele>
        <time>2021-03-28T10:11:25Z</time>
      </trkpt>
      <trkpt lat="42.77325" lon="2.69975">
        <ele>74.2</ele>
        <time>2021-03-28T10:11:25Z</time>
      </trkpt>
      <trkpt lat="42.77331" lon="2.69978">
        <ele>73.9</ele>
        <time>2021-03-28T10:11:27Z</time>
      </trkpt>
      <trkpt lat="42.77331" lon="2.69978">
        <ele>73.9</ele>
        <time>2021-03-28T10:11:27Z</time>
      </trkpt>
      <trkpt lat="42.77336" lon="2.6998">
        <ele>73.7</ele>
        <time>2021-03-28T10:11:28Z</time>
      </trkpt>
      <trkpt lat="42.77336" lon="2.6998">
        <ele>73.7</ele>
        <time>2021-03-28T10:11:28Z</time>
      </trkpt>
      <trkpt lat="42.77339" lon="2.69982">
        <ele>73.7</ele>
        <time>2021-03-28T10:11:29Z</time>
      </trkpt>
      <trkpt lat="42.77339" lon="2.69982">
        <ele>73.7</ele>
        <time>2021-03-28T10:11:29Z</time>
      </trkpt>
      <trkpt lat="42.77342" lon="2.69982">
        <ele>73.6</ele>
        <time>2021-03-28T10:11:31Z</time>
      </trkpt>
      <trkpt lat="42.77342" lon="2.69982">
        <ele>73.6</ele>
        <time>2021-03-28T10:11:31Z</time>
      </trkpt>
      <trkpt lat="42.77356" lon="2.70006">
        <ele>73</ele>
        <time>2021-03-28T10:11:44Z</time>
      </trkpt>
      <trkpt lat="42.77356" lon="2.70006">
        <ele>73</ele>
        <time>2021-03-28T10:11:44Z</time>
      </trkpt>
      <trkpt lat="42.77356" lon="2.70007">
        <ele>73</ele>
        <time>2021-03-28T10:11:45Z</time>
      </trkpt>
      <trkpt lat="42.77356" lon="2.70007">
        <ele>73</ele>
        <time>2021-03-28T10:11:45Z</time>
      </trkpt>
      <trkpt lat="42.77357" lon="2.70013">
        <ele>73</ele>
        <time>2021-03-28T10:11:47Z</time>
      </trkpt>
      <trkpt lat="42.77357" lon="2.70013">
        <ele>73</ele>
        <time>2021-03-28T10:11:47Z</time>
      </trkpt>
      <trkpt lat="42.7736" lon="2.7002">
        <ele>73</ele>
        <time>2021-03-28T10:11:49Z</time>
      </trkpt>
      <trkpt lat="42.7736" lon="2.7002">
        <ele>73</ele>
        <time>2021-03-28T10:11:49Z</time>
      </trkpt>
      <trkpt lat="42.77362" lon="2.70027">
        <ele>73</ele>
        <time>2021-03-28T10:11:50Z</time>
      </trkpt>
      <trkpt lat="42.77362" lon="2.70027">
        <ele>73</ele>
        <time>2021-03-28T10:11:50Z</time>
      </trkpt>
      <trkpt lat="42.77366" lon="2.70035">
        <ele>73</ele>
        <time>2021-03-28T10:11:52Z</time>
      </trkpt>
      <trkpt lat="42.77366" lon="2.70035">
        <ele>73</ele>
        <time>2021-03-28T10:11:52Z</time>
      </trkpt>
      <trkpt lat="42.77371" lon="2.70045">
        <ele>73</ele>
        <time>2021-03-28T10:11:54Z</time>
      </trkpt>
      <trkpt lat="42.77371" lon="2.70045">
        <ele>73</ele>
        <time>2021-03-28T10:11:54Z</time>
      </trkpt>
      <trkpt lat="42.77378" lon="2.70054">
        <ele>73</ele>
        <time>2021-03-28T10:11:56Z</time>
      </trkpt>
      <trkpt lat="42.77378" lon="2.70054">
        <ele>73</ele>
        <time>2021-03-28T10:11:56Z</time>
      </trkpt>
      <trkpt lat="42.77382" lon="2.70061">
        <ele>72.8</ele>
        <time>2021-03-28T10:11:57Z</time>
      </trkpt>
      <trkpt lat="42.77382" lon="2.70061">
        <ele>72.8</ele>
        <time>2021-03-28T10:11:57Z</time>
      </trkpt>
      <trkpt lat="42.77387" lon="2.70065">
        <ele>72.6</ele>
        <time>2021-03-28T10:11:59Z</time>
      </trkpt>
      <trkpt lat="42.77387" lon="2.70065">
        <ele>72.6</ele>
        <time>2021-03-28T10:11:59Z</time>
      </trkpt>
      <trkpt lat="42.77392" lon="2.70068">
        <ele>72.5</ele>
        <time>2021-03-28T10:12:01Z</time>
      </trkpt>
      <trkpt lat="42.77392" lon="2.70068">
        <ele>72.5</ele>
        <time>2021-03-28T10:12:01Z</time>
      </trkpt>
      <trkpt lat="42.77397" lon="2.70071">
        <ele>72.3</ele>
        <time>2021-03-28T10:12:02Z</time>
      </trkpt>
      <trkpt lat="42.77397" lon="2.70071">
        <ele>72.3</ele>
        <time>2021-03-28T10:12:02Z</time>
      </trkpt>
      <trkpt lat="42.774" lon="2.70073">
        <ele>72.2</ele>
        <time>2021-03-28T10:12:03Z</time>
      </trkpt>
      <trkpt lat="42.774" lon="2.70073">
        <ele>72.2</ele>
        <time>2021-03-28T10:12:03Z</time>
      </trkpt>
      <trkpt lat="42.77404" lon="2.70074">
        <ele>72.1</ele>
        <time>2021-03-28T10:12:05Z</time>
      </trkpt>
      <trkpt lat="42.77404" lon="2.70074">
        <ele>72.1</ele>
        <time>2021-03-28T10:12:05Z</time>
      </trkpt>
      <trkpt lat="42.77408" lon="2.70076">
        <ele>72.1</ele>
        <time>2021-03-28T10:12:07Z</time>
      </trkpt>
      <trkpt lat="42.77408" lon="2.70076">
        <ele>72.1</ele>
        <time>2021-03-28T10:12:07Z</time>
      </trkpt>
      <trkpt lat="42.77412" lon="2.70077">
        <ele>72</ele>
        <time>2021-03-28T10:12:08Z</time>
      </trkpt>
      <trkpt lat="42.77412" lon="2.70077">
        <ele>72</ele>
        <time>2021-03-28T10:12:08Z</time>
      </trkpt>
      <trkpt lat="42.77416" lon="2.70078">
        <ele>72</ele>
        <time>2021-03-28T10:12:10Z</time>
      </trkpt>
      <trkpt lat="42.77416" lon="2.70078">
        <ele>72</ele>
        <time>2021-03-28T10:12:10Z</time>
      </trkpt>
      <trkpt lat="42.7742" lon="2.70078">
        <ele>72</ele>
        <time>2021-03-28T10:12:12Z</time>
      </trkpt>
      <trkpt lat="42.7742" lon="2.70078">
        <ele>72</ele>
        <time>2021-03-28T10:12:12Z</time>
      </trkpt>
      <trkpt lat="42.77424" lon="2.70079">
        <ele>72</ele>
        <time>2021-03-28T10:12:13Z</time>
      </trkpt>
      <trkpt lat="42.77424" lon="2.70079">
        <ele>72</ele>
        <time>2021-03-28T10:12:13Z</time>
      </trkpt>
      <trkpt lat="42.77426" lon="2.70079">
        <ele>72</ele>
        <time>2021-03-28T10:12:14Z</time>
      </trkpt>
      <trkpt lat="42.77426" lon="2.70079">
        <ele>72</ele>
        <time>2021-03-28T10:12:14Z</time>
      </trkpt>
      <trkpt lat="42.77429" lon="2.70079">
        <ele>72</ele>
        <time>2021-03-28T10:12:15Z</time>
      </trkpt>
      <trkpt lat="42.77429" lon="2.70079">
        <ele>72</ele>
        <time>2021-03-28T10:12:15Z</time>
      </trkpt>
      <trkpt lat="42.7743" lon="2.70079">
        <ele>72</ele>
        <time>2021-03-28T10:12:17Z</time>
      </trkpt>
      <trkpt lat="42.7743" lon="2.70079">
        <ele>72</ele>
        <time>2021-03-28T10:12:17Z</time>
      </trkpt>
      <trkpt lat="42.77432" lon="2.70078">
        <ele>72</ele>
        <time>2021-03-28T10:12:18Z</time>
      </trkpt>
      <trkpt lat="42.77432" lon="2.70078">
        <ele>72</ele>
        <time>2021-03-28T10:12:18Z</time>
      </trkpt>
      <trkpt lat="42.77457" lon="2.70061">
        <ele>71.5</ele>
        <time>2021-03-28T10:41:03Z</time>
      </trkpt>
      <trkpt lat="42.77457" lon="2.70061">
        <ele>71.5</ele>
        <time>2021-03-28T10:41:03Z</time>
      </trkpt>
      <trkpt lat="42.77457" lon="2.7006">
        <ele>71.6</ele>
        <time>2021-03-28T10:41:04Z</time>
      </trkpt>
      <trkpt lat="42.77457" lon="2.7006">
        <ele>71.6</ele>
        <time>2021-03-28T10:41:04Z</time>
      </trkpt>
      <trkpt lat="42.77456" lon="2.7006">
        <ele>71.6</ele>
        <time>2021-03-28T10:41:06Z</time>
      </trkpt>
      <trkpt lat="42.77456" lon="2.7006">
        <ele>71.6</ele>
        <time>2021-03-28T10:41:06Z</time>
      </trkpt>
      <trkpt lat="42.77456" lon="2.7006">
        <ele>71.6</ele>
        <time>2021-03-28T10:41:07Z</time>
      </trkpt>
      <trkpt lat="42.77456" lon="2.7006">
        <ele>71.6</ele>
        <time>2021-03-28T10:41:07Z</time>
      </trkpt>
      <trkpt lat="42.77455" lon="2.7006">
        <ele>71.6</ele>
        <time>2021-03-28T10:41:08Z</time>
      </trkpt>
      <trkpt lat="42.77455" lon="2.7006">
        <ele>71.6</ele>
        <time>2021-03-28T10:41:08Z</time>
      </trkpt>
      <trkpt lat="42.77455" lon="2.7006">
        <ele>71.6</ele>
        <time>2021-03-28T10:41:10Z</time>
      </trkpt>
      <trkpt lat="42.77455" lon="2.7006">
        <ele>71.6</ele>
        <time>2021-03-28T10:41:10Z</time>
      </trkpt>
      <trkpt lat="42.77454" lon="2.7006">
        <ele>71.6</ele>
        <time>2021-03-28T10:41:12Z</time>
      </trkpt>
      <trkpt lat="42.77454" lon="2.7006">
        <ele>71.6</ele>
        <time>2021-03-28T10:41:12Z</time>
      </trkpt>
      <trkpt lat="42.77453" lon="2.70059">
        <ele>71.7</ele>
        <time>2021-03-28T10:41:16Z</time>
      </trkpt>
      <trkpt lat="42.77453" lon="2.70059">
        <ele>71.7</ele>
        <time>2021-03-28T10:41:16Z</time>
      </trkpt>
      <trkpt lat="42.77453" lon="2.70059">
        <ele>71.7</ele>
        <time>2021-03-28T10:41:17Z</time>
      </trkpt>
      <trkpt lat="42.77453" lon="2.70059">
        <ele>71.7</ele>
        <time>2021-03-28T10:41:17Z</time>
      </trkpt>
      <trkpt lat="42.77453" lon="2.70058">
        <ele>71.7</ele>
        <time>2021-03-28T10:41:19Z</time>
      </trkpt>
      <trkpt lat="42.77453" lon="2.70058">
        <ele>71.7</ele>
        <time>2021-03-28T10:41:19Z</time>
      </trkpt>
      <trkpt lat="42.77453" lon="2.70057">
        <ele>71.7</ele>
        <time>2021-03-28T10:41:20Z</time>
      </trkpt>
      <trkpt lat="42.77453" lon="2.70057">
        <ele>71.7</ele>
        <time>2021-03-28T10:41:20Z</time>
      </trkpt>
      <trkpt lat="42.77453" lon="2.70056">
        <ele>71.7</ele>
        <time>2021-03-28T10:41:21Z</time>
      </trkpt>
      <trkpt lat="42.77453" lon="2.70056">
        <ele>71.7</ele>
        <time>2021-03-28T10:41:21Z</time>
      </trkpt>
      <trkpt lat="42.77452" lon="2.70055">
        <ele>71.7</ele>
        <time>2021-03-28T10:41:23Z</time>
      </trkpt>
      <trkpt lat="42.77452" lon="2.70055">
        <ele>71.7</ele>
        <time>2021-03-28T10:41:23Z</time>
      </trkpt>
      <trkpt lat="42.77452" lon="2.70055">
        <ele>71.8</ele>
        <time>2021-03-28T10:41:25Z</time>
      </trkpt>
      <trkpt lat="42.77452" lon="2.70055">
        <ele>71.8</ele>
        <time>2021-03-28T10:41:25Z</time>
      </trkpt>
      <trkpt lat="42.77451" lon="2.70054">
        <ele>71.8</ele>
        <time>2021-03-28T10:41:26Z</time>
      </trkpt>
      <trkpt lat="42.77451" lon="2.70054">
        <ele>71.8</ele>
        <time>2021-03-28T10:41:26Z</time>
      </trkpt>
      <trkpt lat="42.77451" lon="2.70054">
        <ele>71.9</ele>
        <time>2021-03-28T10:41:28Z</time>
      </trkpt>
      <trkpt lat="42.77451" lon="2.70054">
        <ele>71.9</ele>
        <time>2021-03-28T10:41:28Z</time>
      </trkpt>
      <trkpt lat="42.7745" lon="2.70053">
        <ele>71.9</ele>
        <time>2021-03-28T10:41:29Z</time>
      </trkpt>
      <trkpt lat="42.7745" lon="2.70053">
        <ele>71.9</ele>
        <time>2021-03-28T10:41:29Z</time>
      </trkpt>
      <trkpt lat="42.77449" lon="2.70053">
        <ele>71.9</ele>
        <time>2021-03-28T10:41:31Z</time>
      </trkpt>
      <trkpt lat="42.77449" lon="2.70053">
        <ele>71.9</ele>
        <time>2021-03-28T10:41:31Z</time>
      </trkpt>
      <trkpt lat="42.77448" lon="2.70053">
        <ele>72</ele>
        <time>2021-03-28T10:41:32Z</time>
      </trkpt>
      <trkpt lat="42.77448" lon="2.70053">
        <ele>72</ele>
        <time>2021-03-28T10:41:32Z</time>
      </trkpt>
      <trkpt lat="42.77447" lon="2.70054">
        <ele>72</ele>
        <time>2021-03-28T10:41:34Z</time>
      </trkpt>
      <trkpt lat="42.77447" lon="2.70054">
        <ele>72</ele>
        <time>2021-03-28T10:41:34Z</time>
      </trkpt>
      <trkpt lat="42.77446" lon="2.70055">
        <ele>72</ele>
        <time>2021-03-28T10:41:35Z</time>
      </trkpt>
      <trkpt lat="42.77446" lon="2.70055">
        <ele>72</ele>
        <time>2021-03-28T10:41:35Z</time>
      </trkpt>
      <trkpt lat="42.77445" lon="2.70055">
        <ele>72</ele>
        <time>2021-03-28T10:41:36Z</time>
      </trkpt>
      <trkpt lat="42.77445" lon="2.70055">
        <ele>72</ele>
        <time>2021-03-28T10:41:36Z</time>
      </trkpt>
      <trkpt lat="42.77445" lon="2.70056">
        <ele>72</ele>
        <time>2021-03-28T10:41:37Z</time>
      </trkpt>
      <trkpt lat="42.77445" lon="2.70056">
        <ele>72</ele>
        <time>2021-03-28T10:41:37Z</time>
      </trkpt>
      <trkpt lat="42.77444" lon="2.70057">
        <ele>72</ele>
        <time>2021-03-28T10:41:39Z</time>
      </trkpt>
      <trkpt lat="42.77444" lon="2.70057">
        <ele>72</ele>
        <time>2021-03-28T10:41:39Z</time>
      </trkpt>
      <trkpt lat="42.77444" lon="2.70058">
        <ele>72</ele>
        <time>2021-03-28T10:41:41Z</time>
      </trkpt>
      <trkpt lat="42.77444" lon="2.70058">
        <ele>72</ele>
        <time>2021-03-28T10:41:41Z</time>
      </trkpt>
      <trkpt lat="42.77444" lon="2.70059">
        <ele>72</ele>
        <time>2021-03-28T10:41:42Z</time>
      </trkpt>
      <trkpt lat="42.77444" lon="2.70059">
        <ele>72</ele>
        <time>2021-03-28T10:41:42Z</time>
      </trkpt>
      <trkpt lat="42.77444" lon="2.70061">
        <ele>72</ele>
        <time>2021-03-28T10:41:44Z</time>
      </trkpt>
      <trkpt lat="42.77444" lon="2.70061">
        <ele>72</ele>
        <time>2021-03-28T10:41:44Z</time>
      </trkpt>
      <trkpt lat="42.77448" lon="2.7004">
        <ele>72.4</ele>
        <time>2021-03-28T11:01:54Z</time>
      </trkpt>
      <trkpt lat="42.77448" lon="2.7004">
        <ele>72.4</ele>
        <time>2021-03-28T11:01:54Z</time>
      </trkpt>
      <trkpt lat="42.77448" lon="2.70039">
        <ele>72.5</ele>
        <time>2021-03-28T11:01:56Z</time>
      </trkpt>
      <trkpt lat="42.77448" lon="2.70039">
        <ele>72.5</ele>
        <time>2021-03-28T11:01:56Z</time>
      </trkpt>
      <trkpt lat="42.77448" lon="2.70038">
        <ele>72.5</ele>
        <time>2021-03-28T11:01:57Z</time>
      </trkpt>
      <trkpt lat="42.77448" lon="2.70038">
        <ele>72.5</ele>
        <time>2021-03-28T11:01:57Z</time>
      </trkpt>
      <trkpt lat="42.77448" lon="2.70036">
        <ele>72.6</ele>
        <time>2021-03-28T11:01:58Z</time>
      </trkpt>
      <trkpt lat="42.77448" lon="2.70036">
        <ele>72.6</ele>
        <time>2021-03-28T11:01:58Z</time>
      </trkpt>
      <trkpt lat="42.77447" lon="2.70035">
        <ele>72.6</ele>
        <time>2021-03-28T11:02:00Z</time>
      </trkpt>
      <trkpt lat="42.77447" lon="2.70035">
        <ele>72.6</ele>
        <time>2021-03-28T11:02:00Z</time>
      </trkpt>
      <trkpt lat="42.77446" lon="2.70034">
        <ele>72.7</ele>
        <time>2021-03-28T11:02:01Z</time>
      </trkpt>
      <trkpt lat="42.77446" lon="2.70034">
        <ele>72.7</ele>
        <time>2021-03-28T11:02:01Z</time>
      </trkpt>
      <trkpt lat="42.77445" lon="2.70033">
        <ele>72.8</ele>
        <time>2021-03-28T11:02:02Z</time>
      </trkpt>
      <trkpt lat="42.77445" lon="2.70033">
        <ele>72.8</ele>
        <time>2021-03-28T11:02:02Z</time>
      </trkpt>
      <trkpt lat="42.77444" lon="2.70032">
        <ele>72.9</ele>
        <time>2021-03-28T11:02:03Z</time>
      </trkpt>
      <trkpt lat="42.77444" lon="2.70032">
        <ele>72.9</ele>
        <time>2021-03-28T11:02:03Z</time>
      </trkpt>
      <trkpt lat="42.77444" lon="2.7003">
        <ele>72.9</ele>
        <time>2021-03-28T11:02:04Z</time>
      </trkpt>
      <trkpt lat="42.77444" lon="2.7003">
        <ele>72.9</ele>
        <time>2021-03-28T11:02:04Z</time>
      </trkpt>
      <trkpt lat="42.77443" lon="2.70028">
        <ele>73</ele>
        <time>2021-03-28T11:02:05Z</time>
      </trkpt>
      <trkpt lat="42.77443" lon="2.70028">
        <ele>73</ele>
        <time>2021-03-28T11:02:05Z</time>
      </trkpt>
      <trkpt lat="42.77443" lon="2.70026">
        <ele>73</ele>
        <time>2021-03-28T11:02:07Z</time>
      </trkpt>
      <trkpt lat="42.77443" lon="2.70026">
        <ele>73</ele>
        <time>2021-03-28T11:02:07Z</time>
      </trkpt>
      <trkpt lat="42.77441" lon="2.70024">
        <ele>73</ele>
        <time>2021-03-28T11:02:09Z</time>
      </trkpt>
      <trkpt lat="42.77441" lon="2.70024">
        <ele>73</ele>
        <time>2021-03-28T11:02:09Z</time>
      </trkpt>
      <trkpt lat="42.7744" lon="2.70022">
        <ele>73</ele>
        <time>2021-03-28T11:02:11Z</time>
      </trkpt>
      <trkpt lat="42.7744" lon="2.70022">
        <ele>73</ele>
        <time>2021-03-28T11:02:11Z</time>
      </trkpt>
      <trkpt lat="42.7744" lon="2.7002">
        <ele>73</ele>
        <time>2021-03-28T11:02:12Z</time>
      </trkpt>
      <trkpt lat="42.7744" lon="2.7002">
        <ele>73</ele>
        <time>2021-03-28T11:02:12Z</time>
      </trkpt>
      <trkpt lat="42.77439" lon="2.70018">
        <ele>73</ele>
        <time>2021-03-28T11:02:14Z</time>
      </trkpt>
      <trkpt lat="42.77439" lon="2.70018">
        <ele>73</ele>
        <time>2021-03-28T11:02:14Z</time>
      </trkpt>
      <trkpt lat="42.77438" lon="2.70016">
        <ele>73</ele>
        <time>2021-03-28T11:02:15Z</time>
      </trkpt>
      <trkpt lat="42.77438" lon="2.70016">
        <ele>73</ele>
        <time>2021-03-28T11:02:15Z</time>
      </trkpt>
      <trkpt lat="42.77437" lon="2.70014">
        <ele>73</ele>
        <time>2021-03-28T11:02:16Z</time>
      </trkpt>
      <trkpt lat="42.77437" lon="2.70014">
        <ele>73</ele>
        <time>2021-03-28T11:02:16Z</time>
      </trkpt>
      <trkpt lat="42.77435" lon="2.70012">
        <ele>73</ele>
        <time>2021-03-28T11:02:17Z</time>
      </trkpt>
      <trkpt lat="42.77435" lon="2.70012">
        <ele>73</ele>
        <time>2021-03-28T11:02:17Z</time>
      </trkpt>
      <trkpt lat="42.77433" lon="2.70011">
        <ele>73</ele>
        <time>2021-03-28T11:02:19Z</time>
      </trkpt>
      <trkpt lat="42.77433" lon="2.70011">
        <ele>73</ele>
        <time>2021-03-28T11:02:19Z</time>
      </trkpt>
      <trkpt lat="42.77432" lon="2.70009">
        <ele>73</ele>
        <time>2021-03-28T11:02:20Z</time>
      </trkpt>
      <trkpt lat="42.77432" lon="2.70009">
        <ele>73</ele>
        <time>2021-03-28T11:02:20Z</time>
      </trkpt>
      <trkpt lat="42.77431" lon="2.70008">
        <ele>73</ele>
        <time>2021-03-28T11:02:22Z</time>
      </trkpt>
      <trkpt lat="42.77431" lon="2.70008">
        <ele>73</ele>
        <time>2021-03-28T11:02:22Z</time>
      </trkpt>
      <trkpt lat="42.7743" lon="2.70008">
        <ele>73</ele>
        <time>2021-03-28T11:02:23Z</time>
      </trkpt>
      <trkpt lat="42.7743" lon="2.70008">
        <ele>73</ele>
        <time>2021-03-28T11:02:23Z</time>
      </trkpt>
      <trkpt lat="42.7742" lon="2.70004">
        <ele>73</ele>
        <time>2021-03-28T11:02:28Z</time>
      </trkpt>
      <trkpt lat="42.7742" lon="2.70004">
        <ele>73</ele>
        <time>2021-03-28T11:02:28Z</time>
      </trkpt>
      <trkpt lat="42.77418" lon="2.70001">
        <ele>73</ele>
        <time>2021-03-28T11:02:30Z</time>
      </trkpt>
      <trkpt lat="42.77418" lon="2.70001">
        <ele>73</ele>
        <time>2021-03-28T11:02:30Z</time>
      </trkpt>
      <trkpt lat="42.77416" lon="2.69998">
        <ele>73</ele>
        <time>2021-03-28T11:02:31Z</time>
      </trkpt>
      <trkpt lat="42.77416" lon="2.69998">
        <ele>73</ele>
        <time>2021-03-28T11:02:31Z</time>
      </trkpt>
      <trkpt lat="42.77413" lon="2.69994">
        <ele>73</ele>
        <time>2021-03-28T11:02:33Z</time>
      </trkpt>
      <trkpt lat="42.77413" lon="2.69994">
        <ele>73</ele>
        <time>2021-03-28T11:02:33Z</time>
      </trkpt>
      <trkpt lat="42.7741" lon="2.69991">
        <ele>73</ele>
        <time>2021-03-28T11:02:34Z</time>
      </trkpt>
      <trkpt lat="42.7741" lon="2.69991">
        <ele>73</ele>
        <time>2021-03-28T11:02:34Z</time>
      </trkpt>
      <trkpt lat="42.77407" lon="2.69989">
        <ele>73</ele>
        <time>2021-03-28T11:02:36Z</time>
      </trkpt>
      <trkpt lat="42.77407" lon="2.69989">
        <ele>73</ele>
        <time>2021-03-28T11:02:36Z</time>
      </trkpt>
      <trkpt lat="42.77402" lon="2.69987">
        <ele>73</ele>
        <time>2021-03-28T11:02:38Z</time>
      </trkpt>
      <trkpt lat="42.77402" lon="2.69987">
        <ele>73</ele>
        <time>2021-03-28T11:02:38Z</time>
      </trkpt>
      <trkpt lat="42.77396" lon="2.69985">
        <ele>73</ele>
        <time>2021-03-28T11:02:40Z</time>
      </trkpt>
      <trkpt lat="42.77396" lon="2.69985">
        <ele>73</ele>
        <time>2021-03-28T11:02:40Z</time>
      </trkpt>
      <trkpt lat="42.7739" lon="2.69983">
        <ele>73</ele>
        <time>2021-03-28T11:02:42Z</time>
      </trkpt>
      <trkpt lat="42.7739" lon="2.69983">
        <ele>73</ele>
        <time>2021-03-28T11:02:42Z</time>
      </trkpt>
      <trkpt lat="42.77385" lon="2.69981">
        <ele>73.1</ele>
        <time>2021-03-28T11:02:43Z</time>
      </trkpt>
      <trkpt lat="42.77385" lon="2.69981">
        <ele>73.1</ele>
        <time>2021-03-28T11:02:43Z</time>
      </trkpt>
      <trkpt lat="42.77379" lon="2.69979">
        <ele>73.3</ele>
        <time>2021-03-28T11:02:45Z</time>
      </trkpt>
      <trkpt lat="42.77379" lon="2.69979">
        <ele>73.3</ele>
        <time>2021-03-28T11:02:45Z</time>
      </trkpt>
      <trkpt lat="42.77373" lon="2.69977">
        <ele>73.5</ele>
        <time>2021-03-28T11:02:47Z</time>
      </trkpt>
      <trkpt lat="42.77373" lon="2.69977">
        <ele>73.5</ele>
        <time>2021-03-28T11:02:47Z</time>
      </trkpt>
      <trkpt lat="42.77368" lon="2.69976">
        <ele>73.6</ele>
        <time>2021-03-28T11:02:48Z</time>
      </trkpt>
      <trkpt lat="42.77368" lon="2.69976">
        <ele>73.6</ele>
        <time>2021-03-28T11:02:48Z</time>
      </trkpt>
      <trkpt lat="42.77363" lon="2.69975">
        <ele>73.8</ele>
        <time>2021-03-28T11:02:50Z</time>
      </trkpt>
      <trkpt lat="42.77363" lon="2.69975">
        <ele>73.8</ele>
        <time>2021-03-28T11:02:50Z</time>
      </trkpt>
      <trkpt lat="42.77356" lon="2.69975">
        <ele>73.9</ele>
        <time>2021-03-28T11:02:52Z</time>
      </trkpt>
      <trkpt lat="42.77356" lon="2.69975">
        <ele>73.9</ele>
        <time>2021-03-28T11:02:52Z</time>
      </trkpt>
      <trkpt lat="42.77351" lon="2.69975">
        <ele>73.9</ele>
        <time>2021-03-28T11:02:53Z</time>
      </trkpt>
      <trkpt lat="42.77351" lon="2.69975">
        <ele>73.9</ele>
        <time>2021-03-28T11:02:53Z</time>
      </trkpt>
      <trkpt lat="42.77343" lon="2.69976">
        <ele>73.9</ele>
        <time>2021-03-28T11:02:55Z</time>
      </trkpt>
      <trkpt lat="42.77343" lon="2.69976">
        <ele>73.9</ele>
        <time>2021-03-28T11:02:55Z</time>
      </trkpt>
      <trkpt lat="42.77337" lon="2.69976">
        <ele>73.9</ele>
        <time>2021-03-28T11:02:56Z</time>
      </trkpt>
      <trkpt lat="42.77337" lon="2.69976">
        <ele>73.9</ele>
        <time>2021-03-28T11:02:56Z</time>
      </trkpt>
      <trkpt lat="42.77332" lon="2.69977">
        <ele>73.9</ele>
        <time>2021-03-28T11:02:57Z</time>
      </trkpt>
      <trkpt lat="42.77332" lon="2.69977">
        <ele>73.9</ele>
        <time>2021-03-28T11:02:57Z</time>
      </trkpt>
      <trkpt lat="42.77325" lon="2.69978">
        <ele>74.1</ele>
        <time>2021-03-28T11:02:59Z</time>
      </trkpt>
      <trkpt lat="42.77325" lon="2.69978">
        <ele>74.1</ele>
        <time>2021-03-28T11:02:59Z</time>
      </trkpt>
      <trkpt lat="42.7732" lon="2.69979">
        <ele>74.2</ele>
        <time>2021-03-28T11:03:00Z</time>
      </trkpt>
      <trkpt lat="42.7732" lon="2.69979">
        <ele>74.2</ele>
        <time>2021-03-28T11:03:00Z</time>
      </trkpt>
      <trkpt lat="42.77314" lon="2.6998">
        <ele>74.4</ele>
        <time>2021-03-28T11:03:01Z</time>
      </trkpt>
      <trkpt lat="42.77314" lon="2.6998">
        <ele>74.4</ele>
        <time>2021-03-28T11:03:01Z</time>
      </trkpt>
      <trkpt lat="42.77309" lon="2.69979">
        <ele>74.6</ele>
        <time>2021-03-28T11:03:03Z</time>
      </trkpt>
      <trkpt lat="42.77309" lon="2.69979">
        <ele>74.6</ele>
        <time>2021-03-28T11:03:03Z</time>
      </trkpt>
      <trkpt lat="42.77303" lon="2.69978">
        <ele>74.8</ele>
        <time>2021-03-28T11:03:04Z</time>
      </trkpt>
      <trkpt lat="42.77303" lon="2.69978">
        <ele>74.8</ele>
        <time>2021-03-28T11:03:04Z</time>
      </trkpt>
      <trkpt lat="42.77298" lon="2.69977">
        <ele>74.8</ele>
        <time>2021-03-28T11:03:05Z</time>
      </trkpt>
      <trkpt lat="42.77298" lon="2.69977">
        <ele>74.8</ele>
        <time>2021-03-28T11:03:05Z</time>
      </trkpt>
      <trkpt lat="42.77292" lon="2.69974">
        <ele>74.9</ele>
        <time>2021-03-28T11:03:07Z</time>
      </trkpt>
      <trkpt lat="42.77292" lon="2.69974">
        <ele>74.9</ele>
        <time>2021-03-28T11:03:07Z</time>
      </trkpt>
      <trkpt lat="42.77285" lon="2.69971">
        <ele>75.1</ele>
        <time>2021-03-28T11:03:09Z</time>
      </trkpt>
      <trkpt lat="42.77285" lon="2.69971">
        <ele>75.1</ele>
        <time>2021-03-28T11:03:09Z</time>
      </trkpt>
      <trkpt lat="42.77279" lon="2.69967">
        <ele>75.4</ele>
        <time>2021-03-28T11:03:11Z</time>
      </trkpt>
      <trkpt lat="42.77279" lon="2.69967">
        <ele>75.4</ele>
        <time>2021-03-28T11:03:11Z</time>
      </trkpt>
      <trkpt lat="42.77275" lon="2.69964">
        <ele>75.7</ele>
        <time>2021-03-28T11:03:12Z</time>
      </trkpt>
      <trkpt lat="42.77275" lon="2.69964">
        <ele>75.7</ele>
        <time>2021-03-28T11:03:12Z</time>
      </trkpt>
      <trkpt lat="42.77271" lon="2.6996">
        <ele>76</ele>
        <time>2021-03-28T11:03:14Z</time>
      </trkpt>
      <trkpt lat="42.77271" lon="2.6996">
        <ele>76</ele>
        <time>2021-03-28T11:03:14Z</time>
      </trkpt>
      <trkpt lat="42.77268" lon="2.69956">
        <ele>76.3</ele>
        <time>2021-03-28T11:03:15Z</time>
      </trkpt>
      <trkpt lat="42.77268" lon="2.69956">
        <ele>76.3</ele>
        <time>2021-03-28T11:03:15Z</time>
      </trkpt>
      <trkpt lat="42.77266" lon="2.69951">
        <ele>76.6</ele>
        <time>2021-03-28T11:03:17Z</time>
      </trkpt>
      <trkpt lat="42.77266" lon="2.69951">
        <ele>76.6</ele>
        <time>2021-03-28T11:03:17Z</time>
      </trkpt>
      <trkpt lat="42.77265" lon="2.69944">
        <ele>77</ele>
        <time>2021-03-28T11:03:19Z</time>
      </trkpt>
      <trkpt lat="42.77265" lon="2.69944">
        <ele>77</ele>
        <time>2021-03-28T11:03:19Z</time>
      </trkpt>
      <trkpt lat="42.77264" lon="2.69936">
        <ele>76.9</ele>
        <time>2021-03-28T11:03:21Z</time>
      </trkpt>
      <trkpt lat="42.77264" lon="2.69936">
        <ele>76.9</ele>
        <time>2021-03-28T11:03:21Z</time>
      </trkpt>
      <trkpt lat="42.77265" lon="2.69928">
        <ele>76.7</ele>
        <time>2021-03-28T11:03:22Z</time>
      </trkpt>
      <trkpt lat="42.77265" lon="2.69928">
        <ele>76.7</ele>
        <time>2021-03-28T11:03:22Z</time>
      </trkpt>
      <trkpt lat="42.77266" lon="2.69922">
        <ele>76.7</ele>
        <time>2021-03-28T11:03:23Z</time>
      </trkpt>
      <trkpt lat="42.77266" lon="2.69922">
        <ele>76.7</ele>
        <time>2021-03-28T11:03:23Z</time>
      </trkpt>
      <trkpt lat="42.77268" lon="2.69915">
        <ele>76.6</ele>
        <time>2021-03-28T11:03:25Z</time>
      </trkpt>
      <trkpt lat="42.77268" lon="2.69915">
        <ele>76.6</ele>
        <time>2021-03-28T11:03:25Z</time>
      </trkpt>
      <trkpt lat="42.77271" lon="2.69908">
        <ele>76.5</ele>
        <time>2021-03-28T11:03:26Z</time>
      </trkpt>
      <trkpt lat="42.77271" lon="2.69908">
        <ele>76.5</ele>
        <time>2021-03-28T11:03:26Z</time>
      </trkpt>
      <trkpt lat="42.77272" lon="2.69901">
        <ele>76.4</ele>
        <time>2021-03-28T11:03:27Z</time>
      </trkpt>
      <trkpt lat="42.77272" lon="2.69901">
        <ele>76.4</ele>
        <time>2021-03-28T11:03:27Z</time>
      </trkpt>
      <trkpt lat="42.77275" lon="2.69894">
        <ele>76.2</ele>
        <time>2021-03-28T11:03:29Z</time>
      </trkpt>
      <trkpt lat="42.77275" lon="2.69894">
        <ele>76.2</ele>
        <time>2021-03-28T11:03:29Z</time>
      </trkpt>
      <trkpt lat="42.77278" lon="2.69886">
        <ele>76</ele>
        <time>2021-03-28T11:03:31Z</time>
      </trkpt>
      <trkpt lat="42.77278" lon="2.69886">
        <ele>76</ele>
        <time>2021-03-28T11:03:31Z</time>
      </trkpt>
      <trkpt lat="42.7728" lon="2.69879">
        <ele>76</ele>
        <time>2021-03-28T11:03:33Z</time>
      </trkpt>
      <trkpt lat="42.7728" lon="2.69879">
        <ele>76</ele>
        <time>2021-03-28T11:03:33Z</time>
      </trkpt>
      <trkpt lat="42.77282" lon="2.69873">
        <ele>76</ele>
        <time>2021-03-28T11:03:34Z</time>
      </trkpt>
      <trkpt lat="42.77282" lon="2.69873">
        <ele>76</ele>
        <time>2021-03-28T11:03:34Z</time>
      </trkpt>
      <trkpt lat="42.77284" lon="2.69865">
        <ele>76</ele>
        <time>2021-03-28T11:03:36Z</time>
      </trkpt>
      <trkpt lat="42.77284" lon="2.69865">
        <ele>76</ele>
        <time>2021-03-28T11:03:36Z</time>
      </trkpt>
      <trkpt lat="42.77286" lon="2.69859">
        <ele>76</ele>
        <time>2021-03-28T11:03:37Z</time>
      </trkpt>
      <trkpt lat="42.77286" lon="2.69859">
        <ele>76</ele>
        <time>2021-03-28T11:03:37Z</time>
      </trkpt>
      <trkpt lat="42.77287" lon="2.69848">
        <ele>75.8</ele>
        <time>2021-03-28T11:03:39Z</time>
      </trkpt>
      <trkpt lat="42.77287" lon="2.69848">
        <ele>75.8</ele>
        <time>2021-03-28T11:03:39Z</time>
      </trkpt>
      <trkpt lat="42.77287" lon="2.6984">
        <ele>75.7</ele>
        <time>2021-03-28T11:03:40Z</time>
      </trkpt>
      <trkpt lat="42.77287" lon="2.6984">
        <ele>75.7</ele>
        <time>2021-03-28T11:03:40Z</time>
      </trkpt>
      <trkpt lat="42.77285" lon="2.69832">
        <ele>75.7</ele>
        <time>2021-03-28T11:03:42Z</time>
      </trkpt>
      <trkpt lat="42.77285" lon="2.69832">
        <ele>75.7</ele>
        <time>2021-03-28T11:03:42Z</time>
      </trkpt>
      <trkpt lat="42.77282" lon="2.69826">
        <ele>75.9</ele>
        <time>2021-03-28T11:03:43Z</time>
      </trkpt>
      <trkpt lat="42.77282" lon="2.69826">
        <ele>75.9</ele>
        <time>2021-03-28T11:03:43Z</time>
      </trkpt>
      <trkpt lat="42.77277" lon="2.69819">
        <ele>76</ele>
        <time>2021-03-28T11:03:45Z</time>
      </trkpt>
      <trkpt lat="42.77277" lon="2.69819">
        <ele>76</ele>
        <time>2021-03-28T11:03:45Z</time>
      </trkpt>
      <trkpt lat="42.77271" lon="2.69813">
        <ele>75.9</ele>
        <time>2021-03-28T11:03:47Z</time>
      </trkpt>
      <trkpt lat="42.77271" lon="2.69813">
        <ele>75.9</ele>
        <time>2021-03-28T11:03:47Z</time>
      </trkpt>
      <trkpt lat="42.77265" lon="2.69808">
        <ele>76</ele>
        <time>2021-03-28T11:03:48Z</time>
      </trkpt>
      <trkpt lat="42.77265" lon="2.69808">
        <ele>76</ele>
        <time>2021-03-28T11:03:48Z</time>
      </trkpt>
      <trkpt lat="42.7726" lon="2.69804">
        <ele>76</ele>
        <time>2021-03-28T11:03:49Z</time>
      </trkpt>
      <trkpt lat="42.7726" lon="2.69804">
        <ele>76</ele>
        <time>2021-03-28T11:03:49Z</time>
      </trkpt>
      <trkpt lat="42.77253" lon="2.69799">
        <ele>76</ele>
        <time>2021-03-28T11:03:51Z</time>
      </trkpt>
      <trkpt lat="42.77253" lon="2.69799">
        <ele>76</ele>
        <time>2021-03-28T11:03:51Z</time>
      </trkpt>
      <trkpt lat="42.77248" lon="2.69795">
        <ele>76</ele>
        <time>2021-03-28T11:03:52Z</time>
      </trkpt>
      <trkpt lat="42.77248" lon="2.69795">
        <ele>76</ele>
        <time>2021-03-28T11:03:52Z</time>
      </trkpt>
      <trkpt lat="42.77241" lon="2.69789">
        <ele>76</ele>
        <time>2021-03-28T11:03:54Z</time>
      </trkpt>
      <trkpt lat="42.77241" lon="2.69789">
        <ele>76</ele>
        <time>2021-03-28T11:03:54Z</time>
      </trkpt>
      <trkpt lat="42.77236" lon="2.69785">
        <ele>76</ele>
        <time>2021-03-28T11:03:55Z</time>
      </trkpt>
      <trkpt lat="42.77236" lon="2.69785">
        <ele>76</ele>
        <time>2021-03-28T11:03:55Z</time>
      </trkpt>
      <trkpt lat="42.77229" lon="2.69781">
        <ele>76</ele>
        <time>2021-03-28T11:03:57Z</time>
      </trkpt>
      <trkpt lat="42.77229" lon="2.69781">
        <ele>76</ele>
        <time>2021-03-28T11:03:57Z</time>
      </trkpt>
      <trkpt lat="42.77223" lon="2.69779">
        <ele>76</ele>
        <time>2021-03-28T11:03:58Z</time>
      </trkpt>
      <trkpt lat="42.77223" lon="2.69779">
        <ele>76</ele>
        <time>2021-03-28T11:03:58Z</time>
      </trkpt>
      <trkpt lat="42.77216" lon="2.69775">
        <ele>76.2</ele>
        <time>2021-03-28T11:04:00Z</time>
      </trkpt>
      <trkpt lat="42.77216" lon="2.69775">
        <ele>76.2</ele>
        <time>2021-03-28T11:04:00Z</time>
      </trkpt>
      <trkpt lat="42.77209" lon="2.69771">
        <ele>76.3</ele>
        <time>2021-03-28T11:04:02Z</time>
      </trkpt>
      <trkpt lat="42.77209" lon="2.69771">
        <ele>76.3</ele>
        <time>2021-03-28T11:04:02Z</time>
      </trkpt>
      <trkpt lat="42.77202" lon="2.69766">
        <ele>76.4</ele>
        <time>2021-03-28T11:04:04Z</time>
      </trkpt>
      <trkpt lat="42.77202" lon="2.69766">
        <ele>76.4</ele>
        <time>2021-03-28T11:04:04Z</time>
      </trkpt>
      <trkpt lat="42.77196" lon="2.69762">
        <ele>76.4</ele>
        <time>2021-03-28T11:04:05Z</time>
      </trkpt>
      <trkpt lat="42.77196" lon="2.69762">
        <ele>76.4</ele>
        <time>2021-03-28T11:04:05Z</time>
      </trkpt>
      <trkpt lat="42.7719" lon="2.69759">
        <ele>76.4</ele>
        <time>2021-03-28T11:04:07Z</time>
      </trkpt>
      <trkpt lat="42.7719" lon="2.69759">
        <ele>76.4</ele>
        <time>2021-03-28T11:04:07Z</time>
      </trkpt>
      <trkpt lat="42.77184" lon="2.69756">
        <ele>76.5</ele>
        <time>2021-03-28T11:04:09Z</time>
      </trkpt>
      <trkpt lat="42.77184" lon="2.69756">
        <ele>76.5</ele>
        <time>2021-03-28T11:04:09Z</time>
      </trkpt>
      <trkpt lat="42.77178" lon="2.69752">
        <ele>76.6</ele>
        <time>2021-03-28T11:04:11Z</time>
      </trkpt>
      <trkpt lat="42.77178" lon="2.69752">
        <ele>76.6</ele>
        <time>2021-03-28T11:04:11Z</time>
      </trkpt>
      <trkpt lat="42.77173" lon="2.69749">
        <ele>76.8</ele>
        <time>2021-03-28T11:04:12Z</time>
      </trkpt>
      <trkpt lat="42.77173" lon="2.69749">
        <ele>76.8</ele>
        <time>2021-03-28T11:04:12Z</time>
      </trkpt>
      <trkpt lat="42.77168" lon="2.69743">
        <ele>77</ele>
        <time>2021-03-28T11:04:14Z</time>
      </trkpt>
      <trkpt lat="42.77168" lon="2.69743">
        <ele>77</ele>
        <time>2021-03-28T11:04:14Z</time>
      </trkpt>
      <trkpt lat="42.77163" lon="2.69736">
        <ele>77.1</ele>
        <time>2021-03-28T11:04:16Z</time>
      </trkpt>
      <trkpt lat="42.77163" lon="2.69736">
        <ele>77.1</ele>
        <time>2021-03-28T11:04:16Z</time>
      </trkpt>
      <trkpt lat="42.77159" lon="2.6973">
        <ele>77.2</ele>
        <time>2021-03-28T11:04:17Z</time>
      </trkpt>
      <trkpt lat="42.77159" lon="2.6973">
        <ele>77.2</ele>
        <time>2021-03-28T11:04:17Z</time>
      </trkpt>
      <trkpt lat="42.77155" lon="2.69725">
        <ele>77.4</ele>
        <time>2021-03-28T11:04:18Z</time>
      </trkpt>
      <trkpt lat="42.77155" lon="2.69725">
        <ele>77.4</ele>
        <time>2021-03-28T11:04:18Z</time>
      </trkpt>
      <trkpt lat="42.77151" lon="2.6972">
        <ele>77.6</ele>
        <time>2021-03-28T11:04:19Z</time>
      </trkpt>
      <trkpt lat="42.77151" lon="2.6972">
        <ele>77.6</ele>
        <time>2021-03-28T11:04:19Z</time>
      </trkpt>
      <trkpt lat="42.77147" lon="2.69714">
        <ele>77.7</ele>
        <time>2021-03-28T11:04:21Z</time>
      </trkpt>
      <trkpt lat="42.77147" lon="2.69714">
        <ele>77.7</ele>
        <time>2021-03-28T11:04:21Z</time>
      </trkpt>
      <trkpt lat="42.77142" lon="2.69708">
        <ele>77.9</ele>
        <time>2021-03-28T11:04:23Z</time>
      </trkpt>
      <trkpt lat="42.77142" lon="2.69708">
        <ele>77.9</ele>
        <time>2021-03-28T11:04:23Z</time>
      </trkpt>
      <trkpt lat="42.77137" lon="2.69702">
        <ele>78</ele>
        <time>2021-03-28T11:04:24Z</time>
      </trkpt>
      <trkpt lat="42.77137" lon="2.69702">
        <ele>78</ele>
        <time>2021-03-28T11:04:24Z</time>
      </trkpt>
      <trkpt lat="42.77133" lon="2.69696">
        <ele>78</ele>
        <time>2021-03-28T11:04:26Z</time>
      </trkpt>
      <trkpt lat="42.77133" lon="2.69696">
        <ele>78</ele>
        <time>2021-03-28T11:04:26Z</time>
      </trkpt>
      <trkpt lat="42.77129" lon="2.6969">
        <ele>77.9</ele>
        <time>2021-03-28T11:04:27Z</time>
      </trkpt>
      <trkpt lat="42.77129" lon="2.6969">
        <ele>77.9</ele>
        <time>2021-03-28T11:04:27Z</time>
      </trkpt>
      <trkpt lat="42.77124" lon="2.69684">
        <ele>77.8</ele>
        <time>2021-03-28T11:04:29Z</time>
      </trkpt>
      <trkpt lat="42.77124" lon="2.69684">
        <ele>77.8</ele>
        <time>2021-03-28T11:04:29Z</time>
      </trkpt>
      <trkpt lat="42.7712" lon="2.69678">
        <ele>77.8</ele>
        <time>2021-03-28T11:04:30Z</time>
      </trkpt>
      <trkpt lat="42.7712" lon="2.69678">
        <ele>77.8</ele>
        <time>2021-03-28T11:04:30Z</time>
      </trkpt>
      <trkpt lat="42.77115" lon="2.69671">
        <ele>77.9</ele>
        <time>2021-03-28T11:04:32Z</time>
      </trkpt>
      <trkpt lat="42.77115" lon="2.69671">
        <ele>77.9</ele>
        <time>2021-03-28T11:04:32Z</time>
      </trkpt>
      <trkpt lat="42.77111" lon="2.69665">
        <ele>77.9</ele>
        <time>2021-03-28T11:04:33Z</time>
      </trkpt>
      <trkpt lat="42.77111" lon="2.69665">
        <ele>77.9</ele>
        <time>2021-03-28T11:04:33Z</time>
      </trkpt>
      <trkpt lat="42.77107" lon="2.6966">
        <ele>77.8</ele>
        <time>2021-03-28T11:04:35Z</time>
      </trkpt>
      <trkpt lat="42.77107" lon="2.6966">
        <ele>77.8</ele>
        <time>2021-03-28T11:04:35Z</time>
      </trkpt>
      <trkpt lat="42.77103" lon="2.69655">
        <ele>77.7</ele>
        <time>2021-03-28T11:04:36Z</time>
      </trkpt>
      <trkpt lat="42.77103" lon="2.69655">
        <ele>77.7</ele>
        <time>2021-03-28T11:04:36Z</time>
      </trkpt>
      <trkpt lat="42.77099" lon="2.69652">
        <ele>77.7</ele>
        <time>2021-03-28T11:04:37Z</time>
      </trkpt>
      <trkpt lat="42.77099" lon="2.69652">
        <ele>77.7</ele>
        <time>2021-03-28T11:04:37Z</time>
      </trkpt>
      <trkpt lat="42.77095" lon="2.69648">
        <ele>77.7</ele>
        <time>2021-03-28T11:04:38Z</time>
      </trkpt>
      <trkpt lat="42.77095" lon="2.69648">
        <ele>77.7</ele>
        <time>2021-03-28T11:04:38Z</time>
      </trkpt>
      <trkpt lat="42.77091" lon="2.69643">
        <ele>77.8</ele>
        <time>2021-03-28T11:04:40Z</time>
      </trkpt>
      <trkpt lat="42.77091" lon="2.69643">
        <ele>77.8</ele>
        <time>2021-03-28T11:04:40Z</time>
      </trkpt>
      <trkpt lat="42.77085" lon="2.69636">
        <ele>77.9</ele>
        <time>2021-03-28T11:04:42Z</time>
      </trkpt>
      <trkpt lat="42.77085" lon="2.69636">
        <ele>77.9</ele>
        <time>2021-03-28T11:04:42Z</time>
      </trkpt>
      <trkpt lat="42.7708" lon="2.6963">
        <ele>78</ele>
        <time>2021-03-28T11:04:44Z</time>
      </trkpt>
      <trkpt lat="42.7708" lon="2.6963">
        <ele>78</ele>
        <time>2021-03-28T11:04:44Z</time>
      </trkpt>
      <trkpt lat="42.77075" lon="2.69625">
        <ele>78</ele>
        <time>2021-03-28T11:04:45Z</time>
      </trkpt>
      <trkpt lat="42.77075" lon="2.69625">
        <ele>78</ele>
        <time>2021-03-28T11:04:45Z</time>
      </trkpt>
      <trkpt lat="42.77071" lon="2.69621">
        <ele>78</ele>
        <time>2021-03-28T11:04:46Z</time>
      </trkpt>
      <trkpt lat="42.77071" lon="2.69621">
        <ele>78</ele>
        <time>2021-03-28T11:04:46Z</time>
      </trkpt>
      <trkpt lat="42.77066" lon="2.69615">
        <ele>78</ele>
        <time>2021-03-28T11:04:48Z</time>
      </trkpt>
      <trkpt lat="42.77066" lon="2.69615">
        <ele>78</ele>
        <time>2021-03-28T11:04:48Z</time>
      </trkpt>
      <trkpt lat="42.77062" lon="2.6961">
        <ele>78</ele>
        <time>2021-03-28T11:04:49Z</time>
      </trkpt>
      <trkpt lat="42.77062" lon="2.6961">
        <ele>78</ele>
        <time>2021-03-28T11:04:49Z</time>
      </trkpt>
      <trkpt lat="42.77055" lon="2.69604">
        <ele>78</ele>
        <time>2021-03-28T11:04:51Z</time>
      </trkpt>
      <trkpt lat="42.77055" lon="2.69604">
        <ele>78</ele>
        <time>2021-03-28T11:04:51Z</time>
      </trkpt>
      <trkpt lat="42.7705" lon="2.69599">
        <ele>78.1</ele>
        <time>2021-03-28T11:04:52Z</time>
      </trkpt>
      <trkpt lat="42.7705" lon="2.69599">
        <ele>78.1</ele>
        <time>2021-03-28T11:04:52Z</time>
      </trkpt>
      <trkpt lat="42.77045" lon="2.69594">
        <ele>78.2</ele>
        <time>2021-03-28T11:04:53Z</time>
      </trkpt>
      <trkpt lat="42.77045" lon="2.69594">
        <ele>78.2</ele>
        <time>2021-03-28T11:04:53Z</time>
      </trkpt>
      <trkpt lat="42.7704" lon="2.69588">
        <ele>78.5</ele>
        <time>2021-03-28T11:04:55Z</time>
      </trkpt>
      <trkpt lat="42.7704" lon="2.69588">
        <ele>78.5</ele>
        <time>2021-03-28T11:04:55Z</time>
      </trkpt>
      <trkpt lat="42.77035" lon="2.69583">
        <ele>78.8</ele>
        <time>2021-03-28T11:04:56Z</time>
      </trkpt>
      <trkpt lat="42.77035" lon="2.69583">
        <ele>78.8</ele>
        <time>2021-03-28T11:04:56Z</time>
      </trkpt>
      <trkpt lat="42.77029" lon="2.69577">
        <ele>78.9</ele>
        <time>2021-03-28T11:04:58Z</time>
      </trkpt>
      <trkpt lat="42.77029" lon="2.69577">
        <ele>78.9</ele>
        <time>2021-03-28T11:04:58Z</time>
      </trkpt>
      <trkpt lat="42.77025" lon="2.69571">
        <ele>78.9</ele>
        <time>2021-03-28T11:04:59Z</time>
      </trkpt>
      <trkpt lat="42.77025" lon="2.69571">
        <ele>78.9</ele>
        <time>2021-03-28T11:04:59Z</time>
      </trkpt>
      <trkpt lat="42.7702" lon="2.69566">
        <ele>78.9</ele>
        <time>2021-03-28T11:05:00Z</time>
      </trkpt>
      <trkpt lat="42.7702" lon="2.69566">
        <ele>78.9</ele>
        <time>2021-03-28T11:05:00Z</time>
      </trkpt>
      <trkpt lat="42.77016" lon="2.69561">
        <ele>78.9</ele>
        <time>2021-03-28T11:05:01Z</time>
      </trkpt>
      <trkpt lat="42.77016" lon="2.69561">
        <ele>78.9</ele>
        <time>2021-03-28T11:05:01Z</time>
      </trkpt>
      <trkpt lat="42.77011" lon="2.69556">
        <ele>79</ele>
        <time>2021-03-28T11:05:03Z</time>
      </trkpt>
      <trkpt lat="42.77011" lon="2.69556">
        <ele>79</ele>
        <time>2021-03-28T11:05:03Z</time>
      </trkpt>
      <trkpt lat="42.77005" lon="2.69549">
        <ele>79</ele>
        <time>2021-03-28T11:05:05Z</time>
      </trkpt>
      <trkpt lat="42.77005" lon="2.69549">
        <ele>79</ele>
        <time>2021-03-28T11:05:05Z</time>
      </trkpt>
      <trkpt lat="42.76999" lon="2.69543">
        <ele>79</ele>
        <time>2021-03-28T11:05:07Z</time>
      </trkpt>
      <trkpt lat="42.76999" lon="2.69543">
        <ele>79</ele>
        <time>2021-03-28T11:05:07Z</time>
      </trkpt>
      <trkpt lat="42.76993" lon="2.69535">
        <ele>79</ele>
        <time>2021-03-28T11:05:09Z</time>
      </trkpt>
      <trkpt lat="42.76993" lon="2.69535">
        <ele>79</ele>
        <time>2021-03-28T11:05:09Z</time>
      </trkpt>
      <trkpt lat="42.76986" lon="2.69527">
        <ele>79</ele>
        <time>2021-03-28T11:05:11Z</time>
      </trkpt>
      <trkpt lat="42.76986" lon="2.69527">
        <ele>79</ele>
        <time>2021-03-28T11:05:11Z</time>
      </trkpt>
      <trkpt lat="42.7698" lon="2.69521">
        <ele>79.2</ele>
        <time>2021-03-28T11:05:12Z</time>
      </trkpt>
      <trkpt lat="42.7698" lon="2.69521">
        <ele>79.2</ele>
        <time>2021-03-28T11:05:12Z</time>
      </trkpt>
      <trkpt lat="42.76975" lon="2.69515">
        <ele>79.4</ele>
        <time>2021-03-28T11:05:13Z</time>
      </trkpt>
      <trkpt lat="42.76975" lon="2.69515">
        <ele>79.4</ele>
        <time>2021-03-28T11:05:13Z</time>
      </trkpt>
      <trkpt lat="42.76969" lon="2.69508">
        <ele>79.6</ele>
        <time>2021-03-28T11:05:15Z</time>
      </trkpt>
      <trkpt lat="42.76969" lon="2.69508">
        <ele>79.6</ele>
        <time>2021-03-28T11:05:15Z</time>
      </trkpt>
      <trkpt lat="42.76963" lon="2.69501">
        <ele>79.6</ele>
        <time>2021-03-28T11:05:17Z</time>
      </trkpt>
      <trkpt lat="42.76963" lon="2.69501">
        <ele>79.6</ele>
        <time>2021-03-28T11:05:17Z</time>
      </trkpt>
      <trkpt lat="42.76957" lon="2.69493">
        <ele>79.5</ele>
        <time>2021-03-28T11:05:19Z</time>
      </trkpt>
      <trkpt lat="42.76957" lon="2.69493">
        <ele>79.5</ele>
        <time>2021-03-28T11:05:19Z</time>
      </trkpt>
      <trkpt lat="42.76952" lon="2.69485">
        <ele>79.5</ele>
        <time>2021-03-28T11:05:21Z</time>
      </trkpt>
      <trkpt lat="42.76952" lon="2.69485">
        <ele>79.5</ele>
        <time>2021-03-28T11:05:21Z</time>
      </trkpt>
      <trkpt lat="42.76946" lon="2.69478">
        <ele>79.8</ele>
        <time>2021-03-28T11:05:23Z</time>
      </trkpt>
      <trkpt lat="42.76946" lon="2.69478">
        <ele>79.8</ele>
        <time>2021-03-28T11:05:23Z</time>
      </trkpt>
      <trkpt lat="42.76942" lon="2.69471">
        <ele>80</ele>
        <time>2021-03-28T11:05:24Z</time>
      </trkpt>
      <trkpt lat="42.76942" lon="2.69471">
        <ele>80</ele>
        <time>2021-03-28T11:05:24Z</time>
      </trkpt>
      <trkpt lat="42.76937" lon="2.69465">
        <ele>80.1</ele>
        <time>2021-03-28T11:05:26Z</time>
      </trkpt>
      <trkpt lat="42.76937" lon="2.69465">
        <ele>80.1</ele>
        <time>2021-03-28T11:05:26Z</time>
      </trkpt>
      <trkpt lat="42.76932" lon="2.69459">
        <ele>80.2</ele>
        <time>2021-03-28T11:05:27Z</time>
      </trkpt>
      <trkpt lat="42.76932" lon="2.69459">
        <ele>80.2</ele>
        <time>2021-03-28T11:05:27Z</time>
      </trkpt>
      <trkpt lat="42.76928" lon="2.69455">
        <ele>80.4</ele>
        <time>2021-03-28T11:05:28Z</time>
      </trkpt>
      <trkpt lat="42.76928" lon="2.69455">
        <ele>80.4</ele>
        <time>2021-03-28T11:05:28Z</time>
      </trkpt>
      <trkpt lat="42.76925" lon="2.6945">
        <ele>80.6</ele>
        <time>2021-03-28T11:05:29Z</time>
      </trkpt>
      <trkpt lat="42.76925" lon="2.6945">
        <ele>80.6</ele>
        <time>2021-03-28T11:05:29Z</time>
      </trkpt>
      <trkpt lat="42.7692" lon="2.69445">
        <ele>80.9</ele>
        <time>2021-03-28T11:05:31Z</time>
      </trkpt>
      <trkpt lat="42.7692" lon="2.69445">
        <ele>80.9</ele>
        <time>2021-03-28T11:05:31Z</time>
      </trkpt>
      <trkpt lat="42.76915" lon="2.69438">
        <ele>80.7</ele>
        <time>2021-03-28T11:05:33Z</time>
      </trkpt>
      <trkpt lat="42.76915" lon="2.69438">
        <ele>80.7</ele>
        <time>2021-03-28T11:05:33Z</time>
      </trkpt>
      <trkpt lat="42.7691" lon="2.69432">
        <ele>80.5</ele>
        <time>2021-03-28T11:05:34Z</time>
      </trkpt>
      <trkpt lat="42.7691" lon="2.69432">
        <ele>80.5</ele>
        <time>2021-03-28T11:05:34Z</time>
      </trkpt>
      <trkpt lat="42.76904" lon="2.69426">
        <ele>80.5</ele>
        <time>2021-03-28T11:05:36Z</time>
      </trkpt>
      <trkpt lat="42.76904" lon="2.69426">
        <ele>80.5</ele>
        <time>2021-03-28T11:05:36Z</time>
      </trkpt>
      <trkpt lat="42.76898" lon="2.69419">
        <ele>80.6</ele>
        <time>2021-03-28T11:05:38Z</time>
      </trkpt>
      <trkpt lat="42.76898" lon="2.69419">
        <ele>80.6</ele>
        <time>2021-03-28T11:05:38Z</time>
      </trkpt>
      <trkpt lat="42.76893" lon="2.69413">
        <ele>80.8</ele>
        <time>2021-03-28T11:05:39Z</time>
      </trkpt>
      <trkpt lat="42.76893" lon="2.69413">
        <ele>80.8</ele>
        <time>2021-03-28T11:05:39Z</time>
      </trkpt>
      <trkpt lat="42.76888" lon="2.69407">
        <ele>81</ele>
        <time>2021-03-28T11:05:41Z</time>
      </trkpt>
      <trkpt lat="42.76888" lon="2.69407">
        <ele>81</ele>
        <time>2021-03-28T11:05:41Z</time>
      </trkpt>
      <trkpt lat="42.76882" lon="2.694">
        <ele>81.1</ele>
        <time>2021-03-28T11:05:43Z</time>
      </trkpt>
      <trkpt lat="42.76882" lon="2.694">
        <ele>81.1</ele>
        <time>2021-03-28T11:05:43Z</time>
      </trkpt>
      <trkpt lat="42.76878" lon="2.69394">
        <ele>81.3</ele>
        <time>2021-03-28T11:05:44Z</time>
      </trkpt>
      <trkpt lat="42.76878" lon="2.69394">
        <ele>81.3</ele>
        <time>2021-03-28T11:05:44Z</time>
      </trkpt>
      <trkpt lat="42.76874" lon="2.69389">
        <ele>81.5</ele>
        <time>2021-03-28T11:05:45Z</time>
      </trkpt>
      <trkpt lat="42.76874" lon="2.69389">
        <ele>81.5</ele>
        <time>2021-03-28T11:05:45Z</time>
      </trkpt>
      <trkpt lat="42.76869" lon="2.69382">
        <ele>81.7</ele>
        <time>2021-03-28T11:05:47Z</time>
      </trkpt>
      <trkpt lat="42.76869" lon="2.69382">
        <ele>81.7</ele>
        <time>2021-03-28T11:05:47Z</time>
      </trkpt>
      <trkpt lat="42.76865" lon="2.69376">
        <ele>81.9</ele>
        <time>2021-03-28T11:05:48Z</time>
      </trkpt>
      <trkpt lat="42.76865" lon="2.69376">
        <ele>81.9</ele>
        <time>2021-03-28T11:05:48Z</time>
      </trkpt>
      <trkpt lat="42.7686" lon="2.6937">
        <ele>82.1</ele>
        <time>2021-03-28T11:05:50Z</time>
      </trkpt>
      <trkpt lat="42.7686" lon="2.6937">
        <ele>82.1</ele>
        <time>2021-03-28T11:05:50Z</time>
      </trkpt>
      <trkpt lat="42.76856" lon="2.69365">
        <ele>82.2</ele>
        <time>2021-03-28T11:05:51Z</time>
      </trkpt>
      <trkpt lat="42.76856" lon="2.69365">
        <ele>82.2</ele>
        <time>2021-03-28T11:05:51Z</time>
      </trkpt>
      <trkpt lat="42.76851" lon="2.69359">
        <ele>82.4</ele>
        <time>2021-03-28T11:05:53Z</time>
      </trkpt>
      <trkpt lat="42.76851" lon="2.69359">
        <ele>82.4</ele>
        <time>2021-03-28T11:05:53Z</time>
      </trkpt>
      <trkpt lat="42.76846" lon="2.69354">
        <ele>82.5</ele>
        <time>2021-03-28T11:05:54Z</time>
      </trkpt>
      <trkpt lat="42.76846" lon="2.69354">
        <ele>82.5</ele>
        <time>2021-03-28T11:05:54Z</time>
      </trkpt>
      <trkpt lat="42.76841" lon="2.69349">
        <ele>82.7</ele>
        <time>2021-03-28T11:05:56Z</time>
      </trkpt>
      <trkpt lat="42.76841" lon="2.69349">
        <ele>82.7</ele>
        <time>2021-03-28T11:05:56Z</time>
      </trkpt>
      <trkpt lat="42.76836" lon="2.69343">
        <ele>82.9</ele>
        <time>2021-03-28T11:05:58Z</time>
      </trkpt>
      <trkpt lat="42.76836" lon="2.69343">
        <ele>82.9</ele>
        <time>2021-03-28T11:05:58Z</time>
      </trkpt>
      <trkpt lat="42.76831" lon="2.69338">
        <ele>83</ele>
        <time>2021-03-28T11:05:59Z</time>
      </trkpt>
      <trkpt lat="42.76831" lon="2.69338">
        <ele>83</ele>
        <time>2021-03-28T11:05:59Z</time>
      </trkpt>
      <trkpt lat="42.76826" lon="2.69333">
        <ele>83</ele>
        <time>2021-03-28T11:06:00Z</time>
      </trkpt>
      <trkpt lat="42.76826" lon="2.69333">
        <ele>83</ele>
        <time>2021-03-28T11:06:00Z</time>
      </trkpt>
      <trkpt lat="42.76822" lon="2.69329">
        <ele>83</ele>
        <time>2021-03-28T11:06:01Z</time>
      </trkpt>
      <trkpt lat="42.76822" lon="2.69329">
        <ele>83</ele>
        <time>2021-03-28T11:06:01Z</time>
      </trkpt>
      <trkpt lat="42.76817" lon="2.69323">
        <ele>83.1</ele>
        <time>2021-03-28T11:06:03Z</time>
      </trkpt>
      <trkpt lat="42.76817" lon="2.69323">
        <ele>83.1</ele>
        <time>2021-03-28T11:06:03Z</time>
      </trkpt>
      <trkpt lat="42.76812" lon="2.69317">
        <ele>83.3</ele>
        <time>2021-03-28T11:06:05Z</time>
      </trkpt>
      <trkpt lat="42.76812" lon="2.69317">
        <ele>83.3</ele>
        <time>2021-03-28T11:06:05Z</time>
      </trkpt>
      <trkpt lat="42.76808" lon="2.69312">
        <ele>83.7</ele>
        <time>2021-03-28T11:06:06Z</time>
      </trkpt>
      <trkpt lat="42.76808" lon="2.69312">
        <ele>83.7</ele>
        <time>2021-03-28T11:06:06Z</time>
      </trkpt>
      <trkpt lat="42.76803" lon="2.69306">
        <ele>84.2</ele>
        <time>2021-03-28T11:06:08Z</time>
      </trkpt>
      <trkpt lat="42.76803" lon="2.69306">
        <ele>84.2</ele>
        <time>2021-03-28T11:06:08Z</time>
      </trkpt>
      <trkpt lat="42.76799" lon="2.69301">
        <ele>84.3</ele>
        <time>2021-03-28T11:06:09Z</time>
      </trkpt>
      <trkpt lat="42.76799" lon="2.69301">
        <ele>84.3</ele>
        <time>2021-03-28T11:06:09Z</time>
      </trkpt>
      <trkpt lat="42.76794" lon="2.69296">
        <ele>84.5</ele>
        <time>2021-03-28T11:06:11Z</time>
      </trkpt>
      <trkpt lat="42.76794" lon="2.69296">
        <ele>84.5</ele>
        <time>2021-03-28T11:06:11Z</time>
      </trkpt>
      <trkpt lat="42.76789" lon="2.6929">
        <ele>84.6</ele>
        <time>2021-03-28T11:06:13Z</time>
      </trkpt>
      <trkpt lat="42.76789" lon="2.6929">
        <ele>84.6</ele>
        <time>2021-03-28T11:06:13Z</time>
      </trkpt>
      <trkpt lat="42.76784" lon="2.69284">
        <ele>84.8</ele>
        <time>2021-03-28T11:06:15Z</time>
      </trkpt>
      <trkpt lat="42.76784" lon="2.69284">
        <ele>84.8</ele>
        <time>2021-03-28T11:06:15Z</time>
      </trkpt>
      <trkpt lat="42.76778" lon="2.69277">
        <ele>84.9</ele>
        <time>2021-03-28T11:06:17Z</time>
      </trkpt>
      <trkpt lat="42.76778" lon="2.69277">
        <ele>84.9</ele>
        <time>2021-03-28T11:06:17Z</time>
      </trkpt>
      <trkpt lat="42.76773" lon="2.6927">
        <ele>85</ele>
        <time>2021-03-28T11:06:19Z</time>
      </trkpt>
      <trkpt lat="42.76773" lon="2.6927">
        <ele>85</ele>
        <time>2021-03-28T11:06:19Z</time>
      </trkpt>
      <trkpt lat="42.76768" lon="2.69264">
        <ele>85</ele>
        <time>2021-03-28T11:06:20Z</time>
      </trkpt>
      <trkpt lat="42.76768" lon="2.69264">
        <ele>85</ele>
        <time>2021-03-28T11:06:20Z</time>
      </trkpt>
      <trkpt lat="42.76763" lon="2.69257">
        <ele>85.2</ele>
        <time>2021-03-28T11:06:22Z</time>
      </trkpt>
      <trkpt lat="42.76763" lon="2.69257">
        <ele>85.2</ele>
        <time>2021-03-28T11:06:22Z</time>
      </trkpt>
      <trkpt lat="42.76759" lon="2.69251">
        <ele>85.4</ele>
        <time>2021-03-28T11:06:23Z</time>
      </trkpt>
      <trkpt lat="42.76759" lon="2.69251">
        <ele>85.4</ele>
        <time>2021-03-28T11:06:23Z</time>
      </trkpt>
      <trkpt lat="42.76755" lon="2.69245">
        <ele>85.7</ele>
        <time>2021-03-28T11:06:25Z</time>
      </trkpt>
      <trkpt lat="42.76755" lon="2.69245">
        <ele>85.7</ele>
        <time>2021-03-28T11:06:25Z</time>
      </trkpt>
      <trkpt lat="42.7675" lon="2.69238">
        <ele>86</ele>
        <time>2021-03-28T11:06:27Z</time>
      </trkpt>
      <trkpt lat="42.7675" lon="2.69238">
        <ele>86</ele>
        <time>2021-03-28T11:06:27Z</time>
      </trkpt>
      <trkpt lat="42.76744" lon="2.6923">
        <ele>86</ele>
        <time>2021-03-28T11:06:29Z</time>
      </trkpt>
      <trkpt lat="42.76744" lon="2.6923">
        <ele>86</ele>
        <time>2021-03-28T11:06:29Z</time>
      </trkpt>
      <trkpt lat="42.76739" lon="2.69221">
        <ele>86</ele>
        <time>2021-03-28T11:06:31Z</time>
      </trkpt>
      <trkpt lat="42.76739" lon="2.69221">
        <ele>86</ele>
        <time>2021-03-28T11:06:31Z</time>
      </trkpt>
      <trkpt lat="42.76734" lon="2.69213">
        <ele>85.8</ele>
        <time>2021-03-28T11:06:33Z</time>
      </trkpt>
      <trkpt lat="42.76734" lon="2.69213">
        <ele>85.8</ele>
        <time>2021-03-28T11:06:33Z</time>
      </trkpt>
      <trkpt lat="42.76729" lon="2.69204">
        <ele>85.5</ele>
        <time>2021-03-28T11:06:35Z</time>
      </trkpt>
      <trkpt lat="42.76729" lon="2.69204">
        <ele>85.5</ele>
        <time>2021-03-28T11:06:35Z</time>
      </trkpt>
      <trkpt lat="42.76725" lon="2.69196">
        <ele>85.2</ele>
        <time>2021-03-28T11:06:36Z</time>
      </trkpt>
      <trkpt lat="42.76725" lon="2.69196">
        <ele>85.2</ele>
        <time>2021-03-28T11:06:36Z</time>
      </trkpt>
      <trkpt lat="42.7672" lon="2.69189">
        <ele>85.1</ele>
        <time>2021-03-28T11:06:38Z</time>
      </trkpt>
      <trkpt lat="42.7672" lon="2.69189">
        <ele>85.1</ele>
        <time>2021-03-28T11:06:38Z</time>
      </trkpt>
      <trkpt lat="42.76716" lon="2.69182">
        <ele>85.2</ele>
        <time>2021-03-28T11:06:39Z</time>
      </trkpt>
      <trkpt lat="42.76716" lon="2.69182">
        <ele>85.2</ele>
        <time>2021-03-28T11:06:39Z</time>
      </trkpt>
      <trkpt lat="42.76711" lon="2.69174">
        <ele>85.4</ele>
        <time>2021-03-28T11:06:41Z</time>
      </trkpt>
      <trkpt lat="42.76711" lon="2.69174">
        <ele>85.4</ele>
        <time>2021-03-28T11:06:41Z</time>
      </trkpt>
      <trkpt lat="42.76706" lon="2.69166">
        <ele>85.6</ele>
        <time>2021-03-28T11:06:43Z</time>
      </trkpt>
      <trkpt lat="42.76706" lon="2.69166">
        <ele>85.6</ele>
        <time>2021-03-28T11:06:43Z</time>
      </trkpt>
      <trkpt lat="42.767" lon="2.69157">
        <ele>85.8</ele>
        <time>2021-03-28T11:06:45Z</time>
      </trkpt>
      <trkpt lat="42.767" lon="2.69157">
        <ele>85.8</ele>
        <time>2021-03-28T11:06:45Z</time>
      </trkpt>
      <trkpt lat="42.76695" lon="2.69149">
        <ele>86</ele>
        <time>2021-03-28T11:06:46Z</time>
      </trkpt>
      <trkpt lat="42.76695" lon="2.69149">
        <ele>86</ele>
        <time>2021-03-28T11:06:46Z</time>
      </trkpt>
      <trkpt lat="42.7669" lon="2.6914">
        <ele>86.2</ele>
        <time>2021-03-28T11:06:48Z</time>
      </trkpt>
      <trkpt lat="42.7669" lon="2.6914">
        <ele>86.2</ele>
        <time>2021-03-28T11:06:48Z</time>
      </trkpt>
      <trkpt lat="42.76684" lon="2.69131">
        <ele>86.2</ele>
        <time>2021-03-28T11:06:50Z</time>
      </trkpt>
      <trkpt lat="42.76684" lon="2.69131">
        <ele>86.2</ele>
        <time>2021-03-28T11:06:50Z</time>
      </trkpt>
      <trkpt lat="42.76679" lon="2.69123">
        <ele>86.3</ele>
        <time>2021-03-28T11:06:51Z</time>
      </trkpt>
      <trkpt lat="42.76679" lon="2.69123">
        <ele>86.3</ele>
        <time>2021-03-28T11:06:51Z</time>
      </trkpt>
      <trkpt lat="42.76675" lon="2.69116">
        <ele>86.5</ele>
        <time>2021-03-28T11:06:52Z</time>
      </trkpt>
      <trkpt lat="42.76675" lon="2.69116">
        <ele>86.5</ele>
        <time>2021-03-28T11:06:52Z</time>
      </trkpt>
      <trkpt lat="42.76669" lon="2.69107">
        <ele>86.7</ele>
        <time>2021-03-28T11:06:54Z</time>
      </trkpt>
      <trkpt lat="42.76669" lon="2.69107">
        <ele>86.7</ele>
        <time>2021-03-28T11:06:54Z</time>
      </trkpt>
      <trkpt lat="42.76664" lon="2.691">
        <ele>86.6</ele>
        <time>2021-03-28T11:06:55Z</time>
      </trkpt>
      <trkpt lat="42.76664" lon="2.691">
        <ele>86.6</ele>
        <time>2021-03-28T11:06:55Z</time>
      </trkpt>
      <trkpt lat="42.76659" lon="2.69093">
        <ele>86.5</ele>
        <time>2021-03-28T11:06:56Z</time>
      </trkpt>
      <trkpt lat="42.76659" lon="2.69093">
        <ele>86.5</ele>
        <time>2021-03-28T11:06:56Z</time>
      </trkpt>
      <trkpt lat="42.76654" lon="2.69086">
        <ele>86.5</ele>
        <time>2021-03-28T11:06:58Z</time>
      </trkpt>
      <trkpt lat="42.76654" lon="2.69086">
        <ele>86.5</ele>
        <time>2021-03-28T11:06:58Z</time>
      </trkpt>
      <trkpt lat="42.76649" lon="2.6908">
        <ele>86.6</ele>
        <time>2021-03-28T11:06:59Z</time>
      </trkpt>
      <trkpt lat="42.76649" lon="2.6908">
        <ele>86.6</ele>
        <time>2021-03-28T11:06:59Z</time>
      </trkpt>
      <trkpt lat="42.76643" lon="2.69073">
        <ele>86.5</ele>
        <time>2021-03-28T11:07:01Z</time>
      </trkpt>
      <trkpt lat="42.76643" lon="2.69073">
        <ele>86.5</ele>
        <time>2021-03-28T11:07:01Z</time>
      </trkpt>
      <trkpt lat="42.76637" lon="2.69065">
        <ele>86.4</ele>
        <time>2021-03-28T11:07:03Z</time>
      </trkpt>
      <trkpt lat="42.76637" lon="2.69065">
        <ele>86.4</ele>
        <time>2021-03-28T11:07:03Z</time>
      </trkpt>
      <trkpt lat="42.76631" lon="2.69056">
        <ele>86.3</ele>
        <time>2021-03-28T11:07:05Z</time>
      </trkpt>
      <trkpt lat="42.76631" lon="2.69056">
        <ele>86.3</ele>
        <time>2021-03-28T11:07:05Z</time>
      </trkpt>
      <trkpt lat="42.76626" lon="2.69048">
        <ele>86.3</ele>
        <time>2021-03-28T11:07:06Z</time>
      </trkpt>
      <trkpt lat="42.76626" lon="2.69048">
        <ele>86.3</ele>
        <time>2021-03-28T11:07:06Z</time>
      </trkpt>
      <trkpt lat="42.76621" lon="2.6904">
        <ele>86.5</ele>
        <time>2021-03-28T11:07:08Z</time>
      </trkpt>
      <trkpt lat="42.76621" lon="2.6904">
        <ele>86.5</ele>
        <time>2021-03-28T11:07:08Z</time>
      </trkpt>
      <trkpt lat="42.76616" lon="2.69033">
        <ele>86.7</ele>
        <time>2021-03-28T11:07:09Z</time>
      </trkpt>
      <trkpt lat="42.76616" lon="2.69033">
        <ele>86.7</ele>
        <time>2021-03-28T11:07:09Z</time>
      </trkpt>
      <trkpt lat="42.76611" lon="2.69025">
        <ele>86.9</ele>
        <time>2021-03-28T11:07:11Z</time>
      </trkpt>
      <trkpt lat="42.76611" lon="2.69025">
        <ele>86.9</ele>
        <time>2021-03-28T11:07:11Z</time>
      </trkpt>
      <trkpt lat="42.76606" lon="2.69018">
        <ele>86.8</ele>
        <time>2021-03-28T11:07:12Z</time>
      </trkpt>
      <trkpt lat="42.76606" lon="2.69018">
        <ele>86.8</ele>
        <time>2021-03-28T11:07:12Z</time>
      </trkpt>
      <trkpt lat="42.76602" lon="2.6901">
        <ele>86.7</ele>
        <time>2021-03-28T11:07:14Z</time>
      </trkpt>
      <trkpt lat="42.76602" lon="2.6901">
        <ele>86.7</ele>
        <time>2021-03-28T11:07:14Z</time>
      </trkpt>
      <trkpt lat="42.76596" lon="2.69002">
        <ele>86.6</ele>
        <time>2021-03-28T11:07:16Z</time>
      </trkpt>
      <trkpt lat="42.76596" lon="2.69002">
        <ele>86.6</ele>
        <time>2021-03-28T11:07:16Z</time>
      </trkpt>
      <trkpt lat="42.76591" lon="2.68995">
        <ele>86.5</ele>
        <time>2021-03-28T11:07:17Z</time>
      </trkpt>
      <trkpt lat="42.76591" lon="2.68995">
        <ele>86.5</ele>
        <time>2021-03-28T11:07:17Z</time>
      </trkpt>
      <trkpt lat="42.76586" lon="2.68987">
        <ele>86.4</ele>
        <time>2021-03-28T11:07:19Z</time>
      </trkpt>
      <trkpt lat="42.76586" lon="2.68987">
        <ele>86.4</ele>
        <time>2021-03-28T11:07:19Z</time>
      </trkpt>
      <trkpt lat="42.76581" lon="2.68979">
        <ele>86.2</ele>
        <time>2021-03-28T11:07:21Z</time>
      </trkpt>
      <trkpt lat="42.76581" lon="2.68979">
        <ele>86.2</ele>
        <time>2021-03-28T11:07:21Z</time>
      </trkpt>
      <trkpt lat="42.76575" lon="2.6897">
        <ele>85.9</ele>
        <time>2021-03-28T11:07:23Z</time>
      </trkpt>
      <trkpt lat="42.76575" lon="2.6897">
        <ele>85.9</ele>
        <time>2021-03-28T11:07:23Z</time>
      </trkpt>
      <trkpt lat="42.76569" lon="2.6896">
        <ele>85.8</ele>
        <time>2021-03-28T11:07:25Z</time>
      </trkpt>
      <trkpt lat="42.76569" lon="2.6896">
        <ele>85.8</ele>
        <time>2021-03-28T11:07:25Z</time>
      </trkpt>
      <trkpt lat="42.76563" lon="2.6895">
        <ele>85.8</ele>
        <time>2021-03-28T11:07:27Z</time>
      </trkpt>
      <trkpt lat="42.76563" lon="2.6895">
        <ele>85.8</ele>
        <time>2021-03-28T11:07:27Z</time>
      </trkpt>
      <trkpt lat="42.76557" lon="2.6894">
        <ele>86.1</ele>
        <time>2021-03-28T11:07:29Z</time>
      </trkpt>
      <trkpt lat="42.76557" lon="2.6894">
        <ele>86.1</ele>
        <time>2021-03-28T11:07:29Z</time>
      </trkpt>
      <trkpt lat="42.7655" lon="2.6893">
        <ele>86.6</ele>
        <time>2021-03-28T11:07:31Z</time>
      </trkpt>
      <trkpt lat="42.7655" lon="2.6893">
        <ele>86.6</ele>
        <time>2021-03-28T11:07:31Z</time>
      </trkpt>
      <trkpt lat="42.76544" lon="2.68921">
        <ele>86.9</ele>
        <time>2021-03-28T11:07:33Z</time>
      </trkpt>
      <trkpt lat="42.76544" lon="2.68921">
        <ele>86.9</ele>
        <time>2021-03-28T11:07:33Z</time>
      </trkpt>
      <trkpt lat="42.76539" lon="2.68911">
        <ele>86.8</ele>
        <time>2021-03-28T11:07:35Z</time>
      </trkpt>
      <trkpt lat="42.76539" lon="2.68911">
        <ele>86.8</ele>
        <time>2021-03-28T11:07:35Z</time>
      </trkpt>
      <trkpt lat="42.76534" lon="2.68903">
        <ele>86.8</ele>
        <time>2021-03-28T11:07:36Z</time>
      </trkpt>
      <trkpt lat="42.76534" lon="2.68903">
        <ele>86.8</ele>
        <time>2021-03-28T11:07:36Z</time>
      </trkpt>
      <trkpt lat="42.7653" lon="2.68896">
        <ele>86.9</ele>
        <time>2021-03-28T11:07:37Z</time>
      </trkpt>
      <trkpt lat="42.7653" lon="2.68896">
        <ele>86.9</ele>
        <time>2021-03-28T11:07:37Z</time>
      </trkpt>
      <trkpt lat="42.76526" lon="2.68887">
        <ele>87</ele>
        <time>2021-03-28T11:07:39Z</time>
      </trkpt>
      <trkpt lat="42.76526" lon="2.68887">
        <ele>87</ele>
        <time>2021-03-28T11:07:39Z</time>
      </trkpt>
      <trkpt lat="42.76521" lon="2.68878">
        <ele>86.9</ele>
        <time>2021-03-28T11:07:41Z</time>
      </trkpt>
      <trkpt lat="42.76521" lon="2.68878">
        <ele>86.9</ele>
        <time>2021-03-28T11:07:41Z</time>
      </trkpt>
      <trkpt lat="42.76517" lon="2.68871">
        <ele>87</ele>
        <time>2021-03-28T11:07:42Z</time>
      </trkpt>
      <trkpt lat="42.76517" lon="2.68871">
        <ele>87</ele>
        <time>2021-03-28T11:07:42Z</time>
      </trkpt>
      <trkpt lat="42.76513" lon="2.68863">
        <ele>87.1</ele>
        <time>2021-03-28T11:07:44Z</time>
      </trkpt>
      <trkpt lat="42.76513" lon="2.68863">
        <ele>87.1</ele>
        <time>2021-03-28T11:07:44Z</time>
      </trkpt>
      <trkpt lat="42.76509" lon="2.68856">
        <ele>87.3</ele>
        <time>2021-03-28T11:07:45Z</time>
      </trkpt>
      <trkpt lat="42.76509" lon="2.68856">
        <ele>87.3</ele>
        <time>2021-03-28T11:07:45Z</time>
      </trkpt>
      <trkpt lat="42.76504" lon="2.68848">
        <ele>87.6</ele>
        <time>2021-03-28T11:07:47Z</time>
      </trkpt>
      <trkpt lat="42.76504" lon="2.68848">
        <ele>87.6</ele>
        <time>2021-03-28T11:07:47Z</time>
      </trkpt>
      <trkpt lat="42.765" lon="2.68841">
        <ele>88</ele>
        <time>2021-03-28T11:07:48Z</time>
      </trkpt>
      <trkpt lat="42.765" lon="2.68841">
        <ele>88</ele>
        <time>2021-03-28T11:07:48Z</time>
      </trkpt>
      <trkpt lat="42.76497" lon="2.68834">
        <ele>88</ele>
        <time>2021-03-28T11:07:50Z</time>
      </trkpt>
      <trkpt lat="42.76497" lon="2.68834">
        <ele>88</ele>
        <time>2021-03-28T11:07:50Z</time>
      </trkpt>
      <trkpt lat="42.76494" lon="2.68828">
        <ele>87.7</ele>
        <time>2021-03-28T11:07:51Z</time>
      </trkpt>
      <trkpt lat="42.76494" lon="2.68828">
        <ele>87.7</ele>
        <time>2021-03-28T11:07:51Z</time>
      </trkpt>
      <trkpt lat="42.76491" lon="2.68823">
        <ele>87.6</ele>
        <time>2021-03-28T11:07:52Z</time>
      </trkpt>
      <trkpt lat="42.76491" lon="2.68823">
        <ele>87.6</ele>
        <time>2021-03-28T11:07:52Z</time>
      </trkpt>
      <trkpt lat="42.76487" lon="2.68816">
        <ele>87.7</ele>
        <time>2021-03-28T11:07:54Z</time>
      </trkpt>
      <trkpt lat="42.76487" lon="2.68816">
        <ele>87.7</ele>
        <time>2021-03-28T11:07:54Z</time>
      </trkpt>
      <trkpt lat="42.76483" lon="2.6881">
        <ele>87.9</ele>
        <time>2021-03-28T11:07:55Z</time>
      </trkpt>
      <trkpt lat="42.76483" lon="2.6881">
        <ele>87.9</ele>
        <time>2021-03-28T11:07:55Z</time>
      </trkpt>
      <trkpt lat="42.76478" lon="2.68804">
        <ele>88.2</ele>
        <time>2021-03-28T11:07:57Z</time>
      </trkpt>
      <trkpt lat="42.76478" lon="2.68804">
        <ele>88.2</ele>
        <time>2021-03-28T11:07:57Z</time>
      </trkpt>
      <trkpt lat="42.76474" lon="2.68798">
        <ele>88.3</ele>
        <time>2021-03-28T11:07:58Z</time>
      </trkpt>
      <trkpt lat="42.76474" lon="2.68798">
        <ele>88.3</ele>
        <time>2021-03-28T11:07:58Z</time>
      </trkpt>
      <trkpt lat="42.76471" lon="2.68792">
        <ele>88.2</ele>
        <time>2021-03-28T11:07:59Z</time>
      </trkpt>
      <trkpt lat="42.76471" lon="2.68792">
        <ele>88.2</ele>
        <time>2021-03-28T11:07:59Z</time>
      </trkpt>
      <trkpt lat="42.76467" lon="2.68787">
        <ele>88.1</ele>
        <time>2021-03-28T11:08:00Z</time>
      </trkpt>
      <trkpt lat="42.76467" lon="2.68787">
        <ele>88.1</ele>
        <time>2021-03-28T11:08:00Z</time>
      </trkpt>
      <trkpt lat="42.76463" lon="2.68781">
        <ele>88.2</ele>
        <time>2021-03-28T11:08:02Z</time>
      </trkpt>
      <trkpt lat="42.76463" lon="2.68781">
        <ele>88.2</ele>
        <time>2021-03-28T11:08:02Z</time>
      </trkpt>
      <trkpt lat="42.76458" lon="2.68774">
        <ele>88.6</ele>
        <time>2021-03-28T11:08:04Z</time>
      </trkpt>
      <trkpt lat="42.76458" lon="2.68774">
        <ele>88.6</ele>
        <time>2021-03-28T11:08:04Z</time>
      </trkpt>
      <trkpt lat="42.76453" lon="2.68768">
        <ele>89.2</ele>
        <time>2021-03-28T11:08:05Z</time>
      </trkpt>
      <trkpt lat="42.76453" lon="2.68768">
        <ele>89.2</ele>
        <time>2021-03-28T11:08:05Z</time>
      </trkpt>
      <trkpt lat="42.76449" lon="2.68761">
        <ele>89.9</ele>
        <time>2021-03-28T11:08:07Z</time>
      </trkpt>
      <trkpt lat="42.76449" lon="2.68761">
        <ele>89.9</ele>
        <time>2021-03-28T11:08:07Z</time>
      </trkpt>
      <trkpt lat="42.76445" lon="2.68754">
        <ele>90.7</ele>
        <time>2021-03-28T11:08:09Z</time>
      </trkpt>
      <trkpt lat="42.76445" lon="2.68754">
        <ele>90.7</ele>
        <time>2021-03-28T11:08:09Z</time>
      </trkpt>
      <trkpt lat="42.76441" lon="2.68747">
        <ele>90.7</ele>
        <time>2021-03-28T11:08:11Z</time>
      </trkpt>
      <trkpt lat="42.76441" lon="2.68747">
        <ele>90.7</ele>
        <time>2021-03-28T11:08:11Z</time>
      </trkpt>
      <trkpt lat="42.76436" lon="2.6874">
        <ele>90.2</ele>
        <time>2021-03-28T11:08:13Z</time>
      </trkpt>
      <trkpt lat="42.76436" lon="2.6874">
        <ele>90.2</ele>
        <time>2021-03-28T11:08:13Z</time>
      </trkpt>
      <trkpt lat="42.76432" lon="2.68732">
        <ele>90</ele>
        <time>2021-03-28T11:08:15Z</time>
      </trkpt>
      <trkpt lat="42.76432" lon="2.68732">
        <ele>90</ele>
        <time>2021-03-28T11:08:15Z</time>
      </trkpt>
      <trkpt lat="42.76427" lon="2.68724">
        <ele>90.2</ele>
        <time>2021-03-28T11:08:17Z</time>
      </trkpt>
      <trkpt lat="42.76427" lon="2.68724">
        <ele>90.2</ele>
        <time>2021-03-28T11:08:17Z</time>
      </trkpt>
      <trkpt lat="42.76422" lon="2.68716">
        <ele>90.9</ele>
        <time>2021-03-28T11:08:19Z</time>
      </trkpt>
      <trkpt lat="42.76422" lon="2.68716">
        <ele>90.9</ele>
        <time>2021-03-28T11:08:19Z</time>
      </trkpt>
      <trkpt lat="42.76418" lon="2.6871">
        <ele>91.7</ele>
        <time>2021-03-28T11:08:20Z</time>
      </trkpt>
      <trkpt lat="42.76418" lon="2.6871">
        <ele>91.7</ele>
        <time>2021-03-28T11:08:20Z</time>
      </trkpt>
      <trkpt lat="42.76414" lon="2.68704">
        <ele>92.3</ele>
        <time>2021-03-28T11:08:22Z</time>
      </trkpt>
      <trkpt lat="42.76414" lon="2.68704">
        <ele>92.3</ele>
        <time>2021-03-28T11:08:22Z</time>
      </trkpt>
      <trkpt lat="42.7641" lon="2.68697">
        <ele>92.7</ele>
        <time>2021-03-28T11:08:24Z</time>
      </trkpt>
      <trkpt lat="42.7641" lon="2.68697">
        <ele>92.7</ele>
        <time>2021-03-28T11:08:24Z</time>
      </trkpt>
      <trkpt lat="42.76406" lon="2.68689">
        <ele>92.7</ele>
        <time>2021-03-28T11:08:26Z</time>
      </trkpt>
      <trkpt lat="42.76406" lon="2.68689">
        <ele>92.7</ele>
        <time>2021-03-28T11:08:26Z</time>
      </trkpt>
      <trkpt lat="42.76402" lon="2.68683">
        <ele>92.8</ele>
        <time>2021-03-28T11:08:27Z</time>
      </trkpt>
      <trkpt lat="42.76402" lon="2.68683">
        <ele>92.8</ele>
        <time>2021-03-28T11:08:27Z</time>
      </trkpt>
      <trkpt lat="42.76399" lon="2.68678">
        <ele>93</ele>
        <time>2021-03-28T11:08:28Z</time>
      </trkpt>
      <trkpt lat="42.76399" lon="2.68678">
        <ele>93</ele>
        <time>2021-03-28T11:08:28Z</time>
      </trkpt>
      <trkpt lat="42.76397" lon="2.68673">
        <ele>93.3</ele>
        <time>2021-03-28T11:08:29Z</time>
      </trkpt>
      <trkpt lat="42.76397" lon="2.68673">
        <ele>93.3</ele>
        <time>2021-03-28T11:08:29Z</time>
      </trkpt>
      <trkpt lat="42.76394" lon="2.68667">
        <ele>93.8</ele>
        <time>2021-03-28T11:08:31Z</time>
      </trkpt>
      <trkpt lat="42.76394" lon="2.68667">
        <ele>93.8</ele>
        <time>2021-03-28T11:08:31Z</time>
      </trkpt>
      <trkpt lat="42.76391" lon="2.68662">
        <ele>94.1</ele>
        <time>2021-03-28T11:08:32Z</time>
      </trkpt>
      <trkpt lat="42.76391" lon="2.68662">
        <ele>94.1</ele>
        <time>2021-03-28T11:08:32Z</time>
      </trkpt>
      <trkpt lat="42.76388" lon="2.68658">
        <ele>94</ele>
        <time>2021-03-28T11:08:33Z</time>
      </trkpt>
      <trkpt lat="42.76388" lon="2.68658">
        <ele>94</ele>
        <time>2021-03-28T11:08:33Z</time>
      </trkpt>
      <trkpt lat="42.76385" lon="2.68652">
        <ele>93.5</ele>
        <time>2021-03-28T11:08:35Z</time>
      </trkpt>
      <trkpt lat="42.76385" lon="2.68652">
        <ele>93.5</ele>
        <time>2021-03-28T11:08:35Z</time>
      </trkpt>
      <trkpt lat="42.76381" lon="2.68646">
        <ele>93.2</ele>
        <time>2021-03-28T11:08:37Z</time>
      </trkpt>
      <trkpt lat="42.76381" lon="2.68646">
        <ele>93.2</ele>
        <time>2021-03-28T11:08:37Z</time>
      </trkpt>
      <trkpt lat="42.76377" lon="2.68639">
        <ele>92.9</ele>
        <time>2021-03-28T11:08:39Z</time>
      </trkpt>
      <trkpt lat="42.76377" lon="2.68639">
        <ele>92.9</ele>
        <time>2021-03-28T11:08:39Z</time>
      </trkpt>
      <trkpt lat="42.76374" lon="2.68633">
        <ele>93.1</ele>
        <time>2021-03-28T11:08:40Z</time>
      </trkpt>
      <trkpt lat="42.76374" lon="2.68633">
        <ele>93.1</ele>
        <time>2021-03-28T11:08:40Z</time>
      </trkpt>
      <trkpt lat="42.7637" lon="2.68627">
        <ele>93.5</ele>
        <time>2021-03-28T11:08:42Z</time>
      </trkpt>
      <trkpt lat="42.7637" lon="2.68627">
        <ele>93.5</ele>
        <time>2021-03-28T11:08:42Z</time>
      </trkpt>
      <trkpt lat="42.76366" lon="2.68621">
        <ele>94.1</ele>
        <time>2021-03-28T11:08:44Z</time>
      </trkpt>
      <trkpt lat="42.76366" lon="2.68621">
        <ele>94.1</ele>
        <time>2021-03-28T11:08:44Z</time>
      </trkpt>
      <trkpt lat="42.76362" lon="2.68615">
        <ele>94.8</ele>
        <time>2021-03-28T11:08:46Z</time>
      </trkpt>
      <trkpt lat="42.76362" lon="2.68615">
        <ele>94.8</ele>
        <time>2021-03-28T11:08:46Z</time>
      </trkpt>
      <trkpt lat="42.76358" lon="2.6861">
        <ele>94.9</ele>
        <time>2021-03-28T11:08:47Z</time>
      </trkpt>
      <trkpt lat="42.76358" lon="2.6861">
        <ele>94.9</ele>
        <time>2021-03-28T11:08:47Z</time>
      </trkpt>
      <trkpt lat="42.76353" lon="2.68603">
        <ele>94.5</ele>
        <time>2021-03-28T11:08:49Z</time>
      </trkpt>
      <trkpt lat="42.76353" lon="2.68603">
        <ele>94.5</ele>
        <time>2021-03-28T11:08:49Z</time>
      </trkpt>
      <trkpt lat="42.7635" lon="2.68598">
        <ele>94.6</ele>
        <time>2021-03-28T11:08:50Z</time>
      </trkpt>
      <trkpt lat="42.7635" lon="2.68598">
        <ele>94.6</ele>
        <time>2021-03-28T11:08:50Z</time>
      </trkpt>
      <trkpt lat="42.76344" lon="2.68592">
        <ele>95</ele>
        <time>2021-03-28T11:08:52Z</time>
      </trkpt>
      <trkpt lat="42.76344" lon="2.68592">
        <ele>95</ele>
        <time>2021-03-28T11:08:52Z</time>
      </trkpt>
      <trkpt lat="42.76338" lon="2.68585">
        <ele>96.1</ele>
        <time>2021-03-28T11:08:54Z</time>
      </trkpt>
      <trkpt lat="42.76338" lon="2.68585">
        <ele>96.1</ele>
        <time>2021-03-28T11:08:54Z</time>
      </trkpt>
      <trkpt lat="42.76332" lon="2.68579">
        <ele>96.7</ele>
        <time>2021-03-28T11:08:56Z</time>
      </trkpt>
      <trkpt lat="42.76332" lon="2.68579">
        <ele>96.7</ele>
        <time>2021-03-28T11:08:56Z</time>
      </trkpt>
      <trkpt lat="42.76326" lon="2.68573">
        <ele>96.8</ele>
        <time>2021-03-28T11:08:57Z</time>
      </trkpt>
      <trkpt lat="42.76326" lon="2.68573">
        <ele>96.8</ele>
        <time>2021-03-28T11:08:57Z</time>
      </trkpt>
      <trkpt lat="42.76322" lon="2.68567">
        <ele>96.9</ele>
        <time>2021-03-28T11:08:59Z</time>
      </trkpt>
      <trkpt lat="42.76322" lon="2.68567">
        <ele>96.9</ele>
        <time>2021-03-28T11:08:59Z</time>
      </trkpt>
      <trkpt lat="42.76319" lon="2.68562">
        <ele>97.1</ele>
        <time>2021-03-28T11:09:00Z</time>
      </trkpt>
      <trkpt lat="42.76319" lon="2.68562">
        <ele>97.1</ele>
        <time>2021-03-28T11:09:00Z</time>
      </trkpt>
      <trkpt lat="42.76314" lon="2.68556">
        <ele>97.5</ele>
        <time>2021-03-28T11:09:02Z</time>
      </trkpt>
      <trkpt lat="42.76314" lon="2.68556">
        <ele>97.5</ele>
        <time>2021-03-28T11:09:02Z</time>
      </trkpt>
      <trkpt lat="42.76309" lon="2.6855">
        <ele>98</ele>
        <time>2021-03-28T11:09:04Z</time>
      </trkpt>
      <trkpt lat="42.76309" lon="2.6855">
        <ele>98</ele>
        <time>2021-03-28T11:09:04Z</time>
      </trkpt>
      <trkpt lat="42.76305" lon="2.68545">
        <ele>98.3</ele>
        <time>2021-03-28T11:09:05Z</time>
      </trkpt>
      <trkpt lat="42.76305" lon="2.68545">
        <ele>98.3</ele>
        <time>2021-03-28T11:09:05Z</time>
      </trkpt>
      <trkpt lat="42.76301" lon="2.68541">
        <ele>98.4</ele>
        <time>2021-03-28T11:09:06Z</time>
      </trkpt>
      <trkpt lat="42.76301" lon="2.68541">
        <ele>98.4</ele>
        <time>2021-03-28T11:09:06Z</time>
      </trkpt>
      <trkpt lat="42.76298" lon="2.68537">
        <ele>98.5</ele>
        <time>2021-03-28T11:09:07Z</time>
      </trkpt>
      <trkpt lat="42.76298" lon="2.68537">
        <ele>98.5</ele>
        <time>2021-03-28T11:09:07Z</time>
      </trkpt>
      <trkpt lat="42.76293" lon="2.68533">
        <ele>98.7</ele>
        <time>2021-03-28T11:09:09Z</time>
      </trkpt>
      <trkpt lat="42.76293" lon="2.68533">
        <ele>98.7</ele>
        <time>2021-03-28T11:09:09Z</time>
      </trkpt>
      <trkpt lat="42.76288" lon="2.68529">
        <ele>99</ele>
        <time>2021-03-28T11:09:11Z</time>
      </trkpt>
      <trkpt lat="42.76288" lon="2.68529">
        <ele>99</ele>
        <time>2021-03-28T11:09:11Z</time>
      </trkpt>
      <trkpt lat="42.76283" lon="2.68526">
        <ele>99.4</ele>
        <time>2021-03-28T11:09:12Z</time>
      </trkpt>
      <trkpt lat="42.76283" lon="2.68526">
        <ele>99.4</ele>
        <time>2021-03-28T11:09:12Z</time>
      </trkpt>
      <trkpt lat="42.76278" lon="2.68521">
        <ele>100</ele>
        <time>2021-03-28T11:09:14Z</time>
      </trkpt>
      <trkpt lat="42.76278" lon="2.68521">
        <ele>100</ele>
        <time>2021-03-28T11:09:14Z</time>
      </trkpt>
      <trkpt lat="42.76274" lon="2.68518">
        <ele>100.6</ele>
        <time>2021-03-28T11:09:15Z</time>
      </trkpt>
      <trkpt lat="42.76274" lon="2.68518">
        <ele>100.6</ele>
        <time>2021-03-28T11:09:15Z</time>
      </trkpt>
      <trkpt lat="42.76269" lon="2.68515">
        <ele>101.1</ele>
        <time>2021-03-28T11:09:16Z</time>
      </trkpt>
      <trkpt lat="42.76269" lon="2.68515">
        <ele>101.1</ele>
        <time>2021-03-28T11:09:16Z</time>
      </trkpt>
      <trkpt lat="42.76266" lon="2.68512">
        <ele>101.5</ele>
        <time>2021-03-28T11:09:17Z</time>
      </trkpt>
      <trkpt lat="42.76266" lon="2.68512">
        <ele>101.5</ele>
        <time>2021-03-28T11:09:17Z</time>
      </trkpt>
      <trkpt lat="42.76262" lon="2.68508">
        <ele>101.9</ele>
        <time>2021-03-28T11:09:19Z</time>
      </trkpt>
      <trkpt lat="42.76262" lon="2.68508">
        <ele>101.9</ele>
        <time>2021-03-28T11:09:19Z</time>
      </trkpt>
      <trkpt lat="42.76257" lon="2.68503">
        <ele>102.3</ele>
        <time>2021-03-28T11:09:21Z</time>
      </trkpt>
      <trkpt lat="42.76257" lon="2.68503">
        <ele>102.3</ele>
        <time>2021-03-28T11:09:21Z</time>
      </trkpt>
      <trkpt lat="42.76253" lon="2.68499">
        <ele>102.8</ele>
        <time>2021-03-28T11:09:22Z</time>
      </trkpt>
      <trkpt lat="42.76253" lon="2.68499">
        <ele>102.8</ele>
        <time>2021-03-28T11:09:22Z</time>
      </trkpt>
      <trkpt lat="42.76249" lon="2.68496">
        <ele>103.5</ele>
        <time>2021-03-28T11:09:23Z</time>
      </trkpt>
      <trkpt lat="42.76249" lon="2.68496">
        <ele>103.5</ele>
        <time>2021-03-28T11:09:23Z</time>
      </trkpt>
      <trkpt lat="42.76245" lon="2.68492">
        <ele>104</ele>
        <time>2021-03-28T11:09:24Z</time>
      </trkpt>
      <trkpt lat="42.76245" lon="2.68492">
        <ele>104</ele>
        <time>2021-03-28T11:09:24Z</time>
      </trkpt>
      <trkpt lat="42.76242" lon="2.68489">
        <ele>104.3</ele>
        <time>2021-03-28T11:09:25Z</time>
      </trkpt>
      <trkpt lat="42.76242" lon="2.68489">
        <ele>104.3</ele>
        <time>2021-03-28T11:09:25Z</time>
      </trkpt>
      <trkpt lat="42.76239" lon="2.68486">
        <ele>104.4</ele>
        <time>2021-03-28T11:09:26Z</time>
      </trkpt>
      <trkpt lat="42.76239" lon="2.68486">
        <ele>104.4</ele>
        <time>2021-03-28T11:09:26Z</time>
      </trkpt>
      <trkpt lat="42.76235" lon="2.68482">
        <ele>104.2</ele>
        <time>2021-03-28T11:09:28Z</time>
      </trkpt>
      <trkpt lat="42.76235" lon="2.68482">
        <ele>104.2</ele>
        <time>2021-03-28T11:09:28Z</time>
      </trkpt>
      <trkpt lat="42.76231" lon="2.68477">
        <ele>103.6</ele>
        <time>2021-03-28T11:09:30Z</time>
      </trkpt>
      <trkpt lat="42.76231" lon="2.68477">
        <ele>103.6</ele>
        <time>2021-03-28T11:09:30Z</time>
      </trkpt>
      <trkpt lat="42.76225" lon="2.68472">
        <ele>102.3</ele>
        <time>2021-03-28T11:09:32Z</time>
      </trkpt>
      <trkpt lat="42.76225" lon="2.68472">
        <ele>102.3</ele>
        <time>2021-03-28T11:09:32Z</time>
      </trkpt>
      <trkpt lat="42.76219" lon="2.68467">
        <ele>102.1</ele>
        <time>2021-03-28T11:09:34Z</time>
      </trkpt>
      <trkpt lat="42.76219" lon="2.68467">
        <ele>102.1</ele>
        <time>2021-03-28T11:09:34Z</time>
      </trkpt>
      <trkpt lat="42.76212" lon="2.68461">
        <ele>101.6</ele>
        <time>2021-03-28T11:09:36Z</time>
      </trkpt>
      <trkpt lat="42.76212" lon="2.68461">
        <ele>101.6</ele>
        <time>2021-03-28T11:09:36Z</time>
      </trkpt>
      <trkpt lat="42.76205" lon="2.68457">
        <ele>100.9</ele>
        <time>2021-03-28T11:09:37Z</time>
      </trkpt>
      <trkpt lat="42.76205" lon="2.68457">
        <ele>100.9</ele>
        <time>2021-03-28T11:09:37Z</time>
      </trkpt>
      <trkpt lat="42.76199" lon="2.68452">
        <ele>100</ele>
        <time>2021-03-28T11:09:38Z</time>
      </trkpt>
      <trkpt lat="42.76199" lon="2.68452">
        <ele>100</ele>
        <time>2021-03-28T11:09:38Z</time>
      </trkpt>
      <trkpt lat="42.76192" lon="2.68445">
        <ele>98.8</ele>
        <time>2021-03-28T11:09:40Z</time>
      </trkpt>
      <trkpt lat="42.76192" lon="2.68445">
        <ele>98.8</ele>
        <time>2021-03-28T11:09:40Z</time>
      </trkpt>
      <trkpt lat="42.76186" lon="2.68438">
        <ele>97.9</ele>
        <time>2021-03-28T11:09:41Z</time>
      </trkpt>
      <trkpt lat="42.76186" lon="2.68438">
        <ele>97.9</ele>
        <time>2021-03-28T11:09:41Z</time>
      </trkpt>
      <trkpt lat="42.76177" lon="2.6843">
        <ele>97.2</ele>
        <time>2021-03-28T11:09:43Z</time>
      </trkpt>
      <trkpt lat="42.76177" lon="2.6843">
        <ele>97.2</ele>
        <time>2021-03-28T11:09:43Z</time>
      </trkpt>
      <trkpt lat="42.76168" lon="2.68422">
        <ele>97</ele>
        <time>2021-03-28T11:09:45Z</time>
      </trkpt>
      <trkpt lat="42.76168" lon="2.68422">
        <ele>97</ele>
        <time>2021-03-28T11:09:45Z</time>
      </trkpt>
      <trkpt lat="42.7616" lon="2.68415">
        <ele>96.6</ele>
        <time>2021-03-28T11:09:46Z</time>
      </trkpt>
      <trkpt lat="42.7616" lon="2.68415">
        <ele>96.6</ele>
        <time>2021-03-28T11:09:46Z</time>
      </trkpt>
      <trkpt lat="42.76152" lon="2.6841">
        <ele>96</ele>
        <time>2021-03-28T11:09:47Z</time>
      </trkpt>
      <trkpt lat="42.76152" lon="2.6841">
        <ele>96</ele>
        <time>2021-03-28T11:09:47Z</time>
      </trkpt>
      <trkpt lat="42.76146" lon="2.68405">
        <ele>95.6</ele>
        <time>2021-03-28T11:09:48Z</time>
      </trkpt>
      <trkpt lat="42.76146" lon="2.68405">
        <ele>95.6</ele>
        <time>2021-03-28T11:09:48Z</time>
      </trkpt>
      <trkpt lat="42.76138" lon="2.68398">
        <ele>95.3</ele>
        <time>2021-03-28T11:09:50Z</time>
      </trkpt>
      <trkpt lat="42.76138" lon="2.68398">
        <ele>95.3</ele>
        <time>2021-03-28T11:09:50Z</time>
      </trkpt>
      <trkpt lat="42.76131" lon="2.68391">
        <ele>95.4</ele>
        <time>2021-03-28T11:09:51Z</time>
      </trkpt>
      <trkpt lat="42.76131" lon="2.68391">
        <ele>95.4</ele>
        <time>2021-03-28T11:09:51Z</time>
      </trkpt>
      <trkpt lat="42.76122" lon="2.68383">
        <ele>95.2</ele>
        <time>2021-03-28T11:09:53Z</time>
      </trkpt>
      <trkpt lat="42.76122" lon="2.68383">
        <ele>95.2</ele>
        <time>2021-03-28T11:09:53Z</time>
      </trkpt>
      <trkpt lat="42.76115" lon="2.68375">
        <ele>94.9</ele>
        <time>2021-03-28T11:09:54Z</time>
      </trkpt>
      <trkpt lat="42.76115" lon="2.68375">
        <ele>94.9</ele>
        <time>2021-03-28T11:09:54Z</time>
      </trkpt>
      <trkpt lat="42.76108" lon="2.68367">
        <ele>94.5</ele>
        <time>2021-03-28T11:09:55Z</time>
      </trkpt>
      <trkpt lat="42.76108" lon="2.68367">
        <ele>94.5</ele>
        <time>2021-03-28T11:09:55Z</time>
      </trkpt>
      <trkpt lat="42.761" lon="2.68358">
        <ele>94.3</ele>
        <time>2021-03-28T11:09:57Z</time>
      </trkpt>
      <trkpt lat="42.761" lon="2.68358">
        <ele>94.3</ele>
        <time>2021-03-28T11:09:57Z</time>
      </trkpt>
      <trkpt lat="42.76094" lon="2.6835">
        <ele>94.2</ele>
        <time>2021-03-28T11:09:58Z</time>
      </trkpt>
      <trkpt lat="42.76094" lon="2.6835">
        <ele>94.2</ele>
        <time>2021-03-28T11:09:58Z</time>
      </trkpt>
      <trkpt lat="42.76087" lon="2.68342">
        <ele>94.2</ele>
        <time>2021-03-28T11:09:59Z</time>
      </trkpt>
      <trkpt lat="42.76087" lon="2.68342">
        <ele>94.2</ele>
        <time>2021-03-28T11:09:59Z</time>
      </trkpt>
      <trkpt lat="42.7608" lon="2.68333">
        <ele>94.1</ele>
        <time>2021-03-28T11:10:01Z</time>
      </trkpt>
      <trkpt lat="42.7608" lon="2.68333">
        <ele>94.1</ele>
        <time>2021-03-28T11:10:01Z</time>
      </trkpt>
      <trkpt lat="42.76072" lon="2.68323">
        <ele>94.4</ele>
        <time>2021-03-28T11:10:03Z</time>
      </trkpt>
      <trkpt lat="42.76072" lon="2.68323">
        <ele>94.4</ele>
        <time>2021-03-28T11:10:03Z</time>
      </trkpt>
      <trkpt lat="42.76063" lon="2.68311">
        <ele>94.7</ele>
        <time>2021-03-28T11:10:05Z</time>
      </trkpt>
      <trkpt lat="42.76063" lon="2.68311">
        <ele>94.7</ele>
        <time>2021-03-28T11:10:05Z</time>
      </trkpt>
      <trkpt lat="42.76054" lon="2.683">
        <ele>94.8</ele>
        <time>2021-03-28T11:10:07Z</time>
      </trkpt>
      <trkpt lat="42.76054" lon="2.683">
        <ele>94.8</ele>
        <time>2021-03-28T11:10:07Z</time>
      </trkpt>
      <trkpt lat="42.76046" lon="2.68289">
        <ele>94.6</ele>
        <time>2021-03-28T11:10:09Z</time>
      </trkpt>
      <trkpt lat="42.76046" lon="2.68289">
        <ele>94.6</ele>
        <time>2021-03-28T11:10:09Z</time>
      </trkpt>
      <trkpt lat="42.76038" lon="2.68279">
        <ele>94.6</ele>
        <time>2021-03-28T11:10:10Z</time>
      </trkpt>
      <trkpt lat="42.76038" lon="2.68279">
        <ele>94.6</ele>
        <time>2021-03-28T11:10:10Z</time>
      </trkpt>
      <trkpt lat="42.76032" lon="2.68271">
        <ele>94.6</ele>
        <time>2021-03-28T11:10:11Z</time>
      </trkpt>
      <trkpt lat="42.76032" lon="2.68271">
        <ele>94.6</ele>
        <time>2021-03-28T11:10:11Z</time>
      </trkpt>
      <trkpt lat="42.76024" lon="2.68261">
        <ele>94.5</ele>
        <time>2021-03-28T11:10:13Z</time>
      </trkpt>
      <trkpt lat="42.76024" lon="2.68261">
        <ele>94.5</ele>
        <time>2021-03-28T11:10:13Z</time>
      </trkpt>
      <trkpt lat="42.76017" lon="2.68252">
        <ele>94.4</ele>
        <time>2021-03-28T11:10:15Z</time>
      </trkpt>
      <trkpt lat="42.76017" lon="2.68252">
        <ele>94.4</ele>
        <time>2021-03-28T11:10:15Z</time>
      </trkpt>
      <trkpt lat="42.76009" lon="2.68242">
        <ele>94.7</ele>
        <time>2021-03-28T11:10:17Z</time>
      </trkpt>
      <trkpt lat="42.76009" lon="2.68242">
        <ele>94.7</ele>
        <time>2021-03-28T11:10:17Z</time>
      </trkpt>
      <trkpt lat="42.76001" lon="2.68231">
        <ele>95</ele>
        <time>2021-03-28T11:10:19Z</time>
      </trkpt>
      <trkpt lat="42.76001" lon="2.68231">
        <ele>95</ele>
        <time>2021-03-28T11:10:19Z</time>
      </trkpt>
      <trkpt lat="42.75993" lon="2.68221">
        <ele>95</ele>
        <time>2021-03-28T11:10:21Z</time>
      </trkpt>
      <trkpt lat="42.75993" lon="2.68221">
        <ele>95</ele>
        <time>2021-03-28T11:10:21Z</time>
      </trkpt>
      <trkpt lat="42.75985" lon="2.6821">
        <ele>94.8</ele>
        <time>2021-03-28T11:10:23Z</time>
      </trkpt>
      <trkpt lat="42.75985" lon="2.6821">
        <ele>94.8</ele>
        <time>2021-03-28T11:10:23Z</time>
      </trkpt>
      <trkpt lat="42.75977" lon="2.682">
        <ele>94.9</ele>
        <time>2021-03-28T11:10:25Z</time>
      </trkpt>
      <trkpt lat="42.75977" lon="2.682">
        <ele>94.9</ele>
        <time>2021-03-28T11:10:25Z</time>
      </trkpt>
      <trkpt lat="42.7597" lon="2.68191">
        <ele>95.1</ele>
        <time>2021-03-28T11:10:26Z</time>
      </trkpt>
      <trkpt lat="42.7597" lon="2.68191">
        <ele>95.1</ele>
        <time>2021-03-28T11:10:26Z</time>
      </trkpt>
      <trkpt lat="42.75963" lon="2.68182">
        <ele>95.3</ele>
        <time>2021-03-28T11:10:28Z</time>
      </trkpt>
      <trkpt lat="42.75963" lon="2.68182">
        <ele>95.3</ele>
        <time>2021-03-28T11:10:28Z</time>
      </trkpt>
      <trkpt lat="42.75957" lon="2.68174">
        <ele>95.6</ele>
        <time>2021-03-28T11:10:29Z</time>
      </trkpt>
      <trkpt lat="42.75957" lon="2.68174">
        <ele>95.6</ele>
        <time>2021-03-28T11:10:29Z</time>
      </trkpt>
      <trkpt lat="42.7595" lon="2.68166">
        <ele>95.8</ele>
        <time>2021-03-28T11:10:31Z</time>
      </trkpt>
      <trkpt lat="42.7595" lon="2.68166">
        <ele>95.8</ele>
        <time>2021-03-28T11:10:31Z</time>
      </trkpt>
      <trkpt lat="42.75943" lon="2.68157">
        <ele>95.7</ele>
        <time>2021-03-28T11:10:33Z</time>
      </trkpt>
      <trkpt lat="42.75943" lon="2.68157">
        <ele>95.7</ele>
        <time>2021-03-28T11:10:33Z</time>
      </trkpt>
      <trkpt lat="42.75935" lon="2.68149">
        <ele>95.6</ele>
        <time>2021-03-28T11:10:35Z</time>
      </trkpt>
      <trkpt lat="42.75935" lon="2.68149">
        <ele>95.6</ele>
        <time>2021-03-28T11:10:35Z</time>
      </trkpt>
      <trkpt lat="42.75927" lon="2.6814">
        <ele>95.6</ele>
        <time>2021-03-28T11:10:37Z</time>
      </trkpt>
      <trkpt lat="42.75927" lon="2.6814">
        <ele>95.6</ele>
        <time>2021-03-28T11:10:37Z</time>
      </trkpt>
      <trkpt lat="42.75921" lon="2.68132">
        <ele>95.6</ele>
        <time>2021-03-28T11:10:38Z</time>
      </trkpt>
      <trkpt lat="42.75921" lon="2.68132">
        <ele>95.6</ele>
        <time>2021-03-28T11:10:38Z</time>
      </trkpt>
      <trkpt lat="42.75915" lon="2.68125">
        <ele>95.5</ele>
        <time>2021-03-28T11:10:39Z</time>
      </trkpt>
      <trkpt lat="42.75915" lon="2.68125">
        <ele>95.5</ele>
        <time>2021-03-28T11:10:39Z</time>
      </trkpt>
      <trkpt lat="42.75908" lon="2.68118">
        <ele>95.5</ele>
        <time>2021-03-28T11:10:41Z</time>
      </trkpt>
      <trkpt lat="42.75908" lon="2.68118">
        <ele>95.5</ele>
        <time>2021-03-28T11:10:41Z</time>
      </trkpt>
      <trkpt lat="42.75903" lon="2.68111">
        <ele>95.5</ele>
        <time>2021-03-28T11:10:42Z</time>
      </trkpt>
      <trkpt lat="42.75903" lon="2.68111">
        <ele>95.5</ele>
        <time>2021-03-28T11:10:42Z</time>
      </trkpt>
      <trkpt lat="42.75896" lon="2.68104">
        <ele>95.7</ele>
        <time>2021-03-28T11:10:44Z</time>
      </trkpt>
      <trkpt lat="42.75896" lon="2.68104">
        <ele>95.7</ele>
        <time>2021-03-28T11:10:44Z</time>
      </trkpt>
      <trkpt lat="42.75891" lon="2.68097">
        <ele>95.9</ele>
        <time>2021-03-28T11:10:45Z</time>
      </trkpt>
      <trkpt lat="42.75891" lon="2.68097">
        <ele>95.9</ele>
        <time>2021-03-28T11:10:45Z</time>
      </trkpt>
      <trkpt lat="42.75884" lon="2.68089">
        <ele>96</ele>
        <time>2021-03-28T11:10:47Z</time>
      </trkpt>
      <trkpt lat="42.75884" lon="2.68089">
        <ele>96</ele>
        <time>2021-03-28T11:10:47Z</time>
      </trkpt>
      <trkpt lat="42.75877" lon="2.68081">
        <ele>95.9</ele>
        <time>2021-03-28T11:10:49Z</time>
      </trkpt>
      <trkpt lat="42.75877" lon="2.68081">
        <ele>95.9</ele>
        <time>2021-03-28T11:10:49Z</time>
      </trkpt>
      <trkpt lat="42.7587" lon="2.68072">
        <ele>95.9</ele>
        <time>2021-03-28T11:10:51Z</time>
      </trkpt>
      <trkpt lat="42.7587" lon="2.68072">
        <ele>95.9</ele>
        <time>2021-03-28T11:10:51Z</time>
      </trkpt>
      <trkpt lat="42.75863" lon="2.68063">
        <ele>95.9</ele>
        <time>2021-03-28T11:10:53Z</time>
      </trkpt>
      <trkpt lat="42.75863" lon="2.68063">
        <ele>95.9</ele>
        <time>2021-03-28T11:10:53Z</time>
      </trkpt>
      <trkpt lat="42.75856" lon="2.68054">
        <ele>95.9</ele>
        <time>2021-03-28T11:10:55Z</time>
      </trkpt>
      <trkpt lat="42.75856" lon="2.68054">
        <ele>95.9</ele>
        <time>2021-03-28T11:10:55Z</time>
      </trkpt>
      <trkpt lat="42.75848" lon="2.68044">
        <ele>95.8</ele>
        <time>2021-03-28T11:10:57Z</time>
      </trkpt>
      <trkpt lat="42.75848" lon="2.68044">
        <ele>95.8</ele>
        <time>2021-03-28T11:10:57Z</time>
      </trkpt>
      <trkpt lat="42.75841" lon="2.68035">
        <ele>95.8</ele>
        <time>2021-03-28T11:10:59Z</time>
      </trkpt>
      <trkpt lat="42.75841" lon="2.68035">
        <ele>95.8</ele>
        <time>2021-03-28T11:10:59Z</time>
      </trkpt>
      <trkpt lat="42.75835" lon="2.68028">
        <ele>95.9</ele>
        <time>2021-03-28T11:11:00Z</time>
      </trkpt>
      <trkpt lat="42.75835" lon="2.68028">
        <ele>95.9</ele>
        <time>2021-03-28T11:11:00Z</time>
      </trkpt>
      <trkpt lat="42.75828" lon="2.68019">
        <ele>95.7</ele>
        <time>2021-03-28T11:11:02Z</time>
      </trkpt>
      <trkpt lat="42.75828" lon="2.68019">
        <ele>95.7</ele>
        <time>2021-03-28T11:11:02Z</time>
      </trkpt>
      <trkpt lat="42.75822" lon="2.6801">
        <ele>95.6</ele>
        <time>2021-03-28T11:11:04Z</time>
      </trkpt>
      <trkpt lat="42.75822" lon="2.6801">
        <ele>95.6</ele>
        <time>2021-03-28T11:11:04Z</time>
      </trkpt>
      <trkpt lat="42.75816" lon="2.68003">
        <ele>95.7</ele>
        <time>2021-03-28T11:11:05Z</time>
      </trkpt>
      <trkpt lat="42.75816" lon="2.68003">
        <ele>95.7</ele>
        <time>2021-03-28T11:11:05Z</time>
      </trkpt>
      <trkpt lat="42.7581" lon="2.67995">
        <ele>95.8</ele>
        <time>2021-03-28T11:11:07Z</time>
      </trkpt>
      <trkpt lat="42.7581" lon="2.67995">
        <ele>95.8</ele>
        <time>2021-03-28T11:11:07Z</time>
      </trkpt>
      <trkpt lat="42.75804" lon="2.67987">
        <ele>96</ele>
        <time>2021-03-28T11:11:09Z</time>
      </trkpt>
      <trkpt lat="42.75804" lon="2.67987">
        <ele>96</ele>
        <time>2021-03-28T11:11:09Z</time>
      </trkpt>
      <trkpt lat="42.75798" lon="2.67979">
        <ele>96</ele>
        <time>2021-03-28T11:11:11Z</time>
      </trkpt>
      <trkpt lat="42.75798" lon="2.67979">
        <ele>96</ele>
        <time>2021-03-28T11:11:11Z</time>
      </trkpt>
      <trkpt lat="42.75792" lon="2.67971">
        <ele>95.9</ele>
        <time>2021-03-28T11:11:13Z</time>
      </trkpt>
      <trkpt lat="42.75792" lon="2.67971">
        <ele>95.9</ele>
        <time>2021-03-28T11:11:13Z</time>
      </trkpt>
      <trkpt lat="42.75786" lon="2.67963">
        <ele>95.7</ele>
        <time>2021-03-28T11:11:15Z</time>
      </trkpt>
      <trkpt lat="42.75786" lon="2.67963">
        <ele>95.7</ele>
        <time>2021-03-28T11:11:15Z</time>
      </trkpt>
      <trkpt lat="42.7578" lon="2.67957">
        <ele>95.4</ele>
        <time>2021-03-28T11:11:16Z</time>
      </trkpt>
      <trkpt lat="42.7578" lon="2.67957">
        <ele>95.4</ele>
        <time>2021-03-28T11:11:16Z</time>
      </trkpt>
      <trkpt lat="42.75775" lon="2.67951">
        <ele>95.3</ele>
        <time>2021-03-28T11:11:17Z</time>
      </trkpt>
      <trkpt lat="42.75775" lon="2.67951">
        <ele>95.3</ele>
        <time>2021-03-28T11:11:17Z</time>
      </trkpt>
      <trkpt lat="42.75769" lon="2.67945">
        <ele>95.3</ele>
        <time>2021-03-28T11:11:19Z</time>
      </trkpt>
      <trkpt lat="42.75769" lon="2.67945">
        <ele>95.3</ele>
        <time>2021-03-28T11:11:19Z</time>
      </trkpt>
      <trkpt lat="42.75763" lon="2.67937">
        <ele>95.7</ele>
        <time>2021-03-28T11:11:21Z</time>
      </trkpt>
      <trkpt lat="42.75763" lon="2.67937">
        <ele>95.7</ele>
        <time>2021-03-28T11:11:21Z</time>
      </trkpt>
      <trkpt lat="42.75756" lon="2.67928">
        <ele>96.2</ele>
        <time>2021-03-28T11:11:23Z</time>
      </trkpt>
      <trkpt lat="42.75756" lon="2.67928">
        <ele>96.2</ele>
        <time>2021-03-28T11:11:23Z</time>
      </trkpt>
      <trkpt lat="42.75749" lon="2.67918">
        <ele>96.9</ele>
        <time>2021-03-28T11:11:25Z</time>
      </trkpt>
      <trkpt lat="42.75749" lon="2.67918">
        <ele>96.9</ele>
        <time>2021-03-28T11:11:25Z</time>
      </trkpt>
      <trkpt lat="42.75743" lon="2.6791">
        <ele>96.4</ele>
        <time>2021-03-28T11:11:26Z</time>
      </trkpt>
      <trkpt lat="42.75743" lon="2.6791">
        <ele>96.4</ele>
        <time>2021-03-28T11:11:26Z</time>
      </trkpt>
      <trkpt lat="42.75736" lon="2.679">
        <ele>95.9</ele>
        <time>2021-03-28T11:11:28Z</time>
      </trkpt>
      <trkpt lat="42.75736" lon="2.679">
        <ele>95.9</ele>
        <time>2021-03-28T11:11:28Z</time>
      </trkpt>
      <trkpt lat="42.75729" lon="2.6789">
        <ele>95.8</ele>
        <time>2021-03-28T11:11:30Z</time>
      </trkpt>
      <trkpt lat="42.75729" lon="2.6789">
        <ele>95.8</ele>
        <time>2021-03-28T11:11:30Z</time>
      </trkpt>
      <trkpt lat="42.75721" lon="2.6788">
        <ele>96</ele>
        <time>2021-03-28T11:11:32Z</time>
      </trkpt>
      <trkpt lat="42.75721" lon="2.6788">
        <ele>96</ele>
        <time>2021-03-28T11:11:32Z</time>
      </trkpt>
      <trkpt lat="42.75715" lon="2.6787">
        <ele>96.3</ele>
        <time>2021-03-28T11:11:33Z</time>
      </trkpt>
      <trkpt lat="42.75715" lon="2.6787">
        <ele>96.3</ele>
        <time>2021-03-28T11:11:33Z</time>
      </trkpt>
      <trkpt lat="42.75708" lon="2.67861">
        <ele>96.5</ele>
        <time>2021-03-28T11:11:35Z</time>
      </trkpt>
      <trkpt lat="42.75708" lon="2.67861">
        <ele>96.5</ele>
        <time>2021-03-28T11:11:35Z</time>
      </trkpt>
      <trkpt lat="42.75701" lon="2.67851">
        <ele>96.8</ele>
        <time>2021-03-28T11:11:37Z</time>
      </trkpt>
      <trkpt lat="42.75701" lon="2.67851">
        <ele>96.8</ele>
        <time>2021-03-28T11:11:37Z</time>
      </trkpt>
      <trkpt lat="42.75694" lon="2.67842">
        <ele>97</ele>
        <time>2021-03-28T11:11:39Z</time>
      </trkpt>
      <trkpt lat="42.75694" lon="2.67842">
        <ele>97</ele>
        <time>2021-03-28T11:11:39Z</time>
      </trkpt>
      <trkpt lat="42.75688" lon="2.67834">
        <ele>97</ele>
        <time>2021-03-28T11:11:40Z</time>
      </trkpt>
      <trkpt lat="42.75688" lon="2.67834">
        <ele>97</ele>
        <time>2021-03-28T11:11:40Z</time>
      </trkpt>
      <trkpt lat="42.75683" lon="2.67827">
        <ele>96.9</ele>
        <time>2021-03-28T11:11:41Z</time>
      </trkpt>
      <trkpt lat="42.75683" lon="2.67827">
        <ele>96.9</ele>
        <time>2021-03-28T11:11:41Z</time>
      </trkpt>
      <trkpt lat="42.75677" lon="2.6782">
        <ele>96.8</ele>
        <time>2021-03-28T11:11:42Z</time>
      </trkpt>
      <trkpt lat="42.75677" lon="2.6782">
        <ele>96.8</ele>
        <time>2021-03-28T11:11:42Z</time>
      </trkpt>
      <trkpt lat="42.75672" lon="2.67814">
        <ele>96.9</ele>
        <time>2021-03-28T11:11:43Z</time>
      </trkpt>
      <trkpt lat="42.75672" lon="2.67814">
        <ele>96.9</ele>
        <time>2021-03-28T11:11:43Z</time>
      </trkpt>
      <trkpt lat="42.75665" lon="2.67805">
        <ele>97</ele>
        <time>2021-03-28T11:11:45Z</time>
      </trkpt>
      <trkpt lat="42.75665" lon="2.67805">
        <ele>97</ele>
        <time>2021-03-28T11:11:45Z</time>
      </trkpt>
      <trkpt lat="42.75657" lon="2.67796">
        <ele>96.8</ele>
        <time>2021-03-28T11:11:47Z</time>
      </trkpt>
      <trkpt lat="42.75657" lon="2.67796">
        <ele>96.8</ele>
        <time>2021-03-28T11:11:47Z</time>
      </trkpt>
      <trkpt lat="42.75651" lon="2.67788">
        <ele>96.7</ele>
        <time>2021-03-28T11:11:48Z</time>
      </trkpt>
      <trkpt lat="42.75651" lon="2.67788">
        <ele>96.7</ele>
        <time>2021-03-28T11:11:48Z</time>
      </trkpt>
      <trkpt lat="42.75643" lon="2.67779">
        <ele>96.8</ele>
        <time>2021-03-28T11:11:50Z</time>
      </trkpt>
      <trkpt lat="42.75643" lon="2.67779">
        <ele>96.8</ele>
        <time>2021-03-28T11:11:50Z</time>
      </trkpt>
      <trkpt lat="42.75636" lon="2.6777">
        <ele>97.1</ele>
        <time>2021-03-28T11:11:52Z</time>
      </trkpt>
      <trkpt lat="42.75636" lon="2.6777">
        <ele>97.1</ele>
        <time>2021-03-28T11:11:52Z</time>
      </trkpt>
      <trkpt lat="42.75628" lon="2.6776">
        <ele>97.1</ele>
        <time>2021-03-28T11:11:54Z</time>
      </trkpt>
      <trkpt lat="42.75628" lon="2.6776">
        <ele>97.1</ele>
        <time>2021-03-28T11:11:54Z</time>
      </trkpt>
      <trkpt lat="42.75621" lon="2.67752">
        <ele>97</ele>
        <time>2021-03-28T11:11:55Z</time>
      </trkpt>
      <trkpt lat="42.75621" lon="2.67752">
        <ele>97</ele>
        <time>2021-03-28T11:11:55Z</time>
      </trkpt>
      <trkpt lat="42.75613" lon="2.67743">
        <ele>97</ele>
        <time>2021-03-28T11:11:57Z</time>
      </trkpt>
      <trkpt lat="42.75613" lon="2.67743">
        <ele>97</ele>
        <time>2021-03-28T11:11:57Z</time>
      </trkpt>
      <trkpt lat="42.75606" lon="2.67735">
        <ele>97</ele>
        <time>2021-03-28T11:11:58Z</time>
      </trkpt>
      <trkpt lat="42.75606" lon="2.67735">
        <ele>97</ele>
        <time>2021-03-28T11:11:58Z</time>
      </trkpt>
      <trkpt lat="42.75599" lon="2.67726">
        <ele>97</ele>
        <time>2021-03-28T11:12:00Z</time>
      </trkpt>
      <trkpt lat="42.75599" lon="2.67726">
        <ele>97</ele>
        <time>2021-03-28T11:12:00Z</time>
      </trkpt>
      <trkpt lat="42.75592" lon="2.67717">
        <ele>97.1</ele>
        <time>2021-03-28T11:12:02Z</time>
      </trkpt>
      <trkpt lat="42.75592" lon="2.67717">
        <ele>97.1</ele>
        <time>2021-03-28T11:12:02Z</time>
      </trkpt>
      <trkpt lat="42.75586" lon="2.67709">
        <ele>97.4</ele>
        <time>2021-03-28T11:12:03Z</time>
      </trkpt>
      <trkpt lat="42.75586" lon="2.67709">
        <ele>97.4</ele>
        <time>2021-03-28T11:12:03Z</time>
      </trkpt>
      <trkpt lat="42.75579" lon="2.677">
        <ele>97.8</ele>
        <time>2021-03-28T11:12:05Z</time>
      </trkpt>
      <trkpt lat="42.75579" lon="2.677">
        <ele>97.8</ele>
        <time>2021-03-28T11:12:05Z</time>
      </trkpt>
      <trkpt lat="42.75573" lon="2.67691">
        <ele>98</ele>
        <time>2021-03-28T11:12:07Z</time>
      </trkpt>
      <trkpt lat="42.75573" lon="2.67691">
        <ele>98</ele>
        <time>2021-03-28T11:12:07Z</time>
      </trkpt>
      <trkpt lat="42.75565" lon="2.67681">
        <ele>98</ele>
        <time>2021-03-28T11:12:09Z</time>
      </trkpt>
      <trkpt lat="42.75565" lon="2.67681">
        <ele>98</ele>
        <time>2021-03-28T11:12:09Z</time>
      </trkpt>
      <trkpt lat="42.75559" lon="2.67672">
        <ele>98</ele>
        <time>2021-03-28T11:12:11Z</time>
      </trkpt>
      <trkpt lat="42.75559" lon="2.67672">
        <ele>98</ele>
        <time>2021-03-28T11:12:11Z</time>
      </trkpt>
      <trkpt lat="42.75552" lon="2.67662">
        <ele>98</ele>
        <time>2021-03-28T11:12:13Z</time>
      </trkpt>
      <trkpt lat="42.75552" lon="2.67662">
        <ele>98</ele>
        <time>2021-03-28T11:12:13Z</time>
      </trkpt>
      <trkpt lat="42.75545" lon="2.67652">
        <ele>98.2</ele>
        <time>2021-03-28T11:12:15Z</time>
      </trkpt>
      <trkpt lat="42.75545" lon="2.67652">
        <ele>98.2</ele>
        <time>2021-03-28T11:12:15Z</time>
      </trkpt>
      <trkpt lat="42.75539" lon="2.67643">
        <ele>98.5</ele>
        <time>2021-03-28T11:12:17Z</time>
      </trkpt>
      <trkpt lat="42.75539" lon="2.67643">
        <ele>98.5</ele>
        <time>2021-03-28T11:12:17Z</time>
      </trkpt>
      <trkpt lat="42.75531" lon="2.67635">
        <ele>99</ele>
        <time>2021-03-28T11:12:19Z</time>
      </trkpt>
      <trkpt lat="42.75531" lon="2.67635">
        <ele>99</ele>
        <time>2021-03-28T11:12:19Z</time>
      </trkpt>
      <trkpt lat="42.75525" lon="2.67627">
        <ele>99.5</ele>
        <time>2021-03-28T11:12:20Z</time>
      </trkpt>
      <trkpt lat="42.75525" lon="2.67627">
        <ele>99.5</ele>
        <time>2021-03-28T11:12:20Z</time>
      </trkpt>
      <trkpt lat="42.75519" lon="2.67619">
        <ele>99.8</ele>
        <time>2021-03-28T11:12:22Z</time>
      </trkpt>
      <trkpt lat="42.75519" lon="2.67619">
        <ele>99.8</ele>
        <time>2021-03-28T11:12:22Z</time>
      </trkpt>
      <trkpt lat="42.75514" lon="2.67613">
        <ele>100</ele>
        <time>2021-03-28T11:12:23Z</time>
      </trkpt>
      <trkpt lat="42.75514" lon="2.67613">
        <ele>100</ele>
        <time>2021-03-28T11:12:23Z</time>
      </trkpt>
      <trkpt lat="42.75508" lon="2.67605">
        <ele>100.2</ele>
        <time>2021-03-28T11:12:25Z</time>
      </trkpt>
      <trkpt lat="42.75508" lon="2.67605">
        <ele>100.2</ele>
        <time>2021-03-28T11:12:25Z</time>
      </trkpt>
      <trkpt lat="42.75503" lon="2.67597">
        <ele>100.5</ele>
        <time>2021-03-28T11:12:27Z</time>
      </trkpt>
      <trkpt lat="42.75503" lon="2.67597">
        <ele>100.5</ele>
        <time>2021-03-28T11:12:27Z</time>
      </trkpt>
      <trkpt lat="42.75498" lon="2.67591">
        <ele>100.7</ele>
        <time>2021-03-28T11:12:28Z</time>
      </trkpt>
      <trkpt lat="42.75498" lon="2.67591">
        <ele>100.7</ele>
        <time>2021-03-28T11:12:28Z</time>
      </trkpt>
      <trkpt lat="42.75492" lon="2.67584">
        <ele>101</ele>
        <time>2021-03-28T11:12:30Z</time>
      </trkpt>
      <trkpt lat="42.75492" lon="2.67584">
        <ele>101</ele>
        <time>2021-03-28T11:12:30Z</time>
      </trkpt>
      <trkpt lat="42.75486" lon="2.67577">
        <ele>101</ele>
        <time>2021-03-28T11:12:32Z</time>
      </trkpt>
      <trkpt lat="42.75486" lon="2.67577">
        <ele>101</ele>
        <time>2021-03-28T11:12:32Z</time>
      </trkpt>
      <trkpt lat="42.75482" lon="2.67571">
        <ele>101</ele>
        <time>2021-03-28T11:12:33Z</time>
      </trkpt>
      <trkpt lat="42.75482" lon="2.67571">
        <ele>101</ele>
        <time>2021-03-28T11:12:33Z</time>
      </trkpt>
      <trkpt lat="42.75476" lon="2.67563">
        <ele>101</ele>
        <time>2021-03-28T11:12:35Z</time>
      </trkpt>
      <trkpt lat="42.75476" lon="2.67563">
        <ele>101</ele>
        <time>2021-03-28T11:12:35Z</time>
      </trkpt>
      <trkpt lat="42.75472" lon="2.67557">
        <ele>101</ele>
        <time>2021-03-28T11:12:36Z</time>
      </trkpt>
      <trkpt lat="42.75472" lon="2.67557">
        <ele>101</ele>
        <time>2021-03-28T11:12:36Z</time>
      </trkpt>
      <trkpt lat="42.75468" lon="2.67552">
        <ele>101.3</ele>
        <time>2021-03-28T11:12:37Z</time>
      </trkpt>
      <trkpt lat="42.75468" lon="2.67552">
        <ele>101.3</ele>
        <time>2021-03-28T11:12:37Z</time>
      </trkpt>
      <trkpt lat="42.75464" lon="2.67547">
        <ele>101.5</ele>
        <time>2021-03-28T11:12:38Z</time>
      </trkpt>
      <trkpt lat="42.75464" lon="2.67547">
        <ele>101.5</ele>
        <time>2021-03-28T11:12:38Z</time>
      </trkpt>
      <trkpt lat="42.75459" lon="2.67541">
        <ele>101.8</ele>
        <time>2021-03-28T11:12:40Z</time>
      </trkpt>
      <trkpt lat="42.75459" lon="2.67541">
        <ele>101.8</ele>
        <time>2021-03-28T11:12:40Z</time>
      </trkpt>
      <trkpt lat="42.75455" lon="2.67536">
        <ele>101.9</ele>
        <time>2021-03-28T11:12:41Z</time>
      </trkpt>
      <trkpt lat="42.75455" lon="2.67536">
        <ele>101.9</ele>
        <time>2021-03-28T11:12:41Z</time>
      </trkpt>
      <trkpt lat="42.7545" lon="2.67529">
        <ele>102</ele>
        <time>2021-03-28T11:12:43Z</time>
      </trkpt>
      <trkpt lat="42.7545" lon="2.67529">
        <ele>102</ele>
        <time>2021-03-28T11:12:43Z</time>
      </trkpt>
      <trkpt lat="42.75444" lon="2.67522">
        <ele>102.3</ele>
        <time>2021-03-28T11:12:45Z</time>
      </trkpt>
      <trkpt lat="42.75444" lon="2.67522">
        <ele>102.3</ele>
        <time>2021-03-28T11:12:45Z</time>
      </trkpt>
      <trkpt lat="42.75438" lon="2.67516">
        <ele>102.7</ele>
        <time>2021-03-28T11:12:46Z</time>
      </trkpt>
      <trkpt lat="42.75438" lon="2.67516">
        <ele>102.7</ele>
        <time>2021-03-28T11:12:46Z</time>
      </trkpt>
      <trkpt lat="42.75432" lon="2.67509">
        <ele>103.1</ele>
        <time>2021-03-28T11:12:48Z</time>
      </trkpt>
      <trkpt lat="42.75432" lon="2.67509">
        <ele>103.1</ele>
        <time>2021-03-28T11:12:48Z</time>
      </trkpt>
      <trkpt lat="42.75426" lon="2.67502">
        <ele>103.6</ele>
        <time>2021-03-28T11:12:50Z</time>
      </trkpt>
      <trkpt lat="42.75426" lon="2.67502">
        <ele>103.6</ele>
        <time>2021-03-28T11:12:50Z</time>
      </trkpt>
      <trkpt lat="42.75419" lon="2.67495">
        <ele>103.9</ele>
        <time>2021-03-28T11:12:52Z</time>
      </trkpt>
      <trkpt lat="42.75419" lon="2.67495">
        <ele>103.9</ele>
        <time>2021-03-28T11:12:52Z</time>
      </trkpt>
      <trkpt lat="42.75414" lon="2.67489">
        <ele>104</ele>
        <time>2021-03-28T11:12:53Z</time>
      </trkpt>
      <trkpt lat="42.75414" lon="2.67489">
        <ele>104</ele>
        <time>2021-03-28T11:12:53Z</time>
      </trkpt>
      <trkpt lat="42.75409" lon="2.67483">
        <ele>104.2</ele>
        <time>2021-03-28T11:12:55Z</time>
      </trkpt>
      <trkpt lat="42.75409" lon="2.67483">
        <ele>104.2</ele>
        <time>2021-03-28T11:12:55Z</time>
      </trkpt>
      <trkpt lat="42.75404" lon="2.67477">
        <ele>104.4</ele>
        <time>2021-03-28T11:12:56Z</time>
      </trkpt>
      <trkpt lat="42.75404" lon="2.67477">
        <ele>104.4</ele>
        <time>2021-03-28T11:12:56Z</time>
      </trkpt>
      <trkpt lat="42.754" lon="2.67472">
        <ele>104.6</ele>
        <time>2021-03-28T11:12:57Z</time>
      </trkpt>
      <trkpt lat="42.754" lon="2.67472">
        <ele>104.6</ele>
        <time>2021-03-28T11:12:57Z</time>
      </trkpt>
      <trkpt lat="42.75395" lon="2.67466">
        <ele>104.8</ele>
        <time>2021-03-28T11:12:59Z</time>
      </trkpt>
      <trkpt lat="42.75395" lon="2.67466">
        <ele>104.8</ele>
        <time>2021-03-28T11:12:59Z</time>
      </trkpt>
      <trkpt lat="42.75391" lon="2.67461">
        <ele>104.9</ele>
        <time>2021-03-28T11:13:00Z</time>
      </trkpt>
      <trkpt lat="42.75391" lon="2.67461">
        <ele>104.9</ele>
        <time>2021-03-28T11:13:00Z</time>
      </trkpt>
      <trkpt lat="42.75386" lon="2.67456">
        <ele>105.1</ele>
        <time>2021-03-28T11:13:02Z</time>
      </trkpt>
      <trkpt lat="42.75386" lon="2.67456">
        <ele>105.1</ele>
        <time>2021-03-28T11:13:02Z</time>
      </trkpt>
      <trkpt lat="42.75381" lon="2.67452">
        <ele>105.3</ele>
        <time>2021-03-28T11:13:03Z</time>
      </trkpt>
      <trkpt lat="42.75381" lon="2.67452">
        <ele>105.3</ele>
        <time>2021-03-28T11:13:03Z</time>
      </trkpt>
      <trkpt lat="42.75376" lon="2.67451">
        <ele>105.5</ele>
        <time>2021-03-28T11:13:04Z</time>
      </trkpt>
      <trkpt lat="42.75376" lon="2.67451">
        <ele>105.5</ele>
        <time>2021-03-28T11:13:04Z</time>
      </trkpt>
      <trkpt lat="42.7537" lon="2.67451">
        <ele>105.7</ele>
        <time>2021-03-28T11:13:06Z</time>
      </trkpt>
      <trkpt lat="42.7537" lon="2.67451">
        <ele>105.7</ele>
        <time>2021-03-28T11:13:06Z</time>
      </trkpt>
      <trkpt lat="42.75363" lon="2.67452">
        <ele>105.9</ele>
        <time>2021-03-28T11:13:08Z</time>
      </trkpt>
      <trkpt lat="42.75363" lon="2.67452">
        <ele>105.9</ele>
        <time>2021-03-28T11:13:08Z</time>
      </trkpt>
      <trkpt lat="42.75356" lon="2.67454">
        <ele>106.1</ele>
        <time>2021-03-28T11:13:10Z</time>
      </trkpt>
      <trkpt lat="42.75356" lon="2.67454">
        <ele>106.1</ele>
        <time>2021-03-28T11:13:10Z</time>
      </trkpt>
      <trkpt lat="42.75351" lon="2.67456">
        <ele>106.2</ele>
        <time>2021-03-28T11:13:11Z</time>
      </trkpt>
      <trkpt lat="42.75351" lon="2.67456">
        <ele>106.2</ele>
        <time>2021-03-28T11:13:11Z</time>
      </trkpt>
      <trkpt lat="42.75345" lon="2.67459">
        <ele>106.3</ele>
        <time>2021-03-28T11:13:13Z</time>
      </trkpt>
      <trkpt lat="42.75345" lon="2.67459">
        <ele>106.3</ele>
        <time>2021-03-28T11:13:13Z</time>
      </trkpt>
      <trkpt lat="42.75339" lon="2.67462">
        <ele>106.3</ele>
        <time>2021-03-28T11:13:15Z</time>
      </trkpt>
      <trkpt lat="42.75339" lon="2.67462">
        <ele>106.3</ele>
        <time>2021-03-28T11:13:15Z</time>
      </trkpt>
      <trkpt lat="42.75333" lon="2.67465">
        <ele>106.3</ele>
        <time>2021-03-28T11:13:17Z</time>
      </trkpt>
      <trkpt lat="42.75333" lon="2.67465">
        <ele>106.3</ele>
        <time>2021-03-28T11:13:17Z</time>
      </trkpt>
      <trkpt lat="42.75327" lon="2.67467">
        <ele>106.4</ele>
        <time>2021-03-28T11:13:19Z</time>
      </trkpt>
      <trkpt lat="42.75327" lon="2.67467">
        <ele>106.4</ele>
        <time>2021-03-28T11:13:19Z</time>
      </trkpt>
      <trkpt lat="42.7532" lon="2.6747">
        <ele>106.5</ele>
        <time>2021-03-28T11:13:21Z</time>
      </trkpt>
      <trkpt lat="42.7532" lon="2.6747">
        <ele>106.5</ele>
        <time>2021-03-28T11:13:21Z</time>
      </trkpt>
      <trkpt lat="42.75315" lon="2.67472">
        <ele>106.7</ele>
        <time>2021-03-28T11:13:22Z</time>
      </trkpt>
      <trkpt lat="42.75315" lon="2.67472">
        <ele>106.7</ele>
        <time>2021-03-28T11:13:22Z</time>
      </trkpt>
      <trkpt lat="42.7531" lon="2.67475">
        <ele>106.8</ele>
        <time>2021-03-28T11:13:23Z</time>
      </trkpt>
      <trkpt lat="42.7531" lon="2.67475">
        <ele>106.8</ele>
        <time>2021-03-28T11:13:23Z</time>
      </trkpt>
      <trkpt lat="42.75305" lon="2.67478">
        <ele>106.8</ele>
        <time>2021-03-28T11:13:25Z</time>
      </trkpt>
      <trkpt lat="42.75305" lon="2.67478">
        <ele>106.8</ele>
        <time>2021-03-28T11:13:25Z</time>
      </trkpt>
      <trkpt lat="42.753" lon="2.6748">
        <ele>106.9</ele>
        <time>2021-03-28T11:13:27Z</time>
      </trkpt>
      <trkpt lat="42.753" lon="2.6748">
        <ele>106.9</ele>
        <time>2021-03-28T11:13:27Z</time>
      </trkpt>
      <trkpt lat="42.75294" lon="2.67483">
        <ele>107</ele>
        <time>2021-03-28T11:13:29Z</time>
      </trkpt>
      <trkpt lat="42.75294" lon="2.67483">
        <ele>107</ele>
        <time>2021-03-28T11:13:29Z</time>
      </trkpt>
      <trkpt lat="42.75288" lon="2.67486">
        <ele>107.1</ele>
        <time>2021-03-28T11:13:31Z</time>
      </trkpt>
      <trkpt lat="42.75288" lon="2.67486">
        <ele>107.1</ele>
        <time>2021-03-28T11:13:31Z</time>
      </trkpt>
      <trkpt lat="42.75282" lon="2.67489">
        <ele>107.2</ele>
        <time>2021-03-28T11:13:32Z</time>
      </trkpt>
      <trkpt lat="42.75282" lon="2.67489">
        <ele>107.2</ele>
        <time>2021-03-28T11:13:32Z</time>
      </trkpt>
      <trkpt lat="42.75276" lon="2.67493">
        <ele>107.3</ele>
        <time>2021-03-28T11:13:34Z</time>
      </trkpt>
      <trkpt lat="42.75276" lon="2.67493">
        <ele>107.3</ele>
        <time>2021-03-28T11:13:34Z</time>
      </trkpt>
      <trkpt lat="42.7527" lon="2.67496">
        <ele>107.4</ele>
        <time>2021-03-28T11:13:36Z</time>
      </trkpt>
      <trkpt lat="42.7527" lon="2.67496">
        <ele>107.4</ele>
        <time>2021-03-28T11:13:36Z</time>
      </trkpt>
      <trkpt lat="42.75265" lon="2.67499">
        <ele>107.5</ele>
        <time>2021-03-28T11:13:37Z</time>
      </trkpt>
      <trkpt lat="42.75265" lon="2.67499">
        <ele>107.5</ele>
        <time>2021-03-28T11:13:37Z</time>
      </trkpt>
      <trkpt lat="42.75259" lon="2.67502">
        <ele>107.7</ele>
        <time>2021-03-28T11:13:39Z</time>
      </trkpt>
      <trkpt lat="42.75259" lon="2.67502">
        <ele>107.7</ele>
        <time>2021-03-28T11:13:39Z</time>
      </trkpt>
      <trkpt lat="42.75254" lon="2.67505">
        <ele>107.8</ele>
        <time>2021-03-28T11:13:40Z</time>
      </trkpt>
      <trkpt lat="42.75254" lon="2.67505">
        <ele>107.8</ele>
        <time>2021-03-28T11:13:40Z</time>
      </trkpt>
      <trkpt lat="42.75249" lon="2.67507">
        <ele>108</ele>
        <time>2021-03-28T11:13:41Z</time>
      </trkpt>
      <trkpt lat="42.75249" lon="2.67507">
        <ele>108</ele>
        <time>2021-03-28T11:13:41Z</time>
      </trkpt>
      <trkpt lat="42.75244" lon="2.67511">
        <ele>108.3</ele>
        <time>2021-03-28T11:13:43Z</time>
      </trkpt>
      <trkpt lat="42.75244" lon="2.67511">
        <ele>108.3</ele>
        <time>2021-03-28T11:13:43Z</time>
      </trkpt>
      <trkpt lat="42.7524" lon="2.67514">
        <ele>108.5</ele>
        <time>2021-03-28T11:13:44Z</time>
      </trkpt>
      <trkpt lat="42.7524" lon="2.67514">
        <ele>108.5</ele>
        <time>2021-03-28T11:13:44Z</time>
      </trkpt>
      <trkpt lat="42.75236" lon="2.67517">
        <ele>108.7</ele>
        <time>2021-03-28T11:13:45Z</time>
      </trkpt>
      <trkpt lat="42.75236" lon="2.67517">
        <ele>108.7</ele>
        <time>2021-03-28T11:13:45Z</time>
      </trkpt>
      <trkpt lat="42.75231" lon="2.67521">
        <ele>108.8</ele>
        <time>2021-03-28T11:13:47Z</time>
      </trkpt>
      <trkpt lat="42.75231" lon="2.67521">
        <ele>108.8</ele>
        <time>2021-03-28T11:13:47Z</time>
      </trkpt>
      <trkpt lat="42.75227" lon="2.67526">
        <ele>108.9</ele>
        <time>2021-03-28T11:13:48Z</time>
      </trkpt>
      <trkpt lat="42.75227" lon="2.67526">
        <ele>108.9</ele>
        <time>2021-03-28T11:13:48Z</time>
      </trkpt>
      <trkpt lat="42.75224" lon="2.6753">
        <ele>108.9</ele>
        <time>2021-03-28T11:13:49Z</time>
      </trkpt>
      <trkpt lat="42.75224" lon="2.6753">
        <ele>108.9</ele>
        <time>2021-03-28T11:13:49Z</time>
      </trkpt>
      <trkpt lat="42.75221" lon="2.67535">
        <ele>108.9</ele>
        <time>2021-03-28T11:13:51Z</time>
      </trkpt>
      <trkpt lat="42.75221" lon="2.67535">
        <ele>108.9</ele>
        <time>2021-03-28T11:13:51Z</time>
      </trkpt>
      <trkpt lat="42.75218" lon="2.6754">
        <ele>109</ele>
        <time>2021-03-28T11:13:52Z</time>
      </trkpt>
      <trkpt lat="42.75218" lon="2.6754">
        <ele>109</ele>
        <time>2021-03-28T11:13:52Z</time>
      </trkpt>
      <trkpt lat="42.75215" lon="2.67545">
        <ele>109.2</ele>
        <time>2021-03-28T11:13:54Z</time>
      </trkpt>
      <trkpt lat="42.75215" lon="2.67545">
        <ele>109.2</ele>
        <time>2021-03-28T11:13:54Z</time>
      </trkpt>
      <trkpt lat="42.75211" lon="2.67551">
        <ele>109.4</ele>
        <time>2021-03-28T11:13:56Z</time>
      </trkpt>
      <trkpt lat="42.75211" lon="2.67551">
        <ele>109.4</ele>
        <time>2021-03-28T11:13:56Z</time>
      </trkpt>
      <trkpt lat="42.75207" lon="2.67556">
        <ele>109.6</ele>
        <time>2021-03-28T11:13:58Z</time>
      </trkpt>
      <trkpt lat="42.75207" lon="2.67556">
        <ele>109.6</ele>
        <time>2021-03-28T11:13:58Z</time>
      </trkpt>
      <trkpt lat="42.75203" lon="2.67562">
        <ele>110</ele>
        <time>2021-03-28T11:14:00Z</time>
      </trkpt>
      <trkpt lat="42.75203" lon="2.67562">
        <ele>110</ele>
        <time>2021-03-28T11:14:00Z</time>
      </trkpt>
      <trkpt lat="42.75199" lon="2.67567">
        <ele>110.5</ele>
        <time>2021-03-28T11:14:01Z</time>
      </trkpt>
      <trkpt lat="42.75199" lon="2.67567">
        <ele>110.5</ele>
        <time>2021-03-28T11:14:01Z</time>
      </trkpt>
      <trkpt lat="42.75195" lon="2.67571">
        <ele>110.9</ele>
        <time>2021-03-28T11:14:02Z</time>
      </trkpt>
      <trkpt lat="42.75195" lon="2.67571">
        <ele>110.9</ele>
        <time>2021-03-28T11:14:02Z</time>
      </trkpt>
      <trkpt lat="42.75191" lon="2.67575">
        <ele>111.3</ele>
        <time>2021-03-28T11:14:04Z</time>
      </trkpt>
      <trkpt lat="42.75191" lon="2.67575">
        <ele>111.3</ele>
        <time>2021-03-28T11:14:04Z</time>
      </trkpt>
      <trkpt lat="42.75187" lon="2.6758">
        <ele>111.6</ele>
        <time>2021-03-28T11:14:06Z</time>
      </trkpt>
      <trkpt lat="42.75187" lon="2.6758">
        <ele>111.6</ele>
        <time>2021-03-28T11:14:06Z</time>
      </trkpt>
      <trkpt lat="42.75182" lon="2.67584">
        <ele>111.8</ele>
        <time>2021-03-28T11:14:08Z</time>
      </trkpt>
      <trkpt lat="42.75182" lon="2.67584">
        <ele>111.8</ele>
        <time>2021-03-28T11:14:08Z</time>
      </trkpt>
      <trkpt lat="42.75178" lon="2.67589">
        <ele>111.9</ele>
        <time>2021-03-28T11:14:09Z</time>
      </trkpt>
      <trkpt lat="42.75178" lon="2.67589">
        <ele>111.9</ele>
        <time>2021-03-28T11:14:09Z</time>
      </trkpt>
      <trkpt lat="42.75174" lon="2.67593">
        <ele>112</ele>
        <time>2021-03-28T11:14:11Z</time>
      </trkpt>
      <trkpt lat="42.75174" lon="2.67593">
        <ele>112</ele>
        <time>2021-03-28T11:14:11Z</time>
      </trkpt>
      <trkpt lat="42.7517" lon="2.67598">
        <ele>112.2</ele>
        <time>2021-03-28T11:14:12Z</time>
      </trkpt>
      <trkpt lat="42.7517" lon="2.67598">
        <ele>112.2</ele>
        <time>2021-03-28T11:14:12Z</time>
      </trkpt>
      <trkpt lat="42.75165" lon="2.67602">
        <ele>112.4</ele>
        <time>2021-03-28T11:14:14Z</time>
      </trkpt>
      <trkpt lat="42.75165" lon="2.67602">
        <ele>112.4</ele>
        <time>2021-03-28T11:14:14Z</time>
      </trkpt>
      <trkpt lat="42.7516" lon="2.67606">
        <ele>112.7</ele>
        <time>2021-03-28T11:14:16Z</time>
      </trkpt>
      <trkpt lat="42.7516" lon="2.67606">
        <ele>112.7</ele>
        <time>2021-03-28T11:14:16Z</time>
      </trkpt>
      <trkpt lat="42.75156" lon="2.67611">
        <ele>112.8</ele>
        <time>2021-03-28T11:14:18Z</time>
      </trkpt>
      <trkpt lat="42.75156" lon="2.67611">
        <ele>112.8</ele>
        <time>2021-03-28T11:14:18Z</time>
      </trkpt>
      <trkpt lat="42.75151" lon="2.67616">
        <ele>113</ele>
        <time>2021-03-28T11:14:20Z</time>
      </trkpt>
      <trkpt lat="42.75151" lon="2.67616">
        <ele>113</ele>
        <time>2021-03-28T11:14:20Z</time>
      </trkpt>
      <trkpt lat="42.75146" lon="2.6762">
        <ele>113.2</ele>
        <time>2021-03-28T11:14:21Z</time>
      </trkpt>
      <trkpt lat="42.75146" lon="2.6762">
        <ele>113.2</ele>
        <time>2021-03-28T11:14:21Z</time>
      </trkpt>
      <trkpt lat="42.75141" lon="2.67624">
        <ele>113.4</ele>
        <time>2021-03-28T11:14:23Z</time>
      </trkpt>
      <trkpt lat="42.75141" lon="2.67624">
        <ele>113.4</ele>
        <time>2021-03-28T11:14:23Z</time>
      </trkpt>
      <trkpt lat="42.75136" lon="2.67628">
        <ele>113.8</ele>
        <time>2021-03-28T11:14:25Z</time>
      </trkpt>
      <trkpt lat="42.75136" lon="2.67628">
        <ele>113.8</ele>
        <time>2021-03-28T11:14:25Z</time>
      </trkpt>
      <trkpt lat="42.75131" lon="2.67633">
        <ele>114.3</ele>
        <time>2021-03-28T11:14:27Z</time>
      </trkpt>
      <trkpt lat="42.75131" lon="2.67633">
        <ele>114.3</ele>
        <time>2021-03-28T11:14:27Z</time>
      </trkpt>
      <trkpt lat="42.75127" lon="2.67637">
        <ele>114.5</ele>
        <time>2021-03-28T11:14:28Z</time>
      </trkpt>
      <trkpt lat="42.75127" lon="2.67637">
        <ele>114.5</ele>
        <time>2021-03-28T11:14:28Z</time>
      </trkpt>
      <trkpt lat="42.75123" lon="2.6764">
        <ele>114.7</ele>
        <time>2021-03-28T11:14:29Z</time>
      </trkpt>
      <trkpt lat="42.75123" lon="2.6764">
        <ele>114.7</ele>
        <time>2021-03-28T11:14:29Z</time>
      </trkpt>
      <trkpt lat="42.75119" lon="2.67643">
        <ele>115</ele>
        <time>2021-03-28T11:14:31Z</time>
      </trkpt>
      <trkpt lat="42.75119" lon="2.67643">
        <ele>115</ele>
        <time>2021-03-28T11:14:31Z</time>
      </trkpt>
      <trkpt lat="42.75114" lon="2.67648">
        <ele>115.4</ele>
        <time>2021-03-28T11:14:33Z</time>
      </trkpt>
      <trkpt lat="42.75114" lon="2.67648">
        <ele>115.4</ele>
        <time>2021-03-28T11:14:33Z</time>
      </trkpt>
      <trkpt lat="42.7511" lon="2.67651">
        <ele>115.8</ele>
        <time>2021-03-28T11:14:35Z</time>
      </trkpt>
      <trkpt lat="42.7511" lon="2.67651">
        <ele>115.8</ele>
        <time>2021-03-28T11:14:35Z</time>
      </trkpt>
      <trkpt lat="42.75105" lon="2.67656">
        <ele>116.3</ele>
        <time>2021-03-28T11:14:37Z</time>
      </trkpt>
      <trkpt lat="42.75105" lon="2.67656">
        <ele>116.3</ele>
        <time>2021-03-28T11:14:37Z</time>
      </trkpt>
      <trkpt lat="42.751" lon="2.6766">
        <ele>116.7</ele>
        <time>2021-03-28T11:14:39Z</time>
      </trkpt>
      <trkpt lat="42.751" lon="2.6766">
        <ele>116.7</ele>
        <time>2021-03-28T11:14:39Z</time>
      </trkpt>
      <trkpt lat="42.75096" lon="2.67664">
        <ele>116.9</ele>
        <time>2021-03-28T11:14:41Z</time>
      </trkpt>
      <trkpt lat="42.75096" lon="2.67664">
        <ele>116.9</ele>
        <time>2021-03-28T11:14:41Z</time>
      </trkpt>
      <trkpt lat="42.75091" lon="2.67669">
        <ele>117</ele>
        <time>2021-03-28T11:14:43Z</time>
      </trkpt>
      <trkpt lat="42.75091" lon="2.67669">
        <ele>117</ele>
        <time>2021-03-28T11:14:43Z</time>
      </trkpt>
      <trkpt lat="42.75087" lon="2.67673">
        <ele>117.2</ele>
        <time>2021-03-28T11:14:44Z</time>
      </trkpt>
      <trkpt lat="42.75087" lon="2.67673">
        <ele>117.2</ele>
        <time>2021-03-28T11:14:44Z</time>
      </trkpt>
      <trkpt lat="42.75084" lon="2.67676">
        <ele>117.3</ele>
        <time>2021-03-28T11:14:45Z</time>
      </trkpt>
      <trkpt lat="42.75084" lon="2.67676">
        <ele>117.3</ele>
        <time>2021-03-28T11:14:45Z</time>
      </trkpt>
      <trkpt lat="42.7508" lon="2.6768">
        <ele>117.3</ele>
        <time>2021-03-28T11:14:47Z</time>
      </trkpt>
      <trkpt lat="42.7508" lon="2.6768">
        <ele>117.3</ele>
        <time>2021-03-28T11:14:47Z</time>
      </trkpt>
      <trkpt lat="42.75077" lon="2.67685">
        <ele>117.4</ele>
        <time>2021-03-28T11:14:49Z</time>
      </trkpt>
      <trkpt lat="42.75077" lon="2.67685">
        <ele>117.4</ele>
        <time>2021-03-28T11:14:49Z</time>
      </trkpt>
      <trkpt lat="42.75072" lon="2.67691">
        <ele>117.5</ele>
        <time>2021-03-28T11:14:51Z</time>
      </trkpt>
      <trkpt lat="42.75072" lon="2.67691">
        <ele>117.5</ele>
        <time>2021-03-28T11:14:51Z</time>
      </trkpt>
      <trkpt lat="42.75067" lon="2.67696">
        <ele>117.7</ele>
        <time>2021-03-28T11:14:53Z</time>
      </trkpt>
      <trkpt lat="42.75067" lon="2.67696">
        <ele>117.7</ele>
        <time>2021-03-28T11:14:53Z</time>
      </trkpt>
      <trkpt lat="42.75063" lon="2.67701">
        <ele>118</ele>
        <time>2021-03-28T11:14:55Z</time>
      </trkpt>
      <trkpt lat="42.75063" lon="2.67701">
        <ele>118</ele>
        <time>2021-03-28T11:14:55Z</time>
      </trkpt>
      <trkpt lat="42.75058" lon="2.67707">
        <ele>118.3</ele>
        <time>2021-03-28T11:14:57Z</time>
      </trkpt>
      <trkpt lat="42.75058" lon="2.67707">
        <ele>118.3</ele>
        <time>2021-03-28T11:14:57Z</time>
      </trkpt>
      <trkpt lat="42.75054" lon="2.67711">
        <ele>118.7</ele>
        <time>2021-03-28T11:14:58Z</time>
      </trkpt>
      <trkpt lat="42.75054" lon="2.67711">
        <ele>118.7</ele>
        <time>2021-03-28T11:14:58Z</time>
      </trkpt>
      <trkpt lat="42.7505" lon="2.67716">
        <ele>119</ele>
        <time>2021-03-28T11:15:00Z</time>
      </trkpt>
      <trkpt lat="42.7505" lon="2.67716">
        <ele>119</ele>
        <time>2021-03-28T11:15:00Z</time>
      </trkpt>
      <trkpt lat="42.75046" lon="2.67721">
        <ele>119.4</ele>
        <time>2021-03-28T11:15:01Z</time>
      </trkpt>
      <trkpt lat="42.75046" lon="2.67721">
        <ele>119.4</ele>
        <time>2021-03-28T11:15:01Z</time>
      </trkpt>
      <trkpt lat="42.75043" lon="2.67726">
        <ele>119.7</ele>
        <time>2021-03-28T11:15:03Z</time>
      </trkpt>
      <trkpt lat="42.75043" lon="2.67726">
        <ele>119.7</ele>
        <time>2021-03-28T11:15:03Z</time>
      </trkpt>
      <trkpt lat="42.75039" lon="2.67731">
        <ele>120</ele>
        <time>2021-03-28T11:15:05Z</time>
      </trkpt>
      <trkpt lat="42.75039" lon="2.67731">
        <ele>120</ele>
        <time>2021-03-28T11:15:05Z</time>
      </trkpt>
      <trkpt lat="42.75036" lon="2.67735">
        <ele>120.3</ele>
        <time>2021-03-28T11:15:06Z</time>
      </trkpt>
      <trkpt lat="42.75036" lon="2.67735">
        <ele>120.3</ele>
        <time>2021-03-28T11:15:06Z</time>
      </trkpt>
      <trkpt lat="42.75034" lon="2.6774">
        <ele>120.5</ele>
        <time>2021-03-28T11:15:08Z</time>
      </trkpt>
      <trkpt lat="42.75034" lon="2.6774">
        <ele>120.5</ele>
        <time>2021-03-28T11:15:08Z</time>
      </trkpt>
      <trkpt lat="42.75031" lon="2.67743">
        <ele>120.8</ele>
        <time>2021-03-28T11:15:09Z</time>
      </trkpt>
      <trkpt lat="42.75031" lon="2.67743">
        <ele>120.8</ele>
        <time>2021-03-28T11:15:09Z</time>
      </trkpt>
      <trkpt lat="42.75028" lon="2.67747">
        <ele>121.1</ele>
        <time>2021-03-28T11:15:11Z</time>
      </trkpt>
      <trkpt lat="42.75028" lon="2.67747">
        <ele>121.1</ele>
        <time>2021-03-28T11:15:11Z</time>
      </trkpt>
      <trkpt lat="42.75024" lon="2.6775">
        <ele>121.4</ele>
        <time>2021-03-28T11:15:13Z</time>
      </trkpt>
      <trkpt lat="42.75024" lon="2.6775">
        <ele>121.4</ele>
        <time>2021-03-28T11:15:13Z</time>
      </trkpt>
      <trkpt lat="42.75021" lon="2.67753">
        <ele>121.5</ele>
        <time>2021-03-28T11:15:14Z</time>
      </trkpt>
      <trkpt lat="42.75021" lon="2.67753">
        <ele>121.5</ele>
        <time>2021-03-28T11:15:14Z</time>
      </trkpt>
      <trkpt lat="42.75018" lon="2.67755">
        <ele>121.6</ele>
        <time>2021-03-28T11:15:15Z</time>
      </trkpt>
      <trkpt lat="42.75018" lon="2.67755">
        <ele>121.6</ele>
        <time>2021-03-28T11:15:15Z</time>
      </trkpt>
      <trkpt lat="42.75016" lon="2.67757">
        <ele>121.6</ele>
        <time>2021-03-28T11:15:16Z</time>
      </trkpt>
      <trkpt lat="42.75016" lon="2.67757">
        <ele>121.6</ele>
        <time>2021-03-28T11:15:16Z</time>
      </trkpt>
      <trkpt lat="42.75013" lon="2.6776">
        <ele>121.7</ele>
        <time>2021-03-28T11:15:18Z</time>
      </trkpt>
      <trkpt lat="42.75013" lon="2.6776">
        <ele>121.7</ele>
        <time>2021-03-28T11:15:18Z</time>
      </trkpt>
      <trkpt lat="42.7501" lon="2.67763">
        <ele>121.8</ele>
        <time>2021-03-28T11:15:20Z</time>
      </trkpt>
      <trkpt lat="42.7501" lon="2.67763">
        <ele>121.8</ele>
        <time>2021-03-28T11:15:20Z</time>
      </trkpt>
      <trkpt lat="42.75007" lon="2.67766">
        <ele>121.9</ele>
        <time>2021-03-28T11:15:21Z</time>
      </trkpt>
      <trkpt lat="42.75007" lon="2.67766">
        <ele>121.9</ele>
        <time>2021-03-28T11:15:21Z</time>
      </trkpt>
      <trkpt lat="42.75004" lon="2.67769">
        <ele>122.1</ele>
        <time>2021-03-28T11:15:23Z</time>
      </trkpt>
      <trkpt lat="42.75004" lon="2.67769">
        <ele>122.1</ele>
        <time>2021-03-28T11:15:23Z</time>
      </trkpt>
      <trkpt lat="42.74999" lon="2.67772">
        <ele>122.5</ele>
        <time>2021-03-28T11:15:25Z</time>
      </trkpt>
      <trkpt lat="42.74999" lon="2.67772">
        <ele>122.5</ele>
        <time>2021-03-28T11:15:25Z</time>
      </trkpt>
      <trkpt lat="42.74995" lon="2.67775">
        <ele>122.8</ele>
        <time>2021-03-28T11:15:26Z</time>
      </trkpt>
      <trkpt lat="42.74995" lon="2.67775">
        <ele>122.8</ele>
        <time>2021-03-28T11:15:26Z</time>
      </trkpt>
      <trkpt lat="42.74989" lon="2.67778">
        <ele>123.1</ele>
        <time>2021-03-28T11:15:28Z</time>
      </trkpt>
      <trkpt lat="42.74989" lon="2.67778">
        <ele>123.1</ele>
        <time>2021-03-28T11:15:28Z</time>
      </trkpt>
      <trkpt lat="42.74984" lon="2.67781">
        <ele>123.7</ele>
        <time>2021-03-28T11:15:30Z</time>
      </trkpt>
      <trkpt lat="42.74984" lon="2.67781">
        <ele>123.7</ele>
        <time>2021-03-28T11:15:30Z</time>
      </trkpt>
      <trkpt lat="42.74979" lon="2.67783">
        <ele>124.1</ele>
        <time>2021-03-28T11:15:31Z</time>
      </trkpt>
      <trkpt lat="42.74979" lon="2.67783">
        <ele>124.1</ele>
        <time>2021-03-28T11:15:31Z</time>
      </trkpt>
      <trkpt lat="42.74975" lon="2.67786">
        <ele>124.5</ele>
        <time>2021-03-28T11:15:32Z</time>
      </trkpt>
      <trkpt lat="42.74975" lon="2.67786">
        <ele>124.5</ele>
        <time>2021-03-28T11:15:32Z</time>
      </trkpt>
      <trkpt lat="42.7497" lon="2.67788">
        <ele>125</ele>
        <time>2021-03-28T11:15:34Z</time>
      </trkpt>
      <trkpt lat="42.7497" lon="2.67788">
        <ele>125</ele>
        <time>2021-03-28T11:15:34Z</time>
      </trkpt>
      <trkpt lat="42.74965" lon="2.67792">
        <ele>125.6</ele>
        <time>2021-03-28T11:15:36Z</time>
      </trkpt>
      <trkpt lat="42.74965" lon="2.67792">
        <ele>125.6</ele>
        <time>2021-03-28T11:15:36Z</time>
      </trkpt>
      <trkpt lat="42.74961" lon="2.67794">
        <ele>126</ele>
        <time>2021-03-28T11:15:37Z</time>
      </trkpt>
      <trkpt lat="42.74961" lon="2.67794">
        <ele>126</ele>
        <time>2021-03-28T11:15:37Z</time>
      </trkpt>
      <trkpt lat="42.74957" lon="2.67797">
        <ele>126.3</ele>
        <time>2021-03-28T11:15:39Z</time>
      </trkpt>
      <trkpt lat="42.74957" lon="2.67797">
        <ele>126.3</ele>
        <time>2021-03-28T11:15:39Z</time>
      </trkpt>
      <trkpt lat="42.74953" lon="2.67801">
        <ele>126.5</ele>
        <time>2021-03-28T11:15:41Z</time>
      </trkpt>
      <trkpt lat="42.74953" lon="2.67801">
        <ele>126.5</ele>
        <time>2021-03-28T11:15:41Z</time>
      </trkpt>
      <trkpt lat="42.74949" lon="2.67805">
        <ele>126.6</ele>
        <time>2021-03-28T11:15:43Z</time>
      </trkpt>
      <trkpt lat="42.74949" lon="2.67805">
        <ele>126.6</ele>
        <time>2021-03-28T11:15:43Z</time>
      </trkpt>
      <trkpt lat="42.74945" lon="2.67808">
        <ele>126.8</ele>
        <time>2021-03-28T11:15:44Z</time>
      </trkpt>
      <trkpt lat="42.74945" lon="2.67808">
        <ele>126.8</ele>
        <time>2021-03-28T11:15:44Z</time>
      </trkpt>
      <trkpt lat="42.74941" lon="2.67812">
        <ele>127</ele>
        <time>2021-03-28T11:15:46Z</time>
      </trkpt>
      <trkpt lat="42.74941" lon="2.67812">
        <ele>127</ele>
        <time>2021-03-28T11:15:46Z</time>
      </trkpt>
      <trkpt lat="42.74937" lon="2.67816">
        <ele>127.3</ele>
        <time>2021-03-28T11:15:48Z</time>
      </trkpt>
      <trkpt lat="42.74937" lon="2.67816">
        <ele>127.3</ele>
        <time>2021-03-28T11:15:48Z</time>
      </trkpt>
      <trkpt lat="42.74934" lon="2.6782">
        <ele>127.4</ele>
        <time>2021-03-28T11:15:50Z</time>
      </trkpt>
      <trkpt lat="42.74934" lon="2.6782">
        <ele>127.4</ele>
        <time>2021-03-28T11:15:50Z</time>
      </trkpt>
      <trkpt lat="42.74931" lon="2.67825">
        <ele>127.5</ele>
        <time>2021-03-28T11:15:52Z</time>
      </trkpt>
      <trkpt lat="42.74931" lon="2.67825">
        <ele>127.5</ele>
        <time>2021-03-28T11:15:52Z</time>
      </trkpt>
      <trkpt lat="42.74929" lon="2.67831">
        <ele>127.5</ele>
        <time>2021-03-28T11:15:54Z</time>
      </trkpt>
      <trkpt lat="42.74929" lon="2.67831">
        <ele>127.5</ele>
        <time>2021-03-28T11:15:54Z</time>
      </trkpt>
      <trkpt lat="42.74926" lon="2.67835">
        <ele>127.7</ele>
        <time>2021-03-28T11:15:56Z</time>
      </trkpt>
      <trkpt lat="42.74926" lon="2.67835">
        <ele>127.7</ele>
        <time>2021-03-28T11:15:56Z</time>
      </trkpt>
      <trkpt lat="42.74923" lon="2.67836">
        <ele>128.1</ele>
        <time>2021-03-28T11:15:58Z</time>
      </trkpt>
      <trkpt lat="42.74923" lon="2.67836">
        <ele>128.1</ele>
        <time>2021-03-28T11:15:58Z</time>
      </trkpt>
      <trkpt lat="42.7492" lon="2.67836">
        <ele>128.5</ele>
        <time>2021-03-28T11:15:59Z</time>
      </trkpt>
      <trkpt lat="42.7492" lon="2.67836">
        <ele>128.5</ele>
        <time>2021-03-28T11:15:59Z</time>
      </trkpt>
      <trkpt lat="42.74918" lon="2.67835">
        <ele>128.9</ele>
        <time>2021-03-28T11:16:00Z</time>
      </trkpt>
      <trkpt lat="42.74918" lon="2.67835">
        <ele>128.9</ele>
        <time>2021-03-28T11:16:00Z</time>
      </trkpt>
      <trkpt lat="42.74915" lon="2.67832">
        <ele>129.3</ele>
        <time>2021-03-28T11:16:02Z</time>
      </trkpt>
      <trkpt lat="42.74915" lon="2.67832">
        <ele>129.3</ele>
        <time>2021-03-28T11:16:02Z</time>
      </trkpt>
      <trkpt lat="42.74913" lon="2.67829">
        <ele>129.8</ele>
        <time>2021-03-28T11:16:04Z</time>
      </trkpt>
      <trkpt lat="42.74913" lon="2.67829">
        <ele>129.8</ele>
        <time>2021-03-28T11:16:04Z</time>
      </trkpt>
      <trkpt lat="42.74911" lon="2.67826">
        <ele>130.3</ele>
        <time>2021-03-28T11:16:05Z</time>
      </trkpt>
      <trkpt lat="42.74911" lon="2.67826">
        <ele>130.3</ele>
        <time>2021-03-28T11:16:05Z</time>
      </trkpt>
      <trkpt lat="42.74908" lon="2.67822">
        <ele>130.7</ele>
        <time>2021-03-28T11:16:07Z</time>
      </trkpt>
      <trkpt lat="42.74908" lon="2.67822">
        <ele>130.7</ele>
        <time>2021-03-28T11:16:07Z</time>
      </trkpt>
      <trkpt lat="42.74906" lon="2.67818">
        <ele>131.2</ele>
        <time>2021-03-28T11:16:09Z</time>
      </trkpt>
      <trkpt lat="42.74906" lon="2.67818">
        <ele>131.2</ele>
        <time>2021-03-28T11:16:09Z</time>
      </trkpt>
      <trkpt lat="42.74905" lon="2.67814">
        <ele>131.5</ele>
        <time>2021-03-28T11:16:10Z</time>
      </trkpt>
      <trkpt lat="42.74905" lon="2.67814">
        <ele>131.5</ele>
        <time>2021-03-28T11:16:10Z</time>
      </trkpt>
      <trkpt lat="42.74903" lon="2.6781">
        <ele>131.8</ele>
        <time>2021-03-28T11:16:11Z</time>
      </trkpt>
      <trkpt lat="42.74903" lon="2.6781">
        <ele>131.8</ele>
        <time>2021-03-28T11:16:11Z</time>
      </trkpt>
      <trkpt lat="42.74901" lon="2.67806">
        <ele>132.1</ele>
        <time>2021-03-28T11:16:13Z</time>
      </trkpt>
      <trkpt lat="42.74901" lon="2.67806">
        <ele>132.1</ele>
        <time>2021-03-28T11:16:13Z</time>
      </trkpt>
      <trkpt lat="42.74899" lon="2.67801">
        <ele>132.5</ele>
        <time>2021-03-28T11:16:15Z</time>
      </trkpt>
      <trkpt lat="42.74899" lon="2.67801">
        <ele>132.5</ele>
        <time>2021-03-28T11:16:15Z</time>
      </trkpt>
      <trkpt lat="42.74897" lon="2.67798">
        <ele>132.8</ele>
        <time>2021-03-28T11:16:16Z</time>
      </trkpt>
      <trkpt lat="42.74897" lon="2.67798">
        <ele>132.8</ele>
        <time>2021-03-28T11:16:16Z</time>
      </trkpt>
      <trkpt lat="42.74896" lon="2.67793">
        <ele>133.1</ele>
        <time>2021-03-28T11:16:18Z</time>
      </trkpt>
      <trkpt lat="42.74896" lon="2.67793">
        <ele>133.1</ele>
        <time>2021-03-28T11:16:18Z</time>
      </trkpt>
      <trkpt lat="42.74894" lon="2.67789">
        <ele>133.3</ele>
        <time>2021-03-28T11:16:19Z</time>
      </trkpt>
      <trkpt lat="42.74894" lon="2.67789">
        <ele>133.3</ele>
        <time>2021-03-28T11:16:19Z</time>
      </trkpt>
      <trkpt lat="42.74893" lon="2.67785">
        <ele>133.6</ele>
        <time>2021-03-28T11:16:21Z</time>
      </trkpt>
      <trkpt lat="42.74893" lon="2.67785">
        <ele>133.6</ele>
        <time>2021-03-28T11:16:21Z</time>
      </trkpt>
      <trkpt lat="42.74891" lon="2.67781">
        <ele>133.8</ele>
        <time>2021-03-28T11:16:23Z</time>
      </trkpt>
      <trkpt lat="42.74891" lon="2.67781">
        <ele>133.8</ele>
        <time>2021-03-28T11:16:23Z</time>
      </trkpt>
      <trkpt lat="42.74889" lon="2.67777">
        <ele>134</ele>
        <time>2021-03-28T11:16:24Z</time>
      </trkpt>
      <trkpt lat="42.74889" lon="2.67777">
        <ele>134</ele>
        <time>2021-03-28T11:16:24Z</time>
      </trkpt>
      <trkpt lat="42.74888" lon="2.67774">
        <ele>134.4</ele>
        <time>2021-03-28T11:16:25Z</time>
      </trkpt>
      <trkpt lat="42.74888" lon="2.67774">
        <ele>134.4</ele>
        <time>2021-03-28T11:16:25Z</time>
      </trkpt>
      <trkpt lat="42.74887" lon="2.6777">
        <ele>134.9</ele>
        <time>2021-03-28T11:16:27Z</time>
      </trkpt>
      <trkpt lat="42.74887" lon="2.6777">
        <ele>134.9</ele>
        <time>2021-03-28T11:16:27Z</time>
      </trkpt>
      <trkpt lat="42.74885" lon="2.67766">
        <ele>135.3</ele>
        <time>2021-03-28T11:16:28Z</time>
      </trkpt>
      <trkpt lat="42.74885" lon="2.67766">
        <ele>135.3</ele>
        <time>2021-03-28T11:16:28Z</time>
      </trkpt>
      <trkpt lat="42.74884" lon="2.67762">
        <ele>135.7</ele>
        <time>2021-03-28T11:16:30Z</time>
      </trkpt>
      <trkpt lat="42.74884" lon="2.67762">
        <ele>135.7</ele>
        <time>2021-03-28T11:16:30Z</time>
      </trkpt>
      <trkpt lat="42.74882" lon="2.67757">
        <ele>136.1</ele>
        <time>2021-03-28T11:16:32Z</time>
      </trkpt>
      <trkpt lat="42.74882" lon="2.67757">
        <ele>136.1</ele>
        <time>2021-03-28T11:16:32Z</time>
      </trkpt>
      <trkpt lat="42.74881" lon="2.67753">
        <ele>136.4</ele>
        <time>2021-03-28T11:16:34Z</time>
      </trkpt>
      <trkpt lat="42.74881" lon="2.67753">
        <ele>136.4</ele>
        <time>2021-03-28T11:16:34Z</time>
      </trkpt>
      <trkpt lat="42.7488" lon="2.67749">
        <ele>136.7</ele>
        <time>2021-03-28T11:16:35Z</time>
      </trkpt>
      <trkpt lat="42.7488" lon="2.67749">
        <ele>136.7</ele>
        <time>2021-03-28T11:16:35Z</time>
      </trkpt>
      <trkpt lat="42.74878" lon="2.67745">
        <ele>137.1</ele>
        <time>2021-03-28T11:16:37Z</time>
      </trkpt>
      <trkpt lat="42.74878" lon="2.67745">
        <ele>137.1</ele>
        <time>2021-03-28T11:16:37Z</time>
      </trkpt>
      <trkpt lat="42.74875" lon="2.67742">
        <ele>137.4</ele>
        <time>2021-03-28T11:16:38Z</time>
      </trkpt>
      <trkpt lat="42.74875" lon="2.67742">
        <ele>137.4</ele>
        <time>2021-03-28T11:16:38Z</time>
      </trkpt>
      <trkpt lat="42.74874" lon="2.67739">
        <ele>137.6</ele>
        <time>2021-03-28T11:16:39Z</time>
      </trkpt>
      <trkpt lat="42.74874" lon="2.67739">
        <ele>137.6</ele>
        <time>2021-03-28T11:16:39Z</time>
      </trkpt>
      <trkpt lat="42.74871" lon="2.67736">
        <ele>137.8</ele>
        <time>2021-03-28T11:16:41Z</time>
      </trkpt>
      <trkpt lat="42.74871" lon="2.67736">
        <ele>137.8</ele>
        <time>2021-03-28T11:16:41Z</time>
      </trkpt>
      <trkpt lat="42.74869" lon="2.67734">
        <ele>137.9</ele>
        <time>2021-03-28T11:16:42Z</time>
      </trkpt>
      <trkpt lat="42.74869" lon="2.67734">
        <ele>137.9</ele>
        <time>2021-03-28T11:16:42Z</time>
      </trkpt>
      <trkpt lat="42.74866" lon="2.67731">
        <ele>138</ele>
        <time>2021-03-28T11:16:43Z</time>
      </trkpt>
      <trkpt lat="42.74866" lon="2.67731">
        <ele>138</ele>
        <time>2021-03-28T11:16:43Z</time>
      </trkpt>
      <trkpt lat="42.74863" lon="2.67726">
        <ele>138</ele>
        <time>2021-03-28T11:16:45Z</time>
      </trkpt>
      <trkpt lat="42.74863" lon="2.67726">
        <ele>138</ele>
        <time>2021-03-28T11:16:45Z</time>
      </trkpt>
      <trkpt lat="42.74859" lon="2.67719">
        <ele>138.1</ele>
        <time>2021-03-28T11:16:47Z</time>
      </trkpt>
      <trkpt lat="42.74859" lon="2.67719">
        <ele>138.1</ele>
        <time>2021-03-28T11:16:47Z</time>
      </trkpt>
      <trkpt lat="42.74855" lon="2.67712">
        <ele>138.2</ele>
        <time>2021-03-28T11:16:48Z</time>
      </trkpt>
      <trkpt lat="42.74855" lon="2.67712">
        <ele>138.2</ele>
        <time>2021-03-28T11:16:48Z</time>
      </trkpt>
      <trkpt lat="42.74851" lon="2.67705">
        <ele>138.2</ele>
        <time>2021-03-28T11:16:50Z</time>
      </trkpt>
      <trkpt lat="42.74851" lon="2.67705">
        <ele>138.2</ele>
        <time>2021-03-28T11:16:50Z</time>
      </trkpt>
      <trkpt lat="42.74846" lon="2.67697">
        <ele>137.9</ele>
        <time>2021-03-28T11:16:52Z</time>
      </trkpt>
      <trkpt lat="42.74846" lon="2.67697">
        <ele>137.9</ele>
        <time>2021-03-28T11:16:52Z</time>
      </trkpt>
      <trkpt lat="42.74842" lon="2.67691">
        <ele>137.5</ele>
        <time>2021-03-28T11:16:53Z</time>
      </trkpt>
      <trkpt lat="42.74842" lon="2.67691">
        <ele>137.5</ele>
        <time>2021-03-28T11:16:53Z</time>
      </trkpt>
      <trkpt lat="42.74838" lon="2.67684">
        <ele>137</ele>
        <time>2021-03-28T11:16:55Z</time>
      </trkpt>
      <trkpt lat="42.74838" lon="2.67684">
        <ele>137</ele>
        <time>2021-03-28T11:16:55Z</time>
      </trkpt>
      <trkpt lat="42.74834" lon="2.67679">
        <ele>136.5</ele>
        <time>2021-03-28T11:16:56Z</time>
      </trkpt>
      <trkpt lat="42.74834" lon="2.67679">
        <ele>136.5</ele>
        <time>2021-03-28T11:16:56Z</time>
      </trkpt>
      <trkpt lat="42.74829" lon="2.67674">
        <ele>136.9</ele>
        <time>2021-03-28T11:16:58Z</time>
      </trkpt>
      <trkpt lat="42.74829" lon="2.67674">
        <ele>136.9</ele>
        <time>2021-03-28T11:16:58Z</time>
      </trkpt>
      <trkpt lat="42.74826" lon="2.6767">
        <ele>137.4</ele>
        <time>2021-03-28T11:16:59Z</time>
      </trkpt>
      <trkpt lat="42.74826" lon="2.6767">
        <ele>137.4</ele>
        <time>2021-03-28T11:16:59Z</time>
      </trkpt>
      <trkpt lat="42.74823" lon="2.67666">
        <ele>137.8</ele>
        <time>2021-03-28T11:17:00Z</time>
      </trkpt>
      <trkpt lat="42.74823" lon="2.67666">
        <ele>137.8</ele>
        <time>2021-03-28T11:17:00Z</time>
      </trkpt>
      <trkpt lat="42.7482" lon="2.67661">
        <ele>138</ele>
        <time>2021-03-28T11:17:02Z</time>
      </trkpt>
      <trkpt lat="42.7482" lon="2.67661">
        <ele>138</ele>
        <time>2021-03-28T11:17:02Z</time>
      </trkpt>
      <trkpt lat="42.74817" lon="2.67657">
        <ele>138.3</ele>
        <time>2021-03-28T11:17:04Z</time>
      </trkpt>
      <trkpt lat="42.74817" lon="2.67657">
        <ele>138.3</ele>
        <time>2021-03-28T11:17:04Z</time>
      </trkpt>
      <trkpt lat="42.74814" lon="2.67652">
        <ele>138.8</ele>
        <time>2021-03-28T11:17:06Z</time>
      </trkpt>
      <trkpt lat="42.74814" lon="2.67652">
        <ele>138.8</ele>
        <time>2021-03-28T11:17:06Z</time>
      </trkpt>
      <trkpt lat="42.74809" lon="2.67648">
        <ele>139.5</ele>
        <time>2021-03-28T11:17:08Z</time>
      </trkpt>
      <trkpt lat="42.74809" lon="2.67648">
        <ele>139.5</ele>
        <time>2021-03-28T11:17:08Z</time>
      </trkpt>
      <trkpt lat="42.74805" lon="2.67644">
        <ele>140.3</ele>
        <time>2021-03-28T11:17:10Z</time>
      </trkpt>
      <trkpt lat="42.74805" lon="2.67644">
        <ele>140.3</ele>
        <time>2021-03-28T11:17:10Z</time>
      </trkpt>
      <trkpt lat="42.74801" lon="2.67642">
        <ele>141.3</ele>
        <time>2021-03-28T11:17:11Z</time>
      </trkpt>
      <trkpt lat="42.74801" lon="2.67642">
        <ele>141.3</ele>
        <time>2021-03-28T11:17:11Z</time>
      </trkpt>
      <trkpt lat="42.74798" lon="2.67639">
        <ele>142.3</ele>
        <time>2021-03-28T11:17:13Z</time>
      </trkpt>
      <trkpt lat="42.74798" lon="2.67639">
        <ele>142.3</ele>
        <time>2021-03-28T11:17:13Z</time>
      </trkpt>
      <trkpt lat="42.74794" lon="2.67637">
        <ele>143.3</ele>
        <time>2021-03-28T11:17:14Z</time>
      </trkpt>
      <trkpt lat="42.74794" lon="2.67637">
        <ele>143.3</ele>
        <time>2021-03-28T11:17:14Z</time>
      </trkpt>
      <trkpt lat="42.74791" lon="2.67635">
        <ele>144.1</ele>
        <time>2021-03-28T11:17:15Z</time>
      </trkpt>
      <trkpt lat="42.74791" lon="2.67635">
        <ele>144.1</ele>
        <time>2021-03-28T11:17:15Z</time>
      </trkpt>
      <trkpt lat="42.74788" lon="2.67633">
        <ele>144.8</ele>
        <time>2021-03-28T11:17:17Z</time>
      </trkpt>
      <trkpt lat="42.74788" lon="2.67633">
        <ele>144.8</ele>
        <time>2021-03-28T11:17:17Z</time>
      </trkpt>
      <trkpt lat="42.74785" lon="2.6763">
        <ele>145.5</ele>
        <time>2021-03-28T11:17:19Z</time>
      </trkpt>
      <trkpt lat="42.74785" lon="2.6763">
        <ele>145.5</ele>
        <time>2021-03-28T11:17:19Z</time>
      </trkpt>
      <trkpt lat="42.74782" lon="2.67628">
        <ele>145.9</ele>
        <time>2021-03-28T11:17:20Z</time>
      </trkpt>
      <trkpt lat="42.74782" lon="2.67628">
        <ele>145.9</ele>
        <time>2021-03-28T11:17:20Z</time>
      </trkpt>
      <trkpt lat="42.74779" lon="2.67626">
        <ele>146.3</ele>
        <time>2021-03-28T11:17:21Z</time>
      </trkpt>
      <trkpt lat="42.74779" lon="2.67626">
        <ele>146.3</ele>
        <time>2021-03-28T11:17:21Z</time>
      </trkpt>
      <trkpt lat="42.74776" lon="2.67623">
        <ele>146.3</ele>
        <time>2021-03-28T11:17:23Z</time>
      </trkpt>
      <trkpt lat="42.74776" lon="2.67623">
        <ele>146.3</ele>
        <time>2021-03-28T11:17:23Z</time>
      </trkpt>
      <trkpt lat="42.74771" lon="2.6762">
        <ele>145.9</ele>
        <time>2021-03-28T11:17:25Z</time>
      </trkpt>
      <trkpt lat="42.74771" lon="2.6762">
        <ele>145.9</ele>
        <time>2021-03-28T11:17:25Z</time>
      </trkpt>
      <trkpt lat="42.74764" lon="2.67619">
        <ele>145.5</ele>
        <time>2021-03-28T11:17:27Z</time>
      </trkpt>
      <trkpt lat="42.74764" lon="2.67619">
        <ele>145.5</ele>
        <time>2021-03-28T11:17:27Z</time>
      </trkpt>
      <trkpt lat="42.74758" lon="2.67618">
        <ele>145.3</ele>
        <time>2021-03-28T11:17:28Z</time>
      </trkpt>
      <trkpt lat="42.74758" lon="2.67618">
        <ele>145.3</ele>
        <time>2021-03-28T11:17:28Z</time>
      </trkpt>
      <trkpt lat="42.74751" lon="2.67619">
        <ele>145.2</ele>
        <time>2021-03-28T11:17:30Z</time>
      </trkpt>
      <trkpt lat="42.74751" lon="2.67619">
        <ele>145.2</ele>
        <time>2021-03-28T11:17:30Z</time>
      </trkpt>
      <trkpt lat="42.74744" lon="2.67619">
        <ele>144.1</ele>
        <time>2021-03-28T11:17:31Z</time>
      </trkpt>
      <trkpt lat="42.74744" lon="2.67619">
        <ele>144.1</ele>
        <time>2021-03-28T11:17:31Z</time>
      </trkpt>
      <trkpt lat="42.74737" lon="2.6762">
        <ele>143.1</ele>
        <time>2021-03-28T11:17:32Z</time>
      </trkpt>
      <trkpt lat="42.74737" lon="2.6762">
        <ele>143.1</ele>
        <time>2021-03-28T11:17:32Z</time>
      </trkpt>
      <trkpt lat="42.7473" lon="2.67621">
        <ele>142.2</ele>
        <time>2021-03-28T11:17:33Z</time>
      </trkpt>
      <trkpt lat="42.7473" lon="2.67621">
        <ele>142.2</ele>
        <time>2021-03-28T11:17:33Z</time>
      </trkpt>
      <trkpt lat="42.74722" lon="2.67621">
        <ele>140.9</ele>
        <time>2021-03-28T11:17:35Z</time>
      </trkpt>
      <trkpt lat="42.74722" lon="2.67621">
        <ele>140.9</ele>
        <time>2021-03-28T11:17:35Z</time>
      </trkpt>
      <trkpt lat="42.74711" lon="2.67622">
        <ele>140.1</ele>
        <time>2021-03-28T11:17:37Z</time>
      </trkpt>
      <trkpt lat="42.74711" lon="2.67622">
        <ele>140.1</ele>
        <time>2021-03-28T11:17:37Z</time>
      </trkpt>
      <trkpt lat="42.74701" lon="2.67623">
        <ele>139.4</ele>
        <time>2021-03-28T11:17:38Z</time>
      </trkpt>
      <trkpt lat="42.74701" lon="2.67623">
        <ele>139.4</ele>
        <time>2021-03-28T11:17:38Z</time>
      </trkpt>
      <trkpt lat="42.7469" lon="2.67623">
        <ele>138.9</ele>
        <time>2021-03-28T11:17:40Z</time>
      </trkpt>
      <trkpt lat="42.7469" lon="2.67623">
        <ele>138.9</ele>
        <time>2021-03-28T11:17:40Z</time>
      </trkpt>
      <trkpt lat="42.74681" lon="2.67622">
        <ele>139.1</ele>
        <time>2021-03-28T11:17:41Z</time>
      </trkpt>
      <trkpt lat="42.74681" lon="2.67622">
        <ele>139.1</ele>
        <time>2021-03-28T11:17:41Z</time>
      </trkpt>
      <trkpt lat="42.7467" lon="2.67621">
        <ele>139.4</ele>
        <time>2021-03-28T11:17:43Z</time>
      </trkpt>
      <trkpt lat="42.7467" lon="2.67621">
        <ele>139.4</ele>
        <time>2021-03-28T11:17:43Z</time>
      </trkpt>
      <trkpt lat="42.74659" lon="2.67621">
        <ele>139.3</ele>
        <time>2021-03-28T11:17:45Z</time>
      </trkpt>
      <trkpt lat="42.74659" lon="2.67621">
        <ele>139.3</ele>
        <time>2021-03-28T11:17:45Z</time>
      </trkpt>
      <trkpt lat="42.74648" lon="2.67622">
        <ele>139.2</ele>
        <time>2021-03-28T11:17:47Z</time>
      </trkpt>
      <trkpt lat="42.74648" lon="2.67622">
        <ele>139.2</ele>
        <time>2021-03-28T11:17:47Z</time>
      </trkpt>
      <trkpt lat="42.74637" lon="2.67623">
        <ele>139</ele>
        <time>2021-03-28T11:17:49Z</time>
      </trkpt>
      <trkpt lat="42.74637" lon="2.67623">
        <ele>139</ele>
        <time>2021-03-28T11:17:49Z</time>
      </trkpt>
      <trkpt lat="42.74625" lon="2.67624">
        <ele>138.5</ele>
        <time>2021-03-28T11:17:51Z</time>
      </trkpt>
      <trkpt lat="42.74625" lon="2.67624">
        <ele>138.5</ele>
        <time>2021-03-28T11:17:51Z</time>
      </trkpt>
      <trkpt lat="42.74616" lon="2.67624">
        <ele>138.1</ele>
        <time>2021-03-28T11:17:52Z</time>
      </trkpt>
      <trkpt lat="42.74616" lon="2.67624">
        <ele>138.1</ele>
        <time>2021-03-28T11:17:52Z</time>
      </trkpt>
      <trkpt lat="42.74606" lon="2.67624">
        <ele>137.9</ele>
        <time>2021-03-28T11:17:54Z</time>
      </trkpt>
      <trkpt lat="42.74606" lon="2.67624">
        <ele>137.9</ele>
        <time>2021-03-28T11:17:54Z</time>
      </trkpt>
      <trkpt lat="42.74597" lon="2.67623">
        <ele>138.1</ele>
        <time>2021-03-28T11:17:56Z</time>
      </trkpt>
      <trkpt lat="42.74597" lon="2.67623">
        <ele>138.1</ele>
        <time>2021-03-28T11:17:56Z</time>
      </trkpt>
      <trkpt lat="42.74588" lon="2.67624">
        <ele>138.5</ele>
        <time>2021-03-28T11:17:58Z</time>
      </trkpt>
      <trkpt lat="42.74588" lon="2.67624">
        <ele>138.5</ele>
        <time>2021-03-28T11:17:58Z</time>
      </trkpt>
      <trkpt lat="42.74579" lon="2.67625">
        <ele>138.7</ele>
        <time>2021-03-28T11:18:00Z</time>
      </trkpt>
      <trkpt lat="42.74579" lon="2.67625">
        <ele>138.7</ele>
        <time>2021-03-28T11:18:00Z</time>
      </trkpt>
      <trkpt lat="42.74571" lon="2.67627">
        <ele>138.5</ele>
        <time>2021-03-28T11:18:01Z</time>
      </trkpt>
      <trkpt lat="42.74571" lon="2.67627">
        <ele>138.5</ele>
        <time>2021-03-28T11:18:01Z</time>
      </trkpt>
      <trkpt lat="42.74564" lon="2.67631">
        <ele>138.7</ele>
        <time>2021-03-28T11:18:03Z</time>
      </trkpt>
      <trkpt lat="42.74564" lon="2.67631">
        <ele>138.7</ele>
        <time>2021-03-28T11:18:03Z</time>
      </trkpt>
      <trkpt lat="42.74557" lon="2.67636">
        <ele>138.8</ele>
        <time>2021-03-28T11:18:05Z</time>
      </trkpt>
      <trkpt lat="42.74557" lon="2.67636">
        <ele>138.8</ele>
        <time>2021-03-28T11:18:05Z</time>
      </trkpt>
      <trkpt lat="42.74552" lon="2.67641">
        <ele>138.9</ele>
        <time>2021-03-28T11:18:06Z</time>
      </trkpt>
      <trkpt lat="42.74552" lon="2.67641">
        <ele>138.9</ele>
        <time>2021-03-28T11:18:06Z</time>
      </trkpt>
      <trkpt lat="42.74545" lon="2.67647">
        <ele>139.1</ele>
        <time>2021-03-28T11:18:08Z</time>
      </trkpt>
      <trkpt lat="42.74545" lon="2.67647">
        <ele>139.1</ele>
        <time>2021-03-28T11:18:08Z</time>
      </trkpt>
      <trkpt lat="42.74539" lon="2.67653">
        <ele>139.1</ele>
        <time>2021-03-28T11:18:10Z</time>
      </trkpt>
      <trkpt lat="42.74539" lon="2.67653">
        <ele>139.1</ele>
        <time>2021-03-28T11:18:10Z</time>
      </trkpt>
      <trkpt lat="42.74533" lon="2.67658">
        <ele>138.9</ele>
        <time>2021-03-28T11:18:11Z</time>
      </trkpt>
      <trkpt lat="42.74533" lon="2.67658">
        <ele>138.9</ele>
        <time>2021-03-28T11:18:11Z</time>
      </trkpt>
      <trkpt lat="42.74527" lon="2.67663">
        <ele>138.6</ele>
        <time>2021-03-28T11:18:13Z</time>
      </trkpt>
      <trkpt lat="42.74527" lon="2.67663">
        <ele>138.6</ele>
        <time>2021-03-28T11:18:13Z</time>
      </trkpt>
      <trkpt lat="42.7452" lon="2.67669">
        <ele>139.1</ele>
        <time>2021-03-28T11:18:15Z</time>
      </trkpt>
      <trkpt lat="42.7452" lon="2.67669">
        <ele>139.1</ele>
        <time>2021-03-28T11:18:15Z</time>
      </trkpt>
      <trkpt lat="42.74513" lon="2.67675">
        <ele>139.6</ele>
        <time>2021-03-28T11:18:17Z</time>
      </trkpt>
      <trkpt lat="42.74513" lon="2.67675">
        <ele>139.6</ele>
        <time>2021-03-28T11:18:17Z</time>
      </trkpt>
      <trkpt lat="42.74507" lon="2.67681">
        <ele>139.7</ele>
        <time>2021-03-28T11:18:18Z</time>
      </trkpt>
      <trkpt lat="42.74507" lon="2.67681">
        <ele>139.7</ele>
        <time>2021-03-28T11:18:18Z</time>
      </trkpt>
      <trkpt lat="42.74501" lon="2.67685">
        <ele>139.5</ele>
        <time>2021-03-28T11:18:19Z</time>
      </trkpt>
      <trkpt lat="42.74501" lon="2.67685">
        <ele>139.5</ele>
        <time>2021-03-28T11:18:19Z</time>
      </trkpt>
      <trkpt lat="42.74496" lon="2.67691">
        <ele>140</ele>
        <time>2021-03-28T11:18:21Z</time>
      </trkpt>
      <trkpt lat="42.74496" lon="2.67691">
        <ele>140</ele>
        <time>2021-03-28T11:18:21Z</time>
      </trkpt>
      <trkpt lat="42.7449" lon="2.67695">
        <ele>140.6</ele>
        <time>2021-03-28T11:18:22Z</time>
      </trkpt>
      <trkpt lat="42.7449" lon="2.67695">
        <ele>140.6</ele>
        <time>2021-03-28T11:18:22Z</time>
      </trkpt>
      <trkpt lat="42.74485" lon="2.67701">
        <ele>141.7</ele>
        <time>2021-03-28T11:18:24Z</time>
      </trkpt>
      <trkpt lat="42.74485" lon="2.67701">
        <ele>141.7</ele>
        <time>2021-03-28T11:18:24Z</time>
      </trkpt>
      <trkpt lat="42.74479" lon="2.67707">
        <ele>142.1</ele>
        <time>2021-03-28T11:18:26Z</time>
      </trkpt>
      <trkpt lat="42.74479" lon="2.67707">
        <ele>142.1</ele>
        <time>2021-03-28T11:18:26Z</time>
      </trkpt>
      <trkpt lat="42.74473" lon="2.67713">
        <ele>141.7</ele>
        <time>2021-03-28T11:18:28Z</time>
      </trkpt>
      <trkpt lat="42.74473" lon="2.67713">
        <ele>141.7</ele>
        <time>2021-03-28T11:18:28Z</time>
      </trkpt>
      <trkpt lat="42.74466" lon="2.6772">
        <ele>142.1</ele>
        <time>2021-03-28T11:18:30Z</time>
      </trkpt>
      <trkpt lat="42.74466" lon="2.6772">
        <ele>142.1</ele>
        <time>2021-03-28T11:18:30Z</time>
      </trkpt>
      <trkpt lat="42.74461" lon="2.67725">
        <ele>142.9</ele>
        <time>2021-03-28T11:18:31Z</time>
      </trkpt>
      <trkpt lat="42.74461" lon="2.67725">
        <ele>142.9</ele>
        <time>2021-03-28T11:18:31Z</time>
      </trkpt>
      <trkpt lat="42.74455" lon="2.6773">
        <ele>143.9</ele>
        <time>2021-03-28T11:18:33Z</time>
      </trkpt>
      <trkpt lat="42.74455" lon="2.6773">
        <ele>143.9</ele>
        <time>2021-03-28T11:18:33Z</time>
      </trkpt>
      <trkpt lat="42.74449" lon="2.67735">
        <ele>144.1</ele>
        <time>2021-03-28T11:18:35Z</time>
      </trkpt>
      <trkpt lat="42.74449" lon="2.67735">
        <ele>144.1</ele>
        <time>2021-03-28T11:18:35Z</time>
      </trkpt>
      <trkpt lat="42.74442" lon="2.6774">
        <ele>144</ele>
        <time>2021-03-28T11:18:37Z</time>
      </trkpt>
      <trkpt lat="42.74442" lon="2.6774">
        <ele>144</ele>
        <time>2021-03-28T11:18:37Z</time>
      </trkpt>
      <trkpt lat="42.74436" lon="2.67745">
        <ele>144.4</ele>
        <time>2021-03-28T11:18:39Z</time>
      </trkpt>
      <trkpt lat="42.74436" lon="2.67745">
        <ele>144.4</ele>
        <time>2021-03-28T11:18:39Z</time>
      </trkpt>
      <trkpt lat="42.7443" lon="2.67749">
        <ele>144</ele>
        <time>2021-03-28T11:18:41Z</time>
      </trkpt>
      <trkpt lat="42.7443" lon="2.67749">
        <ele>144</ele>
        <time>2021-03-28T11:18:41Z</time>
      </trkpt>
      <trkpt lat="42.74424" lon="2.67753">
        <ele>144.3</ele>
        <time>2021-03-28T11:18:43Z</time>
      </trkpt>
      <trkpt lat="42.74424" lon="2.67753">
        <ele>144.3</ele>
        <time>2021-03-28T11:18:43Z</time>
      </trkpt>
      <trkpt lat="42.74419" lon="2.67756">
        <ele>144.6</ele>
        <time>2021-03-28T11:18:45Z</time>
      </trkpt>
      <trkpt lat="42.74419" lon="2.67756">
        <ele>144.6</ele>
        <time>2021-03-28T11:18:45Z</time>
      </trkpt>
      <trkpt lat="42.74414" lon="2.67759">
        <ele>145.1</ele>
        <time>2021-03-28T11:18:46Z</time>
      </trkpt>
      <trkpt lat="42.74414" lon="2.67759">
        <ele>145.1</ele>
        <time>2021-03-28T11:18:46Z</time>
      </trkpt>
      <trkpt lat="42.7441" lon="2.67763">
        <ele>145.8</ele>
        <time>2021-03-28T11:18:48Z</time>
      </trkpt>
      <trkpt lat="42.7441" lon="2.67763">
        <ele>145.8</ele>
        <time>2021-03-28T11:18:48Z</time>
      </trkpt>
      <trkpt lat="42.74406" lon="2.67766">
        <ele>146.3</ele>
        <time>2021-03-28T11:18:50Z</time>
      </trkpt>
      <trkpt lat="42.74406" lon="2.67766">
        <ele>146.3</ele>
        <time>2021-03-28T11:18:50Z</time>
      </trkpt>
      <trkpt lat="42.74402" lon="2.6777">
        <ele>146.4</ele>
        <time>2021-03-28T11:18:52Z</time>
      </trkpt>
      <trkpt lat="42.74402" lon="2.6777">
        <ele>146.4</ele>
        <time>2021-03-28T11:18:52Z</time>
      </trkpt>
      <trkpt lat="42.74398" lon="2.67773">
        <ele>146.2</ele>
        <time>2021-03-28T11:18:53Z</time>
      </trkpt>
      <trkpt lat="42.74398" lon="2.67773">
        <ele>146.2</ele>
        <time>2021-03-28T11:18:53Z</time>
      </trkpt>
      <trkpt lat="42.74394" lon="2.67776">
        <ele>145.8</ele>
        <time>2021-03-28T11:18:55Z</time>
      </trkpt>
      <trkpt lat="42.74394" lon="2.67776">
        <ele>145.8</ele>
        <time>2021-03-28T11:18:55Z</time>
      </trkpt>
      <trkpt lat="42.7439" lon="2.6778">
        <ele>145.7</ele>
        <time>2021-03-28T11:18:57Z</time>
      </trkpt>
      <trkpt lat="42.7439" lon="2.6778">
        <ele>145.7</ele>
        <time>2021-03-28T11:18:57Z</time>
      </trkpt>
      <trkpt lat="42.74385" lon="2.67785">
        <ele>146.8</ele>
        <time>2021-03-28T11:18:59Z</time>
      </trkpt>
      <trkpt lat="42.74385" lon="2.67785">
        <ele>146.8</ele>
        <time>2021-03-28T11:18:59Z</time>
      </trkpt>
      <trkpt lat="42.7438" lon="2.67788">
        <ele>147.7</ele>
        <time>2021-03-28T11:19:01Z</time>
      </trkpt>
      <trkpt lat="42.7438" lon="2.67788">
        <ele>147.7</ele>
        <time>2021-03-28T11:19:01Z</time>
      </trkpt>
      <trkpt lat="42.74375" lon="2.67792">
        <ele>148</ele>
        <time>2021-03-28T11:19:02Z</time>
      </trkpt>
      <trkpt lat="42.74375" lon="2.67792">
        <ele>148</ele>
        <time>2021-03-28T11:19:02Z</time>
      </trkpt>
      <trkpt lat="42.74371" lon="2.67796">
        <ele>147.9</ele>
        <time>2021-03-28T11:19:03Z</time>
      </trkpt>
      <trkpt lat="42.74371" lon="2.67796">
        <ele>147.9</ele>
        <time>2021-03-28T11:19:03Z</time>
      </trkpt>
      <trkpt lat="42.74366" lon="2.678">
        <ele>147.4</ele>
        <time>2021-03-28T11:19:05Z</time>
      </trkpt>
      <trkpt lat="42.74366" lon="2.678">
        <ele>147.4</ele>
        <time>2021-03-28T11:19:05Z</time>
      </trkpt>
      <trkpt lat="42.74362" lon="2.67804">
        <ele>146.4</ele>
        <time>2021-03-28T11:19:07Z</time>
      </trkpt>
      <trkpt lat="42.74362" lon="2.67804">
        <ele>146.4</ele>
        <time>2021-03-28T11:19:07Z</time>
      </trkpt>
      <trkpt lat="42.74358" lon="2.67807">
        <ele>147.1</ele>
        <time>2021-03-28T11:19:08Z</time>
      </trkpt>
      <trkpt lat="42.74358" lon="2.67807">
        <ele>147.1</ele>
        <time>2021-03-28T11:19:08Z</time>
      </trkpt>
      <trkpt lat="42.74354" lon="2.6781">
        <ele>148.3</ele>
        <time>2021-03-28T11:19:09Z</time>
      </trkpt>
      <trkpt lat="42.74354" lon="2.6781">
        <ele>148.3</ele>
        <time>2021-03-28T11:19:09Z</time>
      </trkpt>
      <trkpt lat="42.74349" lon="2.67812">
        <ele>149.4</ele>
        <time>2021-03-28T11:19:11Z</time>
      </trkpt>
      <trkpt lat="42.74349" lon="2.67812">
        <ele>149.4</ele>
        <time>2021-03-28T11:19:11Z</time>
      </trkpt>
      <trkpt lat="42.74346" lon="2.67814">
        <ele>150.1</ele>
        <time>2021-03-28T11:19:12Z</time>
      </trkpt>
      <trkpt lat="42.74346" lon="2.67814">
        <ele>150.1</ele>
        <time>2021-03-28T11:19:12Z</time>
      </trkpt>
      <trkpt lat="42.74342" lon="2.67816">
        <ele>150.5</ele>
        <time>2021-03-28T11:19:13Z</time>
      </trkpt>
      <trkpt lat="42.74342" lon="2.67816">
        <ele>150.5</ele>
        <time>2021-03-28T11:19:13Z</time>
      </trkpt>
      <trkpt lat="42.74338" lon="2.67816">
        <ele>151</ele>
        <time>2021-03-28T11:19:15Z</time>
      </trkpt>
      <trkpt lat="42.74338" lon="2.67816">
        <ele>151</ele>
        <time>2021-03-28T11:19:15Z</time>
      </trkpt>
      <trkpt lat="42.74333" lon="2.67816">
        <ele>151.6</ele>
        <time>2021-03-28T11:19:17Z</time>
      </trkpt>
      <trkpt lat="42.74333" lon="2.67816">
        <ele>151.6</ele>
        <time>2021-03-28T11:19:17Z</time>
      </trkpt>
      <trkpt lat="42.74327" lon="2.67816">
        <ele>152.6</ele>
        <time>2021-03-28T11:19:19Z</time>
      </trkpt>
      <trkpt lat="42.74327" lon="2.67816">
        <ele>152.6</ele>
        <time>2021-03-28T11:19:19Z</time>
      </trkpt>
      <trkpt lat="42.74323" lon="2.67816">
        <ele>153.3</ele>
        <time>2021-03-28T11:19:20Z</time>
      </trkpt>
      <trkpt lat="42.74323" lon="2.67816">
        <ele>153.3</ele>
        <time>2021-03-28T11:19:20Z</time>
      </trkpt>
      <trkpt lat="42.74319" lon="2.67816">
        <ele>154</ele>
        <time>2021-03-28T11:19:21Z</time>
      </trkpt>
      <trkpt lat="42.74319" lon="2.67816">
        <ele>154</ele>
        <time>2021-03-28T11:19:21Z</time>
      </trkpt>
      <trkpt lat="42.74316" lon="2.67816">
        <ele>154.5</ele>
        <time>2021-03-28T11:19:22Z</time>
      </trkpt>
      <trkpt lat="42.74316" lon="2.67816">
        <ele>154.5</ele>
        <time>2021-03-28T11:19:22Z</time>
      </trkpt>
      <trkpt lat="42.74312" lon="2.67818">
        <ele>154.6</ele>
        <time>2021-03-28T11:19:24Z</time>
      </trkpt>
      <trkpt lat="42.74312" lon="2.67818">
        <ele>154.6</ele>
        <time>2021-03-28T11:19:24Z</time>
      </trkpt>
      <trkpt lat="42.7431" lon="2.67819">
        <ele>154.6</ele>
        <time>2021-03-28T11:19:25Z</time>
      </trkpt>
      <trkpt lat="42.7431" lon="2.67819">
        <ele>154.6</ele>
        <time>2021-03-28T11:19:25Z</time>
      </trkpt>
      <trkpt lat="42.74306" lon="2.67821">
        <ele>154.2</ele>
        <time>2021-03-28T11:19:27Z</time>
      </trkpt>
      <trkpt lat="42.74306" lon="2.67821">
        <ele>154.2</ele>
        <time>2021-03-28T11:19:27Z</time>
      </trkpt>
      <trkpt lat="42.74303" lon="2.67824">
        <ele>154.1</ele>
        <time>2021-03-28T11:19:29Z</time>
      </trkpt>
      <trkpt lat="42.74303" lon="2.67824">
        <ele>154.1</ele>
        <time>2021-03-28T11:19:29Z</time>
      </trkpt>
      <trkpt lat="42.743" lon="2.67826">
        <ele>154.1</ele>
        <time>2021-03-28T11:19:31Z</time>
      </trkpt>
      <trkpt lat="42.743" lon="2.67826">
        <ele>154.1</ele>
        <time>2021-03-28T11:19:31Z</time>
      </trkpt>
      <trkpt lat="42.74295" lon="2.67829">
        <ele>154.1</ele>
        <time>2021-03-28T11:19:33Z</time>
      </trkpt>
      <trkpt lat="42.74295" lon="2.67829">
        <ele>154.1</ele>
        <time>2021-03-28T11:19:33Z</time>
      </trkpt>
      <trkpt lat="42.74291" lon="2.67832">
        <ele>154.2</ele>
        <time>2021-03-28T11:19:35Z</time>
      </trkpt>
      <trkpt lat="42.74291" lon="2.67832">
        <ele>154.2</ele>
        <time>2021-03-28T11:19:35Z</time>
      </trkpt>
      <trkpt lat="42.74286" lon="2.67834">
        <ele>154.9</ele>
        <time>2021-03-28T11:19:37Z</time>
      </trkpt>
      <trkpt lat="42.74286" lon="2.67834">
        <ele>154.9</ele>
        <time>2021-03-28T11:19:37Z</time>
      </trkpt>
      <trkpt lat="42.74282" lon="2.67836">
        <ele>155.7</ele>
        <time>2021-03-28T11:19:38Z</time>
      </trkpt>
      <trkpt lat="42.74282" lon="2.67836">
        <ele>155.7</ele>
        <time>2021-03-28T11:19:38Z</time>
      </trkpt>
      <trkpt lat="42.74279" lon="2.67837">
        <ele>156.2</ele>
        <time>2021-03-28T11:19:39Z</time>
      </trkpt>
      <trkpt lat="42.74279" lon="2.67837">
        <ele>156.2</ele>
        <time>2021-03-28T11:19:39Z</time>
      </trkpt>
      <trkpt lat="42.74275" lon="2.67839">
        <ele>156.4</ele>
        <time>2021-03-28T11:19:41Z</time>
      </trkpt>
      <trkpt lat="42.74275" lon="2.67839">
        <ele>156.4</ele>
        <time>2021-03-28T11:19:41Z</time>
      </trkpt>
      <trkpt lat="42.74271" lon="2.6784">
        <ele>156.6</ele>
        <time>2021-03-28T11:19:43Z</time>
      </trkpt>
      <trkpt lat="42.74271" lon="2.6784">
        <ele>156.6</ele>
        <time>2021-03-28T11:19:43Z</time>
      </trkpt>
      <trkpt lat="42.74267" lon="2.67842">
        <ele>156.7</ele>
        <time>2021-03-28T11:19:44Z</time>
      </trkpt>
      <trkpt lat="42.74267" lon="2.67842">
        <ele>156.7</ele>
        <time>2021-03-28T11:19:44Z</time>
      </trkpt>
      <trkpt lat="42.74264" lon="2.67843">
        <ele>156.9</ele>
        <time>2021-03-28T11:19:45Z</time>
      </trkpt>
      <trkpt lat="42.74264" lon="2.67843">
        <ele>156.9</ele>
        <time>2021-03-28T11:19:45Z</time>
      </trkpt>
      <trkpt lat="42.74261" lon="2.67845">
        <ele>157</ele>
        <time>2021-03-28T11:19:47Z</time>
      </trkpt>
      <trkpt lat="42.74261" lon="2.67845">
        <ele>157</ele>
        <time>2021-03-28T11:19:47Z</time>
      </trkpt>
      <trkpt lat="42.74259" lon="2.67846">
        <ele>157.1</ele>
        <time>2021-03-28T11:19:48Z</time>
      </trkpt>
      <trkpt lat="42.74259" lon="2.67846">
        <ele>157.1</ele>
        <time>2021-03-28T11:19:48Z</time>
      </trkpt>
      <trkpt lat="42.74257" lon="2.67847">
        <ele>157.3</ele>
        <time>2021-03-28T11:19:49Z</time>
      </trkpt>
      <trkpt lat="42.74257" lon="2.67847">
        <ele>157.3</ele>
        <time>2021-03-28T11:19:49Z</time>
      </trkpt>
      <trkpt lat="42.74255" lon="2.67848">
        <ele>157.4</ele>
        <time>2021-03-28T11:19:51Z</time>
      </trkpt>
      <trkpt lat="42.74255" lon="2.67848">
        <ele>157.4</ele>
        <time>2021-03-28T11:19:51Z</time>
      </trkpt>
      <trkpt lat="42.74253" lon="2.67848">
        <ele>157.5</ele>
        <time>2021-03-28T11:19:52Z</time>
      </trkpt>
      <trkpt lat="42.74253" lon="2.67848">
        <ele>157.5</ele>
        <time>2021-03-28T11:19:52Z</time>
      </trkpt>
      <trkpt lat="42.7425" lon="2.67849">
        <ele>157.8</ele>
        <time>2021-03-28T11:19:54Z</time>
      </trkpt>
      <trkpt lat="42.7425" lon="2.67849">
        <ele>157.8</ele>
        <time>2021-03-28T11:19:54Z</time>
      </trkpt>
      <trkpt lat="42.74248" lon="2.67849">
        <ele>158</ele>
        <time>2021-03-28T11:19:55Z</time>
      </trkpt>
      <trkpt lat="42.74248" lon="2.67849">
        <ele>158</ele>
        <time>2021-03-28T11:19:55Z</time>
      </trkpt>
      <trkpt lat="42.74245" lon="2.67849">
        <ele>158.2</ele>
        <time>2021-03-28T11:19:57Z</time>
      </trkpt>
      <trkpt lat="42.74245" lon="2.67849">
        <ele>158.2</ele>
        <time>2021-03-28T11:19:57Z</time>
      </trkpt>
      <trkpt lat="42.74242" lon="2.6785">
        <ele>158.4</ele>
        <time>2021-03-28T11:19:59Z</time>
      </trkpt>
      <trkpt lat="42.74242" lon="2.6785">
        <ele>158.4</ele>
        <time>2021-03-28T11:19:59Z</time>
      </trkpt>
      <trkpt lat="42.74238" lon="2.6785">
        <ele>158.7</ele>
        <time>2021-03-28T11:20:01Z</time>
      </trkpt>
      <trkpt lat="42.74238" lon="2.6785">
        <ele>158.7</ele>
        <time>2021-03-28T11:20:01Z</time>
      </trkpt>
      <trkpt lat="42.74236" lon="2.67851">
        <ele>158.8</ele>
        <time>2021-03-28T11:20:02Z</time>
      </trkpt>
      <trkpt lat="42.74236" lon="2.67851">
        <ele>158.8</ele>
        <time>2021-03-28T11:20:02Z</time>
      </trkpt>
      <trkpt lat="42.74234" lon="2.67851">
        <ele>158.9</ele>
        <time>2021-03-28T11:20:03Z</time>
      </trkpt>
      <trkpt lat="42.74234" lon="2.67851">
        <ele>158.9</ele>
        <time>2021-03-28T11:20:03Z</time>
      </trkpt>
      <trkpt lat="42.74233" lon="2.67852">
        <ele>159</ele>
        <time>2021-03-28T11:20:04Z</time>
      </trkpt>
      <trkpt lat="42.74233" lon="2.67852">
        <ele>159</ele>
        <time>2021-03-28T11:20:04Z</time>
      </trkpt>
      <trkpt lat="42.7423" lon="2.67852">
        <ele>159.2</ele>
        <time>2021-03-28T11:20:06Z</time>
      </trkpt>
      <trkpt lat="42.7423" lon="2.67852">
        <ele>159.2</ele>
        <time>2021-03-28T11:20:06Z</time>
      </trkpt>
      <trkpt lat="42.74228" lon="2.67852">
        <ele>159.4</ele>
        <time>2021-03-28T11:20:07Z</time>
      </trkpt>
      <trkpt lat="42.74228" lon="2.67852">
        <ele>159.4</ele>
        <time>2021-03-28T11:20:07Z</time>
      </trkpt>
      <trkpt lat="42.74226" lon="2.67851">
        <ele>159.7</ele>
        <time>2021-03-28T11:20:09Z</time>
      </trkpt>
      <trkpt lat="42.74226" lon="2.67851">
        <ele>159.7</ele>
        <time>2021-03-28T11:20:09Z</time>
      </trkpt>
      <trkpt lat="42.74223" lon="2.67851">
        <ele>160</ele>
        <time>2021-03-28T11:20:11Z</time>
      </trkpt>
      <trkpt lat="42.74223" lon="2.67851">
        <ele>160</ele>
        <time>2021-03-28T11:20:11Z</time>
      </trkpt>
      <trkpt lat="42.74222" lon="2.6785">
        <ele>160.3</ele>
        <time>2021-03-28T11:20:12Z</time>
      </trkpt>
      <trkpt lat="42.74222" lon="2.6785">
        <ele>160.3</ele>
        <time>2021-03-28T11:20:12Z</time>
      </trkpt>
      <trkpt lat="42.7422" lon="2.67849">
        <ele>160.5</ele>
        <time>2021-03-28T11:20:13Z</time>
      </trkpt>
      <trkpt lat="42.7422" lon="2.67849">
        <ele>160.5</ele>
        <time>2021-03-28T11:20:13Z</time>
      </trkpt>
      <trkpt lat="42.74218" lon="2.67848">
        <ele>160.8</ele>
        <time>2021-03-28T11:20:15Z</time>
      </trkpt>
      <trkpt lat="42.74218" lon="2.67848">
        <ele>160.8</ele>
        <time>2021-03-28T11:20:15Z</time>
      </trkpt>
      <trkpt lat="42.74216" lon="2.67847">
        <ele>161.1</ele>
        <time>2021-03-28T11:20:16Z</time>
      </trkpt>
      <trkpt lat="42.74216" lon="2.67847">
        <ele>161.1</ele>
        <time>2021-03-28T11:20:16Z</time>
      </trkpt>
      <trkpt lat="42.74213" lon="2.67846">
        <ele>161.5</ele>
        <time>2021-03-28T11:20:18Z</time>
      </trkpt>
      <trkpt lat="42.74213" lon="2.67846">
        <ele>161.5</ele>
        <time>2021-03-28T11:20:18Z</time>
      </trkpt>
      <trkpt lat="42.74211" lon="2.67844">
        <ele>161.8</ele>
        <time>2021-03-28T11:20:20Z</time>
      </trkpt>
      <trkpt lat="42.74211" lon="2.67844">
        <ele>161.8</ele>
        <time>2021-03-28T11:20:20Z</time>
      </trkpt>
      <trkpt lat="42.74208" lon="2.67843">
        <ele>162.2</ele>
        <time>2021-03-28T11:20:21Z</time>
      </trkpt>
      <trkpt lat="42.74208" lon="2.67843">
        <ele>162.2</ele>
        <time>2021-03-28T11:20:21Z</time>
      </trkpt>
      <trkpt lat="42.74206" lon="2.67842">
        <ele>162.4</ele>
        <time>2021-03-28T11:20:22Z</time>
      </trkpt>
      <trkpt lat="42.74206" lon="2.67842">
        <ele>162.4</ele>
        <time>2021-03-28T11:20:22Z</time>
      </trkpt>
      <trkpt lat="42.74204" lon="2.67841">
        <ele>162.6</ele>
        <time>2021-03-28T11:20:23Z</time>
      </trkpt>
      <trkpt lat="42.74204" lon="2.67841">
        <ele>162.6</ele>
        <time>2021-03-28T11:20:23Z</time>
      </trkpt>
      <trkpt lat="42.74202" lon="2.6784">
        <ele>162.9</ele>
        <time>2021-03-28T11:20:25Z</time>
      </trkpt>
      <trkpt lat="42.74202" lon="2.6784">
        <ele>162.9</ele>
        <time>2021-03-28T11:20:25Z</time>
      </trkpt>
      <trkpt lat="42.742" lon="2.67839">
        <ele>163.1</ele>
        <time>2021-03-28T11:20:26Z</time>
      </trkpt>
      <trkpt lat="42.742" lon="2.67839">
        <ele>163.1</ele>
        <time>2021-03-28T11:20:26Z</time>
      </trkpt>
      <trkpt lat="42.74198" lon="2.67838">
        <ele>163.3</ele>
        <time>2021-03-28T11:20:28Z</time>
      </trkpt>
      <trkpt lat="42.74198" lon="2.67838">
        <ele>163.3</ele>
        <time>2021-03-28T11:20:28Z</time>
      </trkpt>
      <trkpt lat="42.74195" lon="2.67838">
        <ele>163.6</ele>
        <time>2021-03-28T11:20:30Z</time>
      </trkpt>
      <trkpt lat="42.74195" lon="2.67838">
        <ele>163.6</ele>
        <time>2021-03-28T11:20:30Z</time>
      </trkpt>
      <trkpt lat="42.74193" lon="2.67837">
        <ele>163.9</ele>
        <time>2021-03-28T11:20:31Z</time>
      </trkpt>
      <trkpt lat="42.74193" lon="2.67837">
        <ele>163.9</ele>
        <time>2021-03-28T11:20:31Z</time>
      </trkpt>
      <trkpt lat="42.74191" lon="2.67837">
        <ele>164.1</ele>
        <time>2021-03-28T11:20:32Z</time>
      </trkpt>
      <trkpt lat="42.74191" lon="2.67837">
        <ele>164.1</ele>
        <time>2021-03-28T11:20:32Z</time>
      </trkpt>
      <trkpt lat="42.74189" lon="2.67836">
        <ele>164.4</ele>
        <time>2021-03-28T11:20:34Z</time>
      </trkpt>
      <trkpt lat="42.74189" lon="2.67836">
        <ele>164.4</ele>
        <time>2021-03-28T11:20:34Z</time>
      </trkpt>
      <trkpt lat="42.74186" lon="2.67836">
        <ele>164.7</ele>
        <time>2021-03-28T11:20:35Z</time>
      </trkpt>
      <trkpt lat="42.74186" lon="2.67836">
        <ele>164.7</ele>
        <time>2021-03-28T11:20:35Z</time>
      </trkpt>
      <trkpt lat="42.74184" lon="2.67835">
        <ele>165</ele>
        <time>2021-03-28T11:20:37Z</time>
      </trkpt>
      <trkpt lat="42.74184" lon="2.67835">
        <ele>165</ele>
        <time>2021-03-28T11:20:37Z</time>
      </trkpt>
      <trkpt lat="42.74182" lon="2.67835">
        <ele>165.2</ele>
        <time>2021-03-28T11:20:38Z</time>
      </trkpt>
      <trkpt lat="42.74182" lon="2.67835">
        <ele>165.2</ele>
        <time>2021-03-28T11:20:38Z</time>
      </trkpt>
      <trkpt lat="42.7418" lon="2.67834">
        <ele>165.6</ele>
        <time>2021-03-28T11:20:40Z</time>
      </trkpt>
      <trkpt lat="42.7418" lon="2.67834">
        <ele>165.6</ele>
        <time>2021-03-28T11:20:40Z</time>
      </trkpt>
      <trkpt lat="42.74178" lon="2.67833">
        <ele>165.8</ele>
        <time>2021-03-28T11:20:41Z</time>
      </trkpt>
      <trkpt lat="42.74178" lon="2.67833">
        <ele>165.8</ele>
        <time>2021-03-28T11:20:41Z</time>
      </trkpt>
      <trkpt lat="42.74175" lon="2.67833">
        <ele>166.2</ele>
        <time>2021-03-28T11:20:43Z</time>
      </trkpt>
      <trkpt lat="42.74175" lon="2.67833">
        <ele>166.2</ele>
        <time>2021-03-28T11:20:43Z</time>
      </trkpt>
      <trkpt lat="42.74173" lon="2.67832">
        <ele>166.4</ele>
        <time>2021-03-28T11:20:44Z</time>
      </trkpt>
      <trkpt lat="42.74173" lon="2.67832">
        <ele>166.4</ele>
        <time>2021-03-28T11:20:44Z</time>
      </trkpt>
      <trkpt lat="42.74171" lon="2.67831">
        <ele>166.8</ele>
        <time>2021-03-28T11:20:46Z</time>
      </trkpt>
      <trkpt lat="42.74171" lon="2.67831">
        <ele>166.8</ele>
        <time>2021-03-28T11:20:46Z</time>
      </trkpt>
      <trkpt lat="42.74169" lon="2.6783">
        <ele>167.1</ele>
        <time>2021-03-28T11:20:47Z</time>
      </trkpt>
      <trkpt lat="42.74169" lon="2.6783">
        <ele>167.1</ele>
        <time>2021-03-28T11:20:47Z</time>
      </trkpt>
      <trkpt lat="42.74167" lon="2.6783">
        <ele>167.4</ele>
        <time>2021-03-28T11:20:48Z</time>
      </trkpt>
      <trkpt lat="42.74167" lon="2.6783">
        <ele>167.4</ele>
        <time>2021-03-28T11:20:48Z</time>
      </trkpt>
      <trkpt lat="42.74165" lon="2.67829">
        <ele>167.7</ele>
        <time>2021-03-28T11:20:50Z</time>
      </trkpt>
      <trkpt lat="42.74165" lon="2.67829">
        <ele>167.7</ele>
        <time>2021-03-28T11:20:50Z</time>
      </trkpt>
      <trkpt lat="42.74163" lon="2.67828">
        <ele>168</ele>
        <time>2021-03-28T11:20:52Z</time>
      </trkpt>
      <trkpt lat="42.74163" lon="2.67828">
        <ele>168</ele>
        <time>2021-03-28T11:20:52Z</time>
      </trkpt>
      <trkpt lat="42.74161" lon="2.67828">
        <ele>168.3</ele>
        <time>2021-03-28T11:20:54Z</time>
      </trkpt>
      <trkpt lat="42.74161" lon="2.67828">
        <ele>168.3</ele>
        <time>2021-03-28T11:20:54Z</time>
      </trkpt>
      <trkpt lat="42.74159" lon="2.67827">
        <ele>168.6</ele>
        <time>2021-03-28T11:20:56Z</time>
      </trkpt>
      <trkpt lat="42.74159" lon="2.67827">
        <ele>168.6</ele>
        <time>2021-03-28T11:20:56Z</time>
      </trkpt>
      <trkpt lat="42.74157" lon="2.67826">
        <ele>168.9</ele>
        <time>2021-03-28T11:20:57Z</time>
      </trkpt>
      <trkpt lat="42.74157" lon="2.67826">
        <ele>168.9</ele>
        <time>2021-03-28T11:20:57Z</time>
      </trkpt>
      <trkpt lat="42.74155" lon="2.67826">
        <ele>169.2</ele>
        <time>2021-03-28T11:20:59Z</time>
      </trkpt>
      <trkpt lat="42.74155" lon="2.67826">
        <ele>169.2</ele>
        <time>2021-03-28T11:20:59Z</time>
      </trkpt>
      <trkpt lat="42.74152" lon="2.67825">
        <ele>169.6</ele>
        <time>2021-03-28T11:21:01Z</time>
      </trkpt>
      <trkpt lat="42.74152" lon="2.67825">
        <ele>169.6</ele>
        <time>2021-03-28T11:21:01Z</time>
      </trkpt>
      <trkpt lat="42.7415" lon="2.67825">
        <ele>169.9</ele>
        <time>2021-03-28T11:21:03Z</time>
      </trkpt>
      <trkpt lat="42.7415" lon="2.67825">
        <ele>169.9</ele>
        <time>2021-03-28T11:21:03Z</time>
      </trkpt>
      <trkpt lat="42.74147" lon="2.67824">
        <ele>170.3</ele>
        <time>2021-03-28T11:21:05Z</time>
      </trkpt>
      <trkpt lat="42.74147" lon="2.67824">
        <ele>170.3</ele>
        <time>2021-03-28T11:21:05Z</time>
      </trkpt>
      <trkpt lat="42.74145" lon="2.67824">
        <ele>170.6</ele>
        <time>2021-03-28T11:21:06Z</time>
      </trkpt>
      <trkpt lat="42.74145" lon="2.67824">
        <ele>170.6</ele>
        <time>2021-03-28T11:21:06Z</time>
      </trkpt>
      <trkpt lat="42.74142" lon="2.67823">
        <ele>171</ele>
        <time>2021-03-28T11:21:08Z</time>
      </trkpt>
      <trkpt lat="42.74142" lon="2.67823">
        <ele>171</ele>
        <time>2021-03-28T11:21:08Z</time>
      </trkpt>
      <trkpt lat="42.7414" lon="2.67823">
        <ele>171.3</ele>
        <time>2021-03-28T11:21:09Z</time>
      </trkpt>
      <trkpt lat="42.7414" lon="2.67823">
        <ele>171.3</ele>
        <time>2021-03-28T11:21:09Z</time>
      </trkpt>
      <trkpt lat="42.74138" lon="2.67822">
        <ele>171.6</ele>
        <time>2021-03-28T11:21:11Z</time>
      </trkpt>
      <trkpt lat="42.74138" lon="2.67822">
        <ele>171.6</ele>
        <time>2021-03-28T11:21:11Z</time>
      </trkpt>
      <trkpt lat="42.74136" lon="2.67822">
        <ele>171.6</ele>
        <time>2021-03-28T11:21:13Z</time>
      </trkpt>
      <trkpt lat="42.74136" lon="2.67822">
        <ele>171.6</ele>
        <time>2021-03-28T11:21:13Z</time>
      </trkpt>
      <trkpt lat="42.74133" lon="2.67821">
        <ele>171.7</ele>
        <time>2021-03-28T11:21:15Z</time>
      </trkpt>
      <trkpt lat="42.74133" lon="2.67821">
        <ele>171.7</ele>
        <time>2021-03-28T11:21:15Z</time>
      </trkpt>
      <trkpt lat="42.74131" lon="2.67819">
        <ele>171.9</ele>
        <time>2021-03-28T11:21:17Z</time>
      </trkpt>
      <trkpt lat="42.74131" lon="2.67819">
        <ele>171.9</ele>
        <time>2021-03-28T11:21:17Z</time>
      </trkpt>
      <trkpt lat="42.74129" lon="2.67818">
        <ele>172</ele>
        <time>2021-03-28T11:21:18Z</time>
      </trkpt>
      <trkpt lat="42.74129" lon="2.67818">
        <ele>172</ele>
        <time>2021-03-28T11:21:18Z</time>
      </trkpt>
      <trkpt lat="42.74127" lon="2.67817">
        <ele>172.2</ele>
        <time>2021-03-28T11:21:19Z</time>
      </trkpt>
      <trkpt lat="42.74127" lon="2.67817">
        <ele>172.2</ele>
        <time>2021-03-28T11:21:19Z</time>
      </trkpt>
      <trkpt lat="42.74125" lon="2.67816">
        <ele>172.4</ele>
        <time>2021-03-28T11:21:21Z</time>
      </trkpt>
      <trkpt lat="42.74125" lon="2.67816">
        <ele>172.4</ele>
        <time>2021-03-28T11:21:21Z</time>
      </trkpt>
      <trkpt lat="42.74123" lon="2.67815">
        <ele>172.5</ele>
        <time>2021-03-28T11:21:23Z</time>
      </trkpt>
      <trkpt lat="42.74123" lon="2.67815">
        <ele>172.5</ele>
        <time>2021-03-28T11:21:23Z</time>
      </trkpt>
      <trkpt lat="42.74121" lon="2.67815">
        <ele>172.7</ele>
        <time>2021-03-28T11:21:24Z</time>
      </trkpt>
      <trkpt lat="42.74121" lon="2.67815">
        <ele>172.7</ele>
        <time>2021-03-28T11:21:24Z</time>
      </trkpt>
      <trkpt lat="42.74119" lon="2.67814">
        <ele>172.9</ele>
        <time>2021-03-28T11:21:26Z</time>
      </trkpt>
      <trkpt lat="42.74119" lon="2.67814">
        <ele>172.9</ele>
        <time>2021-03-28T11:21:26Z</time>
      </trkpt>
      <trkpt lat="42.74117" lon="2.67813">
        <ele>173.2</ele>
        <time>2021-03-28T11:21:28Z</time>
      </trkpt>
      <trkpt lat="42.74117" lon="2.67813">
        <ele>173.2</ele>
        <time>2021-03-28T11:21:28Z</time>
      </trkpt>
      <trkpt lat="42.74115" lon="2.67811">
        <ele>173.5</ele>
        <time>2021-03-28T11:21:29Z</time>
      </trkpt>
      <trkpt lat="42.74115" lon="2.67811">
        <ele>173.5</ele>
        <time>2021-03-28T11:21:29Z</time>
      </trkpt>
      <trkpt lat="42.74113" lon="2.6781">
        <ele>173.8</ele>
        <time>2021-03-28T11:21:31Z</time>
      </trkpt>
      <trkpt lat="42.74113" lon="2.6781">
        <ele>173.8</ele>
        <time>2021-03-28T11:21:31Z</time>
      </trkpt>
      <trkpt lat="42.74111" lon="2.67809">
        <ele>174.1</ele>
        <time>2021-03-28T11:21:32Z</time>
      </trkpt>
      <trkpt lat="42.74111" lon="2.67809">
        <ele>174.1</ele>
        <time>2021-03-28T11:21:32Z</time>
      </trkpt>
      <trkpt lat="42.74108" lon="2.67808">
        <ele>174.6</ele>
        <time>2021-03-28T11:21:34Z</time>
      </trkpt>
      <trkpt lat="42.74108" lon="2.67808">
        <ele>174.6</ele>
        <time>2021-03-28T11:21:34Z</time>
      </trkpt>
      <trkpt lat="42.74106" lon="2.67807">
        <ele>175</ele>
        <time>2021-03-28T11:21:35Z</time>
      </trkpt>
      <trkpt lat="42.74106" lon="2.67807">
        <ele>175</ele>
        <time>2021-03-28T11:21:35Z</time>
      </trkpt>
      <trkpt lat="42.74105" lon="2.67806">
        <ele>175.3</ele>
        <time>2021-03-28T11:21:36Z</time>
      </trkpt>
      <trkpt lat="42.74105" lon="2.67806">
        <ele>175.3</ele>
        <time>2021-03-28T11:21:36Z</time>
      </trkpt>
      <trkpt lat="42.74103" lon="2.67805">
        <ele>175.6</ele>
        <time>2021-03-28T11:21:38Z</time>
      </trkpt>
      <trkpt lat="42.74103" lon="2.67805">
        <ele>175.6</ele>
        <time>2021-03-28T11:21:38Z</time>
      </trkpt>
      <trkpt lat="42.74101" lon="2.67804">
        <ele>175.9</ele>
        <time>2021-03-28T11:21:39Z</time>
      </trkpt>
      <trkpt lat="42.74101" lon="2.67804">
        <ele>175.9</ele>
        <time>2021-03-28T11:21:39Z</time>
      </trkpt>
      <trkpt lat="42.741" lon="2.67804">
        <ele>176.2</ele>
        <time>2021-03-28T11:21:40Z</time>
      </trkpt>
      <trkpt lat="42.741" lon="2.67804">
        <ele>176.2</ele>
        <time>2021-03-28T11:21:40Z</time>
      </trkpt>
      <trkpt lat="42.74098" lon="2.67803">
        <ele>176.5</ele>
        <time>2021-03-28T11:21:42Z</time>
      </trkpt>
      <trkpt lat="42.74098" lon="2.67803">
        <ele>176.5</ele>
        <time>2021-03-28T11:21:42Z</time>
      </trkpt>
      <trkpt lat="42.74096" lon="2.67802">
        <ele>176.8</ele>
        <time>2021-03-28T11:21:44Z</time>
      </trkpt>
      <trkpt lat="42.74096" lon="2.67802">
        <ele>176.8</ele>
        <time>2021-03-28T11:21:44Z</time>
      </trkpt>
      <trkpt lat="42.74094" lon="2.678">
        <ele>177.2</ele>
        <time>2021-03-28T11:21:46Z</time>
      </trkpt>
      <trkpt lat="42.74094" lon="2.678">
        <ele>177.2</ele>
        <time>2021-03-28T11:21:46Z</time>
      </trkpt>
      <trkpt lat="42.74092" lon="2.67799">
        <ele>177.5</ele>
        <time>2021-03-28T11:21:47Z</time>
      </trkpt>
      <trkpt lat="42.74092" lon="2.67799">
        <ele>177.5</ele>
        <time>2021-03-28T11:21:47Z</time>
      </trkpt>
      <trkpt lat="42.7409" lon="2.67798">
        <ele>177.8</ele>
        <time>2021-03-28T11:21:49Z</time>
      </trkpt>
      <trkpt lat="42.7409" lon="2.67798">
        <ele>177.8</ele>
        <time>2021-03-28T11:21:49Z</time>
      </trkpt>
      <trkpt lat="42.74088" lon="2.67797">
        <ele>178.2</ele>
        <time>2021-03-28T11:21:51Z</time>
      </trkpt>
      <trkpt lat="42.74088" lon="2.67797">
        <ele>178.2</ele>
        <time>2021-03-28T11:21:51Z</time>
      </trkpt>
      <trkpt lat="42.74086" lon="2.67796">
        <ele>178.5</ele>
        <time>2021-03-28T11:21:52Z</time>
      </trkpt>
      <trkpt lat="42.74086" lon="2.67796">
        <ele>178.5</ele>
        <time>2021-03-28T11:21:52Z</time>
      </trkpt>
      <trkpt lat="42.74084" lon="2.67795">
        <ele>178.8</ele>
        <time>2021-03-28T11:21:53Z</time>
      </trkpt>
      <trkpt lat="42.74084" lon="2.67795">
        <ele>178.8</ele>
        <time>2021-03-28T11:21:53Z</time>
      </trkpt>
      <trkpt lat="42.74082" lon="2.67794">
        <ele>179.1</ele>
        <time>2021-03-28T11:21:55Z</time>
      </trkpt>
      <trkpt lat="42.74082" lon="2.67794">
        <ele>179.1</ele>
        <time>2021-03-28T11:21:55Z</time>
      </trkpt>
      <trkpt lat="42.7408" lon="2.67792">
        <ele>179.2</ele>
        <time>2021-03-28T11:21:57Z</time>
      </trkpt>
      <trkpt lat="42.7408" lon="2.67792">
        <ele>179.2</ele>
        <time>2021-03-28T11:21:57Z</time>
      </trkpt>
      <trkpt lat="42.74078" lon="2.67791">
        <ele>179.4</ele>
        <time>2021-03-28T11:21:58Z</time>
      </trkpt>
      <trkpt lat="42.74078" lon="2.67791">
        <ele>179.4</ele>
        <time>2021-03-28T11:21:58Z</time>
      </trkpt>
      <trkpt lat="42.74077" lon="2.6779">
        <ele>179.5</ele>
        <time>2021-03-28T11:21:59Z</time>
      </trkpt>
      <trkpt lat="42.74077" lon="2.6779">
        <ele>179.5</ele>
        <time>2021-03-28T11:21:59Z</time>
      </trkpt>
      <trkpt lat="42.74075" lon="2.67789">
        <ele>179.6</ele>
        <time>2021-03-28T11:22:00Z</time>
      </trkpt>
      <trkpt lat="42.74075" lon="2.67789">
        <ele>179.6</ele>
        <time>2021-03-28T11:22:00Z</time>
      </trkpt>
      <trkpt lat="42.74073" lon="2.67788">
        <ele>179.7</ele>
        <time>2021-03-28T11:22:02Z</time>
      </trkpt>
      <trkpt lat="42.74073" lon="2.67788">
        <ele>179.7</ele>
        <time>2021-03-28T11:22:02Z</time>
      </trkpt>
      <trkpt lat="42.7407" lon="2.67786">
        <ele>180</ele>
        <time>2021-03-28T11:22:04Z</time>
      </trkpt>
      <trkpt lat="42.7407" lon="2.67786">
        <ele>180</ele>
        <time>2021-03-28T11:22:04Z</time>
      </trkpt>
      <trkpt lat="42.74068" lon="2.67785">
        <ele>180.2</ele>
        <time>2021-03-28T11:22:05Z</time>
      </trkpt>
      <trkpt lat="42.74068" lon="2.67785">
        <ele>180.2</ele>
        <time>2021-03-28T11:22:05Z</time>
      </trkpt>
      <trkpt lat="42.74066" lon="2.67783">
        <ele>180.5</ele>
        <time>2021-03-28T11:22:06Z</time>
      </trkpt>
      <trkpt lat="42.74066" lon="2.67783">
        <ele>180.5</ele>
        <time>2021-03-28T11:22:06Z</time>
      </trkpt>
      <trkpt lat="42.74064" lon="2.67782">
        <ele>181</ele>
        <time>2021-03-28T11:22:08Z</time>
      </trkpt>
      <trkpt lat="42.74064" lon="2.67782">
        <ele>181</ele>
        <time>2021-03-28T11:22:08Z</time>
      </trkpt>
      <trkpt lat="42.74062" lon="2.6778">
        <ele>181.4</ele>
        <time>2021-03-28T11:22:09Z</time>
      </trkpt>
      <trkpt lat="42.74062" lon="2.6778">
        <ele>181.4</ele>
        <time>2021-03-28T11:22:09Z</time>
      </trkpt>
      <trkpt lat="42.74059" lon="2.67778">
        <ele>181.8</ele>
        <time>2021-03-28T11:22:11Z</time>
      </trkpt>
      <trkpt lat="42.74059" lon="2.67778">
        <ele>181.8</ele>
        <time>2021-03-28T11:22:11Z</time>
      </trkpt>
      <trkpt lat="42.74057" lon="2.67776">
        <ele>182.2</ele>
        <time>2021-03-28T11:22:13Z</time>
      </trkpt>
      <trkpt lat="42.74057" lon="2.67776">
        <ele>182.2</ele>
        <time>2021-03-28T11:22:13Z</time>
      </trkpt>
      <trkpt lat="42.74055" lon="2.67775">
        <ele>182.4</ele>
        <time>2021-03-28T11:22:14Z</time>
      </trkpt>
      <trkpt lat="42.74055" lon="2.67775">
        <ele>182.4</ele>
        <time>2021-03-28T11:22:14Z</time>
      </trkpt>
      <trkpt lat="42.74052" lon="2.67773">
        <ele>182.7</ele>
        <time>2021-03-28T11:22:16Z</time>
      </trkpt>
      <trkpt lat="42.74052" lon="2.67773">
        <ele>182.7</ele>
        <time>2021-03-28T11:22:16Z</time>
      </trkpt>
      <trkpt lat="42.7405" lon="2.67772">
        <ele>182.9</ele>
        <time>2021-03-28T11:22:17Z</time>
      </trkpt>
      <trkpt lat="42.7405" lon="2.67772">
        <ele>182.9</ele>
        <time>2021-03-28T11:22:17Z</time>
      </trkpt>
      <trkpt lat="42.74048" lon="2.67771">
        <ele>183.1</ele>
        <time>2021-03-28T11:22:18Z</time>
      </trkpt>
      <trkpt lat="42.74048" lon="2.67771">
        <ele>183.1</ele>
        <time>2021-03-28T11:22:18Z</time>
      </trkpt>
      <trkpt lat="42.74045" lon="2.67769">
        <ele>183.4</ele>
        <time>2021-03-28T11:22:20Z</time>
      </trkpt>
      <trkpt lat="42.74045" lon="2.67769">
        <ele>183.4</ele>
        <time>2021-03-28T11:22:20Z</time>
      </trkpt>
      <trkpt lat="42.74042" lon="2.67768">
        <ele>183.7</ele>
        <time>2021-03-28T11:22:22Z</time>
      </trkpt>
      <trkpt lat="42.74042" lon="2.67768">
        <ele>183.7</ele>
        <time>2021-03-28T11:22:22Z</time>
      </trkpt>
      <trkpt lat="42.74039" lon="2.67766">
        <ele>184.1</ele>
        <time>2021-03-28T11:22:24Z</time>
      </trkpt>
      <trkpt lat="42.74039" lon="2.67766">
        <ele>184.1</ele>
        <time>2021-03-28T11:22:24Z</time>
      </trkpt>
      <trkpt lat="42.74035" lon="2.67765">
        <ele>184.4</ele>
        <time>2021-03-28T11:22:26Z</time>
      </trkpt>
      <trkpt lat="42.74035" lon="2.67765">
        <ele>184.4</ele>
        <time>2021-03-28T11:22:26Z</time>
      </trkpt>
      <trkpt lat="42.74032" lon="2.67764">
        <ele>184.7</ele>
        <time>2021-03-28T11:22:27Z</time>
      </trkpt>
      <trkpt lat="42.74032" lon="2.67764">
        <ele>184.7</ele>
        <time>2021-03-28T11:22:27Z</time>
      </trkpt>
      <trkpt lat="42.7403" lon="2.67763">
        <ele>185</ele>
        <time>2021-03-28T11:22:29Z</time>
      </trkpt>
      <trkpt lat="42.7403" lon="2.67763">
        <ele>185</ele>
        <time>2021-03-28T11:22:29Z</time>
      </trkpt>
      <trkpt lat="42.74027" lon="2.67762">
        <ele>185.2</ele>
        <time>2021-03-28T11:22:31Z</time>
      </trkpt>
      <trkpt lat="42.74027" lon="2.67762">
        <ele>185.2</ele>
        <time>2021-03-28T11:22:31Z</time>
      </trkpt>
      <trkpt lat="42.74024" lon="2.67761">
        <ele>185.1</ele>
        <time>2021-03-28T11:22:33Z</time>
      </trkpt>
      <trkpt lat="42.74024" lon="2.67761">
        <ele>185.1</ele>
        <time>2021-03-28T11:22:33Z</time>
      </trkpt>
      <trkpt lat="42.74021" lon="2.6776">
        <ele>185</ele>
        <time>2021-03-28T11:22:34Z</time>
      </trkpt>
      <trkpt lat="42.74021" lon="2.6776">
        <ele>185</ele>
        <time>2021-03-28T11:22:34Z</time>
      </trkpt>
      <trkpt lat="42.74018" lon="2.67758">
        <ele>185</ele>
        <time>2021-03-28T11:22:36Z</time>
      </trkpt>
      <trkpt lat="42.74018" lon="2.67758">
        <ele>185</ele>
        <time>2021-03-28T11:22:36Z</time>
      </trkpt>
      <trkpt lat="42.74015" lon="2.67756">
        <ele>185</ele>
        <time>2021-03-28T11:22:38Z</time>
      </trkpt>
      <trkpt lat="42.74015" lon="2.67756">
        <ele>185</ele>
        <time>2021-03-28T11:22:38Z</time>
      </trkpt>
      <trkpt lat="42.74012" lon="2.67754">
        <ele>185.1</ele>
        <time>2021-03-28T11:22:40Z</time>
      </trkpt>
      <trkpt lat="42.74012" lon="2.67754">
        <ele>185.1</ele>
        <time>2021-03-28T11:22:40Z</time>
      </trkpt>
      <trkpt lat="42.74009" lon="2.67752">
        <ele>185.3</ele>
        <time>2021-03-28T11:22:42Z</time>
      </trkpt>
      <trkpt lat="42.74009" lon="2.67752">
        <ele>185.3</ele>
        <time>2021-03-28T11:22:42Z</time>
      </trkpt>
      <trkpt lat="42.74007" lon="2.6775">
        <ele>185.4</ele>
        <time>2021-03-28T11:22:43Z</time>
      </trkpt>
      <trkpt lat="42.74007" lon="2.6775">
        <ele>185.4</ele>
        <time>2021-03-28T11:22:43Z</time>
      </trkpt>
      <trkpt lat="42.74004" lon="2.67749">
        <ele>185.6</ele>
        <time>2021-03-28T11:22:44Z</time>
      </trkpt>
      <trkpt lat="42.74004" lon="2.67749">
        <ele>185.6</ele>
        <time>2021-03-28T11:22:44Z</time>
      </trkpt>
      <trkpt lat="42.74002" lon="2.67747">
        <ele>185.9</ele>
        <time>2021-03-28T11:22:46Z</time>
      </trkpt>
      <trkpt lat="42.74002" lon="2.67747">
        <ele>185.9</ele>
        <time>2021-03-28T11:22:46Z</time>
      </trkpt>
      <trkpt lat="42.73999" lon="2.67746">
        <ele>186.2</ele>
        <time>2021-03-28T11:22:47Z</time>
      </trkpt>
      <trkpt lat="42.73999" lon="2.67746">
        <ele>186.2</ele>
        <time>2021-03-28T11:22:47Z</time>
      </trkpt>
      <trkpt lat="42.73997" lon="2.67745">
        <ele>186.6</ele>
        <time>2021-03-28T11:22:48Z</time>
      </trkpt>
      <trkpt lat="42.73997" lon="2.67745">
        <ele>186.6</ele>
        <time>2021-03-28T11:22:48Z</time>
      </trkpt>
      <trkpt lat="42.73994" lon="2.67744">
        <ele>186.9</ele>
        <time>2021-03-28T11:22:50Z</time>
      </trkpt>
      <trkpt lat="42.73994" lon="2.67744">
        <ele>186.9</ele>
        <time>2021-03-28T11:22:50Z</time>
      </trkpt>
      <trkpt lat="42.73992" lon="2.67743">
        <ele>187.3</ele>
        <time>2021-03-28T11:22:51Z</time>
      </trkpt>
      <trkpt lat="42.73992" lon="2.67743">
        <ele>187.3</ele>
        <time>2021-03-28T11:22:51Z</time>
      </trkpt>
      <trkpt lat="42.7399" lon="2.67743">
        <ele>187.7</ele>
        <time>2021-03-28T11:22:53Z</time>
      </trkpt>
      <trkpt lat="42.7399" lon="2.67743">
        <ele>187.7</ele>
        <time>2021-03-28T11:22:53Z</time>
      </trkpt>
      <trkpt lat="42.73987" lon="2.67741">
        <ele>188.1</ele>
        <time>2021-03-28T11:22:55Z</time>
      </trkpt>
      <trkpt lat="42.73987" lon="2.67741">
        <ele>188.1</ele>
        <time>2021-03-28T11:22:55Z</time>
      </trkpt>
      <trkpt lat="42.73984" lon="2.6774">
        <ele>188.5</ele>
        <time>2021-03-28T11:22:57Z</time>
      </trkpt>
      <trkpt lat="42.73984" lon="2.6774">
        <ele>188.5</ele>
        <time>2021-03-28T11:22:57Z</time>
      </trkpt>
      <trkpt lat="42.7398" lon="2.6774">
        <ele>188.9</ele>
        <time>2021-03-28T11:22:59Z</time>
      </trkpt>
      <trkpt lat="42.7398" lon="2.6774">
        <ele>188.9</ele>
        <time>2021-03-28T11:22:59Z</time>
      </trkpt>
      <trkpt lat="42.73977" lon="2.67739">
        <ele>189.2</ele>
        <time>2021-03-28T11:23:01Z</time>
      </trkpt>
      <trkpt lat="42.73977" lon="2.67739">
        <ele>189.2</ele>
        <time>2021-03-28T11:23:01Z</time>
      </trkpt>
      <trkpt lat="42.73974" lon="2.67739">
        <ele>189.4</ele>
        <time>2021-03-28T11:23:02Z</time>
      </trkpt>
      <trkpt lat="42.73974" lon="2.67739">
        <ele>189.4</ele>
        <time>2021-03-28T11:23:02Z</time>
      </trkpt>
      <trkpt lat="42.73971" lon="2.67738">
        <ele>189.6</ele>
        <time>2021-03-28T11:23:04Z</time>
      </trkpt>
      <trkpt lat="42.73971" lon="2.67738">
        <ele>189.6</ele>
        <time>2021-03-28T11:23:04Z</time>
      </trkpt>
      <trkpt lat="42.73968" lon="2.67738">
        <ele>189.9</ele>
        <time>2021-03-28T11:23:06Z</time>
      </trkpt>
      <trkpt lat="42.73968" lon="2.67738">
        <ele>189.9</ele>
        <time>2021-03-28T11:23:06Z</time>
      </trkpt>
      <trkpt lat="42.73965" lon="2.67738">
        <ele>190.1</ele>
        <time>2021-03-28T11:23:07Z</time>
      </trkpt>
      <trkpt lat="42.73965" lon="2.67738">
        <ele>190.1</ele>
        <time>2021-03-28T11:23:07Z</time>
      </trkpt>
      <trkpt lat="42.73963" lon="2.67738">
        <ele>190.4</ele>
        <time>2021-03-28T11:23:09Z</time>
      </trkpt>
      <trkpt lat="42.73963" lon="2.67738">
        <ele>190.4</ele>
        <time>2021-03-28T11:23:09Z</time>
      </trkpt>
      <trkpt lat="42.7396" lon="2.67738">
        <ele>190.7</ele>
        <time>2021-03-28T11:23:11Z</time>
      </trkpt>
      <trkpt lat="42.7396" lon="2.67738">
        <ele>190.7</ele>
        <time>2021-03-28T11:23:11Z</time>
      </trkpt>
      <trkpt lat="42.73957" lon="2.67738">
        <ele>191</ele>
        <time>2021-03-28T11:23:12Z</time>
      </trkpt>
      <trkpt lat="42.73957" lon="2.67738">
        <ele>191</ele>
        <time>2021-03-28T11:23:12Z</time>
      </trkpt>
      <trkpt lat="42.73954" lon="2.67738">
        <ele>191.2</ele>
        <time>2021-03-28T11:23:13Z</time>
      </trkpt>
      <trkpt lat="42.73954" lon="2.67738">
        <ele>191.2</ele>
        <time>2021-03-28T11:23:13Z</time>
      </trkpt>
      <trkpt lat="42.73951" lon="2.67738">
        <ele>191.3</ele>
        <time>2021-03-28T11:23:15Z</time>
      </trkpt>
      <trkpt lat="42.73951" lon="2.67738">
        <ele>191.3</ele>
        <time>2021-03-28T11:23:15Z</time>
      </trkpt>
      <trkpt lat="42.73948" lon="2.6774">
        <ele>191.3</ele>
        <time>2021-03-28T11:23:17Z</time>
      </trkpt>
      <trkpt lat="42.73948" lon="2.6774">
        <ele>191.3</ele>
        <time>2021-03-28T11:23:17Z</time>
      </trkpt>
      <trkpt lat="42.73945" lon="2.67742">
        <ele>191.1</ele>
        <time>2021-03-28T11:23:19Z</time>
      </trkpt>
      <trkpt lat="42.73945" lon="2.67742">
        <ele>191.1</ele>
        <time>2021-03-28T11:23:19Z</time>
      </trkpt>
      <trkpt lat="42.73941" lon="2.67744">
        <ele>191.5</ele>
        <time>2021-03-28T11:23:21Z</time>
      </trkpt>
      <trkpt lat="42.73941" lon="2.67744">
        <ele>191.5</ele>
        <time>2021-03-28T11:23:21Z</time>
      </trkpt>
      <trkpt lat="42.73938" lon="2.67746">
        <ele>192</ele>
        <time>2021-03-28T11:23:22Z</time>
      </trkpt>
      <trkpt lat="42.73938" lon="2.67746">
        <ele>192</ele>
        <time>2021-03-28T11:23:22Z</time>
      </trkpt>
      <trkpt lat="42.73934" lon="2.67748">
        <ele>192.4</ele>
        <time>2021-03-28T11:23:24Z</time>
      </trkpt>
      <trkpt lat="42.73934" lon="2.67748">
        <ele>192.4</ele>
        <time>2021-03-28T11:23:24Z</time>
      </trkpt>
      <trkpt lat="42.73931" lon="2.67751">
        <ele>192.8</ele>
        <time>2021-03-28T11:23:25Z</time>
      </trkpt>
      <trkpt lat="42.73931" lon="2.67751">
        <ele>192.8</ele>
        <time>2021-03-28T11:23:25Z</time>
      </trkpt>
      <trkpt lat="42.73928" lon="2.67753">
        <ele>193.2</ele>
        <time>2021-03-28T11:23:26Z</time>
      </trkpt>
      <trkpt lat="42.73928" lon="2.67753">
        <ele>193.2</ele>
        <time>2021-03-28T11:23:26Z</time>
      </trkpt>
      <trkpt lat="42.73926" lon="2.67755">
        <ele>193.6</ele>
        <time>2021-03-28T11:23:28Z</time>
      </trkpt>
      <trkpt lat="42.73926" lon="2.67755">
        <ele>193.6</ele>
        <time>2021-03-28T11:23:28Z</time>
      </trkpt>
      <trkpt lat="42.73924" lon="2.67757">
        <ele>193.7</ele>
        <time>2021-03-28T11:23:29Z</time>
      </trkpt>
      <trkpt lat="42.73924" lon="2.67757">
        <ele>193.7</ele>
        <time>2021-03-28T11:23:29Z</time>
      </trkpt>
      <trkpt lat="42.73921" lon="2.6776">
        <ele>194</ele>
        <time>2021-03-28T11:23:31Z</time>
      </trkpt>
      <trkpt lat="42.73921" lon="2.6776">
        <ele>194</ele>
        <time>2021-03-28T11:23:31Z</time>
      </trkpt>
      <trkpt lat="42.73918" lon="2.67764">
        <ele>194.1</ele>
        <time>2021-03-28T11:23:33Z</time>
      </trkpt>
      <trkpt lat="42.73918" lon="2.67764">
        <ele>194.1</ele>
        <time>2021-03-28T11:23:33Z</time>
      </trkpt>
      <trkpt lat="42.73915" lon="2.67767">
        <ele>194.5</ele>
        <time>2021-03-28T11:23:35Z</time>
      </trkpt>
      <trkpt lat="42.73915" lon="2.67767">
        <ele>194.5</ele>
        <time>2021-03-28T11:23:35Z</time>
      </trkpt>
      <trkpt lat="42.73911" lon="2.67771">
        <ele>195</ele>
        <time>2021-03-28T11:23:37Z</time>
      </trkpt>
      <trkpt lat="42.73911" lon="2.67771">
        <ele>195</ele>
        <time>2021-03-28T11:23:37Z</time>
      </trkpt>
      <trkpt lat="42.73907" lon="2.67775">
        <ele>195.3</ele>
        <time>2021-03-28T11:23:39Z</time>
      </trkpt>
      <trkpt lat="42.73907" lon="2.67775">
        <ele>195.3</ele>
        <time>2021-03-28T11:23:39Z</time>
      </trkpt>
      <trkpt lat="42.73903" lon="2.67779">
        <ele>195.6</ele>
        <time>2021-03-28T11:23:41Z</time>
      </trkpt>
      <trkpt lat="42.73903" lon="2.67779">
        <ele>195.6</ele>
        <time>2021-03-28T11:23:41Z</time>
      </trkpt>
      <trkpt lat="42.73899" lon="2.67783">
        <ele>196</ele>
        <time>2021-03-28T11:23:43Z</time>
      </trkpt>
      <trkpt lat="42.73899" lon="2.67783">
        <ele>196</ele>
        <time>2021-03-28T11:23:43Z</time>
      </trkpt>
      <trkpt lat="42.73896" lon="2.67787">
        <ele>196.3</ele>
        <time>2021-03-28T11:23:44Z</time>
      </trkpt>
      <trkpt lat="42.73896" lon="2.67787">
        <ele>196.3</ele>
        <time>2021-03-28T11:23:44Z</time>
      </trkpt>
      <trkpt lat="42.73893" lon="2.67791">
        <ele>196.4</ele>
        <time>2021-03-28T11:23:46Z</time>
      </trkpt>
      <trkpt lat="42.73893" lon="2.67791">
        <ele>196.4</ele>
        <time>2021-03-28T11:23:46Z</time>
      </trkpt>
      <trkpt lat="42.73891" lon="2.67795">
        <ele>196.4</ele>
        <time>2021-03-28T11:23:47Z</time>
      </trkpt>
      <trkpt lat="42.73891" lon="2.67795">
        <ele>196.4</ele>
        <time>2021-03-28T11:23:47Z</time>
      </trkpt>
      <trkpt lat="42.73888" lon="2.67799">
        <ele>196.5</ele>
        <time>2021-03-28T11:23:49Z</time>
      </trkpt>
      <trkpt lat="42.73888" lon="2.67799">
        <ele>196.5</ele>
        <time>2021-03-28T11:23:49Z</time>
      </trkpt>
      <trkpt lat="42.73885" lon="2.67803">
        <ele>196.4</ele>
        <time>2021-03-28T11:23:51Z</time>
      </trkpt>
      <trkpt lat="42.73885" lon="2.67803">
        <ele>196.4</ele>
        <time>2021-03-28T11:23:51Z</time>
      </trkpt>
      <trkpt lat="42.73882" lon="2.67807">
        <ele>196.6</ele>
        <time>2021-03-28T11:23:53Z</time>
      </trkpt>
      <trkpt lat="42.73882" lon="2.67807">
        <ele>196.6</ele>
        <time>2021-03-28T11:23:53Z</time>
      </trkpt>
      <trkpt lat="42.73878" lon="2.67811">
        <ele>196.8</ele>
        <time>2021-03-28T11:23:54Z</time>
      </trkpt>
      <trkpt lat="42.73878" lon="2.67811">
        <ele>196.8</ele>
        <time>2021-03-28T11:23:54Z</time>
      </trkpt>
      <trkpt lat="42.73875" lon="2.67814">
        <ele>197.1</ele>
        <time>2021-03-28T11:23:55Z</time>
      </trkpt>
      <trkpt lat="42.73875" lon="2.67814">
        <ele>197.1</ele>
        <time>2021-03-28T11:23:55Z</time>
      </trkpt>
      <trkpt lat="42.73871" lon="2.67817">
        <ele>197.3</ele>
        <time>2021-03-28T11:23:57Z</time>
      </trkpt>
      <trkpt lat="42.73871" lon="2.67817">
        <ele>197.3</ele>
        <time>2021-03-28T11:23:57Z</time>
      </trkpt>
      <trkpt lat="42.73868" lon="2.67821">
        <ele>197.6</ele>
        <time>2021-03-28T11:23:59Z</time>
      </trkpt>
      <trkpt lat="42.73868" lon="2.67821">
        <ele>197.6</ele>
        <time>2021-03-28T11:23:59Z</time>
      </trkpt>
      <trkpt lat="42.73864" lon="2.67825">
        <ele>197.8</ele>
        <time>2021-03-28T11:24:00Z</time>
      </trkpt>
      <trkpt lat="42.73864" lon="2.67825">
        <ele>197.8</ele>
        <time>2021-03-28T11:24:00Z</time>
      </trkpt>
      <trkpt lat="42.73861" lon="2.67829">
        <ele>197.9</ele>
        <time>2021-03-28T11:24:02Z</time>
      </trkpt>
      <trkpt lat="42.73861" lon="2.67829">
        <ele>197.9</ele>
        <time>2021-03-28T11:24:02Z</time>
      </trkpt>
      <trkpt lat="42.73858" lon="2.67832">
        <ele>198.1</ele>
        <time>2021-03-28T11:24:03Z</time>
      </trkpt>
      <trkpt lat="42.73858" lon="2.67832">
        <ele>198.1</ele>
        <time>2021-03-28T11:24:03Z</time>
      </trkpt>
      <trkpt lat="42.73855" lon="2.67837">
        <ele>198.1</ele>
        <time>2021-03-28T11:24:05Z</time>
      </trkpt>
      <trkpt lat="42.73855" lon="2.67837">
        <ele>198.1</ele>
        <time>2021-03-28T11:24:05Z</time>
      </trkpt>
      <trkpt lat="42.73852" lon="2.6784">
        <ele>198</ele>
        <time>2021-03-28T11:24:06Z</time>
      </trkpt>
      <trkpt lat="42.73852" lon="2.6784">
        <ele>198</ele>
        <time>2021-03-28T11:24:06Z</time>
      </trkpt>
      <trkpt lat="42.7385" lon="2.67844">
        <ele>198</ele>
        <time>2021-03-28T11:24:07Z</time>
      </trkpt>
      <trkpt lat="42.7385" lon="2.67844">
        <ele>198</ele>
        <time>2021-03-28T11:24:07Z</time>
      </trkpt>
      <trkpt lat="42.73848" lon="2.67847">
        <ele>198.1</ele>
        <time>2021-03-28T11:24:09Z</time>
      </trkpt>
      <trkpt lat="42.73848" lon="2.67847">
        <ele>198.1</ele>
        <time>2021-03-28T11:24:09Z</time>
      </trkpt>
      <trkpt lat="42.73845" lon="2.67851">
        <ele>198.5</ele>
        <time>2021-03-28T11:24:11Z</time>
      </trkpt>
      <trkpt lat="42.73845" lon="2.67851">
        <ele>198.5</ele>
        <time>2021-03-28T11:24:11Z</time>
      </trkpt>
      <trkpt lat="42.73842" lon="2.67855">
        <ele>199</ele>
        <time>2021-03-28T11:24:12Z</time>
      </trkpt>
      <trkpt lat="42.73842" lon="2.67855">
        <ele>199</ele>
        <time>2021-03-28T11:24:12Z</time>
      </trkpt>
      <trkpt lat="42.7384" lon="2.67858">
        <ele>199.5</ele>
        <time>2021-03-28T11:24:13Z</time>
      </trkpt>
      <trkpt lat="42.7384" lon="2.67858">
        <ele>199.5</ele>
        <time>2021-03-28T11:24:13Z</time>
      </trkpt>
      <trkpt lat="42.73837" lon="2.67861">
        <ele>200.2</ele>
        <time>2021-03-28T11:24:15Z</time>
      </trkpt>
      <trkpt lat="42.73837" lon="2.67861">
        <ele>200.2</ele>
        <time>2021-03-28T11:24:15Z</time>
      </trkpt>
      <trkpt lat="42.73835" lon="2.67864">
        <ele>200.7</ele>
        <time>2021-03-28T11:24:16Z</time>
      </trkpt>
      <trkpt lat="42.73835" lon="2.67864">
        <ele>200.7</ele>
        <time>2021-03-28T11:24:16Z</time>
      </trkpt>
      <trkpt lat="42.73832" lon="2.67867">
        <ele>201</ele>
        <time>2021-03-28T11:24:18Z</time>
      </trkpt>
      <trkpt lat="42.73832" lon="2.67867">
        <ele>201</ele>
        <time>2021-03-28T11:24:18Z</time>
      </trkpt>
      <trkpt lat="42.73829" lon="2.67871">
        <ele>201.1</ele>
        <time>2021-03-28T11:24:20Z</time>
      </trkpt>
      <trkpt lat="42.73829" lon="2.67871">
        <ele>201.1</ele>
        <time>2021-03-28T11:24:20Z</time>
      </trkpt>
      <trkpt lat="42.73827" lon="2.67873">
        <ele>201.2</ele>
        <time>2021-03-28T11:24:21Z</time>
      </trkpt>
      <trkpt lat="42.73827" lon="2.67873">
        <ele>201.2</ele>
        <time>2021-03-28T11:24:21Z</time>
      </trkpt>
      <trkpt lat="42.73825" lon="2.67875">
        <ele>201.3</ele>
        <time>2021-03-28T11:24:22Z</time>
      </trkpt>
      <trkpt lat="42.73825" lon="2.67875">
        <ele>201.3</ele>
        <time>2021-03-28T11:24:22Z</time>
      </trkpt>
      <trkpt lat="42.73822" lon="2.67878">
        <ele>201.5</ele>
        <time>2021-03-28T11:24:24Z</time>
      </trkpt>
      <trkpt lat="42.73822" lon="2.67878">
        <ele>201.5</ele>
        <time>2021-03-28T11:24:24Z</time>
      </trkpt>
      <trkpt lat="42.73819" lon="2.6788">
        <ele>201.8</ele>
        <time>2021-03-28T11:24:26Z</time>
      </trkpt>
      <trkpt lat="42.73819" lon="2.6788">
        <ele>201.8</ele>
        <time>2021-03-28T11:24:26Z</time>
      </trkpt>
      <trkpt lat="42.73816" lon="2.67883">
        <ele>202.1</ele>
        <time>2021-03-28T11:24:27Z</time>
      </trkpt>
      <trkpt lat="42.73816" lon="2.67883">
        <ele>202.1</ele>
        <time>2021-03-28T11:24:27Z</time>
      </trkpt>
      <trkpt lat="42.73814" lon="2.67886">
        <ele>202.1</ele>
        <time>2021-03-28T11:24:29Z</time>
      </trkpt>
      <trkpt lat="42.73814" lon="2.67886">
        <ele>202.1</ele>
        <time>2021-03-28T11:24:29Z</time>
      </trkpt>
      <trkpt lat="42.73811" lon="2.67889">
        <ele>202.3</ele>
        <time>2021-03-28T11:24:31Z</time>
      </trkpt>
      <trkpt lat="42.73811" lon="2.67889">
        <ele>202.3</ele>
        <time>2021-03-28T11:24:31Z</time>
      </trkpt>
      <trkpt lat="42.73808" lon="2.67893">
        <ele>202.7</ele>
        <time>2021-03-28T11:24:33Z</time>
      </trkpt>
      <trkpt lat="42.73808" lon="2.67893">
        <ele>202.7</ele>
        <time>2021-03-28T11:24:33Z</time>
      </trkpt>
      <trkpt lat="42.73805" lon="2.67896">
        <ele>203</ele>
        <time>2021-03-28T11:24:35Z</time>
      </trkpt>
      <trkpt lat="42.73805" lon="2.67896">
        <ele>203</ele>
        <time>2021-03-28T11:24:35Z</time>
      </trkpt>
      <trkpt lat="42.73802" lon="2.679">
        <ele>203</ele>
        <time>2021-03-28T11:24:37Z</time>
      </trkpt>
      <trkpt lat="42.73802" lon="2.679">
        <ele>203</ele>
        <time>2021-03-28T11:24:37Z</time>
      </trkpt>
      <trkpt lat="42.738" lon="2.67903">
        <ele>203.1</ele>
        <time>2021-03-28T11:24:38Z</time>
      </trkpt>
      <trkpt lat="42.738" lon="2.67903">
        <ele>203.1</ele>
        <time>2021-03-28T11:24:38Z</time>
      </trkpt>
      <trkpt lat="42.73797" lon="2.67906">
        <ele>203.2</ele>
        <time>2021-03-28T11:24:40Z</time>
      </trkpt>
      <trkpt lat="42.73797" lon="2.67906">
        <ele>203.2</ele>
        <time>2021-03-28T11:24:40Z</time>
      </trkpt>
      <trkpt lat="42.73794" lon="2.67908">
        <ele>203.3</ele>
        <time>2021-03-28T11:24:41Z</time>
      </trkpt>
      <trkpt lat="42.73794" lon="2.67908">
        <ele>203.3</ele>
        <time>2021-03-28T11:24:41Z</time>
      </trkpt>
      <trkpt lat="42.73792" lon="2.6791">
        <ele>203.5</ele>
        <time>2021-03-28T11:24:42Z</time>
      </trkpt>
      <trkpt lat="42.73792" lon="2.6791">
        <ele>203.5</ele>
        <time>2021-03-28T11:24:42Z</time>
      </trkpt>
      <trkpt lat="42.73789" lon="2.67911">
        <ele>203.8</ele>
        <time>2021-03-28T11:24:43Z</time>
      </trkpt>
      <trkpt lat="42.73789" lon="2.67911">
        <ele>203.8</ele>
        <time>2021-03-28T11:24:43Z</time>
      </trkpt>
      <trkpt lat="42.73786" lon="2.67913">
        <ele>204.1</ele>
        <time>2021-03-28T11:24:45Z</time>
      </trkpt>
      <trkpt lat="42.73786" lon="2.67913">
        <ele>204.1</ele>
        <time>2021-03-28T11:24:45Z</time>
      </trkpt>
      <trkpt lat="42.73782" lon="2.67915">
        <ele>204.4</ele>
        <time>2021-03-28T11:24:47Z</time>
      </trkpt>
      <trkpt lat="42.73782" lon="2.67915">
        <ele>204.4</ele>
        <time>2021-03-28T11:24:47Z</time>
      </trkpt>
      <trkpt lat="42.7378" lon="2.67917">
        <ele>204.6</ele>
        <time>2021-03-28T11:24:48Z</time>
      </trkpt>
      <trkpt lat="42.7378" lon="2.67917">
        <ele>204.6</ele>
        <time>2021-03-28T11:24:48Z</time>
      </trkpt>
      <trkpt lat="42.73776" lon="2.67919">
        <ele>204.9</ele>
        <time>2021-03-28T11:24:50Z</time>
      </trkpt>
      <trkpt lat="42.73776" lon="2.67919">
        <ele>204.9</ele>
        <time>2021-03-28T11:24:50Z</time>
      </trkpt>
      <trkpt lat="42.73774" lon="2.67921">
        <ele>205</ele>
        <time>2021-03-28T11:24:51Z</time>
      </trkpt>
      <trkpt lat="42.73774" lon="2.67921">
        <ele>205</ele>
        <time>2021-03-28T11:24:51Z</time>
      </trkpt>
      <trkpt lat="42.7377" lon="2.67923">
        <ele>205.1</ele>
        <time>2021-03-28T11:24:53Z</time>
      </trkpt>
      <trkpt lat="42.7377" lon="2.67923">
        <ele>205.1</ele>
        <time>2021-03-28T11:24:53Z</time>
      </trkpt>
      <trkpt lat="42.73767" lon="2.67925">
        <ele>205.3</ele>
        <time>2021-03-28T11:24:55Z</time>
      </trkpt>
      <trkpt lat="42.73767" lon="2.67925">
        <ele>205.3</ele>
        <time>2021-03-28T11:24:55Z</time>
      </trkpt>
      <trkpt lat="42.73764" lon="2.67927">
        <ele>205.5</ele>
        <time>2021-03-28T11:24:56Z</time>
      </trkpt>
      <trkpt lat="42.73764" lon="2.67927">
        <ele>205.5</ele>
        <time>2021-03-28T11:24:56Z</time>
      </trkpt>
      <trkpt lat="42.7376" lon="2.67928">
        <ele>205.7</ele>
        <time>2021-03-28T11:24:58Z</time>
      </trkpt>
      <trkpt lat="42.7376" lon="2.67928">
        <ele>205.7</ele>
        <time>2021-03-28T11:24:58Z</time>
      </trkpt>
      <trkpt lat="42.73757" lon="2.67928">
        <ele>205.9</ele>
        <time>2021-03-28T11:24:59Z</time>
      </trkpt>
      <trkpt lat="42.73757" lon="2.67928">
        <ele>205.9</ele>
        <time>2021-03-28T11:24:59Z</time>
      </trkpt>
      <trkpt lat="42.73755" lon="2.67929">
        <ele>206.2</ele>
        <time>2021-03-28T11:25:00Z</time>
      </trkpt>
      <trkpt lat="42.73755" lon="2.67929">
        <ele>206.2</ele>
        <time>2021-03-28T11:25:00Z</time>
      </trkpt>
      <trkpt lat="42.73751" lon="2.6793">
        <ele>206.4</ele>
        <time>2021-03-28T11:25:02Z</time>
      </trkpt>
      <trkpt lat="42.73751" lon="2.6793">
        <ele>206.4</ele>
        <time>2021-03-28T11:25:02Z</time>
      </trkpt>
      <trkpt lat="42.73749" lon="2.6793">
        <ele>206.6</ele>
        <time>2021-03-28T11:25:03Z</time>
      </trkpt>
      <trkpt lat="42.73749" lon="2.6793">
        <ele>206.6</ele>
        <time>2021-03-28T11:25:03Z</time>
      </trkpt>
      <trkpt lat="42.73746" lon="2.67931">
        <ele>206.7</ele>
        <time>2021-03-28T11:25:05Z</time>
      </trkpt>
      <trkpt lat="42.73746" lon="2.67931">
        <ele>206.7</ele>
        <time>2021-03-28T11:25:05Z</time>
      </trkpt>
      <trkpt lat="42.73743" lon="2.67931">
        <ele>206.8</ele>
        <time>2021-03-28T11:25:06Z</time>
      </trkpt>
      <trkpt lat="42.73743" lon="2.67931">
        <ele>206.8</ele>
        <time>2021-03-28T11:25:06Z</time>
      </trkpt>
      <trkpt lat="42.73741" lon="2.67931">
        <ele>207</ele>
        <time>2021-03-28T11:25:07Z</time>
      </trkpt>
      <trkpt lat="42.73741" lon="2.67931">
        <ele>207</ele>
        <time>2021-03-28T11:25:07Z</time>
      </trkpt>
      <trkpt lat="42.73738" lon="2.67931">
        <ele>207.1</ele>
        <time>2021-03-28T11:25:09Z</time>
      </trkpt>
      <trkpt lat="42.73738" lon="2.67931">
        <ele>207.1</ele>
        <time>2021-03-28T11:25:09Z</time>
      </trkpt>
      <trkpt lat="42.73736" lon="2.67931">
        <ele>207.3</ele>
        <time>2021-03-28T11:25:11Z</time>
      </trkpt>
      <trkpt lat="42.73736" lon="2.67931">
        <ele>207.3</ele>
        <time>2021-03-28T11:25:11Z</time>
      </trkpt>
      <trkpt lat="42.73733" lon="2.67931">
        <ele>207.4</ele>
        <time>2021-03-28T11:25:12Z</time>
      </trkpt>
      <trkpt lat="42.73733" lon="2.67931">
        <ele>207.4</ele>
        <time>2021-03-28T11:25:12Z</time>
      </trkpt>
      <trkpt lat="42.7373" lon="2.6793">
        <ele>207.6</ele>
        <time>2021-03-28T11:25:14Z</time>
      </trkpt>
      <trkpt lat="42.7373" lon="2.6793">
        <ele>207.6</ele>
        <time>2021-03-28T11:25:14Z</time>
      </trkpt>
      <trkpt lat="42.73727" lon="2.6793">
        <ele>207.7</ele>
        <time>2021-03-28T11:25:16Z</time>
      </trkpt>
      <trkpt lat="42.73727" lon="2.6793">
        <ele>207.7</ele>
        <time>2021-03-28T11:25:16Z</time>
      </trkpt>
      <trkpt lat="42.73725" lon="2.6793">
        <ele>207.9</ele>
        <time>2021-03-28T11:25:17Z</time>
      </trkpt>
      <trkpt lat="42.73725" lon="2.6793">
        <ele>207.9</ele>
        <time>2021-03-28T11:25:17Z</time>
      </trkpt>
      <trkpt lat="42.73721" lon="2.67929">
        <ele>208.1</ele>
        <time>2021-03-28T11:25:19Z</time>
      </trkpt>
      <trkpt lat="42.73721" lon="2.67929">
        <ele>208.1</ele>
        <time>2021-03-28T11:25:19Z</time>
      </trkpt>
      <trkpt lat="42.73718" lon="2.67929">
        <ele>208.2</ele>
        <time>2021-03-28T11:25:20Z</time>
      </trkpt>
      <trkpt lat="42.73718" lon="2.67929">
        <ele>208.2</ele>
        <time>2021-03-28T11:25:20Z</time>
      </trkpt>
      <trkpt lat="42.73716" lon="2.67929">
        <ele>208.3</ele>
        <time>2021-03-28T11:25:22Z</time>
      </trkpt>
      <trkpt lat="42.73716" lon="2.67929">
        <ele>208.3</ele>
        <time>2021-03-28T11:25:22Z</time>
      </trkpt>
      <trkpt lat="42.73713" lon="2.67928">
        <ele>208.5</ele>
        <time>2021-03-28T11:25:24Z</time>
      </trkpt>
      <trkpt lat="42.73713" lon="2.67928">
        <ele>208.5</ele>
        <time>2021-03-28T11:25:24Z</time>
      </trkpt>
      <trkpt lat="42.7371" lon="2.67928">
        <ele>208.6</ele>
        <time>2021-03-28T11:25:25Z</time>
      </trkpt>
      <trkpt lat="42.7371" lon="2.67928">
        <ele>208.6</ele>
        <time>2021-03-28T11:25:25Z</time>
      </trkpt>
      <trkpt lat="42.73707" lon="2.67927">
        <ele>208.8</ele>
        <time>2021-03-28T11:25:27Z</time>
      </trkpt>
      <trkpt lat="42.73707" lon="2.67927">
        <ele>208.8</ele>
        <time>2021-03-28T11:25:27Z</time>
      </trkpt>
      <trkpt lat="42.73703" lon="2.67926">
        <ele>208.9</ele>
        <time>2021-03-28T11:25:29Z</time>
      </trkpt>
      <trkpt lat="42.73703" lon="2.67926">
        <ele>208.9</ele>
        <time>2021-03-28T11:25:29Z</time>
      </trkpt>
      <trkpt lat="42.73699" lon="2.67925">
        <ele>209.1</ele>
        <time>2021-03-28T11:25:31Z</time>
      </trkpt>
      <trkpt lat="42.73699" lon="2.67925">
        <ele>209.1</ele>
        <time>2021-03-28T11:25:31Z</time>
      </trkpt>
      <trkpt lat="42.73695" lon="2.67924">
        <ele>209.2</ele>
        <time>2021-03-28T11:25:32Z</time>
      </trkpt>
      <trkpt lat="42.73695" lon="2.67924">
        <ele>209.2</ele>
        <time>2021-03-28T11:25:32Z</time>
      </trkpt>
      <trkpt lat="42.73691" lon="2.67923">
        <ele>209.3</ele>
        <time>2021-03-28T11:25:34Z</time>
      </trkpt>
      <trkpt lat="42.73691" lon="2.67923">
        <ele>209.3</ele>
        <time>2021-03-28T11:25:34Z</time>
      </trkpt>
      <trkpt lat="42.73688" lon="2.67923">
        <ele>209.5</ele>
        <time>2021-03-28T11:25:35Z</time>
      </trkpt>
      <trkpt lat="42.73688" lon="2.67923">
        <ele>209.5</ele>
        <time>2021-03-28T11:25:35Z</time>
      </trkpt>
      <trkpt lat="42.73683" lon="2.67922">
        <ele>209.6</ele>
        <time>2021-03-28T11:25:37Z</time>
      </trkpt>
      <trkpt lat="42.73683" lon="2.67922">
        <ele>209.6</ele>
        <time>2021-03-28T11:25:37Z</time>
      </trkpt>
      <trkpt lat="42.73678" lon="2.67922">
        <ele>209.8</ele>
        <time>2021-03-28T11:25:39Z</time>
      </trkpt>
      <trkpt lat="42.73678" lon="2.67922">
        <ele>209.8</ele>
        <time>2021-03-28T11:25:39Z</time>
      </trkpt>
      <trkpt lat="42.73674" lon="2.67922">
        <ele>209.9</ele>
        <time>2021-03-28T11:25:40Z</time>
      </trkpt>
      <trkpt lat="42.73674" lon="2.67922">
        <ele>209.9</ele>
        <time>2021-03-28T11:25:40Z</time>
      </trkpt>
      <trkpt lat="42.7367" lon="2.67922">
        <ele>210.1</ele>
        <time>2021-03-28T11:25:42Z</time>
      </trkpt>
      <trkpt lat="42.7367" lon="2.67922">
        <ele>210.1</ele>
        <time>2021-03-28T11:25:42Z</time>
      </trkpt>
      <trkpt lat="42.73666" lon="2.67922">
        <ele>210.2</ele>
        <time>2021-03-28T11:25:43Z</time>
      </trkpt>
      <trkpt lat="42.73666" lon="2.67922">
        <ele>210.2</ele>
        <time>2021-03-28T11:25:43Z</time>
      </trkpt>
      <trkpt lat="42.73661" lon="2.67921">
        <ele>210.4</ele>
        <time>2021-03-28T11:25:45Z</time>
      </trkpt>
      <trkpt lat="42.73661" lon="2.67921">
        <ele>210.4</ele>
        <time>2021-03-28T11:25:45Z</time>
      </trkpt>
      <trkpt lat="42.73657" lon="2.67921">
        <ele>210.5</ele>
        <time>2021-03-28T11:25:46Z</time>
      </trkpt>
      <trkpt lat="42.73657" lon="2.67921">
        <ele>210.5</ele>
        <time>2021-03-28T11:25:46Z</time>
      </trkpt>
      <trkpt lat="42.73653" lon="2.67921">
        <ele>210.7</ele>
        <time>2021-03-28T11:25:47Z</time>
      </trkpt>
      <trkpt lat="42.73653" lon="2.67921">
        <ele>210.7</ele>
        <time>2021-03-28T11:25:47Z</time>
      </trkpt>
      <trkpt lat="42.73649" lon="2.67921">
        <ele>210.8</ele>
        <time>2021-03-28T11:25:49Z</time>
      </trkpt>
      <trkpt lat="42.73649" lon="2.67921">
        <ele>210.8</ele>
        <time>2021-03-28T11:25:49Z</time>
      </trkpt>
      <trkpt lat="42.73645" lon="2.6792">
        <ele>210.9</ele>
        <time>2021-03-28T11:25:50Z</time>
      </trkpt>
      <trkpt lat="42.73645" lon="2.6792">
        <ele>210.9</ele>
        <time>2021-03-28T11:25:50Z</time>
      </trkpt>
      <trkpt lat="42.73641" lon="2.6792">
        <ele>211</ele>
        <time>2021-03-28T11:25:52Z</time>
      </trkpt>
      <trkpt lat="42.73641" lon="2.6792">
        <ele>211</ele>
        <time>2021-03-28T11:25:52Z</time>
      </trkpt>
      <trkpt lat="42.73637" lon="2.67919">
        <ele>211.2</ele>
        <time>2021-03-28T11:25:53Z</time>
      </trkpt>
      <trkpt lat="42.73637" lon="2.67919">
        <ele>211.2</ele>
        <time>2021-03-28T11:25:53Z</time>
      </trkpt>
      <trkpt lat="42.73634" lon="2.67919">
        <ele>211.4</ele>
        <time>2021-03-28T11:25:54Z</time>
      </trkpt>
      <trkpt lat="42.73634" lon="2.67919">
        <ele>211.4</ele>
        <time>2021-03-28T11:25:54Z</time>
      </trkpt>
      <trkpt lat="42.73631" lon="2.67918">
        <ele>211.6</ele>
        <time>2021-03-28T11:25:56Z</time>
      </trkpt>
      <trkpt lat="42.73631" lon="2.67918">
        <ele>211.6</ele>
        <time>2021-03-28T11:25:56Z</time>
      </trkpt>
      <trkpt lat="42.73627" lon="2.67917">
        <ele>211.9</ele>
        <time>2021-03-28T11:25:58Z</time>
      </trkpt>
      <trkpt lat="42.73627" lon="2.67917">
        <ele>211.9</ele>
        <time>2021-03-28T11:25:58Z</time>
      </trkpt>
      <trkpt lat="42.73624" lon="2.67917">
        <ele>212.1</ele>
        <time>2021-03-28T11:25:59Z</time>
      </trkpt>
      <trkpt lat="42.73624" lon="2.67917">
        <ele>212.1</ele>
        <time>2021-03-28T11:25:59Z</time>
      </trkpt>
      <trkpt lat="42.73621" lon="2.67916">
        <ele>212.3</ele>
        <time>2021-03-28T11:26:00Z</time>
      </trkpt>
      <trkpt lat="42.73621" lon="2.67916">
        <ele>212.3</ele>
        <time>2021-03-28T11:26:00Z</time>
      </trkpt>
      <trkpt lat="42.73618" lon="2.67915">
        <ele>212.5</ele>
        <time>2021-03-28T11:26:01Z</time>
      </trkpt>
      <trkpt lat="42.73618" lon="2.67915">
        <ele>212.5</ele>
        <time>2021-03-28T11:26:01Z</time>
      </trkpt>
      <trkpt lat="42.73615" lon="2.67914">
        <ele>212.7</ele>
        <time>2021-03-28T11:26:03Z</time>
      </trkpt>
      <trkpt lat="42.73615" lon="2.67914">
        <ele>212.7</ele>
        <time>2021-03-28T11:26:03Z</time>
      </trkpt>
      <trkpt lat="42.73612" lon="2.67913">
        <ele>213</ele>
        <time>2021-03-28T11:26:05Z</time>
      </trkpt>
      <trkpt lat="42.73612" lon="2.67913">
        <ele>213</ele>
        <time>2021-03-28T11:26:05Z</time>
      </trkpt>
      <trkpt lat="42.73608" lon="2.67911">
        <ele>213.4</ele>
        <time>2021-03-28T11:26:07Z</time>
      </trkpt>
      <trkpt lat="42.73608" lon="2.67911">
        <ele>213.4</ele>
        <time>2021-03-28T11:26:07Z</time>
      </trkpt>
      <trkpt lat="42.73605" lon="2.67909">
        <ele>213.8</ele>
        <time>2021-03-28T11:26:09Z</time>
      </trkpt>
      <trkpt lat="42.73605" lon="2.67909">
        <ele>213.8</ele>
        <time>2021-03-28T11:26:09Z</time>
      </trkpt>
      <trkpt lat="42.73602" lon="2.67907">
        <ele>214.2</ele>
        <time>2021-03-28T11:26:11Z</time>
      </trkpt>
      <trkpt lat="42.73602" lon="2.67907">
        <ele>214.2</ele>
        <time>2021-03-28T11:26:11Z</time>
      </trkpt>
      <trkpt lat="42.73599" lon="2.67904">
        <ele>214.6</ele>
        <time>2021-03-28T11:26:13Z</time>
      </trkpt>
      <trkpt lat="42.73599" lon="2.67904">
        <ele>214.6</ele>
        <time>2021-03-28T11:26:13Z</time>
      </trkpt>
      <trkpt lat="42.73596" lon="2.67902">
        <ele>214.9</ele>
        <time>2021-03-28T11:26:14Z</time>
      </trkpt>
      <trkpt lat="42.73596" lon="2.67902">
        <ele>214.9</ele>
        <time>2021-03-28T11:26:14Z</time>
      </trkpt>
      <trkpt lat="42.73593" lon="2.67901">
        <ele>215.2</ele>
        <time>2021-03-28T11:26:15Z</time>
      </trkpt>
      <trkpt lat="42.73593" lon="2.67901">
        <ele>215.2</ele>
        <time>2021-03-28T11:26:15Z</time>
      </trkpt>
      <trkpt lat="42.73591" lon="2.67899">
        <ele>215.4</ele>
        <time>2021-03-28T11:26:17Z</time>
      </trkpt>
      <trkpt lat="42.73591" lon="2.67899">
        <ele>215.4</ele>
        <time>2021-03-28T11:26:17Z</time>
      </trkpt>
      <trkpt lat="42.73589" lon="2.67898">
        <ele>215.6</ele>
        <time>2021-03-28T11:26:18Z</time>
      </trkpt>
      <trkpt lat="42.73589" lon="2.67898">
        <ele>215.6</ele>
        <time>2021-03-28T11:26:18Z</time>
      </trkpt>
      <trkpt lat="42.73587" lon="2.67896">
        <ele>215.9</ele>
        <time>2021-03-28T11:26:20Z</time>
      </trkpt>
      <trkpt lat="42.73587" lon="2.67896">
        <ele>215.9</ele>
        <time>2021-03-28T11:26:20Z</time>
      </trkpt>
      <trkpt lat="42.73584" lon="2.67894">
        <ele>216.1</ele>
        <time>2021-03-28T11:26:22Z</time>
      </trkpt>
      <trkpt lat="42.73584" lon="2.67894">
        <ele>216.1</ele>
        <time>2021-03-28T11:26:22Z</time>
      </trkpt>
      <trkpt lat="42.73582" lon="2.67892">
        <ele>216.3</ele>
        <time>2021-03-28T11:26:23Z</time>
      </trkpt>
      <trkpt lat="42.73582" lon="2.67892">
        <ele>216.3</ele>
        <time>2021-03-28T11:26:23Z</time>
      </trkpt>
      <trkpt lat="42.7358" lon="2.6789">
        <ele>216.6</ele>
        <time>2021-03-28T11:26:25Z</time>
      </trkpt>
      <trkpt lat="42.7358" lon="2.6789">
        <ele>216.6</ele>
        <time>2021-03-28T11:26:25Z</time>
      </trkpt>
      <trkpt lat="42.73577" lon="2.67888">
        <ele>216.9</ele>
        <time>2021-03-28T11:26:27Z</time>
      </trkpt>
      <trkpt lat="42.73577" lon="2.67888">
        <ele>216.9</ele>
        <time>2021-03-28T11:26:27Z</time>
      </trkpt>
      <trkpt lat="42.73575" lon="2.67887">
        <ele>217.2</ele>
        <time>2021-03-28T11:26:29Z</time>
      </trkpt>
      <trkpt lat="42.73575" lon="2.67887">
        <ele>217.2</ele>
        <time>2021-03-28T11:26:29Z</time>
      </trkpt>
      <trkpt lat="42.73571" lon="2.67885">
        <ele>217.7</ele>
        <time>2021-03-28T11:26:31Z</time>
      </trkpt>
      <trkpt lat="42.73571" lon="2.67885">
        <ele>217.7</ele>
        <time>2021-03-28T11:26:31Z</time>
      </trkpt>
      <trkpt lat="42.73569" lon="2.67884">
        <ele>218</ele>
        <time>2021-03-28T11:26:32Z</time>
      </trkpt>
      <trkpt lat="42.73569" lon="2.67884">
        <ele>218</ele>
        <time>2021-03-28T11:26:32Z</time>
      </trkpt>
      <trkpt lat="42.73566" lon="2.67882">
        <ele>218.4</ele>
        <time>2021-03-28T11:26:34Z</time>
      </trkpt>
      <trkpt lat="42.73566" lon="2.67882">
        <ele>218.4</ele>
        <time>2021-03-28T11:26:34Z</time>
      </trkpt>
      <trkpt lat="42.73563" lon="2.6788">
        <ele>218.7</ele>
        <time>2021-03-28T11:26:36Z</time>
      </trkpt>
      <trkpt lat="42.73563" lon="2.6788">
        <ele>218.7</ele>
        <time>2021-03-28T11:26:36Z</time>
      </trkpt>
      <trkpt lat="42.7356" lon="2.67877">
        <ele>219</ele>
        <time>2021-03-28T11:26:38Z</time>
      </trkpt>
      <trkpt lat="42.7356" lon="2.67877">
        <ele>219</ele>
        <time>2021-03-28T11:26:38Z</time>
      </trkpt>
      <trkpt lat="42.73557" lon="2.67875">
        <ele>219.3</ele>
        <time>2021-03-28T11:26:39Z</time>
      </trkpt>
      <trkpt lat="42.73557" lon="2.67875">
        <ele>219.3</ele>
        <time>2021-03-28T11:26:39Z</time>
      </trkpt>
      <trkpt lat="42.73555" lon="2.67873">
        <ele>219.5</ele>
        <time>2021-03-28T11:26:41Z</time>
      </trkpt>
      <trkpt lat="42.73555" lon="2.67873">
        <ele>219.5</ele>
        <time>2021-03-28T11:26:41Z</time>
      </trkpt>
      <trkpt lat="42.73552" lon="2.67871">
        <ele>219.7</ele>
        <time>2021-03-28T11:26:42Z</time>
      </trkpt>
      <trkpt lat="42.73552" lon="2.67871">
        <ele>219.7</ele>
        <time>2021-03-28T11:26:42Z</time>
      </trkpt>
      <trkpt lat="42.7355" lon="2.6787">
        <ele>219.8</ele>
        <time>2021-03-28T11:26:43Z</time>
      </trkpt>
      <trkpt lat="42.7355" lon="2.6787">
        <ele>219.8</ele>
        <time>2021-03-28T11:26:43Z</time>
      </trkpt>
      <trkpt lat="42.73548" lon="2.67868">
        <ele>219.9</ele>
        <time>2021-03-28T11:26:45Z</time>
      </trkpt>
      <trkpt lat="42.73548" lon="2.67868">
        <ele>219.9</ele>
        <time>2021-03-28T11:26:45Z</time>
      </trkpt>
      <trkpt lat="42.73546" lon="2.67866">
        <ele>219.9</ele>
        <time>2021-03-28T11:26:46Z</time>
      </trkpt>
      <trkpt lat="42.73546" lon="2.67866">
        <ele>219.9</ele>
        <time>2021-03-28T11:26:46Z</time>
      </trkpt>
      <trkpt lat="42.73544" lon="2.67864">
        <ele>220</ele>
        <time>2021-03-28T11:26:48Z</time>
      </trkpt>
      <trkpt lat="42.73544" lon="2.67864">
        <ele>220</ele>
        <time>2021-03-28T11:26:48Z</time>
      </trkpt>
      <trkpt lat="42.73541" lon="2.67862">
        <ele>220.1</ele>
        <time>2021-03-28T11:26:50Z</time>
      </trkpt>
      <trkpt lat="42.73541" lon="2.67862">
        <ele>220.1</ele>
        <time>2021-03-28T11:26:50Z</time>
      </trkpt>
      <trkpt lat="42.73539" lon="2.6786">
        <ele>220.3</ele>
        <time>2021-03-28T11:26:52Z</time>
      </trkpt>
      <trkpt lat="42.73539" lon="2.6786">
        <ele>220.3</ele>
        <time>2021-03-28T11:26:52Z</time>
      </trkpt>
      <trkpt lat="42.73536" lon="2.67859">
        <ele>220.5</ele>
        <time>2021-03-28T11:26:53Z</time>
      </trkpt>
      <trkpt lat="42.73536" lon="2.67859">
        <ele>220.5</ele>
        <time>2021-03-28T11:26:53Z</time>
      </trkpt>
      <trkpt lat="42.73533" lon="2.67857">
        <ele>220.7</ele>
        <time>2021-03-28T11:26:55Z</time>
      </trkpt>
      <trkpt lat="42.73533" lon="2.67857">
        <ele>220.7</ele>
        <time>2021-03-28T11:26:55Z</time>
      </trkpt>
      <trkpt lat="42.7353" lon="2.67856">
        <ele>221</ele>
        <time>2021-03-28T11:26:56Z</time>
      </trkpt>
      <trkpt lat="42.7353" lon="2.67856">
        <ele>221</ele>
        <time>2021-03-28T11:26:56Z</time>
      </trkpt>
      <trkpt lat="42.73527" lon="2.67855">
        <ele>221.3</ele>
        <time>2021-03-28T11:26:58Z</time>
      </trkpt>
      <trkpt lat="42.73527" lon="2.67855">
        <ele>221.3</ele>
        <time>2021-03-28T11:26:58Z</time>
      </trkpt>
      <trkpt lat="42.73524" lon="2.67854">
        <ele>221.7</ele>
        <time>2021-03-28T11:27:00Z</time>
      </trkpt>
      <trkpt lat="42.73524" lon="2.67854">
        <ele>221.7</ele>
        <time>2021-03-28T11:27:00Z</time>
      </trkpt>
      <trkpt lat="42.7352" lon="2.67854">
        <ele>222</ele>
        <time>2021-03-28T11:27:02Z</time>
      </trkpt>
      <trkpt lat="42.7352" lon="2.67854">
        <ele>222</ele>
        <time>2021-03-28T11:27:02Z</time>
      </trkpt>
      <trkpt lat="42.73516" lon="2.67853">
        <ele>222.4</ele>
        <time>2021-03-28T11:27:04Z</time>
      </trkpt>
      <trkpt lat="42.73516" lon="2.67853">
        <ele>222.4</ele>
        <time>2021-03-28T11:27:04Z</time>
      </trkpt>
      <trkpt lat="42.73513" lon="2.67853">
        <ele>222.7</ele>
        <time>2021-03-28T11:27:06Z</time>
      </trkpt>
      <trkpt lat="42.73513" lon="2.67853">
        <ele>222.7</ele>
        <time>2021-03-28T11:27:06Z</time>
      </trkpt>
      <trkpt lat="42.7351" lon="2.67852">
        <ele>223</ele>
        <time>2021-03-28T11:27:08Z</time>
      </trkpt>
      <trkpt lat="42.7351" lon="2.67852">
        <ele>223</ele>
        <time>2021-03-28T11:27:08Z</time>
      </trkpt>
      <trkpt lat="42.73508" lon="2.67851">
        <ele>223.2</ele>
        <time>2021-03-28T11:27:09Z</time>
      </trkpt>
      <trkpt lat="42.73508" lon="2.67851">
        <ele>223.2</ele>
        <time>2021-03-28T11:27:09Z</time>
      </trkpt>
      <trkpt lat="42.73506" lon="2.67851">
        <ele>223.5</ele>
        <time>2021-03-28T11:27:11Z</time>
      </trkpt>
      <trkpt lat="42.73506" lon="2.67851">
        <ele>223.5</ele>
        <time>2021-03-28T11:27:11Z</time>
      </trkpt>
      <trkpt lat="42.73504" lon="2.6785">
        <ele>223.7</ele>
        <time>2021-03-28T11:27:12Z</time>
      </trkpt>
      <trkpt lat="42.73504" lon="2.6785">
        <ele>223.7</ele>
        <time>2021-03-28T11:27:12Z</time>
      </trkpt>
      <trkpt lat="42.73502" lon="2.6785">
        <ele>223.9</ele>
        <time>2021-03-28T11:27:13Z</time>
      </trkpt>
      <trkpt lat="42.73502" lon="2.6785">
        <ele>223.9</ele>
        <time>2021-03-28T11:27:13Z</time>
      </trkpt>
      <trkpt lat="42.73499" lon="2.6785">
        <ele>224</ele>
        <time>2021-03-28T11:27:14Z</time>
      </trkpt>
      <trkpt lat="42.73499" lon="2.6785">
        <ele>224</ele>
        <time>2021-03-28T11:27:14Z</time>
      </trkpt>
      <trkpt lat="42.73497" lon="2.6785">
        <ele>224.1</ele>
        <time>2021-03-28T11:27:16Z</time>
      </trkpt>
      <trkpt lat="42.73497" lon="2.6785">
        <ele>224.1</ele>
        <time>2021-03-28T11:27:16Z</time>
      </trkpt>
      <trkpt lat="42.73495" lon="2.6785">
        <ele>224.1</ele>
        <time>2021-03-28T11:27:17Z</time>
      </trkpt>
      <trkpt lat="42.73495" lon="2.6785">
        <ele>224.1</ele>
        <time>2021-03-28T11:27:17Z</time>
      </trkpt>
      <trkpt lat="42.73492" lon="2.67851">
        <ele>224.2</ele>
        <time>2021-03-28T11:27:19Z</time>
      </trkpt>
      <trkpt lat="42.73492" lon="2.67851">
        <ele>224.2</ele>
        <time>2021-03-28T11:27:19Z</time>
      </trkpt>
      <trkpt lat="42.7349" lon="2.67851">
        <ele>224.2</ele>
        <time>2021-03-28T11:27:21Z</time>
      </trkpt>
      <trkpt lat="42.7349" lon="2.67851">
        <ele>224.2</ele>
        <time>2021-03-28T11:27:21Z</time>
      </trkpt>
      <trkpt lat="42.73488" lon="2.67851">
        <ele>224.3</ele>
        <time>2021-03-28T11:27:23Z</time>
      </trkpt>
      <trkpt lat="42.73488" lon="2.67851">
        <ele>224.3</ele>
        <time>2021-03-28T11:27:23Z</time>
      </trkpt>
      <trkpt lat="42.73486" lon="2.67851">
        <ele>224.3</ele>
        <time>2021-03-28T11:27:24Z</time>
      </trkpt>
      <trkpt lat="42.73486" lon="2.67851">
        <ele>224.3</ele>
        <time>2021-03-28T11:27:24Z</time>
      </trkpt>
      <trkpt lat="42.73462" lon="2.67857">
        <ele>224.8</ele>
        <time>2021-03-28T11:28:45Z</time>
      </trkpt>
      <trkpt lat="42.73462" lon="2.67857">
        <ele>224.8</ele>
        <time>2021-03-28T11:28:45Z</time>
      </trkpt>
      <trkpt lat="42.73461" lon="2.67857">
        <ele>224.8</ele>
        <time>2021-03-28T11:28:46Z</time>
      </trkpt>
      <trkpt lat="42.73461" lon="2.67857">
        <ele>224.8</ele>
        <time>2021-03-28T11:28:46Z</time>
      </trkpt>
      <trkpt lat="42.73459" lon="2.67857">
        <ele>224.8</ele>
        <time>2021-03-28T11:28:47Z</time>
      </trkpt>
      <trkpt lat="42.73459" lon="2.67857">
        <ele>224.8</ele>
        <time>2021-03-28T11:28:47Z</time>
      </trkpt>
      <trkpt lat="42.73455" lon="2.67857">
        <ele>224.8</ele>
        <time>2021-03-28T11:28:49Z</time>
      </trkpt>
      <trkpt lat="42.73455" lon="2.67857">
        <ele>224.8</ele>
        <time>2021-03-28T11:28:49Z</time>
      </trkpt>
      <trkpt lat="42.73449" lon="2.67858">
        <ele>224.8</ele>
        <time>2021-03-28T11:28:51Z</time>
      </trkpt>
      <trkpt lat="42.73449" lon="2.67858">
        <ele>224.8</ele>
        <time>2021-03-28T11:28:51Z</time>
      </trkpt>
      <trkpt lat="42.73444" lon="2.67858">
        <ele>224.7</ele>
        <time>2021-03-28T11:28:52Z</time>
      </trkpt>
      <trkpt lat="42.73444" lon="2.67858">
        <ele>224.7</ele>
        <time>2021-03-28T11:28:52Z</time>
      </trkpt>
      <trkpt lat="42.73438" lon="2.67858">
        <ele>224.3</ele>
        <time>2021-03-28T11:28:53Z</time>
      </trkpt>
      <trkpt lat="42.73438" lon="2.67858">
        <ele>224.3</ele>
        <time>2021-03-28T11:28:53Z</time>
      </trkpt>
      <trkpt lat="42.73431" lon="2.67856">
        <ele>223.6</ele>
        <time>2021-03-28T11:28:55Z</time>
      </trkpt>
      <trkpt lat="42.73431" lon="2.67856">
        <ele>223.6</ele>
        <time>2021-03-28T11:28:55Z</time>
      </trkpt>
      <trkpt lat="42.73424" lon="2.67854">
        <ele>223</ele>
        <time>2021-03-28T11:28:56Z</time>
      </trkpt>
      <trkpt lat="42.73424" lon="2.67854">
        <ele>223</ele>
        <time>2021-03-28T11:28:56Z</time>
      </trkpt>
      <trkpt lat="42.73416" lon="2.67851">
        <ele>222.3</ele>
        <time>2021-03-28T11:28:57Z</time>
      </trkpt>
      <trkpt lat="42.73416" lon="2.67851">
        <ele>222.3</ele>
        <time>2021-03-28T11:28:57Z</time>
      </trkpt>
      <trkpt lat="42.73406" lon="2.67849">
        <ele>221.7</ele>
        <time>2021-03-28T11:28:59Z</time>
      </trkpt>
      <trkpt lat="42.73406" lon="2.67849">
        <ele>221.7</ele>
        <time>2021-03-28T11:28:59Z</time>
      </trkpt>
      <trkpt lat="42.73394" lon="2.67844">
        <ele>220.9</ele>
        <time>2021-03-28T11:29:01Z</time>
      </trkpt>
      <trkpt lat="42.73394" lon="2.67844">
        <ele>220.9</ele>
        <time>2021-03-28T11:29:01Z</time>
      </trkpt>
      <trkpt lat="42.73385" lon="2.67839">
        <ele>220.8</ele>
        <time>2021-03-28T11:29:02Z</time>
      </trkpt>
      <trkpt lat="42.73385" lon="2.67839">
        <ele>220.8</ele>
        <time>2021-03-28T11:29:02Z</time>
      </trkpt>
      <trkpt lat="42.73376" lon="2.67833">
        <ele>221.4</ele>
        <time>2021-03-28T11:29:04Z</time>
      </trkpt>
      <trkpt lat="42.73376" lon="2.67833">
        <ele>221.4</ele>
        <time>2021-03-28T11:29:04Z</time>
      </trkpt>
      <trkpt lat="42.73369" lon="2.67828">
        <ele>222.4</ele>
        <time>2021-03-28T11:29:05Z</time>
      </trkpt>
      <trkpt lat="42.73369" lon="2.67828">
        <ele>222.4</ele>
        <time>2021-03-28T11:29:05Z</time>
      </trkpt>
      <trkpt lat="42.73361" lon="2.67823">
        <ele>223.4</ele>
        <time>2021-03-28T11:29:07Z</time>
      </trkpt>
      <trkpt lat="42.73361" lon="2.67823">
        <ele>223.4</ele>
        <time>2021-03-28T11:29:07Z</time>
      </trkpt>
      <trkpt lat="42.73354" lon="2.67818">
        <ele>224.3</ele>
        <time>2021-03-28T11:29:09Z</time>
      </trkpt>
      <trkpt lat="42.73354" lon="2.67818">
        <ele>224.3</ele>
        <time>2021-03-28T11:29:09Z</time>
      </trkpt>
      <trkpt lat="42.73348" lon="2.67815">
        <ele>224.9</ele>
        <time>2021-03-28T11:29:10Z</time>
      </trkpt>
      <trkpt lat="42.73348" lon="2.67815">
        <ele>224.9</ele>
        <time>2021-03-28T11:29:10Z</time>
      </trkpt>
      <trkpt lat="42.73342" lon="2.67811">
        <ele>225.5</ele>
        <time>2021-03-28T11:29:12Z</time>
      </trkpt>
      <trkpt lat="42.73342" lon="2.67811">
        <ele>225.5</ele>
        <time>2021-03-28T11:29:12Z</time>
      </trkpt>
      <trkpt lat="42.73337" lon="2.67809">
        <ele>225.9</ele>
        <time>2021-03-28T11:29:13Z</time>
      </trkpt>
      <trkpt lat="42.73337" lon="2.67809">
        <ele>225.9</ele>
        <time>2021-03-28T11:29:13Z</time>
      </trkpt>
      <trkpt lat="42.7333" lon="2.67808">
        <ele>225.9</ele>
        <time>2021-03-28T11:29:15Z</time>
      </trkpt>
      <trkpt lat="42.7333" lon="2.67808">
        <ele>225.9</ele>
        <time>2021-03-28T11:29:15Z</time>
      </trkpt>
      <trkpt lat="42.73325" lon="2.67808">
        <ele>225.5</ele>
        <time>2021-03-28T11:29:16Z</time>
      </trkpt>
      <trkpt lat="42.73325" lon="2.67808">
        <ele>225.5</ele>
        <time>2021-03-28T11:29:16Z</time>
      </trkpt>
      <trkpt lat="42.73318" lon="2.67809">
        <ele>225.2</ele>
        <time>2021-03-28T11:29:18Z</time>
      </trkpt>
      <trkpt lat="42.73318" lon="2.67809">
        <ele>225.2</ele>
        <time>2021-03-28T11:29:18Z</time>
      </trkpt>
      <trkpt lat="42.73313" lon="2.6781">
        <ele>224.9</ele>
        <time>2021-03-28T11:29:19Z</time>
      </trkpt>
      <trkpt lat="42.73313" lon="2.6781">
        <ele>224.9</ele>
        <time>2021-03-28T11:29:19Z</time>
      </trkpt>
      <trkpt lat="42.73307" lon="2.67812">
        <ele>224.8</ele>
        <time>2021-03-28T11:29:20Z</time>
      </trkpt>
      <trkpt lat="42.73307" lon="2.67812">
        <ele>224.8</ele>
        <time>2021-03-28T11:29:20Z</time>
      </trkpt>
      <trkpt lat="42.73301" lon="2.67815">
        <ele>224.3</ele>
        <time>2021-03-28T11:29:21Z</time>
      </trkpt>
      <trkpt lat="42.73301" lon="2.67815">
        <ele>224.3</ele>
        <time>2021-03-28T11:29:21Z</time>
      </trkpt>
      <trkpt lat="42.73297" lon="2.67818">
        <ele>224</ele>
        <time>2021-03-28T11:29:23Z</time>
      </trkpt>
      <trkpt lat="42.73297" lon="2.67818">
        <ele>224</ele>
        <time>2021-03-28T11:29:23Z</time>
      </trkpt>
      <trkpt lat="42.73294" lon="2.6782">
        <ele>223.9</ele>
        <time>2021-03-28T11:29:24Z</time>
      </trkpt>
      <trkpt lat="42.73294" lon="2.6782">
        <ele>223.9</ele>
        <time>2021-03-28T11:29:24Z</time>
      </trkpt>
      <trkpt lat="42.7329" lon="2.67825">
        <ele>223.9</ele>
        <time>2021-03-28T11:29:26Z</time>
      </trkpt>
      <trkpt lat="42.7329" lon="2.67825">
        <ele>223.9</ele>
        <time>2021-03-28T11:29:26Z</time>
      </trkpt>
      <trkpt lat="42.73286" lon="2.67831">
        <ele>224</ele>
        <time>2021-03-28T11:29:28Z</time>
      </trkpt>
      <trkpt lat="42.73286" lon="2.67831">
        <ele>224</ele>
        <time>2021-03-28T11:29:28Z</time>
      </trkpt>
      <trkpt lat="42.73282" lon="2.67838">
        <ele>224.1</ele>
        <time>2021-03-28T11:29:30Z</time>
      </trkpt>
      <trkpt lat="42.73282" lon="2.67838">
        <ele>224.1</ele>
        <time>2021-03-28T11:29:30Z</time>
      </trkpt>
      <trkpt lat="42.73278" lon="2.67844">
        <ele>224.2</ele>
        <time>2021-03-28T11:29:32Z</time>
      </trkpt>
      <trkpt lat="42.73278" lon="2.67844">
        <ele>224.2</ele>
        <time>2021-03-28T11:29:32Z</time>
      </trkpt>
      <trkpt lat="42.73274" lon="2.6785">
        <ele>224.3</ele>
        <time>2021-03-28T11:29:33Z</time>
      </trkpt>
      <trkpt lat="42.73274" lon="2.6785">
        <ele>224.3</ele>
        <time>2021-03-28T11:29:33Z</time>
      </trkpt>
      <trkpt lat="42.7327" lon="2.67855">
        <ele>224.2</ele>
        <time>2021-03-28T11:29:35Z</time>
      </trkpt>
      <trkpt lat="42.7327" lon="2.67855">
        <ele>224.2</ele>
        <time>2021-03-28T11:29:35Z</time>
      </trkpt>
      <trkpt lat="42.73265" lon="2.67861">
        <ele>224.2</ele>
        <time>2021-03-28T11:29:37Z</time>
      </trkpt>
      <trkpt lat="42.73265" lon="2.67861">
        <ele>224.2</ele>
        <time>2021-03-28T11:29:37Z</time>
      </trkpt>
      <trkpt lat="42.7326" lon="2.67867">
        <ele>224.3</ele>
        <time>2021-03-28T11:29:39Z</time>
      </trkpt>
      <trkpt lat="42.7326" lon="2.67867">
        <ele>224.3</ele>
        <time>2021-03-28T11:29:39Z</time>
      </trkpt>
      <trkpt lat="42.73254" lon="2.67874">
        <ele>224.7</ele>
        <time>2021-03-28T11:29:41Z</time>
      </trkpt>
      <trkpt lat="42.73254" lon="2.67874">
        <ele>224.7</ele>
        <time>2021-03-28T11:29:41Z</time>
      </trkpt>
      <trkpt lat="42.73248" lon="2.6788">
        <ele>225.3</ele>
        <time>2021-03-28T11:29:43Z</time>
      </trkpt>
      <trkpt lat="42.73248" lon="2.6788">
        <ele>225.3</ele>
        <time>2021-03-28T11:29:43Z</time>
      </trkpt>
      <trkpt lat="42.73242" lon="2.67885">
        <ele>225.6</ele>
        <time>2021-03-28T11:29:44Z</time>
      </trkpt>
      <trkpt lat="42.73242" lon="2.67885">
        <ele>225.6</ele>
        <time>2021-03-28T11:29:44Z</time>
      </trkpt>
      <trkpt lat="42.73236" lon="2.67891">
        <ele>225.6</ele>
        <time>2021-03-28T11:29:46Z</time>
      </trkpt>
      <trkpt lat="42.73236" lon="2.67891">
        <ele>225.6</ele>
        <time>2021-03-28T11:29:46Z</time>
      </trkpt>
      <trkpt lat="42.7323" lon="2.67896">
        <ele>225.5</ele>
        <time>2021-03-28T11:29:48Z</time>
      </trkpt>
      <trkpt lat="42.7323" lon="2.67896">
        <ele>225.5</ele>
        <time>2021-03-28T11:29:48Z</time>
      </trkpt>
      <trkpt lat="42.73224" lon="2.67902">
        <ele>225.5</ele>
        <time>2021-03-28T11:29:50Z</time>
      </trkpt>
      <trkpt lat="42.73224" lon="2.67902">
        <ele>225.5</ele>
        <time>2021-03-28T11:29:50Z</time>
      </trkpt>
      <trkpt lat="42.73218" lon="2.67908">
        <ele>225.9</ele>
        <time>2021-03-28T11:29:52Z</time>
      </trkpt>
      <trkpt lat="42.73218" lon="2.67908">
        <ele>225.9</ele>
        <time>2021-03-28T11:29:52Z</time>
      </trkpt>
      <trkpt lat="42.73213" lon="2.67914">
        <ele>226.1</ele>
        <time>2021-03-28T11:29:53Z</time>
      </trkpt>
      <trkpt lat="42.73213" lon="2.67914">
        <ele>226.1</ele>
        <time>2021-03-28T11:29:53Z</time>
      </trkpt>
      <trkpt lat="42.73208" lon="2.67919">
        <ele>226.1</ele>
        <time>2021-03-28T11:29:55Z</time>
      </trkpt>
      <trkpt lat="42.73208" lon="2.67919">
        <ele>226.1</ele>
        <time>2021-03-28T11:29:55Z</time>
      </trkpt>
      <trkpt lat="42.73203" lon="2.67924">
        <ele>226.1</ele>
        <time>2021-03-28T11:29:57Z</time>
      </trkpt>
      <trkpt lat="42.73203" lon="2.67924">
        <ele>226.1</ele>
        <time>2021-03-28T11:29:57Z</time>
      </trkpt>
      <trkpt lat="42.73197" lon="2.67925">
        <ele>225.8</ele>
        <time>2021-03-28T11:29:59Z</time>
      </trkpt>
      <trkpt lat="42.73197" lon="2.67925">
        <ele>225.8</ele>
        <time>2021-03-28T11:29:59Z</time>
      </trkpt>
      <trkpt lat="42.73191" lon="2.67924">
        <ele>226.1</ele>
        <time>2021-03-28T11:30:01Z</time>
      </trkpt>
      <trkpt lat="42.73191" lon="2.67924">
        <ele>226.1</ele>
        <time>2021-03-28T11:30:01Z</time>
      </trkpt>
      <trkpt lat="42.73186" lon="2.67921">
        <ele>226.7</ele>
        <time>2021-03-28T11:30:03Z</time>
      </trkpt>
      <trkpt lat="42.73186" lon="2.67921">
        <ele>226.7</ele>
        <time>2021-03-28T11:30:03Z</time>
      </trkpt>
      <trkpt lat="42.73182" lon="2.67918">
        <ele>227.3</ele>
        <time>2021-03-28T11:30:04Z</time>
      </trkpt>
      <trkpt lat="42.73182" lon="2.67918">
        <ele>227.3</ele>
        <time>2021-03-28T11:30:04Z</time>
      </trkpt>
      <trkpt lat="42.73179" lon="2.67913">
        <ele>227.8</ele>
        <time>2021-03-28T11:30:06Z</time>
      </trkpt>
      <trkpt lat="42.73179" lon="2.67913">
        <ele>227.8</ele>
        <time>2021-03-28T11:30:06Z</time>
      </trkpt>
      <trkpt lat="42.73176" lon="2.67907">
        <ele>228.4</ele>
        <time>2021-03-28T11:30:08Z</time>
      </trkpt>
      <trkpt lat="42.73176" lon="2.67907">
        <ele>228.4</ele>
        <time>2021-03-28T11:30:08Z</time>
      </trkpt>
      <trkpt lat="42.73173" lon="2.67901">
        <ele>229</ele>
        <time>2021-03-28T11:30:10Z</time>
      </trkpt>
      <trkpt lat="42.73173" lon="2.67901">
        <ele>229</ele>
        <time>2021-03-28T11:30:10Z</time>
      </trkpt>
      <trkpt lat="42.7317" lon="2.67896">
        <ele>229.4</ele>
        <time>2021-03-28T11:30:11Z</time>
      </trkpt>
      <trkpt lat="42.7317" lon="2.67896">
        <ele>229.4</ele>
        <time>2021-03-28T11:30:11Z</time>
      </trkpt>
      <trkpt lat="42.73168" lon="2.67892">
        <ele>229.8</ele>
        <time>2021-03-28T11:30:12Z</time>
      </trkpt>
      <trkpt lat="42.73168" lon="2.67892">
        <ele>229.8</ele>
        <time>2021-03-28T11:30:12Z</time>
      </trkpt>
      <trkpt lat="42.73165" lon="2.67888">
        <ele>230.3</ele>
        <time>2021-03-28T11:30:14Z</time>
      </trkpt>
      <trkpt lat="42.73165" lon="2.67888">
        <ele>230.3</ele>
        <time>2021-03-28T11:30:14Z</time>
      </trkpt>
      <trkpt lat="42.73161" lon="2.67884">
        <ele>230.9</ele>
        <time>2021-03-28T11:30:16Z</time>
      </trkpt>
      <trkpt lat="42.73161" lon="2.67884">
        <ele>230.9</ele>
        <time>2021-03-28T11:30:16Z</time>
      </trkpt>
      <trkpt lat="42.73158" lon="2.6788">
        <ele>231.3</ele>
        <time>2021-03-28T11:30:17Z</time>
      </trkpt>
      <trkpt lat="42.73158" lon="2.6788">
        <ele>231.3</ele>
        <time>2021-03-28T11:30:17Z</time>
      </trkpt>
      <trkpt lat="42.73155" lon="2.67875">
        <ele>231.7</ele>
        <time>2021-03-28T11:30:19Z</time>
      </trkpt>
      <trkpt lat="42.73155" lon="2.67875">
        <ele>231.7</ele>
        <time>2021-03-28T11:30:19Z</time>
      </trkpt>
      <trkpt lat="42.73151" lon="2.6787">
        <ele>232</ele>
        <time>2021-03-28T11:30:21Z</time>
      </trkpt>
      <trkpt lat="42.73151" lon="2.6787">
        <ele>232</ele>
        <time>2021-03-28T11:30:21Z</time>
      </trkpt>
      <trkpt lat="42.73148" lon="2.67864">
        <ele>232.2</ele>
        <time>2021-03-28T11:30:23Z</time>
      </trkpt>
      <trkpt lat="42.73148" lon="2.67864">
        <ele>232.2</ele>
        <time>2021-03-28T11:30:23Z</time>
      </trkpt>
      <trkpt lat="42.73145" lon="2.6786">
        <ele>232.3</ele>
        <time>2021-03-28T11:30:24Z</time>
      </trkpt>
      <trkpt lat="42.73145" lon="2.6786">
        <ele>232.3</ele>
        <time>2021-03-28T11:30:24Z</time>
      </trkpt>
      <trkpt lat="42.73142" lon="2.67857">
        <ele>232.3</ele>
        <time>2021-03-28T11:30:25Z</time>
      </trkpt>
      <trkpt lat="42.73142" lon="2.67857">
        <ele>232.3</ele>
        <time>2021-03-28T11:30:25Z</time>
      </trkpt>
      <trkpt lat="42.73139" lon="2.67852">
        <ele>232.4</ele>
        <time>2021-03-28T11:30:27Z</time>
      </trkpt>
      <trkpt lat="42.73139" lon="2.67852">
        <ele>232.4</ele>
        <time>2021-03-28T11:30:27Z</time>
      </trkpt>
      <trkpt lat="42.73135" lon="2.67847">
        <ele>232.8</ele>
        <time>2021-03-28T11:30:29Z</time>
      </trkpt>
      <trkpt lat="42.73135" lon="2.67847">
        <ele>232.8</ele>
        <time>2021-03-28T11:30:29Z</time>
      </trkpt>
      <trkpt lat="42.73132" lon="2.67843">
        <ele>233.1</ele>
        <time>2021-03-28T11:30:30Z</time>
      </trkpt>
      <trkpt lat="42.73132" lon="2.67843">
        <ele>233.1</ele>
        <time>2021-03-28T11:30:30Z</time>
      </trkpt>
      <trkpt lat="42.73129" lon="2.67839">
        <ele>233.5</ele>
        <time>2021-03-28T11:30:32Z</time>
      </trkpt>
      <trkpt lat="42.73129" lon="2.67839">
        <ele>233.5</ele>
        <time>2021-03-28T11:30:32Z</time>
      </trkpt>
      <trkpt lat="42.73125" lon="2.67834">
        <ele>234</ele>
        <time>2021-03-28T11:30:34Z</time>
      </trkpt>
      <trkpt lat="42.73125" lon="2.67834">
        <ele>234</ele>
        <time>2021-03-28T11:30:34Z</time>
      </trkpt>
      <trkpt lat="42.73121" lon="2.67829">
        <ele>234.3</ele>
        <time>2021-03-28T11:30:36Z</time>
      </trkpt>
      <trkpt lat="42.73121" lon="2.67829">
        <ele>234.3</ele>
        <time>2021-03-28T11:30:36Z</time>
      </trkpt>
      <trkpt lat="42.73117" lon="2.67824">
        <ele>234.6</ele>
        <time>2021-03-28T11:30:38Z</time>
      </trkpt>
      <trkpt lat="42.73117" lon="2.67824">
        <ele>234.6</ele>
        <time>2021-03-28T11:30:38Z</time>
      </trkpt>
      <trkpt lat="42.73113" lon="2.67818">
        <ele>234.9</ele>
        <time>2021-03-28T11:30:40Z</time>
      </trkpt>
      <trkpt lat="42.73113" lon="2.67818">
        <ele>234.9</ele>
        <time>2021-03-28T11:30:40Z</time>
      </trkpt>
      <trkpt lat="42.7311" lon="2.67812">
        <ele>234.9</ele>
        <time>2021-03-28T11:30:42Z</time>
      </trkpt>
      <trkpt lat="42.7311" lon="2.67812">
        <ele>234.9</ele>
        <time>2021-03-28T11:30:42Z</time>
      </trkpt>
      <trkpt lat="42.73106" lon="2.67805">
        <ele>234.7</ele>
        <time>2021-03-28T11:30:44Z</time>
      </trkpt>
      <trkpt lat="42.73106" lon="2.67805">
        <ele>234.7</ele>
        <time>2021-03-28T11:30:44Z</time>
      </trkpt>
      <trkpt lat="42.73102" lon="2.67799">
        <ele>234.7</ele>
        <time>2021-03-28T11:30:46Z</time>
      </trkpt>
      <trkpt lat="42.73102" lon="2.67799">
        <ele>234.7</ele>
        <time>2021-03-28T11:30:46Z</time>
      </trkpt>
      <trkpt lat="42.73099" lon="2.67794">
        <ele>234.6</ele>
        <time>2021-03-28T11:30:47Z</time>
      </trkpt>
      <trkpt lat="42.73099" lon="2.67794">
        <ele>234.6</ele>
        <time>2021-03-28T11:30:47Z</time>
      </trkpt>
      <trkpt lat="42.73095" lon="2.6779">
        <ele>234.6</ele>
        <time>2021-03-28T11:30:48Z</time>
      </trkpt>
      <trkpt lat="42.73095" lon="2.6779">
        <ele>234.6</ele>
        <time>2021-03-28T11:30:48Z</time>
      </trkpt>
      <trkpt lat="42.73092" lon="2.67786">
        <ele>234.5</ele>
        <time>2021-03-28T11:30:49Z</time>
      </trkpt>
      <trkpt lat="42.73092" lon="2.67786">
        <ele>234.5</ele>
        <time>2021-03-28T11:30:49Z</time>
      </trkpt>
      <trkpt lat="42.73089" lon="2.67781">
        <ele>234.5</ele>
        <time>2021-03-28T11:30:51Z</time>
      </trkpt>
      <trkpt lat="42.73089" lon="2.67781">
        <ele>234.5</ele>
        <time>2021-03-28T11:30:51Z</time>
      </trkpt>
      <trkpt lat="42.73086" lon="2.67775">
        <ele>234.6</ele>
        <time>2021-03-28T11:30:53Z</time>
      </trkpt>
      <trkpt lat="42.73086" lon="2.67775">
        <ele>234.6</ele>
        <time>2021-03-28T11:30:53Z</time>
      </trkpt>
      <trkpt lat="42.73084" lon="2.6777">
        <ele>234.9</ele>
        <time>2021-03-28T11:30:54Z</time>
      </trkpt>
      <trkpt lat="42.73084" lon="2.6777">
        <ele>234.9</ele>
        <time>2021-03-28T11:30:54Z</time>
      </trkpt>
      <trkpt lat="42.73082" lon="2.67766">
        <ele>235.1</ele>
        <time>2021-03-28T11:30:55Z</time>
      </trkpt>
      <trkpt lat="42.73082" lon="2.67766">
        <ele>235.1</ele>
        <time>2021-03-28T11:30:55Z</time>
      </trkpt>
      <trkpt lat="42.73081" lon="2.67762">
        <ele>235.2</ele>
        <time>2021-03-28T11:30:56Z</time>
      </trkpt>
      <trkpt lat="42.73081" lon="2.67762">
        <ele>235.2</ele>
        <time>2021-03-28T11:30:56Z</time>
      </trkpt>
      <trkpt lat="42.7308" lon="2.67758">
        <ele>235.4</ele>
        <time>2021-03-28T11:30:57Z</time>
      </trkpt>
      <trkpt lat="42.7308" lon="2.67758">
        <ele>235.4</ele>
        <time>2021-03-28T11:30:57Z</time>
      </trkpt>
      <trkpt lat="42.7308" lon="2.67753">
        <ele>235.5</ele>
        <time>2021-03-28T11:30:59Z</time>
      </trkpt>
      <trkpt lat="42.7308" lon="2.67753">
        <ele>235.5</ele>
        <time>2021-03-28T11:30:59Z</time>
      </trkpt>
      <trkpt lat="42.7308" lon="2.67747">
        <ele>235.9</ele>
        <time>2021-03-28T11:31:01Z</time>
      </trkpt>
      <trkpt lat="42.7308" lon="2.67747">
        <ele>235.9</ele>
        <time>2021-03-28T11:31:01Z</time>
      </trkpt>
      <trkpt lat="42.7308" lon="2.67742">
        <ele>236.5</ele>
        <time>2021-03-28T11:31:02Z</time>
      </trkpt>
      <trkpt lat="42.7308" lon="2.67742">
        <ele>236.5</ele>
        <time>2021-03-28T11:31:02Z</time>
      </trkpt>
      <trkpt lat="42.7308" lon="2.67737">
        <ele>236.9</ele>
        <time>2021-03-28T11:31:03Z</time>
      </trkpt>
      <trkpt lat="42.7308" lon="2.67737">
        <ele>236.9</ele>
        <time>2021-03-28T11:31:03Z</time>
      </trkpt>
      <trkpt lat="42.7308" lon="2.67733">
        <ele>237.2</ele>
        <time>2021-03-28T11:31:04Z</time>
      </trkpt>
      <trkpt lat="42.7308" lon="2.67733">
        <ele>237.2</ele>
        <time>2021-03-28T11:31:04Z</time>
      </trkpt>
      <trkpt lat="42.73081" lon="2.67728">
        <ele>237.7</ele>
        <time>2021-03-28T11:31:06Z</time>
      </trkpt>
      <trkpt lat="42.73081" lon="2.67728">
        <ele>237.7</ele>
        <time>2021-03-28T11:31:06Z</time>
      </trkpt>
      <trkpt lat="42.73082" lon="2.67723">
        <ele>238.1</ele>
        <time>2021-03-28T11:31:08Z</time>
      </trkpt>
      <trkpt lat="42.73082" lon="2.67723">
        <ele>238.1</ele>
        <time>2021-03-28T11:31:08Z</time>
      </trkpt>
      <trkpt lat="42.73083" lon="2.67718">
        <ele>238.4</ele>
        <time>2021-03-28T11:31:09Z</time>
      </trkpt>
      <trkpt lat="42.73083" lon="2.67718">
        <ele>238.4</ele>
        <time>2021-03-28T11:31:09Z</time>
      </trkpt>
      <trkpt lat="42.73083" lon="2.67713">
        <ele>238.6</ele>
        <time>2021-03-28T11:31:11Z</time>
      </trkpt>
      <trkpt lat="42.73083" lon="2.67713">
        <ele>238.6</ele>
        <time>2021-03-28T11:31:11Z</time>
      </trkpt>
      <trkpt lat="42.73085" lon="2.67709">
        <ele>238.9</ele>
        <time>2021-03-28T11:31:13Z</time>
      </trkpt>
      <trkpt lat="42.73085" lon="2.67709">
        <ele>238.9</ele>
        <time>2021-03-28T11:31:13Z</time>
      </trkpt>
      <trkpt lat="42.73085" lon="2.67706">
        <ele>239</ele>
        <time>2021-03-28T11:31:14Z</time>
      </trkpt>
      <trkpt lat="42.73085" lon="2.67706">
        <ele>239</ele>
        <time>2021-03-28T11:31:14Z</time>
      </trkpt>
      <trkpt lat="42.73086" lon="2.67702">
        <ele>239.2</ele>
        <time>2021-03-28T11:31:16Z</time>
      </trkpt>
      <trkpt lat="42.73086" lon="2.67702">
        <ele>239.2</ele>
        <time>2021-03-28T11:31:16Z</time>
      </trkpt>
      <trkpt lat="42.73087" lon="2.67697">
        <ele>239.5</ele>
        <time>2021-03-28T11:31:18Z</time>
      </trkpt>
      <trkpt lat="42.73087" lon="2.67697">
        <ele>239.5</ele>
        <time>2021-03-28T11:31:18Z</time>
      </trkpt>
      <trkpt lat="42.73087" lon="2.67693">
        <ele>239.6</ele>
        <time>2021-03-28T11:31:19Z</time>
      </trkpt>
      <trkpt lat="42.73087" lon="2.67693">
        <ele>239.6</ele>
        <time>2021-03-28T11:31:19Z</time>
      </trkpt>
      <trkpt lat="42.73088" lon="2.67688">
        <ele>239.7</ele>
        <time>2021-03-28T11:31:21Z</time>
      </trkpt>
      <trkpt lat="42.73088" lon="2.67688">
        <ele>239.7</ele>
        <time>2021-03-28T11:31:21Z</time>
      </trkpt>
      <trkpt lat="42.73089" lon="2.67683">
        <ele>239.8</ele>
        <time>2021-03-28T11:31:23Z</time>
      </trkpt>
      <trkpt lat="42.73089" lon="2.67683">
        <ele>239.8</ele>
        <time>2021-03-28T11:31:23Z</time>
      </trkpt>
      <trkpt lat="42.7309" lon="2.67678">
        <ele>239.9</ele>
        <time>2021-03-28T11:31:24Z</time>
      </trkpt>
      <trkpt lat="42.7309" lon="2.67678">
        <ele>239.9</ele>
        <time>2021-03-28T11:31:24Z</time>
      </trkpt>
      <trkpt lat="42.73091" lon="2.67675">
        <ele>239.9</ele>
        <time>2021-03-28T11:31:25Z</time>
      </trkpt>
      <trkpt lat="42.73091" lon="2.67675">
        <ele>239.9</ele>
        <time>2021-03-28T11:31:25Z</time>
      </trkpt>
      <trkpt lat="42.73091" lon="2.6767">
        <ele>240</ele>
        <time>2021-03-28T11:31:27Z</time>
      </trkpt>
      <trkpt lat="42.73091" lon="2.6767">
        <ele>240</ele>
        <time>2021-03-28T11:31:27Z</time>
      </trkpt>
      <trkpt lat="42.73092" lon="2.67665">
        <ele>240.2</ele>
        <time>2021-03-28T11:31:29Z</time>
      </trkpt>
      <trkpt lat="42.73092" lon="2.67665">
        <ele>240.2</ele>
        <time>2021-03-28T11:31:29Z</time>
      </trkpt>
      <trkpt lat="42.73092" lon="2.67661">
        <ele>240.4</ele>
        <time>2021-03-28T11:31:30Z</time>
      </trkpt>
      <trkpt lat="42.73092" lon="2.67661">
        <ele>240.4</ele>
        <time>2021-03-28T11:31:30Z</time>
      </trkpt>
      <trkpt lat="42.73093" lon="2.67658">
        <ele>240.6</ele>
        <time>2021-03-28T11:31:31Z</time>
      </trkpt>
      <trkpt lat="42.73093" lon="2.67658">
        <ele>240.6</ele>
        <time>2021-03-28T11:31:31Z</time>
      </trkpt>
      <trkpt lat="42.73094" lon="2.67654">
        <ele>240.8</ele>
        <time>2021-03-28T11:31:32Z</time>
      </trkpt>
      <trkpt lat="42.73094" lon="2.67654">
        <ele>240.8</ele>
        <time>2021-03-28T11:31:32Z</time>
      </trkpt>
      <trkpt lat="42.73094" lon="2.6765">
        <ele>241</ele>
        <time>2021-03-28T11:31:34Z</time>
      </trkpt>
      <trkpt lat="42.73094" lon="2.6765">
        <ele>241</ele>
        <time>2021-03-28T11:31:34Z</time>
      </trkpt>
      <trkpt lat="42.73095" lon="2.67645">
        <ele>241.3</ele>
        <time>2021-03-28T11:31:36Z</time>
      </trkpt>
      <trkpt lat="42.73095" lon="2.67645">
        <ele>241.3</ele>
        <time>2021-03-28T11:31:36Z</time>
      </trkpt>
      <trkpt lat="42.73096" lon="2.6764">
        <ele>241.6</ele>
        <time>2021-03-28T11:31:38Z</time>
      </trkpt>
      <trkpt lat="42.73096" lon="2.6764">
        <ele>241.6</ele>
        <time>2021-03-28T11:31:38Z</time>
      </trkpt>
      <trkpt lat="42.73097" lon="2.67635">
        <ele>241.9</ele>
        <time>2021-03-28T11:31:40Z</time>
      </trkpt>
      <trkpt lat="42.73097" lon="2.67635">
        <ele>241.9</ele>
        <time>2021-03-28T11:31:40Z</time>
      </trkpt>
      <trkpt lat="42.73097" lon="2.67629">
        <ele>242.2</ele>
        <time>2021-03-28T11:31:42Z</time>
      </trkpt>
      <trkpt lat="42.73097" lon="2.67629">
        <ele>242.2</ele>
        <time>2021-03-28T11:31:42Z</time>
      </trkpt>
      <trkpt lat="42.73098" lon="2.67623">
        <ele>242.6</ele>
        <time>2021-03-28T11:31:44Z</time>
      </trkpt>
      <trkpt lat="42.73098" lon="2.67623">
        <ele>242.6</ele>
        <time>2021-03-28T11:31:44Z</time>
      </trkpt>
      <trkpt lat="42.73098" lon="2.67618">
        <ele>242.9</ele>
        <time>2021-03-28T11:31:45Z</time>
      </trkpt>
      <trkpt lat="42.73098" lon="2.67618">
        <ele>242.9</ele>
        <time>2021-03-28T11:31:45Z</time>
      </trkpt>
      <trkpt lat="42.73098" lon="2.67613">
        <ele>243.2</ele>
        <time>2021-03-28T11:31:47Z</time>
      </trkpt>
      <trkpt lat="42.73098" lon="2.67613">
        <ele>243.2</ele>
        <time>2021-03-28T11:31:47Z</time>
      </trkpt>
      <trkpt lat="42.73099" lon="2.67608">
        <ele>243.5</ele>
        <time>2021-03-28T11:31:49Z</time>
      </trkpt>
      <trkpt lat="42.73099" lon="2.67608">
        <ele>243.5</ele>
        <time>2021-03-28T11:31:49Z</time>
      </trkpt>
      <trkpt lat="42.73099" lon="2.67602">
        <ele>243.8</ele>
        <time>2021-03-28T11:31:51Z</time>
      </trkpt>
      <trkpt lat="42.73099" lon="2.67602">
        <ele>243.8</ele>
        <time>2021-03-28T11:31:51Z</time>
      </trkpt>
      <trkpt lat="42.731" lon="2.67597">
        <ele>244</ele>
        <time>2021-03-28T11:31:53Z</time>
      </trkpt>
      <trkpt lat="42.731" lon="2.67597">
        <ele>244</ele>
        <time>2021-03-28T11:31:53Z</time>
      </trkpt>
      <trkpt lat="42.731" lon="2.67591">
        <ele>244.3</ele>
        <time>2021-03-28T11:31:55Z</time>
      </trkpt>
      <trkpt lat="42.731" lon="2.67591">
        <ele>244.3</ele>
        <time>2021-03-28T11:31:55Z</time>
      </trkpt>
      <trkpt lat="42.73101" lon="2.67586">
        <ele>244.6</ele>
        <time>2021-03-28T11:31:56Z</time>
      </trkpt>
      <trkpt lat="42.73101" lon="2.67586">
        <ele>244.6</ele>
        <time>2021-03-28T11:31:56Z</time>
      </trkpt>
      <trkpt lat="42.73101" lon="2.67582">
        <ele>244.8</ele>
        <time>2021-03-28T11:31:57Z</time>
      </trkpt>
      <trkpt lat="42.73101" lon="2.67582">
        <ele>244.8</ele>
        <time>2021-03-28T11:31:57Z</time>
      </trkpt>
      <trkpt lat="42.73101" lon="2.67577">
        <ele>245</ele>
        <time>2021-03-28T11:31:59Z</time>
      </trkpt>
      <trkpt lat="42.73101" lon="2.67577">
        <ele>245</ele>
        <time>2021-03-28T11:31:59Z</time>
      </trkpt>
      <trkpt lat="42.73101" lon="2.67572">
        <ele>245.1</ele>
        <time>2021-03-28T11:32:00Z</time>
      </trkpt>
      <trkpt lat="42.73101" lon="2.67572">
        <ele>245.1</ele>
        <time>2021-03-28T11:32:00Z</time>
      </trkpt>
      <trkpt lat="42.73101" lon="2.67568">
        <ele>245.3</ele>
        <time>2021-03-28T11:32:02Z</time>
      </trkpt>
      <trkpt lat="42.73101" lon="2.67568">
        <ele>245.3</ele>
        <time>2021-03-28T11:32:02Z</time>
      </trkpt>
      <trkpt lat="42.73101" lon="2.67562">
        <ele>245.5</ele>
        <time>2021-03-28T11:32:04Z</time>
      </trkpt>
      <trkpt lat="42.73101" lon="2.67562">
        <ele>245.5</ele>
        <time>2021-03-28T11:32:04Z</time>
      </trkpt>
      <trkpt lat="42.731" lon="2.67557">
        <ele>245.8</ele>
        <time>2021-03-28T11:32:06Z</time>
      </trkpt>
      <trkpt lat="42.731" lon="2.67557">
        <ele>245.8</ele>
        <time>2021-03-28T11:32:06Z</time>
      </trkpt>
      <trkpt lat="42.73099" lon="2.67552">
        <ele>245.9</ele>
        <time>2021-03-28T11:32:07Z</time>
      </trkpt>
      <trkpt lat="42.73099" lon="2.67552">
        <ele>245.9</ele>
        <time>2021-03-28T11:32:07Z</time>
      </trkpt>
      <trkpt lat="42.73098" lon="2.67548">
        <ele>246.1</ele>
        <time>2021-03-28T11:32:09Z</time>
      </trkpt>
      <trkpt lat="42.73098" lon="2.67548">
        <ele>246.1</ele>
        <time>2021-03-28T11:32:09Z</time>
      </trkpt>
      <trkpt lat="42.73096" lon="2.67543">
        <ele>246.3</ele>
        <time>2021-03-28T11:32:11Z</time>
      </trkpt>
      <trkpt lat="42.73096" lon="2.67543">
        <ele>246.3</ele>
        <time>2021-03-28T11:32:11Z</time>
      </trkpt>
      <trkpt lat="42.73095" lon="2.67539">
        <ele>246.5</ele>
        <time>2021-03-28T11:32:12Z</time>
      </trkpt>
      <trkpt lat="42.73095" lon="2.67539">
        <ele>246.5</ele>
        <time>2021-03-28T11:32:12Z</time>
      </trkpt>
      <trkpt lat="42.73094" lon="2.67535">
        <ele>246.7</ele>
        <time>2021-03-28T11:32:14Z</time>
      </trkpt>
      <trkpt lat="42.73094" lon="2.67535">
        <ele>246.7</ele>
        <time>2021-03-28T11:32:14Z</time>
      </trkpt>
      <trkpt lat="42.73092" lon="2.67531">
        <ele>247</ele>
        <time>2021-03-28T11:32:15Z</time>
      </trkpt>
      <trkpt lat="42.73092" lon="2.67531">
        <ele>247</ele>
        <time>2021-03-28T11:32:15Z</time>
      </trkpt>
      <trkpt lat="42.7309" lon="2.67528">
        <ele>247.2</ele>
        <time>2021-03-28T11:32:16Z</time>
      </trkpt>
      <trkpt lat="42.7309" lon="2.67528">
        <ele>247.2</ele>
        <time>2021-03-28T11:32:16Z</time>
      </trkpt>
      <trkpt lat="42.73089" lon="2.67525">
        <ele>247.4</ele>
        <time>2021-03-28T11:32:17Z</time>
      </trkpt>
      <trkpt lat="42.73089" lon="2.67525">
        <ele>247.4</ele>
        <time>2021-03-28T11:32:17Z</time>
      </trkpt>
      <trkpt lat="42.73087" lon="2.67523">
        <ele>247.6</ele>
        <time>2021-03-28T11:32:19Z</time>
      </trkpt>
      <trkpt lat="42.73087" lon="2.67523">
        <ele>247.6</ele>
        <time>2021-03-28T11:32:19Z</time>
      </trkpt>
      <trkpt lat="42.73085" lon="2.6752">
        <ele>247.8</ele>
        <time>2021-03-28T11:32:20Z</time>
      </trkpt>
      <trkpt lat="42.73085" lon="2.6752">
        <ele>247.8</ele>
        <time>2021-03-28T11:32:20Z</time>
      </trkpt>
      <trkpt lat="42.73084" lon="2.67518">
        <ele>248</ele>
        <time>2021-03-28T11:32:22Z</time>
      </trkpt>
      <trkpt lat="42.73084" lon="2.67518">
        <ele>248</ele>
        <time>2021-03-28T11:32:22Z</time>
      </trkpt>
      <trkpt lat="42.73083" lon="2.67517">
        <ele>248</ele>
        <time>2021-03-28T11:32:23Z</time>
      </trkpt>
      <trkpt lat="42.73083" lon="2.67517">
        <ele>248</ele>
        <time>2021-03-28T11:32:23Z</time>
      </trkpt>
      <trkpt lat="42.73082" lon="2.67515">
        <ele>248.2</ele>
        <time>2021-03-28T11:32:25Z</time>
      </trkpt>
      <trkpt lat="42.73082" lon="2.67515">
        <ele>248.2</ele>
        <time>2021-03-28T11:32:25Z</time>
      </trkpt>
      <trkpt lat="42.73081" lon="2.67514">
        <ele>248.3</ele>
        <time>2021-03-28T11:32:26Z</time>
      </trkpt>
      <trkpt lat="42.73081" lon="2.67514">
        <ele>248.3</ele>
        <time>2021-03-28T11:32:26Z</time>
      </trkpt>
      <trkpt lat="42.7308" lon="2.67513">
        <ele>248.4</ele>
        <time>2021-03-28T11:32:27Z</time>
      </trkpt>
      <trkpt lat="42.7308" lon="2.67513">
        <ele>248.4</ele>
        <time>2021-03-28T11:32:27Z</time>
      </trkpt>
      <trkpt lat="42.73078" lon="2.67512">
        <ele>248.6</ele>
        <time>2021-03-28T11:32:29Z</time>
      </trkpt>
      <trkpt lat="42.73078" lon="2.67512">
        <ele>248.6</ele>
        <time>2021-03-28T11:32:29Z</time>
      </trkpt>
      <trkpt lat="42.73076" lon="2.67512">
        <ele>248.8</ele>
        <time>2021-03-28T11:32:30Z</time>
      </trkpt>
      <trkpt lat="42.73076" lon="2.67512">
        <ele>248.8</ele>
        <time>2021-03-28T11:32:30Z</time>
      </trkpt>
      <trkpt lat="42.73074" lon="2.6751">
        <ele>249</ele>
        <time>2021-03-28T11:32:32Z</time>
      </trkpt>
      <trkpt lat="42.73074" lon="2.6751">
        <ele>249</ele>
        <time>2021-03-28T11:32:32Z</time>
      </trkpt>
      <trkpt lat="42.73072" lon="2.67508">
        <ele>249.2</ele>
        <time>2021-03-28T11:32:34Z</time>
      </trkpt>
      <trkpt lat="42.73072" lon="2.67508">
        <ele>249.2</ele>
        <time>2021-03-28T11:32:34Z</time>
      </trkpt>
      <trkpt lat="42.7307" lon="2.67507">
        <ele>249.5</ele>
        <time>2021-03-28T11:32:35Z</time>
      </trkpt>
      <trkpt lat="42.7307" lon="2.67507">
        <ele>249.5</ele>
        <time>2021-03-28T11:32:35Z</time>
      </trkpt>
      <trkpt lat="42.73067" lon="2.67506">
        <ele>249.7</ele>
        <time>2021-03-28T11:32:37Z</time>
      </trkpt>
      <trkpt lat="42.73067" lon="2.67506">
        <ele>249.7</ele>
        <time>2021-03-28T11:32:37Z</time>
      </trkpt>
      <trkpt lat="42.73065" lon="2.67505">
        <ele>250</ele>
        <time>2021-03-28T11:32:39Z</time>
      </trkpt>
      <trkpt lat="42.73065" lon="2.67505">
        <ele>250</ele>
        <time>2021-03-28T11:32:39Z</time>
      </trkpt>
      <trkpt lat="42.73062" lon="2.67504">
        <ele>250.3</ele>
        <time>2021-03-28T11:32:40Z</time>
      </trkpt>
      <trkpt lat="42.73062" lon="2.67504">
        <ele>250.3</ele>
        <time>2021-03-28T11:32:40Z</time>
      </trkpt>
      <trkpt lat="42.7306" lon="2.67503">
        <ele>250.5</ele>
        <time>2021-03-28T11:32:41Z</time>
      </trkpt>
      <trkpt lat="42.7306" lon="2.67503">
        <ele>250.5</ele>
        <time>2021-03-28T11:32:41Z</time>
      </trkpt>
      <trkpt lat="42.73057" lon="2.67504">
        <ele>250.8</ele>
        <time>2021-03-28T11:32:43Z</time>
      </trkpt>
      <trkpt lat="42.73057" lon="2.67504">
        <ele>250.8</ele>
        <time>2021-03-28T11:32:43Z</time>
      </trkpt>
      <trkpt lat="42.73055" lon="2.67504">
        <ele>251.1</ele>
        <time>2021-03-28T11:32:45Z</time>
      </trkpt>
      <trkpt lat="42.73055" lon="2.67504">
        <ele>251.1</ele>
        <time>2021-03-28T11:32:45Z</time>
      </trkpt>
      <trkpt lat="42.73052" lon="2.67505">
        <ele>251.4</ele>
        <time>2021-03-28T11:32:47Z</time>
      </trkpt>
      <trkpt lat="42.73052" lon="2.67505">
        <ele>251.4</ele>
        <time>2021-03-28T11:32:47Z</time>
      </trkpt>
      <trkpt lat="42.7305" lon="2.67505">
        <ele>251.6</ele>
        <time>2021-03-28T11:32:48Z</time>
      </trkpt>
      <trkpt lat="42.7305" lon="2.67505">
        <ele>251.6</ele>
        <time>2021-03-28T11:32:48Z</time>
      </trkpt>
      <trkpt lat="42.73047" lon="2.67506">
        <ele>251.9</ele>
        <time>2021-03-28T11:32:50Z</time>
      </trkpt>
      <trkpt lat="42.73047" lon="2.67506">
        <ele>251.9</ele>
        <time>2021-03-28T11:32:50Z</time>
      </trkpt>
      <trkpt lat="42.73045" lon="2.67506">
        <ele>252.2</ele>
        <time>2021-03-28T11:32:52Z</time>
      </trkpt>
      <trkpt lat="42.73045" lon="2.67506">
        <ele>252.2</ele>
        <time>2021-03-28T11:32:52Z</time>
      </trkpt>
      <trkpt lat="42.73043" lon="2.67507">
        <ele>252.5</ele>
        <time>2021-03-28T11:32:53Z</time>
      </trkpt>
      <trkpt lat="42.73043" lon="2.67507">
        <ele>252.5</ele>
        <time>2021-03-28T11:32:53Z</time>
      </trkpt>
      <trkpt lat="42.73041" lon="2.67509">
        <ele>252.7</ele>
        <time>2021-03-28T11:32:55Z</time>
      </trkpt>
      <trkpt lat="42.73041" lon="2.67509">
        <ele>252.7</ele>
        <time>2021-03-28T11:32:55Z</time>
      </trkpt>
      <trkpt lat="42.73039" lon="2.6751">
        <ele>253</ele>
        <time>2021-03-28T11:32:57Z</time>
      </trkpt>
      <trkpt lat="42.73039" lon="2.6751">
        <ele>253</ele>
        <time>2021-03-28T11:32:57Z</time>
      </trkpt>
      <trkpt lat="42.73037" lon="2.67512">
        <ele>253.3</ele>
        <time>2021-03-28T11:32:59Z</time>
      </trkpt>
      <trkpt lat="42.73037" lon="2.67512">
        <ele>253.3</ele>
        <time>2021-03-28T11:32:59Z</time>
      </trkpt>
      <trkpt lat="42.73036" lon="2.67513">
        <ele>253.5</ele>
        <time>2021-03-28T11:33:00Z</time>
      </trkpt>
      <trkpt lat="42.73036" lon="2.67513">
        <ele>253.5</ele>
        <time>2021-03-28T11:33:00Z</time>
      </trkpt>
      <trkpt lat="42.73034" lon="2.67515">
        <ele>253.8</ele>
        <time>2021-03-28T11:33:02Z</time>
      </trkpt>
      <trkpt lat="42.73034" lon="2.67515">
        <ele>253.8</ele>
        <time>2021-03-28T11:33:02Z</time>
      </trkpt>
      <trkpt lat="42.73032" lon="2.67517">
        <ele>254</ele>
        <time>2021-03-28T11:33:03Z</time>
      </trkpt>
      <trkpt lat="42.73032" lon="2.67517">
        <ele>254</ele>
        <time>2021-03-28T11:33:03Z</time>
      </trkpt>
      <trkpt lat="42.73031" lon="2.67519">
        <ele>254.3</ele>
        <time>2021-03-28T11:33:05Z</time>
      </trkpt>
      <trkpt lat="42.73031" lon="2.67519">
        <ele>254.3</ele>
        <time>2021-03-28T11:33:05Z</time>
      </trkpt>
      <trkpt lat="42.73029" lon="2.67521">
        <ele>254.6</ele>
        <time>2021-03-28T11:33:07Z</time>
      </trkpt>
      <trkpt lat="42.73029" lon="2.67521">
        <ele>254.6</ele>
        <time>2021-03-28T11:33:07Z</time>
      </trkpt>
      <trkpt lat="42.73028" lon="2.67522">
        <ele>254.8</ele>
        <time>2021-03-28T11:33:08Z</time>
      </trkpt>
      <trkpt lat="42.73028" lon="2.67522">
        <ele>254.8</ele>
        <time>2021-03-28T11:33:08Z</time>
      </trkpt>
      <trkpt lat="42.73026" lon="2.67524">
        <ele>255.1</ele>
        <time>2021-03-28T11:33:09Z</time>
      </trkpt>
      <trkpt lat="42.73026" lon="2.67524">
        <ele>255.1</ele>
        <time>2021-03-28T11:33:09Z</time>
      </trkpt>
      <trkpt lat="42.73025" lon="2.67526">
        <ele>255.3</ele>
        <time>2021-03-28T11:33:10Z</time>
      </trkpt>
      <trkpt lat="42.73025" lon="2.67526">
        <ele>255.3</ele>
        <time>2021-03-28T11:33:10Z</time>
      </trkpt>
      <trkpt lat="42.73024" lon="2.67527">
        <ele>255.5</ele>
        <time>2021-03-28T11:33:11Z</time>
      </trkpt>
      <trkpt lat="42.73024" lon="2.67527">
        <ele>255.5</ele>
        <time>2021-03-28T11:33:11Z</time>
      </trkpt>
      <trkpt lat="42.73023" lon="2.67529">
        <ele>255.7</ele>
        <time>2021-03-28T11:33:13Z</time>
      </trkpt>
      <trkpt lat="42.73023" lon="2.67529">
        <ele>255.7</ele>
        <time>2021-03-28T11:33:13Z</time>
      </trkpt>
      <trkpt lat="42.73021" lon="2.67531">
        <ele>255.9</ele>
        <time>2021-03-28T11:33:15Z</time>
      </trkpt>
      <trkpt lat="42.73021" lon="2.67531">
        <ele>255.9</ele>
        <time>2021-03-28T11:33:15Z</time>
      </trkpt>
      <trkpt lat="42.7302" lon="2.67532">
        <ele>256.1</ele>
        <time>2021-03-28T11:33:16Z</time>
      </trkpt>
      <trkpt lat="42.7302" lon="2.67532">
        <ele>256.1</ele>
        <time>2021-03-28T11:33:16Z</time>
      </trkpt>
      <trkpt lat="42.73019" lon="2.67535">
        <ele>256.3</ele>
        <time>2021-03-28T11:33:18Z</time>
      </trkpt>
      <trkpt lat="42.73019" lon="2.67535">
        <ele>256.3</ele>
        <time>2021-03-28T11:33:18Z</time>
      </trkpt>
      <trkpt lat="42.73017" lon="2.67538">
        <ele>256.5</ele>
        <time>2021-03-28T11:33:20Z</time>
      </trkpt>
      <trkpt lat="42.73017" lon="2.67538">
        <ele>256.5</ele>
        <time>2021-03-28T11:33:20Z</time>
      </trkpt>
      <trkpt lat="42.73015" lon="2.6754">
        <ele>256.7</ele>
        <time>2021-03-28T11:33:21Z</time>
      </trkpt>
      <trkpt lat="42.73015" lon="2.6754">
        <ele>256.7</ele>
        <time>2021-03-28T11:33:21Z</time>
      </trkpt>
      <trkpt lat="42.73013" lon="2.67542">
        <ele>256.8</ele>
        <time>2021-03-28T11:33:22Z</time>
      </trkpt>
      <trkpt lat="42.73013" lon="2.67542">
        <ele>256.8</ele>
        <time>2021-03-28T11:33:22Z</time>
      </trkpt>
      <trkpt lat="42.73012" lon="2.67544">
        <ele>257</ele>
        <time>2021-03-28T11:33:24Z</time>
      </trkpt>
      <trkpt lat="42.73012" lon="2.67544">
        <ele>257</ele>
        <time>2021-03-28T11:33:24Z</time>
      </trkpt>
      <trkpt lat="42.7301" lon="2.67546">
        <ele>257.1</ele>
        <time>2021-03-28T11:33:25Z</time>
      </trkpt>
      <trkpt lat="42.7301" lon="2.67546">
        <ele>257.1</ele>
        <time>2021-03-28T11:33:25Z</time>
      </trkpt>
      <trkpt lat="42.73009" lon="2.67548">
        <ele>257.2</ele>
        <time>2021-03-28T11:33:26Z</time>
      </trkpt>
      <trkpt lat="42.73009" lon="2.67548">
        <ele>257.2</ele>
        <time>2021-03-28T11:33:26Z</time>
      </trkpt>
      <trkpt lat="42.73007" lon="2.6755">
        <ele>257.4</ele>
        <time>2021-03-28T11:33:28Z</time>
      </trkpt>
      <trkpt lat="42.73007" lon="2.6755">
        <ele>257.4</ele>
        <time>2021-03-28T11:33:28Z</time>
      </trkpt>
      <trkpt lat="42.73006" lon="2.67551">
        <ele>257.5</ele>
        <time>2021-03-28T11:33:29Z</time>
      </trkpt>
      <trkpt lat="42.73006" lon="2.67551">
        <ele>257.5</ele>
        <time>2021-03-28T11:33:29Z</time>
      </trkpt>
      <trkpt lat="42.73004" lon="2.67553">
        <ele>257.7</ele>
        <time>2021-03-28T11:33:31Z</time>
      </trkpt>
      <trkpt lat="42.73004" lon="2.67553">
        <ele>257.7</ele>
        <time>2021-03-28T11:33:31Z</time>
      </trkpt>
      <trkpt lat="42.73001" lon="2.67554">
        <ele>257.9</ele>
        <time>2021-03-28T11:33:33Z</time>
      </trkpt>
      <trkpt lat="42.73001" lon="2.67554">
        <ele>257.9</ele>
        <time>2021-03-28T11:33:33Z</time>
      </trkpt>
      <trkpt lat="42.72999" lon="2.67556">
        <ele>258.1</ele>
        <time>2021-03-28T11:33:35Z</time>
      </trkpt>
      <trkpt lat="42.72999" lon="2.67556">
        <ele>258.1</ele>
        <time>2021-03-28T11:33:35Z</time>
      </trkpt>
      <trkpt lat="42.72996" lon="2.67558">
        <ele>258.3</ele>
        <time>2021-03-28T11:33:36Z</time>
      </trkpt>
      <trkpt lat="42.72996" lon="2.67558">
        <ele>258.3</ele>
        <time>2021-03-28T11:33:36Z</time>
      </trkpt>
      <trkpt lat="42.72994" lon="2.6756">
        <ele>258.5</ele>
        <time>2021-03-28T11:33:38Z</time>
      </trkpt>
      <trkpt lat="42.72994" lon="2.6756">
        <ele>258.5</ele>
        <time>2021-03-28T11:33:38Z</time>
      </trkpt>
      <trkpt lat="42.72992" lon="2.67561">
        <ele>258.7</ele>
        <time>2021-03-28T11:33:39Z</time>
      </trkpt>
      <trkpt lat="42.72992" lon="2.67561">
        <ele>258.7</ele>
        <time>2021-03-28T11:33:39Z</time>
      </trkpt>
      <trkpt lat="42.72989" lon="2.67562">
        <ele>258.9</ele>
        <time>2021-03-28T11:33:41Z</time>
      </trkpt>
      <trkpt lat="42.72989" lon="2.67562">
        <ele>258.9</ele>
        <time>2021-03-28T11:33:41Z</time>
      </trkpt>
      <trkpt lat="42.72986" lon="2.67563">
        <ele>259.1</ele>
        <time>2021-03-28T11:33:43Z</time>
      </trkpt>
      <trkpt lat="42.72986" lon="2.67563">
        <ele>259.1</ele>
        <time>2021-03-28T11:33:43Z</time>
      </trkpt>
      <trkpt lat="42.72984" lon="2.67564">
        <ele>259.3</ele>
        <time>2021-03-28T11:33:44Z</time>
      </trkpt>
      <trkpt lat="42.72984" lon="2.67564">
        <ele>259.3</ele>
        <time>2021-03-28T11:33:44Z</time>
      </trkpt>
      <trkpt lat="42.72981" lon="2.67564">
        <ele>259.6</ele>
        <time>2021-03-28T11:33:46Z</time>
      </trkpt>
      <trkpt lat="42.72981" lon="2.67564">
        <ele>259.6</ele>
        <time>2021-03-28T11:33:46Z</time>
      </trkpt>
      <trkpt lat="42.72978" lon="2.67564">
        <ele>259.9</ele>
        <time>2021-03-28T11:33:48Z</time>
      </trkpt>
      <trkpt lat="42.72978" lon="2.67564">
        <ele>259.9</ele>
        <time>2021-03-28T11:33:48Z</time>
      </trkpt>
      <trkpt lat="42.72975" lon="2.67564">
        <ele>260.1</ele>
        <time>2021-03-28T11:33:49Z</time>
      </trkpt>
      <trkpt lat="42.72975" lon="2.67564">
        <ele>260.1</ele>
        <time>2021-03-28T11:33:49Z</time>
      </trkpt>
      <trkpt lat="42.72972" lon="2.67565">
        <ele>260.4</ele>
        <time>2021-03-28T11:33:51Z</time>
      </trkpt>
      <trkpt lat="42.72972" lon="2.67565">
        <ele>260.4</ele>
        <time>2021-03-28T11:33:51Z</time>
      </trkpt>
      <trkpt lat="42.72969" lon="2.67565">
        <ele>260.6</ele>
        <time>2021-03-28T11:33:53Z</time>
      </trkpt>
      <trkpt lat="42.72969" lon="2.67565">
        <ele>260.6</ele>
        <time>2021-03-28T11:33:53Z</time>
      </trkpt>
      <trkpt lat="42.72965" lon="2.67565">
        <ele>260.9</ele>
        <time>2021-03-28T11:33:55Z</time>
      </trkpt>
      <trkpt lat="42.72965" lon="2.67565">
        <ele>260.9</ele>
        <time>2021-03-28T11:33:55Z</time>
      </trkpt>
      <trkpt lat="42.72962" lon="2.67565">
        <ele>261.1</ele>
        <time>2021-03-28T11:33:56Z</time>
      </trkpt>
      <trkpt lat="42.72962" lon="2.67565">
        <ele>261.1</ele>
        <time>2021-03-28T11:33:56Z</time>
      </trkpt>
      <trkpt lat="42.72959" lon="2.67565">
        <ele>261.3</ele>
        <time>2021-03-28T11:33:58Z</time>
      </trkpt>
      <trkpt lat="42.72959" lon="2.67565">
        <ele>261.3</ele>
        <time>2021-03-28T11:33:58Z</time>
      </trkpt>
      <trkpt lat="42.72955" lon="2.67565">
        <ele>261.5</ele>
        <time>2021-03-28T11:34:00Z</time>
      </trkpt>
      <trkpt lat="42.72955" lon="2.67565">
        <ele>261.5</ele>
        <time>2021-03-28T11:34:00Z</time>
      </trkpt>
      <trkpt lat="42.72952" lon="2.67564">
        <ele>261.8</ele>
        <time>2021-03-28T11:34:02Z</time>
      </trkpt>
      <trkpt lat="42.72952" lon="2.67564">
        <ele>261.8</ele>
        <time>2021-03-28T11:34:02Z</time>
      </trkpt>
      <trkpt lat="42.72948" lon="2.67564">
        <ele>262</ele>
        <time>2021-03-28T11:34:04Z</time>
      </trkpt>
      <trkpt lat="42.72948" lon="2.67564">
        <ele>262</ele>
        <time>2021-03-28T11:34:04Z</time>
      </trkpt>
      <trkpt lat="42.72945" lon="2.67563">
        <ele>262.2</ele>
        <time>2021-03-28T11:34:06Z</time>
      </trkpt>
      <trkpt lat="42.72945" lon="2.67563">
        <ele>262.2</ele>
        <time>2021-03-28T11:34:06Z</time>
      </trkpt>
      <trkpt lat="42.72941" lon="2.67561">
        <ele>262.4</ele>
        <time>2021-03-28T11:34:08Z</time>
      </trkpt>
      <trkpt lat="42.72941" lon="2.67561">
        <ele>262.4</ele>
        <time>2021-03-28T11:34:08Z</time>
      </trkpt>
      <trkpt lat="42.72938" lon="2.67559">
        <ele>262.6</ele>
        <time>2021-03-28T11:34:09Z</time>
      </trkpt>
      <trkpt lat="42.72938" lon="2.67559">
        <ele>262.6</ele>
        <time>2021-03-28T11:34:09Z</time>
      </trkpt>
      <trkpt lat="42.72936" lon="2.67558">
        <ele>262.7</ele>
        <time>2021-03-28T11:34:10Z</time>
      </trkpt>
      <trkpt lat="42.72936" lon="2.67558">
        <ele>262.7</ele>
        <time>2021-03-28T11:34:10Z</time>
      </trkpt>
      <trkpt lat="42.72933" lon="2.67556">
        <ele>262.8</ele>
        <time>2021-03-28T11:34:11Z</time>
      </trkpt>
      <trkpt lat="42.72933" lon="2.67556">
        <ele>262.8</ele>
        <time>2021-03-28T11:34:11Z</time>
      </trkpt>
      <trkpt lat="42.7293" lon="2.67554">
        <ele>262.8</ele>
        <time>2021-03-28T11:34:13Z</time>
      </trkpt>
      <trkpt lat="42.7293" lon="2.67554">
        <ele>262.8</ele>
        <time>2021-03-28T11:34:13Z</time>
      </trkpt>
      <trkpt lat="42.72927" lon="2.67551">
        <ele>262.8</ele>
        <time>2021-03-28T11:34:15Z</time>
      </trkpt>
      <trkpt lat="42.72927" lon="2.67551">
        <ele>262.8</ele>
        <time>2021-03-28T11:34:15Z</time>
      </trkpt>
      <trkpt lat="42.72925" lon="2.67548">
        <ele>262.7</ele>
        <time>2021-03-28T11:34:16Z</time>
      </trkpt>
      <trkpt lat="42.72925" lon="2.67548">
        <ele>262.7</ele>
        <time>2021-03-28T11:34:16Z</time>
      </trkpt>
      <trkpt lat="42.72922" lon="2.67545">
        <ele>262.7</ele>
        <time>2021-03-28T11:34:18Z</time>
      </trkpt>
      <trkpt lat="42.72922" lon="2.67545">
        <ele>262.7</ele>
        <time>2021-03-28T11:34:18Z</time>
      </trkpt>
      <trkpt lat="42.72919" lon="2.6754">
        <ele>262.7</ele>
        <time>2021-03-28T11:34:20Z</time>
      </trkpt>
      <trkpt lat="42.72919" lon="2.6754">
        <ele>262.7</ele>
        <time>2021-03-28T11:34:20Z</time>
      </trkpt>
      <trkpt lat="42.72916" lon="2.67535">
        <ele>262.6</ele>
        <time>2021-03-28T11:34:22Z</time>
      </trkpt>
      <trkpt lat="42.72916" lon="2.67535">
        <ele>262.6</ele>
        <time>2021-03-28T11:34:22Z</time>
      </trkpt>
      <trkpt lat="42.72914" lon="2.6753">
        <ele>262.7</ele>
        <time>2021-03-28T11:34:24Z</time>
      </trkpt>
      <trkpt lat="42.72914" lon="2.6753">
        <ele>262.7</ele>
        <time>2021-03-28T11:34:24Z</time>
      </trkpt>
      <trkpt lat="42.72912" lon="2.67526">
        <ele>262.9</ele>
        <time>2021-03-28T11:34:25Z</time>
      </trkpt>
      <trkpt lat="42.72912" lon="2.67526">
        <ele>262.9</ele>
        <time>2021-03-28T11:34:25Z</time>
      </trkpt>
      <trkpt lat="42.72911" lon="2.6752">
        <ele>263.1</ele>
        <time>2021-03-28T11:34:27Z</time>
      </trkpt>
      <trkpt lat="42.72911" lon="2.6752">
        <ele>263.1</ele>
        <time>2021-03-28T11:34:27Z</time>
      </trkpt>
      <trkpt lat="42.72909" lon="2.67515">
        <ele>263.3</ele>
        <time>2021-03-28T11:34:29Z</time>
      </trkpt>
      <trkpt lat="42.72909" lon="2.67515">
        <ele>263.3</ele>
        <time>2021-03-28T11:34:29Z</time>
      </trkpt>
      <trkpt lat="42.72908" lon="2.6751">
        <ele>263.5</ele>
        <time>2021-03-28T11:34:30Z</time>
      </trkpt>
      <trkpt lat="42.72908" lon="2.6751">
        <ele>263.5</ele>
        <time>2021-03-28T11:34:30Z</time>
      </trkpt>
      <trkpt lat="42.72906" lon="2.67505">
        <ele>263.8</ele>
        <time>2021-03-28T11:34:32Z</time>
      </trkpt>
      <trkpt lat="42.72906" lon="2.67505">
        <ele>263.8</ele>
        <time>2021-03-28T11:34:32Z</time>
      </trkpt>
      <trkpt lat="42.72905" lon="2.67501">
        <ele>264</ele>
        <time>2021-03-28T11:34:33Z</time>
      </trkpt>
      <trkpt lat="42.72905" lon="2.67501">
        <ele>264</ele>
        <time>2021-03-28T11:34:33Z</time>
      </trkpt>
      <trkpt lat="42.72904" lon="2.67497">
        <ele>264.2</ele>
        <time>2021-03-28T11:34:34Z</time>
      </trkpt>
      <trkpt lat="42.72904" lon="2.67497">
        <ele>264.2</ele>
        <time>2021-03-28T11:34:34Z</time>
      </trkpt>
      <trkpt lat="42.72903" lon="2.67493">
        <ele>264.4</ele>
        <time>2021-03-28T11:34:36Z</time>
      </trkpt>
      <trkpt lat="42.72903" lon="2.67493">
        <ele>264.4</ele>
        <time>2021-03-28T11:34:36Z</time>
      </trkpt>
      <trkpt lat="42.72901" lon="2.67489">
        <ele>264.6</ele>
        <time>2021-03-28T11:34:37Z</time>
      </trkpt>
      <trkpt lat="42.72901" lon="2.67489">
        <ele>264.6</ele>
        <time>2021-03-28T11:34:37Z</time>
      </trkpt>
      <trkpt lat="42.729" lon="2.67485">
        <ele>264.9</ele>
        <time>2021-03-28T11:34:39Z</time>
      </trkpt>
      <trkpt lat="42.729" lon="2.67485">
        <ele>264.9</ele>
        <time>2021-03-28T11:34:39Z</time>
      </trkpt>
      <trkpt lat="42.72899" lon="2.67481">
        <ele>265</ele>
        <time>2021-03-28T11:34:40Z</time>
      </trkpt>
      <trkpt lat="42.72899" lon="2.67481">
        <ele>265</ele>
        <time>2021-03-28T11:34:40Z</time>
      </trkpt>
      <trkpt lat="42.72897" lon="2.67477">
        <ele>265.3</ele>
        <time>2021-03-28T11:34:42Z</time>
      </trkpt>
      <trkpt lat="42.72897" lon="2.67477">
        <ele>265.3</ele>
        <time>2021-03-28T11:34:42Z</time>
      </trkpt>
      <trkpt lat="42.72895" lon="2.67472">
        <ele>265.6</ele>
        <time>2021-03-28T11:34:44Z</time>
      </trkpt>
      <trkpt lat="42.72895" lon="2.67472">
        <ele>265.6</ele>
        <time>2021-03-28T11:34:44Z</time>
      </trkpt>
      <trkpt lat="42.72893" lon="2.67468">
        <ele>265.7</ele>
        <time>2021-03-28T11:34:46Z</time>
      </trkpt>
      <trkpt lat="42.72893" lon="2.67468">
        <ele>265.7</ele>
        <time>2021-03-28T11:34:46Z</time>
      </trkpt>
      <trkpt lat="42.72891" lon="2.67463">
        <ele>265.8</ele>
        <time>2021-03-28T11:34:48Z</time>
      </trkpt>
      <trkpt lat="42.72891" lon="2.67463">
        <ele>265.8</ele>
        <time>2021-03-28T11:34:48Z</time>
      </trkpt>
      <trkpt lat="42.72889" lon="2.67457">
        <ele>266</ele>
        <time>2021-03-28T11:34:50Z</time>
      </trkpt>
      <trkpt lat="42.72889" lon="2.67457">
        <ele>266</ele>
        <time>2021-03-28T11:34:50Z</time>
      </trkpt>
      <trkpt lat="42.72886" lon="2.67452">
        <ele>266.1</ele>
        <time>2021-03-28T11:34:52Z</time>
      </trkpt>
      <trkpt lat="42.72886" lon="2.67452">
        <ele>266.1</ele>
        <time>2021-03-28T11:34:52Z</time>
      </trkpt>
      <trkpt lat="42.72884" lon="2.67446">
        <ele>266.2</ele>
        <time>2021-03-28T11:34:54Z</time>
      </trkpt>
      <trkpt lat="42.72884" lon="2.67446">
        <ele>266.2</ele>
        <time>2021-03-28T11:34:54Z</time>
      </trkpt>
      <trkpt lat="42.72882" lon="2.67441">
        <ele>266.4</ele>
        <time>2021-03-28T11:34:55Z</time>
      </trkpt>
      <trkpt lat="42.72882" lon="2.67441">
        <ele>266.4</ele>
        <time>2021-03-28T11:34:55Z</time>
      </trkpt>
      <trkpt lat="42.7288" lon="2.67436">
        <ele>266.7</ele>
        <time>2021-03-28T11:34:57Z</time>
      </trkpt>
      <trkpt lat="42.7288" lon="2.67436">
        <ele>266.7</ele>
        <time>2021-03-28T11:34:57Z</time>
      </trkpt>
      <trkpt lat="42.72879" lon="2.6743">
        <ele>266.9</ele>
        <time>2021-03-28T11:34:59Z</time>
      </trkpt>
      <trkpt lat="42.72879" lon="2.6743">
        <ele>266.9</ele>
        <time>2021-03-28T11:34:59Z</time>
      </trkpt>
      <trkpt lat="42.72877" lon="2.67424">
        <ele>267.1</ele>
        <time>2021-03-28T11:35:00Z</time>
      </trkpt>
      <trkpt lat="42.72877" lon="2.67424">
        <ele>267.1</ele>
        <time>2021-03-28T11:35:00Z</time>
      </trkpt>
      <trkpt lat="42.72877" lon="2.67419">
        <ele>267.2</ele>
        <time>2021-03-28T11:35:02Z</time>
      </trkpt>
      <trkpt lat="42.72877" lon="2.67419">
        <ele>267.2</ele>
        <time>2021-03-28T11:35:02Z</time>
      </trkpt>
      <trkpt lat="42.72876" lon="2.67414">
        <ele>267.4</ele>
        <time>2021-03-28T11:35:03Z</time>
      </trkpt>
      <trkpt lat="42.72876" lon="2.67414">
        <ele>267.4</ele>
        <time>2021-03-28T11:35:03Z</time>
      </trkpt>
      <trkpt lat="42.72876" lon="2.67409">
        <ele>267.8</ele>
        <time>2021-03-28T11:35:04Z</time>
      </trkpt>
      <trkpt lat="42.72876" lon="2.67409">
        <ele>267.8</ele>
        <time>2021-03-28T11:35:04Z</time>
      </trkpt>
      <trkpt lat="42.72876" lon="2.67404">
        <ele>268.1</ele>
        <time>2021-03-28T11:35:06Z</time>
      </trkpt>
      <trkpt lat="42.72876" lon="2.67404">
        <ele>268.1</ele>
        <time>2021-03-28T11:35:06Z</time>
      </trkpt>
      <trkpt lat="42.72875" lon="2.67398">
        <ele>268.4</ele>
        <time>2021-03-28T11:35:08Z</time>
      </trkpt>
      <trkpt lat="42.72875" lon="2.67398">
        <ele>268.4</ele>
        <time>2021-03-28T11:35:08Z</time>
      </trkpt>
      <trkpt lat="42.72875" lon="2.67393">
        <ele>268.7</ele>
        <time>2021-03-28T11:35:09Z</time>
      </trkpt>
      <trkpt lat="42.72875" lon="2.67393">
        <ele>268.7</ele>
        <time>2021-03-28T11:35:09Z</time>
      </trkpt>
      <trkpt lat="42.72875" lon="2.67387">
        <ele>268.9</ele>
        <time>2021-03-28T11:35:11Z</time>
      </trkpt>
      <trkpt lat="42.72875" lon="2.67387">
        <ele>268.9</ele>
        <time>2021-03-28T11:35:11Z</time>
      </trkpt>
      <trkpt lat="42.72875" lon="2.67382">
        <ele>268.9</ele>
        <time>2021-03-28T11:35:13Z</time>
      </trkpt>
      <trkpt lat="42.72875" lon="2.67382">
        <ele>268.9</ele>
        <time>2021-03-28T11:35:13Z</time>
      </trkpt>
      <trkpt lat="42.72875" lon="2.67377">
        <ele>268.8</ele>
        <time>2021-03-28T11:35:15Z</time>
      </trkpt>
      <trkpt lat="42.72875" lon="2.67377">
        <ele>268.8</ele>
        <time>2021-03-28T11:35:15Z</time>
      </trkpt>
      <trkpt lat="42.72875" lon="2.67375">
        <ele>268.7</ele>
        <time>2021-03-28T11:35:17Z</time>
      </trkpt>
      <trkpt lat="42.72875" lon="2.67375">
        <ele>268.7</ele>
        <time>2021-03-28T11:35:17Z</time>
      </trkpt>
      <trkpt lat="42.72876" lon="2.67363">
        <ele>268.5</ele>
        <time>2021-03-28T11:38:16Z</time>
      </trkpt>
      <trkpt lat="42.72876" lon="2.67363">
        <ele>268.5</ele>
        <time>2021-03-28T11:38:16Z</time>
      </trkpt>
      <trkpt lat="42.72876" lon="2.67363">
        <ele>268.5</ele>
        <time>2021-03-28T11:38:17Z</time>
      </trkpt>
      <trkpt lat="42.72876" lon="2.67363">
        <ele>268.5</ele>
        <time>2021-03-28T11:38:17Z</time>
      </trkpt>
      <trkpt lat="42.72876" lon="2.67364">
        <ele>268.5</ele>
        <time>2021-03-28T11:38:21Z</time>
      </trkpt>
      <trkpt lat="42.72876" lon="2.67364">
        <ele>268.5</ele>
        <time>2021-03-28T11:38:21Z</time>
      </trkpt>
      <trkpt lat="42.72866" lon="2.67349">
        <ele>268.6</ele>
        <time>2021-03-28T11:39:17Z</time>
      </trkpt>
      <trkpt lat="42.72866" lon="2.67349">
        <ele>268.6</ele>
        <time>2021-03-28T11:39:17Z</time>
      </trkpt>
      <trkpt lat="42.72864" lon="2.67346">
        <ele>268.6</ele>
        <time>2021-03-28T11:39:19Z</time>
      </trkpt>
      <trkpt lat="42.72864" lon="2.67346">
        <ele>268.6</ele>
        <time>2021-03-28T11:39:19Z</time>
      </trkpt>
      <trkpt lat="42.7286" lon="2.6734">
        <ele>268.6</ele>
        <time>2021-03-28T11:39:21Z</time>
      </trkpt>
      <trkpt lat="42.7286" lon="2.6734">
        <ele>268.6</ele>
        <time>2021-03-28T11:39:21Z</time>
      </trkpt>
      <trkpt lat="42.72856" lon="2.67334">
        <ele>268.5</ele>
        <time>2021-03-28T11:39:22Z</time>
      </trkpt>
      <trkpt lat="42.72856" lon="2.67334">
        <ele>268.5</ele>
        <time>2021-03-28T11:39:22Z</time>
      </trkpt>
      <trkpt lat="42.72851" lon="2.67324">
        <ele>267.7</ele>
        <time>2021-03-28T11:39:24Z</time>
      </trkpt>
      <trkpt lat="42.72851" lon="2.67324">
        <ele>267.7</ele>
        <time>2021-03-28T11:39:24Z</time>
      </trkpt>
      <trkpt lat="42.72845" lon="2.67313">
        <ele>266.9</ele>
        <time>2021-03-28T11:39:26Z</time>
      </trkpt>
      <trkpt lat="42.72845" lon="2.67313">
        <ele>266.9</ele>
        <time>2021-03-28T11:39:26Z</time>
      </trkpt>
      <trkpt lat="42.72839" lon="2.67304">
        <ele>266.2</ele>
        <time>2021-03-28T11:39:27Z</time>
      </trkpt>
      <trkpt lat="42.72839" lon="2.67304">
        <ele>266.2</ele>
        <time>2021-03-28T11:39:27Z</time>
      </trkpt>
      <trkpt lat="42.72831" lon="2.67294">
        <ele>266</ele>
        <time>2021-03-28T11:39:29Z</time>
      </trkpt>
      <trkpt lat="42.72831" lon="2.67294">
        <ele>266</ele>
        <time>2021-03-28T11:39:29Z</time>
      </trkpt>
      <trkpt lat="42.72825" lon="2.67285">
        <ele>265.6</ele>
        <time>2021-03-28T11:39:30Z</time>
      </trkpt>
      <trkpt lat="42.72825" lon="2.67285">
        <ele>265.6</ele>
        <time>2021-03-28T11:39:30Z</time>
      </trkpt>
      <trkpt lat="42.72821" lon="2.67277">
        <ele>265.4</ele>
        <time>2021-03-28T11:39:31Z</time>
      </trkpt>
      <trkpt lat="42.72821" lon="2.67277">
        <ele>265.4</ele>
        <time>2021-03-28T11:39:31Z</time>
      </trkpt>
      <trkpt lat="42.72819" lon="2.67269">
        <ele>266.1</ele>
        <time>2021-03-28T11:39:32Z</time>
      </trkpt>
      <trkpt lat="42.72819" lon="2.67269">
        <ele>266.1</ele>
        <time>2021-03-28T11:39:32Z</time>
      </trkpt>
      <trkpt lat="42.72817" lon="2.67261">
        <ele>266.8</ele>
        <time>2021-03-28T11:39:34Z</time>
      </trkpt>
      <trkpt lat="42.72817" lon="2.67261">
        <ele>266.8</ele>
        <time>2021-03-28T11:39:34Z</time>
      </trkpt>
      <trkpt lat="42.72815" lon="2.67252">
        <ele>267.6</ele>
        <time>2021-03-28T11:39:36Z</time>
      </trkpt>
      <trkpt lat="42.72815" lon="2.67252">
        <ele>267.6</ele>
        <time>2021-03-28T11:39:36Z</time>
      </trkpt>
      <trkpt lat="42.72813" lon="2.67244">
        <ele>268.1</ele>
        <time>2021-03-28T11:39:38Z</time>
      </trkpt>
      <trkpt lat="42.72813" lon="2.67244">
        <ele>268.1</ele>
        <time>2021-03-28T11:39:38Z</time>
      </trkpt>
      <trkpt lat="42.72812" lon="2.67237">
        <ele>268.6</ele>
        <time>2021-03-28T11:39:40Z</time>
      </trkpt>
      <trkpt lat="42.72812" lon="2.67237">
        <ele>268.6</ele>
        <time>2021-03-28T11:39:40Z</time>
      </trkpt>
      <trkpt lat="42.72811" lon="2.67231">
        <ele>268.9</ele>
        <time>2021-03-28T11:39:41Z</time>
      </trkpt>
      <trkpt lat="42.72811" lon="2.67231">
        <ele>268.9</ele>
        <time>2021-03-28T11:39:41Z</time>
      </trkpt>
      <trkpt lat="42.7281" lon="2.67226">
        <ele>269.2</ele>
        <time>2021-03-28T11:39:42Z</time>
      </trkpt>
      <trkpt lat="42.7281" lon="2.67226">
        <ele>269.2</ele>
        <time>2021-03-28T11:39:42Z</time>
      </trkpt>
      <trkpt lat="42.72809" lon="2.6722">
        <ele>269.5</ele>
        <time>2021-03-28T11:39:44Z</time>
      </trkpt>
      <trkpt lat="42.72809" lon="2.6722">
        <ele>269.5</ele>
        <time>2021-03-28T11:39:44Z</time>
      </trkpt>
      <trkpt lat="42.72808" lon="2.67213">
        <ele>269.6</ele>
        <time>2021-03-28T11:39:46Z</time>
      </trkpt>
      <trkpt lat="42.72808" lon="2.67213">
        <ele>269.6</ele>
        <time>2021-03-28T11:39:46Z</time>
      </trkpt>
      <trkpt lat="42.72808" lon="2.67207">
        <ele>269.7</ele>
        <time>2021-03-28T11:39:48Z</time>
      </trkpt>
      <trkpt lat="42.72808" lon="2.67207">
        <ele>269.7</ele>
        <time>2021-03-28T11:39:48Z</time>
      </trkpt>
      <trkpt lat="42.72807" lon="2.67201">
        <ele>269.8</ele>
        <time>2021-03-28T11:39:49Z</time>
      </trkpt>
      <trkpt lat="42.72807" lon="2.67201">
        <ele>269.8</ele>
        <time>2021-03-28T11:39:49Z</time>
      </trkpt>
      <trkpt lat="42.72806" lon="2.67195">
        <ele>269.9</ele>
        <time>2021-03-28T11:39:51Z</time>
      </trkpt>
      <trkpt lat="42.72806" lon="2.67195">
        <ele>269.9</ele>
        <time>2021-03-28T11:39:51Z</time>
      </trkpt>
      <trkpt lat="42.72805" lon="2.67188">
        <ele>269.8</ele>
        <time>2021-03-28T11:39:53Z</time>
      </trkpt>
      <trkpt lat="42.72805" lon="2.67188">
        <ele>269.8</ele>
        <time>2021-03-28T11:39:53Z</time>
      </trkpt>
      <trkpt lat="42.72803" lon="2.67181">
        <ele>269.8</ele>
        <time>2021-03-28T11:39:55Z</time>
      </trkpt>
      <trkpt lat="42.72803" lon="2.67181">
        <ele>269.8</ele>
        <time>2021-03-28T11:39:55Z</time>
      </trkpt>
      <trkpt lat="42.72802" lon="2.67175">
        <ele>269.7</ele>
        <time>2021-03-28T11:39:56Z</time>
      </trkpt>
      <trkpt lat="42.72802" lon="2.67175">
        <ele>269.7</ele>
        <time>2021-03-28T11:39:56Z</time>
      </trkpt>
      <trkpt lat="42.728" lon="2.67167">
        <ele>269.6</ele>
        <time>2021-03-28T11:39:58Z</time>
      </trkpt>
      <trkpt lat="42.728" lon="2.67167">
        <ele>269.6</ele>
        <time>2021-03-28T11:39:58Z</time>
      </trkpt>
      <trkpt lat="42.72798" lon="2.6716">
        <ele>269.5</ele>
        <time>2021-03-28T11:40:00Z</time>
      </trkpt>
      <trkpt lat="42.72798" lon="2.6716">
        <ele>269.5</ele>
        <time>2021-03-28T11:40:00Z</time>
      </trkpt>
      <trkpt lat="42.72795" lon="2.67151">
        <ele>269.4</ele>
        <time>2021-03-28T11:40:02Z</time>
      </trkpt>
      <trkpt lat="42.72795" lon="2.67151">
        <ele>269.4</ele>
        <time>2021-03-28T11:40:02Z</time>
      </trkpt>
      <trkpt lat="42.72792" lon="2.67144">
        <ele>269.3</ele>
        <time>2021-03-28T11:40:03Z</time>
      </trkpt>
      <trkpt lat="42.72792" lon="2.67144">
        <ele>269.3</ele>
        <time>2021-03-28T11:40:03Z</time>
      </trkpt>
      <trkpt lat="42.72789" lon="2.67135">
        <ele>269</ele>
        <time>2021-03-28T11:40:05Z</time>
      </trkpt>
      <trkpt lat="42.72789" lon="2.67135">
        <ele>269</ele>
        <time>2021-03-28T11:40:05Z</time>
      </trkpt>
      <trkpt lat="42.72786" lon="2.67127">
        <ele>268.6</ele>
        <time>2021-03-28T11:40:06Z</time>
      </trkpt>
      <trkpt lat="42.72786" lon="2.67127">
        <ele>268.6</ele>
        <time>2021-03-28T11:40:06Z</time>
      </trkpt>
      <trkpt lat="42.72782" lon="2.67117">
        <ele>268.1</ele>
        <time>2021-03-28T11:40:08Z</time>
      </trkpt>
      <trkpt lat="42.72782" lon="2.67117">
        <ele>268.1</ele>
        <time>2021-03-28T11:40:08Z</time>
      </trkpt>
      <trkpt lat="42.72778" lon="2.67104">
        <ele>267.5</ele>
        <time>2021-03-28T11:40:10Z</time>
      </trkpt>
      <trkpt lat="42.72778" lon="2.67104">
        <ele>267.5</ele>
        <time>2021-03-28T11:40:10Z</time>
      </trkpt>
      <trkpt lat="42.72773" lon="2.67091">
        <ele>267</ele>
        <time>2021-03-28T11:40:12Z</time>
      </trkpt>
      <trkpt lat="42.72773" lon="2.67091">
        <ele>267</ele>
        <time>2021-03-28T11:40:12Z</time>
      </trkpt>
      <trkpt lat="42.72769" lon="2.67078">
        <ele>266.6</ele>
        <time>2021-03-28T11:40:14Z</time>
      </trkpt>
      <trkpt lat="42.72769" lon="2.67078">
        <ele>266.6</ele>
        <time>2021-03-28T11:40:14Z</time>
      </trkpt>
      <trkpt lat="42.72762" lon="2.67064">
        <ele>265.9</ele>
        <time>2021-03-28T11:40:16Z</time>
      </trkpt>
      <trkpt lat="42.72762" lon="2.67064">
        <ele>265.9</ele>
        <time>2021-03-28T11:40:16Z</time>
      </trkpt>
      <trkpt lat="42.72755" lon="2.67052">
        <ele>265.2</ele>
        <time>2021-03-28T11:40:18Z</time>
      </trkpt>
      <trkpt lat="42.72755" lon="2.67052">
        <ele>265.2</ele>
        <time>2021-03-28T11:40:18Z</time>
      </trkpt>
      <trkpt lat="42.72747" lon="2.67038">
        <ele>264.2</ele>
        <time>2021-03-28T11:40:20Z</time>
      </trkpt>
      <trkpt lat="42.72747" lon="2.67038">
        <ele>264.2</ele>
        <time>2021-03-28T11:40:20Z</time>
      </trkpt>
      <trkpt lat="42.7274" lon="2.67026">
        <ele>263.3</ele>
        <time>2021-03-28T11:40:21Z</time>
      </trkpt>
      <trkpt lat="42.7274" lon="2.67026">
        <ele>263.3</ele>
        <time>2021-03-28T11:40:21Z</time>
      </trkpt>
      <trkpt lat="42.72732" lon="2.67015">
        <ele>262.8</ele>
        <time>2021-03-28T11:40:23Z</time>
      </trkpt>
      <trkpt lat="42.72732" lon="2.67015">
        <ele>262.8</ele>
        <time>2021-03-28T11:40:23Z</time>
      </trkpt>
      <trkpt lat="42.72726" lon="2.67005">
        <ele>262.8</ele>
        <time>2021-03-28T11:40:24Z</time>
      </trkpt>
      <trkpt lat="42.72726" lon="2.67005">
        <ele>262.8</ele>
        <time>2021-03-28T11:40:24Z</time>
      </trkpt>
      <trkpt lat="42.7272" lon="2.66996">
        <ele>262.4</ele>
        <time>2021-03-28T11:40:26Z</time>
      </trkpt>
      <trkpt lat="42.7272" lon="2.66996">
        <ele>262.4</ele>
        <time>2021-03-28T11:40:26Z</time>
      </trkpt>
      <trkpt lat="42.72714" lon="2.66987">
        <ele>261.8</ele>
        <time>2021-03-28T11:40:28Z</time>
      </trkpt>
      <trkpt lat="42.72714" lon="2.66987">
        <ele>261.8</ele>
        <time>2021-03-28T11:40:28Z</time>
      </trkpt>
      <trkpt lat="42.72709" lon="2.6698">
        <ele>261.9</ele>
        <time>2021-03-28T11:40:29Z</time>
      </trkpt>
      <trkpt lat="42.72709" lon="2.6698">
        <ele>261.9</ele>
        <time>2021-03-28T11:40:29Z</time>
      </trkpt>
      <trkpt lat="42.72705" lon="2.66975">
        <ele>262.2</ele>
        <time>2021-03-28T11:40:30Z</time>
      </trkpt>
      <trkpt lat="42.72705" lon="2.66975">
        <ele>262.2</ele>
        <time>2021-03-28T11:40:30Z</time>
      </trkpt>
      <trkpt lat="42.72701" lon="2.66969">
        <ele>262.8</ele>
        <time>2021-03-28T11:40:32Z</time>
      </trkpt>
      <trkpt lat="42.72701" lon="2.66969">
        <ele>262.8</ele>
        <time>2021-03-28T11:40:32Z</time>
      </trkpt>
      <trkpt lat="42.72699" lon="2.66964">
        <ele>263.3</ele>
        <time>2021-03-28T11:40:33Z</time>
      </trkpt>
      <trkpt lat="42.72699" lon="2.66964">
        <ele>263.3</ele>
        <time>2021-03-28T11:40:33Z</time>
      </trkpt>
      <trkpt lat="42.72696" lon="2.66959">
        <ele>263.8</ele>
        <time>2021-03-28T11:40:35Z</time>
      </trkpt>
      <trkpt lat="42.72696" lon="2.66959">
        <ele>263.8</ele>
        <time>2021-03-28T11:40:35Z</time>
      </trkpt>
      <trkpt lat="42.72693" lon="2.66953">
        <ele>264.2</ele>
        <time>2021-03-28T11:40:37Z</time>
      </trkpt>
      <trkpt lat="42.72693" lon="2.66953">
        <ele>264.2</ele>
        <time>2021-03-28T11:40:37Z</time>
      </trkpt>
      <trkpt lat="42.72691" lon="2.66949">
        <ele>264.5</ele>
        <time>2021-03-28T11:40:38Z</time>
      </trkpt>
      <trkpt lat="42.72691" lon="2.66949">
        <ele>264.5</ele>
        <time>2021-03-28T11:40:38Z</time>
      </trkpt>
      <trkpt lat="42.72689" lon="2.66945">
        <ele>264.8</ele>
        <time>2021-03-28T11:40:39Z</time>
      </trkpt>
      <trkpt lat="42.72689" lon="2.66945">
        <ele>264.8</ele>
        <time>2021-03-28T11:40:39Z</time>
      </trkpt>
      <trkpt lat="42.72687" lon="2.66942">
        <ele>265.2</ele>
        <time>2021-03-28T11:40:41Z</time>
      </trkpt>
      <trkpt lat="42.72687" lon="2.66942">
        <ele>265.2</ele>
        <time>2021-03-28T11:40:41Z</time>
      </trkpt>
      <trkpt lat="42.72685" lon="2.6694">
        <ele>265.5</ele>
        <time>2021-03-28T11:40:42Z</time>
      </trkpt>
      <trkpt lat="42.72685" lon="2.6694">
        <ele>265.5</ele>
        <time>2021-03-28T11:40:42Z</time>
      </trkpt>
      <trkpt lat="42.72683" lon="2.66937">
        <ele>265.8</ele>
        <time>2021-03-28T11:40:43Z</time>
      </trkpt>
      <trkpt lat="42.72683" lon="2.66937">
        <ele>265.8</ele>
        <time>2021-03-28T11:40:43Z</time>
      </trkpt>
      <trkpt lat="42.72681" lon="2.66933">
        <ele>266</ele>
        <time>2021-03-28T11:40:45Z</time>
      </trkpt>
      <trkpt lat="42.72681" lon="2.66933">
        <ele>266</ele>
        <time>2021-03-28T11:40:45Z</time>
      </trkpt>
      <trkpt lat="42.72679" lon="2.6693">
        <ele>266.1</ele>
        <time>2021-03-28T11:40:46Z</time>
      </trkpt>
      <trkpt lat="42.72679" lon="2.6693">
        <ele>266.1</ele>
        <time>2021-03-28T11:40:46Z</time>
      </trkpt>
      <trkpt lat="42.72678" lon="2.66927">
        <ele>266.1</ele>
        <time>2021-03-28T11:40:47Z</time>
      </trkpt>
      <trkpt lat="42.72678" lon="2.66927">
        <ele>266.1</ele>
        <time>2021-03-28T11:40:47Z</time>
      </trkpt>
      <trkpt lat="42.72678" lon="2.66927">
        <ele>266.1</ele>
        <time>2021-03-28T11:40:49Z</time>
      </trkpt>
      <trkpt lat="42.72678" lon="2.66927">
        <ele>266.1</ele>
        <time>2021-03-28T11:40:49Z</time>
      </trkpt>
      <trkpt lat="42.72679" lon="2.66926">
        <ele>266.1</ele>
        <time>2021-03-28T11:40:50Z</time>
      </trkpt>
      <trkpt lat="42.72679" lon="2.66926">
        <ele>266.1</ele>
        <time>2021-03-28T11:40:50Z</time>
      </trkpt>
      <trkpt lat="42.7268" lon="2.66926">
        <ele>266</ele>
        <time>2021-03-28T11:40:52Z</time>
      </trkpt>
      <trkpt lat="42.7268" lon="2.66926">
        <ele>266</ele>
        <time>2021-03-28T11:40:52Z</time>
      </trkpt>
      <trkpt lat="42.72679" lon="2.66926">
        <ele>266.1</ele>
        <time>2021-03-28T11:40:54Z</time>
      </trkpt>
      <trkpt lat="42.72679" lon="2.66926">
        <ele>266.1</ele>
        <time>2021-03-28T11:40:54Z</time>
      </trkpt>
      <trkpt lat="42.72678" lon="2.66926">
        <ele>266.1</ele>
        <time>2021-03-28T11:41:07Z</time>
      </trkpt>
      <trkpt lat="42.72678" lon="2.66926">
        <ele>266.1</ele>
        <time>2021-03-28T11:41:07Z</time>
      </trkpt>
      <trkpt lat="42.72666" lon="2.6691">
        <ele>265.5</ele>
        <time>2021-03-28T11:48:44Z</time>
      </trkpt>
      <trkpt lat="42.72666" lon="2.6691">
        <ele>265.5</ele>
        <time>2021-03-28T11:48:44Z</time>
      </trkpt>
      <trkpt lat="42.72664" lon="2.66911">
        <ele>265.5</ele>
        <time>2021-03-28T11:48:46Z</time>
      </trkpt>
      <trkpt lat="42.72664" lon="2.66911">
        <ele>265.5</ele>
        <time>2021-03-28T11:48:46Z</time>
      </trkpt>
      <trkpt lat="42.72659" lon="2.66912">
        <ele>265.6</ele>
        <time>2021-03-28T11:48:48Z</time>
      </trkpt>
      <trkpt lat="42.72659" lon="2.66912">
        <ele>265.6</ele>
        <time>2021-03-28T11:48:48Z</time>
      </trkpt>
      <trkpt lat="42.72652" lon="2.66914">
        <ele>265.7</ele>
        <time>2021-03-28T11:48:50Z</time>
      </trkpt>
      <trkpt lat="42.72652" lon="2.66914">
        <ele>265.7</ele>
        <time>2021-03-28T11:48:50Z</time>
      </trkpt>
      <trkpt lat="42.72646" lon="2.66916">
        <ele>265.9</ele>
        <time>2021-03-28T11:48:51Z</time>
      </trkpt>
      <trkpt lat="42.72646" lon="2.66916">
        <ele>265.9</ele>
        <time>2021-03-28T11:48:51Z</time>
      </trkpt>
      <trkpt lat="42.7264" lon="2.66918">
        <ele>266.1</ele>
        <time>2021-03-28T11:48:52Z</time>
      </trkpt>
      <trkpt lat="42.7264" lon="2.66918">
        <ele>266.1</ele>
        <time>2021-03-28T11:48:52Z</time>
      </trkpt>
      <trkpt lat="42.72635" lon="2.6692">
        <ele>265.9</ele>
        <time>2021-03-28T11:48:53Z</time>
      </trkpt>
      <trkpt lat="42.72635" lon="2.6692">
        <ele>265.9</ele>
        <time>2021-03-28T11:48:53Z</time>
      </trkpt>
      <trkpt lat="42.7263" lon="2.66923">
        <ele>265.6</ele>
        <time>2021-03-28T11:48:54Z</time>
      </trkpt>
      <trkpt lat="42.7263" lon="2.66923">
        <ele>265.6</ele>
        <time>2021-03-28T11:48:54Z</time>
      </trkpt>
      <trkpt lat="42.72624" lon="2.66926">
        <ele>265.1</ele>
        <time>2021-03-28T11:48:56Z</time>
      </trkpt>
      <trkpt lat="42.72624" lon="2.66926">
        <ele>265.1</ele>
        <time>2021-03-28T11:48:56Z</time>
      </trkpt>
      <trkpt lat="42.72616" lon="2.6693">
        <ele>264.6</ele>
        <time>2021-03-28T11:48:58Z</time>
      </trkpt>
      <trkpt lat="42.72616" lon="2.6693">
        <ele>264.6</ele>
        <time>2021-03-28T11:48:58Z</time>
      </trkpt>
      <trkpt lat="42.7261" lon="2.66935">
        <ele>264.1</ele>
        <time>2021-03-28T11:48:59Z</time>
      </trkpt>
      <trkpt lat="42.7261" lon="2.66935">
        <ele>264.1</ele>
        <time>2021-03-28T11:48:59Z</time>
      </trkpt>
      <trkpt lat="42.72604" lon="2.66939">
        <ele>264</ele>
        <time>2021-03-28T11:49:00Z</time>
      </trkpt>
      <trkpt lat="42.72604" lon="2.66939">
        <ele>264</ele>
        <time>2021-03-28T11:49:00Z</time>
      </trkpt>
      <trkpt lat="42.72596" lon="2.66943">
        <ele>263.8</ele>
        <time>2021-03-28T11:49:02Z</time>
      </trkpt>
      <trkpt lat="42.72596" lon="2.66943">
        <ele>263.8</ele>
        <time>2021-03-28T11:49:02Z</time>
      </trkpt>
      <trkpt lat="42.72589" lon="2.66946">
        <ele>263.6</ele>
        <time>2021-03-28T11:49:03Z</time>
      </trkpt>
      <trkpt lat="42.72589" lon="2.66946">
        <ele>263.6</ele>
        <time>2021-03-28T11:49:03Z</time>
      </trkpt>
      <trkpt lat="42.72581" lon="2.66947">
        <ele>263.5</ele>
        <time>2021-03-28T11:49:05Z</time>
      </trkpt>
      <trkpt lat="42.72581" lon="2.66947">
        <ele>263.5</ele>
        <time>2021-03-28T11:49:05Z</time>
      </trkpt>
      <trkpt lat="42.72572" lon="2.66947">
        <ele>263.8</ele>
        <time>2021-03-28T11:49:07Z</time>
      </trkpt>
      <trkpt lat="42.72572" lon="2.66947">
        <ele>263.8</ele>
        <time>2021-03-28T11:49:07Z</time>
      </trkpt>
      <trkpt lat="42.72565" lon="2.66947">
        <ele>264</ele>
        <time>2021-03-28T11:49:08Z</time>
      </trkpt>
      <trkpt lat="42.72565" lon="2.66947">
        <ele>264</ele>
        <time>2021-03-28T11:49:08Z</time>
      </trkpt>
      <trkpt lat="42.72557" lon="2.66946">
        <ele>264.2</ele>
        <time>2021-03-28T11:49:10Z</time>
      </trkpt>
      <trkpt lat="42.72557" lon="2.66946">
        <ele>264.2</ele>
        <time>2021-03-28T11:49:10Z</time>
      </trkpt>
      <trkpt lat="42.72549" lon="2.66946">
        <ele>263.8</ele>
        <time>2021-03-28T11:49:11Z</time>
      </trkpt>
      <trkpt lat="42.72549" lon="2.66946">
        <ele>263.8</ele>
        <time>2021-03-28T11:49:11Z</time>
      </trkpt>
      <trkpt lat="42.72542" lon="2.66946">
        <ele>263.3</ele>
        <time>2021-03-28T11:49:12Z</time>
      </trkpt>
      <trkpt lat="42.72542" lon="2.66946">
        <ele>263.3</ele>
        <time>2021-03-28T11:49:12Z</time>
      </trkpt>
      <trkpt lat="42.72536" lon="2.66947">
        <ele>263</ele>
        <time>2021-03-28T11:49:13Z</time>
      </trkpt>
      <trkpt lat="42.72536" lon="2.66947">
        <ele>263</ele>
        <time>2021-03-28T11:49:13Z</time>
      </trkpt>
      <trkpt lat="42.72528" lon="2.66949">
        <ele>262.9</ele>
        <time>2021-03-28T11:49:15Z</time>
      </trkpt>
      <trkpt lat="42.72528" lon="2.66949">
        <ele>262.9</ele>
        <time>2021-03-28T11:49:15Z</time>
      </trkpt>
      <trkpt lat="42.7252" lon="2.66951">
        <ele>262.6</ele>
        <time>2021-03-28T11:49:16Z</time>
      </trkpt>
      <trkpt lat="42.7252" lon="2.66951">
        <ele>262.6</ele>
        <time>2021-03-28T11:49:16Z</time>
      </trkpt>
      <trkpt lat="42.72511" lon="2.66953">
        <ele>262.3</ele>
        <time>2021-03-28T11:49:18Z</time>
      </trkpt>
      <trkpt lat="42.72511" lon="2.66953">
        <ele>262.3</ele>
        <time>2021-03-28T11:49:18Z</time>
      </trkpt>
      <trkpt lat="42.72501" lon="2.66956">
        <ele>261.8</ele>
        <time>2021-03-28T11:49:20Z</time>
      </trkpt>
      <trkpt lat="42.72501" lon="2.66956">
        <ele>261.8</ele>
        <time>2021-03-28T11:49:20Z</time>
      </trkpt>
      <trkpt lat="42.72491" lon="2.6696">
        <ele>261.1</ele>
        <time>2021-03-28T11:49:22Z</time>
      </trkpt>
      <trkpt lat="42.72491" lon="2.6696">
        <ele>261.1</ele>
        <time>2021-03-28T11:49:22Z</time>
      </trkpt>
      <trkpt lat="42.72483" lon="2.66963">
        <ele>260.6</ele>
        <time>2021-03-28T11:49:23Z</time>
      </trkpt>
      <trkpt lat="42.72483" lon="2.66963">
        <ele>260.6</ele>
        <time>2021-03-28T11:49:23Z</time>
      </trkpt>
      <trkpt lat="42.72475" lon="2.66966">
        <ele>260.1</ele>
        <time>2021-03-28T11:49:24Z</time>
      </trkpt>
      <trkpt lat="42.72475" lon="2.66966">
        <ele>260.1</ele>
        <time>2021-03-28T11:49:24Z</time>
      </trkpt>
      <trkpt lat="42.72467" lon="2.66968">
        <ele>259.7</ele>
        <time>2021-03-28T11:49:25Z</time>
      </trkpt>
      <trkpt lat="42.72467" lon="2.66968">
        <ele>259.7</ele>
        <time>2021-03-28T11:49:25Z</time>
      </trkpt>
      <trkpt lat="42.72458" lon="2.66971">
        <ele>259.3</ele>
        <time>2021-03-28T11:49:27Z</time>
      </trkpt>
      <trkpt lat="42.72458" lon="2.66971">
        <ele>259.3</ele>
        <time>2021-03-28T11:49:27Z</time>
      </trkpt>
      <trkpt lat="42.72448" lon="2.66975">
        <ele>258.7</ele>
        <time>2021-03-28T11:49:29Z</time>
      </trkpt>
      <trkpt lat="42.72448" lon="2.66975">
        <ele>258.7</ele>
        <time>2021-03-28T11:49:29Z</time>
      </trkpt>
      <trkpt lat="42.72439" lon="2.66979">
        <ele>258.3</ele>
        <time>2021-03-28T11:49:30Z</time>
      </trkpt>
      <trkpt lat="42.72439" lon="2.66979">
        <ele>258.3</ele>
        <time>2021-03-28T11:49:30Z</time>
      </trkpt>
      <trkpt lat="42.7243" lon="2.66983">
        <ele>257.9</ele>
        <time>2021-03-28T11:49:31Z</time>
      </trkpt>
      <trkpt lat="42.7243" lon="2.66983">
        <ele>257.9</ele>
        <time>2021-03-28T11:49:31Z</time>
      </trkpt>
      <trkpt lat="42.72423" lon="2.66986">
        <ele>257.6</ele>
        <time>2021-03-28T11:49:32Z</time>
      </trkpt>
      <trkpt lat="42.72423" lon="2.66986">
        <ele>257.6</ele>
        <time>2021-03-28T11:49:32Z</time>
      </trkpt>
      <trkpt lat="42.72416" lon="2.66989">
        <ele>257.2</ele>
        <time>2021-03-28T11:49:33Z</time>
      </trkpt>
      <trkpt lat="42.72416" lon="2.66989">
        <ele>257.2</ele>
        <time>2021-03-28T11:49:33Z</time>
      </trkpt>
      <trkpt lat="42.7241" lon="2.66993">
        <ele>256.8</ele>
        <time>2021-03-28T11:49:34Z</time>
      </trkpt>
      <trkpt lat="42.7241" lon="2.66993">
        <ele>256.8</ele>
        <time>2021-03-28T11:49:34Z</time>
      </trkpt>
      <trkpt lat="42.72403" lon="2.66999">
        <ele>256.4</ele>
        <time>2021-03-28T11:49:36Z</time>
      </trkpt>
      <trkpt lat="42.72403" lon="2.66999">
        <ele>256.4</ele>
        <time>2021-03-28T11:49:36Z</time>
      </trkpt>
      <trkpt lat="42.72396" lon="2.67005">
        <ele>256</ele>
        <time>2021-03-28T11:49:37Z</time>
      </trkpt>
      <trkpt lat="42.72396" lon="2.67005">
        <ele>256</ele>
        <time>2021-03-28T11:49:37Z</time>
      </trkpt>
      <trkpt lat="42.72387" lon="2.67012">
        <ele>255.2</ele>
        <time>2021-03-28T11:49:39Z</time>
      </trkpt>
      <trkpt lat="42.72387" lon="2.67012">
        <ele>255.2</ele>
        <time>2021-03-28T11:49:39Z</time>
      </trkpt>
      <trkpt lat="42.72378" lon="2.67022">
        <ele>254.7</ele>
        <time>2021-03-28T11:49:41Z</time>
      </trkpt>
      <trkpt lat="42.72378" lon="2.67022">
        <ele>254.7</ele>
        <time>2021-03-28T11:49:41Z</time>
      </trkpt>
      <trkpt lat="42.72369" lon="2.67033">
        <ele>254.7</ele>
        <time>2021-03-28T11:49:43Z</time>
      </trkpt>
      <trkpt lat="42.72369" lon="2.67033">
        <ele>254.7</ele>
        <time>2021-03-28T11:49:43Z</time>
      </trkpt>
      <trkpt lat="42.72361" lon="2.67047">
        <ele>254</ele>
        <time>2021-03-28T11:49:45Z</time>
      </trkpt>
      <trkpt lat="42.72361" lon="2.67047">
        <ele>254</ele>
        <time>2021-03-28T11:49:45Z</time>
      </trkpt>
      <trkpt lat="42.72355" lon="2.67064">
        <ele>253.3</ele>
        <time>2021-03-28T11:49:47Z</time>
      </trkpt>
      <trkpt lat="42.72355" lon="2.67064">
        <ele>253.3</ele>
        <time>2021-03-28T11:49:47Z</time>
      </trkpt>
      <trkpt lat="42.7235" lon="2.67078">
        <ele>252.8</ele>
        <time>2021-03-28T11:49:48Z</time>
      </trkpt>
      <trkpt lat="42.7235" lon="2.67078">
        <ele>252.8</ele>
        <time>2021-03-28T11:49:48Z</time>
      </trkpt>
      <trkpt lat="42.72347" lon="2.67094">
        <ele>252.7</ele>
        <time>2021-03-28T11:49:50Z</time>
      </trkpt>
      <trkpt lat="42.72347" lon="2.67094">
        <ele>252.7</ele>
        <time>2021-03-28T11:49:50Z</time>
      </trkpt>
      <trkpt lat="42.72346" lon="2.67109">
        <ele>252.6</ele>
        <time>2021-03-28T11:49:51Z</time>
      </trkpt>
      <trkpt lat="42.72346" lon="2.67109">
        <ele>252.6</ele>
        <time>2021-03-28T11:49:51Z</time>
      </trkpt>
      <trkpt lat="42.72344" lon="2.67126">
        <ele>252.4</ele>
        <time>2021-03-28T11:49:53Z</time>
      </trkpt>
      <trkpt lat="42.72344" lon="2.67126">
        <ele>252.4</ele>
        <time>2021-03-28T11:49:53Z</time>
      </trkpt>
      <trkpt lat="42.72341" lon="2.67141">
        <ele>250.8</ele>
        <time>2021-03-28T11:49:55Z</time>
      </trkpt>
      <trkpt lat="42.72341" lon="2.67141">
        <ele>250.8</ele>
        <time>2021-03-28T11:49:55Z</time>
      </trkpt>
      <trkpt lat="42.72336" lon="2.67153">
        <ele>248.9</ele>
        <time>2021-03-28T11:49:56Z</time>
      </trkpt>
      <trkpt lat="42.72336" lon="2.67153">
        <ele>248.9</ele>
        <time>2021-03-28T11:49:56Z</time>
      </trkpt>
      <trkpt lat="42.72331" lon="2.67161">
        <ele>248</ele>
        <time>2021-03-28T11:49:57Z</time>
      </trkpt>
      <trkpt lat="42.72331" lon="2.67161">
        <ele>248</ele>
        <time>2021-03-28T11:49:57Z</time>
      </trkpt>
      <trkpt lat="42.72324" lon="2.67165">
        <ele>248.2</ele>
        <time>2021-03-28T11:49:59Z</time>
      </trkpt>
      <trkpt lat="42.72324" lon="2.67165">
        <ele>248.2</ele>
        <time>2021-03-28T11:49:59Z</time>
      </trkpt>
      <trkpt lat="42.72316" lon="2.67166">
        <ele>248.5</ele>
        <time>2021-03-28T11:50:00Z</time>
      </trkpt>
      <trkpt lat="42.72316" lon="2.67166">
        <ele>248.5</ele>
        <time>2021-03-28T11:50:00Z</time>
      </trkpt>
      <trkpt lat="42.72307" lon="2.67163">
        <ele>248.1</ele>
        <time>2021-03-28T11:50:02Z</time>
      </trkpt>
      <trkpt lat="42.72307" lon="2.67163">
        <ele>248.1</ele>
        <time>2021-03-28T11:50:02Z</time>
      </trkpt>
      <trkpt lat="42.72298" lon="2.67159">
        <ele>248.1</ele>
        <time>2021-03-28T11:50:03Z</time>
      </trkpt>
      <trkpt lat="42.72298" lon="2.67159">
        <ele>248.1</ele>
        <time>2021-03-28T11:50:03Z</time>
      </trkpt>
      <trkpt lat="42.72287" lon="2.67153">
        <ele>248.2</ele>
        <time>2021-03-28T11:50:05Z</time>
      </trkpt>
      <trkpt lat="42.72287" lon="2.67153">
        <ele>248.2</ele>
        <time>2021-03-28T11:50:05Z</time>
      </trkpt>
      <trkpt lat="42.72275" lon="2.67145">
        <ele>248.4</ele>
        <time>2021-03-28T11:50:07Z</time>
      </trkpt>
      <trkpt lat="42.72275" lon="2.67145">
        <ele>248.4</ele>
        <time>2021-03-28T11:50:07Z</time>
      </trkpt>
      <trkpt lat="42.72264" lon="2.67137">
        <ele>248.1</ele>
        <time>2021-03-28T11:50:08Z</time>
      </trkpt>
      <trkpt lat="42.72264" lon="2.67137">
        <ele>248.1</ele>
        <time>2021-03-28T11:50:08Z</time>
      </trkpt>
      <trkpt lat="42.72251" lon="2.67128">
        <ele>247</ele>
        <time>2021-03-28T11:50:10Z</time>
      </trkpt>
      <trkpt lat="42.72251" lon="2.67128">
        <ele>247</ele>
        <time>2021-03-28T11:50:10Z</time>
      </trkpt>
      <trkpt lat="42.7224" lon="2.67114">
        <ele>245.3</ele>
        <time>2021-03-28T11:50:12Z</time>
      </trkpt>
      <trkpt lat="42.7224" lon="2.67114">
        <ele>245.3</ele>
        <time>2021-03-28T11:50:12Z</time>
      </trkpt>
      <trkpt lat="42.72229" lon="2.67096">
        <ele>244.3</ele>
        <time>2021-03-28T11:50:14Z</time>
      </trkpt>
      <trkpt lat="42.72229" lon="2.67096">
        <ele>244.3</ele>
        <time>2021-03-28T11:50:14Z</time>
      </trkpt>
      <trkpt lat="42.7222" lon="2.67082">
        <ele>244.2</ele>
        <time>2021-03-28T11:50:15Z</time>
      </trkpt>
      <trkpt lat="42.7222" lon="2.67082">
        <ele>244.2</ele>
        <time>2021-03-28T11:50:15Z</time>
      </trkpt>
      <trkpt lat="42.7221" lon="2.67065">
        <ele>244.5</ele>
        <time>2021-03-28T11:50:17Z</time>
      </trkpt>
      <trkpt lat="42.7221" lon="2.67065">
        <ele>244.5</ele>
        <time>2021-03-28T11:50:17Z</time>
      </trkpt>
      <trkpt lat="42.722" lon="2.67051">
        <ele>245</ele>
        <time>2021-03-28T11:50:18Z</time>
      </trkpt>
      <trkpt lat="42.722" lon="2.67051">
        <ele>245</ele>
        <time>2021-03-28T11:50:18Z</time>
      </trkpt>
      <trkpt lat="42.72188" lon="2.67038">
        <ele>245.4</ele>
        <time>2021-03-28T11:50:20Z</time>
      </trkpt>
      <trkpt lat="42.72188" lon="2.67038">
        <ele>245.4</ele>
        <time>2021-03-28T11:50:20Z</time>
      </trkpt>
      <trkpt lat="42.72176" lon="2.67028">
        <ele>244.9</ele>
        <time>2021-03-28T11:50:21Z</time>
      </trkpt>
      <trkpt lat="42.72176" lon="2.67028">
        <ele>244.9</ele>
        <time>2021-03-28T11:50:21Z</time>
      </trkpt>
      <trkpt lat="42.72162" lon="2.67019">
        <ele>244.2</ele>
        <time>2021-03-28T11:50:23Z</time>
      </trkpt>
      <trkpt lat="42.72162" lon="2.67019">
        <ele>244.2</ele>
        <time>2021-03-28T11:50:23Z</time>
      </trkpt>
      <trkpt lat="42.72146" lon="2.67013">
        <ele>243.9</ele>
        <time>2021-03-28T11:50:25Z</time>
      </trkpt>
      <trkpt lat="42.72146" lon="2.67013">
        <ele>243.9</ele>
        <time>2021-03-28T11:50:25Z</time>
      </trkpt>
      <trkpt lat="42.72129" lon="2.67004">
        <ele>242.1</ele>
        <time>2021-03-28T11:50:27Z</time>
      </trkpt>
      <trkpt lat="42.72129" lon="2.67004">
        <ele>242.1</ele>
        <time>2021-03-28T11:50:27Z</time>
      </trkpt>
      <trkpt lat="42.72115" lon="2.66995">
        <ele>239.5</ele>
        <time>2021-03-28T11:50:28Z</time>
      </trkpt>
      <trkpt lat="42.72115" lon="2.66995">
        <ele>239.5</ele>
        <time>2021-03-28T11:50:28Z</time>
      </trkpt>
      <trkpt lat="42.72099" lon="2.66986">
        <ele>238.4</ele>
        <time>2021-03-28T11:50:30Z</time>
      </trkpt>
      <trkpt lat="42.72099" lon="2.66986">
        <ele>238.4</ele>
        <time>2021-03-28T11:50:30Z</time>
      </trkpt>
      <trkpt lat="42.72085" lon="2.66978">
        <ele>239</ele>
        <time>2021-03-28T11:50:31Z</time>
      </trkpt>
      <trkpt lat="42.72085" lon="2.66978">
        <ele>239</ele>
        <time>2021-03-28T11:50:31Z</time>
      </trkpt>
      <trkpt lat="42.7207" lon="2.6697">
        <ele>238.6</ele>
        <time>2021-03-28T11:50:33Z</time>
      </trkpt>
      <trkpt lat="42.7207" lon="2.6697">
        <ele>238.6</ele>
        <time>2021-03-28T11:50:33Z</time>
      </trkpt>
      <trkpt lat="42.72054" lon="2.66961">
        <ele>237.8</ele>
        <time>2021-03-28T11:50:35Z</time>
      </trkpt>
      <trkpt lat="42.72054" lon="2.66961">
        <ele>237.8</ele>
        <time>2021-03-28T11:50:35Z</time>
      </trkpt>
      <trkpt lat="42.72041" lon="2.66953">
        <ele>237.5</ele>
        <time>2021-03-28T11:50:36Z</time>
      </trkpt>
      <trkpt lat="42.72041" lon="2.66953">
        <ele>237.5</ele>
        <time>2021-03-28T11:50:36Z</time>
      </trkpt>
      <trkpt lat="42.72026" lon="2.66944">
        <ele>237.1</ele>
        <time>2021-03-28T11:50:38Z</time>
      </trkpt>
      <trkpt lat="42.72026" lon="2.66944">
        <ele>237.1</ele>
        <time>2021-03-28T11:50:38Z</time>
      </trkpt>
      <trkpt lat="42.72014" lon="2.66937">
        <ele>236.8</ele>
        <time>2021-03-28T11:50:39Z</time>
      </trkpt>
      <trkpt lat="42.72014" lon="2.66937">
        <ele>236.8</ele>
        <time>2021-03-28T11:50:39Z</time>
      </trkpt>
      <trkpt lat="42.72" lon="2.66927">
        <ele>236.3</ele>
        <time>2021-03-28T11:50:41Z</time>
      </trkpt>
      <trkpt lat="42.72" lon="2.66927">
        <ele>236.3</ele>
        <time>2021-03-28T11:50:41Z</time>
      </trkpt>
      <trkpt lat="42.71986" lon="2.66915">
        <ele>234.6</ele>
        <time>2021-03-28T11:50:43Z</time>
      </trkpt>
      <trkpt lat="42.71986" lon="2.66915">
        <ele>234.6</ele>
        <time>2021-03-28T11:50:43Z</time>
      </trkpt>
      <trkpt lat="42.71973" lon="2.66902">
        <ele>232.7</ele>
        <time>2021-03-28T11:50:45Z</time>
      </trkpt>
      <trkpt lat="42.71973" lon="2.66902">
        <ele>232.7</ele>
        <time>2021-03-28T11:50:45Z</time>
      </trkpt>
      <trkpt lat="42.71962" lon="2.6689">
        <ele>232.1</ele>
        <time>2021-03-28T11:50:46Z</time>
      </trkpt>
      <trkpt lat="42.71962" lon="2.6689">
        <ele>232.1</ele>
        <time>2021-03-28T11:50:46Z</time>
      </trkpt>
      <trkpt lat="42.71952" lon="2.66881">
        <ele>232.9</ele>
        <time>2021-03-28T11:50:47Z</time>
      </trkpt>
      <trkpt lat="42.71952" lon="2.66881">
        <ele>232.9</ele>
        <time>2021-03-28T11:50:47Z</time>
      </trkpt>
      <trkpt lat="42.71942" lon="2.66874">
        <ele>234.1</ele>
        <time>2021-03-28T11:50:48Z</time>
      </trkpt>
      <trkpt lat="42.71942" lon="2.66874">
        <ele>234.1</ele>
        <time>2021-03-28T11:50:48Z</time>
      </trkpt>
      <trkpt lat="42.71933" lon="2.6687">
        <ele>234.3</ele>
        <time>2021-03-28T11:50:49Z</time>
      </trkpt>
      <trkpt lat="42.71933" lon="2.6687">
        <ele>234.3</ele>
        <time>2021-03-28T11:50:49Z</time>
      </trkpt>
      <trkpt lat="42.71921" lon="2.66869">
        <ele>234.7</ele>
        <time>2021-03-28T11:50:51Z</time>
      </trkpt>
      <trkpt lat="42.71921" lon="2.66869">
        <ele>234.7</ele>
        <time>2021-03-28T11:50:51Z</time>
      </trkpt>
      <trkpt lat="42.71908" lon="2.6687">
        <ele>234.1</ele>
        <time>2021-03-28T11:50:53Z</time>
      </trkpt>
      <trkpt lat="42.71908" lon="2.6687">
        <ele>234.1</ele>
        <time>2021-03-28T11:50:53Z</time>
      </trkpt>
      <trkpt lat="42.71896" lon="2.66872">
        <ele>233.2</ele>
        <time>2021-03-28T11:50:54Z</time>
      </trkpt>
      <trkpt lat="42.71896" lon="2.66872">
        <ele>233.2</ele>
        <time>2021-03-28T11:50:54Z</time>
      </trkpt>
      <trkpt lat="42.71883" lon="2.66876">
        <ele>232.5</ele>
        <time>2021-03-28T11:50:56Z</time>
      </trkpt>
      <trkpt lat="42.71883" lon="2.66876">
        <ele>232.5</ele>
        <time>2021-03-28T11:50:56Z</time>
      </trkpt>
      <trkpt lat="42.71872" lon="2.6688">
        <ele>232.1</ele>
        <time>2021-03-28T11:50:57Z</time>
      </trkpt>
      <trkpt lat="42.71872" lon="2.6688">
        <ele>232.1</ele>
        <time>2021-03-28T11:50:57Z</time>
      </trkpt>
      <trkpt lat="42.71862" lon="2.66884">
        <ele>231.9</ele>
        <time>2021-03-28T11:50:58Z</time>
      </trkpt>
      <trkpt lat="42.71862" lon="2.66884">
        <ele>231.9</ele>
        <time>2021-03-28T11:50:58Z</time>
      </trkpt>
      <trkpt lat="42.7185" lon="2.6689">
        <ele>231.5</ele>
        <time>2021-03-28T11:51:00Z</time>
      </trkpt>
      <trkpt lat="42.7185" lon="2.6689">
        <ele>231.5</ele>
        <time>2021-03-28T11:51:00Z</time>
      </trkpt>
      <trkpt lat="42.71836" lon="2.66897">
        <ele>230.9</ele>
        <time>2021-03-28T11:51:02Z</time>
      </trkpt>
      <trkpt lat="42.71836" lon="2.66897">
        <ele>230.9</ele>
        <time>2021-03-28T11:51:02Z</time>
      </trkpt>
      <trkpt lat="42.71824" lon="2.66903">
        <ele>229.4</ele>
        <time>2021-03-28T11:51:03Z</time>
      </trkpt>
      <trkpt lat="42.71824" lon="2.66903">
        <ele>229.4</ele>
        <time>2021-03-28T11:51:03Z</time>
      </trkpt>
      <trkpt lat="42.7181" lon="2.66908">
        <ele>227.7</ele>
        <time>2021-03-28T11:51:05Z</time>
      </trkpt>
      <trkpt lat="42.7181" lon="2.66908">
        <ele>227.7</ele>
        <time>2021-03-28T11:51:05Z</time>
      </trkpt>
      <trkpt lat="42.71795" lon="2.66913">
        <ele>227.2</ele>
        <time>2021-03-28T11:51:07Z</time>
      </trkpt>
      <trkpt lat="42.71795" lon="2.66913">
        <ele>227.2</ele>
        <time>2021-03-28T11:51:07Z</time>
      </trkpt>
      <trkpt lat="42.71781" lon="2.66917">
        <ele>227.3</ele>
        <time>2021-03-28T11:51:08Z</time>
      </trkpt>
      <trkpt lat="42.71781" lon="2.66917">
        <ele>227.3</ele>
        <time>2021-03-28T11:51:08Z</time>
      </trkpt>
      <trkpt lat="42.71766" lon="2.66922">
        <ele>226.4</ele>
        <time>2021-03-28T11:51:10Z</time>
      </trkpt>
      <trkpt lat="42.71766" lon="2.66922">
        <ele>226.4</ele>
        <time>2021-03-28T11:51:10Z</time>
      </trkpt>
      <trkpt lat="42.71752" lon="2.66926">
        <ele>225.3</ele>
        <time>2021-03-28T11:51:11Z</time>
      </trkpt>
      <trkpt lat="42.71752" lon="2.66926">
        <ele>225.3</ele>
        <time>2021-03-28T11:51:11Z</time>
      </trkpt>
      <trkpt lat="42.71737" lon="2.6693">
        <ele>223.8</ele>
        <time>2021-03-28T11:51:13Z</time>
      </trkpt>
      <trkpt lat="42.71737" lon="2.6693">
        <ele>223.8</ele>
        <time>2021-03-28T11:51:13Z</time>
      </trkpt>
      <trkpt lat="42.71721" lon="2.66936">
        <ele>222.8</ele>
        <time>2021-03-28T11:51:15Z</time>
      </trkpt>
      <trkpt lat="42.71721" lon="2.66936">
        <ele>222.8</ele>
        <time>2021-03-28T11:51:15Z</time>
      </trkpt>
      <trkpt lat="42.71707" lon="2.66942">
        <ele>223.8</ele>
        <time>2021-03-28T11:51:16Z</time>
      </trkpt>
      <trkpt lat="42.71707" lon="2.66942">
        <ele>223.8</ele>
        <time>2021-03-28T11:51:16Z</time>
      </trkpt>
      <trkpt lat="42.71694" lon="2.66948">
        <ele>224.8</ele>
        <time>2021-03-28T11:51:17Z</time>
      </trkpt>
      <trkpt lat="42.71694" lon="2.66948">
        <ele>224.8</ele>
        <time>2021-03-28T11:51:17Z</time>
      </trkpt>
      <trkpt lat="42.7168" lon="2.66956">
        <ele>222.8</ele>
        <time>2021-03-28T11:51:19Z</time>
      </trkpt>
      <trkpt lat="42.7168" lon="2.66956">
        <ele>222.8</ele>
        <time>2021-03-28T11:51:19Z</time>
      </trkpt>
      <trkpt lat="42.71667" lon="2.66963">
        <ele>221.1</ele>
        <time>2021-03-28T11:51:20Z</time>
      </trkpt>
      <trkpt lat="42.71667" lon="2.66963">
        <ele>221.1</ele>
        <time>2021-03-28T11:51:20Z</time>
      </trkpt>
      <trkpt lat="42.71652" lon="2.66971">
        <ele>220.1</ele>
        <time>2021-03-28T11:51:22Z</time>
      </trkpt>
      <trkpt lat="42.71652" lon="2.66971">
        <ele>220.1</ele>
        <time>2021-03-28T11:51:22Z</time>
      </trkpt>
      <trkpt lat="42.71636" lon="2.66979">
        <ele>219</ele>
        <time>2021-03-28T11:51:24Z</time>
      </trkpt>
      <trkpt lat="42.71636" lon="2.66979">
        <ele>219</ele>
        <time>2021-03-28T11:51:24Z</time>
      </trkpt>
      <trkpt lat="42.71619" lon="2.66988">
        <ele>217.8</ele>
        <time>2021-03-28T11:51:26Z</time>
      </trkpt>
      <trkpt lat="42.71619" lon="2.66988">
        <ele>217.8</ele>
        <time>2021-03-28T11:51:26Z</time>
      </trkpt>
      <trkpt lat="42.71605" lon="2.66993">
        <ele>216.6</ele>
        <time>2021-03-28T11:51:27Z</time>
      </trkpt>
      <trkpt lat="42.71605" lon="2.66993">
        <ele>216.6</ele>
        <time>2021-03-28T11:51:27Z</time>
      </trkpt>
      <trkpt lat="42.7159" lon="2.66994">
        <ele>214.9</ele>
        <time>2021-03-28T11:51:29Z</time>
      </trkpt>
      <trkpt lat="42.7159" lon="2.66994">
        <ele>214.9</ele>
        <time>2021-03-28T11:51:29Z</time>
      </trkpt>
      <trkpt lat="42.71573" lon="2.66994">
        <ele>214</ele>
        <time>2021-03-28T11:51:31Z</time>
      </trkpt>
      <trkpt lat="42.71573" lon="2.66994">
        <ele>214</ele>
        <time>2021-03-28T11:51:31Z</time>
      </trkpt>
      <trkpt lat="42.71556" lon="2.66996">
        <ele>214.5</ele>
        <time>2021-03-28T11:51:33Z</time>
      </trkpt>
      <trkpt lat="42.71556" lon="2.66996">
        <ele>214.5</ele>
        <time>2021-03-28T11:51:33Z</time>
      </trkpt>
      <trkpt lat="42.71542" lon="2.66998">
        <ele>214.5</ele>
        <time>2021-03-28T11:51:34Z</time>
      </trkpt>
      <trkpt lat="42.71542" lon="2.66998">
        <ele>214.5</ele>
        <time>2021-03-28T11:51:34Z</time>
      </trkpt>
      <trkpt lat="42.71527" lon="2.67005">
        <ele>215.2</ele>
        <time>2021-03-28T11:51:36Z</time>
      </trkpt>
      <trkpt lat="42.71527" lon="2.67005">
        <ele>215.2</ele>
        <time>2021-03-28T11:51:36Z</time>
      </trkpt>
      <trkpt lat="42.71515" lon="2.67012">
        <ele>213.4</ele>
        <time>2021-03-28T11:51:37Z</time>
      </trkpt>
      <trkpt lat="42.71515" lon="2.67012">
        <ele>213.4</ele>
        <time>2021-03-28T11:51:37Z</time>
      </trkpt>
      <trkpt lat="42.71504" lon="2.6702">
        <ele>213</ele>
        <time>2021-03-28T11:51:38Z</time>
      </trkpt>
      <trkpt lat="42.71504" lon="2.6702">
        <ele>213</ele>
        <time>2021-03-28T11:51:38Z</time>
      </trkpt>
      <trkpt lat="42.71491" lon="2.67032">
        <ele>212.3</ele>
        <time>2021-03-28T11:51:40Z</time>
      </trkpt>
      <trkpt lat="42.71491" lon="2.67032">
        <ele>212.3</ele>
        <time>2021-03-28T11:51:40Z</time>
      </trkpt>
      <trkpt lat="42.71476" lon="2.67045">
        <ele>211</ele>
        <time>2021-03-28T11:51:42Z</time>
      </trkpt>
      <trkpt lat="42.71476" lon="2.67045">
        <ele>211</ele>
        <time>2021-03-28T11:51:42Z</time>
      </trkpt>
      <trkpt lat="42.71464" lon="2.67056">
        <ele>210.6</ele>
        <time>2021-03-28T11:51:43Z</time>
      </trkpt>
      <trkpt lat="42.71464" lon="2.67056">
        <ele>210.6</ele>
        <time>2021-03-28T11:51:43Z</time>
      </trkpt>
      <trkpt lat="42.71452" lon="2.67071">
        <ele>210.1</ele>
        <time>2021-03-28T11:51:45Z</time>
      </trkpt>
      <trkpt lat="42.71452" lon="2.67071">
        <ele>210.1</ele>
        <time>2021-03-28T11:51:45Z</time>
      </trkpt>
      <trkpt lat="42.71442" lon="2.67085">
        <ele>210.3</ele>
        <time>2021-03-28T11:51:46Z</time>
      </trkpt>
      <trkpt lat="42.71442" lon="2.67085">
        <ele>210.3</ele>
        <time>2021-03-28T11:51:46Z</time>
      </trkpt>
      <trkpt lat="42.71434" lon="2.67098">
        <ele>209.8</ele>
        <time>2021-03-28T11:51:47Z</time>
      </trkpt>
      <trkpt lat="42.71434" lon="2.67098">
        <ele>209.8</ele>
        <time>2021-03-28T11:51:47Z</time>
      </trkpt>
      <trkpt lat="42.71428" lon="2.67112">
        <ele>209.5</ele>
        <time>2021-03-28T11:51:48Z</time>
      </trkpt>
      <trkpt lat="42.71428" lon="2.67112">
        <ele>209.5</ele>
        <time>2021-03-28T11:51:48Z</time>
      </trkpt>
      <trkpt lat="42.71422" lon="2.67129">
        <ele>208</ele>
        <time>2021-03-28T11:51:50Z</time>
      </trkpt>
      <trkpt lat="42.71422" lon="2.67129">
        <ele>208</ele>
        <time>2021-03-28T11:51:50Z</time>
      </trkpt>
      <trkpt lat="42.71419" lon="2.6715">
        <ele>207.1</ele>
        <time>2021-03-28T11:51:52Z</time>
      </trkpt>
      <trkpt lat="42.71419" lon="2.6715">
        <ele>207.1</ele>
        <time>2021-03-28T11:51:52Z</time>
      </trkpt>
      <trkpt lat="42.71417" lon="2.67169">
        <ele>206.8</ele>
        <time>2021-03-28T11:51:53Z</time>
      </trkpt>
      <trkpt lat="42.71417" lon="2.67169">
        <ele>206.8</ele>
        <time>2021-03-28T11:51:53Z</time>
      </trkpt>
      <trkpt lat="42.71417" lon="2.67186">
        <ele>205.6</ele>
        <time>2021-03-28T11:51:54Z</time>
      </trkpt>
      <trkpt lat="42.71417" lon="2.67186">
        <ele>205.6</ele>
        <time>2021-03-28T11:51:54Z</time>
      </trkpt>
      <trkpt lat="42.7142" lon="2.67205">
        <ele>204.4</ele>
        <time>2021-03-28T11:51:56Z</time>
      </trkpt>
      <trkpt lat="42.7142" lon="2.67205">
        <ele>204.4</ele>
        <time>2021-03-28T11:51:56Z</time>
      </trkpt>
      <trkpt lat="42.71427" lon="2.67225">
        <ele>202.7</ele>
        <time>2021-03-28T11:51:58Z</time>
      </trkpt>
      <trkpt lat="42.71427" lon="2.67225">
        <ele>202.7</ele>
        <time>2021-03-28T11:51:58Z</time>
      </trkpt>
      <trkpt lat="42.71433" lon="2.67243">
        <ele>200.9</ele>
        <time>2021-03-28T11:51:59Z</time>
      </trkpt>
      <trkpt lat="42.71433" lon="2.67243">
        <ele>200.9</ele>
        <time>2021-03-28T11:51:59Z</time>
      </trkpt>
      <trkpt lat="42.71439" lon="2.67265">
        <ele>198.2</ele>
        <time>2021-03-28T11:52:01Z</time>
      </trkpt>
      <trkpt lat="42.71439" lon="2.67265">
        <ele>198.2</ele>
        <time>2021-03-28T11:52:01Z</time>
      </trkpt>
      <trkpt lat="42.71442" lon="2.67284">
        <ele>195.7</ele>
        <time>2021-03-28T11:52:02Z</time>
      </trkpt>
      <trkpt lat="42.71442" lon="2.67284">
        <ele>195.7</ele>
        <time>2021-03-28T11:52:02Z</time>
      </trkpt>
      <trkpt lat="42.71444" lon="2.67302">
        <ele>194.1</ele>
        <time>2021-03-28T11:52:03Z</time>
      </trkpt>
      <trkpt lat="42.71444" lon="2.67302">
        <ele>194.1</ele>
        <time>2021-03-28T11:52:03Z</time>
      </trkpt>
      <trkpt lat="42.71444" lon="2.67319">
        <ele>194.3</ele>
        <time>2021-03-28T11:52:04Z</time>
      </trkpt>
      <trkpt lat="42.71444" lon="2.67319">
        <ele>194.3</ele>
        <time>2021-03-28T11:52:04Z</time>
      </trkpt>
      <trkpt lat="42.71441" lon="2.67339">
        <ele>194.3</ele>
        <time>2021-03-28T11:52:06Z</time>
      </trkpt>
      <trkpt lat="42.71441" lon="2.67339">
        <ele>194.3</ele>
        <time>2021-03-28T11:52:06Z</time>
      </trkpt>
      <trkpt lat="42.71438" lon="2.67356">
        <ele>194.1</ele>
        <time>2021-03-28T11:52:07Z</time>
      </trkpt>
      <trkpt lat="42.71438" lon="2.67356">
        <ele>194.1</ele>
        <time>2021-03-28T11:52:07Z</time>
      </trkpt>
      <trkpt lat="42.71433" lon="2.67377">
        <ele>193.2</ele>
        <time>2021-03-28T11:52:09Z</time>
      </trkpt>
      <trkpt lat="42.71433" lon="2.67377">
        <ele>193.2</ele>
        <time>2021-03-28T11:52:09Z</time>
      </trkpt>
      <trkpt lat="42.71428" lon="2.67395">
        <ele>192.7</ele>
        <time>2021-03-28T11:52:10Z</time>
      </trkpt>
      <trkpt lat="42.71428" lon="2.67395">
        <ele>192.7</ele>
        <time>2021-03-28T11:52:10Z</time>
      </trkpt>
      <trkpt lat="42.71423" lon="2.67411">
        <ele>192.4</ele>
        <time>2021-03-28T11:52:11Z</time>
      </trkpt>
      <trkpt lat="42.71423" lon="2.67411">
        <ele>192.4</ele>
        <time>2021-03-28T11:52:11Z</time>
      </trkpt>
      <trkpt lat="42.71418" lon="2.6743">
        <ele>192.2</ele>
        <time>2021-03-28T11:52:13Z</time>
      </trkpt>
      <trkpt lat="42.71418" lon="2.6743">
        <ele>192.2</ele>
        <time>2021-03-28T11:52:13Z</time>
      </trkpt>
      <trkpt lat="42.71413" lon="2.67447">
        <ele>192</ele>
        <time>2021-03-28T11:52:14Z</time>
      </trkpt>
      <trkpt lat="42.71413" lon="2.67447">
        <ele>192</ele>
        <time>2021-03-28T11:52:14Z</time>
      </trkpt>
      <trkpt lat="42.7141" lon="2.67463">
        <ele>191</ele>
        <time>2021-03-28T11:52:15Z</time>
      </trkpt>
      <trkpt lat="42.7141" lon="2.67463">
        <ele>191</ele>
        <time>2021-03-28T11:52:15Z</time>
      </trkpt>
      <trkpt lat="42.71408" lon="2.67483">
        <ele>190.1</ele>
        <time>2021-03-28T11:52:17Z</time>
      </trkpt>
      <trkpt lat="42.71408" lon="2.67483">
        <ele>190.1</ele>
        <time>2021-03-28T11:52:17Z</time>
      </trkpt>
      <trkpt lat="42.71407" lon="2.67504">
        <ele>189.4</ele>
        <time>2021-03-28T11:52:19Z</time>
      </trkpt>
      <trkpt lat="42.71407" lon="2.67504">
        <ele>189.4</ele>
        <time>2021-03-28T11:52:19Z</time>
      </trkpt>
      <trkpt lat="42.71408" lon="2.67527">
        <ele>188.1</ele>
        <time>2021-03-28T11:52:21Z</time>
      </trkpt>
      <trkpt lat="42.71408" lon="2.67527">
        <ele>188.1</ele>
        <time>2021-03-28T11:52:21Z</time>
      </trkpt>
      <trkpt lat="42.71409" lon="2.67547">
        <ele>187.2</ele>
        <time>2021-03-28T11:52:22Z</time>
      </trkpt>
      <trkpt lat="42.71409" lon="2.67547">
        <ele>187.2</ele>
        <time>2021-03-28T11:52:22Z</time>
      </trkpt>
      <trkpt lat="42.7141" lon="2.67564">
        <ele>186.6</ele>
        <time>2021-03-28T11:52:23Z</time>
      </trkpt>
      <trkpt lat="42.7141" lon="2.67564">
        <ele>186.6</ele>
        <time>2021-03-28T11:52:23Z</time>
      </trkpt>
      <trkpt lat="42.71411" lon="2.67581">
        <ele>186.1</ele>
        <time>2021-03-28T11:52:24Z</time>
      </trkpt>
      <trkpt lat="42.71411" lon="2.67581">
        <ele>186.1</ele>
        <time>2021-03-28T11:52:24Z</time>
      </trkpt>
      <trkpt lat="42.71413" lon="2.67596">
        <ele>185.8</ele>
        <time>2021-03-28T11:52:25Z</time>
      </trkpt>
      <trkpt lat="42.71413" lon="2.67596">
        <ele>185.8</ele>
        <time>2021-03-28T11:52:25Z</time>
      </trkpt>
      <trkpt lat="42.71417" lon="2.67613">
        <ele>185.9</ele>
        <time>2021-03-28T11:52:27Z</time>
      </trkpt>
      <trkpt lat="42.71417" lon="2.67613">
        <ele>185.9</ele>
        <time>2021-03-28T11:52:27Z</time>
      </trkpt>
      <trkpt lat="42.71424" lon="2.67632">
        <ele>184.8</ele>
        <time>2021-03-28T11:52:29Z</time>
      </trkpt>
      <trkpt lat="42.71424" lon="2.67632">
        <ele>184.8</ele>
        <time>2021-03-28T11:52:29Z</time>
      </trkpt>
      <trkpt lat="42.71431" lon="2.67647">
        <ele>184</ele>
        <time>2021-03-28T11:52:30Z</time>
      </trkpt>
      <trkpt lat="42.71431" lon="2.67647">
        <ele>184</ele>
        <time>2021-03-28T11:52:30Z</time>
      </trkpt>
      <trkpt lat="42.71439" lon="2.67665">
        <ele>182.7</ele>
        <time>2021-03-28T11:52:32Z</time>
      </trkpt>
      <trkpt lat="42.71439" lon="2.67665">
        <ele>182.7</ele>
        <time>2021-03-28T11:52:32Z</time>
      </trkpt>
      <trkpt lat="42.71446" lon="2.67681">
        <ele>179</ele>
        <time>2021-03-28T11:52:33Z</time>
      </trkpt>
      <trkpt lat="42.71446" lon="2.67681">
        <ele>179</ele>
        <time>2021-03-28T11:52:33Z</time>
      </trkpt>
      <trkpt lat="42.71451" lon="2.67702">
        <ele>174.7</ele>
        <time>2021-03-28T11:52:35Z</time>
      </trkpt>
      <trkpt lat="42.71451" lon="2.67702">
        <ele>174.7</ele>
        <time>2021-03-28T11:52:35Z</time>
      </trkpt>
      <trkpt lat="42.71454" lon="2.6772">
        <ele>172.3</ele>
        <time>2021-03-28T11:52:36Z</time>
      </trkpt>
      <trkpt lat="42.71454" lon="2.6772">
        <ele>172.3</ele>
        <time>2021-03-28T11:52:36Z</time>
      </trkpt>
      <trkpt lat="42.71455" lon="2.67737">
        <ele>172.9</ele>
        <time>2021-03-28T11:52:37Z</time>
      </trkpt>
      <trkpt lat="42.71455" lon="2.67737">
        <ele>172.9</ele>
        <time>2021-03-28T11:52:37Z</time>
      </trkpt>
      <trkpt lat="42.71451" lon="2.67755">
        <ele>172.8</ele>
        <time>2021-03-28T11:52:39Z</time>
      </trkpt>
      <trkpt lat="42.71451" lon="2.67755">
        <ele>172.8</ele>
        <time>2021-03-28T11:52:39Z</time>
      </trkpt>
      <trkpt lat="42.71446" lon="2.67771">
        <ele>174.1</ele>
        <time>2021-03-28T11:52:40Z</time>
      </trkpt>
      <trkpt lat="42.71446" lon="2.67771">
        <ele>174.1</ele>
        <time>2021-03-28T11:52:40Z</time>
      </trkpt>
      <trkpt lat="42.71441" lon="2.67785">
        <ele>175.3</ele>
        <time>2021-03-28T11:52:41Z</time>
      </trkpt>
      <trkpt lat="42.71441" lon="2.67785">
        <ele>175.3</ele>
        <time>2021-03-28T11:52:41Z</time>
      </trkpt>
      <trkpt lat="42.71436" lon="2.67797">
        <ele>175.8</ele>
        <time>2021-03-28T11:52:42Z</time>
      </trkpt>
      <trkpt lat="42.71436" lon="2.67797">
        <ele>175.8</ele>
        <time>2021-03-28T11:52:42Z</time>
      </trkpt>
      <trkpt lat="42.7143" lon="2.67809">
        <ele>175.9</ele>
        <time>2021-03-28T11:52:43Z</time>
      </trkpt>
      <trkpt lat="42.7143" lon="2.67809">
        <ele>175.9</ele>
        <time>2021-03-28T11:52:43Z</time>
      </trkpt>
      <trkpt lat="42.71424" lon="2.67824">
        <ele>176.2</ele>
        <time>2021-03-28T11:52:45Z</time>
      </trkpt>
      <trkpt lat="42.71424" lon="2.67824">
        <ele>176.2</ele>
        <time>2021-03-28T11:52:45Z</time>
      </trkpt>
      <trkpt lat="42.71418" lon="2.67837">
        <ele>176.4</ele>
        <time>2021-03-28T11:52:46Z</time>
      </trkpt>
      <trkpt lat="42.71418" lon="2.67837">
        <ele>176.4</ele>
        <time>2021-03-28T11:52:46Z</time>
      </trkpt>
      <trkpt lat="42.71412" lon="2.67853">
        <ele>175.6</ele>
        <time>2021-03-28T11:52:48Z</time>
      </trkpt>
      <trkpt lat="42.71412" lon="2.67853">
        <ele>175.6</ele>
        <time>2021-03-28T11:52:48Z</time>
      </trkpt>
      <trkpt lat="42.71407" lon="2.67868">
        <ele>175.4</ele>
        <time>2021-03-28T11:52:49Z</time>
      </trkpt>
      <trkpt lat="42.71407" lon="2.67868">
        <ele>175.4</ele>
        <time>2021-03-28T11:52:49Z</time>
      </trkpt>
      <trkpt lat="42.71403" lon="2.67882">
        <ele>175.5</ele>
        <time>2021-03-28T11:52:50Z</time>
      </trkpt>
      <trkpt lat="42.71403" lon="2.67882">
        <ele>175.5</ele>
        <time>2021-03-28T11:52:50Z</time>
      </trkpt>
      <trkpt lat="42.71399" lon="2.67898">
        <ele>175.5</ele>
        <time>2021-03-28T11:52:52Z</time>
      </trkpt>
      <trkpt lat="42.71399" lon="2.67898">
        <ele>175.5</ele>
        <time>2021-03-28T11:52:52Z</time>
      </trkpt>
      <trkpt lat="42.71395" lon="2.67917">
        <ele>175.4</ele>
        <time>2021-03-28T11:52:54Z</time>
      </trkpt>
      <trkpt lat="42.71395" lon="2.67917">
        <ele>175.4</ele>
        <time>2021-03-28T11:52:54Z</time>
      </trkpt>
      <trkpt lat="42.71392" lon="2.67933">
        <ele>175.3</ele>
        <time>2021-03-28T11:52:55Z</time>
      </trkpt>
      <trkpt lat="42.71392" lon="2.67933">
        <ele>175.3</ele>
        <time>2021-03-28T11:52:55Z</time>
      </trkpt>
      <trkpt lat="42.7139" lon="2.67951">
        <ele>175.4</ele>
        <time>2021-03-28T11:52:57Z</time>
      </trkpt>
      <trkpt lat="42.7139" lon="2.67951">
        <ele>175.4</ele>
        <time>2021-03-28T11:52:57Z</time>
      </trkpt>
      <trkpt lat="42.71389" lon="2.6797">
        <ele>175.8</ele>
        <time>2021-03-28T11:52:59Z</time>
      </trkpt>
      <trkpt lat="42.71389" lon="2.6797">
        <ele>175.8</ele>
        <time>2021-03-28T11:52:59Z</time>
      </trkpt>
      <trkpt lat="42.71389" lon="2.67989">
        <ele>175.4</ele>
        <time>2021-03-28T11:53:01Z</time>
      </trkpt>
      <trkpt lat="42.71389" lon="2.67989">
        <ele>175.4</ele>
        <time>2021-03-28T11:53:01Z</time>
      </trkpt>
      <trkpt lat="42.7139" lon="2.68004">
        <ele>175.3</ele>
        <time>2021-03-28T11:53:02Z</time>
      </trkpt>
      <trkpt lat="42.7139" lon="2.68004">
        <ele>175.3</ele>
        <time>2021-03-28T11:53:02Z</time>
      </trkpt>
      <trkpt lat="42.71393" lon="2.68018">
        <ele>175.8</ele>
        <time>2021-03-28T11:53:03Z</time>
      </trkpt>
      <trkpt lat="42.71393" lon="2.68018">
        <ele>175.8</ele>
        <time>2021-03-28T11:53:03Z</time>
      </trkpt>
      <trkpt lat="42.71396" lon="2.6803">
        <ele>176.4</ele>
        <time>2021-03-28T11:53:04Z</time>
      </trkpt>
      <trkpt lat="42.71396" lon="2.6803">
        <ele>176.4</ele>
        <time>2021-03-28T11:53:04Z</time>
      </trkpt>
      <trkpt lat="42.714" lon="2.68041">
        <ele>175.9</ele>
        <time>2021-03-28T11:53:05Z</time>
      </trkpt>
      <trkpt lat="42.714" lon="2.68041">
        <ele>175.9</ele>
        <time>2021-03-28T11:53:05Z</time>
      </trkpt>
      <trkpt lat="42.71408" lon="2.68053">
        <ele>174.1</ele>
        <time>2021-03-28T11:53:07Z</time>
      </trkpt>
      <trkpt lat="42.71408" lon="2.68053">
        <ele>174.1</ele>
        <time>2021-03-28T11:53:07Z</time>
      </trkpt>
      <trkpt lat="42.71416" lon="2.68064">
        <ele>173.6</ele>
        <time>2021-03-28T11:53:08Z</time>
      </trkpt>
      <trkpt lat="42.71416" lon="2.68064">
        <ele>173.6</ele>
        <time>2021-03-28T11:53:08Z</time>
      </trkpt>
      <trkpt lat="42.71425" lon="2.68077">
        <ele>174.3</ele>
        <time>2021-03-28T11:53:10Z</time>
      </trkpt>
      <trkpt lat="42.71425" lon="2.68077">
        <ele>174.3</ele>
        <time>2021-03-28T11:53:10Z</time>
      </trkpt>
      <trkpt lat="42.71433" lon="2.6809">
        <ele>171.8</ele>
        <time>2021-03-28T11:53:11Z</time>
      </trkpt>
      <trkpt lat="42.71433" lon="2.6809">
        <ele>171.8</ele>
        <time>2021-03-28T11:53:11Z</time>
      </trkpt>
      <trkpt lat="42.71439" lon="2.68103">
        <ele>170.2</ele>
        <time>2021-03-28T11:53:12Z</time>
      </trkpt>
      <trkpt lat="42.71439" lon="2.68103">
        <ele>170.2</ele>
        <time>2021-03-28T11:53:12Z</time>
      </trkpt>
      <trkpt lat="42.71443" lon="2.68117">
        <ele>167.5</ele>
        <time>2021-03-28T11:53:13Z</time>
      </trkpt>
      <trkpt lat="42.71443" lon="2.68117">
        <ele>167.5</ele>
        <time>2021-03-28T11:53:13Z</time>
      </trkpt>
      <trkpt lat="42.71444" lon="2.68135">
        <ele>160.6</ele>
        <time>2021-03-28T11:53:15Z</time>
      </trkpt>
      <trkpt lat="42.71444" lon="2.68135">
        <ele>160.6</ele>
        <time>2021-03-28T11:53:15Z</time>
      </trkpt>
      <trkpt lat="42.71444" lon="2.68151">
        <ele>162.4</ele>
        <time>2021-03-28T11:53:16Z</time>
      </trkpt>
      <trkpt lat="42.71444" lon="2.68151">
        <ele>162.4</ele>
        <time>2021-03-28T11:53:16Z</time>
      </trkpt>
      <trkpt lat="42.71441" lon="2.68168">
        <ele>166.5</ele>
        <time>2021-03-28T11:53:18Z</time>
      </trkpt>
      <trkpt lat="42.71441" lon="2.68168">
        <ele>166.5</ele>
        <time>2021-03-28T11:53:18Z</time>
      </trkpt>
      <trkpt lat="42.71435" lon="2.68183">
        <ele>167.1</ele>
        <time>2021-03-28T11:53:20Z</time>
      </trkpt>
      <trkpt lat="42.71435" lon="2.68183">
        <ele>167.1</ele>
        <time>2021-03-28T11:53:20Z</time>
      </trkpt>
      <trkpt lat="42.71428" lon="2.68194">
        <ele>168.3</ele>
        <time>2021-03-28T11:53:21Z</time>
      </trkpt>
      <trkpt lat="42.71428" lon="2.68194">
        <ele>168.3</ele>
        <time>2021-03-28T11:53:21Z</time>
      </trkpt>
      <trkpt lat="42.71419" lon="2.68202">
        <ele>168.3</ele>
        <time>2021-03-28T11:53:23Z</time>
      </trkpt>
      <trkpt lat="42.71419" lon="2.68202">
        <ele>168.3</ele>
        <time>2021-03-28T11:53:23Z</time>
      </trkpt>
      <trkpt lat="42.71408" lon="2.6821">
        <ele>167.3</ele>
        <time>2021-03-28T11:53:25Z</time>
      </trkpt>
      <trkpt lat="42.71408" lon="2.6821">
        <ele>167.3</ele>
        <time>2021-03-28T11:53:25Z</time>
      </trkpt>
      <trkpt lat="42.71398" lon="2.68216">
        <ele>167.2</ele>
        <time>2021-03-28T11:53:26Z</time>
      </trkpt>
      <trkpt lat="42.71398" lon="2.68216">
        <ele>167.2</ele>
        <time>2021-03-28T11:53:26Z</time>
      </trkpt>
      <trkpt lat="42.71387" lon="2.68221">
        <ele>167.5</ele>
        <time>2021-03-28T11:53:28Z</time>
      </trkpt>
      <trkpt lat="42.71387" lon="2.68221">
        <ele>167.5</ele>
        <time>2021-03-28T11:53:28Z</time>
      </trkpt>
      <trkpt lat="42.71375" lon="2.68228">
        <ele>167</ele>
        <time>2021-03-28T11:53:30Z</time>
      </trkpt>
      <trkpt lat="42.71375" lon="2.68228">
        <ele>167</ele>
        <time>2021-03-28T11:53:30Z</time>
      </trkpt>
      <trkpt lat="42.71364" lon="2.68233">
        <ele>166.5</ele>
        <time>2021-03-28T11:53:31Z</time>
      </trkpt>
      <trkpt lat="42.71364" lon="2.68233">
        <ele>166.5</ele>
        <time>2021-03-28T11:53:31Z</time>
      </trkpt>
      <trkpt lat="42.71355" lon="2.68239">
        <ele>165.7</ele>
        <time>2021-03-28T11:53:32Z</time>
      </trkpt>
      <trkpt lat="42.71355" lon="2.68239">
        <ele>165.7</ele>
        <time>2021-03-28T11:53:32Z</time>
      </trkpt>
      <trkpt lat="42.71347" lon="2.68243">
        <ele>165.7</ele>
        <time>2021-03-28T11:53:33Z</time>
      </trkpt>
      <trkpt lat="42.71347" lon="2.68243">
        <ele>165.7</ele>
        <time>2021-03-28T11:53:33Z</time>
      </trkpt>
      <trkpt lat="42.71338" lon="2.6825">
        <ele>167.2</ele>
        <time>2021-03-28T11:53:35Z</time>
      </trkpt>
      <trkpt lat="42.71338" lon="2.6825">
        <ele>167.2</ele>
        <time>2021-03-28T11:53:35Z</time>
      </trkpt>
      <trkpt lat="42.71329" lon="2.68256">
        <ele>167.2</ele>
        <time>2021-03-28T11:53:36Z</time>
      </trkpt>
      <trkpt lat="42.71329" lon="2.68256">
        <ele>167.2</ele>
        <time>2021-03-28T11:53:36Z</time>
      </trkpt>
      <trkpt lat="42.7132" lon="2.68263">
        <ele>167</ele>
        <time>2021-03-28T11:53:38Z</time>
      </trkpt>
      <trkpt lat="42.7132" lon="2.68263">
        <ele>167</ele>
        <time>2021-03-28T11:53:38Z</time>
      </trkpt>
      <trkpt lat="42.7131" lon="2.68271">
        <ele>166.4</ele>
        <time>2021-03-28T11:53:40Z</time>
      </trkpt>
      <trkpt lat="42.7131" lon="2.68271">
        <ele>166.4</ele>
        <time>2021-03-28T11:53:40Z</time>
      </trkpt>
      <trkpt lat="42.71301" lon="2.68277">
        <ele>165.8</ele>
        <time>2021-03-28T11:53:41Z</time>
      </trkpt>
      <trkpt lat="42.71301" lon="2.68277">
        <ele>165.8</ele>
        <time>2021-03-28T11:53:41Z</time>
      </trkpt>
      <trkpt lat="42.71293" lon="2.68283">
        <ele>165.6</ele>
        <time>2021-03-28T11:53:42Z</time>
      </trkpt>
      <trkpt lat="42.71293" lon="2.68283">
        <ele>165.6</ele>
        <time>2021-03-28T11:53:42Z</time>
      </trkpt>
      <trkpt lat="42.71283" lon="2.6829">
        <ele>165.3</ele>
        <time>2021-03-28T11:53:44Z</time>
      </trkpt>
      <trkpt lat="42.71283" lon="2.6829">
        <ele>165.3</ele>
        <time>2021-03-28T11:53:44Z</time>
      </trkpt>
      <trkpt lat="42.71275" lon="2.68296">
        <ele>164.8</ele>
        <time>2021-03-28T11:53:45Z</time>
      </trkpt>
      <trkpt lat="42.71275" lon="2.68296">
        <ele>164.8</ele>
        <time>2021-03-28T11:53:45Z</time>
      </trkpt>
      <trkpt lat="42.71266" lon="2.68304">
        <ele>164.2</ele>
        <time>2021-03-28T11:53:47Z</time>
      </trkpt>
      <trkpt lat="42.71266" lon="2.68304">
        <ele>164.2</ele>
        <time>2021-03-28T11:53:47Z</time>
      </trkpt>
      <trkpt lat="42.71257" lon="2.6831">
        <ele>163.5</ele>
        <time>2021-03-28T11:53:48Z</time>
      </trkpt>
      <trkpt lat="42.71257" lon="2.6831">
        <ele>163.5</ele>
        <time>2021-03-28T11:53:48Z</time>
      </trkpt>
      <trkpt lat="42.71248" lon="2.68317">
        <ele>162.8</ele>
        <time>2021-03-28T11:53:50Z</time>
      </trkpt>
      <trkpt lat="42.71248" lon="2.68317">
        <ele>162.8</ele>
        <time>2021-03-28T11:53:50Z</time>
      </trkpt>
      <trkpt lat="42.71239" lon="2.68322">
        <ele>162.6</ele>
        <time>2021-03-28T11:53:51Z</time>
      </trkpt>
      <trkpt lat="42.71239" lon="2.68322">
        <ele>162.6</ele>
        <time>2021-03-28T11:53:51Z</time>
      </trkpt>
      <trkpt lat="42.71231" lon="2.68328">
        <ele>163</ele>
        <time>2021-03-28T11:53:52Z</time>
      </trkpt>
      <trkpt lat="42.71231" lon="2.68328">
        <ele>163</ele>
        <time>2021-03-28T11:53:52Z</time>
      </trkpt>
      <trkpt lat="42.71221" lon="2.68332">
        <ele>163.6</ele>
        <time>2021-03-28T11:53:54Z</time>
      </trkpt>
      <trkpt lat="42.71221" lon="2.68332">
        <ele>163.6</ele>
        <time>2021-03-28T11:53:54Z</time>
      </trkpt>
      <trkpt lat="42.71212" lon="2.68335">
        <ele>163.3</ele>
        <time>2021-03-28T11:53:55Z</time>
      </trkpt>
      <trkpt lat="42.71212" lon="2.68335">
        <ele>163.3</ele>
        <time>2021-03-28T11:53:55Z</time>
      </trkpt>
      <trkpt lat="42.71201" lon="2.68337">
        <ele>162.8</ele>
        <time>2021-03-28T11:53:57Z</time>
      </trkpt>
      <trkpt lat="42.71201" lon="2.68337">
        <ele>162.8</ele>
        <time>2021-03-28T11:53:57Z</time>
      </trkpt>
      <trkpt lat="42.71191" lon="2.68341">
        <ele>162.9</ele>
        <time>2021-03-28T11:53:58Z</time>
      </trkpt>
      <trkpt lat="42.71191" lon="2.68341">
        <ele>162.9</ele>
        <time>2021-03-28T11:53:58Z</time>
      </trkpt>
      <trkpt lat="42.71181" lon="2.68344">
        <ele>163.4</ele>
        <time>2021-03-28T11:54:00Z</time>
      </trkpt>
      <trkpt lat="42.71181" lon="2.68344">
        <ele>163.4</ele>
        <time>2021-03-28T11:54:00Z</time>
      </trkpt>
      <trkpt lat="42.71169" lon="2.68347">
        <ele>163.9</ele>
        <time>2021-03-28T11:54:02Z</time>
      </trkpt>
      <trkpt lat="42.71169" lon="2.68347">
        <ele>163.9</ele>
        <time>2021-03-28T11:54:02Z</time>
      </trkpt>
      <trkpt lat="42.71156" lon="2.6835">
        <ele>164.4</ele>
        <time>2021-03-28T11:54:04Z</time>
      </trkpt>
      <trkpt lat="42.71156" lon="2.6835">
        <ele>164.4</ele>
        <time>2021-03-28T11:54:04Z</time>
      </trkpt>
      <trkpt lat="42.71143" lon="2.68352">
        <ele>164.7</ele>
        <time>2021-03-28T11:54:06Z</time>
      </trkpt>
      <trkpt lat="42.71143" lon="2.68352">
        <ele>164.7</ele>
        <time>2021-03-28T11:54:06Z</time>
      </trkpt>
      <trkpt lat="42.71133" lon="2.68353">
        <ele>164.1</ele>
        <time>2021-03-28T11:54:07Z</time>
      </trkpt>
      <trkpt lat="42.71133" lon="2.68353">
        <ele>164.1</ele>
        <time>2021-03-28T11:54:07Z</time>
      </trkpt>
      <trkpt lat="42.71123" lon="2.68354">
        <ele>163.2</ele>
        <time>2021-03-28T11:54:08Z</time>
      </trkpt>
      <trkpt lat="42.71123" lon="2.68354">
        <ele>163.2</ele>
        <time>2021-03-28T11:54:08Z</time>
      </trkpt>
      <trkpt lat="42.71112" lon="2.68355">
        <ele>162.2</ele>
        <time>2021-03-28T11:54:10Z</time>
      </trkpt>
      <trkpt lat="42.71112" lon="2.68355">
        <ele>162.2</ele>
        <time>2021-03-28T11:54:10Z</time>
      </trkpt>
      <trkpt lat="42.71103" lon="2.68355">
        <ele>162</ele>
        <time>2021-03-28T11:54:11Z</time>
      </trkpt>
      <trkpt lat="42.71103" lon="2.68355">
        <ele>162</ele>
        <time>2021-03-28T11:54:11Z</time>
      </trkpt>
      <trkpt lat="42.71093" lon="2.68356">
        <ele>161.8</ele>
        <time>2021-03-28T11:54:13Z</time>
      </trkpt>
      <trkpt lat="42.71093" lon="2.68356">
        <ele>161.8</ele>
        <time>2021-03-28T11:54:13Z</time>
      </trkpt>
      <trkpt lat="42.71084" lon="2.68356">
        <ele>161.7</ele>
        <time>2021-03-28T11:54:14Z</time>
      </trkpt>
      <trkpt lat="42.71084" lon="2.68356">
        <ele>161.7</ele>
        <time>2021-03-28T11:54:14Z</time>
      </trkpt>
      <trkpt lat="42.71076" lon="2.68356">
        <ele>162</ele>
        <time>2021-03-28T11:54:15Z</time>
      </trkpt>
      <trkpt lat="42.71076" lon="2.68356">
        <ele>162</ele>
        <time>2021-03-28T11:54:15Z</time>
      </trkpt>
      <trkpt lat="42.71066" lon="2.68356">
        <ele>162.4</ele>
        <time>2021-03-28T11:54:17Z</time>
      </trkpt>
      <trkpt lat="42.71066" lon="2.68356">
        <ele>162.4</ele>
        <time>2021-03-28T11:54:17Z</time>
      </trkpt>
      <trkpt lat="42.71056" lon="2.68358">
        <ele>162.9</ele>
        <time>2021-03-28T11:54:19Z</time>
      </trkpt>
      <trkpt lat="42.71056" lon="2.68358">
        <ele>162.9</ele>
        <time>2021-03-28T11:54:19Z</time>
      </trkpt>
      <trkpt lat="42.71045" lon="2.68358">
        <ele>162.9</ele>
        <time>2021-03-28T11:54:21Z</time>
      </trkpt>
      <trkpt lat="42.71045" lon="2.68358">
        <ele>162.9</ele>
        <time>2021-03-28T11:54:21Z</time>
      </trkpt>
      <trkpt lat="42.71034" lon="2.6836">
        <ele>163</ele>
        <time>2021-03-28T11:54:23Z</time>
      </trkpt>
      <trkpt lat="42.71034" lon="2.6836">
        <ele>163</ele>
        <time>2021-03-28T11:54:23Z</time>
      </trkpt>
      <trkpt lat="42.71023" lon="2.68362">
        <ele>163</ele>
        <time>2021-03-28T11:54:25Z</time>
      </trkpt>
      <trkpt lat="42.71023" lon="2.68362">
        <ele>163</ele>
        <time>2021-03-28T11:54:25Z</time>
      </trkpt>
      <trkpt lat="42.71012" lon="2.68364">
        <ele>162.8</ele>
        <time>2021-03-28T11:54:26Z</time>
      </trkpt>
      <trkpt lat="42.71012" lon="2.68364">
        <ele>162.8</ele>
        <time>2021-03-28T11:54:26Z</time>
      </trkpt>
      <trkpt lat="42.71003" lon="2.68366">
        <ele>162.7</ele>
        <time>2021-03-28T11:54:27Z</time>
      </trkpt>
      <trkpt lat="42.71003" lon="2.68366">
        <ele>162.7</ele>
        <time>2021-03-28T11:54:27Z</time>
      </trkpt>
      <trkpt lat="42.70992" lon="2.68368">
        <ele>162.5</ele>
        <time>2021-03-28T11:54:29Z</time>
      </trkpt>
      <trkpt lat="42.70992" lon="2.68368">
        <ele>162.5</ele>
        <time>2021-03-28T11:54:29Z</time>
      </trkpt>
      <trkpt lat="42.7098" lon="2.68369">
        <ele>162</ele>
        <time>2021-03-28T11:54:31Z</time>
      </trkpt>
      <trkpt lat="42.7098" lon="2.68369">
        <ele>162</ele>
        <time>2021-03-28T11:54:31Z</time>
      </trkpt>
      <trkpt lat="42.7097" lon="2.68371">
        <ele>161.6</ele>
        <time>2021-03-28T11:54:32Z</time>
      </trkpt>
      <trkpt lat="42.7097" lon="2.68371">
        <ele>161.6</ele>
        <time>2021-03-28T11:54:32Z</time>
      </trkpt>
      <trkpt lat="42.70958" lon="2.68373">
        <ele>161.1</ele>
        <time>2021-03-28T11:54:34Z</time>
      </trkpt>
      <trkpt lat="42.70958" lon="2.68373">
        <ele>161.1</ele>
        <time>2021-03-28T11:54:34Z</time>
      </trkpt>
      <trkpt lat="42.70948" lon="2.68375">
        <ele>160.7</ele>
        <time>2021-03-28T11:54:35Z</time>
      </trkpt>
      <trkpt lat="42.70948" lon="2.68375">
        <ele>160.7</ele>
        <time>2021-03-28T11:54:35Z</time>
      </trkpt>
      <trkpt lat="42.70936" lon="2.68377">
        <ele>160.3</ele>
        <time>2021-03-28T11:54:37Z</time>
      </trkpt>
      <trkpt lat="42.70936" lon="2.68377">
        <ele>160.3</ele>
        <time>2021-03-28T11:54:37Z</time>
      </trkpt>
      <trkpt lat="42.70923" lon="2.68379">
        <ele>159.7</ele>
        <time>2021-03-28T11:54:39Z</time>
      </trkpt>
      <trkpt lat="42.70923" lon="2.68379">
        <ele>159.7</ele>
        <time>2021-03-28T11:54:39Z</time>
      </trkpt>
      <trkpt lat="42.70912" lon="2.68381">
        <ele>158.6</ele>
        <time>2021-03-28T11:54:40Z</time>
      </trkpt>
      <trkpt lat="42.70912" lon="2.68381">
        <ele>158.6</ele>
        <time>2021-03-28T11:54:40Z</time>
      </trkpt>
      <trkpt lat="42.70899" lon="2.68383">
        <ele>156.2</ele>
        <time>2021-03-28T11:54:42Z</time>
      </trkpt>
      <trkpt lat="42.70899" lon="2.68383">
        <ele>156.2</ele>
        <time>2021-03-28T11:54:42Z</time>
      </trkpt>
      <trkpt lat="42.70885" lon="2.68385">
        <ele>154.7</ele>
        <time>2021-03-28T11:54:44Z</time>
      </trkpt>
      <trkpt lat="42.70885" lon="2.68385">
        <ele>154.7</ele>
        <time>2021-03-28T11:54:44Z</time>
      </trkpt>
      <trkpt lat="42.70872" lon="2.68387">
        <ele>156.3</ele>
        <time>2021-03-28T11:54:45Z</time>
      </trkpt>
      <trkpt lat="42.70872" lon="2.68387">
        <ele>156.3</ele>
        <time>2021-03-28T11:54:45Z</time>
      </trkpt>
      <trkpt lat="42.70859" lon="2.6839">
        <ele>157.9</ele>
        <time>2021-03-28T11:54:47Z</time>
      </trkpt>
      <trkpt lat="42.70859" lon="2.6839">
        <ele>157.9</ele>
        <time>2021-03-28T11:54:47Z</time>
      </trkpt>
      <trkpt lat="42.70845" lon="2.68395">
        <ele>157.4</ele>
        <time>2021-03-28T11:54:49Z</time>
      </trkpt>
      <trkpt lat="42.70845" lon="2.68395">
        <ele>157.4</ele>
        <time>2021-03-28T11:54:49Z</time>
      </trkpt>
      <trkpt lat="42.7083" lon="2.68401">
        <ele>157.2</ele>
        <time>2021-03-28T11:54:51Z</time>
      </trkpt>
      <trkpt lat="42.7083" lon="2.68401">
        <ele>157.2</ele>
        <time>2021-03-28T11:54:51Z</time>
      </trkpt>
      <trkpt lat="42.70816" lon="2.68409">
        <ele>157.1</ele>
        <time>2021-03-28T11:54:53Z</time>
      </trkpt>
      <trkpt lat="42.70816" lon="2.68409">
        <ele>157.1</ele>
        <time>2021-03-28T11:54:53Z</time>
      </trkpt>
      <trkpt lat="42.70801" lon="2.68419">
        <ele>156.7</ele>
        <time>2021-03-28T11:54:55Z</time>
      </trkpt>
      <trkpt lat="42.70801" lon="2.68419">
        <ele>156.7</ele>
        <time>2021-03-28T11:54:55Z</time>
      </trkpt>
      <trkpt lat="42.70789" lon="2.68427">
        <ele>156.2</ele>
        <time>2021-03-28T11:54:56Z</time>
      </trkpt>
      <trkpt lat="42.70789" lon="2.68427">
        <ele>156.2</ele>
        <time>2021-03-28T11:54:56Z</time>
      </trkpt>
      <trkpt lat="42.70776" lon="2.68436">
        <ele>155.6</ele>
        <time>2021-03-28T11:54:58Z</time>
      </trkpt>
      <trkpt lat="42.70776" lon="2.68436">
        <ele>155.6</ele>
        <time>2021-03-28T11:54:58Z</time>
      </trkpt>
      <trkpt lat="42.70763" lon="2.68445">
        <ele>155</ele>
        <time>2021-03-28T11:55:00Z</time>
      </trkpt>
      <trkpt lat="42.70763" lon="2.68445">
        <ele>155</ele>
        <time>2021-03-28T11:55:00Z</time>
      </trkpt>
      <trkpt lat="42.7075" lon="2.68456">
        <ele>154.4</ele>
        <time>2021-03-28T11:55:02Z</time>
      </trkpt>
      <trkpt lat="42.7075" lon="2.68456">
        <ele>154.4</ele>
        <time>2021-03-28T11:55:02Z</time>
      </trkpt>
      <trkpt lat="42.70738" lon="2.68465">
        <ele>154</ele>
        <time>2021-03-28T11:55:03Z</time>
      </trkpt>
      <trkpt lat="42.70738" lon="2.68465">
        <ele>154</ele>
        <time>2021-03-28T11:55:03Z</time>
      </trkpt>
      <trkpt lat="42.70728" lon="2.68473">
        <ele>153.5</ele>
        <time>2021-03-28T11:55:04Z</time>
      </trkpt>
      <trkpt lat="42.70728" lon="2.68473">
        <ele>153.5</ele>
        <time>2021-03-28T11:55:04Z</time>
      </trkpt>
      <trkpt lat="42.70719" lon="2.6848">
        <ele>153.1</ele>
        <time>2021-03-28T11:55:05Z</time>
      </trkpt>
      <trkpt lat="42.70719" lon="2.6848">
        <ele>153.1</ele>
        <time>2021-03-28T11:55:05Z</time>
      </trkpt>
      <trkpt lat="42.70711" lon="2.68487">
        <ele>152.9</ele>
        <time>2021-03-28T11:55:06Z</time>
      </trkpt>
      <trkpt lat="42.70711" lon="2.68487">
        <ele>152.9</ele>
        <time>2021-03-28T11:55:06Z</time>
      </trkpt>
      <trkpt lat="42.70703" lon="2.68493">
        <ele>152.5</ele>
        <time>2021-03-28T11:55:07Z</time>
      </trkpt>
      <trkpt lat="42.70703" lon="2.68493">
        <ele>152.5</ele>
        <time>2021-03-28T11:55:07Z</time>
      </trkpt>
      <trkpt lat="42.70692" lon="2.68502">
        <ele>151.9</ele>
        <time>2021-03-28T11:55:09Z</time>
      </trkpt>
      <trkpt lat="42.70692" lon="2.68502">
        <ele>151.9</ele>
        <time>2021-03-28T11:55:09Z</time>
      </trkpt>
      <trkpt lat="42.70681" lon="2.68511">
        <ele>151.5</ele>
        <time>2021-03-28T11:55:11Z</time>
      </trkpt>
      <trkpt lat="42.70681" lon="2.68511">
        <ele>151.5</ele>
        <time>2021-03-28T11:55:11Z</time>
      </trkpt>
      <trkpt lat="42.70668" lon="2.68522">
        <ele>151</ele>
        <time>2021-03-28T11:55:13Z</time>
      </trkpt>
      <trkpt lat="42.70668" lon="2.68522">
        <ele>151</ele>
        <time>2021-03-28T11:55:13Z</time>
      </trkpt>
      <trkpt lat="42.70657" lon="2.68531">
        <ele>150.6</ele>
        <time>2021-03-28T11:55:14Z</time>
      </trkpt>
      <trkpt lat="42.70657" lon="2.68531">
        <ele>150.6</ele>
        <time>2021-03-28T11:55:14Z</time>
      </trkpt>
      <trkpt lat="42.70647" lon="2.68539">
        <ele>150</ele>
        <time>2021-03-28T11:55:15Z</time>
      </trkpt>
      <trkpt lat="42.70647" lon="2.68539">
        <ele>150</ele>
        <time>2021-03-28T11:55:15Z</time>
      </trkpt>
      <trkpt lat="42.70635" lon="2.68549">
        <ele>149.2</ele>
        <time>2021-03-28T11:55:17Z</time>
      </trkpt>
      <trkpt lat="42.70635" lon="2.68549">
        <ele>149.2</ele>
        <time>2021-03-28T11:55:17Z</time>
      </trkpt>
      <trkpt lat="42.70625" lon="2.68558">
        <ele>149</ele>
        <time>2021-03-28T11:55:18Z</time>
      </trkpt>
      <trkpt lat="42.70625" lon="2.68558">
        <ele>149</ele>
        <time>2021-03-28T11:55:18Z</time>
      </trkpt>
      <trkpt lat="42.70615" lon="2.68566">
        <ele>148.7</ele>
        <time>2021-03-28T11:55:19Z</time>
      </trkpt>
      <trkpt lat="42.70615" lon="2.68566">
        <ele>148.7</ele>
        <time>2021-03-28T11:55:19Z</time>
      </trkpt>
      <trkpt lat="42.70603" lon="2.68577">
        <ele>148.2</ele>
        <time>2021-03-28T11:55:21Z</time>
      </trkpt>
      <trkpt lat="42.70603" lon="2.68577">
        <ele>148.2</ele>
        <time>2021-03-28T11:55:21Z</time>
      </trkpt>
      <trkpt lat="42.7059" lon="2.68588">
        <ele>147.9</ele>
        <time>2021-03-28T11:55:23Z</time>
      </trkpt>
      <trkpt lat="42.7059" lon="2.68588">
        <ele>147.9</ele>
        <time>2021-03-28T11:55:23Z</time>
      </trkpt>
      <trkpt lat="42.70579" lon="2.68598">
        <ele>147.2</ele>
        <time>2021-03-28T11:55:24Z</time>
      </trkpt>
      <trkpt lat="42.70579" lon="2.68598">
        <ele>147.2</ele>
        <time>2021-03-28T11:55:24Z</time>
      </trkpt>
      <trkpt lat="42.70565" lon="2.68609">
        <ele>145.8</ele>
        <time>2021-03-28T11:55:26Z</time>
      </trkpt>
      <trkpt lat="42.70565" lon="2.68609">
        <ele>145.8</ele>
        <time>2021-03-28T11:55:26Z</time>
      </trkpt>
      <trkpt lat="42.70549" lon="2.68618">
        <ele>145.3</ele>
        <time>2021-03-28T11:55:28Z</time>
      </trkpt>
      <trkpt lat="42.70549" lon="2.68618">
        <ele>145.3</ele>
        <time>2021-03-28T11:55:28Z</time>
      </trkpt>
      <trkpt lat="42.70533" lon="2.68628">
        <ele>144.5</ele>
        <time>2021-03-28T11:55:30Z</time>
      </trkpt>
      <trkpt lat="42.70533" lon="2.68628">
        <ele>144.5</ele>
        <time>2021-03-28T11:55:30Z</time>
      </trkpt>
      <trkpt lat="42.70516" lon="2.68637">
        <ele>143.2</ele>
        <time>2021-03-28T11:55:32Z</time>
      </trkpt>
      <trkpt lat="42.70516" lon="2.68637">
        <ele>143.2</ele>
        <time>2021-03-28T11:55:32Z</time>
      </trkpt>
      <trkpt lat="42.705" lon="2.68646">
        <ele>142.8</ele>
        <time>2021-03-28T11:55:34Z</time>
      </trkpt>
      <trkpt lat="42.705" lon="2.68646">
        <ele>142.8</ele>
        <time>2021-03-28T11:55:34Z</time>
      </trkpt>
      <trkpt lat="42.70486" lon="2.68654">
        <ele>141.9</ele>
        <time>2021-03-28T11:55:35Z</time>
      </trkpt>
      <trkpt lat="42.70486" lon="2.68654">
        <ele>141.9</ele>
        <time>2021-03-28T11:55:35Z</time>
      </trkpt>
      <trkpt lat="42.70474" lon="2.68662">
        <ele>140</ele>
        <time>2021-03-28T11:55:36Z</time>
      </trkpt>
      <trkpt lat="42.70474" lon="2.68662">
        <ele>140</ele>
        <time>2021-03-28T11:55:36Z</time>
      </trkpt>
      <trkpt lat="42.7046" lon="2.6867">
        <ele>139.9</ele>
        <time>2021-03-28T11:55:38Z</time>
      </trkpt>
      <trkpt lat="42.7046" lon="2.6867">
        <ele>139.9</ele>
        <time>2021-03-28T11:55:38Z</time>
      </trkpt>
      <trkpt lat="42.70447" lon="2.68678">
        <ele>139</ele>
        <time>2021-03-28T11:55:39Z</time>
      </trkpt>
      <trkpt lat="42.70447" lon="2.68678">
        <ele>139</ele>
        <time>2021-03-28T11:55:39Z</time>
      </trkpt>
      <trkpt lat="42.70433" lon="2.68686">
        <ele>137.4</ele>
        <time>2021-03-28T11:55:41Z</time>
      </trkpt>
      <trkpt lat="42.70433" lon="2.68686">
        <ele>137.4</ele>
        <time>2021-03-28T11:55:41Z</time>
      </trkpt>
      <trkpt lat="42.70417" lon="2.68693">
        <ele>136.3</ele>
        <time>2021-03-28T11:55:43Z</time>
      </trkpt>
      <trkpt lat="42.70417" lon="2.68693">
        <ele>136.3</ele>
        <time>2021-03-28T11:55:43Z</time>
      </trkpt>
      <trkpt lat="42.704" lon="2.687">
        <ele>135.9</ele>
        <time>2021-03-28T11:55:45Z</time>
      </trkpt>
      <trkpt lat="42.704" lon="2.687">
        <ele>135.9</ele>
        <time>2021-03-28T11:55:45Z</time>
      </trkpt>
      <trkpt lat="42.70386" lon="2.68707">
        <ele>135.4</ele>
        <time>2021-03-28T11:55:46Z</time>
      </trkpt>
      <trkpt lat="42.70386" lon="2.68707">
        <ele>135.4</ele>
        <time>2021-03-28T11:55:46Z</time>
      </trkpt>
      <trkpt lat="42.70372" lon="2.68717">
        <ele>134.3</ele>
        <time>2021-03-28T11:55:48Z</time>
      </trkpt>
      <trkpt lat="42.70372" lon="2.68717">
        <ele>134.3</ele>
        <time>2021-03-28T11:55:48Z</time>
      </trkpt>
      <trkpt lat="42.70359" lon="2.68726">
        <ele>133.2</ele>
        <time>2021-03-28T11:55:49Z</time>
      </trkpt>
      <trkpt lat="42.70359" lon="2.68726">
        <ele>133.2</ele>
        <time>2021-03-28T11:55:49Z</time>
      </trkpt>
      <trkpt lat="42.70348" lon="2.68736">
        <ele>133.8</ele>
        <time>2021-03-28T11:55:50Z</time>
      </trkpt>
      <trkpt lat="42.70348" lon="2.68736">
        <ele>133.8</ele>
        <time>2021-03-28T11:55:50Z</time>
      </trkpt>
      <trkpt lat="42.70338" lon="2.68745">
        <ele>132.4</ele>
        <time>2021-03-28T11:55:51Z</time>
      </trkpt>
      <trkpt lat="42.70338" lon="2.68745">
        <ele>132.4</ele>
        <time>2021-03-28T11:55:51Z</time>
      </trkpt>
      <trkpt lat="42.70329" lon="2.68755">
        <ele>131.5</ele>
        <time>2021-03-28T11:55:52Z</time>
      </trkpt>
      <trkpt lat="42.70329" lon="2.68755">
        <ele>131.5</ele>
        <time>2021-03-28T11:55:52Z</time>
      </trkpt>
      <trkpt lat="42.70317" lon="2.68767">
        <ele>131.1</ele>
        <time>2021-03-28T11:55:54Z</time>
      </trkpt>
      <trkpt lat="42.70317" lon="2.68767">
        <ele>131.1</ele>
        <time>2021-03-28T11:55:54Z</time>
      </trkpt>
      <trkpt lat="42.70304" lon="2.68783">
        <ele>128.2</ele>
        <time>2021-03-28T11:55:56Z</time>
      </trkpt>
      <trkpt lat="42.70304" lon="2.68783">
        <ele>128.2</ele>
        <time>2021-03-28T11:55:56Z</time>
      </trkpt>
      <trkpt lat="42.70294" lon="2.68798">
        <ele>126.2</ele>
        <time>2021-03-28T11:55:57Z</time>
      </trkpt>
      <trkpt lat="42.70294" lon="2.68798">
        <ele>126.2</ele>
        <time>2021-03-28T11:55:57Z</time>
      </trkpt>
      <trkpt lat="42.70287" lon="2.68813">
        <ele>125.5</ele>
        <time>2021-03-28T11:55:58Z</time>
      </trkpt>
      <trkpt lat="42.70287" lon="2.68813">
        <ele>125.5</ele>
        <time>2021-03-28T11:55:58Z</time>
      </trkpt>
      <trkpt lat="42.70281" lon="2.68828">
        <ele>125.2</ele>
        <time>2021-03-28T11:55:59Z</time>
      </trkpt>
      <trkpt lat="42.70281" lon="2.68828">
        <ele>125.2</ele>
        <time>2021-03-28T11:55:59Z</time>
      </trkpt>
      <trkpt lat="42.70274" lon="2.68848">
        <ele>122.9</ele>
        <time>2021-03-28T11:56:01Z</time>
      </trkpt>
      <trkpt lat="42.70274" lon="2.68848">
        <ele>122.9</ele>
        <time>2021-03-28T11:56:01Z</time>
      </trkpt>
      <trkpt lat="42.70269" lon="2.68866">
        <ele>120</ele>
        <time>2021-03-28T11:56:02Z</time>
      </trkpt>
      <trkpt lat="42.70269" lon="2.68866">
        <ele>120</ele>
        <time>2021-03-28T11:56:02Z</time>
      </trkpt>
      <trkpt lat="42.70264" lon="2.68883">
        <ele>117.8</ele>
        <time>2021-03-28T11:56:03Z</time>
      </trkpt>
      <trkpt lat="42.70264" lon="2.68883">
        <ele>117.8</ele>
        <time>2021-03-28T11:56:03Z</time>
      </trkpt>
      <trkpt lat="42.70256" lon="2.68902">
        <ele>118.4</ele>
        <time>2021-03-28T11:56:05Z</time>
      </trkpt>
      <trkpt lat="42.70256" lon="2.68902">
        <ele>118.4</ele>
        <time>2021-03-28T11:56:05Z</time>
      </trkpt>
      <trkpt lat="42.70246" lon="2.6892">
        <ele>118.3</ele>
        <time>2021-03-28T11:56:07Z</time>
      </trkpt>
      <trkpt lat="42.70246" lon="2.6892">
        <ele>118.3</ele>
        <time>2021-03-28T11:56:07Z</time>
      </trkpt>
      <trkpt lat="42.70232" lon="2.68938">
        <ele>113.6</ele>
        <time>2021-03-28T11:56:09Z</time>
      </trkpt>
      <trkpt lat="42.70232" lon="2.68938">
        <ele>113.6</ele>
        <time>2021-03-28T11:56:09Z</time>
      </trkpt>
      <trkpt lat="42.70217" lon="2.68955">
        <ele>112.1</ele>
        <time>2021-03-28T11:56:11Z</time>
      </trkpt>
      <trkpt lat="42.70217" lon="2.68955">
        <ele>112.1</ele>
        <time>2021-03-28T11:56:11Z</time>
      </trkpt>
      <trkpt lat="42.70202" lon="2.68974">
        <ele>113.5</ele>
        <time>2021-03-28T11:56:13Z</time>
      </trkpt>
      <trkpt lat="42.70202" lon="2.68974">
        <ele>113.5</ele>
        <time>2021-03-28T11:56:13Z</time>
      </trkpt>
      <trkpt lat="42.70189" lon="2.68995">
        <ele>109.9</ele>
        <time>2021-03-28T11:56:15Z</time>
      </trkpt>
      <trkpt lat="42.70189" lon="2.68995">
        <ele>109.9</ele>
        <time>2021-03-28T11:56:15Z</time>
      </trkpt>
      <trkpt lat="42.7018" lon="2.69013">
        <ele>109.1</ele>
        <time>2021-03-28T11:56:16Z</time>
      </trkpt>
      <trkpt lat="42.7018" lon="2.69013">
        <ele>109.1</ele>
        <time>2021-03-28T11:56:16Z</time>
      </trkpt>
      <trkpt lat="42.70173" lon="2.69036">
        <ele>111.4</ele>
        <time>2021-03-28T11:56:18Z</time>
      </trkpt>
      <trkpt lat="42.70173" lon="2.69036">
        <ele>111.4</ele>
        <time>2021-03-28T11:56:18Z</time>
      </trkpt>
      <trkpt lat="42.70168" lon="2.69061">
        <ele>111.1</ele>
        <time>2021-03-28T11:56:20Z</time>
      </trkpt>
      <trkpt lat="42.70168" lon="2.69061">
        <ele>111.1</ele>
        <time>2021-03-28T11:56:20Z</time>
      </trkpt>
      <trkpt lat="42.70164" lon="2.69087">
        <ele>108.8</ele>
        <time>2021-03-28T11:56:22Z</time>
      </trkpt>
      <trkpt lat="42.70164" lon="2.69087">
        <ele>108.8</ele>
        <time>2021-03-28T11:56:22Z</time>
      </trkpt>
      <trkpt lat="42.70161" lon="2.6911">
        <ele>105.8</ele>
        <time>2021-03-28T11:56:23Z</time>
      </trkpt>
      <trkpt lat="42.70161" lon="2.6911">
        <ele>105.8</ele>
        <time>2021-03-28T11:56:23Z</time>
      </trkpt>
      <trkpt lat="42.70158" lon="2.69131">
        <ele>104.9</ele>
        <time>2021-03-28T11:56:24Z</time>
      </trkpt>
      <trkpt lat="42.70158" lon="2.69131">
        <ele>104.9</ele>
        <time>2021-03-28T11:56:24Z</time>
      </trkpt>
      <trkpt lat="42.70156" lon="2.69149">
        <ele>104.5</ele>
        <time>2021-03-28T11:56:25Z</time>
      </trkpt>
      <trkpt lat="42.70156" lon="2.69149">
        <ele>104.5</ele>
        <time>2021-03-28T11:56:25Z</time>
      </trkpt>
      <trkpt lat="42.70152" lon="2.69171">
        <ele>103.8</ele>
        <time>2021-03-28T11:56:27Z</time>
      </trkpt>
      <trkpt lat="42.70152" lon="2.69171">
        <ele>103.8</ele>
        <time>2021-03-28T11:56:27Z</time>
      </trkpt>
      <trkpt lat="42.70146" lon="2.69194">
        <ele>103</ele>
        <time>2021-03-28T11:56:29Z</time>
      </trkpt>
      <trkpt lat="42.70146" lon="2.69194">
        <ele>103</ele>
        <time>2021-03-28T11:56:29Z</time>
      </trkpt>
      <trkpt lat="42.70139" lon="2.69218">
        <ele>102.9</ele>
        <time>2021-03-28T11:56:31Z</time>
      </trkpt>
      <trkpt lat="42.70139" lon="2.69218">
        <ele>102.9</ele>
        <time>2021-03-28T11:56:31Z</time>
      </trkpt>
      <trkpt lat="42.70133" lon="2.69242">
        <ele>103.3</ele>
        <time>2021-03-28T11:56:33Z</time>
      </trkpt>
      <trkpt lat="42.70133" lon="2.69242">
        <ele>103.3</ele>
        <time>2021-03-28T11:56:33Z</time>
      </trkpt>
      <trkpt lat="42.70126" lon="2.69266">
        <ele>103.3</ele>
        <time>2021-03-28T11:56:35Z</time>
      </trkpt>
      <trkpt lat="42.70126" lon="2.69266">
        <ele>103.3</ele>
        <time>2021-03-28T11:56:35Z</time>
      </trkpt>
      <trkpt lat="42.70119" lon="2.6929">
        <ele>103.1</ele>
        <time>2021-03-28T11:56:37Z</time>
      </trkpt>
      <trkpt lat="42.70119" lon="2.6929">
        <ele>103.1</ele>
        <time>2021-03-28T11:56:37Z</time>
      </trkpt>
      <trkpt lat="42.70112" lon="2.69314">
        <ele>102.4</ele>
        <time>2021-03-28T11:56:39Z</time>
      </trkpt>
      <trkpt lat="42.70112" lon="2.69314">
        <ele>102.4</ele>
        <time>2021-03-28T11:56:39Z</time>
      </trkpt>
      <trkpt lat="42.70104" lon="2.69338">
        <ele>101.9</ele>
        <time>2021-03-28T11:56:41Z</time>
      </trkpt>
      <trkpt lat="42.70104" lon="2.69338">
        <ele>101.9</ele>
        <time>2021-03-28T11:56:41Z</time>
      </trkpt>
      <trkpt lat="42.70096" lon="2.69361">
        <ele>100.2</ele>
        <time>2021-03-28T11:56:43Z</time>
      </trkpt>
      <trkpt lat="42.70096" lon="2.69361">
        <ele>100.2</ele>
        <time>2021-03-28T11:56:43Z</time>
      </trkpt>
      <trkpt lat="42.70088" lon="2.69379">
        <ele>100</ele>
        <time>2021-03-28T11:56:44Z</time>
      </trkpt>
      <trkpt lat="42.70088" lon="2.69379">
        <ele>100</ele>
        <time>2021-03-28T11:56:44Z</time>
      </trkpt>
      <trkpt lat="42.70078" lon="2.69395">
        <ele>100.2</ele>
        <time>2021-03-28T11:56:46Z</time>
      </trkpt>
      <trkpt lat="42.70078" lon="2.69395">
        <ele>100.2</ele>
        <time>2021-03-28T11:56:46Z</time>
      </trkpt>
      <trkpt lat="42.70066" lon="2.69409">
        <ele>100.3</ele>
        <time>2021-03-28T11:56:48Z</time>
      </trkpt>
      <trkpt lat="42.70066" lon="2.69409">
        <ele>100.3</ele>
        <time>2021-03-28T11:56:48Z</time>
      </trkpt>
      <trkpt lat="42.70055" lon="2.69418">
        <ele>100.1</ele>
        <time>2021-03-28T11:56:49Z</time>
      </trkpt>
      <trkpt lat="42.70055" lon="2.69418">
        <ele>100.1</ele>
        <time>2021-03-28T11:56:49Z</time>
      </trkpt>
      <trkpt lat="42.70043" lon="2.69427">
        <ele>99.9</ele>
        <time>2021-03-28T11:56:51Z</time>
      </trkpt>
      <trkpt lat="42.70043" lon="2.69427">
        <ele>99.9</ele>
        <time>2021-03-28T11:56:51Z</time>
      </trkpt>
      <trkpt lat="42.70031" lon="2.69436">
        <ele>99.6</ele>
        <time>2021-03-28T11:56:53Z</time>
      </trkpt>
      <trkpt lat="42.70031" lon="2.69436">
        <ele>99.6</ele>
        <time>2021-03-28T11:56:53Z</time>
      </trkpt>
      <trkpt lat="42.70019" lon="2.69443">
        <ele>99.3</ele>
        <time>2021-03-28T11:56:55Z</time>
      </trkpt>
      <trkpt lat="42.70019" lon="2.69443">
        <ele>99.3</ele>
        <time>2021-03-28T11:56:55Z</time>
      </trkpt>
      <trkpt lat="42.70008" lon="2.69451">
        <ele>99.5</ele>
        <time>2021-03-28T11:56:57Z</time>
      </trkpt>
      <trkpt lat="42.70008" lon="2.69451">
        <ele>99.5</ele>
        <time>2021-03-28T11:56:57Z</time>
      </trkpt>
      <trkpt lat="42.69997" lon="2.6946">
        <ele>100.1</ele>
        <time>2021-03-28T11:56:59Z</time>
      </trkpt>
      <trkpt lat="42.69997" lon="2.6946">
        <ele>100.1</ele>
        <time>2021-03-28T11:56:59Z</time>
      </trkpt>
      <trkpt lat="42.69989" lon="2.69467">
        <ele>100.6</ele>
        <time>2021-03-28T11:57:00Z</time>
      </trkpt>
      <trkpt lat="42.69989" lon="2.69467">
        <ele>100.6</ele>
        <time>2021-03-28T11:57:00Z</time>
      </trkpt>
      <trkpt lat="42.69982" lon="2.69474">
        <ele>101</ele>
        <time>2021-03-28T11:57:01Z</time>
      </trkpt>
      <trkpt lat="42.69982" lon="2.69474">
        <ele>101</ele>
        <time>2021-03-28T11:57:01Z</time>
      </trkpt>
      <trkpt lat="42.69976" lon="2.69481">
        <ele>101</ele>
        <time>2021-03-28T11:57:02Z</time>
      </trkpt>
      <trkpt lat="42.69976" lon="2.69481">
        <ele>101</ele>
        <time>2021-03-28T11:57:02Z</time>
      </trkpt>
      <trkpt lat="42.6997" lon="2.69491">
        <ele>100.4</ele>
        <time>2021-03-28T11:57:04Z</time>
      </trkpt>
      <trkpt lat="42.6997" lon="2.69491">
        <ele>100.4</ele>
        <time>2021-03-28T11:57:04Z</time>
      </trkpt>
      <trkpt lat="42.69966" lon="2.695">
        <ele>100.3</ele>
        <time>2021-03-28T11:57:05Z</time>
      </trkpt>
      <trkpt lat="42.69966" lon="2.695">
        <ele>100.3</ele>
        <time>2021-03-28T11:57:05Z</time>
      </trkpt>
      <trkpt lat="42.69963" lon="2.69509">
        <ele>99.9</ele>
        <time>2021-03-28T11:57:06Z</time>
      </trkpt>
      <trkpt lat="42.69963" lon="2.69509">
        <ele>99.9</ele>
        <time>2021-03-28T11:57:06Z</time>
      </trkpt>
      <trkpt lat="42.69963" lon="2.69521">
        <ele>99.8</ele>
        <time>2021-03-28T11:57:08Z</time>
      </trkpt>
      <trkpt lat="42.69963" lon="2.69521">
        <ele>99.8</ele>
        <time>2021-03-28T11:57:08Z</time>
      </trkpt>
      <trkpt lat="42.69963" lon="2.69534">
        <ele>99.9</ele>
        <time>2021-03-28T11:57:10Z</time>
      </trkpt>
      <trkpt lat="42.69963" lon="2.69534">
        <ele>99.9</ele>
        <time>2021-03-28T11:57:10Z</time>
      </trkpt>
      <trkpt lat="42.69963" lon="2.69546">
        <ele>100.1</ele>
        <time>2021-03-28T11:57:11Z</time>
      </trkpt>
      <trkpt lat="42.69963" lon="2.69546">
        <ele>100.1</ele>
        <time>2021-03-28T11:57:11Z</time>
      </trkpt>
      <trkpt lat="42.69962" lon="2.6956">
        <ele>100.3</ele>
        <time>2021-03-28T11:57:13Z</time>
      </trkpt>
      <trkpt lat="42.69962" lon="2.6956">
        <ele>100.3</ele>
        <time>2021-03-28T11:57:13Z</time>
      </trkpt>
      <trkpt lat="42.69962" lon="2.69575">
        <ele>100.3</ele>
        <time>2021-03-28T11:57:15Z</time>
      </trkpt>
      <trkpt lat="42.69962" lon="2.69575">
        <ele>100.3</ele>
        <time>2021-03-28T11:57:15Z</time>
      </trkpt>
      <trkpt lat="42.69961" lon="2.69591">
        <ele>100.2</ele>
        <time>2021-03-28T11:57:17Z</time>
      </trkpt>
      <trkpt lat="42.69961" lon="2.69591">
        <ele>100.2</ele>
        <time>2021-03-28T11:57:17Z</time>
      </trkpt>
      <trkpt lat="42.6996" lon="2.69605">
        <ele>100.1</ele>
        <time>2021-03-28T11:57:18Z</time>
      </trkpt>
      <trkpt lat="42.6996" lon="2.69605">
        <ele>100.1</ele>
        <time>2021-03-28T11:57:18Z</time>
      </trkpt>
      <trkpt lat="42.69958" lon="2.69619">
        <ele>100</ele>
        <time>2021-03-28T11:57:20Z</time>
      </trkpt>
      <trkpt lat="42.69958" lon="2.69619">
        <ele>100</ele>
        <time>2021-03-28T11:57:20Z</time>
      </trkpt>
      <trkpt lat="42.69957" lon="2.69633">
        <ele>99.9</ele>
        <time>2021-03-28T11:57:22Z</time>
      </trkpt>
      <trkpt lat="42.69957" lon="2.69633">
        <ele>99.9</ele>
        <time>2021-03-28T11:57:22Z</time>
      </trkpt>
      <trkpt lat="42.69955" lon="2.69648">
        <ele>100</ele>
        <time>2021-03-28T11:57:24Z</time>
      </trkpt>
      <trkpt lat="42.69955" lon="2.69648">
        <ele>100</ele>
        <time>2021-03-28T11:57:24Z</time>
      </trkpt>
      <trkpt lat="42.69954" lon="2.6966">
        <ele>100.2</ele>
        <time>2021-03-28T11:57:25Z</time>
      </trkpt>
      <trkpt lat="42.69954" lon="2.6966">
        <ele>100.2</ele>
        <time>2021-03-28T11:57:25Z</time>
      </trkpt>
      <trkpt lat="42.69951" lon="2.69672">
        <ele>99.9</ele>
        <time>2021-03-28T11:57:27Z</time>
      </trkpt>
      <trkpt lat="42.69951" lon="2.69672">
        <ele>99.9</ele>
        <time>2021-03-28T11:57:27Z</time>
      </trkpt>
      <trkpt lat="42.69949" lon="2.69682">
        <ele>99.5</ele>
        <time>2021-03-28T11:57:28Z</time>
      </trkpt>
      <trkpt lat="42.69949" lon="2.69682">
        <ele>99.5</ele>
        <time>2021-03-28T11:57:28Z</time>
      </trkpt>
      <trkpt lat="42.69946" lon="2.69689">
        <ele>99.1</ele>
        <time>2021-03-28T11:57:29Z</time>
      </trkpt>
      <trkpt lat="42.69946" lon="2.69689">
        <ele>99.1</ele>
        <time>2021-03-28T11:57:29Z</time>
      </trkpt>
      <trkpt lat="42.69942" lon="2.69694">
        <ele>98.9</ele>
        <time>2021-03-28T11:57:30Z</time>
      </trkpt>
      <trkpt lat="42.69942" lon="2.69694">
        <ele>98.9</ele>
        <time>2021-03-28T11:57:30Z</time>
      </trkpt>
      <trkpt lat="42.69938" lon="2.69702">
        <ele>98.9</ele>
        <time>2021-03-28T11:57:32Z</time>
      </trkpt>
      <trkpt lat="42.69938" lon="2.69702">
        <ele>98.9</ele>
        <time>2021-03-28T11:57:32Z</time>
      </trkpt>
      <trkpt lat="42.69935" lon="2.69712">
        <ele>99.2</ele>
        <time>2021-03-28T11:57:34Z</time>
      </trkpt>
      <trkpt lat="42.69935" lon="2.69712">
        <ele>99.2</ele>
        <time>2021-03-28T11:57:34Z</time>
      </trkpt>
      <trkpt lat="42.69935" lon="2.69722">
        <ele>99.6</ele>
        <time>2021-03-28T11:57:36Z</time>
      </trkpt>
      <trkpt lat="42.69935" lon="2.69722">
        <ele>99.6</ele>
        <time>2021-03-28T11:57:36Z</time>
      </trkpt>
      <trkpt lat="42.69936" lon="2.6973">
        <ele>99.4</ele>
        <time>2021-03-28T11:57:37Z</time>
      </trkpt>
      <trkpt lat="42.69936" lon="2.6973">
        <ele>99.4</ele>
        <time>2021-03-28T11:57:37Z</time>
      </trkpt>
      <trkpt lat="42.69938" lon="2.69736">
        <ele>99.3</ele>
        <time>2021-03-28T11:57:38Z</time>
      </trkpt>
      <trkpt lat="42.69938" lon="2.69736">
        <ele>99.3</ele>
        <time>2021-03-28T11:57:38Z</time>
      </trkpt>
      <trkpt lat="42.69941" lon="2.69744">
        <ele>99.1</ele>
        <time>2021-03-28T11:57:40Z</time>
      </trkpt>
      <trkpt lat="42.69941" lon="2.69744">
        <ele>99.1</ele>
        <time>2021-03-28T11:57:40Z</time>
      </trkpt>
      <trkpt lat="42.69943" lon="2.69751">
        <ele>98.9</ele>
        <time>2021-03-28T11:57:41Z</time>
      </trkpt>
      <trkpt lat="42.69943" lon="2.69751">
        <ele>98.9</ele>
        <time>2021-03-28T11:57:41Z</time>
      </trkpt>
      <trkpt lat="42.69945" lon="2.69757">
        <ele>99</ele>
        <time>2021-03-28T11:57:42Z</time>
      </trkpt>
      <trkpt lat="42.69945" lon="2.69757">
        <ele>99</ele>
        <time>2021-03-28T11:57:42Z</time>
      </trkpt>
      <trkpt lat="42.69947" lon="2.69764">
        <ele>99.1</ele>
        <time>2021-03-28T11:57:44Z</time>
      </trkpt>
      <trkpt lat="42.69947" lon="2.69764">
        <ele>99.1</ele>
        <time>2021-03-28T11:57:44Z</time>
      </trkpt>
      <trkpt lat="42.69949" lon="2.69771">
        <ele>99.2</ele>
        <time>2021-03-28T11:57:46Z</time>
      </trkpt>
      <trkpt lat="42.69949" lon="2.69771">
        <ele>99.2</ele>
        <time>2021-03-28T11:57:46Z</time>
      </trkpt>
      <trkpt lat="42.6995" lon="2.69777">
        <ele>99.2</ele>
        <time>2021-03-28T11:57:47Z</time>
      </trkpt>
      <trkpt lat="42.6995" lon="2.69777">
        <ele>99.2</ele>
        <time>2021-03-28T11:57:47Z</time>
      </trkpt>
      <trkpt lat="42.69952" lon="2.69783">
        <ele>99.1</ele>
        <time>2021-03-28T11:57:48Z</time>
      </trkpt>
      <trkpt lat="42.69952" lon="2.69783">
        <ele>99.1</ele>
        <time>2021-03-28T11:57:48Z</time>
      </trkpt>
      <trkpt lat="42.69952" lon="2.69789">
        <ele>99</ele>
        <time>2021-03-28T11:57:50Z</time>
      </trkpt>
      <trkpt lat="42.69952" lon="2.69789">
        <ele>99</ele>
        <time>2021-03-28T11:57:50Z</time>
      </trkpt>
      <trkpt lat="42.69953" lon="2.69796">
        <ele>98.9</ele>
        <time>2021-03-28T11:57:52Z</time>
      </trkpt>
      <trkpt lat="42.69953" lon="2.69796">
        <ele>98.9</ele>
        <time>2021-03-28T11:57:52Z</time>
      </trkpt>
      <trkpt lat="42.69954" lon="2.69802">
        <ele>98.7</ele>
        <time>2021-03-28T11:57:53Z</time>
      </trkpt>
      <trkpt lat="42.69954" lon="2.69802">
        <ele>98.7</ele>
        <time>2021-03-28T11:57:53Z</time>
      </trkpt>
      <trkpt lat="42.69954" lon="2.69808">
        <ele>98.6</ele>
        <time>2021-03-28T11:57:55Z</time>
      </trkpt>
      <trkpt lat="42.69954" lon="2.69808">
        <ele>98.6</ele>
        <time>2021-03-28T11:57:55Z</time>
      </trkpt>
      <trkpt lat="42.69954" lon="2.69814">
        <ele>98.4</ele>
        <time>2021-03-28T11:57:56Z</time>
      </trkpt>
      <trkpt lat="42.69954" lon="2.69814">
        <ele>98.4</ele>
        <time>2021-03-28T11:57:56Z</time>
      </trkpt>
      <trkpt lat="42.69955" lon="2.69821">
        <ele>98.2</ele>
        <time>2021-03-28T11:57:58Z</time>
      </trkpt>
      <trkpt lat="42.69955" lon="2.69821">
        <ele>98.2</ele>
        <time>2021-03-28T11:57:58Z</time>
      </trkpt>
      <trkpt lat="42.69955" lon="2.69828">
        <ele>97.9</ele>
        <time>2021-03-28T11:58:00Z</time>
      </trkpt>
      <trkpt lat="42.69955" lon="2.69828">
        <ele>97.9</ele>
        <time>2021-03-28T11:58:00Z</time>
      </trkpt>
      <trkpt lat="42.69956" lon="2.69837">
        <ele>97.8</ele>
        <time>2021-03-28T11:58:02Z</time>
      </trkpt>
      <trkpt lat="42.69956" lon="2.69837">
        <ele>97.8</ele>
        <time>2021-03-28T11:58:02Z</time>
      </trkpt>
      <trkpt lat="42.69956" lon="2.69844">
        <ele>97.8</ele>
        <time>2021-03-28T11:58:03Z</time>
      </trkpt>
      <trkpt lat="42.69956" lon="2.69844">
        <ele>97.8</ele>
        <time>2021-03-28T11:58:03Z</time>
      </trkpt>
      <trkpt lat="42.69956" lon="2.69853">
        <ele>97.8</ele>
        <time>2021-03-28T11:58:05Z</time>
      </trkpt>
      <trkpt lat="42.69956" lon="2.69853">
        <ele>97.8</ele>
        <time>2021-03-28T11:58:05Z</time>
      </trkpt>
      <trkpt lat="42.69956" lon="2.69861">
        <ele>97.9</ele>
        <time>2021-03-28T11:58:06Z</time>
      </trkpt>
      <trkpt lat="42.69956" lon="2.69861">
        <ele>97.9</ele>
        <time>2021-03-28T11:58:06Z</time>
      </trkpt>
      <trkpt lat="42.69956" lon="2.69869">
        <ele>97.8</ele>
        <time>2021-03-28T11:58:07Z</time>
      </trkpt>
      <trkpt lat="42.69956" lon="2.69869">
        <ele>97.8</ele>
        <time>2021-03-28T11:58:07Z</time>
      </trkpt>
      <trkpt lat="42.69956" lon="2.69877">
        <ele>97.8</ele>
        <time>2021-03-28T11:58:09Z</time>
      </trkpt>
      <trkpt lat="42.69956" lon="2.69877">
        <ele>97.8</ele>
        <time>2021-03-28T11:58:09Z</time>
      </trkpt>
      <trkpt lat="42.69956" lon="2.69885">
        <ele>97.8</ele>
        <time>2021-03-28T11:58:10Z</time>
      </trkpt>
      <trkpt lat="42.69956" lon="2.69885">
        <ele>97.8</ele>
        <time>2021-03-28T11:58:10Z</time>
      </trkpt>
      <trkpt lat="42.69956" lon="2.69893">
        <ele>97.8</ele>
        <time>2021-03-28T11:58:11Z</time>
      </trkpt>
      <trkpt lat="42.69956" lon="2.69893">
        <ele>97.8</ele>
        <time>2021-03-28T11:58:11Z</time>
      </trkpt>
      <trkpt lat="42.69955" lon="2.699">
        <ele>97.8</ele>
        <time>2021-03-28T11:58:12Z</time>
      </trkpt>
      <trkpt lat="42.69955" lon="2.699">
        <ele>97.8</ele>
        <time>2021-03-28T11:58:12Z</time>
      </trkpt>
      <trkpt lat="42.69955" lon="2.69908">
        <ele>97.8</ele>
        <time>2021-03-28T11:58:13Z</time>
      </trkpt>
      <trkpt lat="42.69955" lon="2.69908">
        <ele>97.8</ele>
        <time>2021-03-28T11:58:13Z</time>
      </trkpt>
      <trkpt lat="42.69956" lon="2.69916">
        <ele>97.8</ele>
        <time>2021-03-28T11:58:15Z</time>
      </trkpt>
      <trkpt lat="42.69956" lon="2.69916">
        <ele>97.8</ele>
        <time>2021-03-28T11:58:15Z</time>
      </trkpt>
      <trkpt lat="42.69956" lon="2.69926">
        <ele>98</ele>
        <time>2021-03-28T11:58:17Z</time>
      </trkpt>
      <trkpt lat="42.69956" lon="2.69926">
        <ele>98</ele>
        <time>2021-03-28T11:58:17Z</time>
      </trkpt>
      <trkpt lat="42.69956" lon="2.69937">
        <ele>98.3</ele>
        <time>2021-03-28T11:58:19Z</time>
      </trkpt>
      <trkpt lat="42.69956" lon="2.69937">
        <ele>98.3</ele>
        <time>2021-03-28T11:58:19Z</time>
      </trkpt>
      <trkpt lat="42.69957" lon="2.6995">
        <ele>98.3</ele>
        <time>2021-03-28T11:58:21Z</time>
      </trkpt>
      <trkpt lat="42.69957" lon="2.6995">
        <ele>98.3</ele>
        <time>2021-03-28T11:58:21Z</time>
      </trkpt>
      <trkpt lat="42.69957" lon="2.6996">
        <ele>98.1</ele>
        <time>2021-03-28T11:58:22Z</time>
      </trkpt>
      <trkpt lat="42.69957" lon="2.6996">
        <ele>98.1</ele>
        <time>2021-03-28T11:58:22Z</time>
      </trkpt>
      <trkpt lat="42.69957" lon="2.69969">
        <ele>98</ele>
        <time>2021-03-28T11:58:23Z</time>
      </trkpt>
      <trkpt lat="42.69957" lon="2.69969">
        <ele>98</ele>
        <time>2021-03-28T11:58:23Z</time>
      </trkpt>
      <trkpt lat="42.69957" lon="2.6998">
        <ele>98</ele>
        <time>2021-03-28T11:58:25Z</time>
      </trkpt>
      <trkpt lat="42.69957" lon="2.6998">
        <ele>98</ele>
        <time>2021-03-28T11:58:25Z</time>
      </trkpt>
      <trkpt lat="42.69957" lon="2.69991">
        <ele>98.2</ele>
        <time>2021-03-28T11:58:27Z</time>
      </trkpt>
      <trkpt lat="42.69957" lon="2.69991">
        <ele>98.2</ele>
        <time>2021-03-28T11:58:27Z</time>
      </trkpt>
      <trkpt lat="42.69957" lon="2.7">
        <ele>98.4</ele>
        <time>2021-03-28T11:58:28Z</time>
      </trkpt>
      <trkpt lat="42.69957" lon="2.7">
        <ele>98.4</ele>
        <time>2021-03-28T11:58:28Z</time>
      </trkpt>
      <trkpt lat="42.69958" lon="2.7001">
        <ele>98.4</ele>
        <time>2021-03-28T11:58:30Z</time>
      </trkpt>
      <trkpt lat="42.69958" lon="2.7001">
        <ele>98.4</ele>
        <time>2021-03-28T11:58:30Z</time>
      </trkpt>
      <trkpt lat="42.69958" lon="2.70021">
        <ele>98.4</ele>
        <time>2021-03-28T11:58:32Z</time>
      </trkpt>
      <trkpt lat="42.69958" lon="2.70021">
        <ele>98.4</ele>
        <time>2021-03-28T11:58:32Z</time>
      </trkpt>
      <trkpt lat="42.69958" lon="2.70031">
        <ele>98.5</ele>
        <time>2021-03-28T11:58:34Z</time>
      </trkpt>
      <trkpt lat="42.69958" lon="2.70031">
        <ele>98.5</ele>
        <time>2021-03-28T11:58:34Z</time>
      </trkpt>
      <trkpt lat="42.69958" lon="2.7004">
        <ele>98.7</ele>
        <time>2021-03-28T11:58:35Z</time>
      </trkpt>
      <trkpt lat="42.69958" lon="2.7004">
        <ele>98.7</ele>
        <time>2021-03-28T11:58:35Z</time>
      </trkpt>
      <trkpt lat="42.69959" lon="2.70049">
        <ele>98.9</ele>
        <time>2021-03-28T11:58:37Z</time>
      </trkpt>
      <trkpt lat="42.69959" lon="2.70049">
        <ele>98.9</ele>
        <time>2021-03-28T11:58:37Z</time>
      </trkpt>
      <trkpt lat="42.69959" lon="2.70061">
        <ele>99.1</ele>
        <time>2021-03-28T11:58:39Z</time>
      </trkpt>
      <trkpt lat="42.69959" lon="2.70061">
        <ele>99.1</ele>
        <time>2021-03-28T11:58:39Z</time>
      </trkpt>
      <trkpt lat="42.6996" lon="2.70072">
        <ele>99.1</ele>
        <time>2021-03-28T11:58:41Z</time>
      </trkpt>
      <trkpt lat="42.6996" lon="2.70072">
        <ele>99.1</ele>
        <time>2021-03-28T11:58:41Z</time>
      </trkpt>
      <trkpt lat="42.6996" lon="2.70081">
        <ele>99.1</ele>
        <time>2021-03-28T11:58:42Z</time>
      </trkpt>
      <trkpt lat="42.6996" lon="2.70081">
        <ele>99.1</ele>
        <time>2021-03-28T11:58:42Z</time>
      </trkpt>
      <trkpt lat="42.6996" lon="2.7009">
        <ele>99.1</ele>
        <time>2021-03-28T11:58:44Z</time>
      </trkpt>
      <trkpt lat="42.6996" lon="2.7009">
        <ele>99.1</ele>
        <time>2021-03-28T11:58:44Z</time>
      </trkpt>
      <trkpt lat="42.69961" lon="2.70098">
        <ele>99.2</ele>
        <time>2021-03-28T11:58:45Z</time>
      </trkpt>
      <trkpt lat="42.69961" lon="2.70098">
        <ele>99.2</ele>
        <time>2021-03-28T11:58:45Z</time>
      </trkpt>
      <trkpt lat="42.69962" lon="2.70107">
        <ele>99.2</ele>
        <time>2021-03-28T11:58:47Z</time>
      </trkpt>
      <trkpt lat="42.69962" lon="2.70107">
        <ele>99.2</ele>
        <time>2021-03-28T11:58:47Z</time>
      </trkpt>
      <trkpt lat="42.69963" lon="2.70117">
        <ele>99.6</ele>
        <time>2021-03-28T11:58:49Z</time>
      </trkpt>
      <trkpt lat="42.69963" lon="2.70117">
        <ele>99.6</ele>
        <time>2021-03-28T11:58:49Z</time>
      </trkpt>
      <trkpt lat="42.69964" lon="2.70126">
        <ele>100.1</ele>
        <time>2021-03-28T11:58:50Z</time>
      </trkpt>
      <trkpt lat="42.69964" lon="2.70126">
        <ele>100.1</ele>
        <time>2021-03-28T11:58:50Z</time>
      </trkpt>
      <trkpt lat="42.69965" lon="2.70133">
        <ele>100.6</ele>
        <time>2021-03-28T11:58:51Z</time>
      </trkpt>
      <trkpt lat="42.69965" lon="2.70133">
        <ele>100.6</ele>
        <time>2021-03-28T11:58:51Z</time>
      </trkpt>
      <trkpt lat="42.69966" lon="2.70142">
        <ele>101.1</ele>
        <time>2021-03-28T11:58:53Z</time>
      </trkpt>
      <trkpt lat="42.69966" lon="2.70142">
        <ele>101.1</ele>
        <time>2021-03-28T11:58:53Z</time>
      </trkpt>
      <trkpt lat="42.69968" lon="2.7015">
        <ele>101.4</ele>
        <time>2021-03-28T11:58:54Z</time>
      </trkpt>
      <trkpt lat="42.69968" lon="2.7015">
        <ele>101.4</ele>
        <time>2021-03-28T11:58:54Z</time>
      </trkpt>
      <trkpt lat="42.69969" lon="2.70156">
        <ele>101.6</ele>
        <time>2021-03-28T11:58:55Z</time>
      </trkpt>
      <trkpt lat="42.69969" lon="2.70156">
        <ele>101.6</ele>
        <time>2021-03-28T11:58:55Z</time>
      </trkpt>
      <trkpt lat="42.69971" lon="2.70164">
        <ele>101.8</ele>
        <time>2021-03-28T11:58:57Z</time>
      </trkpt>
      <trkpt lat="42.69971" lon="2.70164">
        <ele>101.8</ele>
        <time>2021-03-28T11:58:57Z</time>
      </trkpt>
      <trkpt lat="42.69973" lon="2.70172">
        <ele>101.6</ele>
        <time>2021-03-28T11:58:58Z</time>
      </trkpt>
      <trkpt lat="42.69973" lon="2.70172">
        <ele>101.6</ele>
        <time>2021-03-28T11:58:58Z</time>
      </trkpt>
      <trkpt lat="42.69975" lon="2.70181">
        <ele>100.9</ele>
        <time>2021-03-28T11:59:00Z</time>
      </trkpt>
      <trkpt lat="42.69975" lon="2.70181">
        <ele>100.9</ele>
        <time>2021-03-28T11:59:00Z</time>
      </trkpt>
      <trkpt lat="42.69978" lon="2.70189">
        <ele>100.3</ele>
        <time>2021-03-28T11:59:01Z</time>
      </trkpt>
      <trkpt lat="42.69978" lon="2.70189">
        <ele>100.3</ele>
        <time>2021-03-28T11:59:01Z</time>
      </trkpt>
      <trkpt lat="42.69981" lon="2.702">
        <ele>99.9</ele>
        <time>2021-03-28T11:59:03Z</time>
      </trkpt>
      <trkpt lat="42.69981" lon="2.702">
        <ele>99.9</ele>
        <time>2021-03-28T11:59:03Z</time>
      </trkpt>
      <trkpt lat="42.69985" lon="2.70211">
        <ele>99.7</ele>
        <time>2021-03-28T11:59:05Z</time>
      </trkpt>
      <trkpt lat="42.69985" lon="2.70211">
        <ele>99.7</ele>
        <time>2021-03-28T11:59:05Z</time>
      </trkpt>
      <trkpt lat="42.69989" lon="2.70224">
        <ele>99.6</ele>
        <time>2021-03-28T11:59:07Z</time>
      </trkpt>
      <trkpt lat="42.69989" lon="2.70224">
        <ele>99.6</ele>
        <time>2021-03-28T11:59:07Z</time>
      </trkpt>
      <trkpt lat="42.69992" lon="2.70236">
        <ele>100.1</ele>
        <time>2021-03-28T11:59:09Z</time>
      </trkpt>
      <trkpt lat="42.69992" lon="2.70236">
        <ele>100.1</ele>
        <time>2021-03-28T11:59:09Z</time>
      </trkpt>
      <trkpt lat="42.69996" lon="2.70247">
        <ele>100.6</ele>
        <time>2021-03-28T11:59:10Z</time>
      </trkpt>
      <trkpt lat="42.69996" lon="2.70247">
        <ele>100.6</ele>
        <time>2021-03-28T11:59:10Z</time>
      </trkpt>
      <trkpt lat="42.7" lon="2.7026">
        <ele>100.6</ele>
        <time>2021-03-28T11:59:12Z</time>
      </trkpt>
      <trkpt lat="42.7" lon="2.7026">
        <ele>100.6</ele>
        <time>2021-03-28T11:59:12Z</time>
      </trkpt>
      <trkpt lat="42.70004" lon="2.70273">
        <ele>99.9</ele>
        <time>2021-03-28T11:59:14Z</time>
      </trkpt>
      <trkpt lat="42.70004" lon="2.70273">
        <ele>99.9</ele>
        <time>2021-03-28T11:59:14Z</time>
      </trkpt>
      <trkpt lat="42.70007" lon="2.70286">
        <ele>99.1</ele>
        <time>2021-03-28T11:59:15Z</time>
      </trkpt>
      <trkpt lat="42.70007" lon="2.70286">
        <ele>99.1</ele>
        <time>2021-03-28T11:59:15Z</time>
      </trkpt>
      <trkpt lat="42.70011" lon="2.703">
        <ele>98.6</ele>
        <time>2021-03-28T11:59:17Z</time>
      </trkpt>
      <trkpt lat="42.70011" lon="2.703">
        <ele>98.6</ele>
        <time>2021-03-28T11:59:17Z</time>
      </trkpt>
      <trkpt lat="42.70015" lon="2.70313">
        <ele>98.8</ele>
        <time>2021-03-28T11:59:19Z</time>
      </trkpt>
      <trkpt lat="42.70015" lon="2.70313">
        <ele>98.8</ele>
        <time>2021-03-28T11:59:19Z</time>
      </trkpt>
      <trkpt lat="42.70019" lon="2.70327">
        <ele>99.4</ele>
        <time>2021-03-28T11:59:21Z</time>
      </trkpt>
      <trkpt lat="42.70019" lon="2.70327">
        <ele>99.4</ele>
        <time>2021-03-28T11:59:21Z</time>
      </trkpt>
      <trkpt lat="42.70022" lon="2.70338">
        <ele>99.7</ele>
        <time>2021-03-28T11:59:22Z</time>
      </trkpt>
      <trkpt lat="42.70022" lon="2.70338">
        <ele>99.7</ele>
        <time>2021-03-28T11:59:22Z</time>
      </trkpt>
      <trkpt lat="42.70026" lon="2.70351">
        <ele>99.8</ele>
        <time>2021-03-28T11:59:24Z</time>
      </trkpt>
      <trkpt lat="42.70026" lon="2.70351">
        <ele>99.8</ele>
        <time>2021-03-28T11:59:24Z</time>
      </trkpt>
      <trkpt lat="42.70029" lon="2.70362">
        <ele>99.9</ele>
        <time>2021-03-28T11:59:25Z</time>
      </trkpt>
      <trkpt lat="42.70029" lon="2.70362">
        <ele>99.9</ele>
        <time>2021-03-28T11:59:25Z</time>
      </trkpt>
      <trkpt lat="42.70033" lon="2.70375">
        <ele>99</ele>
        <time>2021-03-28T11:59:27Z</time>
      </trkpt>
      <trkpt lat="42.70033" lon="2.70375">
        <ele>99</ele>
        <time>2021-03-28T11:59:27Z</time>
      </trkpt>
      <trkpt lat="42.70037" lon="2.70386">
        <ele>98.5</ele>
        <time>2021-03-28T11:59:28Z</time>
      </trkpt>
      <trkpt lat="42.70037" lon="2.70386">
        <ele>98.5</ele>
        <time>2021-03-28T11:59:28Z</time>
      </trkpt>
      <trkpt lat="42.70041" lon="2.70398">
        <ele>97.9</ele>
        <time>2021-03-28T11:59:30Z</time>
      </trkpt>
      <trkpt lat="42.70041" lon="2.70398">
        <ele>97.9</ele>
        <time>2021-03-28T11:59:30Z</time>
      </trkpt>
      <trkpt lat="42.70044" lon="2.70411">
        <ele>97.5</ele>
        <time>2021-03-28T11:59:32Z</time>
      </trkpt>
      <trkpt lat="42.70044" lon="2.70411">
        <ele>97.5</ele>
        <time>2021-03-28T11:59:32Z</time>
      </trkpt>
      <trkpt lat="42.70048" lon="2.70422">
        <ele>97.6</ele>
        <time>2021-03-28T11:59:33Z</time>
      </trkpt>
      <trkpt lat="42.70048" lon="2.70422">
        <ele>97.6</ele>
        <time>2021-03-28T11:59:33Z</time>
      </trkpt>
      <trkpt lat="42.70051" lon="2.70433">
        <ele>98.1</ele>
        <time>2021-03-28T11:59:34Z</time>
      </trkpt>
      <trkpt lat="42.70051" lon="2.70433">
        <ele>98.1</ele>
        <time>2021-03-28T11:59:34Z</time>
      </trkpt>
      <trkpt lat="42.70054" lon="2.70444">
        <ele>98.8</ele>
        <time>2021-03-28T11:59:36Z</time>
      </trkpt>
      <trkpt lat="42.70054" lon="2.70444">
        <ele>98.8</ele>
        <time>2021-03-28T11:59:36Z</time>
      </trkpt>
      <trkpt lat="42.70056" lon="2.70454">
        <ele>98.6</ele>
        <time>2021-03-28T11:59:37Z</time>
      </trkpt>
      <trkpt lat="42.70056" lon="2.70454">
        <ele>98.6</ele>
        <time>2021-03-28T11:59:37Z</time>
      </trkpt>
      <trkpt lat="42.7006" lon="2.70466">
        <ele>98.2</ele>
        <time>2021-03-28T11:59:39Z</time>
      </trkpt>
      <trkpt lat="42.7006" lon="2.70466">
        <ele>98.2</ele>
        <time>2021-03-28T11:59:39Z</time>
      </trkpt>
      <trkpt lat="42.70064" lon="2.70479">
        <ele>97.7</ele>
        <time>2021-03-28T11:59:41Z</time>
      </trkpt>
      <trkpt lat="42.70064" lon="2.70479">
        <ele>97.7</ele>
        <time>2021-03-28T11:59:41Z</time>
      </trkpt>
      <trkpt lat="42.70068" lon="2.70492">
        <ele>97.3</ele>
        <time>2021-03-28T11:59:43Z</time>
      </trkpt>
      <trkpt lat="42.70068" lon="2.70492">
        <ele>97.3</ele>
        <time>2021-03-28T11:59:43Z</time>
      </trkpt>
      <trkpt lat="42.70071" lon="2.70503">
        <ele>97.1</ele>
        <time>2021-03-28T11:59:44Z</time>
      </trkpt>
      <trkpt lat="42.70071" lon="2.70503">
        <ele>97.1</ele>
        <time>2021-03-28T11:59:44Z</time>
      </trkpt>
      <trkpt lat="42.70075" lon="2.70515">
        <ele>97.8</ele>
        <time>2021-03-28T11:59:46Z</time>
      </trkpt>
      <trkpt lat="42.70075" lon="2.70515">
        <ele>97.8</ele>
        <time>2021-03-28T11:59:46Z</time>
      </trkpt>
      <trkpt lat="42.70079" lon="2.70529">
        <ele>98.7</ele>
        <time>2021-03-28T11:59:48Z</time>
      </trkpt>
      <trkpt lat="42.70079" lon="2.70529">
        <ele>98.7</ele>
        <time>2021-03-28T11:59:48Z</time>
      </trkpt>
      <trkpt lat="42.70082" lon="2.7054">
        <ele>98.9</ele>
        <time>2021-03-28T11:59:49Z</time>
      </trkpt>
      <trkpt lat="42.70082" lon="2.7054">
        <ele>98.9</ele>
        <time>2021-03-28T11:59:49Z</time>
      </trkpt>
      <trkpt lat="42.70085" lon="2.7055">
        <ele>98.9</ele>
        <time>2021-03-28T11:59:50Z</time>
      </trkpt>
      <trkpt lat="42.70085" lon="2.7055">
        <ele>98.9</ele>
        <time>2021-03-28T11:59:50Z</time>
      </trkpt>
      <trkpt lat="42.70089" lon="2.70562">
        <ele>98.6</ele>
        <time>2021-03-28T11:59:52Z</time>
      </trkpt>
      <trkpt lat="42.70089" lon="2.70562">
        <ele>98.6</ele>
        <time>2021-03-28T11:59:52Z</time>
      </trkpt>
      <trkpt lat="42.70093" lon="2.70573">
        <ele>98.2</ele>
        <time>2021-03-28T11:59:54Z</time>
      </trkpt>
      <trkpt lat="42.70093" lon="2.70573">
        <ele>98.2</ele>
        <time>2021-03-28T11:59:54Z</time>
      </trkpt>
      <trkpt lat="42.70095" lon="2.70583">
        <ele>98</ele>
        <time>2021-03-28T11:59:55Z</time>
      </trkpt>
      <trkpt lat="42.70095" lon="2.70583">
        <ele>98</ele>
        <time>2021-03-28T11:59:55Z</time>
      </trkpt>
      <trkpt lat="42.70098" lon="2.70593">
        <ele>98.4</ele>
        <time>2021-03-28T11:59:57Z</time>
      </trkpt>
      <trkpt lat="42.70098" lon="2.70593">
        <ele>98.4</ele>
        <time>2021-03-28T11:59:57Z</time>
      </trkpt>
      <trkpt lat="42.70102" lon="2.70604">
        <ele>99</ele>
        <time>2021-03-28T11:59:59Z</time>
      </trkpt>
      <trkpt lat="42.70102" lon="2.70604">
        <ele>99</ele>
        <time>2021-03-28T11:59:59Z</time>
      </trkpt>
      <trkpt lat="42.70105" lon="2.70616">
        <ele>99.7</ele>
        <time>2021-03-28T12:00:01Z</time>
      </trkpt>
      <trkpt lat="42.70105" lon="2.70616">
        <ele>99.7</ele>
        <time>2021-03-28T12:00:01Z</time>
      </trkpt>
      <trkpt lat="42.70108" lon="2.70625">
        <ele>100.2</ele>
        <time>2021-03-28T12:00:02Z</time>
      </trkpt>
      <trkpt lat="42.70108" lon="2.70625">
        <ele>100.2</ele>
        <time>2021-03-28T12:00:02Z</time>
      </trkpt>
      <trkpt lat="42.7011" lon="2.70636">
        <ele>100.8</ele>
        <time>2021-03-28T12:00:04Z</time>
      </trkpt>
      <trkpt lat="42.7011" lon="2.70636">
        <ele>100.8</ele>
        <time>2021-03-28T12:00:04Z</time>
      </trkpt>
      <trkpt lat="42.70113" lon="2.70647">
        <ele>100.3</ele>
        <time>2021-03-28T12:00:06Z</time>
      </trkpt>
      <trkpt lat="42.70113" lon="2.70647">
        <ele>100.3</ele>
        <time>2021-03-28T12:00:06Z</time>
      </trkpt>
      <trkpt lat="42.70115" lon="2.70658">
        <ele>99.5</ele>
        <time>2021-03-28T12:00:08Z</time>
      </trkpt>
      <trkpt lat="42.70115" lon="2.70658">
        <ele>99.5</ele>
        <time>2021-03-28T12:00:08Z</time>
      </trkpt>
      <trkpt lat="42.70117" lon="2.7067">
        <ele>99</ele>
        <time>2021-03-28T12:00:10Z</time>
      </trkpt>
      <trkpt lat="42.70117" lon="2.7067">
        <ele>99</ele>
        <time>2021-03-28T12:00:10Z</time>
      </trkpt>
      <trkpt lat="42.70118" lon="2.70683">
        <ele>99</ele>
        <time>2021-03-28T12:00:12Z</time>
      </trkpt>
      <trkpt lat="42.70118" lon="2.70683">
        <ele>99</ele>
        <time>2021-03-28T12:00:12Z</time>
      </trkpt>
      <trkpt lat="42.70119" lon="2.70695">
        <ele>99</ele>
        <time>2021-03-28T12:00:14Z</time>
      </trkpt>
      <trkpt lat="42.70119" lon="2.70695">
        <ele>99</ele>
        <time>2021-03-28T12:00:14Z</time>
      </trkpt>
      <trkpt lat="42.7012" lon="2.70708">
        <ele>99</ele>
        <time>2021-03-28T12:00:16Z</time>
      </trkpt>
      <trkpt lat="42.7012" lon="2.70708">
        <ele>99</ele>
        <time>2021-03-28T12:00:16Z</time>
      </trkpt>
      <trkpt lat="42.7012" lon="2.70722">
        <ele>99</ele>
        <time>2021-03-28T12:00:18Z</time>
      </trkpt>
      <trkpt lat="42.7012" lon="2.70722">
        <ele>99</ele>
        <time>2021-03-28T12:00:18Z</time>
      </trkpt>
      <trkpt lat="42.7012" lon="2.70736">
        <ele>98.7</ele>
        <time>2021-03-28T12:00:20Z</time>
      </trkpt>
      <trkpt lat="42.7012" lon="2.70736">
        <ele>98.7</ele>
        <time>2021-03-28T12:00:20Z</time>
      </trkpt>
      <trkpt lat="42.70119" lon="2.7075">
        <ele>98.3</ele>
        <time>2021-03-28T12:00:22Z</time>
      </trkpt>
      <trkpt lat="42.70119" lon="2.7075">
        <ele>98.3</ele>
        <time>2021-03-28T12:00:22Z</time>
      </trkpt>
      <trkpt lat="42.70119" lon="2.70762">
        <ele>98.4</ele>
        <time>2021-03-28T12:00:23Z</time>
      </trkpt>
      <trkpt lat="42.70119" lon="2.70762">
        <ele>98.4</ele>
        <time>2021-03-28T12:00:23Z</time>
      </trkpt>
      <trkpt lat="42.70119" lon="2.70774">
        <ele>98.5</ele>
        <time>2021-03-28T12:00:25Z</time>
      </trkpt>
      <trkpt lat="42.70119" lon="2.70774">
        <ele>98.5</ele>
        <time>2021-03-28T12:00:25Z</time>
      </trkpt>
      <trkpt lat="42.70119" lon="2.70787">
        <ele>98.7</ele>
        <time>2021-03-28T12:00:27Z</time>
      </trkpt>
      <trkpt lat="42.70119" lon="2.70787">
        <ele>98.7</ele>
        <time>2021-03-28T12:00:27Z</time>
      </trkpt>
      <trkpt lat="42.70119" lon="2.70798">
        <ele>98.9</ele>
        <time>2021-03-28T12:00:28Z</time>
      </trkpt>
      <trkpt lat="42.70119" lon="2.70798">
        <ele>98.9</ele>
        <time>2021-03-28T12:00:28Z</time>
      </trkpt>
      <trkpt lat="42.70118" lon="2.7081">
        <ele>99.2</ele>
        <time>2021-03-28T12:00:30Z</time>
      </trkpt>
      <trkpt lat="42.70118" lon="2.7081">
        <ele>99.2</ele>
        <time>2021-03-28T12:00:30Z</time>
      </trkpt>
      <trkpt lat="42.70118" lon="2.70821">
        <ele>99.6</ele>
        <time>2021-03-28T12:00:31Z</time>
      </trkpt>
      <trkpt lat="42.70118" lon="2.70821">
        <ele>99.6</ele>
        <time>2021-03-28T12:00:31Z</time>
      </trkpt>
      <trkpt lat="42.70118" lon="2.70833">
        <ele>100.2</ele>
        <time>2021-03-28T12:00:33Z</time>
      </trkpt>
      <trkpt lat="42.70118" lon="2.70833">
        <ele>100.2</ele>
        <time>2021-03-28T12:00:33Z</time>
      </trkpt>
      <trkpt lat="42.70117" lon="2.70846">
        <ele>100.7</ele>
        <time>2021-03-28T12:00:35Z</time>
      </trkpt>
      <trkpt lat="42.70117" lon="2.70846">
        <ele>100.7</ele>
        <time>2021-03-28T12:00:35Z</time>
      </trkpt>
      <trkpt lat="42.70117" lon="2.70859">
        <ele>101.2</ele>
        <time>2021-03-28T12:00:37Z</time>
      </trkpt>
      <trkpt lat="42.70117" lon="2.70859">
        <ele>101.2</ele>
        <time>2021-03-28T12:00:37Z</time>
      </trkpt>
      <trkpt lat="42.70116" lon="2.70873">
        <ele>101.4</ele>
        <time>2021-03-28T12:00:39Z</time>
      </trkpt>
      <trkpt lat="42.70116" lon="2.70873">
        <ele>101.4</ele>
        <time>2021-03-28T12:00:39Z</time>
      </trkpt>
      <trkpt lat="42.70116" lon="2.70887">
        <ele>101.3</ele>
        <time>2021-03-28T12:00:41Z</time>
      </trkpt>
      <trkpt lat="42.70116" lon="2.70887">
        <ele>101.3</ele>
        <time>2021-03-28T12:00:41Z</time>
      </trkpt>
      <trkpt lat="42.70116" lon="2.70899">
        <ele>100.9</ele>
        <time>2021-03-28T12:00:42Z</time>
      </trkpt>
      <trkpt lat="42.70116" lon="2.70899">
        <ele>100.9</ele>
        <time>2021-03-28T12:00:42Z</time>
      </trkpt>
      <trkpt lat="42.70115" lon="2.70913">
        <ele>100.4</ele>
        <time>2021-03-28T12:00:44Z</time>
      </trkpt>
      <trkpt lat="42.70115" lon="2.70913">
        <ele>100.4</ele>
        <time>2021-03-28T12:00:44Z</time>
      </trkpt>
      <trkpt lat="42.70115" lon="2.70927">
        <ele>99.8</ele>
        <time>2021-03-28T12:00:46Z</time>
      </trkpt>
      <trkpt lat="42.70115" lon="2.70927">
        <ele>99.8</ele>
        <time>2021-03-28T12:00:46Z</time>
      </trkpt>
      <trkpt lat="42.70115" lon="2.70939">
        <ele>99.4</ele>
        <time>2021-03-28T12:00:47Z</time>
      </trkpt>
      <trkpt lat="42.70115" lon="2.70939">
        <ele>99.4</ele>
        <time>2021-03-28T12:00:47Z</time>
      </trkpt>
      <trkpt lat="42.70115" lon="2.70952">
        <ele>99.3</ele>
        <time>2021-03-28T12:00:49Z</time>
      </trkpt>
      <trkpt lat="42.70115" lon="2.70952">
        <ele>99.3</ele>
        <time>2021-03-28T12:00:49Z</time>
      </trkpt>
      <trkpt lat="42.70114" lon="2.70964">
        <ele>99.2</ele>
        <time>2021-03-28T12:00:50Z</time>
      </trkpt>
      <trkpt lat="42.70114" lon="2.70964">
        <ele>99.2</ele>
        <time>2021-03-28T12:00:50Z</time>
      </trkpt>
      <trkpt lat="42.70114" lon="2.70976">
        <ele>99</ele>
        <time>2021-03-28T12:00:52Z</time>
      </trkpt>
      <trkpt lat="42.70114" lon="2.70976">
        <ele>99</ele>
        <time>2021-03-28T12:00:52Z</time>
      </trkpt>
      <trkpt lat="42.70113" lon="2.70988">
        <ele>98.7</ele>
        <time>2021-03-28T12:00:53Z</time>
      </trkpt>
      <trkpt lat="42.70113" lon="2.70988">
        <ele>98.7</ele>
        <time>2021-03-28T12:00:53Z</time>
      </trkpt>
      <trkpt lat="42.70113" lon="2.70998">
        <ele>98.5</ele>
        <time>2021-03-28T12:00:54Z</time>
      </trkpt>
      <trkpt lat="42.70113" lon="2.70998">
        <ele>98.5</ele>
        <time>2021-03-28T12:00:54Z</time>
      </trkpt>
      <trkpt lat="42.70113" lon="2.71011">
        <ele>98.4</ele>
        <time>2021-03-28T12:00:56Z</time>
      </trkpt>
      <trkpt lat="42.70113" lon="2.71011">
        <ele>98.4</ele>
        <time>2021-03-28T12:00:56Z</time>
      </trkpt>
      <trkpt lat="42.70113" lon="2.71023">
        <ele>98.4</ele>
        <time>2021-03-28T12:00:57Z</time>
      </trkpt>
      <trkpt lat="42.70113" lon="2.71023">
        <ele>98.4</ele>
        <time>2021-03-28T12:00:57Z</time>
      </trkpt>
      <trkpt lat="42.70113" lon="2.71037">
        <ele>98.4</ele>
        <time>2021-03-28T12:00:59Z</time>
      </trkpt>
      <trkpt lat="42.70113" lon="2.71037">
        <ele>98.4</ele>
        <time>2021-03-28T12:00:59Z</time>
      </trkpt>
      <trkpt lat="42.70113" lon="2.7105">
        <ele>98.4</ele>
        <time>2021-03-28T12:01:00Z</time>
      </trkpt>
      <trkpt lat="42.70113" lon="2.7105">
        <ele>98.4</ele>
        <time>2021-03-28T12:01:00Z</time>
      </trkpt>
      <trkpt lat="42.70113" lon="2.71061">
        <ele>98.2</ele>
        <time>2021-03-28T12:01:01Z</time>
      </trkpt>
      <trkpt lat="42.70113" lon="2.71061">
        <ele>98.2</ele>
        <time>2021-03-28T12:01:01Z</time>
      </trkpt>
      <trkpt lat="42.70113" lon="2.71071">
        <ele>97.8</ele>
        <time>2021-03-28T12:01:02Z</time>
      </trkpt>
      <trkpt lat="42.70113" lon="2.71071">
        <ele>97.8</ele>
        <time>2021-03-28T12:01:02Z</time>
      </trkpt>
      <trkpt lat="42.70113" lon="2.71084">
        <ele>97.3</ele>
        <time>2021-03-28T12:01:04Z</time>
      </trkpt>
      <trkpt lat="42.70113" lon="2.71084">
        <ele>97.3</ele>
        <time>2021-03-28T12:01:04Z</time>
      </trkpt>
      <trkpt lat="42.70113" lon="2.71099">
        <ele>97.2</ele>
        <time>2021-03-28T12:01:06Z</time>
      </trkpt>
      <trkpt lat="42.70113" lon="2.71099">
        <ele>97.2</ele>
        <time>2021-03-28T12:01:06Z</time>
      </trkpt>
      <trkpt lat="42.70113" lon="2.71112">
        <ele>97.2</ele>
        <time>2021-03-28T12:01:07Z</time>
      </trkpt>
      <trkpt lat="42.70113" lon="2.71112">
        <ele>97.2</ele>
        <time>2021-03-28T12:01:07Z</time>
      </trkpt>
      <trkpt lat="42.70113" lon="2.71125">
        <ele>97.2</ele>
        <time>2021-03-28T12:01:08Z</time>
      </trkpt>
      <trkpt lat="42.70113" lon="2.71125">
        <ele>97.2</ele>
        <time>2021-03-28T12:01:08Z</time>
      </trkpt>
      <trkpt lat="42.70113" lon="2.71139">
        <ele>97.1</ele>
        <time>2021-03-28T12:01:10Z</time>
      </trkpt>
      <trkpt lat="42.70113" lon="2.71139">
        <ele>97.1</ele>
        <time>2021-03-28T12:01:10Z</time>
      </trkpt>
      <trkpt lat="42.70113" lon="2.71154">
        <ele>97.1</ele>
        <time>2021-03-28T12:01:12Z</time>
      </trkpt>
      <trkpt lat="42.70113" lon="2.71154">
        <ele>97.1</ele>
        <time>2021-03-28T12:01:12Z</time>
      </trkpt>
      <trkpt lat="42.70112" lon="2.71169">
        <ele>97</ele>
        <time>2021-03-28T12:01:14Z</time>
      </trkpt>
      <trkpt lat="42.70112" lon="2.71169">
        <ele>97</ele>
        <time>2021-03-28T12:01:14Z</time>
      </trkpt>
      <trkpt lat="42.70112" lon="2.71184">
        <ele>96.4</ele>
        <time>2021-03-28T12:01:16Z</time>
      </trkpt>
      <trkpt lat="42.70112" lon="2.71184">
        <ele>96.4</ele>
        <time>2021-03-28T12:01:16Z</time>
      </trkpt>
      <trkpt lat="42.70111" lon="2.71198">
        <ele>95.9</ele>
        <time>2021-03-28T12:01:17Z</time>
      </trkpt>
      <trkpt lat="42.70111" lon="2.71198">
        <ele>95.9</ele>
        <time>2021-03-28T12:01:17Z</time>
      </trkpt>
      <trkpt lat="42.70111" lon="2.71213">
        <ele>95.3</ele>
        <time>2021-03-28T12:01:19Z</time>
      </trkpt>
      <trkpt lat="42.70111" lon="2.71213">
        <ele>95.3</ele>
        <time>2021-03-28T12:01:19Z</time>
      </trkpt>
      <trkpt lat="42.70111" lon="2.71229">
        <ele>95</ele>
        <time>2021-03-28T12:01:21Z</time>
      </trkpt>
      <trkpt lat="42.70111" lon="2.71229">
        <ele>95</ele>
        <time>2021-03-28T12:01:21Z</time>
      </trkpt>
      <trkpt lat="42.7011" lon="2.71243">
        <ele>94.9</ele>
        <time>2021-03-28T12:01:22Z</time>
      </trkpt>
      <trkpt lat="42.7011" lon="2.71243">
        <ele>94.9</ele>
        <time>2021-03-28T12:01:22Z</time>
      </trkpt>
      <trkpt lat="42.7011" lon="2.71257">
        <ele>94.9</ele>
        <time>2021-03-28T12:01:24Z</time>
      </trkpt>
      <trkpt lat="42.7011" lon="2.71257">
        <ele>94.9</ele>
        <time>2021-03-28T12:01:24Z</time>
      </trkpt>
      <trkpt lat="42.70109" lon="2.71272">
        <ele>94.9</ele>
        <time>2021-03-28T12:01:26Z</time>
      </trkpt>
      <trkpt lat="42.70109" lon="2.71272">
        <ele>94.9</ele>
        <time>2021-03-28T12:01:26Z</time>
      </trkpt>
      <trkpt lat="42.70109" lon="2.71285">
        <ele>94.6</ele>
        <time>2021-03-28T12:01:27Z</time>
      </trkpt>
      <trkpt lat="42.70109" lon="2.71285">
        <ele>94.6</ele>
        <time>2021-03-28T12:01:27Z</time>
      </trkpt>
      <trkpt lat="42.70109" lon="2.71301">
        <ele>94</ele>
        <time>2021-03-28T12:01:29Z</time>
      </trkpt>
      <trkpt lat="42.70109" lon="2.71301">
        <ele>94</ele>
        <time>2021-03-28T12:01:29Z</time>
      </trkpt>
      <trkpt lat="42.70108" lon="2.71314">
        <ele>93.8</ele>
        <time>2021-03-28T12:01:30Z</time>
      </trkpt>
      <trkpt lat="42.70108" lon="2.71314">
        <ele>93.8</ele>
        <time>2021-03-28T12:01:30Z</time>
      </trkpt>
      <trkpt lat="42.70108" lon="2.71326">
        <ele>93.8</ele>
        <time>2021-03-28T12:01:31Z</time>
      </trkpt>
      <trkpt lat="42.70108" lon="2.71326">
        <ele>93.8</ele>
        <time>2021-03-28T12:01:31Z</time>
      </trkpt>
      <trkpt lat="42.70108" lon="2.7134">
        <ele>93.8</ele>
        <time>2021-03-28T12:01:33Z</time>
      </trkpt>
      <trkpt lat="42.70108" lon="2.7134">
        <ele>93.8</ele>
        <time>2021-03-28T12:01:33Z</time>
      </trkpt>
      <trkpt lat="42.70107" lon="2.71354">
        <ele>93.8</ele>
        <time>2021-03-28T12:01:35Z</time>
      </trkpt>
      <trkpt lat="42.70107" lon="2.71354">
        <ele>93.8</ele>
        <time>2021-03-28T12:01:35Z</time>
      </trkpt>
      <trkpt lat="42.70106" lon="2.71366">
        <ele>93.8</ele>
        <time>2021-03-28T12:01:36Z</time>
      </trkpt>
      <trkpt lat="42.70106" lon="2.71366">
        <ele>93.8</ele>
        <time>2021-03-28T12:01:36Z</time>
      </trkpt>
      <trkpt lat="42.70106" lon="2.71379">
        <ele>93.7</ele>
        <time>2021-03-28T12:01:38Z</time>
      </trkpt>
      <trkpt lat="42.70106" lon="2.71379">
        <ele>93.7</ele>
        <time>2021-03-28T12:01:38Z</time>
      </trkpt>
      <trkpt lat="42.70105" lon="2.71391">
        <ele>93.6</ele>
        <time>2021-03-28T12:01:39Z</time>
      </trkpt>
      <trkpt lat="42.70105" lon="2.71391">
        <ele>93.6</ele>
        <time>2021-03-28T12:01:39Z</time>
      </trkpt>
      <trkpt lat="42.70105" lon="2.71404">
        <ele>93.5</ele>
        <time>2021-03-28T12:01:41Z</time>
      </trkpt>
      <trkpt lat="42.70105" lon="2.71404">
        <ele>93.5</ele>
        <time>2021-03-28T12:01:41Z</time>
      </trkpt>
      <trkpt lat="42.70104" lon="2.71419">
        <ele>93.5</ele>
        <time>2021-03-28T12:01:43Z</time>
      </trkpt>
      <trkpt lat="42.70104" lon="2.71419">
        <ele>93.5</ele>
        <time>2021-03-28T12:01:43Z</time>
      </trkpt>
      <trkpt lat="42.70104" lon="2.71434">
        <ele>93.5</ele>
        <time>2021-03-28T12:01:45Z</time>
      </trkpt>
      <trkpt lat="42.70104" lon="2.71434">
        <ele>93.5</ele>
        <time>2021-03-28T12:01:45Z</time>
      </trkpt>
      <trkpt lat="42.70104" lon="2.71451">
        <ele>93.5</ele>
        <time>2021-03-28T12:01:47Z</time>
      </trkpt>
      <trkpt lat="42.70104" lon="2.71451">
        <ele>93.5</ele>
        <time>2021-03-28T12:01:47Z</time>
      </trkpt>
      <trkpt lat="42.70103" lon="2.71467">
        <ele>93.4</ele>
        <time>2021-03-28T12:01:49Z</time>
      </trkpt>
      <trkpt lat="42.70103" lon="2.71467">
        <ele>93.4</ele>
        <time>2021-03-28T12:01:49Z</time>
      </trkpt>
      <trkpt lat="42.70103" lon="2.71484">
        <ele>93.4</ele>
        <time>2021-03-28T12:01:51Z</time>
      </trkpt>
      <trkpt lat="42.70103" lon="2.71484">
        <ele>93.4</ele>
        <time>2021-03-28T12:01:51Z</time>
      </trkpt>
      <trkpt lat="42.70103" lon="2.715">
        <ele>93.4</ele>
        <time>2021-03-28T12:01:53Z</time>
      </trkpt>
      <trkpt lat="42.70103" lon="2.715">
        <ele>93.4</ele>
        <time>2021-03-28T12:01:53Z</time>
      </trkpt>
      <trkpt lat="42.70102" lon="2.71517">
        <ele>93.4</ele>
        <time>2021-03-28T12:01:55Z</time>
      </trkpt>
      <trkpt lat="42.70102" lon="2.71517">
        <ele>93.4</ele>
        <time>2021-03-28T12:01:55Z</time>
      </trkpt>
      <trkpt lat="42.70102" lon="2.71533">
        <ele>93.4</ele>
        <time>2021-03-28T12:01:57Z</time>
      </trkpt>
      <trkpt lat="42.70102" lon="2.71533">
        <ele>93.4</ele>
        <time>2021-03-28T12:01:57Z</time>
      </trkpt>
      <trkpt lat="42.70102" lon="2.7155">
        <ele>93.6</ele>
        <time>2021-03-28T12:01:59Z</time>
      </trkpt>
      <trkpt lat="42.70102" lon="2.7155">
        <ele>93.6</ele>
        <time>2021-03-28T12:01:59Z</time>
      </trkpt>
      <trkpt lat="42.70101" lon="2.71565">
        <ele>93.3</ele>
        <time>2021-03-28T12:02:00Z</time>
      </trkpt>
      <trkpt lat="42.70101" lon="2.71565">
        <ele>93.3</ele>
        <time>2021-03-28T12:02:00Z</time>
      </trkpt>
      <trkpt lat="42.70101" lon="2.71578">
        <ele>92.8</ele>
        <time>2021-03-28T12:02:02Z</time>
      </trkpt>
      <trkpt lat="42.70101" lon="2.71578">
        <ele>92.8</ele>
        <time>2021-03-28T12:02:02Z</time>
      </trkpt>
      <trkpt lat="42.701" lon="2.7159">
        <ele>92.6</ele>
        <time>2021-03-28T12:02:03Z</time>
      </trkpt>
      <trkpt lat="42.701" lon="2.7159">
        <ele>92.6</ele>
        <time>2021-03-28T12:02:03Z</time>
      </trkpt>
      <trkpt lat="42.701" lon="2.716">
        <ele>92.6</ele>
        <time>2021-03-28T12:02:04Z</time>
      </trkpt>
      <trkpt lat="42.701" lon="2.716">
        <ele>92.6</ele>
        <time>2021-03-28T12:02:04Z</time>
      </trkpt>
      <trkpt lat="42.701" lon="2.7161">
        <ele>92.6</ele>
        <time>2021-03-28T12:02:05Z</time>
      </trkpt>
      <trkpt lat="42.701" lon="2.7161">
        <ele>92.6</ele>
        <time>2021-03-28T12:02:05Z</time>
      </trkpt>
      <trkpt lat="42.70099" lon="2.71621">
        <ele>92.4</ele>
        <time>2021-03-28T12:02:07Z</time>
      </trkpt>
      <trkpt lat="42.70099" lon="2.71621">
        <ele>92.4</ele>
        <time>2021-03-28T12:02:07Z</time>
      </trkpt>
      <trkpt lat="42.70099" lon="2.71635">
        <ele>92.2</ele>
        <time>2021-03-28T12:02:09Z</time>
      </trkpt>
      <trkpt lat="42.70099" lon="2.71635">
        <ele>92.2</ele>
        <time>2021-03-28T12:02:09Z</time>
      </trkpt>
      <trkpt lat="42.70099" lon="2.71646">
        <ele>92</ele>
        <time>2021-03-28T12:02:10Z</time>
      </trkpt>
      <trkpt lat="42.70099" lon="2.71646">
        <ele>92</ele>
        <time>2021-03-28T12:02:10Z</time>
      </trkpt>
      <trkpt lat="42.70099" lon="2.71657">
        <ele>91.8</ele>
        <time>2021-03-28T12:02:11Z</time>
      </trkpt>
      <trkpt lat="42.70099" lon="2.71657">
        <ele>91.8</ele>
        <time>2021-03-28T12:02:11Z</time>
      </trkpt>
      <trkpt lat="42.70099" lon="2.71669">
        <ele>91.6</ele>
        <time>2021-03-28T12:02:13Z</time>
      </trkpt>
      <trkpt lat="42.70099" lon="2.71669">
        <ele>91.6</ele>
        <time>2021-03-28T12:02:13Z</time>
      </trkpt>
      <trkpt lat="42.70098" lon="2.71681">
        <ele>91.5</ele>
        <time>2021-03-28T12:02:14Z</time>
      </trkpt>
      <trkpt lat="42.70098" lon="2.71681">
        <ele>91.5</ele>
        <time>2021-03-28T12:02:14Z</time>
      </trkpt>
      <trkpt lat="42.70098" lon="2.71694">
        <ele>91.5</ele>
        <time>2021-03-28T12:02:16Z</time>
      </trkpt>
      <trkpt lat="42.70098" lon="2.71694">
        <ele>91.5</ele>
        <time>2021-03-28T12:02:16Z</time>
      </trkpt>
      <trkpt lat="42.70098" lon="2.71707">
        <ele>91.5</ele>
        <time>2021-03-28T12:02:18Z</time>
      </trkpt>
      <trkpt lat="42.70098" lon="2.71707">
        <ele>91.5</ele>
        <time>2021-03-28T12:02:18Z</time>
      </trkpt>
      <trkpt lat="42.70098" lon="2.71719">
        <ele>91.5</ele>
        <time>2021-03-28T12:02:19Z</time>
      </trkpt>
      <trkpt lat="42.70098" lon="2.71719">
        <ele>91.5</ele>
        <time>2021-03-28T12:02:19Z</time>
      </trkpt>
      <trkpt lat="42.70098" lon="2.71731">
        <ele>91.7</ele>
        <time>2021-03-28T12:02:20Z</time>
      </trkpt>
      <trkpt lat="42.70098" lon="2.71731">
        <ele>91.7</ele>
        <time>2021-03-28T12:02:20Z</time>
      </trkpt>
      <trkpt lat="42.70098" lon="2.71741">
        <ele>91.9</ele>
        <time>2021-03-28T12:02:21Z</time>
      </trkpt>
      <trkpt lat="42.70098" lon="2.71741">
        <ele>91.9</ele>
        <time>2021-03-28T12:02:21Z</time>
      </trkpt>
      <trkpt lat="42.70098" lon="2.71753">
        <ele>91.9</ele>
        <time>2021-03-28T12:02:23Z</time>
      </trkpt>
      <trkpt lat="42.70098" lon="2.71753">
        <ele>91.9</ele>
        <time>2021-03-28T12:02:23Z</time>
      </trkpt>
      <trkpt lat="42.70098" lon="2.71767">
        <ele>91.7</ele>
        <time>2021-03-28T12:02:25Z</time>
      </trkpt>
      <trkpt lat="42.70098" lon="2.71767">
        <ele>91.7</ele>
        <time>2021-03-28T12:02:25Z</time>
      </trkpt>
      <trkpt lat="42.70097" lon="2.71781">
        <ele>91.5</ele>
        <time>2021-03-28T12:02:27Z</time>
      </trkpt>
      <trkpt lat="42.70097" lon="2.71781">
        <ele>91.5</ele>
        <time>2021-03-28T12:02:27Z</time>
      </trkpt>
      <trkpt lat="42.70096" lon="2.71793">
        <ele>91.5</ele>
        <time>2021-03-28T12:02:28Z</time>
      </trkpt>
      <trkpt lat="42.70096" lon="2.71793">
        <ele>91.5</ele>
        <time>2021-03-28T12:02:28Z</time>
      </trkpt>
      <trkpt lat="42.70094" lon="2.71805">
        <ele>91.4</ele>
        <time>2021-03-28T12:02:30Z</time>
      </trkpt>
      <trkpt lat="42.70094" lon="2.71805">
        <ele>91.4</ele>
        <time>2021-03-28T12:02:30Z</time>
      </trkpt>
      <trkpt lat="42.70093" lon="2.71816">
        <ele>91.9</ele>
        <time>2021-03-28T12:02:31Z</time>
      </trkpt>
      <trkpt lat="42.70093" lon="2.71816">
        <ele>91.9</ele>
        <time>2021-03-28T12:02:31Z</time>
      </trkpt>
      <trkpt lat="42.70091" lon="2.71827">
        <ele>92.6</ele>
        <time>2021-03-28T12:02:33Z</time>
      </trkpt>
      <trkpt lat="42.70091" lon="2.71827">
        <ele>92.6</ele>
        <time>2021-03-28T12:02:33Z</time>
      </trkpt>
      <trkpt lat="42.70088" lon="2.71841">
        <ele>93</ele>
        <time>2021-03-28T12:02:35Z</time>
      </trkpt>
      <trkpt lat="42.70088" lon="2.71841">
        <ele>93</ele>
        <time>2021-03-28T12:02:35Z</time>
      </trkpt>
      <trkpt lat="42.70085" lon="2.71856">
        <ele>93</ele>
        <time>2021-03-28T12:02:37Z</time>
      </trkpt>
      <trkpt lat="42.70085" lon="2.71856">
        <ele>93</ele>
        <time>2021-03-28T12:02:37Z</time>
      </trkpt>
      <trkpt lat="42.70082" lon="2.71872">
        <ele>92.6</ele>
        <time>2021-03-28T12:02:39Z</time>
      </trkpt>
      <trkpt lat="42.70082" lon="2.71872">
        <ele>92.6</ele>
        <time>2021-03-28T12:02:39Z</time>
      </trkpt>
      <trkpt lat="42.70079" lon="2.71887">
        <ele>92</ele>
        <time>2021-03-28T12:02:41Z</time>
      </trkpt>
      <trkpt lat="42.70079" lon="2.71887">
        <ele>92</ele>
        <time>2021-03-28T12:02:41Z</time>
      </trkpt>
      <trkpt lat="42.70075" lon="2.71903">
        <ele>92</ele>
        <time>2021-03-28T12:02:43Z</time>
      </trkpt>
      <trkpt lat="42.70075" lon="2.71903">
        <ele>92</ele>
        <time>2021-03-28T12:02:43Z</time>
      </trkpt>
      <trkpt lat="42.70072" lon="2.71919">
        <ele>92</ele>
        <time>2021-03-28T12:02:45Z</time>
      </trkpt>
      <trkpt lat="42.70072" lon="2.71919">
        <ele>92</ele>
        <time>2021-03-28T12:02:45Z</time>
      </trkpt>
      <trkpt lat="42.70069" lon="2.71932">
        <ele>91.7</ele>
        <time>2021-03-28T12:02:46Z</time>
      </trkpt>
      <trkpt lat="42.70069" lon="2.71932">
        <ele>91.7</ele>
        <time>2021-03-28T12:02:46Z</time>
      </trkpt>
      <trkpt lat="42.70066" lon="2.71943">
        <ele>91.6</ele>
        <time>2021-03-28T12:02:47Z</time>
      </trkpt>
      <trkpt lat="42.70066" lon="2.71943">
        <ele>91.6</ele>
        <time>2021-03-28T12:02:47Z</time>
      </trkpt>
      <trkpt lat="42.70063" lon="2.71956">
        <ele>91.8</ele>
        <time>2021-03-28T12:02:49Z</time>
      </trkpt>
      <trkpt lat="42.70063" lon="2.71956">
        <ele>91.8</ele>
        <time>2021-03-28T12:02:49Z</time>
      </trkpt>
      <trkpt lat="42.7006" lon="2.71968">
        <ele>92</ele>
        <time>2021-03-28T12:02:51Z</time>
      </trkpt>
      <trkpt lat="42.7006" lon="2.71968">
        <ele>92</ele>
        <time>2021-03-28T12:02:51Z</time>
      </trkpt>
      <trkpt lat="42.70057" lon="2.71981">
        <ele>92</ele>
        <time>2021-03-28T12:02:53Z</time>
      </trkpt>
      <trkpt lat="42.70057" lon="2.71981">
        <ele>92</ele>
        <time>2021-03-28T12:02:53Z</time>
      </trkpt>
      <trkpt lat="42.70055" lon="2.71991">
        <ele>91.9</ele>
        <time>2021-03-28T12:02:54Z</time>
      </trkpt>
      <trkpt lat="42.70055" lon="2.71991">
        <ele>91.9</ele>
        <time>2021-03-28T12:02:54Z</time>
      </trkpt>
      <trkpt lat="42.70052" lon="2.72003">
        <ele>91.7</ele>
        <time>2021-03-28T12:02:56Z</time>
      </trkpt>
      <trkpt lat="42.70052" lon="2.72003">
        <ele>91.7</ele>
        <time>2021-03-28T12:02:56Z</time>
      </trkpt>
      <trkpt lat="42.70049" lon="2.72014">
        <ele>91.6</ele>
        <time>2021-03-28T12:02:57Z</time>
      </trkpt>
      <trkpt lat="42.70049" lon="2.72014">
        <ele>91.6</ele>
        <time>2021-03-28T12:02:57Z</time>
      </trkpt>
      <trkpt lat="42.70046" lon="2.72025">
        <ele>91.6</ele>
        <time>2021-03-28T12:02:59Z</time>
      </trkpt>
      <trkpt lat="42.70046" lon="2.72025">
        <ele>91.6</ele>
        <time>2021-03-28T12:02:59Z</time>
      </trkpt>
      <trkpt lat="42.70043" lon="2.72036">
        <ele>91.4</ele>
        <time>2021-03-28T12:03:00Z</time>
      </trkpt>
      <trkpt lat="42.70043" lon="2.72036">
        <ele>91.4</ele>
        <time>2021-03-28T12:03:00Z</time>
      </trkpt>
      <trkpt lat="42.7004" lon="2.72049">
        <ele>91.1</ele>
        <time>2021-03-28T12:03:02Z</time>
      </trkpt>
      <trkpt lat="42.7004" lon="2.72049">
        <ele>91.1</ele>
        <time>2021-03-28T12:03:02Z</time>
      </trkpt>
      <trkpt lat="42.70038" lon="2.72059">
        <ele>91</ele>
        <time>2021-03-28T12:03:03Z</time>
      </trkpt>
      <trkpt lat="42.70038" lon="2.72059">
        <ele>91</ele>
        <time>2021-03-28T12:03:03Z</time>
      </trkpt>
      <trkpt lat="42.70035" lon="2.72071">
        <ele>91</ele>
        <time>2021-03-28T12:03:05Z</time>
      </trkpt>
      <trkpt lat="42.70035" lon="2.72071">
        <ele>91</ele>
        <time>2021-03-28T12:03:05Z</time>
      </trkpt>
      <trkpt lat="42.70032" lon="2.72084">
        <ele>91</ele>
        <time>2021-03-28T12:03:07Z</time>
      </trkpt>
      <trkpt lat="42.70032" lon="2.72084">
        <ele>91</ele>
        <time>2021-03-28T12:03:07Z</time>
      </trkpt>
      <trkpt lat="42.70029" lon="2.72098">
        <ele>91.5</ele>
        <time>2021-03-28T12:03:09Z</time>
      </trkpt>
      <trkpt lat="42.70029" lon="2.72098">
        <ele>91.5</ele>
        <time>2021-03-28T12:03:09Z</time>
      </trkpt>
      <trkpt lat="42.70025" lon="2.72113">
        <ele>91.9</ele>
        <time>2021-03-28T12:03:11Z</time>
      </trkpt>
      <trkpt lat="42.70025" lon="2.72113">
        <ele>91.9</ele>
        <time>2021-03-28T12:03:11Z</time>
      </trkpt>
      <trkpt lat="42.70022" lon="2.72129">
        <ele>91.8</ele>
        <time>2021-03-28T12:03:13Z</time>
      </trkpt>
      <trkpt lat="42.70022" lon="2.72129">
        <ele>91.8</ele>
        <time>2021-03-28T12:03:13Z</time>
      </trkpt>
      <trkpt lat="42.70019" lon="2.72141">
        <ele>91.6</ele>
        <time>2021-03-28T12:03:14Z</time>
      </trkpt>
      <trkpt lat="42.70019" lon="2.72141">
        <ele>91.6</ele>
        <time>2021-03-28T12:03:14Z</time>
      </trkpt>
      <trkpt lat="42.70017" lon="2.72154">
        <ele>91.3</ele>
        <time>2021-03-28T12:03:16Z</time>
      </trkpt>
      <trkpt lat="42.70017" lon="2.72154">
        <ele>91.3</ele>
        <time>2021-03-28T12:03:16Z</time>
      </trkpt>
      <trkpt lat="42.70014" lon="2.72167">
        <ele>91</ele>
        <time>2021-03-28T12:03:18Z</time>
      </trkpt>
      <trkpt lat="42.70014" lon="2.72167">
        <ele>91</ele>
        <time>2021-03-28T12:03:18Z</time>
      </trkpt>
      <trkpt lat="42.70011" lon="2.7218">
        <ele>91.5</ele>
        <time>2021-03-28T12:03:20Z</time>
      </trkpt>
      <trkpt lat="42.70011" lon="2.7218">
        <ele>91.5</ele>
        <time>2021-03-28T12:03:20Z</time>
      </trkpt>
      <trkpt lat="42.70007" lon="2.72194">
        <ele>92</ele>
        <time>2021-03-28T12:03:22Z</time>
      </trkpt>
      <trkpt lat="42.70007" lon="2.72194">
        <ele>92</ele>
        <time>2021-03-28T12:03:22Z</time>
      </trkpt>
      <trkpt lat="42.70004" lon="2.72207">
        <ele>91.9</ele>
        <time>2021-03-28T12:03:23Z</time>
      </trkpt>
      <trkpt lat="42.70004" lon="2.72207">
        <ele>91.9</ele>
        <time>2021-03-28T12:03:23Z</time>
      </trkpt>
      <trkpt lat="42.70001" lon="2.7222">
        <ele>92</ele>
        <time>2021-03-28T12:03:25Z</time>
      </trkpt>
      <trkpt lat="42.70001" lon="2.7222">
        <ele>92</ele>
        <time>2021-03-28T12:03:25Z</time>
      </trkpt>
      <trkpt lat="42.69999" lon="2.72234">
        <ele>91.9</ele>
        <time>2021-03-28T12:03:27Z</time>
      </trkpt>
      <trkpt lat="42.69999" lon="2.72234">
        <ele>91.9</ele>
        <time>2021-03-28T12:03:27Z</time>
      </trkpt>
      <trkpt lat="42.69995" lon="2.7225">
        <ele>91.7</ele>
        <time>2021-03-28T12:03:29Z</time>
      </trkpt>
      <trkpt lat="42.69995" lon="2.7225">
        <ele>91.7</ele>
        <time>2021-03-28T12:03:29Z</time>
      </trkpt>
      <trkpt lat="42.69993" lon="2.72264">
        <ele>91.1</ele>
        <time>2021-03-28T12:03:30Z</time>
      </trkpt>
      <trkpt lat="42.69993" lon="2.72264">
        <ele>91.1</ele>
        <time>2021-03-28T12:03:30Z</time>
      </trkpt>
      <trkpt lat="42.6999" lon="2.72279">
        <ele>90.6</ele>
        <time>2021-03-28T12:03:32Z</time>
      </trkpt>
      <trkpt lat="42.6999" lon="2.72279">
        <ele>90.6</ele>
        <time>2021-03-28T12:03:32Z</time>
      </trkpt>
      <trkpt lat="42.69987" lon="2.72293">
        <ele>90.2</ele>
        <time>2021-03-28T12:03:34Z</time>
      </trkpt>
      <trkpt lat="42.69987" lon="2.72293">
        <ele>90.2</ele>
        <time>2021-03-28T12:03:34Z</time>
      </trkpt>
      <trkpt lat="42.69983" lon="2.72308">
        <ele>90</ele>
        <time>2021-03-28T12:03:36Z</time>
      </trkpt>
      <trkpt lat="42.69983" lon="2.72308">
        <ele>90</ele>
        <time>2021-03-28T12:03:36Z</time>
      </trkpt>
      <trkpt lat="42.6998" lon="2.72322">
        <ele>90</ele>
        <time>2021-03-28T12:03:38Z</time>
      </trkpt>
      <trkpt lat="42.6998" lon="2.72322">
        <ele>90</ele>
        <time>2021-03-28T12:03:38Z</time>
      </trkpt>
      <trkpt lat="42.69976" lon="2.72335">
        <ele>90</ele>
        <time>2021-03-28T12:03:39Z</time>
      </trkpt>
      <trkpt lat="42.69976" lon="2.72335">
        <ele>90</ele>
        <time>2021-03-28T12:03:39Z</time>
      </trkpt>
      <trkpt lat="42.69973" lon="2.72347">
        <ele>90.4</ele>
        <time>2021-03-28T12:03:40Z</time>
      </trkpt>
      <trkpt lat="42.69973" lon="2.72347">
        <ele>90.4</ele>
        <time>2021-03-28T12:03:40Z</time>
      </trkpt>
      <trkpt lat="42.6997" lon="2.7236">
        <ele>90.8</ele>
        <time>2021-03-28T12:03:42Z</time>
      </trkpt>
      <trkpt lat="42.6997" lon="2.7236">
        <ele>90.8</ele>
        <time>2021-03-28T12:03:42Z</time>
      </trkpt>
      <trkpt lat="42.69967" lon="2.72376">
        <ele>89.8</ele>
        <time>2021-03-28T12:03:44Z</time>
      </trkpt>
      <trkpt lat="42.69967" lon="2.72376">
        <ele>89.8</ele>
        <time>2021-03-28T12:03:44Z</time>
      </trkpt>
      <trkpt lat="42.69964" lon="2.72389">
        <ele>89</ele>
        <time>2021-03-28T12:03:45Z</time>
      </trkpt>
      <trkpt lat="42.69964" lon="2.72389">
        <ele>89</ele>
        <time>2021-03-28T12:03:45Z</time>
      </trkpt>
      <trkpt lat="42.6996" lon="2.72402">
        <ele>89</ele>
        <time>2021-03-28T12:03:47Z</time>
      </trkpt>
      <trkpt lat="42.6996" lon="2.72402">
        <ele>89</ele>
        <time>2021-03-28T12:03:47Z</time>
      </trkpt>
      <trkpt lat="42.69957" lon="2.72413">
        <ele>89</ele>
        <time>2021-03-28T12:03:48Z</time>
      </trkpt>
      <trkpt lat="42.69957" lon="2.72413">
        <ele>89</ele>
        <time>2021-03-28T12:03:48Z</time>
      </trkpt>
      <trkpt lat="42.69954" lon="2.72426">
        <ele>89</ele>
        <time>2021-03-28T12:03:50Z</time>
      </trkpt>
      <trkpt lat="42.69954" lon="2.72426">
        <ele>89</ele>
        <time>2021-03-28T12:03:50Z</time>
      </trkpt>
      <trkpt lat="42.6995" lon="2.7244">
        <ele>89</ele>
        <time>2021-03-28T12:03:52Z</time>
      </trkpt>
      <trkpt lat="42.6995" lon="2.7244">
        <ele>89</ele>
        <time>2021-03-28T12:03:52Z</time>
      </trkpt>
      <trkpt lat="42.69946" lon="2.72453">
        <ele>89.3</ele>
        <time>2021-03-28T12:03:54Z</time>
      </trkpt>
      <trkpt lat="42.69946" lon="2.72453">
        <ele>89.3</ele>
        <time>2021-03-28T12:03:54Z</time>
      </trkpt>
      <trkpt lat="42.69944" lon="2.72464">
        <ele>89.7</ele>
        <time>2021-03-28T12:03:55Z</time>
      </trkpt>
      <trkpt lat="42.69944" lon="2.72464">
        <ele>89.7</ele>
        <time>2021-03-28T12:03:55Z</time>
      </trkpt>
      <trkpt lat="42.6994" lon="2.72477">
        <ele>89.7</ele>
        <time>2021-03-28T12:03:57Z</time>
      </trkpt>
      <trkpt lat="42.6994" lon="2.72477">
        <ele>89.7</ele>
        <time>2021-03-28T12:03:57Z</time>
      </trkpt>
      <trkpt lat="42.69936" lon="2.72492">
        <ele>89.4</ele>
        <time>2021-03-28T12:03:59Z</time>
      </trkpt>
      <trkpt lat="42.69936" lon="2.72492">
        <ele>89.4</ele>
        <time>2021-03-28T12:03:59Z</time>
      </trkpt>
      <trkpt lat="42.69931" lon="2.72506">
        <ele>89.2</ele>
        <time>2021-03-28T12:04:01Z</time>
      </trkpt>
      <trkpt lat="42.69931" lon="2.72506">
        <ele>89.2</ele>
        <time>2021-03-28T12:04:01Z</time>
      </trkpt>
      <trkpt lat="42.69928" lon="2.72522">
        <ele>89.3</ele>
        <time>2021-03-28T12:04:03Z</time>
      </trkpt>
      <trkpt lat="42.69928" lon="2.72522">
        <ele>89.3</ele>
        <time>2021-03-28T12:04:03Z</time>
      </trkpt>
      <trkpt lat="42.69925" lon="2.72535">
        <ele>89.1</ele>
        <time>2021-03-28T12:04:04Z</time>
      </trkpt>
      <trkpt lat="42.69925" lon="2.72535">
        <ele>89.1</ele>
        <time>2021-03-28T12:04:04Z</time>
      </trkpt>
      <trkpt lat="42.69922" lon="2.72549">
        <ele>88.4</ele>
        <time>2021-03-28T12:04:06Z</time>
      </trkpt>
      <trkpt lat="42.69922" lon="2.72549">
        <ele>88.4</ele>
        <time>2021-03-28T12:04:06Z</time>
      </trkpt>
      <trkpt lat="42.69918" lon="2.72565">
        <ele>88.4</ele>
        <time>2021-03-28T12:04:08Z</time>
      </trkpt>
      <trkpt lat="42.69918" lon="2.72565">
        <ele>88.4</ele>
        <time>2021-03-28T12:04:08Z</time>
      </trkpt>
      <trkpt lat="42.69915" lon="2.72581">
        <ele>88.8</ele>
        <time>2021-03-28T12:04:10Z</time>
      </trkpt>
      <trkpt lat="42.69915" lon="2.72581">
        <ele>88.8</ele>
        <time>2021-03-28T12:04:10Z</time>
      </trkpt>
      <trkpt lat="42.69912" lon="2.72596">
        <ele>88.6</ele>
        <time>2021-03-28T12:04:12Z</time>
      </trkpt>
      <trkpt lat="42.69912" lon="2.72596">
        <ele>88.6</ele>
        <time>2021-03-28T12:04:12Z</time>
      </trkpt>
      <trkpt lat="42.69908" lon="2.72612">
        <ele>88.4</ele>
        <time>2021-03-28T12:04:14Z</time>
      </trkpt>
      <trkpt lat="42.69908" lon="2.72612">
        <ele>88.4</ele>
        <time>2021-03-28T12:04:14Z</time>
      </trkpt>
      <trkpt lat="42.69905" lon="2.72627">
        <ele>87.8</ele>
        <time>2021-03-28T12:04:16Z</time>
      </trkpt>
      <trkpt lat="42.69905" lon="2.72627">
        <ele>87.8</ele>
        <time>2021-03-28T12:04:16Z</time>
      </trkpt>
      <trkpt lat="42.69902" lon="2.7264">
        <ele>87.5</ele>
        <time>2021-03-28T12:04:17Z</time>
      </trkpt>
      <trkpt lat="42.69902" lon="2.7264">
        <ele>87.5</ele>
        <time>2021-03-28T12:04:17Z</time>
      </trkpt>
      <trkpt lat="42.69899" lon="2.72651">
        <ele>87.4</ele>
        <time>2021-03-28T12:04:18Z</time>
      </trkpt>
      <trkpt lat="42.69899" lon="2.72651">
        <ele>87.4</ele>
        <time>2021-03-28T12:04:18Z</time>
      </trkpt>
      <trkpt lat="42.69897" lon="2.72663">
        <ele>87.3</ele>
        <time>2021-03-28T12:04:20Z</time>
      </trkpt>
      <trkpt lat="42.69897" lon="2.72663">
        <ele>87.3</ele>
        <time>2021-03-28T12:04:20Z</time>
      </trkpt>
      <trkpt lat="42.69894" lon="2.72672">
        <ele>87.3</ele>
        <time>2021-03-28T12:04:21Z</time>
      </trkpt>
      <trkpt lat="42.69894" lon="2.72672">
        <ele>87.3</ele>
        <time>2021-03-28T12:04:21Z</time>
      </trkpt>
      <trkpt lat="42.69892" lon="2.72683">
        <ele>87.6</ele>
        <time>2021-03-28T12:04:23Z</time>
      </trkpt>
      <trkpt lat="42.69892" lon="2.72683">
        <ele>87.6</ele>
        <time>2021-03-28T12:04:23Z</time>
      </trkpt>
      <trkpt lat="42.69889" lon="2.72694">
        <ele>88</ele>
        <time>2021-03-28T12:04:25Z</time>
      </trkpt>
      <trkpt lat="42.69889" lon="2.72694">
        <ele>88</ele>
        <time>2021-03-28T12:04:25Z</time>
      </trkpt>
      <trkpt lat="42.69886" lon="2.72705">
        <ele>88</ele>
        <time>2021-03-28T12:04:27Z</time>
      </trkpt>
      <trkpt lat="42.69886" lon="2.72705">
        <ele>88</ele>
        <time>2021-03-28T12:04:27Z</time>
      </trkpt>
      <trkpt lat="42.69883" lon="2.72716">
        <ele>87.8</ele>
        <time>2021-03-28T12:04:29Z</time>
      </trkpt>
      <trkpt lat="42.69883" lon="2.72716">
        <ele>87.8</ele>
        <time>2021-03-28T12:04:29Z</time>
      </trkpt>
      <trkpt lat="42.69881" lon="2.72728">
        <ele>87.6</ele>
        <time>2021-03-28T12:04:31Z</time>
      </trkpt>
      <trkpt lat="42.69881" lon="2.72728">
        <ele>87.6</ele>
        <time>2021-03-28T12:04:31Z</time>
      </trkpt>
      <trkpt lat="42.6988" lon="2.72738">
        <ele>87.3</ele>
        <time>2021-03-28T12:04:32Z</time>
      </trkpt>
      <trkpt lat="42.6988" lon="2.72738">
        <ele>87.3</ele>
        <time>2021-03-28T12:04:32Z</time>
      </trkpt>
      <trkpt lat="42.69878" lon="2.72749">
        <ele>87</ele>
        <time>2021-03-28T12:04:34Z</time>
      </trkpt>
      <trkpt lat="42.69878" lon="2.72749">
        <ele>87</ele>
        <time>2021-03-28T12:04:34Z</time>
      </trkpt>
      <trkpt lat="42.69877" lon="2.72758">
        <ele>87</ele>
        <time>2021-03-28T12:04:35Z</time>
      </trkpt>
      <trkpt lat="42.69877" lon="2.72758">
        <ele>87</ele>
        <time>2021-03-28T12:04:35Z</time>
      </trkpt>
      <trkpt lat="42.69875" lon="2.72769">
        <ele>87</ele>
        <time>2021-03-28T12:04:37Z</time>
      </trkpt>
      <trkpt lat="42.69875" lon="2.72769">
        <ele>87</ele>
        <time>2021-03-28T12:04:37Z</time>
      </trkpt>
      <trkpt lat="42.69873" lon="2.72777">
        <ele>87</ele>
        <time>2021-03-28T12:04:38Z</time>
      </trkpt>
      <trkpt lat="42.69873" lon="2.72777">
        <ele>87</ele>
        <time>2021-03-28T12:04:38Z</time>
      </trkpt>
      <trkpt lat="42.69872" lon="2.72785">
        <ele>87</ele>
        <time>2021-03-28T12:04:39Z</time>
      </trkpt>
      <trkpt lat="42.69872" lon="2.72785">
        <ele>87</ele>
        <time>2021-03-28T12:04:39Z</time>
      </trkpt>
      <trkpt lat="42.6987" lon="2.72793">
        <ele>87</ele>
        <time>2021-03-28T12:04:41Z</time>
      </trkpt>
      <trkpt lat="42.6987" lon="2.72793">
        <ele>87</ele>
        <time>2021-03-28T12:04:41Z</time>
      </trkpt>
      <trkpt lat="42.69868" lon="2.72801">
        <ele>87</ele>
        <time>2021-03-28T12:04:42Z</time>
      </trkpt>
      <trkpt lat="42.69868" lon="2.72801">
        <ele>87</ele>
        <time>2021-03-28T12:04:42Z</time>
      </trkpt>
      <trkpt lat="42.69867" lon="2.72809">
        <ele>87</ele>
        <time>2021-03-28T12:04:44Z</time>
      </trkpt>
      <trkpt lat="42.69867" lon="2.72809">
        <ele>87</ele>
        <time>2021-03-28T12:04:44Z</time>
      </trkpt>
      <trkpt lat="42.69865" lon="2.72817">
        <ele>87</ele>
        <time>2021-03-28T12:04:45Z</time>
      </trkpt>
      <trkpt lat="42.69865" lon="2.72817">
        <ele>87</ele>
        <time>2021-03-28T12:04:45Z</time>
      </trkpt>
      <trkpt lat="42.69863" lon="2.72825">
        <ele>87</ele>
        <time>2021-03-28T12:04:47Z</time>
      </trkpt>
      <trkpt lat="42.69863" lon="2.72825">
        <ele>87</ele>
        <time>2021-03-28T12:04:47Z</time>
      </trkpt>
      <trkpt lat="42.69862" lon="2.72833">
        <ele>87</ele>
        <time>2021-03-28T12:04:49Z</time>
      </trkpt>
      <trkpt lat="42.69862" lon="2.72833">
        <ele>87</ele>
        <time>2021-03-28T12:04:49Z</time>
      </trkpt>
      <trkpt lat="42.69859" lon="2.72842">
        <ele>86.7</ele>
        <time>2021-03-28T12:04:51Z</time>
      </trkpt>
      <trkpt lat="42.69859" lon="2.72842">
        <ele>86.7</ele>
        <time>2021-03-28T12:04:51Z</time>
      </trkpt>
      <trkpt lat="42.69857" lon="2.72849">
        <ele>86.4</ele>
        <time>2021-03-28T12:04:52Z</time>
      </trkpt>
      <trkpt lat="42.69857" lon="2.72849">
        <ele>86.4</ele>
        <time>2021-03-28T12:04:52Z</time>
      </trkpt>
      <trkpt lat="42.69854" lon="2.72858">
        <ele>86.1</ele>
        <time>2021-03-28T12:04:54Z</time>
      </trkpt>
      <trkpt lat="42.69854" lon="2.72858">
        <ele>86.1</ele>
        <time>2021-03-28T12:04:54Z</time>
      </trkpt>
      <trkpt lat="42.6985" lon="2.72869">
        <ele>86</ele>
        <time>2021-03-28T12:04:56Z</time>
      </trkpt>
      <trkpt lat="42.6985" lon="2.72869">
        <ele>86</ele>
        <time>2021-03-28T12:04:56Z</time>
      </trkpt>
      <trkpt lat="42.69845" lon="2.72881">
        <ele>86</ele>
        <time>2021-03-28T12:04:58Z</time>
      </trkpt>
      <trkpt lat="42.69845" lon="2.72881">
        <ele>86</ele>
        <time>2021-03-28T12:04:58Z</time>
      </trkpt>
      <trkpt lat="42.69841" lon="2.72892">
        <ele>86</ele>
        <time>2021-03-28T12:04:59Z</time>
      </trkpt>
      <trkpt lat="42.69841" lon="2.72892">
        <ele>86</ele>
        <time>2021-03-28T12:04:59Z</time>
      </trkpt>
      <trkpt lat="42.69835" lon="2.72903">
        <ele>86</ele>
        <time>2021-03-28T12:05:01Z</time>
      </trkpt>
      <trkpt lat="42.69835" lon="2.72903">
        <ele>86</ele>
        <time>2021-03-28T12:05:01Z</time>
      </trkpt>
      <trkpt lat="42.6983" lon="2.72914">
        <ele>86</ele>
        <time>2021-03-28T12:05:03Z</time>
      </trkpt>
      <trkpt lat="42.6983" lon="2.72914">
        <ele>86</ele>
        <time>2021-03-28T12:05:03Z</time>
      </trkpt>
      <trkpt lat="42.69823" lon="2.72926">
        <ele>85.8</ele>
        <time>2021-03-28T12:05:05Z</time>
      </trkpt>
      <trkpt lat="42.69823" lon="2.72926">
        <ele>85.8</ele>
        <time>2021-03-28T12:05:05Z</time>
      </trkpt>
      <trkpt lat="42.69817" lon="2.72937">
        <ele>85.7</ele>
        <time>2021-03-28T12:05:06Z</time>
      </trkpt>
      <trkpt lat="42.69817" lon="2.72937">
        <ele>85.7</ele>
        <time>2021-03-28T12:05:06Z</time>
      </trkpt>
      <trkpt lat="42.6981" lon="2.72947">
        <ele>85.8</ele>
        <time>2021-03-28T12:05:08Z</time>
      </trkpt>
      <trkpt lat="42.6981" lon="2.72947">
        <ele>85.8</ele>
        <time>2021-03-28T12:05:08Z</time>
      </trkpt>
      <trkpt lat="42.69803" lon="2.72958">
        <ele>85.5</ele>
        <time>2021-03-28T12:05:10Z</time>
      </trkpt>
      <trkpt lat="42.69803" lon="2.72958">
        <ele>85.5</ele>
        <time>2021-03-28T12:05:10Z</time>
      </trkpt>
      <trkpt lat="42.69795" lon="2.72969">
        <ele>85.4</ele>
        <time>2021-03-28T12:05:12Z</time>
      </trkpt>
      <trkpt lat="42.69795" lon="2.72969">
        <ele>85.4</ele>
        <time>2021-03-28T12:05:12Z</time>
      </trkpt>
      <trkpt lat="42.69789" lon="2.72979">
        <ele>85.5</ele>
        <time>2021-03-28T12:05:13Z</time>
      </trkpt>
      <trkpt lat="42.69789" lon="2.72979">
        <ele>85.5</ele>
        <time>2021-03-28T12:05:13Z</time>
      </trkpt>
      <trkpt lat="42.69784" lon="2.72991">
        <ele>85.3</ele>
        <time>2021-03-28T12:05:15Z</time>
      </trkpt>
      <trkpt lat="42.69784" lon="2.72991">
        <ele>85.3</ele>
        <time>2021-03-28T12:05:15Z</time>
      </trkpt>
      <trkpt lat="42.69779" lon="2.73001">
        <ele>85</ele>
        <time>2021-03-28T12:05:16Z</time>
      </trkpt>
      <trkpt lat="42.69779" lon="2.73001">
        <ele>85</ele>
        <time>2021-03-28T12:05:16Z</time>
      </trkpt>
      <trkpt lat="42.69774" lon="2.73012">
        <ele>85</ele>
        <time>2021-03-28T12:05:18Z</time>
      </trkpt>
      <trkpt lat="42.69774" lon="2.73012">
        <ele>85</ele>
        <time>2021-03-28T12:05:18Z</time>
      </trkpt>
      <trkpt lat="42.6977" lon="2.73022">
        <ele>85</ele>
        <time>2021-03-28T12:05:19Z</time>
      </trkpt>
      <trkpt lat="42.6977" lon="2.73022">
        <ele>85</ele>
        <time>2021-03-28T12:05:19Z</time>
      </trkpt>
      <trkpt lat="42.69766" lon="2.73031">
        <ele>85</ele>
        <time>2021-03-28T12:05:20Z</time>
      </trkpt>
      <trkpt lat="42.69766" lon="2.73031">
        <ele>85</ele>
        <time>2021-03-28T12:05:20Z</time>
      </trkpt>
      <trkpt lat="42.69763" lon="2.73042">
        <ele>85</ele>
        <time>2021-03-28T12:05:22Z</time>
      </trkpt>
      <trkpt lat="42.69763" lon="2.73042">
        <ele>85</ele>
        <time>2021-03-28T12:05:22Z</time>
      </trkpt>
      <trkpt lat="42.6976" lon="2.73054">
        <ele>85</ele>
        <time>2021-03-28T12:05:24Z</time>
      </trkpt>
      <trkpt lat="42.6976" lon="2.73054">
        <ele>85</ele>
        <time>2021-03-28T12:05:24Z</time>
      </trkpt>
      <trkpt lat="42.69758" lon="2.73067">
        <ele>85</ele>
        <time>2021-03-28T12:05:26Z</time>
      </trkpt>
      <trkpt lat="42.69758" lon="2.73067">
        <ele>85</ele>
        <time>2021-03-28T12:05:26Z</time>
      </trkpt>
      <trkpt lat="42.69756" lon="2.7308">
        <ele>85</ele>
        <time>2021-03-28T12:05:28Z</time>
      </trkpt>
      <trkpt lat="42.69756" lon="2.7308">
        <ele>85</ele>
        <time>2021-03-28T12:05:28Z</time>
      </trkpt>
      <trkpt lat="42.69754" lon="2.73091">
        <ele>85</ele>
        <time>2021-03-28T12:05:29Z</time>
      </trkpt>
      <trkpt lat="42.69754" lon="2.73091">
        <ele>85</ele>
        <time>2021-03-28T12:05:29Z</time>
      </trkpt>
      <trkpt lat="42.69752" lon="2.73102">
        <ele>84.9</ele>
        <time>2021-03-28T12:05:31Z</time>
      </trkpt>
      <trkpt lat="42.69752" lon="2.73102">
        <ele>84.9</ele>
        <time>2021-03-28T12:05:31Z</time>
      </trkpt>
      <trkpt lat="42.6975" lon="2.73112">
        <ele>85</ele>
        <time>2021-03-28T12:05:32Z</time>
      </trkpt>
      <trkpt lat="42.6975" lon="2.73112">
        <ele>85</ele>
        <time>2021-03-28T12:05:32Z</time>
      </trkpt>
      <trkpt lat="42.69749" lon="2.7312">
        <ele>85</ele>
        <time>2021-03-28T12:05:33Z</time>
      </trkpt>
      <trkpt lat="42.69749" lon="2.7312">
        <ele>85</ele>
        <time>2021-03-28T12:05:33Z</time>
      </trkpt>
      <trkpt lat="42.69747" lon="2.73129">
        <ele>84.9</ele>
        <time>2021-03-28T12:05:35Z</time>
      </trkpt>
      <trkpt lat="42.69747" lon="2.73129">
        <ele>84.9</ele>
        <time>2021-03-28T12:05:35Z</time>
      </trkpt>
      <trkpt lat="42.69744" lon="2.73137">
        <ele>84.8</ele>
        <time>2021-03-28T12:05:37Z</time>
      </trkpt>
      <trkpt lat="42.69744" lon="2.73137">
        <ele>84.8</ele>
        <time>2021-03-28T12:05:37Z</time>
      </trkpt>
      <trkpt lat="42.69742" lon="2.73146">
        <ele>84.6</ele>
        <time>2021-03-28T12:05:39Z</time>
      </trkpt>
      <trkpt lat="42.69742" lon="2.73146">
        <ele>84.6</ele>
        <time>2021-03-28T12:05:39Z</time>
      </trkpt>
      <trkpt lat="42.6974" lon="2.73153">
        <ele>84.5</ele>
        <time>2021-03-28T12:05:40Z</time>
      </trkpt>
      <trkpt lat="42.6974" lon="2.73153">
        <ele>84.5</ele>
        <time>2021-03-28T12:05:40Z</time>
      </trkpt>
      <trkpt lat="42.69739" lon="2.7316">
        <ele>84.5</ele>
        <time>2021-03-28T12:05:41Z</time>
      </trkpt>
      <trkpt lat="42.69739" lon="2.7316">
        <ele>84.5</ele>
        <time>2021-03-28T12:05:41Z</time>
      </trkpt>
      <trkpt lat="42.69737" lon="2.73169">
        <ele>84.4</ele>
        <time>2021-03-28T12:05:43Z</time>
      </trkpt>
      <trkpt lat="42.69737" lon="2.73169">
        <ele>84.4</ele>
        <time>2021-03-28T12:05:43Z</time>
      </trkpt>
      <trkpt lat="42.69736" lon="2.73176">
        <ele>84.3</ele>
        <time>2021-03-28T12:05:44Z</time>
      </trkpt>
      <trkpt lat="42.69736" lon="2.73176">
        <ele>84.3</ele>
        <time>2021-03-28T12:05:44Z</time>
      </trkpt>
      <trkpt lat="42.69734" lon="2.73184">
        <ele>84.2</ele>
        <time>2021-03-28T12:05:46Z</time>
      </trkpt>
      <trkpt lat="42.69734" lon="2.73184">
        <ele>84.2</ele>
        <time>2021-03-28T12:05:46Z</time>
      </trkpt>
      <trkpt lat="42.69733" lon="2.7319">
        <ele>84.1</ele>
        <time>2021-03-28T12:05:47Z</time>
      </trkpt>
      <trkpt lat="42.69733" lon="2.7319">
        <ele>84.1</ele>
        <time>2021-03-28T12:05:47Z</time>
      </trkpt>
      <trkpt lat="42.69731" lon="2.73195">
        <ele>84</ele>
        <time>2021-03-28T12:05:48Z</time>
      </trkpt>
      <trkpt lat="42.69731" lon="2.73195">
        <ele>84</ele>
        <time>2021-03-28T12:05:48Z</time>
      </trkpt>
      <trkpt lat="42.6973" lon="2.732">
        <ele>84</ele>
        <time>2021-03-28T12:05:49Z</time>
      </trkpt>
      <trkpt lat="42.6973" lon="2.732">
        <ele>84</ele>
        <time>2021-03-28T12:05:49Z</time>
      </trkpt>
      <trkpt lat="42.69729" lon="2.73207">
        <ele>84</ele>
        <time>2021-03-28T12:05:51Z</time>
      </trkpt>
      <trkpt lat="42.69729" lon="2.73207">
        <ele>84</ele>
        <time>2021-03-28T12:05:51Z</time>
      </trkpt>
      <trkpt lat="42.69726" lon="2.73216">
        <ele>84</ele>
        <time>2021-03-28T12:05:53Z</time>
      </trkpt>
      <trkpt lat="42.69726" lon="2.73216">
        <ele>84</ele>
        <time>2021-03-28T12:05:53Z</time>
      </trkpt>
      <trkpt lat="42.69723" lon="2.73227">
        <ele>84</ele>
        <time>2021-03-28T12:05:55Z</time>
      </trkpt>
      <trkpt lat="42.69723" lon="2.73227">
        <ele>84</ele>
        <time>2021-03-28T12:05:55Z</time>
      </trkpt>
      <trkpt lat="42.69721" lon="2.73234">
        <ele>84</ele>
        <time>2021-03-28T12:05:56Z</time>
      </trkpt>
      <trkpt lat="42.69721" lon="2.73234">
        <ele>84</ele>
        <time>2021-03-28T12:05:56Z</time>
      </trkpt>
      <trkpt lat="42.69718" lon="2.73242">
        <ele>84</ele>
        <time>2021-03-28T12:05:58Z</time>
      </trkpt>
      <trkpt lat="42.69718" lon="2.73242">
        <ele>84</ele>
        <time>2021-03-28T12:05:58Z</time>
      </trkpt>
      <trkpt lat="42.69715" lon="2.73248">
        <ele>84</ele>
        <time>2021-03-28T12:05:59Z</time>
      </trkpt>
      <trkpt lat="42.69715" lon="2.73248">
        <ele>84</ele>
        <time>2021-03-28T12:05:59Z</time>
      </trkpt>
      <trkpt lat="42.69713" lon="2.73253">
        <ele>84</ele>
        <time>2021-03-28T12:06:00Z</time>
      </trkpt>
      <trkpt lat="42.69713" lon="2.73253">
        <ele>84</ele>
        <time>2021-03-28T12:06:00Z</time>
      </trkpt>
      <trkpt lat="42.69712" lon="2.73258">
        <ele>84</ele>
        <time>2021-03-28T12:06:02Z</time>
      </trkpt>
      <trkpt lat="42.69712" lon="2.73258">
        <ele>84</ele>
        <time>2021-03-28T12:06:02Z</time>
      </trkpt>
      <trkpt lat="42.6971" lon="2.73262">
        <ele>84</ele>
        <time>2021-03-28T12:06:04Z</time>
      </trkpt>
      <trkpt lat="42.6971" lon="2.73262">
        <ele>84</ele>
        <time>2021-03-28T12:06:04Z</time>
      </trkpt>
      <trkpt lat="42.69704" lon="2.7328">
        <ele>84</ele>
        <time>2021-03-28T12:06:24Z</time>
      </trkpt>
      <trkpt lat="42.69704" lon="2.7328">
        <ele>84</ele>
        <time>2021-03-28T12:06:24Z</time>
      </trkpt>
      <trkpt lat="42.69705" lon="2.73277">
        <ele>84</ele>
        <time>2021-03-28T12:06:28Z</time>
      </trkpt>
      <trkpt lat="42.69705" lon="2.73277">
        <ele>84</ele>
        <time>2021-03-28T12:06:28Z</time>
      </trkpt>
      <trkpt lat="42.69704" lon="2.73277">
        <ele>84</ele>
        <time>2021-03-28T12:06:30Z</time>
      </trkpt>
      <trkpt lat="42.69704" lon="2.73277">
        <ele>84</ele>
        <time>2021-03-28T12:06:30Z</time>
      </trkpt>
      <trkpt lat="42.69704" lon="2.7328">
        <ele>84</ele>
        <time>2021-03-28T12:06:33Z</time>
      </trkpt>
      <trkpt lat="42.69704" lon="2.7328">
        <ele>84</ele>
        <time>2021-03-28T12:06:33Z</time>
      </trkpt>
      <trkpt lat="42.69704" lon="2.73281">
        <ele>84</ele>
        <time>2021-03-28T12:06:34Z</time>
      </trkpt>
      <trkpt lat="42.69704" lon="2.73281">
        <ele>84</ele>
        <time>2021-03-28T12:06:34Z</time>
      </trkpt>
      <trkpt lat="42.69703" lon="2.73283">
        <ele>84</ele>
        <time>2021-03-28T12:06:35Z</time>
      </trkpt>
      <trkpt lat="42.69703" lon="2.73283">
        <ele>84</ele>
        <time>2021-03-28T12:06:35Z</time>
      </trkpt>
      <trkpt lat="42.69703" lon="2.73289">
        <ele>84</ele>
        <time>2021-03-28T12:06:37Z</time>
      </trkpt>
      <trkpt lat="42.69703" lon="2.73289">
        <ele>84</ele>
        <time>2021-03-28T12:06:37Z</time>
      </trkpt>
      <trkpt lat="42.69702" lon="2.73295">
        <ele>84</ele>
        <time>2021-03-28T12:06:38Z</time>
      </trkpt>
      <trkpt lat="42.69702" lon="2.73295">
        <ele>84</ele>
        <time>2021-03-28T12:06:38Z</time>
      </trkpt>
      <trkpt lat="42.69701" lon="2.73306">
        <ele>84</ele>
        <time>2021-03-28T12:06:40Z</time>
      </trkpt>
      <trkpt lat="42.69701" lon="2.73306">
        <ele>84</ele>
        <time>2021-03-28T12:06:40Z</time>
      </trkpt>
      <trkpt lat="42.69699" lon="2.7332">
        <ele>84</ele>
        <time>2021-03-28T12:06:42Z</time>
      </trkpt>
      <trkpt lat="42.69699" lon="2.7332">
        <ele>84</ele>
        <time>2021-03-28T12:06:42Z</time>
      </trkpt>
      <trkpt lat="42.69697" lon="2.73334">
        <ele>84</ele>
        <time>2021-03-28T12:06:44Z</time>
      </trkpt>
      <trkpt lat="42.69697" lon="2.73334">
        <ele>84</ele>
        <time>2021-03-28T12:06:44Z</time>
      </trkpt>
      <trkpt lat="42.69695" lon="2.73349">
        <ele>84</ele>
        <time>2021-03-28T12:06:46Z</time>
      </trkpt>
      <trkpt lat="42.69695" lon="2.73349">
        <ele>84</ele>
        <time>2021-03-28T12:06:46Z</time>
      </trkpt>
      <trkpt lat="42.69693" lon="2.73362">
        <ele>84</ele>
        <time>2021-03-28T12:06:47Z</time>
      </trkpt>
      <trkpt lat="42.69693" lon="2.73362">
        <ele>84</ele>
        <time>2021-03-28T12:06:47Z</time>
      </trkpt>
      <trkpt lat="42.69692" lon="2.73376">
        <ele>83.5</ele>
        <time>2021-03-28T12:06:49Z</time>
      </trkpt>
      <trkpt lat="42.69692" lon="2.73376">
        <ele>83.5</ele>
        <time>2021-03-28T12:06:49Z</time>
      </trkpt>
      <trkpt lat="42.69691" lon="2.7339">
        <ele>83.1</ele>
        <time>2021-03-28T12:06:51Z</time>
      </trkpt>
      <trkpt lat="42.69691" lon="2.7339">
        <ele>83.1</ele>
        <time>2021-03-28T12:06:51Z</time>
      </trkpt>
      <trkpt lat="42.69689" lon="2.73406">
        <ele>83.1</ele>
        <time>2021-03-28T12:06:53Z</time>
      </trkpt>
      <trkpt lat="42.69689" lon="2.73406">
        <ele>83.1</ele>
        <time>2021-03-28T12:06:53Z</time>
      </trkpt>
      <trkpt lat="42.69688" lon="2.73418">
        <ele>83</ele>
        <time>2021-03-28T12:06:54Z</time>
      </trkpt>
      <trkpt lat="42.69688" lon="2.73418">
        <ele>83</ele>
        <time>2021-03-28T12:06:54Z</time>
      </trkpt>
      <trkpt lat="42.69687" lon="2.73431">
        <ele>83</ele>
        <time>2021-03-28T12:06:56Z</time>
      </trkpt>
      <trkpt lat="42.69687" lon="2.73431">
        <ele>83</ele>
        <time>2021-03-28T12:06:56Z</time>
      </trkpt>
      <trkpt lat="42.69686" lon="2.73441">
        <ele>83</ele>
        <time>2021-03-28T12:06:57Z</time>
      </trkpt>
      <trkpt lat="42.69686" lon="2.73441">
        <ele>83</ele>
        <time>2021-03-28T12:06:57Z</time>
      </trkpt>
      <trkpt lat="42.69684" lon="2.73452">
        <ele>83</ele>
        <time>2021-03-28T12:06:59Z</time>
      </trkpt>
      <trkpt lat="42.69684" lon="2.73452">
        <ele>83</ele>
        <time>2021-03-28T12:06:59Z</time>
      </trkpt>
      <trkpt lat="42.69682" lon="2.73461">
        <ele>83</ele>
        <time>2021-03-28T12:07:00Z</time>
      </trkpt>
      <trkpt lat="42.69682" lon="2.73461">
        <ele>83</ele>
        <time>2021-03-28T12:07:00Z</time>
      </trkpt>
      <trkpt lat="42.69679" lon="2.73468">
        <ele>83</ele>
        <time>2021-03-28T12:07:01Z</time>
      </trkpt>
      <trkpt lat="42.69679" lon="2.73468">
        <ele>83</ele>
        <time>2021-03-28T12:07:01Z</time>
      </trkpt>
      <trkpt lat="42.69676" lon="2.73477">
        <ele>83</ele>
        <time>2021-03-28T12:07:03Z</time>
      </trkpt>
      <trkpt lat="42.69676" lon="2.73477">
        <ele>83</ele>
        <time>2021-03-28T12:07:03Z</time>
      </trkpt>
      <trkpt lat="42.69675" lon="2.73485">
        <ele>83</ele>
        <time>2021-03-28T12:07:05Z</time>
      </trkpt>
      <trkpt lat="42.69675" lon="2.73485">
        <ele>83</ele>
        <time>2021-03-28T12:07:05Z</time>
      </trkpt>
      <trkpt lat="42.69675" lon="2.73492">
        <ele>83</ele>
        <time>2021-03-28T12:07:06Z</time>
      </trkpt>
      <trkpt lat="42.69675" lon="2.73492">
        <ele>83</ele>
        <time>2021-03-28T12:07:06Z</time>
      </trkpt>
      <trkpt lat="42.69677" lon="2.73498">
        <ele>83</ele>
        <time>2021-03-28T12:07:08Z</time>
      </trkpt>
      <trkpt lat="42.69677" lon="2.73498">
        <ele>83</ele>
        <time>2021-03-28T12:07:08Z</time>
      </trkpt>
      <trkpt lat="42.6968" lon="2.73504">
        <ele>83</ele>
        <time>2021-03-28T12:07:10Z</time>
      </trkpt>
      <trkpt lat="42.6968" lon="2.73504">
        <ele>83</ele>
        <time>2021-03-28T12:07:10Z</time>
      </trkpt>
      <trkpt lat="42.69681" lon="2.73508">
        <ele>83</ele>
        <time>2021-03-28T12:07:11Z</time>
      </trkpt>
      <trkpt lat="42.69681" lon="2.73508">
        <ele>83</ele>
        <time>2021-03-28T12:07:11Z</time>
      </trkpt>
      <trkpt lat="42.69682" lon="2.73514">
        <ele>83</ele>
        <time>2021-03-28T12:07:13Z</time>
      </trkpt>
      <trkpt lat="42.69682" lon="2.73514">
        <ele>83</ele>
        <time>2021-03-28T12:07:13Z</time>
      </trkpt>
      <trkpt lat="42.69683" lon="2.73519">
        <ele>83</ele>
        <time>2021-03-28T12:07:14Z</time>
      </trkpt>
      <trkpt lat="42.69683" lon="2.73519">
        <ele>83</ele>
        <time>2021-03-28T12:07:14Z</time>
      </trkpt>
      <trkpt lat="42.69683" lon="2.73524">
        <ele>83</ele>
        <time>2021-03-28T12:07:16Z</time>
      </trkpt>
      <trkpt lat="42.69683" lon="2.73524">
        <ele>83</ele>
        <time>2021-03-28T12:07:16Z</time>
      </trkpt>
      <trkpt lat="42.69683" lon="2.73529">
        <ele>83</ele>
        <time>2021-03-28T12:07:17Z</time>
      </trkpt>
      <trkpt lat="42.69683" lon="2.73529">
        <ele>83</ele>
        <time>2021-03-28T12:07:17Z</time>
      </trkpt>
      <trkpt lat="42.69684" lon="2.73536">
        <ele>82.8</ele>
        <time>2021-03-28T12:07:19Z</time>
      </trkpt>
      <trkpt lat="42.69684" lon="2.73536">
        <ele>82.8</ele>
        <time>2021-03-28T12:07:19Z</time>
      </trkpt>
      <trkpt lat="42.69683" lon="2.73544">
        <ele>82.7</ele>
        <time>2021-03-28T12:07:21Z</time>
      </trkpt>
      <trkpt lat="42.69683" lon="2.73544">
        <ele>82.7</ele>
        <time>2021-03-28T12:07:21Z</time>
      </trkpt>
      <trkpt lat="42.69682" lon="2.73554">
        <ele>82.5</ele>
        <time>2021-03-28T12:07:23Z</time>
      </trkpt>
      <trkpt lat="42.69682" lon="2.73554">
        <ele>82.5</ele>
        <time>2021-03-28T12:07:23Z</time>
      </trkpt>
      <trkpt lat="42.69681" lon="2.73562">
        <ele>82.5</ele>
        <time>2021-03-28T12:07:24Z</time>
      </trkpt>
      <trkpt lat="42.69681" lon="2.73562">
        <ele>82.5</ele>
        <time>2021-03-28T12:07:24Z</time>
      </trkpt>
      <trkpt lat="42.6968" lon="2.7357">
        <ele>82.5</ele>
        <time>2021-03-28T12:07:25Z</time>
      </trkpt>
      <trkpt lat="42.6968" lon="2.7357">
        <ele>82.5</ele>
        <time>2021-03-28T12:07:25Z</time>
      </trkpt>
      <trkpt lat="42.69679" lon="2.73579">
        <ele>82.5</ele>
        <time>2021-03-28T12:07:27Z</time>
      </trkpt>
      <trkpt lat="42.69679" lon="2.73579">
        <ele>82.5</ele>
        <time>2021-03-28T12:07:27Z</time>
      </trkpt>
      <trkpt lat="42.69678" lon="2.7359">
        <ele>82.5</ele>
        <time>2021-03-28T12:07:29Z</time>
      </trkpt>
      <trkpt lat="42.69678" lon="2.7359">
        <ele>82.5</ele>
        <time>2021-03-28T12:07:29Z</time>
      </trkpt>
      <trkpt lat="42.69676" lon="2.73601">
        <ele>82.2</ele>
        <time>2021-03-28T12:07:31Z</time>
      </trkpt>
      <trkpt lat="42.69676" lon="2.73601">
        <ele>82.2</ele>
        <time>2021-03-28T12:07:31Z</time>
      </trkpt>
      <trkpt lat="42.69675" lon="2.73611">
        <ele>82</ele>
        <time>2021-03-28T12:07:32Z</time>
      </trkpt>
      <trkpt lat="42.69675" lon="2.73611">
        <ele>82</ele>
        <time>2021-03-28T12:07:32Z</time>
      </trkpt>
      <trkpt lat="42.69673" lon="2.7362">
        <ele>82</ele>
        <time>2021-03-28T12:07:33Z</time>
      </trkpt>
      <trkpt lat="42.69673" lon="2.7362">
        <ele>82</ele>
        <time>2021-03-28T12:07:33Z</time>
      </trkpt>
      <trkpt lat="42.69672" lon="2.73631">
        <ele>82</ele>
        <time>2021-03-28T12:07:35Z</time>
      </trkpt>
      <trkpt lat="42.69672" lon="2.73631">
        <ele>82</ele>
        <time>2021-03-28T12:07:35Z</time>
      </trkpt>
      <trkpt lat="42.69671" lon="2.73641">
        <ele>82</ele>
        <time>2021-03-28T12:07:36Z</time>
      </trkpt>
      <trkpt lat="42.69671" lon="2.73641">
        <ele>82</ele>
        <time>2021-03-28T12:07:36Z</time>
      </trkpt>
      <trkpt lat="42.6967" lon="2.73652">
        <ele>82</ele>
        <time>2021-03-28T12:07:38Z</time>
      </trkpt>
      <trkpt lat="42.6967" lon="2.73652">
        <ele>82</ele>
        <time>2021-03-28T12:07:38Z</time>
      </trkpt>
      <trkpt lat="42.69669" lon="2.73663">
        <ele>82</ele>
        <time>2021-03-28T12:07:39Z</time>
      </trkpt>
      <trkpt lat="42.69669" lon="2.73663">
        <ele>82</ele>
        <time>2021-03-28T12:07:39Z</time>
      </trkpt>
      <trkpt lat="42.69668" lon="2.73675">
        <ele>82</ele>
        <time>2021-03-28T12:07:41Z</time>
      </trkpt>
      <trkpt lat="42.69668" lon="2.73675">
        <ele>82</ele>
        <time>2021-03-28T12:07:41Z</time>
      </trkpt>
      <trkpt lat="42.69667" lon="2.73688">
        <ele>82</ele>
        <time>2021-03-28T12:07:43Z</time>
      </trkpt>
      <trkpt lat="42.69667" lon="2.73688">
        <ele>82</ele>
        <time>2021-03-28T12:07:43Z</time>
      </trkpt>
      <trkpt lat="42.69665" lon="2.73702">
        <ele>82</ele>
        <time>2021-03-28T12:07:45Z</time>
      </trkpt>
      <trkpt lat="42.69665" lon="2.73702">
        <ele>82</ele>
        <time>2021-03-28T12:07:45Z</time>
      </trkpt>
      <trkpt lat="42.69664" lon="2.73716">
        <ele>82</ele>
        <time>2021-03-28T12:07:47Z</time>
      </trkpt>
      <trkpt lat="42.69664" lon="2.73716">
        <ele>82</ele>
        <time>2021-03-28T12:07:47Z</time>
      </trkpt>
      <trkpt lat="42.69662" lon="2.73731">
        <ele>82</ele>
        <time>2021-03-28T12:07:49Z</time>
      </trkpt>
      <trkpt lat="42.69662" lon="2.73731">
        <ele>82</ele>
        <time>2021-03-28T12:07:49Z</time>
      </trkpt>
      <trkpt lat="42.69661" lon="2.73744">
        <ele>81.8</ele>
        <time>2021-03-28T12:07:50Z</time>
      </trkpt>
      <trkpt lat="42.69661" lon="2.73744">
        <ele>81.8</ele>
        <time>2021-03-28T12:07:50Z</time>
      </trkpt>
      <trkpt lat="42.6966" lon="2.73755">
        <ele>81.6</ele>
        <time>2021-03-28T12:07:51Z</time>
      </trkpt>
      <trkpt lat="42.6966" lon="2.73755">
        <ele>81.6</ele>
        <time>2021-03-28T12:07:51Z</time>
      </trkpt>
      <trkpt lat="42.69658" lon="2.73768">
        <ele>81.2</ele>
        <time>2021-03-28T12:07:53Z</time>
      </trkpt>
      <trkpt lat="42.69658" lon="2.73768">
        <ele>81.2</ele>
        <time>2021-03-28T12:07:53Z</time>
      </trkpt>
      <trkpt lat="42.69656" lon="2.73782">
        <ele>81</ele>
        <time>2021-03-28T12:07:55Z</time>
      </trkpt>
      <trkpt lat="42.69656" lon="2.73782">
        <ele>81</ele>
        <time>2021-03-28T12:07:55Z</time>
      </trkpt>
      <trkpt lat="42.69654" lon="2.73797">
        <ele>81</ele>
        <time>2021-03-28T12:07:57Z</time>
      </trkpt>
      <trkpt lat="42.69654" lon="2.73797">
        <ele>81</ele>
        <time>2021-03-28T12:07:57Z</time>
      </trkpt>
      <trkpt lat="42.69653" lon="2.73811">
        <ele>81</ele>
        <time>2021-03-28T12:07:59Z</time>
      </trkpt>
      <trkpt lat="42.69653" lon="2.73811">
        <ele>81</ele>
        <time>2021-03-28T12:07:59Z</time>
      </trkpt>
      <trkpt lat="42.69651" lon="2.73826">
        <ele>81</ele>
        <time>2021-03-28T12:08:01Z</time>
      </trkpt>
      <trkpt lat="42.69651" lon="2.73826">
        <ele>81</ele>
        <time>2021-03-28T12:08:01Z</time>
      </trkpt>
      <trkpt lat="42.69649" lon="2.7384">
        <ele>81</ele>
        <time>2021-03-28T12:08:03Z</time>
      </trkpt>
      <trkpt lat="42.69649" lon="2.7384">
        <ele>81</ele>
        <time>2021-03-28T12:08:03Z</time>
      </trkpt>
      <trkpt lat="42.69647" lon="2.73855">
        <ele>81</ele>
        <time>2021-03-28T12:08:05Z</time>
      </trkpt>
      <trkpt lat="42.69647" lon="2.73855">
        <ele>81</ele>
        <time>2021-03-28T12:08:05Z</time>
      </trkpt>
      <trkpt lat="42.69646" lon="2.7387">
        <ele>81</ele>
        <time>2021-03-28T12:08:07Z</time>
      </trkpt>
      <trkpt lat="42.69646" lon="2.7387">
        <ele>81</ele>
        <time>2021-03-28T12:08:07Z</time>
      </trkpt>
      <trkpt lat="42.69644" lon="2.73886">
        <ele>81</ele>
        <time>2021-03-28T12:08:09Z</time>
      </trkpt>
      <trkpt lat="42.69644" lon="2.73886">
        <ele>81</ele>
        <time>2021-03-28T12:08:09Z</time>
      </trkpt>
      <trkpt lat="42.69643" lon="2.739">
        <ele>80.6</ele>
        <time>2021-03-28T12:08:10Z</time>
      </trkpt>
      <trkpt lat="42.69643" lon="2.739">
        <ele>80.6</ele>
        <time>2021-03-28T12:08:10Z</time>
      </trkpt>
      <trkpt lat="42.69641" lon="2.73911">
        <ele>80.2</ele>
        <time>2021-03-28T12:08:11Z</time>
      </trkpt>
      <trkpt lat="42.69641" lon="2.73911">
        <ele>80.2</ele>
        <time>2021-03-28T12:08:11Z</time>
      </trkpt>
      <trkpt lat="42.69639" lon="2.73924">
        <ele>80</ele>
        <time>2021-03-28T12:08:13Z</time>
      </trkpt>
      <trkpt lat="42.69639" lon="2.73924">
        <ele>80</ele>
        <time>2021-03-28T12:08:13Z</time>
      </trkpt>
      <trkpt lat="42.69637" lon="2.73937">
        <ele>80</ele>
        <time>2021-03-28T12:08:15Z</time>
      </trkpt>
      <trkpt lat="42.69637" lon="2.73937">
        <ele>80</ele>
        <time>2021-03-28T12:08:15Z</time>
      </trkpt>
      <trkpt lat="42.69635" lon="2.7395">
        <ele>80</ele>
        <time>2021-03-28T12:08:17Z</time>
      </trkpt>
      <trkpt lat="42.69635" lon="2.7395">
        <ele>80</ele>
        <time>2021-03-28T12:08:17Z</time>
      </trkpt>
      <trkpt lat="42.69633" lon="2.73964">
        <ele>80</ele>
        <time>2021-03-28T12:08:19Z</time>
      </trkpt>
      <trkpt lat="42.69633" lon="2.73964">
        <ele>80</ele>
        <time>2021-03-28T12:08:19Z</time>
      </trkpt>
      <trkpt lat="42.69631" lon="2.73978">
        <ele>80</ele>
        <time>2021-03-28T12:08:21Z</time>
      </trkpt>
      <trkpt lat="42.69631" lon="2.73978">
        <ele>80</ele>
        <time>2021-03-28T12:08:21Z</time>
      </trkpt>
      <trkpt lat="42.6963" lon="2.7399">
        <ele>80</ele>
        <time>2021-03-28T12:08:22Z</time>
      </trkpt>
      <trkpt lat="42.6963" lon="2.7399">
        <ele>80</ele>
        <time>2021-03-28T12:08:22Z</time>
      </trkpt>
      <trkpt lat="42.69628" lon="2.74001">
        <ele>80</ele>
        <time>2021-03-28T12:08:23Z</time>
      </trkpt>
      <trkpt lat="42.69628" lon="2.74001">
        <ele>80</ele>
        <time>2021-03-28T12:08:23Z</time>
      </trkpt>
      <trkpt lat="42.69627" lon="2.74014">
        <ele>80</ele>
        <time>2021-03-28T12:08:25Z</time>
      </trkpt>
      <trkpt lat="42.69627" lon="2.74014">
        <ele>80</ele>
        <time>2021-03-28T12:08:25Z</time>
      </trkpt>
      <trkpt lat="42.69625" lon="2.74028">
        <ele>80</ele>
        <time>2021-03-28T12:08:27Z</time>
      </trkpt>
      <trkpt lat="42.69625" lon="2.74028">
        <ele>80</ele>
        <time>2021-03-28T12:08:27Z</time>
      </trkpt>
      <trkpt lat="42.69624" lon="2.74041">
        <ele>80</ele>
        <time>2021-03-28T12:08:29Z</time>
      </trkpt>
      <trkpt lat="42.69624" lon="2.74041">
        <ele>80</ele>
        <time>2021-03-28T12:08:29Z</time>
      </trkpt>
      <trkpt lat="42.69623" lon="2.74053">
        <ele>80</ele>
        <time>2021-03-28T12:08:30Z</time>
      </trkpt>
      <trkpt lat="42.69623" lon="2.74053">
        <ele>80</ele>
        <time>2021-03-28T12:08:30Z</time>
      </trkpt>
      <trkpt lat="42.69622" lon="2.74063">
        <ele>80</ele>
        <time>2021-03-28T12:08:31Z</time>
      </trkpt>
      <trkpt lat="42.69622" lon="2.74063">
        <ele>80</ele>
        <time>2021-03-28T12:08:31Z</time>
      </trkpt>
      <trkpt lat="42.69621" lon="2.74074">
        <ele>80</ele>
        <time>2021-03-28T12:08:33Z</time>
      </trkpt>
      <trkpt lat="42.69621" lon="2.74074">
        <ele>80</ele>
        <time>2021-03-28T12:08:33Z</time>
      </trkpt>
      <trkpt lat="42.69619" lon="2.74087">
        <ele>80</ele>
        <time>2021-03-28T12:08:35Z</time>
      </trkpt>
      <trkpt lat="42.69619" lon="2.74087">
        <ele>80</ele>
        <time>2021-03-28T12:08:35Z</time>
      </trkpt>
      <trkpt lat="42.69618" lon="2.74097">
        <ele>80</ele>
        <time>2021-03-28T12:08:36Z</time>
      </trkpt>
      <trkpt lat="42.69618" lon="2.74097">
        <ele>80</ele>
        <time>2021-03-28T12:08:36Z</time>
      </trkpt>
      <trkpt lat="42.69616" lon="2.74109">
        <ele>80</ele>
        <time>2021-03-28T12:08:38Z</time>
      </trkpt>
      <trkpt lat="42.69616" lon="2.74109">
        <ele>80</ele>
        <time>2021-03-28T12:08:38Z</time>
      </trkpt>
      <trkpt lat="42.69614" lon="2.74121">
        <ele>79.7</ele>
        <time>2021-03-28T12:08:40Z</time>
      </trkpt>
      <trkpt lat="42.69614" lon="2.74121">
        <ele>79.7</ele>
        <time>2021-03-28T12:08:40Z</time>
      </trkpt>
      <trkpt lat="42.69613" lon="2.74132">
        <ele>79.3</ele>
        <time>2021-03-28T12:08:41Z</time>
      </trkpt>
      <trkpt lat="42.69613" lon="2.74132">
        <ele>79.3</ele>
        <time>2021-03-28T12:08:41Z</time>
      </trkpt>
      <trkpt lat="42.69612" lon="2.74145">
        <ele>79</ele>
        <time>2021-03-28T12:08:43Z</time>
      </trkpt>
      <trkpt lat="42.69612" lon="2.74145">
        <ele>79</ele>
        <time>2021-03-28T12:08:43Z</time>
      </trkpt>
      <trkpt lat="42.6961" lon="2.74156">
        <ele>79</ele>
        <time>2021-03-28T12:08:44Z</time>
      </trkpt>
      <trkpt lat="42.6961" lon="2.74156">
        <ele>79</ele>
        <time>2021-03-28T12:08:44Z</time>
      </trkpt>
      <trkpt lat="42.69609" lon="2.74166">
        <ele>79</ele>
        <time>2021-03-28T12:08:45Z</time>
      </trkpt>
      <trkpt lat="42.69609" lon="2.74166">
        <ele>79</ele>
        <time>2021-03-28T12:08:45Z</time>
      </trkpt>
      <trkpt lat="42.69608" lon="2.74177">
        <ele>79</ele>
        <time>2021-03-28T12:08:47Z</time>
      </trkpt>
      <trkpt lat="42.69608" lon="2.74177">
        <ele>79</ele>
        <time>2021-03-28T12:08:47Z</time>
      </trkpt>
      <trkpt lat="42.69607" lon="2.74186">
        <ele>79</ele>
        <time>2021-03-28T12:08:48Z</time>
      </trkpt>
      <trkpt lat="42.69607" lon="2.74186">
        <ele>79</ele>
        <time>2021-03-28T12:08:48Z</time>
      </trkpt>
      <trkpt lat="42.69604" lon="2.74197">
        <ele>79</ele>
        <time>2021-03-28T12:08:50Z</time>
      </trkpt>
      <trkpt lat="42.69604" lon="2.74197">
        <ele>79</ele>
        <time>2021-03-28T12:08:50Z</time>
      </trkpt>
      <trkpt lat="42.69602" lon="2.74209">
        <ele>79</ele>
        <time>2021-03-28T12:08:52Z</time>
      </trkpt>
      <trkpt lat="42.69602" lon="2.74209">
        <ele>79</ele>
        <time>2021-03-28T12:08:52Z</time>
      </trkpt>
      <trkpt lat="42.696" lon="2.7422">
        <ele>79</ele>
        <time>2021-03-28T12:08:53Z</time>
      </trkpt>
      <trkpt lat="42.696" lon="2.7422">
        <ele>79</ele>
        <time>2021-03-28T12:08:53Z</time>
      </trkpt>
      <trkpt lat="42.69598" lon="2.74233">
        <ele>79</ele>
        <time>2021-03-28T12:08:55Z</time>
      </trkpt>
      <trkpt lat="42.69598" lon="2.74233">
        <ele>79</ele>
        <time>2021-03-28T12:08:55Z</time>
      </trkpt>
      <trkpt lat="42.69597" lon="2.74247">
        <ele>79</ele>
        <time>2021-03-28T12:08:57Z</time>
      </trkpt>
      <trkpt lat="42.69597" lon="2.74247">
        <ele>79</ele>
        <time>2021-03-28T12:08:57Z</time>
      </trkpt>
      <trkpt lat="42.69596" lon="2.74262">
        <ele>79</ele>
        <time>2021-03-28T12:08:59Z</time>
      </trkpt>
      <trkpt lat="42.69596" lon="2.74262">
        <ele>79</ele>
        <time>2021-03-28T12:08:59Z</time>
      </trkpt>
      <trkpt lat="42.69594" lon="2.74277">
        <ele>79</ele>
        <time>2021-03-28T12:09:01Z</time>
      </trkpt>
      <trkpt lat="42.69594" lon="2.74277">
        <ele>79</ele>
        <time>2021-03-28T12:09:01Z</time>
      </trkpt>
      <trkpt lat="42.69592" lon="2.74292">
        <ele>79</ele>
        <time>2021-03-28T12:09:03Z</time>
      </trkpt>
      <trkpt lat="42.69592" lon="2.74292">
        <ele>79</ele>
        <time>2021-03-28T12:09:03Z</time>
      </trkpt>
      <trkpt lat="42.69589" lon="2.74307">
        <ele>79</ele>
        <time>2021-03-28T12:09:05Z</time>
      </trkpt>
      <trkpt lat="42.69589" lon="2.74307">
        <ele>79</ele>
        <time>2021-03-28T12:09:05Z</time>
      </trkpt>
      <trkpt lat="42.69587" lon="2.74321">
        <ele>79</ele>
        <time>2021-03-28T12:09:07Z</time>
      </trkpt>
      <trkpt lat="42.69587" lon="2.74321">
        <ele>79</ele>
        <time>2021-03-28T12:09:07Z</time>
      </trkpt>
      <trkpt lat="42.69585" lon="2.74336">
        <ele>79</ele>
        <time>2021-03-28T12:09:09Z</time>
      </trkpt>
      <trkpt lat="42.69585" lon="2.74336">
        <ele>79</ele>
        <time>2021-03-28T12:09:09Z</time>
      </trkpt>
      <trkpt lat="42.69582" lon="2.74349">
        <ele>79</ele>
        <time>2021-03-28T12:09:11Z</time>
      </trkpt>
      <trkpt lat="42.69582" lon="2.74349">
        <ele>79</ele>
        <time>2021-03-28T12:09:11Z</time>
      </trkpt>
      <trkpt lat="42.6958" lon="2.74364">
        <ele>78.9</ele>
        <time>2021-03-28T12:09:13Z</time>
      </trkpt>
      <trkpt lat="42.6958" lon="2.74364">
        <ele>78.9</ele>
        <time>2021-03-28T12:09:13Z</time>
      </trkpt>
      <trkpt lat="42.69578" lon="2.74376">
        <ele>78.8</ele>
        <time>2021-03-28T12:09:14Z</time>
      </trkpt>
      <trkpt lat="42.69578" lon="2.74376">
        <ele>78.8</ele>
        <time>2021-03-28T12:09:14Z</time>
      </trkpt>
      <trkpt lat="42.69576" lon="2.7439">
        <ele>78.7</ele>
        <time>2021-03-28T12:09:16Z</time>
      </trkpt>
      <trkpt lat="42.69576" lon="2.7439">
        <ele>78.7</ele>
        <time>2021-03-28T12:09:16Z</time>
      </trkpt>
      <trkpt lat="42.69574" lon="2.74404">
        <ele>78.7</ele>
        <time>2021-03-28T12:09:18Z</time>
      </trkpt>
      <trkpt lat="42.69574" lon="2.74404">
        <ele>78.7</ele>
        <time>2021-03-28T12:09:18Z</time>
      </trkpt>
      <trkpt lat="42.69573" lon="2.74416">
        <ele>78.6</ele>
        <time>2021-03-28T12:09:19Z</time>
      </trkpt>
      <trkpt lat="42.69573" lon="2.74416">
        <ele>78.6</ele>
        <time>2021-03-28T12:09:19Z</time>
      </trkpt>
      <trkpt lat="42.69571" lon="2.74429">
        <ele>78.6</ele>
        <time>2021-03-28T12:09:21Z</time>
      </trkpt>
      <trkpt lat="42.69571" lon="2.74429">
        <ele>78.6</ele>
        <time>2021-03-28T12:09:21Z</time>
      </trkpt>
      <trkpt lat="42.6957" lon="2.74439">
        <ele>78.5</ele>
        <time>2021-03-28T12:09:22Z</time>
      </trkpt>
      <trkpt lat="42.6957" lon="2.74439">
        <ele>78.5</ele>
        <time>2021-03-28T12:09:22Z</time>
      </trkpt>
      <trkpt lat="42.69569" lon="2.74449">
        <ele>78.4</ele>
        <time>2021-03-28T12:09:23Z</time>
      </trkpt>
      <trkpt lat="42.69569" lon="2.74449">
        <ele>78.4</ele>
        <time>2021-03-28T12:09:23Z</time>
      </trkpt>
      <trkpt lat="42.69568" lon="2.74458">
        <ele>78.2</ele>
        <time>2021-03-28T12:09:24Z</time>
      </trkpt>
      <trkpt lat="42.69568" lon="2.74458">
        <ele>78.2</ele>
        <time>2021-03-28T12:09:24Z</time>
      </trkpt>
      <trkpt lat="42.69567" lon="2.74466">
        <ele>78.1</ele>
        <time>2021-03-28T12:09:25Z</time>
      </trkpt>
      <trkpt lat="42.69567" lon="2.74466">
        <ele>78.1</ele>
        <time>2021-03-28T12:09:25Z</time>
      </trkpt>
      <trkpt lat="42.69567" lon="2.74477">
        <ele>78.1</ele>
        <time>2021-03-28T12:09:27Z</time>
      </trkpt>
      <trkpt lat="42.69567" lon="2.74477">
        <ele>78.1</ele>
        <time>2021-03-28T12:09:27Z</time>
      </trkpt>
      <trkpt lat="42.69566" lon="2.7449">
        <ele>78.4</ele>
        <time>2021-03-28T12:09:29Z</time>
      </trkpt>
      <trkpt lat="42.69566" lon="2.7449">
        <ele>78.4</ele>
        <time>2021-03-28T12:09:29Z</time>
      </trkpt>
      <trkpt lat="42.69565" lon="2.74505">
        <ele>78.6</ele>
        <time>2021-03-28T12:09:31Z</time>
      </trkpt>
      <trkpt lat="42.69565" lon="2.74505">
        <ele>78.6</ele>
        <time>2021-03-28T12:09:31Z</time>
      </trkpt>
      <trkpt lat="42.69565" lon="2.7452">
        <ele>78.6</ele>
        <time>2021-03-28T12:09:33Z</time>
      </trkpt>
      <trkpt lat="42.69565" lon="2.7452">
        <ele>78.6</ele>
        <time>2021-03-28T12:09:33Z</time>
      </trkpt>
      <trkpt lat="42.69566" lon="2.74536">
        <ele>78.4</ele>
        <time>2021-03-28T12:09:35Z</time>
      </trkpt>
      <trkpt lat="42.69566" lon="2.74536">
        <ele>78.4</ele>
        <time>2021-03-28T12:09:35Z</time>
      </trkpt>
      <trkpt lat="42.69567" lon="2.74551">
        <ele>78.1</ele>
        <time>2021-03-28T12:09:37Z</time>
      </trkpt>
      <trkpt lat="42.69567" lon="2.74551">
        <ele>78.1</ele>
        <time>2021-03-28T12:09:37Z</time>
      </trkpt>
      <trkpt lat="42.69567" lon="2.74563">
        <ele>78</ele>
        <time>2021-03-28T12:09:38Z</time>
      </trkpt>
      <trkpt lat="42.69567" lon="2.74563">
        <ele>78</ele>
        <time>2021-03-28T12:09:38Z</time>
      </trkpt>
      <trkpt lat="42.69568" lon="2.74574">
        <ele>78</ele>
        <time>2021-03-28T12:09:39Z</time>
      </trkpt>
      <trkpt lat="42.69568" lon="2.74574">
        <ele>78</ele>
        <time>2021-03-28T12:09:39Z</time>
      </trkpt>
      <trkpt lat="42.69568" lon="2.74586">
        <ele>78</ele>
        <time>2021-03-28T12:09:41Z</time>
      </trkpt>
      <trkpt lat="42.69568" lon="2.74586">
        <ele>78</ele>
        <time>2021-03-28T12:09:41Z</time>
      </trkpt>
      <trkpt lat="42.69569" lon="2.74599">
        <ele>78</ele>
        <time>2021-03-28T12:09:43Z</time>
      </trkpt>
      <trkpt lat="42.69569" lon="2.74599">
        <ele>78</ele>
        <time>2021-03-28T12:09:43Z</time>
      </trkpt>
      <trkpt lat="42.69569" lon="2.74613">
        <ele>78</ele>
        <time>2021-03-28T12:09:45Z</time>
      </trkpt>
      <trkpt lat="42.69569" lon="2.74613">
        <ele>78</ele>
        <time>2021-03-28T12:09:45Z</time>
      </trkpt>
      <trkpt lat="42.6957" lon="2.74627">
        <ele>78</ele>
        <time>2021-03-28T12:09:47Z</time>
      </trkpt>
      <trkpt lat="42.6957" lon="2.74627">
        <ele>78</ele>
        <time>2021-03-28T12:09:47Z</time>
      </trkpt>
      <trkpt lat="42.6957" lon="2.74638">
        <ele>78</ele>
        <time>2021-03-28T12:09:48Z</time>
      </trkpt>
      <trkpt lat="42.6957" lon="2.74638">
        <ele>78</ele>
        <time>2021-03-28T12:09:48Z</time>
      </trkpt>
      <trkpt lat="42.69571" lon="2.74648">
        <ele>78</ele>
        <time>2021-03-28T12:09:49Z</time>
      </trkpt>
      <trkpt lat="42.69571" lon="2.74648">
        <ele>78</ele>
        <time>2021-03-28T12:09:49Z</time>
      </trkpt>
      <trkpt lat="42.69571" lon="2.7466">
        <ele>78</ele>
        <time>2021-03-28T12:09:51Z</time>
      </trkpt>
      <trkpt lat="42.69571" lon="2.7466">
        <ele>78</ele>
        <time>2021-03-28T12:09:51Z</time>
      </trkpt>
      <trkpt lat="42.69572" lon="2.74673">
        <ele>78</ele>
        <time>2021-03-28T12:09:53Z</time>
      </trkpt>
      <trkpt lat="42.69572" lon="2.74673">
        <ele>78</ele>
        <time>2021-03-28T12:09:53Z</time>
      </trkpt>
      <trkpt lat="42.69573" lon="2.74687">
        <ele>78</ele>
        <time>2021-03-28T12:09:55Z</time>
      </trkpt>
      <trkpt lat="42.69573" lon="2.74687">
        <ele>78</ele>
        <time>2021-03-28T12:09:55Z</time>
      </trkpt>
      <trkpt lat="42.69575" lon="2.74702">
        <ele>78</ele>
        <time>2021-03-28T12:09:57Z</time>
      </trkpt>
      <trkpt lat="42.69575" lon="2.74702">
        <ele>78</ele>
        <time>2021-03-28T12:09:57Z</time>
      </trkpt>
      <trkpt lat="42.69576" lon="2.74718">
        <ele>78</ele>
        <time>2021-03-28T12:09:59Z</time>
      </trkpt>
      <trkpt lat="42.69576" lon="2.74718">
        <ele>78</ele>
        <time>2021-03-28T12:09:59Z</time>
      </trkpt>
      <trkpt lat="42.69577" lon="2.74734">
        <ele>77.9</ele>
        <time>2021-03-28T12:10:01Z</time>
      </trkpt>
      <trkpt lat="42.69577" lon="2.74734">
        <ele>77.9</ele>
        <time>2021-03-28T12:10:01Z</time>
      </trkpt>
      <trkpt lat="42.69579" lon="2.74749">
        <ele>77.8</ele>
        <time>2021-03-28T12:10:03Z</time>
      </trkpt>
      <trkpt lat="42.69579" lon="2.74749">
        <ele>77.8</ele>
        <time>2021-03-28T12:10:03Z</time>
      </trkpt>
      <trkpt lat="42.6958" lon="2.74764">
        <ele>77.8</ele>
        <time>2021-03-28T12:10:05Z</time>
      </trkpt>
      <trkpt lat="42.6958" lon="2.74764">
        <ele>77.8</ele>
        <time>2021-03-28T12:10:05Z</time>
      </trkpt>
      <trkpt lat="42.69582" lon="2.74779">
        <ele>77.9</ele>
        <time>2021-03-28T12:10:07Z</time>
      </trkpt>
      <trkpt lat="42.69582" lon="2.74779">
        <ele>77.9</ele>
        <time>2021-03-28T12:10:07Z</time>
      </trkpt>
      <trkpt lat="42.69583" lon="2.74794">
        <ele>78</ele>
        <time>2021-03-28T12:10:09Z</time>
      </trkpt>
      <trkpt lat="42.69583" lon="2.74794">
        <ele>78</ele>
        <time>2021-03-28T12:10:09Z</time>
      </trkpt>
      <trkpt lat="42.69585" lon="2.74809">
        <ele>78</ele>
        <time>2021-03-28T12:10:11Z</time>
      </trkpt>
      <trkpt lat="42.69585" lon="2.74809">
        <ele>78</ele>
        <time>2021-03-28T12:10:11Z</time>
      </trkpt>
      <trkpt lat="42.69587" lon="2.74824">
        <ele>78</ele>
        <time>2021-03-28T12:10:13Z</time>
      </trkpt>
      <trkpt lat="42.69587" lon="2.74824">
        <ele>78</ele>
        <time>2021-03-28T12:10:13Z</time>
      </trkpt>
      <trkpt lat="42.69589" lon="2.74839">
        <ele>78</ele>
        <time>2021-03-28T12:10:15Z</time>
      </trkpt>
      <trkpt lat="42.69589" lon="2.74839">
        <ele>78</ele>
        <time>2021-03-28T12:10:15Z</time>
      </trkpt>
      <trkpt lat="42.69591" lon="2.74854">
        <ele>78</ele>
        <time>2021-03-28T12:10:17Z</time>
      </trkpt>
      <trkpt lat="42.69591" lon="2.74854">
        <ele>78</ele>
        <time>2021-03-28T12:10:17Z</time>
      </trkpt>
      <trkpt lat="42.69592" lon="2.74866">
        <ele>78</ele>
        <time>2021-03-28T12:10:18Z</time>
      </trkpt>
      <trkpt lat="42.69592" lon="2.74866">
        <ele>78</ele>
        <time>2021-03-28T12:10:18Z</time>
      </trkpt>
      <trkpt lat="42.69593" lon="2.74879">
        <ele>78</ele>
        <time>2021-03-28T12:10:20Z</time>
      </trkpt>
      <trkpt lat="42.69593" lon="2.74879">
        <ele>78</ele>
        <time>2021-03-28T12:10:20Z</time>
      </trkpt>
      <trkpt lat="42.69594" lon="2.74891">
        <ele>78</ele>
        <time>2021-03-28T12:10:21Z</time>
      </trkpt>
      <trkpt lat="42.69594" lon="2.74891">
        <ele>78</ele>
        <time>2021-03-28T12:10:21Z</time>
      </trkpt>
      <trkpt lat="42.69596" lon="2.74904">
        <ele>78</ele>
        <time>2021-03-28T12:10:23Z</time>
      </trkpt>
      <trkpt lat="42.69596" lon="2.74904">
        <ele>78</ele>
        <time>2021-03-28T12:10:23Z</time>
      </trkpt>
      <trkpt lat="42.69598" lon="2.74917">
        <ele>78</ele>
        <time>2021-03-28T12:10:25Z</time>
      </trkpt>
      <trkpt lat="42.69598" lon="2.74917">
        <ele>78</ele>
        <time>2021-03-28T12:10:25Z</time>
      </trkpt>
      <trkpt lat="42.696" lon="2.74931">
        <ele>78</ele>
        <time>2021-03-28T12:10:27Z</time>
      </trkpt>
      <trkpt lat="42.696" lon="2.74931">
        <ele>78</ele>
        <time>2021-03-28T12:10:27Z</time>
      </trkpt>
      <trkpt lat="42.69603" lon="2.74946">
        <ele>77.9</ele>
        <time>2021-03-28T12:10:29Z</time>
      </trkpt>
      <trkpt lat="42.69603" lon="2.74946">
        <ele>77.9</ele>
        <time>2021-03-28T12:10:29Z</time>
      </trkpt>
      <trkpt lat="42.69606" lon="2.74961">
        <ele>77</ele>
        <time>2021-03-28T12:10:31Z</time>
      </trkpt>
      <trkpt lat="42.69606" lon="2.74961">
        <ele>77</ele>
        <time>2021-03-28T12:10:31Z</time>
      </trkpt>
      <trkpt lat="42.69608" lon="2.74977">
        <ele>76.5</ele>
        <time>2021-03-28T12:10:33Z</time>
      </trkpt>
      <trkpt lat="42.69608" lon="2.74977">
        <ele>76.5</ele>
        <time>2021-03-28T12:10:33Z</time>
      </trkpt>
      <trkpt lat="42.6961" lon="2.74993">
        <ele>77.5</ele>
        <time>2021-03-28T12:10:35Z</time>
      </trkpt>
      <trkpt lat="42.6961" lon="2.74993">
        <ele>77.5</ele>
        <time>2021-03-28T12:10:35Z</time>
      </trkpt>
      <trkpt lat="42.69611" lon="2.75008">
        <ele>78</ele>
        <time>2021-03-28T12:10:37Z</time>
      </trkpt>
      <trkpt lat="42.69611" lon="2.75008">
        <ele>78</ele>
        <time>2021-03-28T12:10:37Z</time>
      </trkpt>
      <trkpt lat="42.69613" lon="2.75022">
        <ele>77.9</ele>
        <time>2021-03-28T12:10:39Z</time>
      </trkpt>
      <trkpt lat="42.69613" lon="2.75022">
        <ele>77.9</ele>
        <time>2021-03-28T12:10:39Z</time>
      </trkpt>
      <trkpt lat="42.69614" lon="2.75034">
        <ele>77.9</ele>
        <time>2021-03-28T12:10:40Z</time>
      </trkpt>
      <trkpt lat="42.69614" lon="2.75034">
        <ele>77.9</ele>
        <time>2021-03-28T12:10:40Z</time>
      </trkpt>
      <trkpt lat="42.69615" lon="2.75046">
        <ele>77.8</ele>
        <time>2021-03-28T12:10:42Z</time>
      </trkpt>
      <trkpt lat="42.69615" lon="2.75046">
        <ele>77.8</ele>
        <time>2021-03-28T12:10:42Z</time>
      </trkpt>
      <trkpt lat="42.69616" lon="2.75057">
        <ele>77.8</ele>
        <time>2021-03-28T12:10:43Z</time>
      </trkpt>
      <trkpt lat="42.69616" lon="2.75057">
        <ele>77.8</ele>
        <time>2021-03-28T12:10:43Z</time>
      </trkpt>
      <trkpt lat="42.69617" lon="2.75069">
        <ele>77.4</ele>
        <time>2021-03-28T12:10:45Z</time>
      </trkpt>
      <trkpt lat="42.69617" lon="2.75069">
        <ele>77.4</ele>
        <time>2021-03-28T12:10:45Z</time>
      </trkpt>
      <trkpt lat="42.69618" lon="2.75079">
        <ele>77.1</ele>
        <time>2021-03-28T12:10:46Z</time>
      </trkpt>
      <trkpt lat="42.69618" lon="2.75079">
        <ele>77.1</ele>
        <time>2021-03-28T12:10:46Z</time>
      </trkpt>
      <trkpt lat="42.69618" lon="2.75089">
        <ele>77</ele>
        <time>2021-03-28T12:10:47Z</time>
      </trkpt>
      <trkpt lat="42.69618" lon="2.75089">
        <ele>77</ele>
        <time>2021-03-28T12:10:47Z</time>
      </trkpt>
      <trkpt lat="42.69619" lon="2.75101">
        <ele>77</ele>
        <time>2021-03-28T12:10:49Z</time>
      </trkpt>
      <trkpt lat="42.69619" lon="2.75101">
        <ele>77</ele>
        <time>2021-03-28T12:10:49Z</time>
      </trkpt>
      <trkpt lat="42.6962" lon="2.75112">
        <ele>77</ele>
        <time>2021-03-28T12:10:51Z</time>
      </trkpt>
      <trkpt lat="42.6962" lon="2.75112">
        <ele>77</ele>
        <time>2021-03-28T12:10:51Z</time>
      </trkpt>
      <trkpt lat="42.69621" lon="2.75125">
        <ele>77</ele>
        <time>2021-03-28T12:10:53Z</time>
      </trkpt>
      <trkpt lat="42.69621" lon="2.75125">
        <ele>77</ele>
        <time>2021-03-28T12:10:53Z</time>
      </trkpt>
      <trkpt lat="42.69622" lon="2.75138">
        <ele>77</ele>
        <time>2021-03-28T12:10:55Z</time>
      </trkpt>
      <trkpt lat="42.69622" lon="2.75138">
        <ele>77</ele>
        <time>2021-03-28T12:10:55Z</time>
      </trkpt>
      <trkpt lat="42.69623" lon="2.75152">
        <ele>77</ele>
        <time>2021-03-28T12:10:57Z</time>
      </trkpt>
      <trkpt lat="42.69623" lon="2.75152">
        <ele>77</ele>
        <time>2021-03-28T12:10:57Z</time>
      </trkpt>
      <trkpt lat="42.69624" lon="2.75164">
        <ele>77</ele>
        <time>2021-03-28T12:10:58Z</time>
      </trkpt>
      <trkpt lat="42.69624" lon="2.75164">
        <ele>77</ele>
        <time>2021-03-28T12:10:58Z</time>
      </trkpt>
      <trkpt lat="42.69624" lon="2.75176">
        <ele>77</ele>
        <time>2021-03-28T12:11:00Z</time>
      </trkpt>
      <trkpt lat="42.69624" lon="2.75176">
        <ele>77</ele>
        <time>2021-03-28T12:11:00Z</time>
      </trkpt>
      <trkpt lat="42.69625" lon="2.7519">
        <ele>77</ele>
        <time>2021-03-28T12:11:02Z</time>
      </trkpt>
      <trkpt lat="42.69625" lon="2.7519">
        <ele>77</ele>
        <time>2021-03-28T12:11:02Z</time>
      </trkpt>
      <trkpt lat="42.69625" lon="2.75201">
        <ele>76.9</ele>
        <time>2021-03-28T12:11:03Z</time>
      </trkpt>
      <trkpt lat="42.69625" lon="2.75201">
        <ele>76.9</ele>
        <time>2021-03-28T12:11:03Z</time>
      </trkpt>
      <trkpt lat="42.69624" lon="2.75213">
        <ele>76.7</ele>
        <time>2021-03-28T12:11:05Z</time>
      </trkpt>
      <trkpt lat="42.69624" lon="2.75213">
        <ele>76.7</ele>
        <time>2021-03-28T12:11:05Z</time>
      </trkpt>
      <trkpt lat="42.69624" lon="2.75225">
        <ele>76.4</ele>
        <time>2021-03-28T12:11:07Z</time>
      </trkpt>
      <trkpt lat="42.69624" lon="2.75225">
        <ele>76.4</ele>
        <time>2021-03-28T12:11:07Z</time>
      </trkpt>
      <trkpt lat="42.69623" lon="2.75238">
        <ele>76.2</ele>
        <time>2021-03-28T12:11:09Z</time>
      </trkpt>
      <trkpt lat="42.69623" lon="2.75238">
        <ele>76.2</ele>
        <time>2021-03-28T12:11:09Z</time>
      </trkpt>
      <trkpt lat="42.69623" lon="2.75252">
        <ele>76</ele>
        <time>2021-03-28T12:11:11Z</time>
      </trkpt>
      <trkpt lat="42.69623" lon="2.75252">
        <ele>76</ele>
        <time>2021-03-28T12:11:11Z</time>
      </trkpt>
      <trkpt lat="42.69622" lon="2.75264">
        <ele>76.3</ele>
        <time>2021-03-28T12:11:12Z</time>
      </trkpt>
      <trkpt lat="42.69622" lon="2.75264">
        <ele>76.3</ele>
        <time>2021-03-28T12:11:12Z</time>
      </trkpt>
      <trkpt lat="42.69622" lon="2.75275">
        <ele>76.5</ele>
        <time>2021-03-28T12:11:13Z</time>
      </trkpt>
      <trkpt lat="42.69622" lon="2.75275">
        <ele>76.5</ele>
        <time>2021-03-28T12:11:13Z</time>
      </trkpt>
      <trkpt lat="42.69622" lon="2.75288">
        <ele>76.4</ele>
        <time>2021-03-28T12:11:15Z</time>
      </trkpt>
      <trkpt lat="42.69622" lon="2.75288">
        <ele>76.4</ele>
        <time>2021-03-28T12:11:15Z</time>
      </trkpt>
      <trkpt lat="42.69622" lon="2.75299">
        <ele>76.2</ele>
        <time>2021-03-28T12:11:16Z</time>
      </trkpt>
      <trkpt lat="42.69622" lon="2.75299">
        <ele>76.2</ele>
        <time>2021-03-28T12:11:16Z</time>
      </trkpt>
      <trkpt lat="42.69622" lon="2.75309">
        <ele>76</ele>
        <time>2021-03-28T12:11:17Z</time>
      </trkpt>
      <trkpt lat="42.69622" lon="2.75309">
        <ele>76</ele>
        <time>2021-03-28T12:11:17Z</time>
      </trkpt>
      <trkpt lat="42.69622" lon="2.75318">
        <ele>76</ele>
        <time>2021-03-28T12:11:18Z</time>
      </trkpt>
      <trkpt lat="42.69622" lon="2.75318">
        <ele>76</ele>
        <time>2021-03-28T12:11:18Z</time>
      </trkpt>
      <trkpt lat="42.69623" lon="2.75329">
        <ele>76</ele>
        <time>2021-03-28T12:11:20Z</time>
      </trkpt>
      <trkpt lat="42.69623" lon="2.75329">
        <ele>76</ele>
        <time>2021-03-28T12:11:20Z</time>
      </trkpt>
      <trkpt lat="42.69622" lon="2.7534">
        <ele>76</ele>
        <time>2021-03-28T12:11:21Z</time>
      </trkpt>
      <trkpt lat="42.69622" lon="2.7534">
        <ele>76</ele>
        <time>2021-03-28T12:11:21Z</time>
      </trkpt>
      <trkpt lat="42.69622" lon="2.75352">
        <ele>76</ele>
        <time>2021-03-28T12:11:23Z</time>
      </trkpt>
      <trkpt lat="42.69622" lon="2.75352">
        <ele>76</ele>
        <time>2021-03-28T12:11:23Z</time>
      </trkpt>
      <trkpt lat="42.69622" lon="2.75365">
        <ele>75.9</ele>
        <time>2021-03-28T12:11:25Z</time>
      </trkpt>
      <trkpt lat="42.69622" lon="2.75365">
        <ele>75.9</ele>
        <time>2021-03-28T12:11:25Z</time>
      </trkpt>
      <trkpt lat="42.69622" lon="2.75377">
        <ele>75.8</ele>
        <time>2021-03-28T12:11:26Z</time>
      </trkpt>
      <trkpt lat="42.69622" lon="2.75377">
        <ele>75.8</ele>
        <time>2021-03-28T12:11:26Z</time>
      </trkpt>
      <trkpt lat="42.69622" lon="2.75389">
        <ele>75.6</ele>
        <time>2021-03-28T12:11:28Z</time>
      </trkpt>
      <trkpt lat="42.69622" lon="2.75389">
        <ele>75.6</ele>
        <time>2021-03-28T12:11:28Z</time>
      </trkpt>
      <trkpt lat="42.69621" lon="2.75403">
        <ele>75.6</ele>
        <time>2021-03-28T12:11:30Z</time>
      </trkpt>
      <trkpt lat="42.69621" lon="2.75403">
        <ele>75.6</ele>
        <time>2021-03-28T12:11:30Z</time>
      </trkpt>
      <trkpt lat="42.69621" lon="2.75417">
        <ele>75.6</ele>
        <time>2021-03-28T12:11:32Z</time>
      </trkpt>
      <trkpt lat="42.69621" lon="2.75417">
        <ele>75.6</ele>
        <time>2021-03-28T12:11:32Z</time>
      </trkpt>
      <trkpt lat="42.69621" lon="2.75428">
        <ele>75.4</ele>
        <time>2021-03-28T12:11:33Z</time>
      </trkpt>
      <trkpt lat="42.69621" lon="2.75428">
        <ele>75.4</ele>
        <time>2021-03-28T12:11:33Z</time>
      </trkpt>
      <trkpt lat="42.69621" lon="2.75441">
        <ele>75.1</ele>
        <time>2021-03-28T12:11:35Z</time>
      </trkpt>
      <trkpt lat="42.69621" lon="2.75441">
        <ele>75.1</ele>
        <time>2021-03-28T12:11:35Z</time>
      </trkpt>
      <trkpt lat="42.6962" lon="2.75454">
        <ele>75.2</ele>
        <time>2021-03-28T12:11:37Z</time>
      </trkpt>
      <trkpt lat="42.6962" lon="2.75454">
        <ele>75.2</ele>
        <time>2021-03-28T12:11:37Z</time>
      </trkpt>
      <trkpt lat="42.6962" lon="2.75464">
        <ele>75.5</ele>
        <time>2021-03-28T12:11:38Z</time>
      </trkpt>
      <trkpt lat="42.6962" lon="2.75464">
        <ele>75.5</ele>
        <time>2021-03-28T12:11:38Z</time>
      </trkpt>
      <trkpt lat="42.6962" lon="2.75474">
        <ele>75.7</ele>
        <time>2021-03-28T12:11:39Z</time>
      </trkpt>
      <trkpt lat="42.6962" lon="2.75474">
        <ele>75.7</ele>
        <time>2021-03-28T12:11:39Z</time>
      </trkpt>
      <trkpt lat="42.69619" lon="2.75484">
        <ele>75.7</ele>
        <time>2021-03-28T12:11:41Z</time>
      </trkpt>
      <trkpt lat="42.69619" lon="2.75484">
        <ele>75.7</ele>
        <time>2021-03-28T12:11:41Z</time>
      </trkpt>
      <trkpt lat="42.69619" lon="2.75496">
        <ele>75.7</ele>
        <time>2021-03-28T12:11:43Z</time>
      </trkpt>
      <trkpt lat="42.69619" lon="2.75496">
        <ele>75.7</ele>
        <time>2021-03-28T12:11:43Z</time>
      </trkpt>
      <trkpt lat="42.69618" lon="2.75506">
        <ele>75.6</ele>
        <time>2021-03-28T12:11:44Z</time>
      </trkpt>
      <trkpt lat="42.69618" lon="2.75506">
        <ele>75.6</ele>
        <time>2021-03-28T12:11:44Z</time>
      </trkpt>
      <trkpt lat="42.69617" lon="2.75518">
        <ele>75.3</ele>
        <time>2021-03-28T12:11:46Z</time>
      </trkpt>
      <trkpt lat="42.69617" lon="2.75518">
        <ele>75.3</ele>
        <time>2021-03-28T12:11:46Z</time>
      </trkpt>
      <trkpt lat="42.69616" lon="2.75529">
        <ele>75</ele>
        <time>2021-03-28T12:11:47Z</time>
      </trkpt>
      <trkpt lat="42.69616" lon="2.75529">
        <ele>75</ele>
        <time>2021-03-28T12:11:47Z</time>
      </trkpt>
      <trkpt lat="42.69616" lon="2.75541">
        <ele>75</ele>
        <time>2021-03-28T12:11:49Z</time>
      </trkpt>
      <trkpt lat="42.69616" lon="2.75541">
        <ele>75</ele>
        <time>2021-03-28T12:11:49Z</time>
      </trkpt>
      <trkpt lat="42.69616" lon="2.75554">
        <ele>75</ele>
        <time>2021-03-28T12:11:51Z</time>
      </trkpt>
      <trkpt lat="42.69616" lon="2.75554">
        <ele>75</ele>
        <time>2021-03-28T12:11:51Z</time>
      </trkpt>
      <trkpt lat="42.69616" lon="2.75568">
        <ele>75.4</ele>
        <time>2021-03-28T12:11:53Z</time>
      </trkpt>
      <trkpt lat="42.69616" lon="2.75568">
        <ele>75.4</ele>
        <time>2021-03-28T12:11:53Z</time>
      </trkpt>
      <trkpt lat="42.69616" lon="2.75581">
        <ele>75.8</ele>
        <time>2021-03-28T12:11:55Z</time>
      </trkpt>
      <trkpt lat="42.69616" lon="2.75581">
        <ele>75.8</ele>
        <time>2021-03-28T12:11:55Z</time>
      </trkpt>
      <trkpt lat="42.69617" lon="2.75593">
        <ele>75.8</ele>
        <time>2021-03-28T12:11:56Z</time>
      </trkpt>
      <trkpt lat="42.69617" lon="2.75593">
        <ele>75.8</ele>
        <time>2021-03-28T12:11:56Z</time>
      </trkpt>
      <trkpt lat="42.69616" lon="2.75606">
        <ele>75.8</ele>
        <time>2021-03-28T12:11:58Z</time>
      </trkpt>
      <trkpt lat="42.69616" lon="2.75606">
        <ele>75.8</ele>
        <time>2021-03-28T12:11:58Z</time>
      </trkpt>
      <trkpt lat="42.69616" lon="2.75618">
        <ele>75.8</ele>
        <time>2021-03-28T12:11:59Z</time>
      </trkpt>
      <trkpt lat="42.69616" lon="2.75618">
        <ele>75.8</ele>
        <time>2021-03-28T12:11:59Z</time>
      </trkpt>
      <trkpt lat="42.69615" lon="2.75631">
        <ele>75.9</ele>
        <time>2021-03-28T12:12:01Z</time>
      </trkpt>
      <trkpt lat="42.69615" lon="2.75631">
        <ele>75.9</ele>
        <time>2021-03-28T12:12:01Z</time>
      </trkpt>
      <trkpt lat="42.69614" lon="2.75642">
        <ele>75.9</ele>
        <time>2021-03-28T12:12:02Z</time>
      </trkpt>
      <trkpt lat="42.69614" lon="2.75642">
        <ele>75.9</ele>
        <time>2021-03-28T12:12:02Z</time>
      </trkpt>
      <trkpt lat="42.69614" lon="2.75653">
        <ele>75.9</ele>
        <time>2021-03-28T12:12:03Z</time>
      </trkpt>
      <trkpt lat="42.69614" lon="2.75653">
        <ele>75.9</ele>
        <time>2021-03-28T12:12:03Z</time>
      </trkpt>
      <trkpt lat="42.69614" lon="2.75665">
        <ele>75.9</ele>
        <time>2021-03-28T12:12:05Z</time>
      </trkpt>
      <trkpt lat="42.69614" lon="2.75665">
        <ele>75.9</ele>
        <time>2021-03-28T12:12:05Z</time>
      </trkpt>
      <trkpt lat="42.69614" lon="2.75676">
        <ele>75.9</ele>
        <time>2021-03-28T12:12:06Z</time>
      </trkpt>
      <trkpt lat="42.69614" lon="2.75676">
        <ele>75.9</ele>
        <time>2021-03-28T12:12:06Z</time>
      </trkpt>
      <trkpt lat="42.69614" lon="2.75686">
        <ele>75.9</ele>
        <time>2021-03-28T12:12:07Z</time>
      </trkpt>
      <trkpt lat="42.69614" lon="2.75686">
        <ele>75.9</ele>
        <time>2021-03-28T12:12:07Z</time>
      </trkpt>
      <trkpt lat="42.69614" lon="2.75697">
        <ele>75.9</ele>
        <time>2021-03-28T12:12:09Z</time>
      </trkpt>
      <trkpt lat="42.69614" lon="2.75697">
        <ele>75.9</ele>
        <time>2021-03-28T12:12:09Z</time>
      </trkpt>
      <trkpt lat="42.69615" lon="2.75708">
        <ele>75.9</ele>
        <time>2021-03-28T12:12:11Z</time>
      </trkpt>
      <trkpt lat="42.69615" lon="2.75708">
        <ele>75.9</ele>
        <time>2021-03-28T12:12:11Z</time>
      </trkpt>
      <trkpt lat="42.69616" lon="2.7572">
        <ele>75.8</ele>
        <time>2021-03-28T12:12:13Z</time>
      </trkpt>
      <trkpt lat="42.69616" lon="2.7572">
        <ele>75.8</ele>
        <time>2021-03-28T12:12:13Z</time>
      </trkpt>
      <trkpt lat="42.69617" lon="2.75732">
        <ele>75.4</ele>
        <time>2021-03-28T12:12:15Z</time>
      </trkpt>
      <trkpt lat="42.69617" lon="2.75732">
        <ele>75.4</ele>
        <time>2021-03-28T12:12:15Z</time>
      </trkpt>
      <trkpt lat="42.69619" lon="2.75744">
        <ele>74.9</ele>
        <time>2021-03-28T12:12:17Z</time>
      </trkpt>
      <trkpt lat="42.69619" lon="2.75744">
        <ele>74.9</ele>
        <time>2021-03-28T12:12:17Z</time>
      </trkpt>
      <trkpt lat="42.69622" lon="2.75756">
        <ele>74.8</ele>
        <time>2021-03-28T12:12:19Z</time>
      </trkpt>
      <trkpt lat="42.69622" lon="2.75756">
        <ele>74.8</ele>
        <time>2021-03-28T12:12:19Z</time>
      </trkpt>
      <trkpt lat="42.69625" lon="2.75768">
        <ele>74.8</ele>
        <time>2021-03-28T12:12:21Z</time>
      </trkpt>
      <trkpt lat="42.69625" lon="2.75768">
        <ele>74.8</ele>
        <time>2021-03-28T12:12:21Z</time>
      </trkpt>
      <trkpt lat="42.69626" lon="2.75776">
        <ele>74.9</ele>
        <time>2021-03-28T12:12:23Z</time>
      </trkpt>
      <trkpt lat="42.69626" lon="2.75776">
        <ele>74.9</ele>
        <time>2021-03-28T12:12:23Z</time>
      </trkpt>
      <trkpt lat="42.69627" lon="2.75781">
        <ele>74.9</ele>
        <time>2021-03-28T12:12:25Z</time>
      </trkpt>
      <trkpt lat="42.69627" lon="2.75781">
        <ele>74.9</ele>
        <time>2021-03-28T12:12:25Z</time>
      </trkpt>
      <trkpt lat="42.69628" lon="2.75784">
        <ele>74.8</ele>
        <time>2021-03-28T12:12:27Z</time>
      </trkpt>
      <trkpt lat="42.69628" lon="2.75784">
        <ele>74.8</ele>
        <time>2021-03-28T12:12:27Z</time>
      </trkpt>
      <trkpt lat="42.69631" lon="2.75797">
        <ele>74.9</ele>
        <time>2021-03-28T12:12:54Z</time>
      </trkpt>
      <trkpt lat="42.69631" lon="2.75797">
        <ele>74.9</ele>
        <time>2021-03-28T12:12:54Z</time>
      </trkpt>
      <trkpt lat="42.69632" lon="2.75798">
        <ele>74.9</ele>
        <time>2021-03-28T12:12:56Z</time>
      </trkpt>
      <trkpt lat="42.69632" lon="2.75798">
        <ele>74.9</ele>
        <time>2021-03-28T12:12:56Z</time>
      </trkpt>
      <trkpt lat="42.69633" lon="2.75799">
        <ele>74.9</ele>
        <time>2021-03-28T12:12:57Z</time>
      </trkpt>
      <trkpt lat="42.69633" lon="2.75799">
        <ele>74.9</ele>
        <time>2021-03-28T12:12:57Z</time>
      </trkpt>
      <trkpt lat="42.69636" lon="2.758">
        <ele>74.8</ele>
        <time>2021-03-28T12:12:59Z</time>
      </trkpt>
      <trkpt lat="42.69636" lon="2.758">
        <ele>74.8</ele>
        <time>2021-03-28T12:12:59Z</time>
      </trkpt>
      <trkpt lat="42.6964" lon="2.75801">
        <ele>74.8</ele>
        <time>2021-03-28T12:13:01Z</time>
      </trkpt>
      <trkpt lat="42.6964" lon="2.75801">
        <ele>74.8</ele>
        <time>2021-03-28T12:13:01Z</time>
      </trkpt>
      <trkpt lat="42.69644" lon="2.75802">
        <ele>74.7</ele>
        <time>2021-03-28T12:13:03Z</time>
      </trkpt>
      <trkpt lat="42.69644" lon="2.75802">
        <ele>74.7</ele>
        <time>2021-03-28T12:13:03Z</time>
      </trkpt>
      <trkpt lat="42.69649" lon="2.75803">
        <ele>74.6</ele>
        <time>2021-03-28T12:13:05Z</time>
      </trkpt>
      <trkpt lat="42.69649" lon="2.75803">
        <ele>74.6</ele>
        <time>2021-03-28T12:13:05Z</time>
      </trkpt>
      <trkpt lat="42.69652" lon="2.75803">
        <ele>74.5</ele>
        <time>2021-03-28T12:13:06Z</time>
      </trkpt>
      <trkpt lat="42.69652" lon="2.75803">
        <ele>74.5</ele>
        <time>2021-03-28T12:13:06Z</time>
      </trkpt>
      <trkpt lat="42.69657" lon="2.75804">
        <ele>74.3</ele>
        <time>2021-03-28T12:13:08Z</time>
      </trkpt>
      <trkpt lat="42.69657" lon="2.75804">
        <ele>74.3</ele>
        <time>2021-03-28T12:13:08Z</time>
      </trkpt>
      <trkpt lat="42.69661" lon="2.75805">
        <ele>74.2</ele>
        <time>2021-03-28T12:13:09Z</time>
      </trkpt>
      <trkpt lat="42.69661" lon="2.75805">
        <ele>74.2</ele>
        <time>2021-03-28T12:13:09Z</time>
      </trkpt>
      <trkpt lat="42.69666" lon="2.75806">
        <ele>74</ele>
        <time>2021-03-28T12:13:11Z</time>
      </trkpt>
      <trkpt lat="42.69666" lon="2.75806">
        <ele>74</ele>
        <time>2021-03-28T12:13:11Z</time>
      </trkpt>
      <trkpt lat="42.69671" lon="2.75808">
        <ele>73.9</ele>
        <time>2021-03-28T12:13:13Z</time>
      </trkpt>
      <trkpt lat="42.69671" lon="2.75808">
        <ele>73.9</ele>
        <time>2021-03-28T12:13:13Z</time>
      </trkpt>
      <trkpt lat="42.69677" lon="2.75811">
        <ele>73.8</ele>
        <time>2021-03-28T12:13:15Z</time>
      </trkpt>
      <trkpt lat="42.69677" lon="2.75811">
        <ele>73.8</ele>
        <time>2021-03-28T12:13:15Z</time>
      </trkpt>
      <trkpt lat="42.69683" lon="2.75814">
        <ele>73.7</ele>
        <time>2021-03-28T12:13:16Z</time>
      </trkpt>
      <trkpt lat="42.69683" lon="2.75814">
        <ele>73.7</ele>
        <time>2021-03-28T12:13:16Z</time>
      </trkpt>
      <trkpt lat="42.69688" lon="2.75819">
        <ele>73.8</ele>
        <time>2021-03-28T12:13:18Z</time>
      </trkpt>
      <trkpt lat="42.69688" lon="2.75819">
        <ele>73.8</ele>
        <time>2021-03-28T12:13:18Z</time>
      </trkpt>
      <trkpt lat="42.69692" lon="2.75823">
        <ele>73.9</ele>
        <time>2021-03-28T12:13:19Z</time>
      </trkpt>
      <trkpt lat="42.69692" lon="2.75823">
        <ele>73.9</ele>
        <time>2021-03-28T12:13:19Z</time>
      </trkpt>
      <trkpt lat="42.69697" lon="2.75828">
        <ele>74</ele>
        <time>2021-03-28T12:13:21Z</time>
      </trkpt>
      <trkpt lat="42.69697" lon="2.75828">
        <ele>74</ele>
        <time>2021-03-28T12:13:21Z</time>
      </trkpt>
      <trkpt lat="42.69702" lon="2.75833">
        <ele>74</ele>
        <time>2021-03-28T12:13:22Z</time>
      </trkpt>
      <trkpt lat="42.69702" lon="2.75833">
        <ele>74</ele>
        <time>2021-03-28T12:13:22Z</time>
      </trkpt>
      <trkpt lat="42.69706" lon="2.75839">
        <ele>73.5</ele>
        <time>2021-03-28T12:13:24Z</time>
      </trkpt>
      <trkpt lat="42.69706" lon="2.75839">
        <ele>73.5</ele>
        <time>2021-03-28T12:13:24Z</time>
      </trkpt>
      <trkpt lat="42.6971" lon="2.75846">
        <ele>73.2</ele>
        <time>2021-03-28T12:13:26Z</time>
      </trkpt>
      <trkpt lat="42.6971" lon="2.75846">
        <ele>73.2</ele>
        <time>2021-03-28T12:13:26Z</time>
      </trkpt>
      <trkpt lat="42.69715" lon="2.75854">
        <ele>73.2</ele>
        <time>2021-03-28T12:13:28Z</time>
      </trkpt>
      <trkpt lat="42.69715" lon="2.75854">
        <ele>73.2</ele>
        <time>2021-03-28T12:13:28Z</time>
      </trkpt>
      <trkpt lat="42.69719" lon="2.75861">
        <ele>73.6</ele>
        <time>2021-03-28T12:13:29Z</time>
      </trkpt>
      <trkpt lat="42.69719" lon="2.75861">
        <ele>73.6</ele>
        <time>2021-03-28T12:13:29Z</time>
      </trkpt>
      <trkpt lat="42.69724" lon="2.75868">
        <ele>73.5</ele>
        <time>2021-03-28T12:13:31Z</time>
      </trkpt>
      <trkpt lat="42.69724" lon="2.75868">
        <ele>73.5</ele>
        <time>2021-03-28T12:13:31Z</time>
      </trkpt>
      <trkpt lat="42.69727" lon="2.75875">
        <ele>73.2</ele>
        <time>2021-03-28T12:13:32Z</time>
      </trkpt>
      <trkpt lat="42.69727" lon="2.75875">
        <ele>73.2</ele>
        <time>2021-03-28T12:13:32Z</time>
      </trkpt>
      <trkpt lat="42.69732" lon="2.75881">
        <ele>73</ele>
        <time>2021-03-28T12:13:34Z</time>
      </trkpt>
      <trkpt lat="42.69732" lon="2.75881">
        <ele>73</ele>
        <time>2021-03-28T12:13:34Z</time>
      </trkpt>
      <trkpt lat="42.69735" lon="2.75886">
        <ele>73</ele>
        <time>2021-03-28T12:13:35Z</time>
      </trkpt>
      <trkpt lat="42.69735" lon="2.75886">
        <ele>73</ele>
        <time>2021-03-28T12:13:35Z</time>
      </trkpt>
      <trkpt lat="42.69739" lon="2.75891">
        <ele>73.1</ele>
        <time>2021-03-28T12:13:36Z</time>
      </trkpt>
      <trkpt lat="42.69739" lon="2.75891">
        <ele>73.1</ele>
        <time>2021-03-28T12:13:36Z</time>
      </trkpt>
      <trkpt lat="42.69744" lon="2.75896">
        <ele>73.3</ele>
        <time>2021-03-28T12:13:38Z</time>
      </trkpt>
      <trkpt lat="42.69744" lon="2.75896">
        <ele>73.3</ele>
        <time>2021-03-28T12:13:38Z</time>
      </trkpt>
      <trkpt lat="42.6975" lon="2.75901">
        <ele>73.6</ele>
        <time>2021-03-28T12:13:40Z</time>
      </trkpt>
      <trkpt lat="42.6975" lon="2.75901">
        <ele>73.6</ele>
        <time>2021-03-28T12:13:40Z</time>
      </trkpt>
      <trkpt lat="42.69757" lon="2.75907">
        <ele>73.7</ele>
        <time>2021-03-28T12:13:42Z</time>
      </trkpt>
      <trkpt lat="42.69757" lon="2.75907">
        <ele>73.7</ele>
        <time>2021-03-28T12:13:42Z</time>
      </trkpt>
      <trkpt lat="42.69764" lon="2.75911">
        <ele>74</ele>
        <time>2021-03-28T12:13:44Z</time>
      </trkpt>
      <trkpt lat="42.69764" lon="2.75911">
        <ele>74</ele>
        <time>2021-03-28T12:13:44Z</time>
      </trkpt>
      <trkpt lat="42.69772" lon="2.75915">
        <ele>74.5</ele>
        <time>2021-03-28T12:13:46Z</time>
      </trkpt>
      <trkpt lat="42.69772" lon="2.75915">
        <ele>74.5</ele>
        <time>2021-03-28T12:13:46Z</time>
      </trkpt>
      <trkpt lat="42.69779" lon="2.75917">
        <ele>74.9</ele>
        <time>2021-03-28T12:13:47Z</time>
      </trkpt>
      <trkpt lat="42.69779" lon="2.75917">
        <ele>74.9</ele>
        <time>2021-03-28T12:13:47Z</time>
      </trkpt>
      <trkpt lat="42.69786" lon="2.75919">
        <ele>74.7</ele>
        <time>2021-03-28T12:13:49Z</time>
      </trkpt>
      <trkpt lat="42.69786" lon="2.75919">
        <ele>74.7</ele>
        <time>2021-03-28T12:13:49Z</time>
      </trkpt>
      <trkpt lat="42.69793" lon="2.7592">
        <ele>74.6</ele>
        <time>2021-03-28T12:13:50Z</time>
      </trkpt>
      <trkpt lat="42.69793" lon="2.7592">
        <ele>74.6</ele>
        <time>2021-03-28T12:13:50Z</time>
      </trkpt>
      <trkpt lat="42.69801" lon="2.75921">
        <ele>74.7</ele>
        <time>2021-03-28T12:13:52Z</time>
      </trkpt>
      <trkpt lat="42.69801" lon="2.75921">
        <ele>74.7</ele>
        <time>2021-03-28T12:13:52Z</time>
      </trkpt>
      <trkpt lat="42.6981" lon="2.75921">
        <ele>74.6</ele>
        <time>2021-03-28T12:13:54Z</time>
      </trkpt>
      <trkpt lat="42.6981" lon="2.75921">
        <ele>74.6</ele>
        <time>2021-03-28T12:13:54Z</time>
      </trkpt>
      <trkpt lat="42.69818" lon="2.75921">
        <ele>74.3</ele>
        <time>2021-03-28T12:13:55Z</time>
      </trkpt>
      <trkpt lat="42.69818" lon="2.75921">
        <ele>74.3</ele>
        <time>2021-03-28T12:13:55Z</time>
      </trkpt>
      <trkpt lat="42.69827" lon="2.7592">
        <ele>74.1</ele>
        <time>2021-03-28T12:13:57Z</time>
      </trkpt>
      <trkpt lat="42.69827" lon="2.7592">
        <ele>74.1</ele>
        <time>2021-03-28T12:13:57Z</time>
      </trkpt>
      <trkpt lat="42.69834" lon="2.7592">
        <ele>73.9</ele>
        <time>2021-03-28T12:13:58Z</time>
      </trkpt>
      <trkpt lat="42.69834" lon="2.7592">
        <ele>73.9</ele>
        <time>2021-03-28T12:13:58Z</time>
      </trkpt>
      <trkpt lat="42.69841" lon="2.75919">
        <ele>73.9</ele>
        <time>2021-03-28T12:13:59Z</time>
      </trkpt>
      <trkpt lat="42.69841" lon="2.75919">
        <ele>73.9</ele>
        <time>2021-03-28T12:13:59Z</time>
      </trkpt>
      <trkpt lat="42.69849" lon="2.75919">
        <ele>73.9</ele>
        <time>2021-03-28T12:14:01Z</time>
      </trkpt>
      <trkpt lat="42.69849" lon="2.75919">
        <ele>73.9</ele>
        <time>2021-03-28T12:14:01Z</time>
      </trkpt>
      <trkpt lat="42.69857" lon="2.75919">
        <ele>73.9</ele>
        <time>2021-03-28T12:14:02Z</time>
      </trkpt>
      <trkpt lat="42.69857" lon="2.75919">
        <ele>73.9</ele>
        <time>2021-03-28T12:14:02Z</time>
      </trkpt>
      <trkpt lat="42.69863" lon="2.75918">
        <ele>73.9</ele>
        <time>2021-03-28T12:14:03Z</time>
      </trkpt>
      <trkpt lat="42.69863" lon="2.75918">
        <ele>73.9</ele>
        <time>2021-03-28T12:14:03Z</time>
      </trkpt>
      <trkpt lat="42.69869" lon="2.75918">
        <ele>73.9</ele>
        <time>2021-03-28T12:14:04Z</time>
      </trkpt>
      <trkpt lat="42.69869" lon="2.75918">
        <ele>73.9</ele>
        <time>2021-03-28T12:14:04Z</time>
      </trkpt>
      <trkpt lat="42.69877" lon="2.75918">
        <ele>74</ele>
        <time>2021-03-28T12:14:06Z</time>
      </trkpt>
      <trkpt lat="42.69877" lon="2.75918">
        <ele>74</ele>
        <time>2021-03-28T12:14:06Z</time>
      </trkpt>
      <trkpt lat="42.69885" lon="2.75918">
        <ele>74</ele>
        <time>2021-03-28T12:14:08Z</time>
      </trkpt>
      <trkpt lat="42.69885" lon="2.75918">
        <ele>74</ele>
        <time>2021-03-28T12:14:08Z</time>
      </trkpt>
      <trkpt lat="42.69895" lon="2.75918">
        <ele>74</ele>
        <time>2021-03-28T12:14:10Z</time>
      </trkpt>
      <trkpt lat="42.69895" lon="2.75918">
        <ele>74</ele>
        <time>2021-03-28T12:14:10Z</time>
      </trkpt>
      <trkpt lat="42.69902" lon="2.75917">
        <ele>74</ele>
        <time>2021-03-28T12:14:11Z</time>
      </trkpt>
      <trkpt lat="42.69902" lon="2.75917">
        <ele>74</ele>
        <time>2021-03-28T12:14:11Z</time>
      </trkpt>
      <trkpt lat="42.69911" lon="2.75918">
        <ele>74</ele>
        <time>2021-03-28T12:14:13Z</time>
      </trkpt>
      <trkpt lat="42.69911" lon="2.75918">
        <ele>74</ele>
        <time>2021-03-28T12:14:13Z</time>
      </trkpt>
      <trkpt lat="42.6992" lon="2.75918">
        <ele>74</ele>
        <time>2021-03-28T12:14:15Z</time>
      </trkpt>
      <trkpt lat="42.6992" lon="2.75918">
        <ele>74</ele>
        <time>2021-03-28T12:14:15Z</time>
      </trkpt>
      <trkpt lat="42.69929" lon="2.75918">
        <ele>74.4</ele>
        <time>2021-03-28T12:14:17Z</time>
      </trkpt>
      <trkpt lat="42.69929" lon="2.75918">
        <ele>74.4</ele>
        <time>2021-03-28T12:14:17Z</time>
      </trkpt>
      <trkpt lat="42.69936" lon="2.75918">
        <ele>74.6</ele>
        <time>2021-03-28T12:14:18Z</time>
      </trkpt>
      <trkpt lat="42.69936" lon="2.75918">
        <ele>74.6</ele>
        <time>2021-03-28T12:14:18Z</time>
      </trkpt>
      <trkpt lat="42.69944" lon="2.75917">
        <ele>75</ele>
        <time>2021-03-28T12:14:20Z</time>
      </trkpt>
      <trkpt lat="42.69944" lon="2.75917">
        <ele>75</ele>
        <time>2021-03-28T12:14:20Z</time>
      </trkpt>
      <trkpt lat="42.69951" lon="2.75917">
        <ele>75</ele>
        <time>2021-03-28T12:14:21Z</time>
      </trkpt>
      <trkpt lat="42.69951" lon="2.75917">
        <ele>75</ele>
        <time>2021-03-28T12:14:21Z</time>
      </trkpt>
      <trkpt lat="42.69958" lon="2.75916">
        <ele>75</ele>
        <time>2021-03-28T12:14:22Z</time>
      </trkpt>
      <trkpt lat="42.69958" lon="2.75916">
        <ele>75</ele>
        <time>2021-03-28T12:14:22Z</time>
      </trkpt>
      <trkpt lat="42.69965" lon="2.75916">
        <ele>75</ele>
        <time>2021-03-28T12:14:24Z</time>
      </trkpt>
      <trkpt lat="42.69965" lon="2.75916">
        <ele>75</ele>
        <time>2021-03-28T12:14:24Z</time>
      </trkpt>
      <trkpt lat="42.69971" lon="2.75916">
        <ele>75</ele>
        <time>2021-03-28T12:14:25Z</time>
      </trkpt>
      <trkpt lat="42.69971" lon="2.75916">
        <ele>75</ele>
        <time>2021-03-28T12:14:25Z</time>
      </trkpt>
      <trkpt lat="42.69979" lon="2.75916">
        <ele>75</ele>
        <time>2021-03-28T12:14:27Z</time>
      </trkpt>
      <trkpt lat="42.69979" lon="2.75916">
        <ele>75</ele>
        <time>2021-03-28T12:14:27Z</time>
      </trkpt>
      <trkpt lat="42.69986" lon="2.75916">
        <ele>75</ele>
        <time>2021-03-28T12:14:28Z</time>
      </trkpt>
      <trkpt lat="42.69986" lon="2.75916">
        <ele>75</ele>
        <time>2021-03-28T12:14:28Z</time>
      </trkpt>
      <trkpt lat="42.69994" lon="2.75916">
        <ele>75</ele>
        <time>2021-03-28T12:14:30Z</time>
      </trkpt>
      <trkpt lat="42.69994" lon="2.75916">
        <ele>75</ele>
        <time>2021-03-28T12:14:30Z</time>
      </trkpt>
      <trkpt lat="42.70003" lon="2.75915">
        <ele>75</ele>
        <time>2021-03-28T12:14:32Z</time>
      </trkpt>
      <trkpt lat="42.70003" lon="2.75915">
        <ele>75</ele>
        <time>2021-03-28T12:14:32Z</time>
      </trkpt>
      <trkpt lat="42.70012" lon="2.75915">
        <ele>74.9</ele>
        <time>2021-03-28T12:14:34Z</time>
      </trkpt>
      <trkpt lat="42.70012" lon="2.75915">
        <ele>74.9</ele>
        <time>2021-03-28T12:14:34Z</time>
      </trkpt>
      <trkpt lat="42.70021" lon="2.75915">
        <ele>74.9</ele>
        <time>2021-03-28T12:14:35Z</time>
      </trkpt>
      <trkpt lat="42.70021" lon="2.75915">
        <ele>74.9</ele>
        <time>2021-03-28T12:14:35Z</time>
      </trkpt>
      <trkpt lat="42.7003" lon="2.75914">
        <ele>74.9</ele>
        <time>2021-03-28T12:14:37Z</time>
      </trkpt>
      <trkpt lat="42.7003" lon="2.75914">
        <ele>74.9</ele>
        <time>2021-03-28T12:14:37Z</time>
      </trkpt>
      <trkpt lat="42.70037" lon="2.75915">
        <ele>74.9</ele>
        <time>2021-03-28T12:14:38Z</time>
      </trkpt>
      <trkpt lat="42.70037" lon="2.75915">
        <ele>74.9</ele>
        <time>2021-03-28T12:14:38Z</time>
      </trkpt>
      <trkpt lat="42.70045" lon="2.75914">
        <ele>75</ele>
        <time>2021-03-28T12:14:39Z</time>
      </trkpt>
      <trkpt lat="42.70045" lon="2.75914">
        <ele>75</ele>
        <time>2021-03-28T12:14:39Z</time>
      </trkpt>
      <trkpt lat="42.70053" lon="2.75914">
        <ele>75</ele>
        <time>2021-03-28T12:14:41Z</time>
      </trkpt>
      <trkpt lat="42.70053" lon="2.75914">
        <ele>75</ele>
        <time>2021-03-28T12:14:41Z</time>
      </trkpt>
      <trkpt lat="42.7006" lon="2.75915">
        <ele>75</ele>
        <time>2021-03-28T12:14:42Z</time>
      </trkpt>
      <trkpt lat="42.7006" lon="2.75915">
        <ele>75</ele>
        <time>2021-03-28T12:14:42Z</time>
      </trkpt>
      <trkpt lat="42.70067" lon="2.75917">
        <ele>75</ele>
        <time>2021-03-28T12:14:43Z</time>
      </trkpt>
      <trkpt lat="42.70067" lon="2.75917">
        <ele>75</ele>
        <time>2021-03-28T12:14:43Z</time>
      </trkpt>
      <trkpt lat="42.70075" lon="2.7592">
        <ele>74.8</ele>
        <time>2021-03-28T12:14:45Z</time>
      </trkpt>
      <trkpt lat="42.70075" lon="2.7592">
        <ele>74.8</ele>
        <time>2021-03-28T12:14:45Z</time>
      </trkpt>
      <trkpt lat="42.70082" lon="2.75924">
        <ele>74.7</ele>
        <time>2021-03-28T12:14:46Z</time>
      </trkpt>
      <trkpt lat="42.70082" lon="2.75924">
        <ele>74.7</ele>
        <time>2021-03-28T12:14:46Z</time>
      </trkpt>
      <trkpt lat="42.70089" lon="2.75927">
        <ele>74.5</ele>
        <time>2021-03-28T12:14:47Z</time>
      </trkpt>
      <trkpt lat="42.70089" lon="2.75927">
        <ele>74.5</ele>
        <time>2021-03-28T12:14:47Z</time>
      </trkpt>
      <trkpt lat="42.70096" lon="2.75934">
        <ele>74.2</ele>
        <time>2021-03-28T12:14:49Z</time>
      </trkpt>
      <trkpt lat="42.70096" lon="2.75934">
        <ele>74.2</ele>
        <time>2021-03-28T12:14:49Z</time>
      </trkpt>
      <trkpt lat="42.70103" lon="2.75942">
        <ele>74</ele>
        <time>2021-03-28T12:14:51Z</time>
      </trkpt>
      <trkpt lat="42.70103" lon="2.75942">
        <ele>74</ele>
        <time>2021-03-28T12:14:51Z</time>
      </trkpt>
      <trkpt lat="42.7011" lon="2.7595">
        <ele>74</ele>
        <time>2021-03-28T12:14:52Z</time>
      </trkpt>
      <trkpt lat="42.7011" lon="2.7595">
        <ele>74</ele>
        <time>2021-03-28T12:14:52Z</time>
      </trkpt>
      <trkpt lat="42.70115" lon="2.75957">
        <ele>74.1</ele>
        <time>2021-03-28T12:14:53Z</time>
      </trkpt>
      <trkpt lat="42.70115" lon="2.75957">
        <ele>74.1</ele>
        <time>2021-03-28T12:14:53Z</time>
      </trkpt>
      <trkpt lat="42.70119" lon="2.75964">
        <ele>74.3</ele>
        <time>2021-03-28T12:14:54Z</time>
      </trkpt>
      <trkpt lat="42.70119" lon="2.75964">
        <ele>74.3</ele>
        <time>2021-03-28T12:14:54Z</time>
      </trkpt>
      <trkpt lat="42.70124" lon="2.75974">
        <ele>74.4</ele>
        <time>2021-03-28T12:14:56Z</time>
      </trkpt>
      <trkpt lat="42.70124" lon="2.75974">
        <ele>74.4</ele>
        <time>2021-03-28T12:14:56Z</time>
      </trkpt>
      <trkpt lat="42.70127" lon="2.75983">
        <ele>74.3</ele>
        <time>2021-03-28T12:14:57Z</time>
      </trkpt>
      <trkpt lat="42.70127" lon="2.75983">
        <ele>74.3</ele>
        <time>2021-03-28T12:14:57Z</time>
      </trkpt>
      <trkpt lat="42.7013" lon="2.75993">
        <ele>74.2</ele>
        <time>2021-03-28T12:14:59Z</time>
      </trkpt>
      <trkpt lat="42.7013" lon="2.75993">
        <ele>74.2</ele>
        <time>2021-03-28T12:14:59Z</time>
      </trkpt>
      <trkpt lat="42.70133" lon="2.76006">
        <ele>74.2</ele>
        <time>2021-03-28T12:15:01Z</time>
      </trkpt>
      <trkpt lat="42.70133" lon="2.76006">
        <ele>74.2</ele>
        <time>2021-03-28T12:15:01Z</time>
      </trkpt>
      <trkpt lat="42.70135" lon="2.7602">
        <ele>74</ele>
        <time>2021-03-28T12:15:03Z</time>
      </trkpt>
      <trkpt lat="42.70135" lon="2.7602">
        <ele>74</ele>
        <time>2021-03-28T12:15:03Z</time>
      </trkpt>
      <trkpt lat="42.70137" lon="2.76034">
        <ele>73.8</ele>
        <time>2021-03-28T12:15:05Z</time>
      </trkpt>
      <trkpt lat="42.70137" lon="2.76034">
        <ele>73.8</ele>
        <time>2021-03-28T12:15:05Z</time>
      </trkpt>
      <trkpt lat="42.70138" lon="2.76046">
        <ele>73.9</ele>
        <time>2021-03-28T12:15:06Z</time>
      </trkpt>
      <trkpt lat="42.70138" lon="2.76046">
        <ele>73.9</ele>
        <time>2021-03-28T12:15:06Z</time>
      </trkpt>
      <trkpt lat="42.70138" lon="2.76059">
        <ele>74.1</ele>
        <time>2021-03-28T12:15:08Z</time>
      </trkpt>
      <trkpt lat="42.70138" lon="2.76059">
        <ele>74.1</ele>
        <time>2021-03-28T12:15:08Z</time>
      </trkpt>
      <trkpt lat="42.70138" lon="2.76069">
        <ele>74.4</ele>
        <time>2021-03-28T12:15:09Z</time>
      </trkpt>
      <trkpt lat="42.70138" lon="2.76069">
        <ele>74.4</ele>
        <time>2021-03-28T12:15:09Z</time>
      </trkpt>
      <trkpt lat="42.70139" lon="2.76081">
        <ele>74.9</ele>
        <time>2021-03-28T12:15:11Z</time>
      </trkpt>
      <trkpt lat="42.70139" lon="2.76081">
        <ele>74.9</ele>
        <time>2021-03-28T12:15:11Z</time>
      </trkpt>
      <trkpt lat="42.70139" lon="2.76092">
        <ele>75</ele>
        <time>2021-03-28T12:15:12Z</time>
      </trkpt>
      <trkpt lat="42.70139" lon="2.76092">
        <ele>75</ele>
        <time>2021-03-28T12:15:12Z</time>
      </trkpt>
      <trkpt lat="42.70139" lon="2.76101">
        <ele>75</ele>
        <time>2021-03-28T12:15:13Z</time>
      </trkpt>
      <trkpt lat="42.70139" lon="2.76101">
        <ele>75</ele>
        <time>2021-03-28T12:15:13Z</time>
      </trkpt>
      <trkpt lat="42.70139" lon="2.76112">
        <ele>75</ele>
        <time>2021-03-28T12:15:15Z</time>
      </trkpt>
      <trkpt lat="42.70139" lon="2.76112">
        <ele>75</ele>
        <time>2021-03-28T12:15:15Z</time>
      </trkpt>
      <trkpt lat="42.70139" lon="2.76122">
        <ele>75</ele>
        <time>2021-03-28T12:15:16Z</time>
      </trkpt>
      <trkpt lat="42.70139" lon="2.76122">
        <ele>75</ele>
        <time>2021-03-28T12:15:16Z</time>
      </trkpt>
      <trkpt lat="42.7014" lon="2.76133">
        <ele>75</ele>
        <time>2021-03-28T12:15:18Z</time>
      </trkpt>
      <trkpt lat="42.7014" lon="2.76133">
        <ele>75</ele>
        <time>2021-03-28T12:15:18Z</time>
      </trkpt>
      <trkpt lat="42.70141" lon="2.76145">
        <ele>75</ele>
        <time>2021-03-28T12:15:20Z</time>
      </trkpt>
      <trkpt lat="42.70141" lon="2.76145">
        <ele>75</ele>
        <time>2021-03-28T12:15:20Z</time>
      </trkpt>
      <trkpt lat="42.70142" lon="2.76156">
        <ele>75</ele>
        <time>2021-03-28T12:15:21Z</time>
      </trkpt>
      <trkpt lat="42.70142" lon="2.76156">
        <ele>75</ele>
        <time>2021-03-28T12:15:21Z</time>
      </trkpt>
      <trkpt lat="42.70144" lon="2.76167">
        <ele>75</ele>
        <time>2021-03-28T12:15:23Z</time>
      </trkpt>
      <trkpt lat="42.70144" lon="2.76167">
        <ele>75</ele>
        <time>2021-03-28T12:15:23Z</time>
      </trkpt>
      <trkpt lat="42.70146" lon="2.76176">
        <ele>75</ele>
        <time>2021-03-28T12:15:24Z</time>
      </trkpt>
      <trkpt lat="42.70146" lon="2.76176">
        <ele>75</ele>
        <time>2021-03-28T12:15:24Z</time>
      </trkpt>
      <trkpt lat="42.70149" lon="2.76185">
        <ele>75</ele>
        <time>2021-03-28T12:15:25Z</time>
      </trkpt>
      <trkpt lat="42.70149" lon="2.76185">
        <ele>75</ele>
        <time>2021-03-28T12:15:25Z</time>
      </trkpt>
      <trkpt lat="42.70152" lon="2.76195">
        <ele>75</ele>
        <time>2021-03-28T12:15:27Z</time>
      </trkpt>
      <trkpt lat="42.70152" lon="2.76195">
        <ele>75</ele>
        <time>2021-03-28T12:15:27Z</time>
      </trkpt>
      <trkpt lat="42.70155" lon="2.76203">
        <ele>74.8</ele>
        <time>2021-03-28T12:15:28Z</time>
      </trkpt>
      <trkpt lat="42.70155" lon="2.76203">
        <ele>74.8</ele>
        <time>2021-03-28T12:15:28Z</time>
      </trkpt>
      <trkpt lat="42.70158" lon="2.76213">
        <ele>74.5</ele>
        <time>2021-03-28T12:15:30Z</time>
      </trkpt>
      <trkpt lat="42.70158" lon="2.76213">
        <ele>74.5</ele>
        <time>2021-03-28T12:15:30Z</time>
      </trkpt>
      <trkpt lat="42.70162" lon="2.76222">
        <ele>74.2</ele>
        <time>2021-03-28T12:15:31Z</time>
      </trkpt>
      <trkpt lat="42.70162" lon="2.76222">
        <ele>74.2</ele>
        <time>2021-03-28T12:15:31Z</time>
      </trkpt>
      <trkpt lat="42.70166" lon="2.76232">
        <ele>73.3</ele>
        <time>2021-03-28T12:15:33Z</time>
      </trkpt>
      <trkpt lat="42.70166" lon="2.76232">
        <ele>73.3</ele>
        <time>2021-03-28T12:15:33Z</time>
      </trkpt>
      <trkpt lat="42.70171" lon="2.76244">
        <ele>72.8</ele>
        <time>2021-03-28T12:15:35Z</time>
      </trkpt>
      <trkpt lat="42.70171" lon="2.76244">
        <ele>72.8</ele>
        <time>2021-03-28T12:15:35Z</time>
      </trkpt>
      <trkpt lat="42.70176" lon="2.76255">
        <ele>73.4</ele>
        <time>2021-03-28T12:15:37Z</time>
      </trkpt>
      <trkpt lat="42.70176" lon="2.76255">
        <ele>73.4</ele>
        <time>2021-03-28T12:15:37Z</time>
      </trkpt>
      <trkpt lat="42.7018" lon="2.76265">
        <ele>74.3</ele>
        <time>2021-03-28T12:15:38Z</time>
      </trkpt>
      <trkpt lat="42.7018" lon="2.76265">
        <ele>74.3</ele>
        <time>2021-03-28T12:15:38Z</time>
      </trkpt>
      <trkpt lat="42.70185" lon="2.76273">
        <ele>74.8</ele>
        <time>2021-03-28T12:15:39Z</time>
      </trkpt>
      <trkpt lat="42.70185" lon="2.76273">
        <ele>74.8</ele>
        <time>2021-03-28T12:15:39Z</time>
      </trkpt>
      <trkpt lat="42.7019" lon="2.76282">
        <ele>75</ele>
        <time>2021-03-28T12:15:41Z</time>
      </trkpt>
      <trkpt lat="42.7019" lon="2.76282">
        <ele>75</ele>
        <time>2021-03-28T12:15:41Z</time>
      </trkpt>
      <trkpt lat="42.70195" lon="2.76291">
        <ele>75</ele>
        <time>2021-03-28T12:15:43Z</time>
      </trkpt>
      <trkpt lat="42.70195" lon="2.76291">
        <ele>75</ele>
        <time>2021-03-28T12:15:43Z</time>
      </trkpt>
      <trkpt lat="42.702" lon="2.76299">
        <ele>75.2</ele>
        <time>2021-03-28T12:15:44Z</time>
      </trkpt>
      <trkpt lat="42.702" lon="2.76299">
        <ele>75.2</ele>
        <time>2021-03-28T12:15:44Z</time>
      </trkpt>
      <trkpt lat="42.70205" lon="2.76305">
        <ele>75.4</ele>
        <time>2021-03-28T12:15:45Z</time>
      </trkpt>
      <trkpt lat="42.70205" lon="2.76305">
        <ele>75.4</ele>
        <time>2021-03-28T12:15:45Z</time>
      </trkpt>
      <trkpt lat="42.7021" lon="2.76311">
        <ele>75.5</ele>
        <time>2021-03-28T12:15:46Z</time>
      </trkpt>
      <trkpt lat="42.7021" lon="2.76311">
        <ele>75.5</ele>
        <time>2021-03-28T12:15:46Z</time>
      </trkpt>
      <trkpt lat="42.70217" lon="2.76317">
        <ele>75.5</ele>
        <time>2021-03-28T12:15:48Z</time>
      </trkpt>
      <trkpt lat="42.70217" lon="2.76317">
        <ele>75.5</ele>
        <time>2021-03-28T12:15:48Z</time>
      </trkpt>
      <trkpt lat="42.70222" lon="2.76322">
        <ele>75.4</ele>
        <time>2021-03-28T12:15:49Z</time>
      </trkpt>
      <trkpt lat="42.70222" lon="2.76322">
        <ele>75.4</ele>
        <time>2021-03-28T12:15:49Z</time>
      </trkpt>
      <trkpt lat="42.70228" lon="2.76326">
        <ele>75.4</ele>
        <time>2021-03-28T12:15:50Z</time>
      </trkpt>
      <trkpt lat="42.70228" lon="2.76326">
        <ele>75.4</ele>
        <time>2021-03-28T12:15:50Z</time>
      </trkpt>
      <trkpt lat="42.70233" lon="2.76329">
        <ele>75.5</ele>
        <time>2021-03-28T12:15:51Z</time>
      </trkpt>
      <trkpt lat="42.70233" lon="2.76329">
        <ele>75.5</ele>
        <time>2021-03-28T12:15:51Z</time>
      </trkpt>
      <trkpt lat="42.70241" lon="2.76331">
        <ele>75.7</ele>
        <time>2021-03-28T12:15:53Z</time>
      </trkpt>
      <trkpt lat="42.70241" lon="2.76331">
        <ele>75.7</ele>
        <time>2021-03-28T12:15:53Z</time>
      </trkpt>
      <trkpt lat="42.70249" lon="2.76333">
        <ele>75.9</ele>
        <time>2021-03-28T12:15:55Z</time>
      </trkpt>
      <trkpt lat="42.70249" lon="2.76333">
        <ele>75.9</ele>
        <time>2021-03-28T12:15:55Z</time>
      </trkpt>
      <trkpt lat="42.70257" lon="2.76335">
        <ele>76.2</ele>
        <time>2021-03-28T12:15:57Z</time>
      </trkpt>
      <trkpt lat="42.70257" lon="2.76335">
        <ele>76.2</ele>
        <time>2021-03-28T12:15:57Z</time>
      </trkpt>
      <trkpt lat="42.70266" lon="2.76337">
        <ele>76.5</ele>
        <time>2021-03-28T12:15:59Z</time>
      </trkpt>
      <trkpt lat="42.70266" lon="2.76337">
        <ele>76.5</ele>
        <time>2021-03-28T12:15:59Z</time>
      </trkpt>
      <trkpt lat="42.70276" lon="2.7634">
        <ele>76.7</ele>
        <time>2021-03-28T12:16:01Z</time>
      </trkpt>
      <trkpt lat="42.70276" lon="2.7634">
        <ele>76.7</ele>
        <time>2021-03-28T12:16:01Z</time>
      </trkpt>
      <trkpt lat="42.70285" lon="2.76342">
        <ele>76.8</ele>
        <time>2021-03-28T12:16:03Z</time>
      </trkpt>
      <trkpt lat="42.70285" lon="2.76342">
        <ele>76.8</ele>
        <time>2021-03-28T12:16:03Z</time>
      </trkpt>
      <trkpt lat="42.70295" lon="2.76345">
        <ele>76.8</ele>
        <time>2021-03-28T12:16:05Z</time>
      </trkpt>
      <trkpt lat="42.70295" lon="2.76345">
        <ele>76.8</ele>
        <time>2021-03-28T12:16:05Z</time>
      </trkpt>
      <trkpt lat="42.70304" lon="2.76347">
        <ele>77</ele>
        <time>2021-03-28T12:16:07Z</time>
      </trkpt>
      <trkpt lat="42.70304" lon="2.76347">
        <ele>77</ele>
        <time>2021-03-28T12:16:07Z</time>
      </trkpt>
      <trkpt lat="42.70314" lon="2.76349">
        <ele>77.4</ele>
        <time>2021-03-28T12:16:09Z</time>
      </trkpt>
      <trkpt lat="42.70314" lon="2.76349">
        <ele>77.4</ele>
        <time>2021-03-28T12:16:09Z</time>
      </trkpt>
      <trkpt lat="42.70322" lon="2.7635">
        <ele>77.9</ele>
        <time>2021-03-28T12:16:10Z</time>
      </trkpt>
      <trkpt lat="42.70322" lon="2.7635">
        <ele>77.9</ele>
        <time>2021-03-28T12:16:10Z</time>
      </trkpt>
      <trkpt lat="42.70328" lon="2.76352">
        <ele>78.4</ele>
        <time>2021-03-28T12:16:11Z</time>
      </trkpt>
      <trkpt lat="42.70328" lon="2.76352">
        <ele>78.4</ele>
        <time>2021-03-28T12:16:11Z</time>
      </trkpt>
      <trkpt lat="42.70336" lon="2.76354">
        <ele>78.7</ele>
        <time>2021-03-28T12:16:13Z</time>
      </trkpt>
      <trkpt lat="42.70336" lon="2.76354">
        <ele>78.7</ele>
        <time>2021-03-28T12:16:13Z</time>
      </trkpt>
      <trkpt lat="42.70343" lon="2.76356">
        <ele>78.6</ele>
        <time>2021-03-28T12:16:14Z</time>
      </trkpt>
      <trkpt lat="42.70343" lon="2.76356">
        <ele>78.6</ele>
        <time>2021-03-28T12:16:14Z</time>
      </trkpt>
      <trkpt lat="42.7035" lon="2.76357">
        <ele>78.4</ele>
        <time>2021-03-28T12:16:16Z</time>
      </trkpt>
      <trkpt lat="42.7035" lon="2.76357">
        <ele>78.4</ele>
        <time>2021-03-28T12:16:16Z</time>
      </trkpt>
      <trkpt lat="42.70357" lon="2.76358">
        <ele>78.2</ele>
        <time>2021-03-28T12:16:18Z</time>
      </trkpt>
      <trkpt lat="42.70357" lon="2.76358">
        <ele>78.2</ele>
        <time>2021-03-28T12:16:18Z</time>
      </trkpt>
      <trkpt lat="42.70365" lon="2.76358">
        <ele>78.4</ele>
        <time>2021-03-28T12:16:20Z</time>
      </trkpt>
      <trkpt lat="42.70365" lon="2.76358">
        <ele>78.4</ele>
        <time>2021-03-28T12:16:20Z</time>
      </trkpt>
      <trkpt lat="42.70373" lon="2.76357">
        <ele>79</ele>
        <time>2021-03-28T12:16:22Z</time>
      </trkpt>
      <trkpt lat="42.70373" lon="2.76357">
        <ele>79</ele>
        <time>2021-03-28T12:16:22Z</time>
      </trkpt>
      <trkpt lat="42.70381" lon="2.76354">
        <ele>79.7</ele>
        <time>2021-03-28T12:16:24Z</time>
      </trkpt>
      <trkpt lat="42.70381" lon="2.76354">
        <ele>79.7</ele>
        <time>2021-03-28T12:16:24Z</time>
      </trkpt>
      <trkpt lat="42.70388" lon="2.7635">
        <ele>80.4</ele>
        <time>2021-03-28T12:16:26Z</time>
      </trkpt>
      <trkpt lat="42.70388" lon="2.7635">
        <ele>80.4</ele>
        <time>2021-03-28T12:16:26Z</time>
      </trkpt>
      <trkpt lat="42.70394" lon="2.76346">
        <ele>80.8</ele>
        <time>2021-03-28T12:16:27Z</time>
      </trkpt>
      <trkpt lat="42.70394" lon="2.76346">
        <ele>80.8</ele>
        <time>2021-03-28T12:16:27Z</time>
      </trkpt>
      <trkpt lat="42.70401" lon="2.7634">
        <ele>81.1</ele>
        <time>2021-03-28T12:16:29Z</time>
      </trkpt>
      <trkpt lat="42.70401" lon="2.7634">
        <ele>81.1</ele>
        <time>2021-03-28T12:16:29Z</time>
      </trkpt>
      <trkpt lat="42.70407" lon="2.76334">
        <ele>81</ele>
        <time>2021-03-28T12:16:30Z</time>
      </trkpt>
      <trkpt lat="42.70407" lon="2.76334">
        <ele>81</ele>
        <time>2021-03-28T12:16:30Z</time>
      </trkpt>
      <trkpt lat="42.70412" lon="2.76328">
        <ele>81.5</ele>
        <time>2021-03-28T12:16:32Z</time>
      </trkpt>
      <trkpt lat="42.70412" lon="2.76328">
        <ele>81.5</ele>
        <time>2021-03-28T12:16:32Z</time>
      </trkpt>
      <trkpt lat="42.70416" lon="2.76324">
        <ele>82</ele>
        <time>2021-03-28T12:16:33Z</time>
      </trkpt>
      <trkpt lat="42.70416" lon="2.76324">
        <ele>82</ele>
        <time>2021-03-28T12:16:33Z</time>
      </trkpt>
      <trkpt lat="42.7042" lon="2.76319">
        <ele>82.5</ele>
        <time>2021-03-28T12:16:34Z</time>
      </trkpt>
      <trkpt lat="42.7042" lon="2.76319">
        <ele>82.5</ele>
        <time>2021-03-28T12:16:34Z</time>
      </trkpt>
      <trkpt lat="42.70425" lon="2.76315">
        <ele>82.8</ele>
        <time>2021-03-28T12:16:36Z</time>
      </trkpt>
      <trkpt lat="42.70425" lon="2.76315">
        <ele>82.8</ele>
        <time>2021-03-28T12:16:36Z</time>
      </trkpt>
      <trkpt lat="42.7043" lon="2.7631">
        <ele>82.9</ele>
        <time>2021-03-28T12:16:38Z</time>
      </trkpt>
      <trkpt lat="42.7043" lon="2.7631">
        <ele>82.9</ele>
        <time>2021-03-28T12:16:38Z</time>
      </trkpt>
      <trkpt lat="42.70435" lon="2.76306">
        <ele>82.7</ele>
        <time>2021-03-28T12:16:40Z</time>
      </trkpt>
      <trkpt lat="42.70435" lon="2.76306">
        <ele>82.7</ele>
        <time>2021-03-28T12:16:40Z</time>
      </trkpt>
      <trkpt lat="42.7044" lon="2.76302">
        <ele>82.8</ele>
        <time>2021-03-28T12:16:42Z</time>
      </trkpt>
      <trkpt lat="42.7044" lon="2.76302">
        <ele>82.8</ele>
        <time>2021-03-28T12:16:42Z</time>
      </trkpt>
      <trkpt lat="42.70446" lon="2.76298">
        <ele>83.1</ele>
        <time>2021-03-28T12:16:44Z</time>
      </trkpt>
      <trkpt lat="42.70446" lon="2.76298">
        <ele>83.1</ele>
        <time>2021-03-28T12:16:44Z</time>
      </trkpt>
      <trkpt lat="42.7045" lon="2.76295">
        <ele>83.6</ele>
        <time>2021-03-28T12:16:45Z</time>
      </trkpt>
      <trkpt lat="42.7045" lon="2.76295">
        <ele>83.6</ele>
        <time>2021-03-28T12:16:45Z</time>
      </trkpt>
      <trkpt lat="42.70454" lon="2.76292">
        <ele>84</ele>
        <time>2021-03-28T12:16:46Z</time>
      </trkpt>
      <trkpt lat="42.70454" lon="2.76292">
        <ele>84</ele>
        <time>2021-03-28T12:16:46Z</time>
      </trkpt>
      <trkpt lat="42.70459" lon="2.76288">
        <ele>84.2</ele>
        <time>2021-03-28T12:16:48Z</time>
      </trkpt>
      <trkpt lat="42.70459" lon="2.76288">
        <ele>84.2</ele>
        <time>2021-03-28T12:16:48Z</time>
      </trkpt>
      <trkpt lat="42.70463" lon="2.76286">
        <ele>84.3</ele>
        <time>2021-03-28T12:16:49Z</time>
      </trkpt>
      <trkpt lat="42.70463" lon="2.76286">
        <ele>84.3</ele>
        <time>2021-03-28T12:16:49Z</time>
      </trkpt>
      <trkpt lat="42.70467" lon="2.76282">
        <ele>84.2</ele>
        <time>2021-03-28T12:16:51Z</time>
      </trkpt>
      <trkpt lat="42.70467" lon="2.76282">
        <ele>84.2</ele>
        <time>2021-03-28T12:16:51Z</time>
      </trkpt>
      <trkpt lat="42.70473" lon="2.76278">
        <ele>84</ele>
        <time>2021-03-28T12:16:53Z</time>
      </trkpt>
      <trkpt lat="42.70473" lon="2.76278">
        <ele>84</ele>
        <time>2021-03-28T12:16:53Z</time>
      </trkpt>
      <trkpt lat="42.70477" lon="2.76275">
        <ele>84.4</ele>
        <time>2021-03-28T12:16:54Z</time>
      </trkpt>
      <trkpt lat="42.70477" lon="2.76275">
        <ele>84.4</ele>
        <time>2021-03-28T12:16:54Z</time>
      </trkpt>
      <trkpt lat="42.70483" lon="2.76272">
        <ele>84.9</ele>
        <time>2021-03-28T12:16:56Z</time>
      </trkpt>
      <trkpt lat="42.70483" lon="2.76272">
        <ele>84.9</ele>
        <time>2021-03-28T12:16:56Z</time>
      </trkpt>
      <trkpt lat="42.70488" lon="2.76269">
        <ele>85.2</ele>
        <time>2021-03-28T12:16:57Z</time>
      </trkpt>
      <trkpt lat="42.70488" lon="2.76269">
        <ele>85.2</ele>
        <time>2021-03-28T12:16:57Z</time>
      </trkpt>
      <trkpt lat="42.70493" lon="2.76266">
        <ele>85.5</ele>
        <time>2021-03-28T12:16:59Z</time>
      </trkpt>
      <trkpt lat="42.70493" lon="2.76266">
        <ele>85.5</ele>
        <time>2021-03-28T12:16:59Z</time>
      </trkpt>
      <trkpt lat="42.70499" lon="2.76264">
        <ele>85.6</ele>
        <time>2021-03-28T12:17:01Z</time>
      </trkpt>
      <trkpt lat="42.70499" lon="2.76264">
        <ele>85.6</ele>
        <time>2021-03-28T12:17:01Z</time>
      </trkpt>
      <trkpt lat="42.70505" lon="2.7626">
        <ele>85.9</ele>
        <time>2021-03-28T12:17:03Z</time>
      </trkpt>
      <trkpt lat="42.70505" lon="2.7626">
        <ele>85.9</ele>
        <time>2021-03-28T12:17:03Z</time>
      </trkpt>
      <trkpt lat="42.7051" lon="2.76258">
        <ele>86.1</ele>
        <time>2021-03-28T12:17:04Z</time>
      </trkpt>
      <trkpt lat="42.7051" lon="2.76258">
        <ele>86.1</ele>
        <time>2021-03-28T12:17:04Z</time>
      </trkpt>
      <trkpt lat="42.70515" lon="2.76255">
        <ele>86.2</ele>
        <time>2021-03-28T12:17:06Z</time>
      </trkpt>
      <trkpt lat="42.70515" lon="2.76255">
        <ele>86.2</ele>
        <time>2021-03-28T12:17:06Z</time>
      </trkpt>
      <trkpt lat="42.7052" lon="2.76251">
        <ele>86.2</ele>
        <time>2021-03-28T12:17:08Z</time>
      </trkpt>
      <trkpt lat="42.7052" lon="2.76251">
        <ele>86.2</ele>
        <time>2021-03-28T12:17:08Z</time>
      </trkpt>
      <trkpt lat="42.70525" lon="2.76249">
        <ele>86.3</ele>
        <time>2021-03-28T12:17:09Z</time>
      </trkpt>
      <trkpt lat="42.70525" lon="2.76249">
        <ele>86.3</ele>
        <time>2021-03-28T12:17:09Z</time>
      </trkpt>
      <trkpt lat="42.7053" lon="2.76245">
        <ele>86.8</ele>
        <time>2021-03-28T12:17:11Z</time>
      </trkpt>
      <trkpt lat="42.7053" lon="2.76245">
        <ele>86.8</ele>
        <time>2021-03-28T12:17:11Z</time>
      </trkpt>
      <trkpt lat="42.70536" lon="2.7624">
        <ele>87.4</ele>
        <time>2021-03-28T12:17:13Z</time>
      </trkpt>
      <trkpt lat="42.70536" lon="2.7624">
        <ele>87.4</ele>
        <time>2021-03-28T12:17:13Z</time>
      </trkpt>
      <trkpt lat="42.70542" lon="2.76235">
        <ele>87.9</ele>
        <time>2021-03-28T12:17:15Z</time>
      </trkpt>
      <trkpt lat="42.70542" lon="2.76235">
        <ele>87.9</ele>
        <time>2021-03-28T12:17:15Z</time>
      </trkpt>
      <trkpt lat="42.70548" lon="2.76229">
        <ele>88.4</ele>
        <time>2021-03-28T12:17:17Z</time>
      </trkpt>
      <trkpt lat="42.70548" lon="2.76229">
        <ele>88.4</ele>
        <time>2021-03-28T12:17:17Z</time>
      </trkpt>
      <trkpt lat="42.70554" lon="2.76225">
        <ele>88.8</ele>
        <time>2021-03-28T12:17:18Z</time>
      </trkpt>
      <trkpt lat="42.70554" lon="2.76225">
        <ele>88.8</ele>
        <time>2021-03-28T12:17:18Z</time>
      </trkpt>
      <trkpt lat="42.70558" lon="2.7622">
        <ele>89.2</ele>
        <time>2021-03-28T12:17:19Z</time>
      </trkpt>
      <trkpt lat="42.70558" lon="2.7622">
        <ele>89.2</ele>
        <time>2021-03-28T12:17:19Z</time>
      </trkpt>
      <trkpt lat="42.70563" lon="2.76215">
        <ele>89.5</ele>
        <time>2021-03-28T12:17:21Z</time>
      </trkpt>
      <trkpt lat="42.70563" lon="2.76215">
        <ele>89.5</ele>
        <time>2021-03-28T12:17:21Z</time>
      </trkpt>
      <trkpt lat="42.70568" lon="2.7621">
        <ele>89.8</ele>
        <time>2021-03-28T12:17:23Z</time>
      </trkpt>
      <trkpt lat="42.70568" lon="2.7621">
        <ele>89.8</ele>
        <time>2021-03-28T12:17:23Z</time>
      </trkpt>
      <trkpt lat="42.70572" lon="2.76206">
        <ele>90.2</ele>
        <time>2021-03-28T12:17:25Z</time>
      </trkpt>
      <trkpt lat="42.70572" lon="2.76206">
        <ele>90.2</ele>
        <time>2021-03-28T12:17:25Z</time>
      </trkpt>
      <trkpt lat="42.70576" lon="2.76201">
        <ele>90.5</ele>
        <time>2021-03-28T12:17:27Z</time>
      </trkpt>
      <trkpt lat="42.70576" lon="2.76201">
        <ele>90.5</ele>
        <time>2021-03-28T12:17:27Z</time>
      </trkpt>
      <trkpt lat="42.70581" lon="2.76197">
        <ele>90.9</ele>
        <time>2021-03-28T12:17:29Z</time>
      </trkpt>
      <trkpt lat="42.70581" lon="2.76197">
        <ele>90.9</ele>
        <time>2021-03-28T12:17:29Z</time>
      </trkpt>
      <trkpt lat="42.70584" lon="2.76194">
        <ele>91</ele>
        <time>2021-03-28T12:17:30Z</time>
      </trkpt>
      <trkpt lat="42.70584" lon="2.76194">
        <ele>91</ele>
        <time>2021-03-28T12:17:30Z</time>
      </trkpt>
      <trkpt lat="42.70587" lon="2.76191">
        <ele>91.1</ele>
        <time>2021-03-28T12:17:31Z</time>
      </trkpt>
      <trkpt lat="42.70587" lon="2.76191">
        <ele>91.1</ele>
        <time>2021-03-28T12:17:31Z</time>
      </trkpt>
      <trkpt lat="42.7059" lon="2.76188">
        <ele>91.2</ele>
        <time>2021-03-28T12:17:32Z</time>
      </trkpt>
      <trkpt lat="42.7059" lon="2.76188">
        <ele>91.2</ele>
        <time>2021-03-28T12:17:32Z</time>
      </trkpt>
      <trkpt lat="42.70593" lon="2.76184">
        <ele>91.4</ele>
        <time>2021-03-28T12:17:34Z</time>
      </trkpt>
      <trkpt lat="42.70593" lon="2.76184">
        <ele>91.4</ele>
        <time>2021-03-28T12:17:34Z</time>
      </trkpt>
      <trkpt lat="42.70597" lon="2.76179">
        <ele>91.7</ele>
        <time>2021-03-28T12:17:36Z</time>
      </trkpt>
      <trkpt lat="42.70597" lon="2.76179">
        <ele>91.7</ele>
        <time>2021-03-28T12:17:36Z</time>
      </trkpt>
      <trkpt lat="42.706" lon="2.76174">
        <ele>92</ele>
        <time>2021-03-28T12:17:37Z</time>
      </trkpt>
      <trkpt lat="42.706" lon="2.76174">
        <ele>92</ele>
        <time>2021-03-28T12:17:37Z</time>
      </trkpt>
      <trkpt lat="42.70603" lon="2.7617">
        <ele>92.3</ele>
        <time>2021-03-28T12:17:38Z</time>
      </trkpt>
      <trkpt lat="42.70603" lon="2.7617">
        <ele>92.3</ele>
        <time>2021-03-28T12:17:38Z</time>
      </trkpt>
      <trkpt lat="42.70607" lon="2.76164">
        <ele>92.6</ele>
        <time>2021-03-28T12:17:40Z</time>
      </trkpt>
      <trkpt lat="42.70607" lon="2.76164">
        <ele>92.6</ele>
        <time>2021-03-28T12:17:40Z</time>
      </trkpt>
      <trkpt lat="42.7061" lon="2.76158">
        <ele>93</ele>
        <time>2021-03-28T12:17:41Z</time>
      </trkpt>
      <trkpt lat="42.7061" lon="2.76158">
        <ele>93</ele>
        <time>2021-03-28T12:17:41Z</time>
      </trkpt>
      <trkpt lat="42.70613" lon="2.76153">
        <ele>93.5</ele>
        <time>2021-03-28T12:17:43Z</time>
      </trkpt>
      <trkpt lat="42.70613" lon="2.76153">
        <ele>93.5</ele>
        <time>2021-03-28T12:17:43Z</time>
      </trkpt>
      <trkpt lat="42.70616" lon="2.76148">
        <ele>94</ele>
        <time>2021-03-28T12:17:45Z</time>
      </trkpt>
      <trkpt lat="42.70616" lon="2.76148">
        <ele>94</ele>
        <time>2021-03-28T12:17:45Z</time>
      </trkpt>
      <trkpt lat="42.7062" lon="2.76143">
        <ele>94.4</ele>
        <time>2021-03-28T12:17:47Z</time>
      </trkpt>
      <trkpt lat="42.7062" lon="2.76143">
        <ele>94.4</ele>
        <time>2021-03-28T12:17:47Z</time>
      </trkpt>
      <trkpt lat="42.70622" lon="2.76138">
        <ele>94.7</ele>
        <time>2021-03-28T12:17:48Z</time>
      </trkpt>
      <trkpt lat="42.70622" lon="2.76138">
        <ele>94.7</ele>
        <time>2021-03-28T12:17:48Z</time>
      </trkpt>
      <trkpt lat="42.70625" lon="2.76133">
        <ele>94.9</ele>
        <time>2021-03-28T12:17:50Z</time>
      </trkpt>
      <trkpt lat="42.70625" lon="2.76133">
        <ele>94.9</ele>
        <time>2021-03-28T12:17:50Z</time>
      </trkpt>
      <trkpt lat="42.70628" lon="2.76129">
        <ele>95</ele>
        <time>2021-03-28T12:17:51Z</time>
      </trkpt>
      <trkpt lat="42.70628" lon="2.76129">
        <ele>95</ele>
        <time>2021-03-28T12:17:51Z</time>
      </trkpt>
      <trkpt lat="42.7063" lon="2.76126">
        <ele>95.1</ele>
        <time>2021-03-28T12:17:52Z</time>
      </trkpt>
      <trkpt lat="42.7063" lon="2.76126">
        <ele>95.1</ele>
        <time>2021-03-28T12:17:52Z</time>
      </trkpt>
      <trkpt lat="42.70632" lon="2.76123">
        <ele>95.1</ele>
        <time>2021-03-28T12:17:53Z</time>
      </trkpt>
      <trkpt lat="42.70632" lon="2.76123">
        <ele>95.1</ele>
        <time>2021-03-28T12:17:53Z</time>
      </trkpt>
      <trkpt lat="42.70634" lon="2.76119">
        <ele>95.1</ele>
        <time>2021-03-28T12:17:55Z</time>
      </trkpt>
      <trkpt lat="42.70634" lon="2.76119">
        <ele>95.1</ele>
        <time>2021-03-28T12:17:55Z</time>
      </trkpt>
      <trkpt lat="42.70636" lon="2.76116">
        <ele>95.1</ele>
        <time>2021-03-28T12:17:56Z</time>
      </trkpt>
      <trkpt lat="42.70636" lon="2.76116">
        <ele>95.1</ele>
        <time>2021-03-28T12:17:56Z</time>
      </trkpt>
      <trkpt lat="42.70639" lon="2.76113">
        <ele>94.9</ele>
        <time>2021-03-28T12:17:58Z</time>
      </trkpt>
      <trkpt lat="42.70639" lon="2.76113">
        <ele>94.9</ele>
        <time>2021-03-28T12:17:58Z</time>
      </trkpt>
      <trkpt lat="42.70643" lon="2.76109">
        <ele>95.4</ele>
        <time>2021-03-28T12:18:00Z</time>
      </trkpt>
      <trkpt lat="42.70643" lon="2.76109">
        <ele>95.4</ele>
        <time>2021-03-28T12:18:00Z</time>
      </trkpt>
      <trkpt lat="42.70646" lon="2.76105">
        <ele>95.8</ele>
        <time>2021-03-28T12:18:02Z</time>
      </trkpt>
      <trkpt lat="42.70646" lon="2.76105">
        <ele>95.8</ele>
        <time>2021-03-28T12:18:02Z</time>
      </trkpt>
      <trkpt lat="42.70649" lon="2.761">
        <ele>96.2</ele>
        <time>2021-03-28T12:18:04Z</time>
      </trkpt>
      <trkpt lat="42.70649" lon="2.761">
        <ele>96.2</ele>
        <time>2021-03-28T12:18:04Z</time>
      </trkpt>
      <trkpt lat="42.70653" lon="2.76095">
        <ele>96.6</ele>
        <time>2021-03-28T12:18:06Z</time>
      </trkpt>
      <trkpt lat="42.70653" lon="2.76095">
        <ele>96.6</ele>
        <time>2021-03-28T12:18:06Z</time>
      </trkpt>
      <trkpt lat="42.70655" lon="2.7609">
        <ele>96.8</ele>
        <time>2021-03-28T12:18:08Z</time>
      </trkpt>
      <trkpt lat="42.70655" lon="2.7609">
        <ele>96.8</ele>
        <time>2021-03-28T12:18:08Z</time>
      </trkpt>
      <trkpt lat="42.70658" lon="2.76085">
        <ele>97</ele>
        <time>2021-03-28T12:18:10Z</time>
      </trkpt>
      <trkpt lat="42.70658" lon="2.76085">
        <ele>97</ele>
        <time>2021-03-28T12:18:10Z</time>
      </trkpt>
      <trkpt lat="42.70661" lon="2.7608">
        <ele>97.2</ele>
        <time>2021-03-28T12:18:11Z</time>
      </trkpt>
      <trkpt lat="42.70661" lon="2.7608">
        <ele>97.2</ele>
        <time>2021-03-28T12:18:11Z</time>
      </trkpt>
      <trkpt lat="42.70665" lon="2.76075">
        <ele>97.6</ele>
        <time>2021-03-28T12:18:13Z</time>
      </trkpt>
      <trkpt lat="42.70665" lon="2.76075">
        <ele>97.6</ele>
        <time>2021-03-28T12:18:13Z</time>
      </trkpt>
      <trkpt lat="42.7067" lon="2.76069">
        <ele>98.1</ele>
        <time>2021-03-28T12:18:15Z</time>
      </trkpt>
      <trkpt lat="42.7067" lon="2.76069">
        <ele>98.1</ele>
        <time>2021-03-28T12:18:15Z</time>
      </trkpt>
      <trkpt lat="42.70673" lon="2.76064">
        <ele>98.5</ele>
        <time>2021-03-28T12:18:16Z</time>
      </trkpt>
      <trkpt lat="42.70673" lon="2.76064">
        <ele>98.5</ele>
        <time>2021-03-28T12:18:16Z</time>
      </trkpt>
      <trkpt lat="42.70677" lon="2.76058">
        <ele>98.9</ele>
        <time>2021-03-28T12:18:18Z</time>
      </trkpt>
      <trkpt lat="42.70677" lon="2.76058">
        <ele>98.9</ele>
        <time>2021-03-28T12:18:18Z</time>
      </trkpt>
      <trkpt lat="42.7068" lon="2.76052">
        <ele>99.1</ele>
        <time>2021-03-28T12:18:19Z</time>
      </trkpt>
      <trkpt lat="42.7068" lon="2.76052">
        <ele>99.1</ele>
        <time>2021-03-28T12:18:19Z</time>
      </trkpt>
      <trkpt lat="42.70684" lon="2.76046">
        <ele>99.3</ele>
        <time>2021-03-28T12:18:21Z</time>
      </trkpt>
      <trkpt lat="42.70684" lon="2.76046">
        <ele>99.3</ele>
        <time>2021-03-28T12:18:21Z</time>
      </trkpt>
      <trkpt lat="42.70687" lon="2.76041">
        <ele>99.5</ele>
        <time>2021-03-28T12:18:22Z</time>
      </trkpt>
      <trkpt lat="42.70687" lon="2.76041">
        <ele>99.5</ele>
        <time>2021-03-28T12:18:22Z</time>
      </trkpt>
      <trkpt lat="42.7069" lon="2.76036">
        <ele>99.7</ele>
        <time>2021-03-28T12:18:23Z</time>
      </trkpt>
      <trkpt lat="42.7069" lon="2.76036">
        <ele>99.7</ele>
        <time>2021-03-28T12:18:23Z</time>
      </trkpt>
      <trkpt lat="42.70694" lon="2.76032">
        <ele>99.9</ele>
        <time>2021-03-28T12:18:25Z</time>
      </trkpt>
      <trkpt lat="42.70694" lon="2.76032">
        <ele>99.9</ele>
        <time>2021-03-28T12:18:25Z</time>
      </trkpt>
      <trkpt lat="42.70696" lon="2.76027">
        <ele>100</ele>
        <time>2021-03-28T12:18:27Z</time>
      </trkpt>
      <trkpt lat="42.70696" lon="2.76027">
        <ele>100</ele>
        <time>2021-03-28T12:18:27Z</time>
      </trkpt>
      <trkpt lat="42.70699" lon="2.76022">
        <ele>100.2</ele>
        <time>2021-03-28T12:18:28Z</time>
      </trkpt>
      <trkpt lat="42.70699" lon="2.76022">
        <ele>100.2</ele>
        <time>2021-03-28T12:18:28Z</time>
      </trkpt>
      <trkpt lat="42.70702" lon="2.76017">
        <ele>100.4</ele>
        <time>2021-03-28T12:18:30Z</time>
      </trkpt>
      <trkpt lat="42.70702" lon="2.76017">
        <ele>100.4</ele>
        <time>2021-03-28T12:18:30Z</time>
      </trkpt>
      <trkpt lat="42.70704" lon="2.76013">
        <ele>100.5</ele>
        <time>2021-03-28T12:18:31Z</time>
      </trkpt>
      <trkpt lat="42.70704" lon="2.76013">
        <ele>100.5</ele>
        <time>2021-03-28T12:18:31Z</time>
      </trkpt>
      <trkpt lat="42.70708" lon="2.76009">
        <ele>100.7</ele>
        <time>2021-03-28T12:18:33Z</time>
      </trkpt>
      <trkpt lat="42.70708" lon="2.76009">
        <ele>100.7</ele>
        <time>2021-03-28T12:18:33Z</time>
      </trkpt>
      <trkpt lat="42.70711" lon="2.76006">
        <ele>100.8</ele>
        <time>2021-03-28T12:18:35Z</time>
      </trkpt>
      <trkpt lat="42.70711" lon="2.76006">
        <ele>100.8</ele>
        <time>2021-03-28T12:18:35Z</time>
      </trkpt>
      <trkpt lat="42.70715" lon="2.76003">
        <ele>100.9</ele>
        <time>2021-03-28T12:18:36Z</time>
      </trkpt>
      <trkpt lat="42.70715" lon="2.76003">
        <ele>100.9</ele>
        <time>2021-03-28T12:18:36Z</time>
      </trkpt>
      <trkpt lat="42.70718" lon="2.76">
        <ele>101</ele>
        <time>2021-03-28T12:18:38Z</time>
      </trkpt>
      <trkpt lat="42.70718" lon="2.76">
        <ele>101</ele>
        <time>2021-03-28T12:18:38Z</time>
      </trkpt>
      <trkpt lat="42.70721" lon="2.75997">
        <ele>101.1</ele>
        <time>2021-03-28T12:18:39Z</time>
      </trkpt>
      <trkpt lat="42.70721" lon="2.75997">
        <ele>101.1</ele>
        <time>2021-03-28T12:18:39Z</time>
      </trkpt>
      <trkpt lat="42.70725" lon="2.75993">
        <ele>101.3</ele>
        <time>2021-03-28T12:18:41Z</time>
      </trkpt>
      <trkpt lat="42.70725" lon="2.75993">
        <ele>101.3</ele>
        <time>2021-03-28T12:18:41Z</time>
      </trkpt>
      <trkpt lat="42.70727" lon="2.75989">
        <ele>101.4</ele>
        <time>2021-03-28T12:18:42Z</time>
      </trkpt>
      <trkpt lat="42.70727" lon="2.75989">
        <ele>101.4</ele>
        <time>2021-03-28T12:18:42Z</time>
      </trkpt>
      <trkpt lat="42.7073" lon="2.75984">
        <ele>101.6</ele>
        <time>2021-03-28T12:18:44Z</time>
      </trkpt>
      <trkpt lat="42.7073" lon="2.75984">
        <ele>101.6</ele>
        <time>2021-03-28T12:18:44Z</time>
      </trkpt>
      <trkpt lat="42.70734" lon="2.75979">
        <ele>101.8</ele>
        <time>2021-03-28T12:18:46Z</time>
      </trkpt>
      <trkpt lat="42.70734" lon="2.75979">
        <ele>101.8</ele>
        <time>2021-03-28T12:18:46Z</time>
      </trkpt>
      <trkpt lat="42.70738" lon="2.75974">
        <ele>101.9</ele>
        <time>2021-03-28T12:18:48Z</time>
      </trkpt>
      <trkpt lat="42.70738" lon="2.75974">
        <ele>101.9</ele>
        <time>2021-03-28T12:18:48Z</time>
      </trkpt>
      <trkpt lat="42.70741" lon="2.75971">
        <ele>102</ele>
        <time>2021-03-28T12:18:49Z</time>
      </trkpt>
      <trkpt lat="42.70741" lon="2.75971">
        <ele>102</ele>
        <time>2021-03-28T12:18:49Z</time>
      </trkpt>
      <trkpt lat="42.70744" lon="2.75968">
        <ele>102.1</ele>
        <time>2021-03-28T12:18:51Z</time>
      </trkpt>
      <trkpt lat="42.70744" lon="2.75968">
        <ele>102.1</ele>
        <time>2021-03-28T12:18:51Z</time>
      </trkpt>
      <trkpt lat="42.70747" lon="2.75965">
        <ele>102.2</ele>
        <time>2021-03-28T12:18:52Z</time>
      </trkpt>
      <trkpt lat="42.70747" lon="2.75965">
        <ele>102.2</ele>
        <time>2021-03-28T12:18:52Z</time>
      </trkpt>
      <trkpt lat="42.7075" lon="2.75962">
        <ele>102.4</ele>
        <time>2021-03-28T12:18:54Z</time>
      </trkpt>
      <trkpt lat="42.7075" lon="2.75962">
        <ele>102.4</ele>
        <time>2021-03-28T12:18:54Z</time>
      </trkpt>
      <trkpt lat="42.70754" lon="2.75958">
        <ele>102.6</ele>
        <time>2021-03-28T12:18:56Z</time>
      </trkpt>
      <trkpt lat="42.70754" lon="2.75958">
        <ele>102.6</ele>
        <time>2021-03-28T12:18:56Z</time>
      </trkpt>
      <trkpt lat="42.70757" lon="2.75955">
        <ele>102.9</ele>
        <time>2021-03-28T12:18:58Z</time>
      </trkpt>
      <trkpt lat="42.70757" lon="2.75955">
        <ele>102.9</ele>
        <time>2021-03-28T12:18:58Z</time>
      </trkpt>
      <trkpt lat="42.7076" lon="2.75951">
        <ele>103.1</ele>
        <time>2021-03-28T12:18:59Z</time>
      </trkpt>
      <trkpt lat="42.7076" lon="2.75951">
        <ele>103.1</ele>
        <time>2021-03-28T12:18:59Z</time>
      </trkpt>
      <trkpt lat="42.70764" lon="2.75948">
        <ele>103.4</ele>
        <time>2021-03-28T12:19:01Z</time>
      </trkpt>
      <trkpt lat="42.70764" lon="2.75948">
        <ele>103.4</ele>
        <time>2021-03-28T12:19:01Z</time>
      </trkpt>
      <trkpt lat="42.70768" lon="2.75945">
        <ele>103.6</ele>
        <time>2021-03-28T12:19:02Z</time>
      </trkpt>
      <trkpt lat="42.70768" lon="2.75945">
        <ele>103.6</ele>
        <time>2021-03-28T12:19:02Z</time>
      </trkpt>
      <trkpt lat="42.70773" lon="2.75941">
        <ele>103.8</ele>
        <time>2021-03-28T12:19:04Z</time>
      </trkpt>
      <trkpt lat="42.70773" lon="2.75941">
        <ele>103.8</ele>
        <time>2021-03-28T12:19:04Z</time>
      </trkpt>
      <trkpt lat="42.70778" lon="2.75937">
        <ele>104</ele>
        <time>2021-03-28T12:19:06Z</time>
      </trkpt>
      <trkpt lat="42.70778" lon="2.75937">
        <ele>104</ele>
        <time>2021-03-28T12:19:06Z</time>
      </trkpt>
      <trkpt lat="42.70781" lon="2.75934">
        <ele>104.1</ele>
        <time>2021-03-28T12:19:07Z</time>
      </trkpt>
      <trkpt lat="42.70781" lon="2.75934">
        <ele>104.1</ele>
        <time>2021-03-28T12:19:07Z</time>
      </trkpt>
      <trkpt lat="42.70785" lon="2.75931">
        <ele>104.3</ele>
        <time>2021-03-28T12:19:08Z</time>
      </trkpt>
      <trkpt lat="42.70785" lon="2.75931">
        <ele>104.3</ele>
        <time>2021-03-28T12:19:08Z</time>
      </trkpt>
      <trkpt lat="42.70789" lon="2.75928">
        <ele>104.4</ele>
        <time>2021-03-28T12:19:10Z</time>
      </trkpt>
      <trkpt lat="42.70789" lon="2.75928">
        <ele>104.4</ele>
        <time>2021-03-28T12:19:10Z</time>
      </trkpt>
      <trkpt lat="42.70794" lon="2.75925">
        <ele>104.6</ele>
        <time>2021-03-28T12:19:12Z</time>
      </trkpt>
      <trkpt lat="42.70794" lon="2.75925">
        <ele>104.6</ele>
        <time>2021-03-28T12:19:12Z</time>
      </trkpt>
      <trkpt lat="42.70798" lon="2.75922">
        <ele>104.7</ele>
        <time>2021-03-28T12:19:13Z</time>
      </trkpt>
      <trkpt lat="42.70798" lon="2.75922">
        <ele>104.7</ele>
        <time>2021-03-28T12:19:13Z</time>
      </trkpt>
      <trkpt lat="42.70802" lon="2.75919">
        <ele>104.9</ele>
        <time>2021-03-28T12:19:15Z</time>
      </trkpt>
      <trkpt lat="42.70802" lon="2.75919">
        <ele>104.9</ele>
        <time>2021-03-28T12:19:15Z</time>
      </trkpt>
      <trkpt lat="42.70806" lon="2.75917">
        <ele>105</ele>
        <time>2021-03-28T12:19:17Z</time>
      </trkpt>
      <trkpt lat="42.70806" lon="2.75917">
        <ele>105</ele>
        <time>2021-03-28T12:19:17Z</time>
      </trkpt>
      <trkpt lat="42.70811" lon="2.75913">
        <ele>105.3</ele>
        <time>2021-03-28T12:19:19Z</time>
      </trkpt>
      <trkpt lat="42.70811" lon="2.75913">
        <ele>105.3</ele>
        <time>2021-03-28T12:19:19Z</time>
      </trkpt>
      <trkpt lat="42.70816" lon="2.7591">
        <ele>105.5</ele>
        <time>2021-03-28T12:19:21Z</time>
      </trkpt>
      <trkpt lat="42.70816" lon="2.7591">
        <ele>105.5</ele>
        <time>2021-03-28T12:19:21Z</time>
      </trkpt>
      <trkpt lat="42.70821" lon="2.75907">
        <ele>105.7</ele>
        <time>2021-03-28T12:19:23Z</time>
      </trkpt>
      <trkpt lat="42.70821" lon="2.75907">
        <ele>105.7</ele>
        <time>2021-03-28T12:19:23Z</time>
      </trkpt>
      <trkpt lat="42.70826" lon="2.75905">
        <ele>105.8</ele>
        <time>2021-03-28T12:19:24Z</time>
      </trkpt>
      <trkpt lat="42.70826" lon="2.75905">
        <ele>105.8</ele>
        <time>2021-03-28T12:19:24Z</time>
      </trkpt>
      <trkpt lat="42.70831" lon="2.75903">
        <ele>106</ele>
        <time>2021-03-28T12:19:26Z</time>
      </trkpt>
      <trkpt lat="42.70831" lon="2.75903">
        <ele>106</ele>
        <time>2021-03-28T12:19:26Z</time>
      </trkpt>
      <trkpt lat="42.70835" lon="2.75901">
        <ele>106.1</ele>
        <time>2021-03-28T12:19:27Z</time>
      </trkpt>
      <trkpt lat="42.70835" lon="2.75901">
        <ele>106.1</ele>
        <time>2021-03-28T12:19:27Z</time>
      </trkpt>
      <trkpt lat="42.7084" lon="2.75899">
        <ele>106.2</ele>
        <time>2021-03-28T12:19:29Z</time>
      </trkpt>
      <trkpt lat="42.7084" lon="2.75899">
        <ele>106.2</ele>
        <time>2021-03-28T12:19:29Z</time>
      </trkpt>
      <trkpt lat="42.70846" lon="2.75898">
        <ele>106.4</ele>
        <time>2021-03-28T12:19:31Z</time>
      </trkpt>
      <trkpt lat="42.70846" lon="2.75898">
        <ele>106.4</ele>
        <time>2021-03-28T12:19:31Z</time>
      </trkpt>
      <trkpt lat="42.70851" lon="2.75898">
        <ele>106.6</ele>
        <time>2021-03-28T12:19:33Z</time>
      </trkpt>
      <trkpt lat="42.70851" lon="2.75898">
        <ele>106.6</ele>
        <time>2021-03-28T12:19:33Z</time>
      </trkpt>
      <trkpt lat="42.70857" lon="2.75898">
        <ele>106.8</ele>
        <time>2021-03-28T12:19:35Z</time>
      </trkpt>
      <trkpt lat="42.70857" lon="2.75898">
        <ele>106.8</ele>
        <time>2021-03-28T12:19:35Z</time>
      </trkpt>
      <trkpt lat="42.70862" lon="2.75899">
        <ele>107</ele>
        <time>2021-03-28T12:19:37Z</time>
      </trkpt>
      <trkpt lat="42.70862" lon="2.75899">
        <ele>107</ele>
        <time>2021-03-28T12:19:37Z</time>
      </trkpt>
      <trkpt lat="42.70866" lon="2.759">
        <ele>107.2</ele>
        <time>2021-03-28T12:19:38Z</time>
      </trkpt>
      <trkpt lat="42.70866" lon="2.759">
        <ele>107.2</ele>
        <time>2021-03-28T12:19:38Z</time>
      </trkpt>
      <trkpt lat="42.70871" lon="2.75901">
        <ele>107.3</ele>
        <time>2021-03-28T12:19:40Z</time>
      </trkpt>
      <trkpt lat="42.70871" lon="2.75901">
        <ele>107.3</ele>
        <time>2021-03-28T12:19:40Z</time>
      </trkpt>
      <trkpt lat="42.70876" lon="2.75902">
        <ele>107.5</ele>
        <time>2021-03-28T12:19:42Z</time>
      </trkpt>
      <trkpt lat="42.70876" lon="2.75902">
        <ele>107.5</ele>
        <time>2021-03-28T12:19:42Z</time>
      </trkpt>
      <trkpt lat="42.70881" lon="2.75903">
        <ele>107.7</ele>
        <time>2021-03-28T12:19:44Z</time>
      </trkpt>
      <trkpt lat="42.70881" lon="2.75903">
        <ele>107.7</ele>
        <time>2021-03-28T12:19:44Z</time>
      </trkpt>
      <trkpt lat="42.70886" lon="2.75904">
        <ele>107.9</ele>
        <time>2021-03-28T12:19:45Z</time>
      </trkpt>
      <trkpt lat="42.70886" lon="2.75904">
        <ele>107.9</ele>
        <time>2021-03-28T12:19:45Z</time>
      </trkpt>
      <trkpt lat="42.70891" lon="2.75903">
        <ele>108.1</ele>
        <time>2021-03-28T12:19:47Z</time>
      </trkpt>
      <trkpt lat="42.70891" lon="2.75903">
        <ele>108.1</ele>
        <time>2021-03-28T12:19:47Z</time>
      </trkpt>
      <trkpt lat="42.70896" lon="2.75903">
        <ele>108.4</ele>
        <time>2021-03-28T12:19:49Z</time>
      </trkpt>
      <trkpt lat="42.70896" lon="2.75903">
        <ele>108.4</ele>
        <time>2021-03-28T12:19:49Z</time>
      </trkpt>
      <trkpt lat="42.709" lon="2.75904">
        <ele>108.6</ele>
        <time>2021-03-28T12:19:50Z</time>
      </trkpt>
      <trkpt lat="42.709" lon="2.75904">
        <ele>108.6</ele>
        <time>2021-03-28T12:19:50Z</time>
      </trkpt>
      <trkpt lat="42.70905" lon="2.75905">
        <ele>108.8</ele>
        <time>2021-03-28T12:19:52Z</time>
      </trkpt>
      <trkpt lat="42.70905" lon="2.75905">
        <ele>108.8</ele>
        <time>2021-03-28T12:19:52Z</time>
      </trkpt>
      <trkpt lat="42.7091" lon="2.75905">
        <ele>109</ele>
        <time>2021-03-28T12:19:53Z</time>
      </trkpt>
      <trkpt lat="42.7091" lon="2.75905">
        <ele>109</ele>
        <time>2021-03-28T12:19:53Z</time>
      </trkpt>
      <trkpt lat="42.70914" lon="2.75907">
        <ele>109.2</ele>
        <time>2021-03-28T12:19:55Z</time>
      </trkpt>
      <trkpt lat="42.70914" lon="2.75907">
        <ele>109.2</ele>
        <time>2021-03-28T12:19:55Z</time>
      </trkpt>
      <trkpt lat="42.70918" lon="2.75907">
        <ele>109.4</ele>
        <time>2021-03-28T12:19:56Z</time>
      </trkpt>
      <trkpt lat="42.70918" lon="2.75907">
        <ele>109.4</ele>
        <time>2021-03-28T12:19:56Z</time>
      </trkpt>
      <trkpt lat="42.70923" lon="2.75908">
        <ele>109.5</ele>
        <time>2021-03-28T12:19:58Z</time>
      </trkpt>
      <trkpt lat="42.70923" lon="2.75908">
        <ele>109.5</ele>
        <time>2021-03-28T12:19:58Z</time>
      </trkpt>
      <trkpt lat="42.70928" lon="2.75908">
        <ele>109.6</ele>
        <time>2021-03-28T12:20:00Z</time>
      </trkpt>
      <trkpt lat="42.70928" lon="2.75908">
        <ele>109.6</ele>
        <time>2021-03-28T12:20:00Z</time>
      </trkpt>
      <trkpt lat="42.70933" lon="2.75909">
        <ele>109.8</ele>
        <time>2021-03-28T12:20:02Z</time>
      </trkpt>
      <trkpt lat="42.70933" lon="2.75909">
        <ele>109.8</ele>
        <time>2021-03-28T12:20:02Z</time>
      </trkpt>
      <trkpt lat="42.70937" lon="2.7591">
        <ele>110</ele>
        <time>2021-03-28T12:20:03Z</time>
      </trkpt>
      <trkpt lat="42.70937" lon="2.7591">
        <ele>110</ele>
        <time>2021-03-28T12:20:03Z</time>
      </trkpt>
      <trkpt lat="42.70942" lon="2.75911">
        <ele>110.3</ele>
        <time>2021-03-28T12:20:05Z</time>
      </trkpt>
      <trkpt lat="42.70942" lon="2.75911">
        <ele>110.3</ele>
        <time>2021-03-28T12:20:05Z</time>
      </trkpt>
      <trkpt lat="42.70946" lon="2.75912">
        <ele>110.7</ele>
        <time>2021-03-28T12:20:06Z</time>
      </trkpt>
      <trkpt lat="42.70946" lon="2.75912">
        <ele>110.7</ele>
        <time>2021-03-28T12:20:06Z</time>
      </trkpt>
      <trkpt lat="42.70951" lon="2.75913">
        <ele>111.3</ele>
        <time>2021-03-28T12:20:08Z</time>
      </trkpt>
      <trkpt lat="42.70951" lon="2.75913">
        <ele>111.3</ele>
        <time>2021-03-28T12:20:08Z</time>
      </trkpt>
      <trkpt lat="42.70955" lon="2.75913">
        <ele>111.8</ele>
        <time>2021-03-28T12:20:09Z</time>
      </trkpt>
      <trkpt lat="42.70955" lon="2.75913">
        <ele>111.8</ele>
        <time>2021-03-28T12:20:09Z</time>
      </trkpt>
      <trkpt lat="42.70959" lon="2.75914">
        <ele>112.4</ele>
        <time>2021-03-28T12:20:11Z</time>
      </trkpt>
      <trkpt lat="42.70959" lon="2.75914">
        <ele>112.4</ele>
        <time>2021-03-28T12:20:11Z</time>
      </trkpt>
      <trkpt lat="42.70964" lon="2.75915">
        <ele>113</ele>
        <time>2021-03-28T12:20:13Z</time>
      </trkpt>
      <trkpt lat="42.70964" lon="2.75915">
        <ele>113</ele>
        <time>2021-03-28T12:20:13Z</time>
      </trkpt>
      <trkpt lat="42.70968" lon="2.75916">
        <ele>113.5</ele>
        <time>2021-03-28T12:20:14Z</time>
      </trkpt>
      <trkpt lat="42.70968" lon="2.75916">
        <ele>113.5</ele>
        <time>2021-03-28T12:20:14Z</time>
      </trkpt>
      <trkpt lat="42.70972" lon="2.75916">
        <ele>113.9</ele>
        <time>2021-03-28T12:20:15Z</time>
      </trkpt>
      <trkpt lat="42.70972" lon="2.75916">
        <ele>113.9</ele>
        <time>2021-03-28T12:20:15Z</time>
      </trkpt>
      <trkpt lat="42.70976" lon="2.75917">
        <ele>114.3</ele>
        <time>2021-03-28T12:20:17Z</time>
      </trkpt>
      <trkpt lat="42.70976" lon="2.75917">
        <ele>114.3</ele>
        <time>2021-03-28T12:20:17Z</time>
      </trkpt>
      <trkpt lat="42.7098" lon="2.75918">
        <ele>114.6</ele>
        <time>2021-03-28T12:20:19Z</time>
      </trkpt>
      <trkpt lat="42.7098" lon="2.75918">
        <ele>114.6</ele>
        <time>2021-03-28T12:20:19Z</time>
      </trkpt>
      <trkpt lat="42.70985" lon="2.75918">
        <ele>114.9</ele>
        <time>2021-03-28T12:20:21Z</time>
      </trkpt>
      <trkpt lat="42.70985" lon="2.75918">
        <ele>114.9</ele>
        <time>2021-03-28T12:20:21Z</time>
      </trkpt>
      <trkpt lat="42.7099" lon="2.75919">
        <ele>115.3</ele>
        <time>2021-03-28T12:20:23Z</time>
      </trkpt>
      <trkpt lat="42.7099" lon="2.75919">
        <ele>115.3</ele>
        <time>2021-03-28T12:20:23Z</time>
      </trkpt>
      <trkpt lat="42.70994" lon="2.75919">
        <ele>115.6</ele>
        <time>2021-03-28T12:20:24Z</time>
      </trkpt>
      <trkpt lat="42.70994" lon="2.75919">
        <ele>115.6</ele>
        <time>2021-03-28T12:20:24Z</time>
      </trkpt>
      <trkpt lat="42.70997" lon="2.75919">
        <ele>115.8</ele>
        <time>2021-03-28T12:20:25Z</time>
      </trkpt>
      <trkpt lat="42.70997" lon="2.75919">
        <ele>115.8</ele>
        <time>2021-03-28T12:20:25Z</time>
      </trkpt>
      <trkpt lat="42.71002" lon="2.75919">
        <ele>116.1</ele>
        <time>2021-03-28T12:20:27Z</time>
      </trkpt>
      <trkpt lat="42.71002" lon="2.75919">
        <ele>116.1</ele>
        <time>2021-03-28T12:20:27Z</time>
      </trkpt>
      <trkpt lat="42.71006" lon="2.75919">
        <ele>116.4</ele>
        <time>2021-03-28T12:20:29Z</time>
      </trkpt>
      <trkpt lat="42.71006" lon="2.75919">
        <ele>116.4</ele>
        <time>2021-03-28T12:20:29Z</time>
      </trkpt>
      <trkpt lat="42.71011" lon="2.75919">
        <ele>116.8</ele>
        <time>2021-03-28T12:20:31Z</time>
      </trkpt>
      <trkpt lat="42.71011" lon="2.75919">
        <ele>116.8</ele>
        <time>2021-03-28T12:20:31Z</time>
      </trkpt>
      <trkpt lat="42.71015" lon="2.75919">
        <ele>117</ele>
        <time>2021-03-28T12:20:32Z</time>
      </trkpt>
      <trkpt lat="42.71015" lon="2.75919">
        <ele>117</ele>
        <time>2021-03-28T12:20:32Z</time>
      </trkpt>
      <trkpt lat="42.7102" lon="2.75919">
        <ele>117.4</ele>
        <time>2021-03-28T12:20:34Z</time>
      </trkpt>
      <trkpt lat="42.7102" lon="2.75919">
        <ele>117.4</ele>
        <time>2021-03-28T12:20:34Z</time>
      </trkpt>
      <trkpt lat="42.71025" lon="2.75919">
        <ele>117.7</ele>
        <time>2021-03-28T12:20:36Z</time>
      </trkpt>
      <trkpt lat="42.71025" lon="2.75919">
        <ele>117.7</ele>
        <time>2021-03-28T12:20:36Z</time>
      </trkpt>
      <trkpt lat="42.7103" lon="2.75919">
        <ele>117.9</ele>
        <time>2021-03-28T12:20:38Z</time>
      </trkpt>
      <trkpt lat="42.7103" lon="2.75919">
        <ele>117.9</ele>
        <time>2021-03-28T12:20:38Z</time>
      </trkpt>
      <trkpt lat="42.71034" lon="2.75918">
        <ele>118</ele>
        <time>2021-03-28T12:20:39Z</time>
      </trkpt>
      <trkpt lat="42.71034" lon="2.75918">
        <ele>118</ele>
        <time>2021-03-28T12:20:39Z</time>
      </trkpt>
      <trkpt lat="42.71038" lon="2.75918">
        <ele>118</ele>
        <time>2021-03-28T12:20:41Z</time>
      </trkpt>
      <trkpt lat="42.71038" lon="2.75918">
        <ele>118</ele>
        <time>2021-03-28T12:20:41Z</time>
      </trkpt>
      <trkpt lat="42.71043" lon="2.75918">
        <ele>118</ele>
        <time>2021-03-28T12:20:43Z</time>
      </trkpt>
      <trkpt lat="42.71043" lon="2.75918">
        <ele>118</ele>
        <time>2021-03-28T12:20:43Z</time>
      </trkpt>
      <trkpt lat="42.71047" lon="2.75918">
        <ele>118</ele>
        <time>2021-03-28T12:20:44Z</time>
      </trkpt>
      <trkpt lat="42.71047" lon="2.75918">
        <ele>118</ele>
        <time>2021-03-28T12:20:44Z</time>
      </trkpt>
      <trkpt lat="42.71051" lon="2.75917">
        <ele>118</ele>
        <time>2021-03-28T12:20:46Z</time>
      </trkpt>
      <trkpt lat="42.71051" lon="2.75917">
        <ele>118</ele>
        <time>2021-03-28T12:20:46Z</time>
      </trkpt>
      <trkpt lat="42.71056" lon="2.75917">
        <ele>118</ele>
        <time>2021-03-28T12:20:48Z</time>
      </trkpt>
      <trkpt lat="42.71056" lon="2.75917">
        <ele>118</ele>
        <time>2021-03-28T12:20:48Z</time>
      </trkpt>
      <trkpt lat="42.7106" lon="2.75917">
        <ele>118.3</ele>
        <time>2021-03-28T12:20:49Z</time>
      </trkpt>
      <trkpt lat="42.7106" lon="2.75917">
        <ele>118.3</ele>
        <time>2021-03-28T12:20:49Z</time>
      </trkpt>
      <trkpt lat="42.71064" lon="2.75917">
        <ele>118.6</ele>
        <time>2021-03-28T12:20:50Z</time>
      </trkpt>
      <trkpt lat="42.71064" lon="2.75917">
        <ele>118.6</ele>
        <time>2021-03-28T12:20:50Z</time>
      </trkpt>
      <trkpt lat="42.71068" lon="2.75917">
        <ele>118.9</ele>
        <time>2021-03-28T12:20:52Z</time>
      </trkpt>
      <trkpt lat="42.71068" lon="2.75917">
        <ele>118.9</ele>
        <time>2021-03-28T12:20:52Z</time>
      </trkpt>
      <trkpt lat="42.71073" lon="2.75916">
        <ele>119.2</ele>
        <time>2021-03-28T12:20:54Z</time>
      </trkpt>
      <trkpt lat="42.71073" lon="2.75916">
        <ele>119.2</ele>
        <time>2021-03-28T12:20:54Z</time>
      </trkpt>
      <trkpt lat="42.71077" lon="2.75916">
        <ele>119.5</ele>
        <time>2021-03-28T12:20:55Z</time>
      </trkpt>
      <trkpt lat="42.71077" lon="2.75916">
        <ele>119.5</ele>
        <time>2021-03-28T12:20:55Z</time>
      </trkpt>
      <trkpt lat="42.71081" lon="2.75914">
        <ele>119.7</ele>
        <time>2021-03-28T12:20:57Z</time>
      </trkpt>
      <trkpt lat="42.71081" lon="2.75914">
        <ele>119.7</ele>
        <time>2021-03-28T12:20:57Z</time>
      </trkpt>
      <trkpt lat="42.71085" lon="2.75913">
        <ele>119.8</ele>
        <time>2021-03-28T12:20:58Z</time>
      </trkpt>
      <trkpt lat="42.71085" lon="2.75913">
        <ele>119.8</ele>
        <time>2021-03-28T12:20:58Z</time>
      </trkpt>
      <trkpt lat="42.71089" lon="2.75911">
        <ele>119.9</ele>
        <time>2021-03-28T12:21:00Z</time>
      </trkpt>
      <trkpt lat="42.71089" lon="2.75911">
        <ele>119.9</ele>
        <time>2021-03-28T12:21:00Z</time>
      </trkpt>
      <trkpt lat="42.71093" lon="2.75909">
        <ele>120</ele>
        <time>2021-03-28T12:21:01Z</time>
      </trkpt>
      <trkpt lat="42.71093" lon="2.75909">
        <ele>120</ele>
        <time>2021-03-28T12:21:01Z</time>
      </trkpt>
      <trkpt lat="42.71097" lon="2.75906">
        <ele>120.1</ele>
        <time>2021-03-28T12:21:02Z</time>
      </trkpt>
      <trkpt lat="42.71097" lon="2.75906">
        <ele>120.1</ele>
        <time>2021-03-28T12:21:02Z</time>
      </trkpt>
      <trkpt lat="42.71101" lon="2.75903">
        <ele>120.2</ele>
        <time>2021-03-28T12:21:04Z</time>
      </trkpt>
      <trkpt lat="42.71101" lon="2.75903">
        <ele>120.2</ele>
        <time>2021-03-28T12:21:04Z</time>
      </trkpt>
      <trkpt lat="42.71105" lon="2.75899">
        <ele>120.5</ele>
        <time>2021-03-28T12:21:06Z</time>
      </trkpt>
      <trkpt lat="42.71105" lon="2.75899">
        <ele>120.5</ele>
        <time>2021-03-28T12:21:06Z</time>
      </trkpt>
      <trkpt lat="42.71109" lon="2.75894">
        <ele>120.8</ele>
        <time>2021-03-28T12:21:08Z</time>
      </trkpt>
      <trkpt lat="42.71109" lon="2.75894">
        <ele>120.8</ele>
        <time>2021-03-28T12:21:08Z</time>
      </trkpt>
      <trkpt lat="42.71114" lon="2.75889">
        <ele>121.1</ele>
        <time>2021-03-28T12:21:10Z</time>
      </trkpt>
      <trkpt lat="42.71114" lon="2.75889">
        <ele>121.1</ele>
        <time>2021-03-28T12:21:10Z</time>
      </trkpt>
      <trkpt lat="42.71118" lon="2.75884">
        <ele>121.3</ele>
        <time>2021-03-28T12:21:11Z</time>
      </trkpt>
      <trkpt lat="42.71118" lon="2.75884">
        <ele>121.3</ele>
        <time>2021-03-28T12:21:11Z</time>
      </trkpt>
      <trkpt lat="42.71122" lon="2.75879">
        <ele>121.5</ele>
        <time>2021-03-28T12:21:12Z</time>
      </trkpt>
      <trkpt lat="42.71122" lon="2.75879">
        <ele>121.5</ele>
        <time>2021-03-28T12:21:12Z</time>
      </trkpt>
      <trkpt lat="42.71126" lon="2.75875">
        <ele>121.8</ele>
        <time>2021-03-28T12:21:14Z</time>
      </trkpt>
      <trkpt lat="42.71126" lon="2.75875">
        <ele>121.8</ele>
        <time>2021-03-28T12:21:14Z</time>
      </trkpt>
      <trkpt lat="42.71129" lon="2.7587">
        <ele>122.1</ele>
        <time>2021-03-28T12:21:15Z</time>
      </trkpt>
      <trkpt lat="42.71129" lon="2.7587">
        <ele>122.1</ele>
        <time>2021-03-28T12:21:15Z</time>
      </trkpt>
      <trkpt lat="42.71132" lon="2.75866">
        <ele>122.4</ele>
        <time>2021-03-28T12:21:16Z</time>
      </trkpt>
      <trkpt lat="42.71132" lon="2.75866">
        <ele>122.4</ele>
        <time>2021-03-28T12:21:16Z</time>
      </trkpt>
      <trkpt lat="42.71136" lon="2.75861">
        <ele>122.8</ele>
        <time>2021-03-28T12:21:18Z</time>
      </trkpt>
      <trkpt lat="42.71136" lon="2.75861">
        <ele>122.8</ele>
        <time>2021-03-28T12:21:18Z</time>
      </trkpt>
      <trkpt lat="42.71139" lon="2.75856">
        <ele>123</ele>
        <time>2021-03-28T12:21:19Z</time>
      </trkpt>
      <trkpt lat="42.71139" lon="2.75856">
        <ele>123</ele>
        <time>2021-03-28T12:21:19Z</time>
      </trkpt>
      <trkpt lat="42.71144" lon="2.75851">
        <ele>123.2</ele>
        <time>2021-03-28T12:21:21Z</time>
      </trkpt>
      <trkpt lat="42.71144" lon="2.75851">
        <ele>123.2</ele>
        <time>2021-03-28T12:21:21Z</time>
      </trkpt>
      <trkpt lat="42.71148" lon="2.75846">
        <ele>123.3</ele>
        <time>2021-03-28T12:21:22Z</time>
      </trkpt>
      <trkpt lat="42.71148" lon="2.75846">
        <ele>123.3</ele>
        <time>2021-03-28T12:21:22Z</time>
      </trkpt>
      <trkpt lat="42.71152" lon="2.75842">
        <ele>123.5</ele>
        <time>2021-03-28T12:21:24Z</time>
      </trkpt>
      <trkpt lat="42.71152" lon="2.75842">
        <ele>123.5</ele>
        <time>2021-03-28T12:21:24Z</time>
      </trkpt>
      <trkpt lat="42.71157" lon="2.75836">
        <ele>123.6</ele>
        <time>2021-03-28T12:21:26Z</time>
      </trkpt>
      <trkpt lat="42.71157" lon="2.75836">
        <ele>123.6</ele>
        <time>2021-03-28T12:21:26Z</time>
      </trkpt>
      <trkpt lat="42.71162" lon="2.75831">
        <ele>123.9</ele>
        <time>2021-03-28T12:21:28Z</time>
      </trkpt>
      <trkpt lat="42.71162" lon="2.75831">
        <ele>123.9</ele>
        <time>2021-03-28T12:21:28Z</time>
      </trkpt>
      <trkpt lat="42.71167" lon="2.75825">
        <ele>124.3</ele>
        <time>2021-03-28T12:21:30Z</time>
      </trkpt>
      <trkpt lat="42.71167" lon="2.75825">
        <ele>124.3</ele>
        <time>2021-03-28T12:21:30Z</time>
      </trkpt>
      <trkpt lat="42.71173" lon="2.75818">
        <ele>124.9</ele>
        <time>2021-03-28T12:21:32Z</time>
      </trkpt>
      <trkpt lat="42.71173" lon="2.75818">
        <ele>124.9</ele>
        <time>2021-03-28T12:21:32Z</time>
      </trkpt>
      <trkpt lat="42.71178" lon="2.75811">
        <ele>125.3</ele>
        <time>2021-03-28T12:21:34Z</time>
      </trkpt>
      <trkpt lat="42.71178" lon="2.75811">
        <ele>125.3</ele>
        <time>2021-03-28T12:21:34Z</time>
      </trkpt>
      <trkpt lat="42.71183" lon="2.75805">
        <ele>125.6</ele>
        <time>2021-03-28T12:21:35Z</time>
      </trkpt>
      <trkpt lat="42.71183" lon="2.75805">
        <ele>125.6</ele>
        <time>2021-03-28T12:21:35Z</time>
      </trkpt>
      <trkpt lat="42.71188" lon="2.75799">
        <ele>126</ele>
        <time>2021-03-28T12:21:37Z</time>
      </trkpt>
      <trkpt lat="42.71188" lon="2.75799">
        <ele>126</ele>
        <time>2021-03-28T12:21:37Z</time>
      </trkpt>
      <trkpt lat="42.71194" lon="2.75793">
        <ele>126.4</ele>
        <time>2021-03-28T12:21:39Z</time>
      </trkpt>
      <trkpt lat="42.71194" lon="2.75793">
        <ele>126.4</ele>
        <time>2021-03-28T12:21:39Z</time>
      </trkpt>
      <trkpt lat="42.71199" lon="2.75787">
        <ele>126.8</ele>
        <time>2021-03-28T12:21:41Z</time>
      </trkpt>
      <trkpt lat="42.71199" lon="2.75787">
        <ele>126.8</ele>
        <time>2021-03-28T12:21:41Z</time>
      </trkpt>
      <trkpt lat="42.71205" lon="2.75781">
        <ele>127.3</ele>
        <time>2021-03-28T12:21:43Z</time>
      </trkpt>
      <trkpt lat="42.71205" lon="2.75781">
        <ele>127.3</ele>
        <time>2021-03-28T12:21:43Z</time>
      </trkpt>
      <trkpt lat="42.71209" lon="2.75777">
        <ele>127.5</ele>
        <time>2021-03-28T12:21:44Z</time>
      </trkpt>
      <trkpt lat="42.71209" lon="2.75777">
        <ele>127.5</ele>
        <time>2021-03-28T12:21:44Z</time>
      </trkpt>
      <trkpt lat="42.71214" lon="2.75773">
        <ele>127.7</ele>
        <time>2021-03-28T12:21:46Z</time>
      </trkpt>
      <trkpt lat="42.71214" lon="2.75773">
        <ele>127.7</ele>
        <time>2021-03-28T12:21:46Z</time>
      </trkpt>
      <trkpt lat="42.71219" lon="2.7577">
        <ele>127.9</ele>
        <time>2021-03-28T12:21:48Z</time>
      </trkpt>
      <trkpt lat="42.71219" lon="2.7577">
        <ele>127.9</ele>
        <time>2021-03-28T12:21:48Z</time>
      </trkpt>
      <trkpt lat="42.71224" lon="2.75767">
        <ele>128</ele>
        <time>2021-03-28T12:21:50Z</time>
      </trkpt>
      <trkpt lat="42.71224" lon="2.75767">
        <ele>128</ele>
        <time>2021-03-28T12:21:50Z</time>
      </trkpt>
      <trkpt lat="42.71228" lon="2.75765">
        <ele>128</ele>
        <time>2021-03-28T12:21:51Z</time>
      </trkpt>
      <trkpt lat="42.71228" lon="2.75765">
        <ele>128</ele>
        <time>2021-03-28T12:21:51Z</time>
      </trkpt>
      <trkpt lat="42.71232" lon="2.75762">
        <ele>128</ele>
        <time>2021-03-28T12:21:53Z</time>
      </trkpt>
      <trkpt lat="42.71232" lon="2.75762">
        <ele>128</ele>
        <time>2021-03-28T12:21:53Z</time>
      </trkpt>
      <trkpt lat="42.71237" lon="2.7576">
        <ele>128</ele>
        <time>2021-03-28T12:21:55Z</time>
      </trkpt>
      <trkpt lat="42.71237" lon="2.7576">
        <ele>128</ele>
        <time>2021-03-28T12:21:55Z</time>
      </trkpt>
      <trkpt lat="42.71243" lon="2.75756">
        <ele>128</ele>
        <time>2021-03-28T12:21:57Z</time>
      </trkpt>
      <trkpt lat="42.71243" lon="2.75756">
        <ele>128</ele>
        <time>2021-03-28T12:21:57Z</time>
      </trkpt>
      <trkpt lat="42.71248" lon="2.75753">
        <ele>128</ele>
        <time>2021-03-28T12:21:58Z</time>
      </trkpt>
      <trkpt lat="42.71248" lon="2.75753">
        <ele>128</ele>
        <time>2021-03-28T12:21:58Z</time>
      </trkpt>
      <trkpt lat="42.71253" lon="2.75749">
        <ele>128</ele>
        <time>2021-03-28T12:22:00Z</time>
      </trkpt>
      <trkpt lat="42.71253" lon="2.75749">
        <ele>128</ele>
        <time>2021-03-28T12:22:00Z</time>
      </trkpt>
      <trkpt lat="42.71259" lon="2.75744">
        <ele>128</ele>
        <time>2021-03-28T12:22:02Z</time>
      </trkpt>
      <trkpt lat="42.71259" lon="2.75744">
        <ele>128</ele>
        <time>2021-03-28T12:22:02Z</time>
      </trkpt>
      <trkpt lat="42.71264" lon="2.7574">
        <ele>128</ele>
        <time>2021-03-28T12:22:03Z</time>
      </trkpt>
      <trkpt lat="42.71264" lon="2.7574">
        <ele>128</ele>
        <time>2021-03-28T12:22:03Z</time>
      </trkpt>
      <trkpt lat="42.7127" lon="2.75734">
        <ele>128</ele>
        <time>2021-03-28T12:22:05Z</time>
      </trkpt>
      <trkpt lat="42.7127" lon="2.75734">
        <ele>128</ele>
        <time>2021-03-28T12:22:05Z</time>
      </trkpt>
      <trkpt lat="42.71276" lon="2.75728">
        <ele>128</ele>
        <time>2021-03-28T12:22:07Z</time>
      </trkpt>
      <trkpt lat="42.71276" lon="2.75728">
        <ele>128</ele>
        <time>2021-03-28T12:22:07Z</time>
      </trkpt>
      <trkpt lat="42.71282" lon="2.75722">
        <ele>127.9</ele>
        <time>2021-03-28T12:22:08Z</time>
      </trkpt>
      <trkpt lat="42.71282" lon="2.75722">
        <ele>127.9</ele>
        <time>2021-03-28T12:22:08Z</time>
      </trkpt>
      <trkpt lat="42.71288" lon="2.75714">
        <ele>127.6</ele>
        <time>2021-03-28T12:22:10Z</time>
      </trkpt>
      <trkpt lat="42.71288" lon="2.75714">
        <ele>127.6</ele>
        <time>2021-03-28T12:22:10Z</time>
      </trkpt>
      <trkpt lat="42.71295" lon="2.75706">
        <ele>127.4</ele>
        <time>2021-03-28T12:22:12Z</time>
      </trkpt>
      <trkpt lat="42.71295" lon="2.75706">
        <ele>127.4</ele>
        <time>2021-03-28T12:22:12Z</time>
      </trkpt>
      <trkpt lat="42.71302" lon="2.75696">
        <ele>127.1</ele>
        <time>2021-03-28T12:22:14Z</time>
      </trkpt>
      <trkpt lat="42.71302" lon="2.75696">
        <ele>127.1</ele>
        <time>2021-03-28T12:22:14Z</time>
      </trkpt>
      <trkpt lat="42.7131" lon="2.75686">
        <ele>127</ele>
        <time>2021-03-28T12:22:16Z</time>
      </trkpt>
      <trkpt lat="42.7131" lon="2.75686">
        <ele>127</ele>
        <time>2021-03-28T12:22:16Z</time>
      </trkpt>
      <trkpt lat="42.71317" lon="2.75677">
        <ele>127</ele>
        <time>2021-03-28T12:22:17Z</time>
      </trkpt>
      <trkpt lat="42.71317" lon="2.75677">
        <ele>127</ele>
        <time>2021-03-28T12:22:17Z</time>
      </trkpt>
      <trkpt lat="42.71324" lon="2.75669">
        <ele>127</ele>
        <time>2021-03-28T12:22:19Z</time>
      </trkpt>
      <trkpt lat="42.71324" lon="2.75669">
        <ele>127</ele>
        <time>2021-03-28T12:22:19Z</time>
      </trkpt>
      <trkpt lat="42.7133" lon="2.75661">
        <ele>127</ele>
        <time>2021-03-28T12:22:20Z</time>
      </trkpt>
      <trkpt lat="42.7133" lon="2.75661">
        <ele>127</ele>
        <time>2021-03-28T12:22:20Z</time>
      </trkpt>
      <trkpt lat="42.71334" lon="2.75654">
        <ele>127</ele>
        <time>2021-03-28T12:22:21Z</time>
      </trkpt>
      <trkpt lat="42.71334" lon="2.75654">
        <ele>127</ele>
        <time>2021-03-28T12:22:21Z</time>
      </trkpt>
      <trkpt lat="42.7134" lon="2.75646">
        <ele>127</ele>
        <time>2021-03-28T12:22:23Z</time>
      </trkpt>
      <trkpt lat="42.7134" lon="2.75646">
        <ele>127</ele>
        <time>2021-03-28T12:22:23Z</time>
      </trkpt>
      <trkpt lat="42.71345" lon="2.75638">
        <ele>127</ele>
        <time>2021-03-28T12:22:24Z</time>
      </trkpt>
      <trkpt lat="42.71345" lon="2.75638">
        <ele>127</ele>
        <time>2021-03-28T12:22:24Z</time>
      </trkpt>
      <trkpt lat="42.71349" lon="2.75631">
        <ele>127</ele>
        <time>2021-03-28T12:22:25Z</time>
      </trkpt>
      <trkpt lat="42.71349" lon="2.75631">
        <ele>127</ele>
        <time>2021-03-28T12:22:25Z</time>
      </trkpt>
      <trkpt lat="42.71354" lon="2.75621">
        <ele>127</ele>
        <time>2021-03-28T12:22:27Z</time>
      </trkpt>
      <trkpt lat="42.71354" lon="2.75621">
        <ele>127</ele>
        <time>2021-03-28T12:22:27Z</time>
      </trkpt>
      <trkpt lat="42.71357" lon="2.75612">
        <ele>127</ele>
        <time>2021-03-28T12:22:28Z</time>
      </trkpt>
      <trkpt lat="42.71357" lon="2.75612">
        <ele>127</ele>
        <time>2021-03-28T12:22:28Z</time>
      </trkpt>
      <trkpt lat="42.71361" lon="2.75604">
        <ele>127.3</ele>
        <time>2021-03-28T12:22:29Z</time>
      </trkpt>
      <trkpt lat="42.71361" lon="2.75604">
        <ele>127.3</ele>
        <time>2021-03-28T12:22:29Z</time>
      </trkpt>
      <trkpt lat="42.71365" lon="2.75594">
        <ele>127.5</ele>
        <time>2021-03-28T12:22:31Z</time>
      </trkpt>
      <trkpt lat="42.71365" lon="2.75594">
        <ele>127.5</ele>
        <time>2021-03-28T12:22:31Z</time>
      </trkpt>
      <trkpt lat="42.7137" lon="2.75582">
        <ele>127.7</ele>
        <time>2021-03-28T12:22:33Z</time>
      </trkpt>
      <trkpt lat="42.7137" lon="2.75582">
        <ele>127.7</ele>
        <time>2021-03-28T12:22:33Z</time>
      </trkpt>
      <trkpt lat="42.71374" lon="2.7557">
        <ele>127.5</ele>
        <time>2021-03-28T12:22:35Z</time>
      </trkpt>
      <trkpt lat="42.71374" lon="2.7557">
        <ele>127.5</ele>
        <time>2021-03-28T12:22:35Z</time>
      </trkpt>
      <trkpt lat="42.71378" lon="2.75556">
        <ele>127.4</ele>
        <time>2021-03-28T12:22:37Z</time>
      </trkpt>
      <trkpt lat="42.71378" lon="2.75556">
        <ele>127.4</ele>
        <time>2021-03-28T12:22:37Z</time>
      </trkpt>
      <trkpt lat="42.71382" lon="2.75544">
        <ele>127.3</ele>
        <time>2021-03-28T12:22:38Z</time>
      </trkpt>
      <trkpt lat="42.71382" lon="2.75544">
        <ele>127.3</ele>
        <time>2021-03-28T12:22:38Z</time>
      </trkpt>
      <trkpt lat="42.71386" lon="2.75532">
        <ele>127.1</ele>
        <time>2021-03-28T12:22:40Z</time>
      </trkpt>
      <trkpt lat="42.71386" lon="2.75532">
        <ele>127.1</ele>
        <time>2021-03-28T12:22:40Z</time>
      </trkpt>
      <trkpt lat="42.7139" lon="2.75521">
        <ele>127.2</ele>
        <time>2021-03-28T12:22:41Z</time>
      </trkpt>
      <trkpt lat="42.7139" lon="2.75521">
        <ele>127.2</ele>
        <time>2021-03-28T12:22:41Z</time>
      </trkpt>
      <trkpt lat="42.71394" lon="2.7551">
        <ele>127.6</ele>
        <time>2021-03-28T12:22:43Z</time>
      </trkpt>
      <trkpt lat="42.71394" lon="2.7551">
        <ele>127.6</ele>
        <time>2021-03-28T12:22:43Z</time>
      </trkpt>
      <trkpt lat="42.71398" lon="2.75498">
        <ele>128</ele>
        <time>2021-03-28T12:22:45Z</time>
      </trkpt>
      <trkpt lat="42.71398" lon="2.75498">
        <ele>128</ele>
        <time>2021-03-28T12:22:45Z</time>
      </trkpt>
      <trkpt lat="42.71401" lon="2.75487">
        <ele>128</ele>
        <time>2021-03-28T12:22:46Z</time>
      </trkpt>
      <trkpt lat="42.71401" lon="2.75487">
        <ele>128</ele>
        <time>2021-03-28T12:22:46Z</time>
      </trkpt>
      <trkpt lat="42.71405" lon="2.75476">
        <ele>128</ele>
        <time>2021-03-28T12:22:48Z</time>
      </trkpt>
      <trkpt lat="42.71405" lon="2.75476">
        <ele>128</ele>
        <time>2021-03-28T12:22:48Z</time>
      </trkpt>
      <trkpt lat="42.7141" lon="2.75463">
        <ele>128</ele>
        <time>2021-03-28T12:22:50Z</time>
      </trkpt>
      <trkpt lat="42.7141" lon="2.75463">
        <ele>128</ele>
        <time>2021-03-28T12:22:50Z</time>
      </trkpt>
      <trkpt lat="42.71413" lon="2.75452">
        <ele>128</ele>
        <time>2021-03-28T12:22:51Z</time>
      </trkpt>
      <trkpt lat="42.71413" lon="2.75452">
        <ele>128</ele>
        <time>2021-03-28T12:22:51Z</time>
      </trkpt>
      <trkpt lat="42.71417" lon="2.75442">
        <ele>128.1</ele>
        <time>2021-03-28T12:22:53Z</time>
      </trkpt>
      <trkpt lat="42.71417" lon="2.75442">
        <ele>128.1</ele>
        <time>2021-03-28T12:22:53Z</time>
      </trkpt>
      <trkpt lat="42.71422" lon="2.75431">
        <ele>128.5</ele>
        <time>2021-03-28T12:22:55Z</time>
      </trkpt>
      <trkpt lat="42.71422" lon="2.75431">
        <ele>128.5</ele>
        <time>2021-03-28T12:22:55Z</time>
      </trkpt>
      <trkpt lat="42.71426" lon="2.75422">
        <ele>128.8</ele>
        <time>2021-03-28T12:22:56Z</time>
      </trkpt>
      <trkpt lat="42.71426" lon="2.75422">
        <ele>128.8</ele>
        <time>2021-03-28T12:22:56Z</time>
      </trkpt>
      <trkpt lat="42.71429" lon="2.75413">
        <ele>129</ele>
        <time>2021-03-28T12:22:57Z</time>
      </trkpt>
      <trkpt lat="42.71429" lon="2.75413">
        <ele>129</ele>
        <time>2021-03-28T12:22:57Z</time>
      </trkpt>
      <trkpt lat="42.71434" lon="2.75404">
        <ele>129</ele>
        <time>2021-03-28T12:22:59Z</time>
      </trkpt>
      <trkpt lat="42.71434" lon="2.75404">
        <ele>129</ele>
        <time>2021-03-28T12:22:59Z</time>
      </trkpt>
      <trkpt lat="42.7144" lon="2.75393">
        <ele>129</ele>
        <time>2021-03-28T12:23:01Z</time>
      </trkpt>
      <trkpt lat="42.7144" lon="2.75393">
        <ele>129</ele>
        <time>2021-03-28T12:23:01Z</time>
      </trkpt>
      <trkpt lat="42.71446" lon="2.75382">
        <ele>129</ele>
        <time>2021-03-28T12:23:03Z</time>
      </trkpt>
      <trkpt lat="42.71446" lon="2.75382">
        <ele>129</ele>
        <time>2021-03-28T12:23:03Z</time>
      </trkpt>
      <trkpt lat="42.71452" lon="2.75372">
        <ele>129</ele>
        <time>2021-03-28T12:23:04Z</time>
      </trkpt>
      <trkpt lat="42.71452" lon="2.75372">
        <ele>129</ele>
        <time>2021-03-28T12:23:04Z</time>
      </trkpt>
      <trkpt lat="42.71458" lon="2.75362">
        <ele>129</ele>
        <time>2021-03-28T12:23:06Z</time>
      </trkpt>
      <trkpt lat="42.71458" lon="2.75362">
        <ele>129</ele>
        <time>2021-03-28T12:23:06Z</time>
      </trkpt>
      <trkpt lat="42.71465" lon="2.75354">
        <ele>129.1</ele>
        <time>2021-03-28T12:23:07Z</time>
      </trkpt>
      <trkpt lat="42.71465" lon="2.75354">
        <ele>129.1</ele>
        <time>2021-03-28T12:23:07Z</time>
      </trkpt>
      <trkpt lat="42.7147" lon="2.75344">
        <ele>129</ele>
        <time>2021-03-28T12:23:09Z</time>
      </trkpt>
      <trkpt lat="42.7147" lon="2.75344">
        <ele>129</ele>
        <time>2021-03-28T12:23:09Z</time>
      </trkpt>
      <trkpt lat="42.71476" lon="2.75334">
        <ele>129.1</ele>
        <time>2021-03-28T12:23:11Z</time>
      </trkpt>
      <trkpt lat="42.71476" lon="2.75334">
        <ele>129.1</ele>
        <time>2021-03-28T12:23:11Z</time>
      </trkpt>
      <trkpt lat="42.71482" lon="2.75326">
        <ele>129.5</ele>
        <time>2021-03-28T12:23:12Z</time>
      </trkpt>
      <trkpt lat="42.71482" lon="2.75326">
        <ele>129.5</ele>
        <time>2021-03-28T12:23:12Z</time>
      </trkpt>
      <trkpt lat="42.71488" lon="2.75318">
        <ele>129.8</ele>
        <time>2021-03-28T12:23:14Z</time>
      </trkpt>
      <trkpt lat="42.71488" lon="2.75318">
        <ele>129.8</ele>
        <time>2021-03-28T12:23:14Z</time>
      </trkpt>
      <trkpt lat="42.71493" lon="2.75311">
        <ele>130</ele>
        <time>2021-03-28T12:23:15Z</time>
      </trkpt>
      <trkpt lat="42.71493" lon="2.75311">
        <ele>130</ele>
        <time>2021-03-28T12:23:15Z</time>
      </trkpt>
      <trkpt lat="42.71499" lon="2.75303">
        <ele>130</ele>
        <time>2021-03-28T12:23:17Z</time>
      </trkpt>
      <trkpt lat="42.71499" lon="2.75303">
        <ele>130</ele>
        <time>2021-03-28T12:23:17Z</time>
      </trkpt>
      <trkpt lat="42.71506" lon="2.75295">
        <ele>130</ele>
        <time>2021-03-28T12:23:19Z</time>
      </trkpt>
      <trkpt lat="42.71506" lon="2.75295">
        <ele>130</ele>
        <time>2021-03-28T12:23:19Z</time>
      </trkpt>
      <trkpt lat="42.71511" lon="2.75286">
        <ele>130</ele>
        <time>2021-03-28T12:23:21Z</time>
      </trkpt>
      <trkpt lat="42.71511" lon="2.75286">
        <ele>130</ele>
        <time>2021-03-28T12:23:21Z</time>
      </trkpt>
      <trkpt lat="42.71517" lon="2.75277">
        <ele>130</ele>
        <time>2021-03-28T12:23:23Z</time>
      </trkpt>
      <trkpt lat="42.71517" lon="2.75277">
        <ele>130</ele>
        <time>2021-03-28T12:23:23Z</time>
      </trkpt>
      <trkpt lat="42.71524" lon="2.75269">
        <ele>130</ele>
        <time>2021-03-28T12:23:25Z</time>
      </trkpt>
      <trkpt lat="42.71524" lon="2.75269">
        <ele>130</ele>
        <time>2021-03-28T12:23:25Z</time>
      </trkpt>
      <trkpt lat="42.71529" lon="2.75263">
        <ele>130</ele>
        <time>2021-03-28T12:23:26Z</time>
      </trkpt>
      <trkpt lat="42.71529" lon="2.75263">
        <ele>130</ele>
        <time>2021-03-28T12:23:26Z</time>
      </trkpt>
      <trkpt lat="42.71534" lon="2.75257">
        <ele>130</ele>
        <time>2021-03-28T12:23:27Z</time>
      </trkpt>
      <trkpt lat="42.71534" lon="2.75257">
        <ele>130</ele>
        <time>2021-03-28T12:23:27Z</time>
      </trkpt>
      <trkpt lat="42.71538" lon="2.75251">
        <ele>130</ele>
        <time>2021-03-28T12:23:28Z</time>
      </trkpt>
      <trkpt lat="42.71538" lon="2.75251">
        <ele>130</ele>
        <time>2021-03-28T12:23:28Z</time>
      </trkpt>
      <trkpt lat="42.71543" lon="2.75244">
        <ele>130</ele>
        <time>2021-03-28T12:23:30Z</time>
      </trkpt>
      <trkpt lat="42.71543" lon="2.75244">
        <ele>130</ele>
        <time>2021-03-28T12:23:30Z</time>
      </trkpt>
      <trkpt lat="42.71548" lon="2.75238">
        <ele>130</ele>
        <time>2021-03-28T12:23:31Z</time>
      </trkpt>
      <trkpt lat="42.71548" lon="2.75238">
        <ele>130</ele>
        <time>2021-03-28T12:23:31Z</time>
      </trkpt>
      <trkpt lat="42.71553" lon="2.75232">
        <ele>130</ele>
        <time>2021-03-28T12:23:33Z</time>
      </trkpt>
      <trkpt lat="42.71553" lon="2.75232">
        <ele>130</ele>
        <time>2021-03-28T12:23:33Z</time>
      </trkpt>
      <trkpt lat="42.71558" lon="2.75225">
        <ele>130.1</ele>
        <time>2021-03-28T12:23:35Z</time>
      </trkpt>
      <trkpt lat="42.71558" lon="2.75225">
        <ele>130.1</ele>
        <time>2021-03-28T12:23:35Z</time>
      </trkpt>
      <trkpt lat="42.71562" lon="2.7522">
        <ele>130.3</ele>
        <time>2021-03-28T12:23:36Z</time>
      </trkpt>
      <trkpt lat="42.71562" lon="2.7522">
        <ele>130.3</ele>
        <time>2021-03-28T12:23:36Z</time>
      </trkpt>
      <trkpt lat="42.71567" lon="2.75214">
        <ele>130.6</ele>
        <time>2021-03-28T12:23:38Z</time>
      </trkpt>
      <trkpt lat="42.71567" lon="2.75214">
        <ele>130.6</ele>
        <time>2021-03-28T12:23:38Z</time>
      </trkpt>
      <trkpt lat="42.71572" lon="2.75208">
        <ele>130.8</ele>
        <time>2021-03-28T12:23:39Z</time>
      </trkpt>
      <trkpt lat="42.71572" lon="2.75208">
        <ele>130.8</ele>
        <time>2021-03-28T12:23:39Z</time>
      </trkpt>
      <trkpt lat="42.71577" lon="2.75203">
        <ele>130.9</ele>
        <time>2021-03-28T12:23:41Z</time>
      </trkpt>
      <trkpt lat="42.71577" lon="2.75203">
        <ele>130.9</ele>
        <time>2021-03-28T12:23:41Z</time>
      </trkpt>
      <trkpt lat="42.71584" lon="2.75197">
        <ele>131</ele>
        <time>2021-03-28T12:23:43Z</time>
      </trkpt>
      <trkpt lat="42.71584" lon="2.75197">
        <ele>131</ele>
        <time>2021-03-28T12:23:43Z</time>
      </trkpt>
      <trkpt lat="42.71591" lon="2.75191">
        <ele>131</ele>
        <time>2021-03-28T12:23:45Z</time>
      </trkpt>
      <trkpt lat="42.71591" lon="2.75191">
        <ele>131</ele>
        <time>2021-03-28T12:23:45Z</time>
      </trkpt>
      <trkpt lat="42.71597" lon="2.75186">
        <ele>131</ele>
        <time>2021-03-28T12:23:46Z</time>
      </trkpt>
      <trkpt lat="42.71597" lon="2.75186">
        <ele>131</ele>
        <time>2021-03-28T12:23:46Z</time>
      </trkpt>
      <trkpt lat="42.71604" lon="2.75179">
        <ele>131</ele>
        <time>2021-03-28T12:23:48Z</time>
      </trkpt>
      <trkpt lat="42.71604" lon="2.75179">
        <ele>131</ele>
        <time>2021-03-28T12:23:48Z</time>
      </trkpt>
      <trkpt lat="42.71611" lon="2.75172">
        <ele>131</ele>
        <time>2021-03-28T12:23:50Z</time>
      </trkpt>
      <trkpt lat="42.71611" lon="2.75172">
        <ele>131</ele>
        <time>2021-03-28T12:23:50Z</time>
      </trkpt>
      <trkpt lat="42.71616" lon="2.75166">
        <ele>131</ele>
        <time>2021-03-28T12:23:51Z</time>
      </trkpt>
      <trkpt lat="42.71616" lon="2.75166">
        <ele>131</ele>
        <time>2021-03-28T12:23:51Z</time>
      </trkpt>
      <trkpt lat="42.71622" lon="2.75161">
        <ele>131</ele>
        <time>2021-03-28T12:23:52Z</time>
      </trkpt>
      <trkpt lat="42.71622" lon="2.75161">
        <ele>131</ele>
        <time>2021-03-28T12:23:52Z</time>
      </trkpt>
      <trkpt lat="42.71628" lon="2.75155">
        <ele>131</ele>
        <time>2021-03-28T12:23:54Z</time>
      </trkpt>
      <trkpt lat="42.71628" lon="2.75155">
        <ele>131</ele>
        <time>2021-03-28T12:23:54Z</time>
      </trkpt>
      <trkpt lat="42.71634" lon="2.75149">
        <ele>131</ele>
        <time>2021-03-28T12:23:55Z</time>
      </trkpt>
      <trkpt lat="42.71634" lon="2.75149">
        <ele>131</ele>
        <time>2021-03-28T12:23:55Z</time>
      </trkpt>
      <trkpt lat="42.7164" lon="2.75143">
        <ele>131</ele>
        <time>2021-03-28T12:23:57Z</time>
      </trkpt>
      <trkpt lat="42.7164" lon="2.75143">
        <ele>131</ele>
        <time>2021-03-28T12:23:57Z</time>
      </trkpt>
      <trkpt lat="42.71646" lon="2.75139">
        <ele>131</ele>
        <time>2021-03-28T12:23:58Z</time>
      </trkpt>
      <trkpt lat="42.71646" lon="2.75139">
        <ele>131</ele>
        <time>2021-03-28T12:23:58Z</time>
      </trkpt>
      <trkpt lat="42.71653" lon="2.75133">
        <ele>131</ele>
        <time>2021-03-28T12:24:00Z</time>
      </trkpt>
      <trkpt lat="42.71653" lon="2.75133">
        <ele>131</ele>
        <time>2021-03-28T12:24:00Z</time>
      </trkpt>
      <trkpt lat="42.7166" lon="2.75127">
        <ele>131</ele>
        <time>2021-03-28T12:24:02Z</time>
      </trkpt>
      <trkpt lat="42.7166" lon="2.75127">
        <ele>131</ele>
        <time>2021-03-28T12:24:02Z</time>
      </trkpt>
      <trkpt lat="42.71668" lon="2.75121">
        <ele>131</ele>
        <time>2021-03-28T12:24:04Z</time>
      </trkpt>
      <trkpt lat="42.71668" lon="2.75121">
        <ele>131</ele>
        <time>2021-03-28T12:24:04Z</time>
      </trkpt>
      <trkpt lat="42.71675" lon="2.75114">
        <ele>131</ele>
        <time>2021-03-28T12:24:06Z</time>
      </trkpt>
      <trkpt lat="42.71675" lon="2.75114">
        <ele>131</ele>
        <time>2021-03-28T12:24:06Z</time>
      </trkpt>
      <trkpt lat="42.71681" lon="2.75107">
        <ele>131</ele>
        <time>2021-03-28T12:24:07Z</time>
      </trkpt>
      <trkpt lat="42.71681" lon="2.75107">
        <ele>131</ele>
        <time>2021-03-28T12:24:07Z</time>
      </trkpt>
      <trkpt lat="42.71687" lon="2.751">
        <ele>131</ele>
        <time>2021-03-28T12:24:09Z</time>
      </trkpt>
      <trkpt lat="42.71687" lon="2.751">
        <ele>131</ele>
        <time>2021-03-28T12:24:09Z</time>
      </trkpt>
      <trkpt lat="42.71692" lon="2.75093">
        <ele>131</ele>
        <time>2021-03-28T12:24:10Z</time>
      </trkpt>
      <trkpt lat="42.71692" lon="2.75093">
        <ele>131</ele>
        <time>2021-03-28T12:24:10Z</time>
      </trkpt>
      <trkpt lat="42.71699" lon="2.75086">
        <ele>131</ele>
        <time>2021-03-28T12:24:12Z</time>
      </trkpt>
      <trkpt lat="42.71699" lon="2.75086">
        <ele>131</ele>
        <time>2021-03-28T12:24:12Z</time>
      </trkpt>
      <trkpt lat="42.71704" lon="2.7508">
        <ele>131</ele>
        <time>2021-03-28T12:24:13Z</time>
      </trkpt>
      <trkpt lat="42.71704" lon="2.7508">
        <ele>131</ele>
        <time>2021-03-28T12:24:13Z</time>
      </trkpt>
      <trkpt lat="42.71711" lon="2.75072">
        <ele>131</ele>
        <time>2021-03-28T12:24:15Z</time>
      </trkpt>
      <trkpt lat="42.71711" lon="2.75072">
        <ele>131</ele>
        <time>2021-03-28T12:24:15Z</time>
      </trkpt>
      <trkpt lat="42.71718" lon="2.75063">
        <ele>131</ele>
        <time>2021-03-28T12:24:17Z</time>
      </trkpt>
      <trkpt lat="42.71718" lon="2.75063">
        <ele>131</ele>
        <time>2021-03-28T12:24:17Z</time>
      </trkpt>
      <trkpt lat="42.71726" lon="2.75054">
        <ele>131.1</ele>
        <time>2021-03-28T12:24:19Z</time>
      </trkpt>
      <trkpt lat="42.71726" lon="2.75054">
        <ele>131.1</ele>
        <time>2021-03-28T12:24:19Z</time>
      </trkpt>
      <trkpt lat="42.71733" lon="2.75046">
        <ele>131.2</ele>
        <time>2021-03-28T12:24:20Z</time>
      </trkpt>
      <trkpt lat="42.71733" lon="2.75046">
        <ele>131.2</ele>
        <time>2021-03-28T12:24:20Z</time>
      </trkpt>
      <trkpt lat="42.7174" lon="2.75037">
        <ele>131.3</ele>
        <time>2021-03-28T12:24:22Z</time>
      </trkpt>
      <trkpt lat="42.7174" lon="2.75037">
        <ele>131.3</ele>
        <time>2021-03-28T12:24:22Z</time>
      </trkpt>
      <trkpt lat="42.71747" lon="2.75028">
        <ele>131.1</ele>
        <time>2021-03-28T12:24:24Z</time>
      </trkpt>
      <trkpt lat="42.71747" lon="2.75028">
        <ele>131.1</ele>
        <time>2021-03-28T12:24:24Z</time>
      </trkpt>
      <trkpt lat="42.71753" lon="2.7502">
        <ele>131</ele>
        <time>2021-03-28T12:24:25Z</time>
      </trkpt>
      <trkpt lat="42.71753" lon="2.7502">
        <ele>131</ele>
        <time>2021-03-28T12:24:25Z</time>
      </trkpt>
      <trkpt lat="42.71758" lon="2.75014">
        <ele>131</ele>
        <time>2021-03-28T12:24:26Z</time>
      </trkpt>
      <trkpt lat="42.71758" lon="2.75014">
        <ele>131</ele>
        <time>2021-03-28T12:24:26Z</time>
      </trkpt>
      <trkpt lat="42.71763" lon="2.75009">
        <ele>131</ele>
        <time>2021-03-28T12:24:27Z</time>
      </trkpt>
      <trkpt lat="42.71763" lon="2.75009">
        <ele>131</ele>
        <time>2021-03-28T12:24:27Z</time>
      </trkpt>
      <trkpt lat="42.71768" lon="2.75002">
        <ele>131</ele>
        <time>2021-03-28T12:24:29Z</time>
      </trkpt>
      <trkpt lat="42.71768" lon="2.75002">
        <ele>131</ele>
        <time>2021-03-28T12:24:29Z</time>
      </trkpt>
      <trkpt lat="42.71775" lon="2.74995">
        <ele>131</ele>
        <time>2021-03-28T12:24:31Z</time>
      </trkpt>
      <trkpt lat="42.71775" lon="2.74995">
        <ele>131</ele>
        <time>2021-03-28T12:24:31Z</time>
      </trkpt>
      <trkpt lat="42.71781" lon="2.74986">
        <ele>131</ele>
        <time>2021-03-28T12:24:33Z</time>
      </trkpt>
      <trkpt lat="42.71781" lon="2.74986">
        <ele>131</ele>
        <time>2021-03-28T12:24:33Z</time>
      </trkpt>
      <trkpt lat="42.71788" lon="2.74976">
        <ele>131</ele>
        <time>2021-03-28T12:24:35Z</time>
      </trkpt>
      <trkpt lat="42.71788" lon="2.74976">
        <ele>131</ele>
        <time>2021-03-28T12:24:35Z</time>
      </trkpt>
      <trkpt lat="42.71795" lon="2.74966">
        <ele>131.2</ele>
        <time>2021-03-28T12:24:37Z</time>
      </trkpt>
      <trkpt lat="42.71795" lon="2.74966">
        <ele>131.2</ele>
        <time>2021-03-28T12:24:37Z</time>
      </trkpt>
      <trkpt lat="42.71801" lon="2.74958">
        <ele>131.5</ele>
        <time>2021-03-28T12:24:38Z</time>
      </trkpt>
      <trkpt lat="42.71801" lon="2.74958">
        <ele>131.5</ele>
        <time>2021-03-28T12:24:38Z</time>
      </trkpt>
      <trkpt lat="42.71807" lon="2.74948">
        <ele>131.8</ele>
        <time>2021-03-28T12:24:40Z</time>
      </trkpt>
      <trkpt lat="42.71807" lon="2.74948">
        <ele>131.8</ele>
        <time>2021-03-28T12:24:40Z</time>
      </trkpt>
      <trkpt lat="42.71812" lon="2.7494">
        <ele>131.8</ele>
        <time>2021-03-28T12:24:41Z</time>
      </trkpt>
      <trkpt lat="42.71812" lon="2.7494">
        <ele>131.8</ele>
        <time>2021-03-28T12:24:41Z</time>
      </trkpt>
      <trkpt lat="42.71816" lon="2.74934">
        <ele>131.8</ele>
        <time>2021-03-28T12:24:42Z</time>
      </trkpt>
      <trkpt lat="42.71816" lon="2.74934">
        <ele>131.8</ele>
        <time>2021-03-28T12:24:42Z</time>
      </trkpt>
      <trkpt lat="42.71821" lon="2.74925">
        <ele>131.8</ele>
        <time>2021-03-28T12:24:44Z</time>
      </trkpt>
      <trkpt lat="42.71821" lon="2.74925">
        <ele>131.8</ele>
        <time>2021-03-28T12:24:44Z</time>
      </trkpt>
      <trkpt lat="42.71827" lon="2.74916">
        <ele>132</ele>
        <time>2021-03-28T12:24:46Z</time>
      </trkpt>
      <trkpt lat="42.71827" lon="2.74916">
        <ele>132</ele>
        <time>2021-03-28T12:24:46Z</time>
      </trkpt>
      <trkpt lat="42.71832" lon="2.74906">
        <ele>132</ele>
        <time>2021-03-28T12:24:48Z</time>
      </trkpt>
      <trkpt lat="42.71832" lon="2.74906">
        <ele>132</ele>
        <time>2021-03-28T12:24:48Z</time>
      </trkpt>
      <trkpt lat="42.71838" lon="2.74899">
        <ele>132</ele>
        <time>2021-03-28T12:24:49Z</time>
      </trkpt>
      <trkpt lat="42.71838" lon="2.74899">
        <ele>132</ele>
        <time>2021-03-28T12:24:49Z</time>
      </trkpt>
      <trkpt lat="42.71843" lon="2.74893">
        <ele>132</ele>
        <time>2021-03-28T12:24:50Z</time>
      </trkpt>
      <trkpt lat="42.71843" lon="2.74893">
        <ele>132</ele>
        <time>2021-03-28T12:24:50Z</time>
      </trkpt>
      <trkpt lat="42.71848" lon="2.74885">
        <ele>132</ele>
        <time>2021-03-28T12:24:52Z</time>
      </trkpt>
      <trkpt lat="42.71848" lon="2.74885">
        <ele>132</ele>
        <time>2021-03-28T12:24:52Z</time>
      </trkpt>
      <trkpt lat="42.71854" lon="2.74878">
        <ele>132</ele>
        <time>2021-03-28T12:24:54Z</time>
      </trkpt>
      <trkpt lat="42.71854" lon="2.74878">
        <ele>132</ele>
        <time>2021-03-28T12:24:54Z</time>
      </trkpt>
      <trkpt lat="42.7186" lon="2.7487">
        <ele>132</ele>
        <time>2021-03-28T12:24:56Z</time>
      </trkpt>
      <trkpt lat="42.7186" lon="2.7487">
        <ele>132</ele>
        <time>2021-03-28T12:24:56Z</time>
      </trkpt>
      <trkpt lat="42.71866" lon="2.7486">
        <ele>132</ele>
        <time>2021-03-28T12:24:58Z</time>
      </trkpt>
      <trkpt lat="42.71866" lon="2.7486">
        <ele>132</ele>
        <time>2021-03-28T12:24:58Z</time>
      </trkpt>
      <trkpt lat="42.71872" lon="2.74849">
        <ele>132</ele>
        <time>2021-03-28T12:25:00Z</time>
      </trkpt>
      <trkpt lat="42.71872" lon="2.74849">
        <ele>132</ele>
        <time>2021-03-28T12:25:00Z</time>
      </trkpt>
      <trkpt lat="42.71876" lon="2.7484">
        <ele>132</ele>
        <time>2021-03-28T12:25:01Z</time>
      </trkpt>
      <trkpt lat="42.71876" lon="2.7484">
        <ele>132</ele>
        <time>2021-03-28T12:25:01Z</time>
      </trkpt>
      <trkpt lat="42.71881" lon="2.74832">
        <ele>132</ele>
        <time>2021-03-28T12:25:02Z</time>
      </trkpt>
      <trkpt lat="42.71881" lon="2.74832">
        <ele>132</ele>
        <time>2021-03-28T12:25:02Z</time>
      </trkpt>
      <trkpt lat="42.71885" lon="2.74823">
        <ele>132</ele>
        <time>2021-03-28T12:25:04Z</time>
      </trkpt>
      <trkpt lat="42.71885" lon="2.74823">
        <ele>132</ele>
        <time>2021-03-28T12:25:04Z</time>
      </trkpt>
      <trkpt lat="42.71889" lon="2.74812">
        <ele>132</ele>
        <time>2021-03-28T12:25:06Z</time>
      </trkpt>
      <trkpt lat="42.71889" lon="2.74812">
        <ele>132</ele>
        <time>2021-03-28T12:25:06Z</time>
      </trkpt>
      <trkpt lat="42.71893" lon="2.74802">
        <ele>132.1</ele>
        <time>2021-03-28T12:25:07Z</time>
      </trkpt>
      <trkpt lat="42.71893" lon="2.74802">
        <ele>132.1</ele>
        <time>2021-03-28T12:25:07Z</time>
      </trkpt>
      <trkpt lat="42.71896" lon="2.74792">
        <ele>132.5</ele>
        <time>2021-03-28T12:25:09Z</time>
      </trkpt>
      <trkpt lat="42.71896" lon="2.74792">
        <ele>132.5</ele>
        <time>2021-03-28T12:25:09Z</time>
      </trkpt>
      <trkpt lat="42.719" lon="2.74783">
        <ele>132.8</ele>
        <time>2021-03-28T12:25:10Z</time>
      </trkpt>
      <trkpt lat="42.719" lon="2.74783">
        <ele>132.8</ele>
        <time>2021-03-28T12:25:10Z</time>
      </trkpt>
      <trkpt lat="42.71904" lon="2.74773">
        <ele>133</ele>
        <time>2021-03-28T12:25:12Z</time>
      </trkpt>
      <trkpt lat="42.71904" lon="2.74773">
        <ele>133</ele>
        <time>2021-03-28T12:25:12Z</time>
      </trkpt>
      <trkpt lat="42.71908" lon="2.74765">
        <ele>133</ele>
        <time>2021-03-28T12:25:13Z</time>
      </trkpt>
      <trkpt lat="42.71908" lon="2.74765">
        <ele>133</ele>
        <time>2021-03-28T12:25:13Z</time>
      </trkpt>
      <trkpt lat="42.71912" lon="2.74755">
        <ele>133</ele>
        <time>2021-03-28T12:25:15Z</time>
      </trkpt>
      <trkpt lat="42.71912" lon="2.74755">
        <ele>133</ele>
        <time>2021-03-28T12:25:15Z</time>
      </trkpt>
      <trkpt lat="42.71917" lon="2.74745">
        <ele>133</ele>
        <time>2021-03-28T12:25:17Z</time>
      </trkpt>
      <trkpt lat="42.71917" lon="2.74745">
        <ele>133</ele>
        <time>2021-03-28T12:25:17Z</time>
      </trkpt>
      <trkpt lat="42.71923" lon="2.74735">
        <ele>133.1</ele>
        <time>2021-03-28T12:25:19Z</time>
      </trkpt>
      <trkpt lat="42.71923" lon="2.74735">
        <ele>133.1</ele>
        <time>2021-03-28T12:25:19Z</time>
      </trkpt>
      <trkpt lat="42.71929" lon="2.74725">
        <ele>133.4</ele>
        <time>2021-03-28T12:25:21Z</time>
      </trkpt>
      <trkpt lat="42.71929" lon="2.74725">
        <ele>133.4</ele>
        <time>2021-03-28T12:25:21Z</time>
      </trkpt>
      <trkpt lat="42.71933" lon="2.74716">
        <ele>133.7</ele>
        <time>2021-03-28T12:25:22Z</time>
      </trkpt>
      <trkpt lat="42.71933" lon="2.74716">
        <ele>133.7</ele>
        <time>2021-03-28T12:25:22Z</time>
      </trkpt>
      <trkpt lat="42.71937" lon="2.74707">
        <ele>133.9</ele>
        <time>2021-03-28T12:25:24Z</time>
      </trkpt>
      <trkpt lat="42.71937" lon="2.74707">
        <ele>133.9</ele>
        <time>2021-03-28T12:25:24Z</time>
      </trkpt>
      <trkpt lat="42.71942" lon="2.74699">
        <ele>134</ele>
        <time>2021-03-28T12:25:25Z</time>
      </trkpt>
      <trkpt lat="42.71942" lon="2.74699">
        <ele>134</ele>
        <time>2021-03-28T12:25:25Z</time>
      </trkpt>
      <trkpt lat="42.71946" lon="2.74689">
        <ele>134</ele>
        <time>2021-03-28T12:25:27Z</time>
      </trkpt>
      <trkpt lat="42.71946" lon="2.74689">
        <ele>134</ele>
        <time>2021-03-28T12:25:27Z</time>
      </trkpt>
      <trkpt lat="42.71952" lon="2.74679">
        <ele>134</ele>
        <time>2021-03-28T12:25:29Z</time>
      </trkpt>
      <trkpt lat="42.71952" lon="2.74679">
        <ele>134</ele>
        <time>2021-03-28T12:25:29Z</time>
      </trkpt>
      <trkpt lat="42.71957" lon="2.74668">
        <ele>134</ele>
        <time>2021-03-28T12:25:31Z</time>
      </trkpt>
      <trkpt lat="42.71957" lon="2.74668">
        <ele>134</ele>
        <time>2021-03-28T12:25:31Z</time>
      </trkpt>
      <trkpt lat="42.71963" lon="2.74658">
        <ele>134</ele>
        <time>2021-03-28T12:25:32Z</time>
      </trkpt>
      <trkpt lat="42.71963" lon="2.74658">
        <ele>134</ele>
        <time>2021-03-28T12:25:32Z</time>
      </trkpt>
      <trkpt lat="42.71967" lon="2.74649">
        <ele>134</ele>
        <time>2021-03-28T12:25:33Z</time>
      </trkpt>
      <trkpt lat="42.71967" lon="2.74649">
        <ele>134</ele>
        <time>2021-03-28T12:25:33Z</time>
      </trkpt>
      <trkpt lat="42.71971" lon="2.7464">
        <ele>134</ele>
        <time>2021-03-28T12:25:35Z</time>
      </trkpt>
      <trkpt lat="42.71971" lon="2.7464">
        <ele>134</ele>
        <time>2021-03-28T12:25:35Z</time>
      </trkpt>
      <trkpt lat="42.71977" lon="2.7463">
        <ele>134.3</ele>
        <time>2021-03-28T12:25:37Z</time>
      </trkpt>
      <trkpt lat="42.71977" lon="2.7463">
        <ele>134.3</ele>
        <time>2021-03-28T12:25:37Z</time>
      </trkpt>
      <trkpt lat="42.71982" lon="2.74622">
        <ele>134.4</ele>
        <time>2021-03-28T12:25:38Z</time>
      </trkpt>
      <trkpt lat="42.71982" lon="2.74622">
        <ele>134.4</ele>
        <time>2021-03-28T12:25:38Z</time>
      </trkpt>
      <trkpt lat="42.71987" lon="2.74613">
        <ele>134.5</ele>
        <time>2021-03-28T12:25:40Z</time>
      </trkpt>
      <trkpt lat="42.71987" lon="2.74613">
        <ele>134.5</ele>
        <time>2021-03-28T12:25:40Z</time>
      </trkpt>
      <trkpt lat="42.71991" lon="2.74605">
        <ele>134.5</ele>
        <time>2021-03-28T12:25:41Z</time>
      </trkpt>
      <trkpt lat="42.71991" lon="2.74605">
        <ele>134.5</ele>
        <time>2021-03-28T12:25:41Z</time>
      </trkpt>
      <trkpt lat="42.71995" lon="2.74596">
        <ele>134.6</ele>
        <time>2021-03-28T12:25:43Z</time>
      </trkpt>
      <trkpt lat="42.71995" lon="2.74596">
        <ele>134.6</ele>
        <time>2021-03-28T12:25:43Z</time>
      </trkpt>
      <trkpt lat="42.71999" lon="2.74586">
        <ele>134.9</ele>
        <time>2021-03-28T12:25:45Z</time>
      </trkpt>
      <trkpt lat="42.71999" lon="2.74586">
        <ele>134.9</ele>
        <time>2021-03-28T12:25:45Z</time>
      </trkpt>
      <trkpt lat="42.72003" lon="2.74577">
        <ele>135.1</ele>
        <time>2021-03-28T12:25:46Z</time>
      </trkpt>
      <trkpt lat="42.72003" lon="2.74577">
        <ele>135.1</ele>
        <time>2021-03-28T12:25:46Z</time>
      </trkpt>
      <trkpt lat="42.72005" lon="2.74569">
        <ele>135.3</ele>
        <time>2021-03-28T12:25:47Z</time>
      </trkpt>
      <trkpt lat="42.72005" lon="2.74569">
        <ele>135.3</ele>
        <time>2021-03-28T12:25:47Z</time>
      </trkpt>
      <trkpt lat="42.72008" lon="2.74559">
        <ele>135.6</ele>
        <time>2021-03-28T12:25:49Z</time>
      </trkpt>
      <trkpt lat="42.72008" lon="2.74559">
        <ele>135.6</ele>
        <time>2021-03-28T12:25:49Z</time>
      </trkpt>
      <trkpt lat="42.72009" lon="2.74551">
        <ele>135.9</ele>
        <time>2021-03-28T12:25:50Z</time>
      </trkpt>
      <trkpt lat="42.72009" lon="2.74551">
        <ele>135.9</ele>
        <time>2021-03-28T12:25:50Z</time>
      </trkpt>
      <trkpt lat="42.72011" lon="2.74541">
        <ele>136.3</ele>
        <time>2021-03-28T12:25:52Z</time>
      </trkpt>
      <trkpt lat="42.72011" lon="2.74541">
        <ele>136.3</ele>
        <time>2021-03-28T12:25:52Z</time>
      </trkpt>
      <trkpt lat="42.72013" lon="2.7453">
        <ele>136.9</ele>
        <time>2021-03-28T12:25:54Z</time>
      </trkpt>
      <trkpt lat="42.72013" lon="2.7453">
        <ele>136.9</ele>
        <time>2021-03-28T12:25:54Z</time>
      </trkpt>
      <trkpt lat="42.72014" lon="2.74518">
        <ele>137.5</ele>
        <time>2021-03-28T12:25:56Z</time>
      </trkpt>
      <trkpt lat="42.72014" lon="2.74518">
        <ele>137.5</ele>
        <time>2021-03-28T12:25:56Z</time>
      </trkpt>
      <trkpt lat="42.72015" lon="2.74509">
        <ele>138</ele>
        <time>2021-03-28T12:25:57Z</time>
      </trkpt>
      <trkpt lat="42.72015" lon="2.74509">
        <ele>138</ele>
        <time>2021-03-28T12:25:57Z</time>
      </trkpt>
      <trkpt lat="42.72016" lon="2.74498">
        <ele>138.5</ele>
        <time>2021-03-28T12:25:59Z</time>
      </trkpt>
      <trkpt lat="42.72016" lon="2.74498">
        <ele>138.5</ele>
        <time>2021-03-28T12:25:59Z</time>
      </trkpt>
      <trkpt lat="42.72017" lon="2.74488">
        <ele>138.7</ele>
        <time>2021-03-28T12:26:01Z</time>
      </trkpt>
      <trkpt lat="42.72017" lon="2.74488">
        <ele>138.7</ele>
        <time>2021-03-28T12:26:01Z</time>
      </trkpt>
      <trkpt lat="42.72019" lon="2.74479">
        <ele>138.8</ele>
        <time>2021-03-28T12:26:02Z</time>
      </trkpt>
      <trkpt lat="42.72019" lon="2.74479">
        <ele>138.8</ele>
        <time>2021-03-28T12:26:02Z</time>
      </trkpt>
      <trkpt lat="42.72021" lon="2.74469">
        <ele>139.1</ele>
        <time>2021-03-28T12:26:04Z</time>
      </trkpt>
      <trkpt lat="42.72021" lon="2.74469">
        <ele>139.1</ele>
        <time>2021-03-28T12:26:04Z</time>
      </trkpt>
      <trkpt lat="42.72022" lon="2.74459">
        <ele>139.4</ele>
        <time>2021-03-28T12:26:06Z</time>
      </trkpt>
      <trkpt lat="42.72022" lon="2.74459">
        <ele>139.4</ele>
        <time>2021-03-28T12:26:06Z</time>
      </trkpt>
      <trkpt lat="42.72024" lon="2.74451">
        <ele>139.7</ele>
        <time>2021-03-28T12:26:07Z</time>
      </trkpt>
      <trkpt lat="42.72024" lon="2.74451">
        <ele>139.7</ele>
        <time>2021-03-28T12:26:07Z</time>
      </trkpt>
      <trkpt lat="42.72025" lon="2.74444">
        <ele>139.9</ele>
        <time>2021-03-28T12:26:08Z</time>
      </trkpt>
      <trkpt lat="42.72025" lon="2.74444">
        <ele>139.9</ele>
        <time>2021-03-28T12:26:08Z</time>
      </trkpt>
      <trkpt lat="42.72027" lon="2.74436">
        <ele>140</ele>
        <time>2021-03-28T12:26:10Z</time>
      </trkpt>
      <trkpt lat="42.72027" lon="2.74436">
        <ele>140</ele>
        <time>2021-03-28T12:26:10Z</time>
      </trkpt>
      <trkpt lat="42.72028" lon="2.74428">
        <ele>140</ele>
        <time>2021-03-28T12:26:12Z</time>
      </trkpt>
      <trkpt lat="42.72028" lon="2.74428">
        <ele>140</ele>
        <time>2021-03-28T12:26:12Z</time>
      </trkpt>
      <trkpt lat="42.7203" lon="2.7442">
        <ele>140.1</ele>
        <time>2021-03-28T12:26:13Z</time>
      </trkpt>
      <trkpt lat="42.7203" lon="2.7442">
        <ele>140.1</ele>
        <time>2021-03-28T12:26:13Z</time>
      </trkpt>
      <trkpt lat="42.72031" lon="2.74413">
        <ele>140.2</ele>
        <time>2021-03-28T12:26:14Z</time>
      </trkpt>
      <trkpt lat="42.72031" lon="2.74413">
        <ele>140.2</ele>
        <time>2021-03-28T12:26:14Z</time>
      </trkpt>
      <trkpt lat="42.72032" lon="2.74406">
        <ele>140.5</ele>
        <time>2021-03-28T12:26:16Z</time>
      </trkpt>
      <trkpt lat="42.72032" lon="2.74406">
        <ele>140.5</ele>
        <time>2021-03-28T12:26:16Z</time>
      </trkpt>
      <trkpt lat="42.72033" lon="2.74396">
        <ele>140.8</ele>
        <time>2021-03-28T12:26:18Z</time>
      </trkpt>
      <trkpt lat="42.72033" lon="2.74396">
        <ele>140.8</ele>
        <time>2021-03-28T12:26:18Z</time>
      </trkpt>
      <trkpt lat="42.72034" lon="2.74388">
        <ele>141</ele>
        <time>2021-03-28T12:26:19Z</time>
      </trkpt>
      <trkpt lat="42.72034" lon="2.74388">
        <ele>141</ele>
        <time>2021-03-28T12:26:19Z</time>
      </trkpt>
      <trkpt lat="42.72036" lon="2.74379">
        <ele>141.1</ele>
        <time>2021-03-28T12:26:21Z</time>
      </trkpt>
      <trkpt lat="42.72036" lon="2.74379">
        <ele>141.1</ele>
        <time>2021-03-28T12:26:21Z</time>
      </trkpt>
      <trkpt lat="42.72037" lon="2.74372">
        <ele>141.2</ele>
        <time>2021-03-28T12:26:22Z</time>
      </trkpt>
      <trkpt lat="42.72037" lon="2.74372">
        <ele>141.2</ele>
        <time>2021-03-28T12:26:22Z</time>
      </trkpt>
      <trkpt lat="42.72039" lon="2.74364">
        <ele>141.4</ele>
        <time>2021-03-28T12:26:24Z</time>
      </trkpt>
      <trkpt lat="42.72039" lon="2.74364">
        <ele>141.4</ele>
        <time>2021-03-28T12:26:24Z</time>
      </trkpt>
      <trkpt lat="42.7204" lon="2.74356">
        <ele>141.4</ele>
        <time>2021-03-28T12:26:26Z</time>
      </trkpt>
      <trkpt lat="42.7204" lon="2.74356">
        <ele>141.4</ele>
        <time>2021-03-28T12:26:26Z</time>
      </trkpt>
      <trkpt lat="42.72041" lon="2.74348">
        <ele>141.5</ele>
        <time>2021-03-28T12:26:27Z</time>
      </trkpt>
      <trkpt lat="42.72041" lon="2.74348">
        <ele>141.5</ele>
        <time>2021-03-28T12:26:27Z</time>
      </trkpt>
      <trkpt lat="42.72041" lon="2.74339">
        <ele>141.5</ele>
        <time>2021-03-28T12:26:29Z</time>
      </trkpt>
      <trkpt lat="42.72041" lon="2.74339">
        <ele>141.5</ele>
        <time>2021-03-28T12:26:29Z</time>
      </trkpt>
      <trkpt lat="42.72043" lon="2.7433">
        <ele>141.7</ele>
        <time>2021-03-28T12:26:31Z</time>
      </trkpt>
      <trkpt lat="42.72043" lon="2.7433">
        <ele>141.7</ele>
        <time>2021-03-28T12:26:31Z</time>
      </trkpt>
      <trkpt lat="42.72045" lon="2.74321">
        <ele>142.1</ele>
        <time>2021-03-28T12:26:33Z</time>
      </trkpt>
      <trkpt lat="42.72045" lon="2.74321">
        <ele>142.1</ele>
        <time>2021-03-28T12:26:33Z</time>
      </trkpt>
      <trkpt lat="42.72048" lon="2.74313">
        <ele>142.5</ele>
        <time>2021-03-28T12:26:35Z</time>
      </trkpt>
      <trkpt lat="42.72048" lon="2.74313">
        <ele>142.5</ele>
        <time>2021-03-28T12:26:35Z</time>
      </trkpt>
      <trkpt lat="42.72051" lon="2.74305">
        <ele>142.8</ele>
        <time>2021-03-28T12:26:37Z</time>
      </trkpt>
      <trkpt lat="42.72051" lon="2.74305">
        <ele>142.8</ele>
        <time>2021-03-28T12:26:37Z</time>
      </trkpt>
      <trkpt lat="42.72055" lon="2.74298">
        <ele>143</ele>
        <time>2021-03-28T12:26:39Z</time>
      </trkpt>
      <trkpt lat="42.72055" lon="2.74298">
        <ele>143</ele>
        <time>2021-03-28T12:26:39Z</time>
      </trkpt>
      <trkpt lat="42.72058" lon="2.74291">
        <ele>143</ele>
        <time>2021-03-28T12:26:40Z</time>
      </trkpt>
      <trkpt lat="42.72058" lon="2.74291">
        <ele>143</ele>
        <time>2021-03-28T12:26:40Z</time>
      </trkpt>
      <trkpt lat="42.72062" lon="2.74285">
        <ele>143.2</ele>
        <time>2021-03-28T12:26:42Z</time>
      </trkpt>
      <trkpt lat="42.72062" lon="2.74285">
        <ele>143.2</ele>
        <time>2021-03-28T12:26:42Z</time>
      </trkpt>
      <trkpt lat="42.72065" lon="2.7428">
        <ele>143.3</ele>
        <time>2021-03-28T12:26:43Z</time>
      </trkpt>
      <trkpt lat="42.72065" lon="2.7428">
        <ele>143.3</ele>
        <time>2021-03-28T12:26:43Z</time>
      </trkpt>
      <trkpt lat="42.72069" lon="2.74275">
        <ele>143.5</ele>
        <time>2021-03-28T12:26:45Z</time>
      </trkpt>
      <trkpt lat="42.72069" lon="2.74275">
        <ele>143.5</ele>
        <time>2021-03-28T12:26:45Z</time>
      </trkpt>
      <trkpt lat="42.72073" lon="2.74269">
        <ele>143.7</ele>
        <time>2021-03-28T12:26:46Z</time>
      </trkpt>
      <trkpt lat="42.72073" lon="2.74269">
        <ele>143.7</ele>
        <time>2021-03-28T12:26:46Z</time>
      </trkpt>
      <trkpt lat="42.72077" lon="2.74263">
        <ele>143.9</ele>
        <time>2021-03-28T12:26:48Z</time>
      </trkpt>
      <trkpt lat="42.72077" lon="2.74263">
        <ele>143.9</ele>
        <time>2021-03-28T12:26:48Z</time>
      </trkpt>
      <trkpt lat="42.72081" lon="2.74258">
        <ele>144</ele>
        <time>2021-03-28T12:26:49Z</time>
      </trkpt>
      <trkpt lat="42.72081" lon="2.74258">
        <ele>144</ele>
        <time>2021-03-28T12:26:49Z</time>
      </trkpt>
      <trkpt lat="42.72085" lon="2.74252">
        <ele>144.1</ele>
        <time>2021-03-28T12:26:51Z</time>
      </trkpt>
      <trkpt lat="42.72085" lon="2.74252">
        <ele>144.1</ele>
        <time>2021-03-28T12:26:51Z</time>
      </trkpt>
      <trkpt lat="42.72089" lon="2.74246">
        <ele>144.3</ele>
        <time>2021-03-28T12:26:53Z</time>
      </trkpt>
      <trkpt lat="42.72089" lon="2.74246">
        <ele>144.3</ele>
        <time>2021-03-28T12:26:53Z</time>
      </trkpt>
      <trkpt lat="42.72093" lon="2.7424">
        <ele>144.6</ele>
        <time>2021-03-28T12:26:54Z</time>
      </trkpt>
      <trkpt lat="42.72093" lon="2.7424">
        <ele>144.6</ele>
        <time>2021-03-28T12:26:54Z</time>
      </trkpt>
      <trkpt lat="42.72097" lon="2.74233">
        <ele>144.8</ele>
        <time>2021-03-28T12:26:56Z</time>
      </trkpt>
      <trkpt lat="42.72097" lon="2.74233">
        <ele>144.8</ele>
        <time>2021-03-28T12:26:56Z</time>
      </trkpt>
      <trkpt lat="42.72101" lon="2.74227">
        <ele>144.9</ele>
        <time>2021-03-28T12:26:58Z</time>
      </trkpt>
      <trkpt lat="42.72101" lon="2.74227">
        <ele>144.9</ele>
        <time>2021-03-28T12:26:58Z</time>
      </trkpt>
      <trkpt lat="42.72105" lon="2.74222">
        <ele>145</ele>
        <time>2021-03-28T12:26:59Z</time>
      </trkpt>
      <trkpt lat="42.72105" lon="2.74222">
        <ele>145</ele>
        <time>2021-03-28T12:26:59Z</time>
      </trkpt>
      <trkpt lat="42.72109" lon="2.74216">
        <ele>145.2</ele>
        <time>2021-03-28T12:27:01Z</time>
      </trkpt>
      <trkpt lat="42.72109" lon="2.74216">
        <ele>145.2</ele>
        <time>2021-03-28T12:27:01Z</time>
      </trkpt>
      <trkpt lat="42.72114" lon="2.74209">
        <ele>145.5</ele>
        <time>2021-03-28T12:27:03Z</time>
      </trkpt>
      <trkpt lat="42.72114" lon="2.74209">
        <ele>145.5</ele>
        <time>2021-03-28T12:27:03Z</time>
      </trkpt>
      <trkpt lat="42.72118" lon="2.74203">
        <ele>145.7</ele>
        <time>2021-03-28T12:27:05Z</time>
      </trkpt>
      <trkpt lat="42.72118" lon="2.74203">
        <ele>145.7</ele>
        <time>2021-03-28T12:27:05Z</time>
      </trkpt>
      <trkpt lat="42.72123" lon="2.74196">
        <ele>145.9</ele>
        <time>2021-03-28T12:27:07Z</time>
      </trkpt>
      <trkpt lat="42.72123" lon="2.74196">
        <ele>145.9</ele>
        <time>2021-03-28T12:27:07Z</time>
      </trkpt>
      <trkpt lat="42.72127" lon="2.7419">
        <ele>146.1</ele>
        <time>2021-03-28T12:27:08Z</time>
      </trkpt>
      <trkpt lat="42.72127" lon="2.7419">
        <ele>146.1</ele>
        <time>2021-03-28T12:27:08Z</time>
      </trkpt>
      <trkpt lat="42.72131" lon="2.74185">
        <ele>146.2</ele>
        <time>2021-03-28T12:27:09Z</time>
      </trkpt>
      <trkpt lat="42.72131" lon="2.74185">
        <ele>146.2</ele>
        <time>2021-03-28T12:27:09Z</time>
      </trkpt>
      <trkpt lat="42.72134" lon="2.74181">
        <ele>146.4</ele>
        <time>2021-03-28T12:27:10Z</time>
      </trkpt>
      <trkpt lat="42.72134" lon="2.74181">
        <ele>146.4</ele>
        <time>2021-03-28T12:27:10Z</time>
      </trkpt>
      <trkpt lat="42.72138" lon="2.74175">
        <ele>146.7</ele>
        <time>2021-03-28T12:27:12Z</time>
      </trkpt>
      <trkpt lat="42.72138" lon="2.74175">
        <ele>146.7</ele>
        <time>2021-03-28T12:27:12Z</time>
      </trkpt>
      <trkpt lat="42.72141" lon="2.7417">
        <ele>146.9</ele>
        <time>2021-03-28T12:27:13Z</time>
      </trkpt>
      <trkpt lat="42.72141" lon="2.7417">
        <ele>146.9</ele>
        <time>2021-03-28T12:27:13Z</time>
      </trkpt>
      <trkpt lat="42.72143" lon="2.74165">
        <ele>147</ele>
        <time>2021-03-28T12:27:14Z</time>
      </trkpt>
      <trkpt lat="42.72143" lon="2.74165">
        <ele>147</ele>
        <time>2021-03-28T12:27:14Z</time>
      </trkpt>
      <trkpt lat="42.72147" lon="2.7416">
        <ele>147.1</ele>
        <time>2021-03-28T12:27:16Z</time>
      </trkpt>
      <trkpt lat="42.72147" lon="2.7416">
        <ele>147.1</ele>
        <time>2021-03-28T12:27:16Z</time>
      </trkpt>
      <trkpt lat="42.72151" lon="2.74154">
        <ele>147.2</ele>
        <time>2021-03-28T12:27:18Z</time>
      </trkpt>
      <trkpt lat="42.72151" lon="2.74154">
        <ele>147.2</ele>
        <time>2021-03-28T12:27:18Z</time>
      </trkpt>
      <trkpt lat="42.72154" lon="2.74148">
        <ele>147.4</ele>
        <time>2021-03-28T12:27:19Z</time>
      </trkpt>
      <trkpt lat="42.72154" lon="2.74148">
        <ele>147.4</ele>
        <time>2021-03-28T12:27:19Z</time>
      </trkpt>
      <trkpt lat="42.72159" lon="2.74142">
        <ele>147.6</ele>
        <time>2021-03-28T12:27:21Z</time>
      </trkpt>
      <trkpt lat="42.72159" lon="2.74142">
        <ele>147.6</ele>
        <time>2021-03-28T12:27:21Z</time>
      </trkpt>
      <trkpt lat="42.72164" lon="2.74136">
        <ele>147.9</ele>
        <time>2021-03-28T12:27:23Z</time>
      </trkpt>
      <trkpt lat="42.72164" lon="2.74136">
        <ele>147.9</ele>
        <time>2021-03-28T12:27:23Z</time>
      </trkpt>
      <trkpt lat="42.72168" lon="2.7413">
        <ele>148</ele>
        <time>2021-03-28T12:27:24Z</time>
      </trkpt>
      <trkpt lat="42.72168" lon="2.7413">
        <ele>148</ele>
        <time>2021-03-28T12:27:24Z</time>
      </trkpt>
      <trkpt lat="42.72174" lon="2.74126">
        <ele>148</ele>
        <time>2021-03-28T12:27:26Z</time>
      </trkpt>
      <trkpt lat="42.72174" lon="2.74126">
        <ele>148</ele>
        <time>2021-03-28T12:27:26Z</time>
      </trkpt>
      <trkpt lat="42.72179" lon="2.74121">
        <ele>148.1</ele>
        <time>2021-03-28T12:27:28Z</time>
      </trkpt>
      <trkpt lat="42.72179" lon="2.74121">
        <ele>148.1</ele>
        <time>2021-03-28T12:27:28Z</time>
      </trkpt>
      <trkpt lat="42.72186" lon="2.74117">
        <ele>148.4</ele>
        <time>2021-03-28T12:27:30Z</time>
      </trkpt>
      <trkpt lat="42.72186" lon="2.74117">
        <ele>148.4</ele>
        <time>2021-03-28T12:27:30Z</time>
      </trkpt>
      <trkpt lat="42.7219" lon="2.74113">
        <ele>148.7</ele>
        <time>2021-03-28T12:27:31Z</time>
      </trkpt>
      <trkpt lat="42.7219" lon="2.74113">
        <ele>148.7</ele>
        <time>2021-03-28T12:27:31Z</time>
      </trkpt>
      <trkpt lat="42.72195" lon="2.74109">
        <ele>149</ele>
        <time>2021-03-28T12:27:33Z</time>
      </trkpt>
      <trkpt lat="42.72195" lon="2.74109">
        <ele>149</ele>
        <time>2021-03-28T12:27:33Z</time>
      </trkpt>
      <trkpt lat="42.722" lon="2.74105">
        <ele>148.9</ele>
        <time>2021-03-28T12:27:35Z</time>
      </trkpt>
      <trkpt lat="42.722" lon="2.74105">
        <ele>148.9</ele>
        <time>2021-03-28T12:27:35Z</time>
      </trkpt>
      <trkpt lat="42.72205" lon="2.741">
        <ele>148.8</ele>
        <time>2021-03-28T12:27:37Z</time>
      </trkpt>
      <trkpt lat="42.72205" lon="2.741">
        <ele>148.8</ele>
        <time>2021-03-28T12:27:37Z</time>
      </trkpt>
      <trkpt lat="42.7221" lon="2.74095">
        <ele>148.8</ele>
        <time>2021-03-28T12:27:39Z</time>
      </trkpt>
      <trkpt lat="42.7221" lon="2.74095">
        <ele>148.8</ele>
        <time>2021-03-28T12:27:39Z</time>
      </trkpt>
      <trkpt lat="42.72216" lon="2.7409">
        <ele>148.8</ele>
        <time>2021-03-28T12:27:41Z</time>
      </trkpt>
      <trkpt lat="42.72216" lon="2.7409">
        <ele>148.8</ele>
        <time>2021-03-28T12:27:41Z</time>
      </trkpt>
      <trkpt lat="42.72221" lon="2.74086">
        <ele>148.9</ele>
        <time>2021-03-28T12:27:42Z</time>
      </trkpt>
      <trkpt lat="42.72221" lon="2.74086">
        <ele>148.9</ele>
        <time>2021-03-28T12:27:42Z</time>
      </trkpt>
      <trkpt lat="42.72226" lon="2.7408">
        <ele>149.1</ele>
        <time>2021-03-28T12:27:44Z</time>
      </trkpt>
      <trkpt lat="42.72226" lon="2.7408">
        <ele>149.1</ele>
        <time>2021-03-28T12:27:44Z</time>
      </trkpt>
      <trkpt lat="42.72232" lon="2.74075">
        <ele>149.3</ele>
        <time>2021-03-28T12:27:46Z</time>
      </trkpt>
      <trkpt lat="42.72232" lon="2.74075">
        <ele>149.3</ele>
        <time>2021-03-28T12:27:46Z</time>
      </trkpt>
      <trkpt lat="42.72237" lon="2.74071">
        <ele>149.4</ele>
        <time>2021-03-28T12:27:47Z</time>
      </trkpt>
      <trkpt lat="42.72237" lon="2.74071">
        <ele>149.4</ele>
        <time>2021-03-28T12:27:47Z</time>
      </trkpt>
      <trkpt lat="42.72242" lon="2.74068">
        <ele>149.6</ele>
        <time>2021-03-28T12:27:48Z</time>
      </trkpt>
      <trkpt lat="42.72242" lon="2.74068">
        <ele>149.6</ele>
        <time>2021-03-28T12:27:48Z</time>
      </trkpt>
      <trkpt lat="42.72247" lon="2.74064">
        <ele>149.7</ele>
        <time>2021-03-28T12:27:50Z</time>
      </trkpt>
      <trkpt lat="42.72247" lon="2.74064">
        <ele>149.7</ele>
        <time>2021-03-28T12:27:50Z</time>
      </trkpt>
      <trkpt lat="42.72252" lon="2.74059">
        <ele>149.9</ele>
        <time>2021-03-28T12:27:52Z</time>
      </trkpt>
      <trkpt lat="42.72252" lon="2.74059">
        <ele>149.9</ele>
        <time>2021-03-28T12:27:52Z</time>
      </trkpt>
      <trkpt lat="42.72256" lon="2.74055">
        <ele>150</ele>
        <time>2021-03-28T12:27:53Z</time>
      </trkpt>
      <trkpt lat="42.72256" lon="2.74055">
        <ele>150</ele>
        <time>2021-03-28T12:27:53Z</time>
      </trkpt>
      <trkpt lat="42.72261" lon="2.7405">
        <ele>150.2</ele>
        <time>2021-03-28T12:27:55Z</time>
      </trkpt>
      <trkpt lat="42.72261" lon="2.7405">
        <ele>150.2</ele>
        <time>2021-03-28T12:27:55Z</time>
      </trkpt>
      <trkpt lat="42.72265" lon="2.74045">
        <ele>150.4</ele>
        <time>2021-03-28T12:27:56Z</time>
      </trkpt>
      <trkpt lat="42.72265" lon="2.74045">
        <ele>150.4</ele>
        <time>2021-03-28T12:27:56Z</time>
      </trkpt>
      <trkpt lat="42.72269" lon="2.74041">
        <ele>150.5</ele>
        <time>2021-03-28T12:27:57Z</time>
      </trkpt>
      <trkpt lat="42.72269" lon="2.74041">
        <ele>150.5</ele>
        <time>2021-03-28T12:27:57Z</time>
      </trkpt>
      <trkpt lat="42.72273" lon="2.74037">
        <ele>150.7</ele>
        <time>2021-03-28T12:27:59Z</time>
      </trkpt>
      <trkpt lat="42.72273" lon="2.74037">
        <ele>150.7</ele>
        <time>2021-03-28T12:27:59Z</time>
      </trkpt>
      <trkpt lat="42.72277" lon="2.74032">
        <ele>150.8</ele>
        <time>2021-03-28T12:28:00Z</time>
      </trkpt>
      <trkpt lat="42.72277" lon="2.74032">
        <ele>150.8</ele>
        <time>2021-03-28T12:28:00Z</time>
      </trkpt>
      <trkpt lat="42.72282" lon="2.74026">
        <ele>151</ele>
        <time>2021-03-28T12:28:02Z</time>
      </trkpt>
      <trkpt lat="42.72282" lon="2.74026">
        <ele>151</ele>
        <time>2021-03-28T12:28:02Z</time>
      </trkpt>
      <trkpt lat="42.72286" lon="2.74021">
        <ele>151.3</ele>
        <time>2021-03-28T12:28:03Z</time>
      </trkpt>
      <trkpt lat="42.72286" lon="2.74021">
        <ele>151.3</ele>
        <time>2021-03-28T12:28:03Z</time>
      </trkpt>
      <trkpt lat="42.7229" lon="2.74014">
        <ele>151.5</ele>
        <time>2021-03-28T12:28:05Z</time>
      </trkpt>
      <trkpt lat="42.7229" lon="2.74014">
        <ele>151.5</ele>
        <time>2021-03-28T12:28:05Z</time>
      </trkpt>
      <trkpt lat="42.72294" lon="2.74009">
        <ele>151.7</ele>
        <time>2021-03-28T12:28:06Z</time>
      </trkpt>
      <trkpt lat="42.72294" lon="2.74009">
        <ele>151.7</ele>
        <time>2021-03-28T12:28:06Z</time>
      </trkpt>
      <trkpt lat="42.72297" lon="2.74002">
        <ele>151.9</ele>
        <time>2021-03-28T12:28:08Z</time>
      </trkpt>
      <trkpt lat="42.72297" lon="2.74002">
        <ele>151.9</ele>
        <time>2021-03-28T12:28:08Z</time>
      </trkpt>
      <trkpt lat="42.72302" lon="2.73997">
        <ele>152.1</ele>
        <time>2021-03-28T12:28:10Z</time>
      </trkpt>
      <trkpt lat="42.72302" lon="2.73997">
        <ele>152.1</ele>
        <time>2021-03-28T12:28:10Z</time>
      </trkpt>
      <trkpt lat="42.72307" lon="2.73993">
        <ele>152.3</ele>
        <time>2021-03-28T12:28:11Z</time>
      </trkpt>
      <trkpt lat="42.72307" lon="2.73993">
        <ele>152.3</ele>
        <time>2021-03-28T12:28:11Z</time>
      </trkpt>
      <trkpt lat="42.72311" lon="2.73991">
        <ele>152.3</ele>
        <time>2021-03-28T12:28:12Z</time>
      </trkpt>
      <trkpt lat="42.72311" lon="2.73991">
        <ele>152.3</ele>
        <time>2021-03-28T12:28:12Z</time>
      </trkpt>
      <trkpt lat="42.72316" lon="2.73991">
        <ele>152.3</ele>
        <time>2021-03-28T12:28:13Z</time>
      </trkpt>
      <trkpt lat="42.72316" lon="2.73991">
        <ele>152.3</ele>
        <time>2021-03-28T12:28:13Z</time>
      </trkpt>
      <trkpt lat="42.7232" lon="2.73991">
        <ele>152.3</ele>
        <time>2021-03-28T12:28:14Z</time>
      </trkpt>
      <trkpt lat="42.7232" lon="2.73991">
        <ele>152.3</ele>
        <time>2021-03-28T12:28:14Z</time>
      </trkpt>
      <trkpt lat="42.72327" lon="2.73993">
        <ele>152.2</ele>
        <time>2021-03-28T12:28:16Z</time>
      </trkpt>
      <trkpt lat="42.72327" lon="2.73993">
        <ele>152.2</ele>
        <time>2021-03-28T12:28:16Z</time>
      </trkpt>
      <trkpt lat="42.72334" lon="2.73997">
        <ele>152.1</ele>
        <time>2021-03-28T12:28:18Z</time>
      </trkpt>
      <trkpt lat="42.72334" lon="2.73997">
        <ele>152.1</ele>
        <time>2021-03-28T12:28:18Z</time>
      </trkpt>
      <trkpt lat="42.72341" lon="2.74002">
        <ele>152.5</ele>
        <time>2021-03-28T12:28:20Z</time>
      </trkpt>
      <trkpt lat="42.72341" lon="2.74002">
        <ele>152.5</ele>
        <time>2021-03-28T12:28:20Z</time>
      </trkpt>
      <trkpt lat="42.72347" lon="2.74006">
        <ele>152.9</ele>
        <time>2021-03-28T12:28:21Z</time>
      </trkpt>
      <trkpt lat="42.72347" lon="2.74006">
        <ele>152.9</ele>
        <time>2021-03-28T12:28:21Z</time>
      </trkpt>
      <trkpt lat="42.72354" lon="2.74011">
        <ele>153.2</ele>
        <time>2021-03-28T12:28:23Z</time>
      </trkpt>
      <trkpt lat="42.72354" lon="2.74011">
        <ele>153.2</ele>
        <time>2021-03-28T12:28:23Z</time>
      </trkpt>
      <trkpt lat="42.72359" lon="2.74015">
        <ele>153.4</ele>
        <time>2021-03-28T12:28:24Z</time>
      </trkpt>
      <trkpt lat="42.72359" lon="2.74015">
        <ele>153.4</ele>
        <time>2021-03-28T12:28:24Z</time>
      </trkpt>
      <trkpt lat="42.72365" lon="2.7402">
        <ele>153.5</ele>
        <time>2021-03-28T12:28:26Z</time>
      </trkpt>
      <trkpt lat="42.72365" lon="2.7402">
        <ele>153.5</ele>
        <time>2021-03-28T12:28:26Z</time>
      </trkpt>
      <trkpt lat="42.72371" lon="2.74024">
        <ele>153.8</ele>
        <time>2021-03-28T12:28:28Z</time>
      </trkpt>
      <trkpt lat="42.72371" lon="2.74024">
        <ele>153.8</ele>
        <time>2021-03-28T12:28:28Z</time>
      </trkpt>
      <trkpt lat="42.72376" lon="2.74028">
        <ele>154</ele>
        <time>2021-03-28T12:28:29Z</time>
      </trkpt>
      <trkpt lat="42.72376" lon="2.74028">
        <ele>154</ele>
        <time>2021-03-28T12:28:29Z</time>
      </trkpt>
      <trkpt lat="42.72381" lon="2.74033">
        <ele>154.4</ele>
        <time>2021-03-28T12:28:31Z</time>
      </trkpt>
      <trkpt lat="42.72381" lon="2.74033">
        <ele>154.4</ele>
        <time>2021-03-28T12:28:31Z</time>
      </trkpt>
      <trkpt lat="42.72385" lon="2.74037">
        <ele>154.7</ele>
        <time>2021-03-28T12:28:32Z</time>
      </trkpt>
      <trkpt lat="42.72385" lon="2.74037">
        <ele>154.7</ele>
        <time>2021-03-28T12:28:32Z</time>
      </trkpt>
      <trkpt lat="42.72388" lon="2.7404">
        <ele>154.9</ele>
        <time>2021-03-28T12:28:33Z</time>
      </trkpt>
      <trkpt lat="42.72388" lon="2.7404">
        <ele>154.9</ele>
        <time>2021-03-28T12:28:33Z</time>
      </trkpt>
      <trkpt lat="42.72392" lon="2.74045">
        <ele>155.3</ele>
        <time>2021-03-28T12:28:35Z</time>
      </trkpt>
      <trkpt lat="42.72392" lon="2.74045">
        <ele>155.3</ele>
        <time>2021-03-28T12:28:35Z</time>
      </trkpt>
      <trkpt lat="42.72397" lon="2.74049">
        <ele>155.6</ele>
        <time>2021-03-28T12:28:37Z</time>
      </trkpt>
      <trkpt lat="42.72397" lon="2.74049">
        <ele>155.6</ele>
        <time>2021-03-28T12:28:37Z</time>
      </trkpt>
      <trkpt lat="42.72402" lon="2.74054">
        <ele>155.9</ele>
        <time>2021-03-28T12:28:39Z</time>
      </trkpt>
      <trkpt lat="42.72402" lon="2.74054">
        <ele>155.9</ele>
        <time>2021-03-28T12:28:39Z</time>
      </trkpt>
      <trkpt lat="42.72406" lon="2.74057">
        <ele>156.2</ele>
        <time>2021-03-28T12:28:40Z</time>
      </trkpt>
      <trkpt lat="42.72406" lon="2.74057">
        <ele>156.2</ele>
        <time>2021-03-28T12:28:40Z</time>
      </trkpt>
      <trkpt lat="42.7241" lon="2.74061">
        <ele>156.4</ele>
        <time>2021-03-28T12:28:42Z</time>
      </trkpt>
      <trkpt lat="42.7241" lon="2.74061">
        <ele>156.4</ele>
        <time>2021-03-28T12:28:42Z</time>
      </trkpt>
      <trkpt lat="42.72414" lon="2.74064">
        <ele>156.5</ele>
        <time>2021-03-28T12:28:43Z</time>
      </trkpt>
      <trkpt lat="42.72414" lon="2.74064">
        <ele>156.5</ele>
        <time>2021-03-28T12:28:43Z</time>
      </trkpt>
      <trkpt lat="42.72417" lon="2.74066">
        <ele>156.6</ele>
        <time>2021-03-28T12:28:44Z</time>
      </trkpt>
      <trkpt lat="42.72417" lon="2.74066">
        <ele>156.6</ele>
        <time>2021-03-28T12:28:44Z</time>
      </trkpt>
      <trkpt lat="42.72421" lon="2.74068">
        <ele>156.8</ele>
        <time>2021-03-28T12:28:46Z</time>
      </trkpt>
      <trkpt lat="42.72421" lon="2.74068">
        <ele>156.8</ele>
        <time>2021-03-28T12:28:46Z</time>
      </trkpt>
      <trkpt lat="42.72425" lon="2.74071">
        <ele>157</ele>
        <time>2021-03-28T12:28:48Z</time>
      </trkpt>
      <trkpt lat="42.72425" lon="2.74071">
        <ele>157</ele>
        <time>2021-03-28T12:28:48Z</time>
      </trkpt>
      <trkpt lat="42.72428" lon="2.74073">
        <ele>157.2</ele>
        <time>2021-03-28T12:28:49Z</time>
      </trkpt>
      <trkpt lat="42.72428" lon="2.74073">
        <ele>157.2</ele>
        <time>2021-03-28T12:28:49Z</time>
      </trkpt>
      <trkpt lat="42.72431" lon="2.74076">
        <ele>157.3</ele>
        <time>2021-03-28T12:28:51Z</time>
      </trkpt>
      <trkpt lat="42.72431" lon="2.74076">
        <ele>157.3</ele>
        <time>2021-03-28T12:28:51Z</time>
      </trkpt>
      <trkpt lat="42.72436" lon="2.7408">
        <ele>157.5</ele>
        <time>2021-03-28T12:28:53Z</time>
      </trkpt>
      <trkpt lat="42.72436" lon="2.7408">
        <ele>157.5</ele>
        <time>2021-03-28T12:28:53Z</time>
      </trkpt>
      <trkpt lat="42.7244" lon="2.74084">
        <ele>157.7</ele>
        <time>2021-03-28T12:28:55Z</time>
      </trkpt>
      <trkpt lat="42.7244" lon="2.74084">
        <ele>157.7</ele>
        <time>2021-03-28T12:28:55Z</time>
      </trkpt>
      <trkpt lat="42.72445" lon="2.74087">
        <ele>158</ele>
        <time>2021-03-28T12:28:57Z</time>
      </trkpt>
      <trkpt lat="42.72445" lon="2.74087">
        <ele>158</ele>
        <time>2021-03-28T12:28:57Z</time>
      </trkpt>
      <trkpt lat="42.72449" lon="2.7409">
        <ele>158.3</ele>
        <time>2021-03-28T12:28:58Z</time>
      </trkpt>
      <trkpt lat="42.72449" lon="2.7409">
        <ele>158.3</ele>
        <time>2021-03-28T12:28:58Z</time>
      </trkpt>
      <trkpt lat="42.72453" lon="2.74094">
        <ele>158.5</ele>
        <time>2021-03-28T12:29:00Z</time>
      </trkpt>
      <trkpt lat="42.72453" lon="2.74094">
        <ele>158.5</ele>
        <time>2021-03-28T12:29:00Z</time>
      </trkpt>
      <trkpt lat="42.72457" lon="2.74097">
        <ele>158.7</ele>
        <time>2021-03-28T12:29:02Z</time>
      </trkpt>
      <trkpt lat="42.72457" lon="2.74097">
        <ele>158.7</ele>
        <time>2021-03-28T12:29:02Z</time>
      </trkpt>
      <trkpt lat="42.7246" lon="2.74101">
        <ele>158.8</ele>
        <time>2021-03-28T12:29:03Z</time>
      </trkpt>
      <trkpt lat="42.7246" lon="2.74101">
        <ele>158.8</ele>
        <time>2021-03-28T12:29:03Z</time>
      </trkpt>
      <trkpt lat="42.72463" lon="2.74103">
        <ele>158.8</ele>
        <time>2021-03-28T12:29:04Z</time>
      </trkpt>
      <trkpt lat="42.72463" lon="2.74103">
        <ele>158.8</ele>
        <time>2021-03-28T12:29:04Z</time>
      </trkpt>
      <trkpt lat="42.72466" lon="2.74106">
        <ele>158.9</ele>
        <time>2021-03-28T12:29:06Z</time>
      </trkpt>
      <trkpt lat="42.72466" lon="2.74106">
        <ele>158.9</ele>
        <time>2021-03-28T12:29:06Z</time>
      </trkpt>
      <trkpt lat="42.7247" lon="2.7411">
        <ele>158.9</ele>
        <time>2021-03-28T12:29:08Z</time>
      </trkpt>
      <trkpt lat="42.7247" lon="2.7411">
        <ele>158.9</ele>
        <time>2021-03-28T12:29:08Z</time>
      </trkpt>
      <trkpt lat="42.72474" lon="2.74115">
        <ele>159.1</ele>
        <time>2021-03-28T12:29:10Z</time>
      </trkpt>
      <trkpt lat="42.72474" lon="2.74115">
        <ele>159.1</ele>
        <time>2021-03-28T12:29:10Z</time>
      </trkpt>
      <trkpt lat="42.72478" lon="2.7412">
        <ele>159.3</ele>
        <time>2021-03-28T12:29:12Z</time>
      </trkpt>
      <trkpt lat="42.72478" lon="2.7412">
        <ele>159.3</ele>
        <time>2021-03-28T12:29:12Z</time>
      </trkpt>
      <trkpt lat="42.72482" lon="2.74124">
        <ele>159.6</ele>
        <time>2021-03-28T12:29:13Z</time>
      </trkpt>
      <trkpt lat="42.72482" lon="2.74124">
        <ele>159.6</ele>
        <time>2021-03-28T12:29:13Z</time>
      </trkpt>
      <trkpt lat="42.72486" lon="2.74129">
        <ele>159.8</ele>
        <time>2021-03-28T12:29:15Z</time>
      </trkpt>
      <trkpt lat="42.72486" lon="2.74129">
        <ele>159.8</ele>
        <time>2021-03-28T12:29:15Z</time>
      </trkpt>
      <trkpt lat="42.72489" lon="2.74133">
        <ele>160</ele>
        <time>2021-03-28T12:29:16Z</time>
      </trkpt>
      <trkpt lat="42.72489" lon="2.74133">
        <ele>160</ele>
        <time>2021-03-28T12:29:16Z</time>
      </trkpt>
      <trkpt lat="42.72493" lon="2.74137">
        <ele>160.3</ele>
        <time>2021-03-28T12:29:18Z</time>
      </trkpt>
      <trkpt lat="42.72493" lon="2.74137">
        <ele>160.3</ele>
        <time>2021-03-28T12:29:18Z</time>
      </trkpt>
      <trkpt lat="42.72497" lon="2.74142">
        <ele>160.4</ele>
        <time>2021-03-28T12:29:20Z</time>
      </trkpt>
      <trkpt lat="42.72497" lon="2.74142">
        <ele>160.4</ele>
        <time>2021-03-28T12:29:20Z</time>
      </trkpt>
      <trkpt lat="42.725" lon="2.74145">
        <ele>160.5</ele>
        <time>2021-03-28T12:29:21Z</time>
      </trkpt>
      <trkpt lat="42.725" lon="2.74145">
        <ele>160.5</ele>
        <time>2021-03-28T12:29:21Z</time>
      </trkpt>
      <trkpt lat="42.72503" lon="2.74149">
        <ele>160.5</ele>
        <time>2021-03-28T12:29:22Z</time>
      </trkpt>
      <trkpt lat="42.72503" lon="2.74149">
        <ele>160.5</ele>
        <time>2021-03-28T12:29:22Z</time>
      </trkpt>
      <trkpt lat="42.72507" lon="2.74152">
        <ele>160.5</ele>
        <time>2021-03-28T12:29:24Z</time>
      </trkpt>
      <trkpt lat="42.72507" lon="2.74152">
        <ele>160.5</ele>
        <time>2021-03-28T12:29:24Z</time>
      </trkpt>
      <trkpt lat="42.7251" lon="2.74156">
        <ele>160.5</ele>
        <time>2021-03-28T12:29:25Z</time>
      </trkpt>
      <trkpt lat="42.7251" lon="2.74156">
        <ele>160.5</ele>
        <time>2021-03-28T12:29:25Z</time>
      </trkpt>
      <trkpt lat="42.72514" lon="2.74159">
        <ele>160.6</ele>
        <time>2021-03-28T12:29:27Z</time>
      </trkpt>
      <trkpt lat="42.72514" lon="2.74159">
        <ele>160.6</ele>
        <time>2021-03-28T12:29:27Z</time>
      </trkpt>
      <trkpt lat="42.72518" lon="2.74161">
        <ele>160.7</ele>
        <time>2021-03-28T12:29:28Z</time>
      </trkpt>
      <trkpt lat="42.72518" lon="2.74161">
        <ele>160.7</ele>
        <time>2021-03-28T12:29:28Z</time>
      </trkpt>
      <trkpt lat="42.72522" lon="2.74163">
        <ele>160.8</ele>
        <time>2021-03-28T12:29:29Z</time>
      </trkpt>
      <trkpt lat="42.72522" lon="2.74163">
        <ele>160.8</ele>
        <time>2021-03-28T12:29:29Z</time>
      </trkpt>
      <trkpt lat="42.72526" lon="2.74166">
        <ele>160.9</ele>
        <time>2021-03-28T12:29:31Z</time>
      </trkpt>
      <trkpt lat="42.72526" lon="2.74166">
        <ele>160.9</ele>
        <time>2021-03-28T12:29:31Z</time>
      </trkpt>
      <trkpt lat="42.72531" lon="2.74168">
        <ele>161.1</ele>
        <time>2021-03-28T12:29:33Z</time>
      </trkpt>
      <trkpt lat="42.72531" lon="2.74168">
        <ele>161.1</ele>
        <time>2021-03-28T12:29:33Z</time>
      </trkpt>
      <trkpt lat="42.72534" lon="2.7417">
        <ele>161.2</ele>
        <time>2021-03-28T12:29:34Z</time>
      </trkpt>
      <trkpt lat="42.72534" lon="2.7417">
        <ele>161.2</ele>
        <time>2021-03-28T12:29:34Z</time>
      </trkpt>
      <trkpt lat="42.72538" lon="2.74172">
        <ele>161.3</ele>
        <time>2021-03-28T12:29:35Z</time>
      </trkpt>
      <trkpt lat="42.72538" lon="2.74172">
        <ele>161.3</ele>
        <time>2021-03-28T12:29:35Z</time>
      </trkpt>
      <trkpt lat="42.72541" lon="2.74172">
        <ele>161.4</ele>
        <time>2021-03-28T12:29:37Z</time>
      </trkpt>
      <trkpt lat="42.72541" lon="2.74172">
        <ele>161.4</ele>
        <time>2021-03-28T12:29:37Z</time>
      </trkpt>
      <trkpt lat="42.72544" lon="2.74173">
        <ele>161.6</ele>
        <time>2021-03-28T12:29:38Z</time>
      </trkpt>
      <trkpt lat="42.72544" lon="2.74173">
        <ele>161.6</ele>
        <time>2021-03-28T12:29:38Z</time>
      </trkpt>
      <trkpt lat="42.72548" lon="2.74173">
        <ele>161.8</ele>
        <time>2021-03-28T12:29:40Z</time>
      </trkpt>
      <trkpt lat="42.72548" lon="2.74173">
        <ele>161.8</ele>
        <time>2021-03-28T12:29:40Z</time>
      </trkpt>
      <trkpt lat="42.72551" lon="2.74173">
        <ele>162</ele>
        <time>2021-03-28T12:29:41Z</time>
      </trkpt>
      <trkpt lat="42.72551" lon="2.74173">
        <ele>162</ele>
        <time>2021-03-28T12:29:41Z</time>
      </trkpt>
      <trkpt lat="42.72554" lon="2.74173">
        <ele>162.2</ele>
        <time>2021-03-28T12:29:42Z</time>
      </trkpt>
      <trkpt lat="42.72554" lon="2.74173">
        <ele>162.2</ele>
        <time>2021-03-28T12:29:42Z</time>
      </trkpt>
      <trkpt lat="42.72557" lon="2.74172">
        <ele>162.5</ele>
        <time>2021-03-28T12:29:44Z</time>
      </trkpt>
      <trkpt lat="42.72557" lon="2.74172">
        <ele>162.5</ele>
        <time>2021-03-28T12:29:44Z</time>
      </trkpt>
      <trkpt lat="42.72561" lon="2.7417">
        <ele>162.8</ele>
        <time>2021-03-28T12:29:46Z</time>
      </trkpt>
      <trkpt lat="42.72561" lon="2.7417">
        <ele>162.8</ele>
        <time>2021-03-28T12:29:46Z</time>
      </trkpt>
      <trkpt lat="42.72565" lon="2.74168">
        <ele>163.2</ele>
        <time>2021-03-28T12:29:48Z</time>
      </trkpt>
      <trkpt lat="42.72565" lon="2.74168">
        <ele>163.2</ele>
        <time>2021-03-28T12:29:48Z</time>
      </trkpt>
      <trkpt lat="42.7257" lon="2.74166">
        <ele>163.6</ele>
        <time>2021-03-28T12:29:50Z</time>
      </trkpt>
      <trkpt lat="42.7257" lon="2.74166">
        <ele>163.6</ele>
        <time>2021-03-28T12:29:50Z</time>
      </trkpt>
      <trkpt lat="42.72575" lon="2.74164">
        <ele>164</ele>
        <time>2021-03-28T12:29:52Z</time>
      </trkpt>
      <trkpt lat="42.72575" lon="2.74164">
        <ele>164</ele>
        <time>2021-03-28T12:29:52Z</time>
      </trkpt>
      <trkpt lat="42.7258" lon="2.74161">
        <ele>164.4</ele>
        <time>2021-03-28T12:29:54Z</time>
      </trkpt>
      <trkpt lat="42.7258" lon="2.74161">
        <ele>164.4</ele>
        <time>2021-03-28T12:29:54Z</time>
      </trkpt>
      <trkpt lat="42.72585" lon="2.74159">
        <ele>164.9</ele>
        <time>2021-03-28T12:29:56Z</time>
      </trkpt>
      <trkpt lat="42.72585" lon="2.74159">
        <ele>164.9</ele>
        <time>2021-03-28T12:29:56Z</time>
      </trkpt>
      <trkpt lat="42.72589" lon="2.74157">
        <ele>165.3</ele>
        <time>2021-03-28T12:29:57Z</time>
      </trkpt>
      <trkpt lat="42.72589" lon="2.74157">
        <ele>165.3</ele>
        <time>2021-03-28T12:29:57Z</time>
      </trkpt>
      <trkpt lat="42.72594" lon="2.74154">
        <ele>165.7</ele>
        <time>2021-03-28T12:29:59Z</time>
      </trkpt>
      <trkpt lat="42.72594" lon="2.74154">
        <ele>165.7</ele>
        <time>2021-03-28T12:29:59Z</time>
      </trkpt>
      <trkpt lat="42.72597" lon="2.74153">
        <ele>166</ele>
        <time>2021-03-28T12:30:00Z</time>
      </trkpt>
      <trkpt lat="42.72597" lon="2.74153">
        <ele>166</ele>
        <time>2021-03-28T12:30:00Z</time>
      </trkpt>
      <trkpt lat="42.72601" lon="2.7415">
        <ele>166.4</ele>
        <time>2021-03-28T12:30:02Z</time>
      </trkpt>
      <trkpt lat="42.72601" lon="2.7415">
        <ele>166.4</ele>
        <time>2021-03-28T12:30:02Z</time>
      </trkpt>
      <trkpt lat="42.72605" lon="2.74148">
        <ele>166.8</ele>
        <time>2021-03-28T12:30:04Z</time>
      </trkpt>
      <trkpt lat="42.72605" lon="2.74148">
        <ele>166.8</ele>
        <time>2021-03-28T12:30:04Z</time>
      </trkpt>
      <trkpt lat="42.72609" lon="2.74146">
        <ele>167.1</ele>
        <time>2021-03-28T12:30:06Z</time>
      </trkpt>
      <trkpt lat="42.72609" lon="2.74146">
        <ele>167.1</ele>
        <time>2021-03-28T12:30:06Z</time>
      </trkpt>
      <trkpt lat="42.72613" lon="2.74144">
        <ele>167.5</ele>
        <time>2021-03-28T12:30:08Z</time>
      </trkpt>
      <trkpt lat="42.72613" lon="2.74144">
        <ele>167.5</ele>
        <time>2021-03-28T12:30:08Z</time>
      </trkpt>
      <trkpt lat="42.72616" lon="2.74143">
        <ele>167.7</ele>
        <time>2021-03-28T12:30:09Z</time>
      </trkpt>
      <trkpt lat="42.72616" lon="2.74143">
        <ele>167.7</ele>
        <time>2021-03-28T12:30:09Z</time>
      </trkpt>
      <trkpt lat="42.7262" lon="2.74142">
        <ele>168</ele>
        <time>2021-03-28T12:30:11Z</time>
      </trkpt>
      <trkpt lat="42.7262" lon="2.74142">
        <ele>168</ele>
        <time>2021-03-28T12:30:11Z</time>
      </trkpt>
      <trkpt lat="42.72623" lon="2.74141">
        <ele>168.2</ele>
        <time>2021-03-28T12:30:12Z</time>
      </trkpt>
      <trkpt lat="42.72623" lon="2.74141">
        <ele>168.2</ele>
        <time>2021-03-28T12:30:12Z</time>
      </trkpt>
      <trkpt lat="42.72625" lon="2.74139">
        <ele>168.4</ele>
        <time>2021-03-28T12:30:13Z</time>
      </trkpt>
      <trkpt lat="42.72625" lon="2.74139">
        <ele>168.4</ele>
        <time>2021-03-28T12:30:13Z</time>
      </trkpt>
      <trkpt lat="42.72627" lon="2.74138">
        <ele>168.7</ele>
        <time>2021-03-28T12:30:14Z</time>
      </trkpt>
      <trkpt lat="42.72627" lon="2.74138">
        <ele>168.7</ele>
        <time>2021-03-28T12:30:14Z</time>
      </trkpt>
      <trkpt lat="42.7263" lon="2.74137">
        <ele>168.9</ele>
        <time>2021-03-28T12:30:16Z</time>
      </trkpt>
      <trkpt lat="42.7263" lon="2.74137">
        <ele>168.9</ele>
        <time>2021-03-28T12:30:16Z</time>
      </trkpt>
      <trkpt lat="42.72633" lon="2.74136">
        <ele>169.2</ele>
        <time>2021-03-28T12:30:18Z</time>
      </trkpt>
      <trkpt lat="42.72633" lon="2.74136">
        <ele>169.2</ele>
        <time>2021-03-28T12:30:18Z</time>
      </trkpt>
      <trkpt lat="42.72636" lon="2.74135">
        <ele>169.5</ele>
        <time>2021-03-28T12:30:19Z</time>
      </trkpt>
      <trkpt lat="42.72636" lon="2.74135">
        <ele>169.5</ele>
        <time>2021-03-28T12:30:19Z</time>
      </trkpt>
      <trkpt lat="42.72639" lon="2.74134">
        <ele>169.8</ele>
        <time>2021-03-28T12:30:21Z</time>
      </trkpt>
      <trkpt lat="42.72639" lon="2.74134">
        <ele>169.8</ele>
        <time>2021-03-28T12:30:21Z</time>
      </trkpt>
      <trkpt lat="42.72642" lon="2.74132">
        <ele>170.1</ele>
        <time>2021-03-28T12:30:23Z</time>
      </trkpt>
      <trkpt lat="42.72642" lon="2.74132">
        <ele>170.1</ele>
        <time>2021-03-28T12:30:23Z</time>
      </trkpt>
      <trkpt lat="42.72645" lon="2.74131">
        <ele>170.3</ele>
        <time>2021-03-28T12:30:24Z</time>
      </trkpt>
      <trkpt lat="42.72645" lon="2.74131">
        <ele>170.3</ele>
        <time>2021-03-28T12:30:24Z</time>
      </trkpt>
      <trkpt lat="42.72647" lon="2.7413">
        <ele>170.5</ele>
        <time>2021-03-28T12:30:25Z</time>
      </trkpt>
      <trkpt lat="42.72647" lon="2.7413">
        <ele>170.5</ele>
        <time>2021-03-28T12:30:25Z</time>
      </trkpt>
      <trkpt lat="42.72649" lon="2.74129">
        <ele>170.7</ele>
        <time>2021-03-28T12:30:26Z</time>
      </trkpt>
      <trkpt lat="42.72649" lon="2.74129">
        <ele>170.7</ele>
        <time>2021-03-28T12:30:26Z</time>
      </trkpt>
      <trkpt lat="42.72652" lon="2.74127">
        <ele>171</ele>
        <time>2021-03-28T12:30:28Z</time>
      </trkpt>
      <trkpt lat="42.72652" lon="2.74127">
        <ele>171</ele>
        <time>2021-03-28T12:30:28Z</time>
      </trkpt>
      <trkpt lat="42.72656" lon="2.74125">
        <ele>171.3</ele>
        <time>2021-03-28T12:30:30Z</time>
      </trkpt>
      <trkpt lat="42.72656" lon="2.74125">
        <ele>171.3</ele>
        <time>2021-03-28T12:30:30Z</time>
      </trkpt>
      <trkpt lat="42.72658" lon="2.74124">
        <ele>171.5</ele>
        <time>2021-03-28T12:30:31Z</time>
      </trkpt>
      <trkpt lat="42.72658" lon="2.74124">
        <ele>171.5</ele>
        <time>2021-03-28T12:30:31Z</time>
      </trkpt>
      <trkpt lat="42.72662" lon="2.74122">
        <ele>171.7</ele>
        <time>2021-03-28T12:30:33Z</time>
      </trkpt>
      <trkpt lat="42.72662" lon="2.74122">
        <ele>171.7</ele>
        <time>2021-03-28T12:30:33Z</time>
      </trkpt>
      <trkpt lat="42.72665" lon="2.74121">
        <ele>171.9</ele>
        <time>2021-03-28T12:30:35Z</time>
      </trkpt>
      <trkpt lat="42.72665" lon="2.74121">
        <ele>171.9</ele>
        <time>2021-03-28T12:30:35Z</time>
      </trkpt>
      <trkpt lat="42.72669" lon="2.74119">
        <ele>172.1</ele>
        <time>2021-03-28T12:30:37Z</time>
      </trkpt>
      <trkpt lat="42.72669" lon="2.74119">
        <ele>172.1</ele>
        <time>2021-03-28T12:30:37Z</time>
      </trkpt>
      <trkpt lat="42.72673" lon="2.74117">
        <ele>172.3</ele>
        <time>2021-03-28T12:30:38Z</time>
      </trkpt>
      <trkpt lat="42.72673" lon="2.74117">
        <ele>172.3</ele>
        <time>2021-03-28T12:30:38Z</time>
      </trkpt>
      <trkpt lat="42.72677" lon="2.74115">
        <ele>172.5</ele>
        <time>2021-03-28T12:30:40Z</time>
      </trkpt>
      <trkpt lat="42.72677" lon="2.74115">
        <ele>172.5</ele>
        <time>2021-03-28T12:30:40Z</time>
      </trkpt>
      <trkpt lat="42.7268" lon="2.74114">
        <ele>172.7</ele>
        <time>2021-03-28T12:30:41Z</time>
      </trkpt>
      <trkpt lat="42.7268" lon="2.74114">
        <ele>172.7</ele>
        <time>2021-03-28T12:30:41Z</time>
      </trkpt>
      <trkpt lat="42.72684" lon="2.74112">
        <ele>172.9</ele>
        <time>2021-03-28T12:30:43Z</time>
      </trkpt>
      <trkpt lat="42.72684" lon="2.74112">
        <ele>172.9</ele>
        <time>2021-03-28T12:30:43Z</time>
      </trkpt>
      <trkpt lat="42.72687" lon="2.7411">
        <ele>173.2</ele>
        <time>2021-03-28T12:30:44Z</time>
      </trkpt>
      <trkpt lat="42.72687" lon="2.7411">
        <ele>173.2</ele>
        <time>2021-03-28T12:30:44Z</time>
      </trkpt>
      <trkpt lat="42.7269" lon="2.74108">
        <ele>173.5</ele>
        <time>2021-03-28T12:30:46Z</time>
      </trkpt>
      <trkpt lat="42.7269" lon="2.74108">
        <ele>173.5</ele>
        <time>2021-03-28T12:30:46Z</time>
      </trkpt>
      <trkpt lat="42.72693" lon="2.74106">
        <ele>173.9</ele>
        <time>2021-03-28T12:30:48Z</time>
      </trkpt>
      <trkpt lat="42.72693" lon="2.74106">
        <ele>173.9</ele>
        <time>2021-03-28T12:30:48Z</time>
      </trkpt>
      <trkpt lat="42.72697" lon="2.74105">
        <ele>174.1</ele>
        <time>2021-03-28T12:30:49Z</time>
      </trkpt>
      <trkpt lat="42.72697" lon="2.74105">
        <ele>174.1</ele>
        <time>2021-03-28T12:30:49Z</time>
      </trkpt>
      <trkpt lat="42.72699" lon="2.74104">
        <ele>174.3</ele>
        <time>2021-03-28T12:30:50Z</time>
      </trkpt>
      <trkpt lat="42.72699" lon="2.74104">
        <ele>174.3</ele>
        <time>2021-03-28T12:30:50Z</time>
      </trkpt>
      <trkpt lat="42.72703" lon="2.74102">
        <ele>174.5</ele>
        <time>2021-03-28T12:30:52Z</time>
      </trkpt>
      <trkpt lat="42.72703" lon="2.74102">
        <ele>174.5</ele>
        <time>2021-03-28T12:30:52Z</time>
      </trkpt>
      <trkpt lat="42.72706" lon="2.741">
        <ele>174.8</ele>
        <time>2021-03-28T12:30:54Z</time>
      </trkpt>
      <trkpt lat="42.72706" lon="2.741">
        <ele>174.8</ele>
        <time>2021-03-28T12:30:54Z</time>
      </trkpt>
      <trkpt lat="42.7271" lon="2.74098">
        <ele>175.2</ele>
        <time>2021-03-28T12:30:56Z</time>
      </trkpt>
      <trkpt lat="42.7271" lon="2.74098">
        <ele>175.2</ele>
        <time>2021-03-28T12:30:56Z</time>
      </trkpt>
      <trkpt lat="42.72714" lon="2.74095">
        <ele>175.4</ele>
        <time>2021-03-28T12:30:58Z</time>
      </trkpt>
      <trkpt lat="42.72714" lon="2.74095">
        <ele>175.4</ele>
        <time>2021-03-28T12:30:58Z</time>
      </trkpt>
      <trkpt lat="42.72717" lon="2.74094">
        <ele>175.6</ele>
        <time>2021-03-28T12:30:59Z</time>
      </trkpt>
      <trkpt lat="42.72717" lon="2.74094">
        <ele>175.6</ele>
        <time>2021-03-28T12:30:59Z</time>
      </trkpt>
      <trkpt lat="42.7272" lon="2.74092">
        <ele>175.8</ele>
        <time>2021-03-28T12:31:00Z</time>
      </trkpt>
      <trkpt lat="42.7272" lon="2.74092">
        <ele>175.8</ele>
        <time>2021-03-28T12:31:00Z</time>
      </trkpt>
      <trkpt lat="42.72724" lon="2.7409">
        <ele>176</ele>
        <time>2021-03-28T12:31:02Z</time>
      </trkpt>
      <trkpt lat="42.72724" lon="2.7409">
        <ele>176</ele>
        <time>2021-03-28T12:31:02Z</time>
      </trkpt>
      <trkpt lat="42.72727" lon="2.74089">
        <ele>176.3</ele>
        <time>2021-03-28T12:31:03Z</time>
      </trkpt>
      <trkpt lat="42.72727" lon="2.74089">
        <ele>176.3</ele>
        <time>2021-03-28T12:31:03Z</time>
      </trkpt>
      <trkpt lat="42.72731" lon="2.74087">
        <ele>176.6</ele>
        <time>2021-03-28T12:31:05Z</time>
      </trkpt>
      <trkpt lat="42.72731" lon="2.74087">
        <ele>176.6</ele>
        <time>2021-03-28T12:31:05Z</time>
      </trkpt>
      <trkpt lat="42.72734" lon="2.74085">
        <ele>176.8</ele>
        <time>2021-03-28T12:31:06Z</time>
      </trkpt>
      <trkpt lat="42.72734" lon="2.74085">
        <ele>176.8</ele>
        <time>2021-03-28T12:31:06Z</time>
      </trkpt>
      <trkpt lat="42.72737" lon="2.74084">
        <ele>176.9</ele>
        <time>2021-03-28T12:31:07Z</time>
      </trkpt>
      <trkpt lat="42.72737" lon="2.74084">
        <ele>176.9</ele>
        <time>2021-03-28T12:31:07Z</time>
      </trkpt>
      <trkpt lat="42.7274" lon="2.74082">
        <ele>177.2</ele>
        <time>2021-03-28T12:31:09Z</time>
      </trkpt>
      <trkpt lat="42.7274" lon="2.74082">
        <ele>177.2</ele>
        <time>2021-03-28T12:31:09Z</time>
      </trkpt>
      <trkpt lat="42.72744" lon="2.7408">
        <ele>177.4</ele>
        <time>2021-03-28T12:31:11Z</time>
      </trkpt>
      <trkpt lat="42.72744" lon="2.7408">
        <ele>177.4</ele>
        <time>2021-03-28T12:31:11Z</time>
      </trkpt>
      <trkpt lat="42.72747" lon="2.74079">
        <ele>177.7</ele>
        <time>2021-03-28T12:31:12Z</time>
      </trkpt>
      <trkpt lat="42.72747" lon="2.74079">
        <ele>177.7</ele>
        <time>2021-03-28T12:31:12Z</time>
      </trkpt>
      <trkpt lat="42.72751" lon="2.74077">
        <ele>178</ele>
        <time>2021-03-28T12:31:14Z</time>
      </trkpt>
      <trkpt lat="42.72751" lon="2.74077">
        <ele>178</ele>
        <time>2021-03-28T12:31:14Z</time>
      </trkpt>
      <trkpt lat="42.72754" lon="2.74075">
        <ele>178.6</ele>
        <time>2021-03-28T12:31:15Z</time>
      </trkpt>
      <trkpt lat="42.72754" lon="2.74075">
        <ele>178.6</ele>
        <time>2021-03-28T12:31:15Z</time>
      </trkpt>
      <trkpt lat="42.72757" lon="2.74073">
        <ele>179</ele>
        <time>2021-03-28T12:31:17Z</time>
      </trkpt>
      <trkpt lat="42.72757" lon="2.74073">
        <ele>179</ele>
        <time>2021-03-28T12:31:17Z</time>
      </trkpt>
      <trkpt lat="42.72759" lon="2.74071">
        <ele>179.4</ele>
        <time>2021-03-28T12:31:18Z</time>
      </trkpt>
      <trkpt lat="42.72759" lon="2.74071">
        <ele>179.4</ele>
        <time>2021-03-28T12:31:18Z</time>
      </trkpt>
      <trkpt lat="42.72762" lon="2.7407">
        <ele>179.6</ele>
        <time>2021-03-28T12:31:19Z</time>
      </trkpt>
      <trkpt lat="42.72762" lon="2.7407">
        <ele>179.6</ele>
        <time>2021-03-28T12:31:19Z</time>
      </trkpt>
      <trkpt lat="42.72764" lon="2.74068">
        <ele>179.9</ele>
        <time>2021-03-28T12:31:21Z</time>
      </trkpt>
      <trkpt lat="42.72764" lon="2.74068">
        <ele>179.9</ele>
        <time>2021-03-28T12:31:21Z</time>
      </trkpt>
      <trkpt lat="42.72767" lon="2.74067">
        <ele>180</ele>
        <time>2021-03-28T12:31:22Z</time>
      </trkpt>
      <trkpt lat="42.72767" lon="2.74067">
        <ele>180</ele>
        <time>2021-03-28T12:31:22Z</time>
      </trkpt>
      <trkpt lat="42.72769" lon="2.74065">
        <ele>180.1</ele>
        <time>2021-03-28T12:31:23Z</time>
      </trkpt>
      <trkpt lat="42.72769" lon="2.74065">
        <ele>180.1</ele>
        <time>2021-03-28T12:31:23Z</time>
      </trkpt>
      <trkpt lat="42.72772" lon="2.74064">
        <ele>180.2</ele>
        <time>2021-03-28T12:31:25Z</time>
      </trkpt>
      <trkpt lat="42.72772" lon="2.74064">
        <ele>180.2</ele>
        <time>2021-03-28T12:31:25Z</time>
      </trkpt>
      <trkpt lat="42.72775" lon="2.74062">
        <ele>180.2</ele>
        <time>2021-03-28T12:31:26Z</time>
      </trkpt>
      <trkpt lat="42.72775" lon="2.74062">
        <ele>180.2</ele>
        <time>2021-03-28T12:31:26Z</time>
      </trkpt>
      <trkpt lat="42.72777" lon="2.7406">
        <ele>180.2</ele>
        <time>2021-03-28T12:31:28Z</time>
      </trkpt>
      <trkpt lat="42.72777" lon="2.7406">
        <ele>180.2</ele>
        <time>2021-03-28T12:31:28Z</time>
      </trkpt>
      <trkpt lat="42.7278" lon="2.74058">
        <ele>180.3</ele>
        <time>2021-03-28T12:31:29Z</time>
      </trkpt>
      <trkpt lat="42.7278" lon="2.74058">
        <ele>180.3</ele>
        <time>2021-03-28T12:31:29Z</time>
      </trkpt>
      <trkpt lat="42.72782" lon="2.74055">
        <ele>180.5</ele>
        <time>2021-03-28T12:31:31Z</time>
      </trkpt>
      <trkpt lat="42.72782" lon="2.74055">
        <ele>180.5</ele>
        <time>2021-03-28T12:31:31Z</time>
      </trkpt>
      <trkpt lat="42.72785" lon="2.74052">
        <ele>180.9</ele>
        <time>2021-03-28T12:31:33Z</time>
      </trkpt>
      <trkpt lat="42.72785" lon="2.74052">
        <ele>180.9</ele>
        <time>2021-03-28T12:31:33Z</time>
      </trkpt>
      <trkpt lat="42.72788" lon="2.74047">
        <ele>181.2</ele>
        <time>2021-03-28T12:31:35Z</time>
      </trkpt>
      <trkpt lat="42.72788" lon="2.74047">
        <ele>181.2</ele>
        <time>2021-03-28T12:31:35Z</time>
      </trkpt>
      <trkpt lat="42.72792" lon="2.74041">
        <ele>181.2</ele>
        <time>2021-03-28T12:31:37Z</time>
      </trkpt>
      <trkpt lat="42.72792" lon="2.74041">
        <ele>181.2</ele>
        <time>2021-03-28T12:31:37Z</time>
      </trkpt>
      <trkpt lat="42.72794" lon="2.74036">
        <ele>181.1</ele>
        <time>2021-03-28T12:31:38Z</time>
      </trkpt>
      <trkpt lat="42.72794" lon="2.74036">
        <ele>181.1</ele>
        <time>2021-03-28T12:31:38Z</time>
      </trkpt>
      <trkpt lat="42.72797" lon="2.7403">
        <ele>180.7</ele>
        <time>2021-03-28T12:31:40Z</time>
      </trkpt>
      <trkpt lat="42.72797" lon="2.7403">
        <ele>180.7</ele>
        <time>2021-03-28T12:31:40Z</time>
      </trkpt>
      <trkpt lat="42.72801" lon="2.74023">
        <ele>180.5</ele>
        <time>2021-03-28T12:31:42Z</time>
      </trkpt>
      <trkpt lat="42.72801" lon="2.74023">
        <ele>180.5</ele>
        <time>2021-03-28T12:31:42Z</time>
      </trkpt>
      <trkpt lat="42.72804" lon="2.74016">
        <ele>180.6</ele>
        <time>2021-03-28T12:31:44Z</time>
      </trkpt>
      <trkpt lat="42.72804" lon="2.74016">
        <ele>180.6</ele>
        <time>2021-03-28T12:31:44Z</time>
      </trkpt>
      <trkpt lat="42.72807" lon="2.7401">
        <ele>180.4</ele>
        <time>2021-03-28T12:31:45Z</time>
      </trkpt>
      <trkpt lat="42.72807" lon="2.7401">
        <ele>180.4</ele>
        <time>2021-03-28T12:31:45Z</time>
      </trkpt>
      <trkpt lat="42.72809" lon="2.74004">
        <ele>180.1</ele>
        <time>2021-03-28T12:31:46Z</time>
      </trkpt>
      <trkpt lat="42.72809" lon="2.74004">
        <ele>180.1</ele>
        <time>2021-03-28T12:31:46Z</time>
      </trkpt>
      <trkpt lat="42.72813" lon="2.73998">
        <ele>179.6</ele>
        <time>2021-03-28T12:31:48Z</time>
      </trkpt>
      <trkpt lat="42.72813" lon="2.73998">
        <ele>179.6</ele>
        <time>2021-03-28T12:31:48Z</time>
      </trkpt>
      <trkpt lat="42.72816" lon="2.73992">
        <ele>179.3</ele>
        <time>2021-03-28T12:31:49Z</time>
      </trkpt>
      <trkpt lat="42.72816" lon="2.73992">
        <ele>179.3</ele>
        <time>2021-03-28T12:31:49Z</time>
      </trkpt>
      <trkpt lat="42.7282" lon="2.73986">
        <ele>178.9</ele>
        <time>2021-03-28T12:31:50Z</time>
      </trkpt>
      <trkpt lat="42.7282" lon="2.73986">
        <ele>178.9</ele>
        <time>2021-03-28T12:31:50Z</time>
      </trkpt>
      <trkpt lat="42.72825" lon="2.7398">
        <ele>178.3</ele>
        <time>2021-03-28T12:31:52Z</time>
      </trkpt>
      <trkpt lat="42.72825" lon="2.7398">
        <ele>178.3</ele>
        <time>2021-03-28T12:31:52Z</time>
      </trkpt>
      <trkpt lat="42.7283" lon="2.73974">
        <ele>177.7</ele>
        <time>2021-03-28T12:31:53Z</time>
      </trkpt>
      <trkpt lat="42.7283" lon="2.73974">
        <ele>177.7</ele>
        <time>2021-03-28T12:31:53Z</time>
      </trkpt>
      <trkpt lat="42.72835" lon="2.73969">
        <ele>177.2</ele>
        <time>2021-03-28T12:31:54Z</time>
      </trkpt>
      <trkpt lat="42.72835" lon="2.73969">
        <ele>177.2</ele>
        <time>2021-03-28T12:31:54Z</time>
      </trkpt>
      <trkpt lat="42.72842" lon="2.73965">
        <ele>177</ele>
        <time>2021-03-28T12:31:56Z</time>
      </trkpt>
      <trkpt lat="42.72842" lon="2.73965">
        <ele>177</ele>
        <time>2021-03-28T12:31:56Z</time>
      </trkpt>
      <trkpt lat="42.72849" lon="2.7396">
        <ele>176.7</ele>
        <time>2021-03-28T12:31:58Z</time>
      </trkpt>
      <trkpt lat="42.72849" lon="2.7396">
        <ele>176.7</ele>
        <time>2021-03-28T12:31:58Z</time>
      </trkpt>
      <trkpt lat="42.72856" lon="2.73956">
        <ele>176.5</ele>
        <time>2021-03-28T12:31:59Z</time>
      </trkpt>
      <trkpt lat="42.72856" lon="2.73956">
        <ele>176.5</ele>
        <time>2021-03-28T12:31:59Z</time>
      </trkpt>
      <trkpt lat="42.72863" lon="2.73953">
        <ele>176.4</ele>
        <time>2021-03-28T12:32:00Z</time>
      </trkpt>
      <trkpt lat="42.72863" lon="2.73953">
        <ele>176.4</ele>
        <time>2021-03-28T12:32:00Z</time>
      </trkpt>
      <trkpt lat="42.72871" lon="2.7395">
        <ele>176.1</ele>
        <time>2021-03-28T12:32:02Z</time>
      </trkpt>
      <trkpt lat="42.72871" lon="2.7395">
        <ele>176.1</ele>
        <time>2021-03-28T12:32:02Z</time>
      </trkpt>
      <trkpt lat="42.72881" lon="2.73948">
        <ele>175.4</ele>
        <time>2021-03-28T12:32:04Z</time>
      </trkpt>
      <trkpt lat="42.72881" lon="2.73948">
        <ele>175.4</ele>
        <time>2021-03-28T12:32:04Z</time>
      </trkpt>
      <trkpt lat="42.72889" lon="2.73946">
        <ele>174.8</ele>
        <time>2021-03-28T12:32:05Z</time>
      </trkpt>
      <trkpt lat="42.72889" lon="2.73946">
        <ele>174.8</ele>
        <time>2021-03-28T12:32:05Z</time>
      </trkpt>
      <trkpt lat="42.72898" lon="2.73943">
        <ele>174.9</ele>
        <time>2021-03-28T12:32:07Z</time>
      </trkpt>
      <trkpt lat="42.72898" lon="2.73943">
        <ele>174.9</ele>
        <time>2021-03-28T12:32:07Z</time>
      </trkpt>
      <trkpt lat="42.72907" lon="2.7394">
        <ele>175</ele>
        <time>2021-03-28T12:32:08Z</time>
      </trkpt>
      <trkpt lat="42.72907" lon="2.7394">
        <ele>175</ele>
        <time>2021-03-28T12:32:08Z</time>
      </trkpt>
      <trkpt lat="42.72914" lon="2.73935">
        <ele>175.2</ele>
        <time>2021-03-28T12:32:09Z</time>
      </trkpt>
      <trkpt lat="42.72914" lon="2.73935">
        <ele>175.2</ele>
        <time>2021-03-28T12:32:09Z</time>
      </trkpt>
      <trkpt lat="42.72923" lon="2.73927">
        <ele>174.6</ele>
        <time>2021-03-28T12:32:11Z</time>
      </trkpt>
      <trkpt lat="42.72923" lon="2.73927">
        <ele>174.6</ele>
        <time>2021-03-28T12:32:11Z</time>
      </trkpt>
      <trkpt lat="42.72933" lon="2.73919">
        <ele>172.7</ele>
        <time>2021-03-28T12:32:13Z</time>
      </trkpt>
      <trkpt lat="42.72933" lon="2.73919">
        <ele>172.7</ele>
        <time>2021-03-28T12:32:13Z</time>
      </trkpt>
      <trkpt lat="42.72946" lon="2.73912">
        <ele>170.8</ele>
        <time>2021-03-28T12:32:15Z</time>
      </trkpt>
      <trkpt lat="42.72946" lon="2.73912">
        <ele>170.8</ele>
        <time>2021-03-28T12:32:15Z</time>
      </trkpt>
      <trkpt lat="42.72956" lon="2.73906">
        <ele>170.9</ele>
        <time>2021-03-28T12:32:16Z</time>
      </trkpt>
      <trkpt lat="42.72956" lon="2.73906">
        <ele>170.9</ele>
        <time>2021-03-28T12:32:16Z</time>
      </trkpt>
      <trkpt lat="42.72965" lon="2.73902">
        <ele>170.8</ele>
        <time>2021-03-28T12:32:17Z</time>
      </trkpt>
      <trkpt lat="42.72965" lon="2.73902">
        <ele>170.8</ele>
        <time>2021-03-28T12:32:17Z</time>
      </trkpt>
      <trkpt lat="42.72976" lon="2.73897">
        <ele>170.6</ele>
        <time>2021-03-28T12:32:19Z</time>
      </trkpt>
      <trkpt lat="42.72976" lon="2.73897">
        <ele>170.6</ele>
        <time>2021-03-28T12:32:19Z</time>
      </trkpt>
      <trkpt lat="42.72986" lon="2.73891">
        <ele>170.7</ele>
        <time>2021-03-28T12:32:21Z</time>
      </trkpt>
      <trkpt lat="42.72986" lon="2.73891">
        <ele>170.7</ele>
        <time>2021-03-28T12:32:21Z</time>
      </trkpt>
      <trkpt lat="42.72995" lon="2.73885">
        <ele>171</ele>
        <time>2021-03-28T12:32:22Z</time>
      </trkpt>
      <trkpt lat="42.72995" lon="2.73885">
        <ele>171</ele>
        <time>2021-03-28T12:32:22Z</time>
      </trkpt>
      <trkpt lat="42.73005" lon="2.73878">
        <ele>170.9</ele>
        <time>2021-03-28T12:32:24Z</time>
      </trkpt>
      <trkpt lat="42.73005" lon="2.73878">
        <ele>170.9</ele>
        <time>2021-03-28T12:32:24Z</time>
      </trkpt>
      <trkpt lat="42.73013" lon="2.73871">
        <ele>170.3</ele>
        <time>2021-03-28T12:32:25Z</time>
      </trkpt>
      <trkpt lat="42.73013" lon="2.73871">
        <ele>170.3</ele>
        <time>2021-03-28T12:32:25Z</time>
      </trkpt>
      <trkpt lat="42.73021" lon="2.73864">
        <ele>169.9</ele>
        <time>2021-03-28T12:32:26Z</time>
      </trkpt>
      <trkpt lat="42.73021" lon="2.73864">
        <ele>169.9</ele>
        <time>2021-03-28T12:32:26Z</time>
      </trkpt>
      <trkpt lat="42.73028" lon="2.73858">
        <ele>169.6</ele>
        <time>2021-03-28T12:32:27Z</time>
      </trkpt>
      <trkpt lat="42.73028" lon="2.73858">
        <ele>169.6</ele>
        <time>2021-03-28T12:32:27Z</time>
      </trkpt>
      <trkpt lat="42.73036" lon="2.7385">
        <ele>169.2</ele>
        <time>2021-03-28T12:32:29Z</time>
      </trkpt>
      <trkpt lat="42.73036" lon="2.7385">
        <ele>169.2</ele>
        <time>2021-03-28T12:32:29Z</time>
      </trkpt>
      <trkpt lat="42.73045" lon="2.73839">
        <ele>169.2</ele>
        <time>2021-03-28T12:32:31Z</time>
      </trkpt>
      <trkpt lat="42.73045" lon="2.73839">
        <ele>169.2</ele>
        <time>2021-03-28T12:32:31Z</time>
      </trkpt>
      <trkpt lat="42.73055" lon="2.73828">
        <ele>169.3</ele>
        <time>2021-03-28T12:32:33Z</time>
      </trkpt>
      <trkpt lat="42.73055" lon="2.73828">
        <ele>169.3</ele>
        <time>2021-03-28T12:32:33Z</time>
      </trkpt>
      <trkpt lat="42.73063" lon="2.73817">
        <ele>168.6</ele>
        <time>2021-03-28T12:32:34Z</time>
      </trkpt>
      <trkpt lat="42.73063" lon="2.73817">
        <ele>168.6</ele>
        <time>2021-03-28T12:32:34Z</time>
      </trkpt>
      <trkpt lat="42.73071" lon="2.73805">
        <ele>168</ele>
        <time>2021-03-28T12:32:36Z</time>
      </trkpt>
      <trkpt lat="42.73071" lon="2.73805">
        <ele>168</ele>
        <time>2021-03-28T12:32:36Z</time>
      </trkpt>
      <trkpt lat="42.73079" lon="2.73794">
        <ele>167.4</ele>
        <time>2021-03-28T12:32:37Z</time>
      </trkpt>
      <trkpt lat="42.73079" lon="2.73794">
        <ele>167.4</ele>
        <time>2021-03-28T12:32:37Z</time>
      </trkpt>
      <trkpt lat="42.73086" lon="2.73781">
        <ele>167.6</ele>
        <time>2021-03-28T12:32:39Z</time>
      </trkpt>
      <trkpt lat="42.73086" lon="2.73781">
        <ele>167.6</ele>
        <time>2021-03-28T12:32:39Z</time>
      </trkpt>
      <trkpt lat="42.73093" lon="2.73766">
        <ele>167.8</ele>
        <time>2021-03-28T12:32:41Z</time>
      </trkpt>
      <trkpt lat="42.73093" lon="2.73766">
        <ele>167.8</ele>
        <time>2021-03-28T12:32:41Z</time>
      </trkpt>
      <trkpt lat="42.73099" lon="2.73752">
        <ele>167.6</ele>
        <time>2021-03-28T12:32:42Z</time>
      </trkpt>
      <trkpt lat="42.73099" lon="2.73752">
        <ele>167.6</ele>
        <time>2021-03-28T12:32:42Z</time>
      </trkpt>
      <trkpt lat="42.73105" lon="2.73737">
        <ele>166.6</ele>
        <time>2021-03-28T12:32:44Z</time>
      </trkpt>
      <trkpt lat="42.73105" lon="2.73737">
        <ele>166.6</ele>
        <time>2021-03-28T12:32:44Z</time>
      </trkpt>
      <trkpt lat="42.7311" lon="2.73725">
        <ele>166.1</ele>
        <time>2021-03-28T12:32:45Z</time>
      </trkpt>
      <trkpt lat="42.7311" lon="2.73725">
        <ele>166.1</ele>
        <time>2021-03-28T12:32:45Z</time>
      </trkpt>
      <trkpt lat="42.73115" lon="2.73712">
        <ele>165.2</ele>
        <time>2021-03-28T12:32:47Z</time>
      </trkpt>
      <trkpt lat="42.73115" lon="2.73712">
        <ele>165.2</ele>
        <time>2021-03-28T12:32:47Z</time>
      </trkpt>
      <trkpt lat="42.73121" lon="2.73699">
        <ele>164.4</ele>
        <time>2021-03-28T12:32:49Z</time>
      </trkpt>
      <trkpt lat="42.73121" lon="2.73699">
        <ele>164.4</ele>
        <time>2021-03-28T12:32:49Z</time>
      </trkpt>
      <trkpt lat="42.73128" lon="2.73688">
        <ele>164.9</ele>
        <time>2021-03-28T12:32:51Z</time>
      </trkpt>
      <trkpt lat="42.73128" lon="2.73688">
        <ele>164.9</ele>
        <time>2021-03-28T12:32:51Z</time>
      </trkpt>
      <trkpt lat="42.73133" lon="2.73678">
        <ele>165.7</ele>
        <time>2021-03-28T12:32:52Z</time>
      </trkpt>
      <trkpt lat="42.73133" lon="2.73678">
        <ele>165.7</ele>
        <time>2021-03-28T12:32:52Z</time>
      </trkpt>
      <trkpt lat="42.73137" lon="2.7367">
        <ele>165.9</ele>
        <time>2021-03-28T12:32:53Z</time>
      </trkpt>
      <trkpt lat="42.73137" lon="2.7367">
        <ele>165.9</ele>
        <time>2021-03-28T12:32:53Z</time>
      </trkpt>
      <trkpt lat="42.73142" lon="2.73661">
        <ele>166.5</ele>
        <time>2021-03-28T12:32:55Z</time>
      </trkpt>
      <trkpt lat="42.73142" lon="2.73661">
        <ele>166.5</ele>
        <time>2021-03-28T12:32:55Z</time>
      </trkpt>
      <trkpt lat="42.73147" lon="2.73651">
        <ele>167.3</ele>
        <time>2021-03-28T12:32:57Z</time>
      </trkpt>
      <trkpt lat="42.73147" lon="2.73651">
        <ele>167.3</ele>
        <time>2021-03-28T12:32:57Z</time>
      </trkpt>
      <trkpt lat="42.73151" lon="2.73643">
        <ele>167.8</ele>
        <time>2021-03-28T12:32:58Z</time>
      </trkpt>
      <trkpt lat="42.73151" lon="2.73643">
        <ele>167.8</ele>
        <time>2021-03-28T12:32:58Z</time>
      </trkpt>
      <trkpt lat="42.73155" lon="2.73637">
        <ele>167.9</ele>
        <time>2021-03-28T12:32:59Z</time>
      </trkpt>
      <trkpt lat="42.73155" lon="2.73637">
        <ele>167.9</ele>
        <time>2021-03-28T12:32:59Z</time>
      </trkpt>
      <trkpt lat="42.73158" lon="2.73631">
        <ele>167.8</ele>
        <time>2021-03-28T12:33:00Z</time>
      </trkpt>
      <trkpt lat="42.73158" lon="2.73631">
        <ele>167.8</ele>
        <time>2021-03-28T12:33:00Z</time>
      </trkpt>
      <trkpt lat="42.73162" lon="2.73624">
        <ele>167.7</ele>
        <time>2021-03-28T12:33:02Z</time>
      </trkpt>
      <trkpt lat="42.73162" lon="2.73624">
        <ele>167.7</ele>
        <time>2021-03-28T12:33:02Z</time>
      </trkpt>
      <trkpt lat="42.73165" lon="2.73618">
        <ele>167.6</ele>
        <time>2021-03-28T12:33:03Z</time>
      </trkpt>
      <trkpt lat="42.73165" lon="2.73618">
        <ele>167.6</ele>
        <time>2021-03-28T12:33:03Z</time>
      </trkpt>
      <trkpt lat="42.73168" lon="2.73612">
        <ele>167.5</ele>
        <time>2021-03-28T12:33:04Z</time>
      </trkpt>
      <trkpt lat="42.73168" lon="2.73612">
        <ele>167.5</ele>
        <time>2021-03-28T12:33:04Z</time>
      </trkpt>
      <trkpt lat="42.73172" lon="2.73606">
        <ele>167.8</ele>
        <time>2021-03-28T12:33:06Z</time>
      </trkpt>
      <trkpt lat="42.73172" lon="2.73606">
        <ele>167.8</ele>
        <time>2021-03-28T12:33:06Z</time>
      </trkpt>
      <trkpt lat="42.73175" lon="2.736">
        <ele>168.1</ele>
        <time>2021-03-28T12:33:07Z</time>
      </trkpt>
      <trkpt lat="42.73175" lon="2.736">
        <ele>168.1</ele>
        <time>2021-03-28T12:33:07Z</time>
      </trkpt>
      <trkpt lat="42.73178" lon="2.73593">
        <ele>168.5</ele>
        <time>2021-03-28T12:33:09Z</time>
      </trkpt>
      <trkpt lat="42.73178" lon="2.73593">
        <ele>168.5</ele>
        <time>2021-03-28T12:33:09Z</time>
      </trkpt>
      <trkpt lat="42.73181" lon="2.73586">
        <ele>169</ele>
        <time>2021-03-28T12:33:10Z</time>
      </trkpt>
      <trkpt lat="42.73181" lon="2.73586">
        <ele>169</ele>
        <time>2021-03-28T12:33:10Z</time>
      </trkpt>
      <trkpt lat="42.73184" lon="2.73577">
        <ele>169.3</ele>
        <time>2021-03-28T12:33:12Z</time>
      </trkpt>
      <trkpt lat="42.73184" lon="2.73577">
        <ele>169.3</ele>
        <time>2021-03-28T12:33:12Z</time>
      </trkpt>
      <trkpt lat="42.73186" lon="2.73569">
        <ele>169.6</ele>
        <time>2021-03-28T12:33:13Z</time>
      </trkpt>
      <trkpt lat="42.73186" lon="2.73569">
        <ele>169.6</ele>
        <time>2021-03-28T12:33:13Z</time>
      </trkpt>
      <trkpt lat="42.73189" lon="2.73562">
        <ele>169.7</ele>
        <time>2021-03-28T12:33:15Z</time>
      </trkpt>
      <trkpt lat="42.73189" lon="2.73562">
        <ele>169.7</ele>
        <time>2021-03-28T12:33:15Z</time>
      </trkpt>
      <trkpt lat="42.73192" lon="2.73554">
        <ele>169.9</ele>
        <time>2021-03-28T12:33:17Z</time>
      </trkpt>
      <trkpt lat="42.73192" lon="2.73554">
        <ele>169.9</ele>
        <time>2021-03-28T12:33:17Z</time>
      </trkpt>
      <trkpt lat="42.73194" lon="2.73546">
        <ele>170.1</ele>
        <time>2021-03-28T12:33:19Z</time>
      </trkpt>
      <trkpt lat="42.73194" lon="2.73546">
        <ele>170.1</ele>
        <time>2021-03-28T12:33:19Z</time>
      </trkpt>
      <trkpt lat="42.73197" lon="2.73537">
        <ele>170.3</ele>
        <time>2021-03-28T12:33:21Z</time>
      </trkpt>
      <trkpt lat="42.73197" lon="2.73537">
        <ele>170.3</ele>
        <time>2021-03-28T12:33:21Z</time>
      </trkpt>
      <trkpt lat="42.732" lon="2.73528">
        <ele>170.7</ele>
        <time>2021-03-28T12:33:23Z</time>
      </trkpt>
      <trkpt lat="42.732" lon="2.73528">
        <ele>170.7</ele>
        <time>2021-03-28T12:33:23Z</time>
      </trkpt>
      <trkpt lat="42.73203" lon="2.7352">
        <ele>171.3</ele>
        <time>2021-03-28T12:33:25Z</time>
      </trkpt>
      <trkpt lat="42.73203" lon="2.7352">
        <ele>171.3</ele>
        <time>2021-03-28T12:33:25Z</time>
      </trkpt>
      <trkpt lat="42.73206" lon="2.73512">
        <ele>171.9</ele>
        <time>2021-03-28T12:33:27Z</time>
      </trkpt>
      <trkpt lat="42.73206" lon="2.73512">
        <ele>171.9</ele>
        <time>2021-03-28T12:33:27Z</time>
      </trkpt>
      <trkpt lat="42.73208" lon="2.73504">
        <ele>172.5</ele>
        <time>2021-03-28T12:33:28Z</time>
      </trkpt>
      <trkpt lat="42.73208" lon="2.73504">
        <ele>172.5</ele>
        <time>2021-03-28T12:33:28Z</time>
      </trkpt>
      <trkpt lat="42.7321" lon="2.73497">
        <ele>173.1</ele>
        <time>2021-03-28T12:33:30Z</time>
      </trkpt>
      <trkpt lat="42.7321" lon="2.73497">
        <ele>173.1</ele>
        <time>2021-03-28T12:33:30Z</time>
      </trkpt>
      <trkpt lat="42.73212" lon="2.7349">
        <ele>173.6</ele>
        <time>2021-03-28T12:33:31Z</time>
      </trkpt>
      <trkpt lat="42.73212" lon="2.7349">
        <ele>173.6</ele>
        <time>2021-03-28T12:33:31Z</time>
      </trkpt>
      <trkpt lat="42.73214" lon="2.73484">
        <ele>173.9</ele>
        <time>2021-03-28T12:33:32Z</time>
      </trkpt>
      <trkpt lat="42.73214" lon="2.73484">
        <ele>173.9</ele>
        <time>2021-03-28T12:33:32Z</time>
      </trkpt>
      <trkpt lat="42.73216" lon="2.73479">
        <ele>174.1</ele>
        <time>2021-03-28T12:33:33Z</time>
      </trkpt>
      <trkpt lat="42.73216" lon="2.73479">
        <ele>174.1</ele>
        <time>2021-03-28T12:33:33Z</time>
      </trkpt>
      <trkpt lat="42.73218" lon="2.73475">
        <ele>174.2</ele>
        <time>2021-03-28T12:33:34Z</time>
      </trkpt>
      <trkpt lat="42.73218" lon="2.73475">
        <ele>174.2</ele>
        <time>2021-03-28T12:33:34Z</time>
      </trkpt>
      <trkpt lat="42.7322" lon="2.73469">
        <ele>174</ele>
        <time>2021-03-28T12:33:36Z</time>
      </trkpt>
      <trkpt lat="42.7322" lon="2.73469">
        <ele>174</ele>
        <time>2021-03-28T12:33:36Z</time>
      </trkpt>
      <trkpt lat="42.73222" lon="2.73464">
        <ele>173.6</ele>
        <time>2021-03-28T12:33:37Z</time>
      </trkpt>
      <trkpt lat="42.73222" lon="2.73464">
        <ele>173.6</ele>
        <time>2021-03-28T12:33:37Z</time>
      </trkpt>
      <trkpt lat="42.73225" lon="2.73459">
        <ele>173.6</ele>
        <time>2021-03-28T12:33:39Z</time>
      </trkpt>
      <trkpt lat="42.73225" lon="2.73459">
        <ele>173.6</ele>
        <time>2021-03-28T12:33:39Z</time>
      </trkpt>
      <trkpt lat="42.73229" lon="2.73452">
        <ele>173.7</ele>
        <time>2021-03-28T12:33:41Z</time>
      </trkpt>
      <trkpt lat="42.73229" lon="2.73452">
        <ele>173.7</ele>
        <time>2021-03-28T12:33:41Z</time>
      </trkpt>
      <trkpt lat="42.73233" lon="2.73446">
        <ele>174.1</ele>
        <time>2021-03-28T12:33:43Z</time>
      </trkpt>
      <trkpt lat="42.73233" lon="2.73446">
        <ele>174.1</ele>
        <time>2021-03-28T12:33:43Z</time>
      </trkpt>
      <trkpt lat="42.73237" lon="2.7344">
        <ele>175</ele>
        <time>2021-03-28T12:33:44Z</time>
      </trkpt>
      <trkpt lat="42.73237" lon="2.7344">
        <ele>175</ele>
        <time>2021-03-28T12:33:44Z</time>
      </trkpt>
      <trkpt lat="42.73241" lon="2.73434">
        <ele>175.8</ele>
        <time>2021-03-28T12:33:46Z</time>
      </trkpt>
      <trkpt lat="42.73241" lon="2.73434">
        <ele>175.8</ele>
        <time>2021-03-28T12:33:46Z</time>
      </trkpt>
      <trkpt lat="42.73244" lon="2.73429">
        <ele>176.4</ele>
        <time>2021-03-28T12:33:47Z</time>
      </trkpt>
      <trkpt lat="42.73244" lon="2.73429">
        <ele>176.4</ele>
        <time>2021-03-28T12:33:47Z</time>
      </trkpt>
      <trkpt lat="42.73248" lon="2.73424">
        <ele>177</ele>
        <time>2021-03-28T12:33:49Z</time>
      </trkpt>
      <trkpt lat="42.73248" lon="2.73424">
        <ele>177</ele>
        <time>2021-03-28T12:33:49Z</time>
      </trkpt>
      <trkpt lat="42.73253" lon="2.73418">
        <ele>177.2</ele>
        <time>2021-03-28T12:33:51Z</time>
      </trkpt>
      <trkpt lat="42.73253" lon="2.73418">
        <ele>177.2</ele>
        <time>2021-03-28T12:33:51Z</time>
      </trkpt>
      <trkpt lat="42.73257" lon="2.73412">
        <ele>177.3</ele>
        <time>2021-03-28T12:33:53Z</time>
      </trkpt>
      <trkpt lat="42.73257" lon="2.73412">
        <ele>177.3</ele>
        <time>2021-03-28T12:33:53Z</time>
      </trkpt>
      <trkpt lat="42.73261" lon="2.73408">
        <ele>177.4</ele>
        <time>2021-03-28T12:33:54Z</time>
      </trkpt>
      <trkpt lat="42.73261" lon="2.73408">
        <ele>177.4</ele>
        <time>2021-03-28T12:33:54Z</time>
      </trkpt>
      <trkpt lat="42.73266" lon="2.73403">
        <ele>177.4</ele>
        <time>2021-03-28T12:33:56Z</time>
      </trkpt>
      <trkpt lat="42.73266" lon="2.73403">
        <ele>177.4</ele>
        <time>2021-03-28T12:33:56Z</time>
      </trkpt>
      <trkpt lat="42.7327" lon="2.73399">
        <ele>177.4</ele>
        <time>2021-03-28T12:33:57Z</time>
      </trkpt>
      <trkpt lat="42.7327" lon="2.73399">
        <ele>177.4</ele>
        <time>2021-03-28T12:33:57Z</time>
      </trkpt>
      <trkpt lat="42.73274" lon="2.73395">
        <ele>177.4</ele>
        <time>2021-03-28T12:33:58Z</time>
      </trkpt>
      <trkpt lat="42.73274" lon="2.73395">
        <ele>177.4</ele>
        <time>2021-03-28T12:33:58Z</time>
      </trkpt>
      <trkpt lat="42.73279" lon="2.73391">
        <ele>177.4</ele>
        <time>2021-03-28T12:34:00Z</time>
      </trkpt>
      <trkpt lat="42.73279" lon="2.73391">
        <ele>177.4</ele>
        <time>2021-03-28T12:34:00Z</time>
      </trkpt>
      <trkpt lat="42.73284" lon="2.73387">
        <ele>177.6</ele>
        <time>2021-03-28T12:34:02Z</time>
      </trkpt>
      <trkpt lat="42.73284" lon="2.73387">
        <ele>177.6</ele>
        <time>2021-03-28T12:34:02Z</time>
      </trkpt>
      <trkpt lat="42.73289" lon="2.73384">
        <ele>177.9</ele>
        <time>2021-03-28T12:34:03Z</time>
      </trkpt>
      <trkpt lat="42.73289" lon="2.73384">
        <ele>177.9</ele>
        <time>2021-03-28T12:34:03Z</time>
      </trkpt>
      <trkpt lat="42.73294" lon="2.73381">
        <ele>178.1</ele>
        <time>2021-03-28T12:34:05Z</time>
      </trkpt>
      <trkpt lat="42.73294" lon="2.73381">
        <ele>178.1</ele>
        <time>2021-03-28T12:34:05Z</time>
      </trkpt>
      <trkpt lat="42.73299" lon="2.73377">
        <ele>178.5</ele>
        <time>2021-03-28T12:34:07Z</time>
      </trkpt>
      <trkpt lat="42.73299" lon="2.73377">
        <ele>178.5</ele>
        <time>2021-03-28T12:34:07Z</time>
      </trkpt>
      <trkpt lat="42.73304" lon="2.73374">
        <ele>178.9</ele>
        <time>2021-03-28T12:34:09Z</time>
      </trkpt>
      <trkpt lat="42.73304" lon="2.73374">
        <ele>178.9</ele>
        <time>2021-03-28T12:34:09Z</time>
      </trkpt>
      <trkpt lat="42.73308" lon="2.73371">
        <ele>178.9</ele>
        <time>2021-03-28T12:34:10Z</time>
      </trkpt>
      <trkpt lat="42.73308" lon="2.73371">
        <ele>178.9</ele>
        <time>2021-03-28T12:34:10Z</time>
      </trkpt>
      <trkpt lat="42.73313" lon="2.73368">
        <ele>178.5</ele>
        <time>2021-03-28T12:34:12Z</time>
      </trkpt>
      <trkpt lat="42.73313" lon="2.73368">
        <ele>178.5</ele>
        <time>2021-03-28T12:34:12Z</time>
      </trkpt>
      <trkpt lat="42.73318" lon="2.73365">
        <ele>178.3</ele>
        <time>2021-03-28T12:34:14Z</time>
      </trkpt>
      <trkpt lat="42.73318" lon="2.73365">
        <ele>178.3</ele>
        <time>2021-03-28T12:34:14Z</time>
      </trkpt>
      <trkpt lat="42.73323" lon="2.73361">
        <ele>178.2</ele>
        <time>2021-03-28T12:34:15Z</time>
      </trkpt>
      <trkpt lat="42.73323" lon="2.73361">
        <ele>178.2</ele>
        <time>2021-03-28T12:34:15Z</time>
      </trkpt>
      <trkpt lat="42.73328" lon="2.73358">
        <ele>178.4</ele>
        <time>2021-03-28T12:34:17Z</time>
      </trkpt>
      <trkpt lat="42.73328" lon="2.73358">
        <ele>178.4</ele>
        <time>2021-03-28T12:34:17Z</time>
      </trkpt>
      <trkpt lat="42.73332" lon="2.73355">
        <ele>178.4</ele>
        <time>2021-03-28T12:34:19Z</time>
      </trkpt>
      <trkpt lat="42.73332" lon="2.73355">
        <ele>178.4</ele>
        <time>2021-03-28T12:34:19Z</time>
      </trkpt>
      <trkpt lat="42.73336" lon="2.73352">
        <ele>178.2</ele>
        <time>2021-03-28T12:34:20Z</time>
      </trkpt>
      <trkpt lat="42.73336" lon="2.73352">
        <ele>178.2</ele>
        <time>2021-03-28T12:34:20Z</time>
      </trkpt>
      <trkpt lat="42.73341" lon="2.73349">
        <ele>178</ele>
        <time>2021-03-28T12:34:22Z</time>
      </trkpt>
      <trkpt lat="42.73341" lon="2.73349">
        <ele>178</ele>
        <time>2021-03-28T12:34:22Z</time>
      </trkpt>
      <trkpt lat="42.73347" lon="2.73344">
        <ele>178</ele>
        <time>2021-03-28T12:34:24Z</time>
      </trkpt>
      <trkpt lat="42.73347" lon="2.73344">
        <ele>178</ele>
        <time>2021-03-28T12:34:24Z</time>
      </trkpt>
      <trkpt lat="42.73353" lon="2.73339">
        <ele>177.9</ele>
        <time>2021-03-28T12:34:26Z</time>
      </trkpt>
      <trkpt lat="42.73353" lon="2.73339">
        <ele>177.9</ele>
        <time>2021-03-28T12:34:26Z</time>
      </trkpt>
      <trkpt lat="42.7336" lon="2.73334">
        <ele>178.2</ele>
        <time>2021-03-28T12:34:28Z</time>
      </trkpt>
      <trkpt lat="42.7336" lon="2.73334">
        <ele>178.2</ele>
        <time>2021-03-28T12:34:28Z</time>
      </trkpt>
      <trkpt lat="42.73366" lon="2.73329">
        <ele>178.1</ele>
        <time>2021-03-28T12:34:29Z</time>
      </trkpt>
      <trkpt lat="42.73366" lon="2.73329">
        <ele>178.1</ele>
        <time>2021-03-28T12:34:29Z</time>
      </trkpt>
      <trkpt lat="42.73371" lon="2.73325">
        <ele>178</ele>
        <time>2021-03-28T12:34:30Z</time>
      </trkpt>
      <trkpt lat="42.73371" lon="2.73325">
        <ele>178</ele>
        <time>2021-03-28T12:34:30Z</time>
      </trkpt>
      <trkpt lat="42.73377" lon="2.7332">
        <ele>177.8</ele>
        <time>2021-03-28T12:34:32Z</time>
      </trkpt>
      <trkpt lat="42.73377" lon="2.7332">
        <ele>177.8</ele>
        <time>2021-03-28T12:34:32Z</time>
      </trkpt>
      <trkpt lat="42.73382" lon="2.73315">
        <ele>178</ele>
        <time>2021-03-28T12:34:33Z</time>
      </trkpt>
      <trkpt lat="42.73382" lon="2.73315">
        <ele>178</ele>
        <time>2021-03-28T12:34:33Z</time>
      </trkpt>
      <trkpt lat="42.73388" lon="2.7331">
        <ele>178.1</ele>
        <time>2021-03-28T12:34:35Z</time>
      </trkpt>
      <trkpt lat="42.73388" lon="2.7331">
        <ele>178.1</ele>
        <time>2021-03-28T12:34:35Z</time>
      </trkpt>
      <trkpt lat="42.73394" lon="2.73303">
        <ele>178.4</ele>
        <time>2021-03-28T12:34:37Z</time>
      </trkpt>
      <trkpt lat="42.73394" lon="2.73303">
        <ele>178.4</ele>
        <time>2021-03-28T12:34:37Z</time>
      </trkpt>
      <trkpt lat="42.734" lon="2.73295">
        <ele>178.3</ele>
        <time>2021-03-28T12:34:39Z</time>
      </trkpt>
      <trkpt lat="42.734" lon="2.73295">
        <ele>178.3</ele>
        <time>2021-03-28T12:34:39Z</time>
      </trkpt>
      <trkpt lat="42.73407" lon="2.73286">
        <ele>178.4</ele>
        <time>2021-03-28T12:34:41Z</time>
      </trkpt>
      <trkpt lat="42.73407" lon="2.73286">
        <ele>178.4</ele>
        <time>2021-03-28T12:34:41Z</time>
      </trkpt>
      <trkpt lat="42.73413" lon="2.73275">
        <ele>178.5</ele>
        <time>2021-03-28T12:34:43Z</time>
      </trkpt>
      <trkpt lat="42.73413" lon="2.73275">
        <ele>178.5</ele>
        <time>2021-03-28T12:34:43Z</time>
      </trkpt>
      <trkpt lat="42.73418" lon="2.73267">
        <ele>178.3</ele>
        <time>2021-03-28T12:34:44Z</time>
      </trkpt>
      <trkpt lat="42.73418" lon="2.73267">
        <ele>178.3</ele>
        <time>2021-03-28T12:34:44Z</time>
      </trkpt>
      <trkpt lat="42.73424" lon="2.73256">
        <ele>178.4</ele>
        <time>2021-03-28T12:34:46Z</time>
      </trkpt>
      <trkpt lat="42.73424" lon="2.73256">
        <ele>178.4</ele>
        <time>2021-03-28T12:34:46Z</time>
      </trkpt>
      <trkpt lat="42.7343" lon="2.73246">
        <ele>178.4</ele>
        <time>2021-03-28T12:34:48Z</time>
      </trkpt>
      <trkpt lat="42.7343" lon="2.73246">
        <ele>178.4</ele>
        <time>2021-03-28T12:34:48Z</time>
      </trkpt>
      <trkpt lat="42.73436" lon="2.73234">
        <ele>178.4</ele>
        <time>2021-03-28T12:34:50Z</time>
      </trkpt>
      <trkpt lat="42.73436" lon="2.73234">
        <ele>178.4</ele>
        <time>2021-03-28T12:34:50Z</time>
      </trkpt>
      <trkpt lat="42.73443" lon="2.73225">
        <ele>178.1</ele>
        <time>2021-03-28T12:34:51Z</time>
      </trkpt>
      <trkpt lat="42.73443" lon="2.73225">
        <ele>178.1</ele>
        <time>2021-03-28T12:34:51Z</time>
      </trkpt>
      <trkpt lat="42.73449" lon="2.73218">
        <ele>177.6</ele>
        <time>2021-03-28T12:34:52Z</time>
      </trkpt>
      <trkpt lat="42.73449" lon="2.73218">
        <ele>177.6</ele>
        <time>2021-03-28T12:34:52Z</time>
      </trkpt>
      <trkpt lat="42.73457" lon="2.73212">
        <ele>176.6</ele>
        <time>2021-03-28T12:34:54Z</time>
      </trkpt>
      <trkpt lat="42.73457" lon="2.73212">
        <ele>176.6</ele>
        <time>2021-03-28T12:34:54Z</time>
      </trkpt>
      <trkpt lat="42.73465" lon="2.73209">
        <ele>175.7</ele>
        <time>2021-03-28T12:34:55Z</time>
      </trkpt>
      <trkpt lat="42.73465" lon="2.73209">
        <ele>175.7</ele>
        <time>2021-03-28T12:34:55Z</time>
      </trkpt>
      <trkpt lat="42.73472" lon="2.73207">
        <ele>174.7</ele>
        <time>2021-03-28T12:34:56Z</time>
      </trkpt>
      <trkpt lat="42.73472" lon="2.73207">
        <ele>174.7</ele>
        <time>2021-03-28T12:34:56Z</time>
      </trkpt>
      <trkpt lat="42.7348" lon="2.73206">
        <ele>175.2</ele>
        <time>2021-03-28T12:34:58Z</time>
      </trkpt>
      <trkpt lat="42.7348" lon="2.73206">
        <ele>175.2</ele>
        <time>2021-03-28T12:34:58Z</time>
      </trkpt>
      <trkpt lat="42.73488" lon="2.73205">
        <ele>175.8</ele>
        <time>2021-03-28T12:34:59Z</time>
      </trkpt>
      <trkpt lat="42.73488" lon="2.73205">
        <ele>175.8</ele>
        <time>2021-03-28T12:34:59Z</time>
      </trkpt>
      <trkpt lat="42.73494" lon="2.73203">
        <ele>176.4</ele>
        <time>2021-03-28T12:35:00Z</time>
      </trkpt>
      <trkpt lat="42.73494" lon="2.73203">
        <ele>176.4</ele>
        <time>2021-03-28T12:35:00Z</time>
      </trkpt>
      <trkpt lat="42.73501" lon="2.73201">
        <ele>177</ele>
        <time>2021-03-28T12:35:01Z</time>
      </trkpt>
      <trkpt lat="42.73501" lon="2.73201">
        <ele>177</ele>
        <time>2021-03-28T12:35:01Z</time>
      </trkpt>
      <trkpt lat="42.73509" lon="2.73198">
        <ele>176.7</ele>
        <time>2021-03-28T12:35:03Z</time>
      </trkpt>
      <trkpt lat="42.73509" lon="2.73198">
        <ele>176.7</ele>
        <time>2021-03-28T12:35:03Z</time>
      </trkpt>
      <trkpt lat="42.73516" lon="2.73195">
        <ele>176.3</ele>
        <time>2021-03-28T12:35:04Z</time>
      </trkpt>
      <trkpt lat="42.73516" lon="2.73195">
        <ele>176.3</ele>
        <time>2021-03-28T12:35:04Z</time>
      </trkpt>
      <trkpt lat="42.73524" lon="2.73192">
        <ele>176.1</ele>
        <time>2021-03-28T12:35:06Z</time>
      </trkpt>
      <trkpt lat="42.73524" lon="2.73192">
        <ele>176.1</ele>
        <time>2021-03-28T12:35:06Z</time>
      </trkpt>
      <trkpt lat="42.73533" lon="2.73187">
        <ele>176.6</ele>
        <time>2021-03-28T12:35:08Z</time>
      </trkpt>
      <trkpt lat="42.73533" lon="2.73187">
        <ele>176.6</ele>
        <time>2021-03-28T12:35:08Z</time>
      </trkpt>
      <trkpt lat="42.73543" lon="2.73182">
        <ele>176.9</ele>
        <time>2021-03-28T12:35:10Z</time>
      </trkpt>
      <trkpt lat="42.73543" lon="2.73182">
        <ele>176.9</ele>
        <time>2021-03-28T12:35:10Z</time>
      </trkpt>
      <trkpt lat="42.73553" lon="2.73177">
        <ele>176.6</ele>
        <time>2021-03-28T12:35:11Z</time>
      </trkpt>
      <trkpt lat="42.73553" lon="2.73177">
        <ele>176.6</ele>
        <time>2021-03-28T12:35:11Z</time>
      </trkpt>
      <trkpt lat="42.73561" lon="2.73172">
        <ele>176.3</ele>
        <time>2021-03-28T12:35:12Z</time>
      </trkpt>
      <trkpt lat="42.73561" lon="2.73172">
        <ele>176.3</ele>
        <time>2021-03-28T12:35:12Z</time>
      </trkpt>
      <trkpt lat="42.73569" lon="2.73168">
        <ele>176</ele>
        <time>2021-03-28T12:35:13Z</time>
      </trkpt>
      <trkpt lat="42.73569" lon="2.73168">
        <ele>176</ele>
        <time>2021-03-28T12:35:13Z</time>
      </trkpt>
      <trkpt lat="42.73577" lon="2.73163">
        <ele>175.8</ele>
        <time>2021-03-28T12:35:15Z</time>
      </trkpt>
      <trkpt lat="42.73577" lon="2.73163">
        <ele>175.8</ele>
        <time>2021-03-28T12:35:15Z</time>
      </trkpt>
      <trkpt lat="42.73586" lon="2.73159">
        <ele>175.6</ele>
        <time>2021-03-28T12:35:17Z</time>
      </trkpt>
      <trkpt lat="42.73586" lon="2.73159">
        <ele>175.6</ele>
        <time>2021-03-28T12:35:17Z</time>
      </trkpt>
      <trkpt lat="42.73593" lon="2.73155">
        <ele>176</ele>
        <time>2021-03-28T12:35:18Z</time>
      </trkpt>
      <trkpt lat="42.73593" lon="2.73155">
        <ele>176</ele>
        <time>2021-03-28T12:35:18Z</time>
      </trkpt>
      <trkpt lat="42.73601" lon="2.73151">
        <ele>176.4</ele>
        <time>2021-03-28T12:35:20Z</time>
      </trkpt>
      <trkpt lat="42.73601" lon="2.73151">
        <ele>176.4</ele>
        <time>2021-03-28T12:35:20Z</time>
      </trkpt>
      <trkpt lat="42.73609" lon="2.73147">
        <ele>176.7</ele>
        <time>2021-03-28T12:35:21Z</time>
      </trkpt>
      <trkpt lat="42.73609" lon="2.73147">
        <ele>176.7</ele>
        <time>2021-03-28T12:35:21Z</time>
      </trkpt>
      <trkpt lat="42.73616" lon="2.73144">
        <ele>176.9</ele>
        <time>2021-03-28T12:35:23Z</time>
      </trkpt>
      <trkpt lat="42.73616" lon="2.73144">
        <ele>176.9</ele>
        <time>2021-03-28T12:35:23Z</time>
      </trkpt>
      <trkpt lat="42.73623" lon="2.73141">
        <ele>177</ele>
        <time>2021-03-28T12:35:24Z</time>
      </trkpt>
      <trkpt lat="42.73623" lon="2.73141">
        <ele>177</ele>
        <time>2021-03-28T12:35:24Z</time>
      </trkpt>
      <trkpt lat="42.73628" lon="2.73139">
        <ele>177</ele>
        <time>2021-03-28T12:35:25Z</time>
      </trkpt>
      <trkpt lat="42.73628" lon="2.73139">
        <ele>177</ele>
        <time>2021-03-28T12:35:25Z</time>
      </trkpt>
      <trkpt lat="42.73635" lon="2.73136">
        <ele>177.2</ele>
        <time>2021-03-28T12:35:27Z</time>
      </trkpt>
      <trkpt lat="42.73635" lon="2.73136">
        <ele>177.2</ele>
        <time>2021-03-28T12:35:27Z</time>
      </trkpt>
      <trkpt lat="42.73642" lon="2.73133">
        <ele>177.5</ele>
        <time>2021-03-28T12:35:29Z</time>
      </trkpt>
      <trkpt lat="42.73642" lon="2.73133">
        <ele>177.5</ele>
        <time>2021-03-28T12:35:29Z</time>
      </trkpt>
      <trkpt lat="42.7365" lon="2.73129">
        <ele>177.8</ele>
        <time>2021-03-28T12:35:31Z</time>
      </trkpt>
      <trkpt lat="42.7365" lon="2.73129">
        <ele>177.8</ele>
        <time>2021-03-28T12:35:31Z</time>
      </trkpt>
      <trkpt lat="42.73657" lon="2.73125">
        <ele>178.4</ele>
        <time>2021-03-28T12:35:33Z</time>
      </trkpt>
      <trkpt lat="42.73657" lon="2.73125">
        <ele>178.4</ele>
        <time>2021-03-28T12:35:33Z</time>
      </trkpt>
      <trkpt lat="42.73665" lon="2.7312">
        <ele>179</ele>
        <time>2021-03-28T12:35:35Z</time>
      </trkpt>
      <trkpt lat="42.73665" lon="2.7312">
        <ele>179</ele>
        <time>2021-03-28T12:35:35Z</time>
      </trkpt>
      <trkpt lat="42.73671" lon="2.73116">
        <ele>179.2</ele>
        <time>2021-03-28T12:35:36Z</time>
      </trkpt>
      <trkpt lat="42.73671" lon="2.73116">
        <ele>179.2</ele>
        <time>2021-03-28T12:35:36Z</time>
      </trkpt>
      <trkpt lat="42.73677" lon="2.73112">
        <ele>179.2</ele>
        <time>2021-03-28T12:35:37Z</time>
      </trkpt>
      <trkpt lat="42.73677" lon="2.73112">
        <ele>179.2</ele>
        <time>2021-03-28T12:35:37Z</time>
      </trkpt>
      <trkpt lat="42.73684" lon="2.73109">
        <ele>179.2</ele>
        <time>2021-03-28T12:35:39Z</time>
      </trkpt>
      <trkpt lat="42.73684" lon="2.73109">
        <ele>179.2</ele>
        <time>2021-03-28T12:35:39Z</time>
      </trkpt>
      <trkpt lat="42.73691" lon="2.73105">
        <ele>179.3</ele>
        <time>2021-03-28T12:35:41Z</time>
      </trkpt>
      <trkpt lat="42.73691" lon="2.73105">
        <ele>179.3</ele>
        <time>2021-03-28T12:35:41Z</time>
      </trkpt>
      <trkpt lat="42.73699" lon="2.73102">
        <ele>179.6</ele>
        <time>2021-03-28T12:35:43Z</time>
      </trkpt>
      <trkpt lat="42.73699" lon="2.73102">
        <ele>179.6</ele>
        <time>2021-03-28T12:35:43Z</time>
      </trkpt>
      <trkpt lat="42.73706" lon="2.73099">
        <ele>179.9</ele>
        <time>2021-03-28T12:35:44Z</time>
      </trkpt>
      <trkpt lat="42.73706" lon="2.73099">
        <ele>179.9</ele>
        <time>2021-03-28T12:35:44Z</time>
      </trkpt>
      <trkpt lat="42.73713" lon="2.73097">
        <ele>180.2</ele>
        <time>2021-03-28T12:35:46Z</time>
      </trkpt>
      <trkpt lat="42.73713" lon="2.73097">
        <ele>180.2</ele>
        <time>2021-03-28T12:35:46Z</time>
      </trkpt>
      <trkpt lat="42.7372" lon="2.73095">
        <ele>180.4</ele>
        <time>2021-03-28T12:35:48Z</time>
      </trkpt>
      <trkpt lat="42.7372" lon="2.73095">
        <ele>180.4</ele>
        <time>2021-03-28T12:35:48Z</time>
      </trkpt>
      <trkpt lat="42.73726" lon="2.73093">
        <ele>180.9</ele>
        <time>2021-03-28T12:35:49Z</time>
      </trkpt>
      <trkpt lat="42.73726" lon="2.73093">
        <ele>180.9</ele>
        <time>2021-03-28T12:35:49Z</time>
      </trkpt>
      <trkpt lat="42.73733" lon="2.73092">
        <ele>181.6</ele>
        <time>2021-03-28T12:35:51Z</time>
      </trkpt>
      <trkpt lat="42.73733" lon="2.73092">
        <ele>181.6</ele>
        <time>2021-03-28T12:35:51Z</time>
      </trkpt>
      <trkpt lat="42.7374" lon="2.73092">
        <ele>182.3</ele>
        <time>2021-03-28T12:35:53Z</time>
      </trkpt>
      <trkpt lat="42.7374" lon="2.73092">
        <ele>182.3</ele>
        <time>2021-03-28T12:35:53Z</time>
      </trkpt>
      <trkpt lat="42.73747" lon="2.73089">
        <ele>183.1</ele>
        <time>2021-03-28T12:35:55Z</time>
      </trkpt>
      <trkpt lat="42.73747" lon="2.73089">
        <ele>183.1</ele>
        <time>2021-03-28T12:35:55Z</time>
      </trkpt>
      <trkpt lat="42.73753" lon="2.73087">
        <ele>183.6</ele>
        <time>2021-03-28T12:35:56Z</time>
      </trkpt>
      <trkpt lat="42.73753" lon="2.73087">
        <ele>183.6</ele>
        <time>2021-03-28T12:35:56Z</time>
      </trkpt>
      <trkpt lat="42.7376" lon="2.73085">
        <ele>183.9</ele>
        <time>2021-03-28T12:35:58Z</time>
      </trkpt>
      <trkpt lat="42.7376" lon="2.73085">
        <ele>183.9</ele>
        <time>2021-03-28T12:35:58Z</time>
      </trkpt>
      <trkpt lat="42.73766" lon="2.73083">
        <ele>184.1</ele>
        <time>2021-03-28T12:35:59Z</time>
      </trkpt>
      <trkpt lat="42.73766" lon="2.73083">
        <ele>184.1</ele>
        <time>2021-03-28T12:35:59Z</time>
      </trkpt>
      <trkpt lat="42.73771" lon="2.73081">
        <ele>184.4</ele>
        <time>2021-03-28T12:36:00Z</time>
      </trkpt>
      <trkpt lat="42.73771" lon="2.73081">
        <ele>184.4</ele>
        <time>2021-03-28T12:36:00Z</time>
      </trkpt>
      <trkpt lat="42.73777" lon="2.73078">
        <ele>184.7</ele>
        <time>2021-03-28T12:36:02Z</time>
      </trkpt>
      <trkpt lat="42.73777" lon="2.73078">
        <ele>184.7</ele>
        <time>2021-03-28T12:36:02Z</time>
      </trkpt>
      <trkpt lat="42.73784" lon="2.73075">
        <ele>184.8</ele>
        <time>2021-03-28T12:36:04Z</time>
      </trkpt>
      <trkpt lat="42.73784" lon="2.73075">
        <ele>184.8</ele>
        <time>2021-03-28T12:36:04Z</time>
      </trkpt>
      <trkpt lat="42.73791" lon="2.7307">
        <ele>184.9</ele>
        <time>2021-03-28T12:36:06Z</time>
      </trkpt>
      <trkpt lat="42.73791" lon="2.7307">
        <ele>184.9</ele>
        <time>2021-03-28T12:36:06Z</time>
      </trkpt>
      <trkpt lat="42.73797" lon="2.73066">
        <ele>185.1</ele>
        <time>2021-03-28T12:36:07Z</time>
      </trkpt>
      <trkpt lat="42.73797" lon="2.73066">
        <ele>185.1</ele>
        <time>2021-03-28T12:36:07Z</time>
      </trkpt>
      <trkpt lat="42.73804" lon="2.73061">
        <ele>185.3</ele>
        <time>2021-03-28T12:36:09Z</time>
      </trkpt>
      <trkpt lat="42.73804" lon="2.73061">
        <ele>185.3</ele>
        <time>2021-03-28T12:36:09Z</time>
      </trkpt>
      <trkpt lat="42.7381" lon="2.73056">
        <ele>185.8</ele>
        <time>2021-03-28T12:36:11Z</time>
      </trkpt>
      <trkpt lat="42.7381" lon="2.73056">
        <ele>185.8</ele>
        <time>2021-03-28T12:36:11Z</time>
      </trkpt>
      <trkpt lat="42.73816" lon="2.73051">
        <ele>186.2</ele>
        <time>2021-03-28T12:36:12Z</time>
      </trkpt>
      <trkpt lat="42.73816" lon="2.73051">
        <ele>186.2</ele>
        <time>2021-03-28T12:36:12Z</time>
      </trkpt>
      <trkpt lat="42.73822" lon="2.73046">
        <ele>186.5</ele>
        <time>2021-03-28T12:36:14Z</time>
      </trkpt>
      <trkpt lat="42.73822" lon="2.73046">
        <ele>186.5</ele>
        <time>2021-03-28T12:36:14Z</time>
      </trkpt>
      <trkpt lat="42.73827" lon="2.73043">
        <ele>186.7</ele>
        <time>2021-03-28T12:36:15Z</time>
      </trkpt>
      <trkpt lat="42.73827" lon="2.73043">
        <ele>186.7</ele>
        <time>2021-03-28T12:36:15Z</time>
      </trkpt>
      <trkpt lat="42.73833" lon="2.73038">
        <ele>186.9</ele>
        <time>2021-03-28T12:36:17Z</time>
      </trkpt>
      <trkpt lat="42.73833" lon="2.73038">
        <ele>186.9</ele>
        <time>2021-03-28T12:36:17Z</time>
      </trkpt>
      <trkpt lat="42.73838" lon="2.73034">
        <ele>187</ele>
        <time>2021-03-28T12:36:19Z</time>
      </trkpt>
      <trkpt lat="42.73838" lon="2.73034">
        <ele>187</ele>
        <time>2021-03-28T12:36:19Z</time>
      </trkpt>
      <trkpt lat="42.73845" lon="2.73028">
        <ele>187.2</ele>
        <time>2021-03-28T12:36:21Z</time>
      </trkpt>
      <trkpt lat="42.73845" lon="2.73028">
        <ele>187.2</ele>
        <time>2021-03-28T12:36:21Z</time>
      </trkpt>
      <trkpt lat="42.7385" lon="2.73024">
        <ele>187.5</ele>
        <time>2021-03-28T12:36:22Z</time>
      </trkpt>
      <trkpt lat="42.7385" lon="2.73024">
        <ele>187.5</ele>
        <time>2021-03-28T12:36:22Z</time>
      </trkpt>
      <trkpt lat="42.73855" lon="2.73021">
        <ele>187.7</ele>
        <time>2021-03-28T12:36:23Z</time>
      </trkpt>
      <trkpt lat="42.73855" lon="2.73021">
        <ele>187.7</ele>
        <time>2021-03-28T12:36:23Z</time>
      </trkpt>
      <trkpt lat="42.73859" lon="2.73018">
        <ele>187.9</ele>
        <time>2021-03-28T12:36:24Z</time>
      </trkpt>
      <trkpt lat="42.73859" lon="2.73018">
        <ele>187.9</ele>
        <time>2021-03-28T12:36:24Z</time>
      </trkpt>
      <trkpt lat="42.73865" lon="2.73015">
        <ele>188.1</ele>
        <time>2021-03-28T12:36:26Z</time>
      </trkpt>
      <trkpt lat="42.73865" lon="2.73015">
        <ele>188.1</ele>
        <time>2021-03-28T12:36:26Z</time>
      </trkpt>
      <trkpt lat="42.7387" lon="2.73013">
        <ele>188.2</ele>
        <time>2021-03-28T12:36:27Z</time>
      </trkpt>
      <trkpt lat="42.7387" lon="2.73013">
        <ele>188.2</ele>
        <time>2021-03-28T12:36:27Z</time>
      </trkpt>
      <trkpt lat="42.73874" lon="2.73011">
        <ele>188.3</ele>
        <time>2021-03-28T12:36:28Z</time>
      </trkpt>
      <trkpt lat="42.73874" lon="2.73011">
        <ele>188.3</ele>
        <time>2021-03-28T12:36:28Z</time>
      </trkpt>
      <trkpt lat="42.73879" lon="2.73008">
        <ele>188.5</ele>
        <time>2021-03-28T12:36:30Z</time>
      </trkpt>
      <trkpt lat="42.73879" lon="2.73008">
        <ele>188.5</ele>
        <time>2021-03-28T12:36:30Z</time>
      </trkpt>
      <trkpt lat="42.73883" lon="2.73004">
        <ele>188.8</ele>
        <time>2021-03-28T12:36:31Z</time>
      </trkpt>
      <trkpt lat="42.73883" lon="2.73004">
        <ele>188.8</ele>
        <time>2021-03-28T12:36:31Z</time>
      </trkpt>
      <trkpt lat="42.73889" lon="2.73">
        <ele>189</ele>
        <time>2021-03-28T12:36:33Z</time>
      </trkpt>
      <trkpt lat="42.73889" lon="2.73">
        <ele>189</ele>
        <time>2021-03-28T12:36:33Z</time>
      </trkpt>
      <trkpt lat="42.73894" lon="2.72996">
        <ele>189.1</ele>
        <time>2021-03-28T12:36:34Z</time>
      </trkpt>
      <trkpt lat="42.73894" lon="2.72996">
        <ele>189.1</ele>
        <time>2021-03-28T12:36:34Z</time>
      </trkpt>
      <trkpt lat="42.739" lon="2.72992">
        <ele>189.3</ele>
        <time>2021-03-28T12:36:36Z</time>
      </trkpt>
      <trkpt lat="42.739" lon="2.72992">
        <ele>189.3</ele>
        <time>2021-03-28T12:36:36Z</time>
      </trkpt>
      <trkpt lat="42.73905" lon="2.72988">
        <ele>189.5</ele>
        <time>2021-03-28T12:36:37Z</time>
      </trkpt>
      <trkpt lat="42.73905" lon="2.72988">
        <ele>189.5</ele>
        <time>2021-03-28T12:36:37Z</time>
      </trkpt>
      <trkpt lat="42.7391" lon="2.72983">
        <ele>189.7</ele>
        <time>2021-03-28T12:36:38Z</time>
      </trkpt>
      <trkpt lat="42.7391" lon="2.72983">
        <ele>189.7</ele>
        <time>2021-03-28T12:36:38Z</time>
      </trkpt>
      <trkpt lat="42.73915" lon="2.72978">
        <ele>190.1</ele>
        <time>2021-03-28T12:36:40Z</time>
      </trkpt>
      <trkpt lat="42.73915" lon="2.72978">
        <ele>190.1</ele>
        <time>2021-03-28T12:36:40Z</time>
      </trkpt>
      <trkpt lat="42.7392" lon="2.72974">
        <ele>190.5</ele>
        <time>2021-03-28T12:36:41Z</time>
      </trkpt>
      <trkpt lat="42.7392" lon="2.72974">
        <ele>190.5</ele>
        <time>2021-03-28T12:36:41Z</time>
      </trkpt>
      <trkpt lat="42.73925" lon="2.72969">
        <ele>190.9</ele>
        <time>2021-03-28T12:36:42Z</time>
      </trkpt>
      <trkpt lat="42.73925" lon="2.72969">
        <ele>190.9</ele>
        <time>2021-03-28T12:36:42Z</time>
      </trkpt>
      <trkpt lat="42.73929" lon="2.72966">
        <ele>191.3</ele>
        <time>2021-03-28T12:36:43Z</time>
      </trkpt>
      <trkpt lat="42.73929" lon="2.72966">
        <ele>191.3</ele>
        <time>2021-03-28T12:36:43Z</time>
      </trkpt>
      <trkpt lat="42.73934" lon="2.72962">
        <ele>191.6</ele>
        <time>2021-03-28T12:36:45Z</time>
      </trkpt>
      <trkpt lat="42.73934" lon="2.72962">
        <ele>191.6</ele>
        <time>2021-03-28T12:36:45Z</time>
      </trkpt>
      <trkpt lat="42.73941" lon="2.72957">
        <ele>192</ele>
        <time>2021-03-28T12:36:47Z</time>
      </trkpt>
      <trkpt lat="42.73941" lon="2.72957">
        <ele>192</ele>
        <time>2021-03-28T12:36:47Z</time>
      </trkpt>
      <trkpt lat="42.73947" lon="2.72952">
        <ele>192.3</ele>
        <time>2021-03-28T12:36:49Z</time>
      </trkpt>
      <trkpt lat="42.73947" lon="2.72952">
        <ele>192.3</ele>
        <time>2021-03-28T12:36:49Z</time>
      </trkpt>
      <trkpt lat="42.73953" lon="2.7295">
        <ele>192.3</ele>
        <time>2021-03-28T12:36:50Z</time>
      </trkpt>
      <trkpt lat="42.73953" lon="2.7295">
        <ele>192.3</ele>
        <time>2021-03-28T12:36:50Z</time>
      </trkpt>
      <trkpt lat="42.73959" lon="2.72946">
        <ele>192.2</ele>
        <time>2021-03-28T12:36:52Z</time>
      </trkpt>
      <trkpt lat="42.73959" lon="2.72946">
        <ele>192.2</ele>
        <time>2021-03-28T12:36:52Z</time>
      </trkpt>
      <trkpt lat="42.73964" lon="2.72943">
        <ele>192.2</ele>
        <time>2021-03-28T12:36:53Z</time>
      </trkpt>
      <trkpt lat="42.73964" lon="2.72943">
        <ele>192.2</ele>
        <time>2021-03-28T12:36:53Z</time>
      </trkpt>
      <trkpt lat="42.7397" lon="2.72939">
        <ele>192.3</ele>
        <time>2021-03-28T12:36:55Z</time>
      </trkpt>
      <trkpt lat="42.7397" lon="2.72939">
        <ele>192.3</ele>
        <time>2021-03-28T12:36:55Z</time>
      </trkpt>
      <trkpt lat="42.73975" lon="2.72935">
        <ele>192.5</ele>
        <time>2021-03-28T12:36:57Z</time>
      </trkpt>
      <trkpt lat="42.73975" lon="2.72935">
        <ele>192.5</ele>
        <time>2021-03-28T12:36:57Z</time>
      </trkpt>
      <trkpt lat="42.73982" lon="2.72931">
        <ele>192.8</ele>
        <time>2021-03-28T12:36:59Z</time>
      </trkpt>
      <trkpt lat="42.73982" lon="2.72931">
        <ele>192.8</ele>
        <time>2021-03-28T12:36:59Z</time>
      </trkpt>
      <trkpt lat="42.73987" lon="2.72926">
        <ele>193</ele>
        <time>2021-03-28T12:37:00Z</time>
      </trkpt>
      <trkpt lat="42.73987" lon="2.72926">
        <ele>193</ele>
        <time>2021-03-28T12:37:00Z</time>
      </trkpt>
      <trkpt lat="42.73994" lon="2.72922">
        <ele>193.1</ele>
        <time>2021-03-28T12:37:02Z</time>
      </trkpt>
      <trkpt lat="42.73994" lon="2.72922">
        <ele>193.1</ele>
        <time>2021-03-28T12:37:02Z</time>
      </trkpt>
      <trkpt lat="42.74001" lon="2.72917">
        <ele>192.9</ele>
        <time>2021-03-28T12:37:04Z</time>
      </trkpt>
      <trkpt lat="42.74001" lon="2.72917">
        <ele>192.9</ele>
        <time>2021-03-28T12:37:04Z</time>
      </trkpt>
      <trkpt lat="42.74008" lon="2.72912">
        <ele>193.1</ele>
        <time>2021-03-28T12:37:06Z</time>
      </trkpt>
      <trkpt lat="42.74008" lon="2.72912">
        <ele>193.1</ele>
        <time>2021-03-28T12:37:06Z</time>
      </trkpt>
      <trkpt lat="42.74015" lon="2.72907">
        <ele>193.1</ele>
        <time>2021-03-28T12:37:08Z</time>
      </trkpt>
      <trkpt lat="42.74015" lon="2.72907">
        <ele>193.1</ele>
        <time>2021-03-28T12:37:08Z</time>
      </trkpt>
      <trkpt lat="42.74022" lon="2.72903">
        <ele>193.2</ele>
        <time>2021-03-28T12:37:10Z</time>
      </trkpt>
      <trkpt lat="42.74022" lon="2.72903">
        <ele>193.2</ele>
        <time>2021-03-28T12:37:10Z</time>
      </trkpt>
      <trkpt lat="42.74029" lon="2.729">
        <ele>193.3</ele>
        <time>2021-03-28T12:37:12Z</time>
      </trkpt>
      <trkpt lat="42.74029" lon="2.729">
        <ele>193.3</ele>
        <time>2021-03-28T12:37:12Z</time>
      </trkpt>
      <trkpt lat="42.74035" lon="2.72897">
        <ele>193.7</ele>
        <time>2021-03-28T12:37:13Z</time>
      </trkpt>
      <trkpt lat="42.74035" lon="2.72897">
        <ele>193.7</ele>
        <time>2021-03-28T12:37:13Z</time>
      </trkpt>
      <trkpt lat="42.74042" lon="2.72894">
        <ele>194.2</ele>
        <time>2021-03-28T12:37:15Z</time>
      </trkpt>
      <trkpt lat="42.74042" lon="2.72894">
        <ele>194.2</ele>
        <time>2021-03-28T12:37:15Z</time>
      </trkpt>
      <trkpt lat="42.74048" lon="2.72892">
        <ele>194.6</ele>
        <time>2021-03-28T12:37:16Z</time>
      </trkpt>
      <trkpt lat="42.74048" lon="2.72892">
        <ele>194.6</ele>
        <time>2021-03-28T12:37:16Z</time>
      </trkpt>
      <trkpt lat="42.74054" lon="2.72889">
        <ele>194.9</ele>
        <time>2021-03-28T12:37:18Z</time>
      </trkpt>
      <trkpt lat="42.74054" lon="2.72889">
        <ele>194.9</ele>
        <time>2021-03-28T12:37:18Z</time>
      </trkpt>
      <trkpt lat="42.74059" lon="2.72888">
        <ele>195</ele>
        <time>2021-03-28T12:37:20Z</time>
      </trkpt>
      <trkpt lat="42.74059" lon="2.72888">
        <ele>195</ele>
        <time>2021-03-28T12:37:20Z</time>
      </trkpt>
      <trkpt lat="42.74064" lon="2.72887">
        <ele>195</ele>
        <time>2021-03-28T12:37:22Z</time>
      </trkpt>
      <trkpt lat="42.74064" lon="2.72887">
        <ele>195</ele>
        <time>2021-03-28T12:37:22Z</time>
      </trkpt>
      <trkpt lat="42.74068" lon="2.72886">
        <ele>194.9</ele>
        <time>2021-03-28T12:37:23Z</time>
      </trkpt>
      <trkpt lat="42.74068" lon="2.72886">
        <ele>194.9</ele>
        <time>2021-03-28T12:37:23Z</time>
      </trkpt>
      <trkpt lat="42.74071" lon="2.72885">
        <ele>194.9</ele>
        <time>2021-03-28T12:37:25Z</time>
      </trkpt>
      <trkpt lat="42.74071" lon="2.72885">
        <ele>194.9</ele>
        <time>2021-03-28T12:37:25Z</time>
      </trkpt>
      <trkpt lat="42.74074" lon="2.72884">
        <ele>194.8</ele>
        <time>2021-03-28T12:37:26Z</time>
      </trkpt>
      <trkpt lat="42.74074" lon="2.72884">
        <ele>194.8</ele>
        <time>2021-03-28T12:37:26Z</time>
      </trkpt>
      <trkpt lat="42.74077" lon="2.72883">
        <ele>194.9</ele>
        <time>2021-03-28T12:37:28Z</time>
      </trkpt>
      <trkpt lat="42.74077" lon="2.72883">
        <ele>194.9</ele>
        <time>2021-03-28T12:37:28Z</time>
      </trkpt>
      <trkpt lat="42.7408" lon="2.72882">
        <ele>194.9</ele>
        <time>2021-03-28T12:37:29Z</time>
      </trkpt>
      <trkpt lat="42.7408" lon="2.72882">
        <ele>194.9</ele>
        <time>2021-03-28T12:37:29Z</time>
      </trkpt>
      <trkpt lat="42.74083" lon="2.72881">
        <ele>194.9</ele>
        <time>2021-03-28T12:37:31Z</time>
      </trkpt>
      <trkpt lat="42.74083" lon="2.72881">
        <ele>194.9</ele>
        <time>2021-03-28T12:37:31Z</time>
      </trkpt>
      <trkpt lat="42.74085" lon="2.72881">
        <ele>194.7</ele>
        <time>2021-03-28T12:37:33Z</time>
      </trkpt>
      <trkpt lat="42.74085" lon="2.72881">
        <ele>194.7</ele>
        <time>2021-03-28T12:37:33Z</time>
      </trkpt>
      <trkpt lat="42.74087" lon="2.72882">
        <ele>194.6</ele>
        <time>2021-03-28T12:37:34Z</time>
      </trkpt>
      <trkpt lat="42.74087" lon="2.72882">
        <ele>194.6</ele>
        <time>2021-03-28T12:37:34Z</time>
      </trkpt>
      <trkpt lat="42.74088" lon="2.72883">
        <ele>194.5</ele>
        <time>2021-03-28T12:37:35Z</time>
      </trkpt>
      <trkpt lat="42.74088" lon="2.72883">
        <ele>194.5</ele>
        <time>2021-03-28T12:37:35Z</time>
      </trkpt>
      <trkpt lat="42.74089" lon="2.72884">
        <ele>194.4</ele>
        <time>2021-03-28T12:37:37Z</time>
      </trkpt>
      <trkpt lat="42.74089" lon="2.72884">
        <ele>194.4</ele>
        <time>2021-03-28T12:37:37Z</time>
      </trkpt>
      <trkpt lat="42.74091" lon="2.72886">
        <ele>194.2</ele>
        <time>2021-03-28T12:37:40Z</time>
      </trkpt>
      <trkpt lat="42.74091" lon="2.72886">
        <ele>194.2</ele>
        <time>2021-03-28T12:37:40Z</time>
      </trkpt>
      <trkpt lat="42.74091" lon="2.72886">
        <ele>194.2</ele>
        <time>2021-03-28T12:37:41Z</time>
      </trkpt>
      <trkpt lat="42.74091" lon="2.72886">
        <ele>194.2</ele>
        <time>2021-03-28T12:37:41Z</time>
      </trkpt>
      <trkpt lat="42.76706" lon="2.86794">
        <ele>28</ele>
        <time>2021-03-28T13:41:17Z</time>
      </trkpt>
      <trkpt lat="42.76706" lon="2.86794">
        <ele>28</ele>
        <time>2021-03-28T13:41:17Z</time>
      </trkpt>
      <trkpt lat="42.76705" lon="2.86793">
        <ele>28</ele>
        <time>2021-03-28T13:41:19Z</time>
      </trkpt>
      <trkpt lat="42.76705" lon="2.86793">
        <ele>28</ele>
        <time>2021-03-28T13:41:19Z</time>
      </trkpt>
      <trkpt lat="42.76705" lon="2.86793">
        <ele>28</ele>
        <time>2021-03-28T13:41:21Z</time>
      </trkpt>
      <trkpt lat="42.76705" lon="2.86793">
        <ele>28</ele>
        <time>2021-03-28T13:41:21Z</time>
      </trkpt>
      <trkpt lat="42.76705" lon="2.86794">
        <ele>28</ele>
        <time>2021-03-28T13:41:22Z</time>
      </trkpt>
      <trkpt lat="42.76705" lon="2.86794">
        <ele>28</ele>
        <time>2021-03-28T13:41:22Z</time>
      </trkpt>
      <trkpt lat="42.76705" lon="2.86794">
        <ele>28</ele>
        <time>2021-03-28T13:41:23Z</time>
      </trkpt>
      <trkpt lat="42.76705" lon="2.86794">
        <ele>28</ele>
        <time>2021-03-28T13:41:23Z</time>
      </trkpt>
    </trkseg>
  </trk>
</gpx>